<?xml version="1.0" encoding="UTF-8" standalone="no" ?>
<gpx xmlns="http://www.topografix.com/GPX/1/1" xmlns:xsi="http://www.w3.org/2001/XMLSchema-instance" xsi:schemaLocation="http://www.topografix.com/GPX/1/1 http://www.topografix.com/GPX/1/1/gpx.xsd" version="1.1" creator="VisuGPX - https://www.visugpx.com">
  <metadata>
    <name>Trail Grenoble - Bec Aigu - Fort St Eynard - Crete Saint Eynard - Col de Vence - Bergerie - Mont Rachais - Relais de Roche Bise - Jalla - Bastille - Grenoble</name>
    <desc><![CDATA[Le sentier des cretes du Fort St Eynard sont difficiles
Premiers pas dans la neige]]></desc>
  </metadata>
  <trk>
    <name><![CDATA[Grenoble Trail]]></name>
    <trkseg>
      <trkpt lat="45.19663" lon="5.73953">
        <ele>213.39999389648</ele>
        <time>2021-11-06T04:15:34.000Z</time>
      </trkpt>
      <trkpt lat="45.19663" lon="5.73953">
        <ele>213.39999389648</ele>
        <time>2021-11-06T04:15:35.000Z</time>
      </trkpt>
      <trkpt lat="45.19659" lon="5.73957">
        <ele>213.39999389648</ele>
        <time>2021-11-06T04:15:39.000Z</time>
      </trkpt>
      <trkpt lat="45.19652" lon="5.73966">
        <ele>213.39999389648</ele>
        <time>2021-11-06T04:15:43.000Z</time>
      </trkpt>
      <trkpt lat="45.19642" lon="5.73969">
        <ele>213.60000610352</ele>
        <time>2021-11-06T04:15:49.000Z</time>
      </trkpt>
      <trkpt lat="45.19643" lon="5.73968">
        <ele>213.60000610352</ele>
        <time>2021-11-06T04:15:51.000Z</time>
      </trkpt>
      <trkpt lat="45.19639" lon="5.73967">
        <ele>213.39999389648</ele>
        <time>2021-11-06T04:15:54.000Z</time>
      </trkpt>
      <trkpt lat="45.19636" lon="5.73971">
        <ele>213.39999389648</ele>
        <time>2021-11-06T04:15:56.000Z</time>
      </trkpt>
      <trkpt lat="45.19635" lon="5.73967">
        <ele>213.19999694824</ele>
        <time>2021-11-06T04:15:58.000Z</time>
      </trkpt>
      <trkpt lat="45.19632" lon="5.73966">
        <ele>212</ele>
        <time>2021-11-06T04:16:02.000Z</time>
      </trkpt>
      <trkpt lat="45.19632" lon="5.73965">
        <ele>211.60000610352</ele>
        <time>2021-11-06T04:16:03.000Z</time>
      </trkpt>
      <trkpt lat="45.19632" lon="5.73963">
        <ele>211</ele>
        <time>2021-11-06T04:16:05.000Z</time>
      </trkpt>
      <trkpt lat="45.19633" lon="5.73963">
        <ele>210.60000610352</ele>
        <time>2021-11-06T04:16:07.000Z</time>
      </trkpt>
      <trkpt lat="45.19634" lon="5.73967">
        <ele>210.60000610352</ele>
        <time>2021-11-06T04:16:09.000Z</time>
      </trkpt>
      <trkpt lat="45.19633" lon="5.73969">
        <ele>209.80000305176</ele>
        <time>2021-11-06T04:16:13.000Z</time>
      </trkpt>
      <trkpt lat="45.19627" lon="5.73973">
        <ele>208.80000305176</ele>
        <time>2021-11-06T04:16:17.000Z</time>
      </trkpt>
      <trkpt lat="45.19627" lon="5.73974">
        <ele>208.80000305176</ele>
        <time>2021-11-06T04:16:18.000Z</time>
      </trkpt>
      <trkpt lat="45.19626" lon="5.73973">
        <ele>207.60000610352</ele>
        <time>2021-11-06T04:16:23.000Z</time>
      </trkpt>
      <trkpt lat="45.19626" lon="5.73971">
        <ele>206.60000610352</ele>
        <time>2021-11-06T04:16:26.000Z</time>
      </trkpt>
      <trkpt lat="45.19626" lon="5.73971">
        <ele>206.19999694824</ele>
        <time>2021-11-06T04:16:27.000Z</time>
      </trkpt>
      <trkpt lat="45.19626" lon="5.73972">
        <ele>206</ele>
        <time>2021-11-06T04:16:31.000Z</time>
      </trkpt>
      <trkpt lat="45.19628" lon="5.73973">
        <ele>206</ele>
        <time>2021-11-06T04:16:36.000Z</time>
      </trkpt>
      <trkpt lat="45.19629" lon="5.73974">
        <ele>206</ele>
        <time>2021-11-06T04:16:37.000Z</time>
      </trkpt>
      <trkpt lat="45.19633" lon="5.73972">
        <ele>206</ele>
        <time>2021-11-06T04:16:39.000Z</time>
      </trkpt>
      <trkpt lat="45.19635" lon="5.73972">
        <ele>206</ele>
        <time>2021-11-06T04:16:40.000Z</time>
      </trkpt>
      <trkpt lat="45.19638" lon="5.73971">
        <ele>206</ele>
        <time>2021-11-06T04:16:41.000Z</time>
      </trkpt>
      <trkpt lat="45.19646" lon="5.73967">
        <ele>206</ele>
        <time>2021-11-06T04:16:45.000Z</time>
      </trkpt>
      <trkpt lat="45.19648" lon="5.73966">
        <ele>206</ele>
        <time>2021-11-06T04:16:46.000Z</time>
      </trkpt>
      <trkpt lat="45.19649" lon="5.73965">
        <ele>206</ele>
        <time>2021-11-06T04:16:47.000Z</time>
      </trkpt>
      <trkpt lat="45.19653" lon="5.73961">
        <ele>206.19999694824</ele>
        <time>2021-11-06T04:16:49.000Z</time>
      </trkpt>
      <trkpt lat="45.19656" lon="5.73954">
        <ele>206</ele>
        <time>2021-11-06T04:16:52.000Z</time>
      </trkpt>
      <trkpt lat="45.19657" lon="5.7395">
        <ele>206</ele>
        <time>2021-11-06T04:16:53.000Z</time>
      </trkpt>
      <trkpt lat="45.19661" lon="5.73946">
        <ele>206</ele>
        <time>2021-11-06T04:16:55.000Z</time>
      </trkpt>
      <trkpt lat="45.19666" lon="5.73943">
        <ele>206</ele>
        <time>2021-11-06T04:16:57.000Z</time>
      </trkpt>
      <trkpt lat="45.19668" lon="5.73943">
        <ele>206</ele>
        <time>2021-11-06T04:16:58.000Z</time>
      </trkpt>
      <trkpt lat="45.19673" lon="5.73944">
        <ele>206.19999694824</ele>
        <time>2021-11-06T04:17:01.000Z</time>
      </trkpt>
      <trkpt lat="45.19672" lon="5.73948">
        <ele>206.19999694824</ele>
        <time>2021-11-06T04:17:03.000Z</time>
      </trkpt>
      <trkpt lat="45.19672" lon="5.73953">
        <ele>206.19999694824</ele>
        <time>2021-11-06T04:17:05.000Z</time>
      </trkpt>
      <trkpt lat="45.19674" lon="5.73957">
        <ele>206.19999694824</ele>
        <time>2021-11-06T04:17:06.000Z</time>
      </trkpt>
      <trkpt lat="45.19678" lon="5.73964">
        <ele>206.39999389648</ele>
        <time>2021-11-06T04:17:08.000Z</time>
      </trkpt>
      <trkpt lat="45.19682" lon="5.73977">
        <ele>206.60000610352</ele>
        <time>2021-11-06T04:17:12.000Z</time>
      </trkpt>
      <trkpt lat="45.19684" lon="5.73984">
        <ele>206.19999694824</ele>
        <time>2021-11-06T04:17:14.000Z</time>
      </trkpt>
      <trkpt lat="45.19687" lon="5.73992">
        <ele>206.19999694824</ele>
        <time>2021-11-06T04:17:17.000Z</time>
      </trkpt>
      <trkpt lat="45.19688" lon="5.74002">
        <ele>206.19999694824</ele>
        <time>2021-11-06T04:17:20.000Z</time>
      </trkpt>
      <trkpt lat="45.19691" lon="5.74009">
        <ele>206.19999694824</ele>
        <time>2021-11-06T04:17:22.000Z</time>
      </trkpt>
      <trkpt lat="45.19693" lon="5.74021">
        <ele>206.19999694824</ele>
        <time>2021-11-06T04:17:25.000Z</time>
      </trkpt>
      <trkpt lat="45.19699" lon="5.74036">
        <ele>206.19999694824</ele>
        <time>2021-11-06T04:17:30.000Z</time>
      </trkpt>
      <trkpt lat="45.19702" lon="5.74054">
        <ele>206.19999694824</ele>
        <time>2021-11-06T04:17:36.000Z</time>
      </trkpt>
      <trkpt lat="45.19706" lon="5.74078">
        <ele>206</ele>
        <time>2021-11-06T04:17:43.000Z</time>
      </trkpt>
      <trkpt lat="45.19706" lon="5.74085">
        <ele>206.19999694824</ele>
        <time>2021-11-06T04:17:45.000Z</time>
      </trkpt>
      <trkpt lat="45.19707" lon="5.74105">
        <ele>206.39999389648</ele>
        <time>2021-11-06T04:17:51.000Z</time>
      </trkpt>
      <trkpt lat="45.19713" lon="5.74126">
        <ele>206.39999389648</ele>
        <time>2021-11-06T04:17:57.000Z</time>
      </trkpt>
      <trkpt lat="45.19715" lon="5.74139">
        <ele>206.39999389648</ele>
        <time>2021-11-06T04:18:01.000Z</time>
      </trkpt>
      <trkpt lat="45.19719" lon="5.7415">
        <ele>206.39999389648</ele>
        <time>2021-11-06T04:18:04.000Z</time>
      </trkpt>
      <trkpt lat="45.19721" lon="5.74171">
        <ele>206.60000610352</ele>
        <time>2021-11-06T04:18:10.000Z</time>
      </trkpt>
      <trkpt lat="45.19724" lon="5.74185">
        <ele>206.39999389648</ele>
        <time>2021-11-06T04:18:14.000Z</time>
      </trkpt>
      <trkpt lat="45.19726" lon="5.74193">
        <ele>206.39999389648</ele>
        <time>2021-11-06T04:18:17.000Z</time>
      </trkpt>
      <trkpt lat="45.19728" lon="5.74204">
        <ele>206.19999694824</ele>
        <time>2021-11-06T04:18:21.000Z</time>
      </trkpt>
      <trkpt lat="45.19729" lon="5.74213">
        <ele>206.39999389648</ele>
        <time>2021-11-06T04:18:24.000Z</time>
      </trkpt>
      <trkpt lat="45.19735" lon="5.7422">
        <ele>206.39999389648</ele>
        <time>2021-11-06T04:18:27.000Z</time>
      </trkpt>
      <trkpt lat="45.19736" lon="5.74224">
        <ele>206.39999389648</ele>
        <time>2021-11-06T04:18:28.000Z</time>
      </trkpt>
      <trkpt lat="45.19737" lon="5.74233">
        <ele>206.60000610352</ele>
        <time>2021-11-06T04:18:31.000Z</time>
      </trkpt>
      <trkpt lat="45.1974" lon="5.74237">
        <ele>207.60000610352</ele>
        <time>2021-11-06T04:18:35.000Z</time>
      </trkpt>
      <trkpt lat="45.19741" lon="5.74237">
        <ele>207.80000305176</ele>
        <time>2021-11-06T04:18:36.000Z</time>
      </trkpt>
      <trkpt lat="45.19752" lon="5.74235">
        <ele>208.19999694824</ele>
        <time>2021-11-06T04:18:42.000Z</time>
      </trkpt>
      <trkpt lat="45.19758" lon="5.74233">
        <ele>208.39999389648</ele>
        <time>2021-11-06T04:18:45.000Z</time>
      </trkpt>
      <trkpt lat="45.19764" lon="5.7423">
        <ele>208.19999694824</ele>
        <time>2021-11-06T04:18:49.000Z</time>
      </trkpt>
      <trkpt lat="45.19772" lon="5.74225">
        <ele>208.39999389648</ele>
        <time>2021-11-06T04:18:55.000Z</time>
      </trkpt>
      <trkpt lat="45.19784" lon="5.74223">
        <ele>208.39999389648</ele>
        <time>2021-11-06T04:19:01.000Z</time>
      </trkpt>
      <trkpt lat="45.19797" lon="5.74225">
        <ele>208.39999389648</ele>
        <time>2021-11-06T04:19:08.000Z</time>
      </trkpt>
      <trkpt lat="45.19816" lon="5.74218">
        <ele>208.39999389648</ele>
        <time>2021-11-06T04:19:15.000Z</time>
      </trkpt>
      <trkpt lat="45.19821" lon="5.74216">
        <ele>208.39999389648</ele>
        <time>2021-11-06T04:19:17.000Z</time>
      </trkpt>
      <trkpt lat="45.19833" lon="5.7421">
        <ele>208.60000610352</ele>
        <time>2021-11-06T04:19:22.000Z</time>
      </trkpt>
      <trkpt lat="45.19852" lon="5.74203">
        <ele>208</ele>
        <time>2021-11-06T04:19:30.000Z</time>
      </trkpt>
      <trkpt lat="45.19871" lon="5.74195">
        <ele>208</ele>
        <time>2021-11-06T04:19:37.000Z</time>
      </trkpt>
      <trkpt lat="45.19876" lon="5.74193">
        <ele>208.39999389648</ele>
        <time>2021-11-06T04:19:39.000Z</time>
      </trkpt>
      <trkpt lat="45.19883" lon="5.74189">
        <ele>208.60000610352</ele>
        <time>2021-11-06T04:19:43.000Z</time>
      </trkpt>
      <trkpt lat="45.19885" lon="5.74188">
        <ele>208.60000610352</ele>
        <time>2021-11-06T04:19:44.000Z</time>
      </trkpt>
      <trkpt lat="45.19897" lon="5.74178">
        <ele>208.60000610352</ele>
        <time>2021-11-06T04:19:50.000Z</time>
      </trkpt>
      <trkpt lat="45.19904" lon="5.74173">
        <ele>208.80000305176</ele>
        <time>2021-11-06T04:19:53.000Z</time>
      </trkpt>
      <trkpt lat="45.19908" lon="5.74169">
        <ele>208.80000305176</ele>
        <time>2021-11-06T04:19:55.000Z</time>
      </trkpt>
      <trkpt lat="45.1991" lon="5.74168">
        <ele>208.80000305176</ele>
        <time>2021-11-06T04:19:56.000Z</time>
      </trkpt>
      <trkpt lat="45.19926" lon="5.74156">
        <ele>208.60000610352</ele>
        <time>2021-11-06T04:20:02.000Z</time>
      </trkpt>
      <trkpt lat="45.19942" lon="5.74144">
        <ele>209</ele>
        <time>2021-11-06T04:20:09.000Z</time>
      </trkpt>
      <trkpt lat="45.19958" lon="5.74128">
        <ele>208.60000610352</ele>
        <time>2021-11-06T04:20:17.000Z</time>
      </trkpt>
      <trkpt lat="45.1996" lon="5.74125">
        <ele>208.60000610352</ele>
        <time>2021-11-06T04:20:18.000Z</time>
      </trkpt>
      <trkpt lat="45.19971" lon="5.74111">
        <ele>208.60000610352</ele>
        <time>2021-11-06T04:20:24.000Z</time>
      </trkpt>
      <trkpt lat="45.19991" lon="5.741">
        <ele>207.39999389648</ele>
        <time>2021-11-06T04:20:31.000Z</time>
      </trkpt>
      <trkpt lat="45.19997" lon="5.74096">
        <ele>206.80000305176</ele>
        <time>2021-11-06T04:20:33.000Z</time>
      </trkpt>
      <trkpt lat="45.2" lon="5.74091">
        <ele>206.60000610352</ele>
        <time>2021-11-06T04:20:36.000Z</time>
      </trkpt>
      <trkpt lat="45.20002" lon="5.74086">
        <ele>206.39999389648</ele>
        <time>2021-11-06T04:20:38.000Z</time>
      </trkpt>
      <trkpt lat="45.20003" lon="5.74084">
        <ele>206.39999389648</ele>
        <time>2021-11-06T04:20:39.000Z</time>
      </trkpt>
      <trkpt lat="45.20005" lon="5.74084">
        <ele>206.39999389648</ele>
        <time>2021-11-06T04:20:40.000Z</time>
      </trkpt>
      <trkpt lat="45.20008" lon="5.74082">
        <ele>206.39999389648</ele>
        <time>2021-11-06T04:20:47.000Z</time>
      </trkpt>
      <trkpt lat="45.20015" lon="5.7407">
        <ele>206.19999694824</ele>
        <time>2021-11-06T04:20:50.000Z</time>
      </trkpt>
      <trkpt lat="45.20016" lon="5.74066">
        <ele>206.19999694824</ele>
        <time>2021-11-06T04:20:51.000Z</time>
      </trkpt>
      <trkpt lat="45.20029" lon="5.7405">
        <ele>207.19999694824</ele>
        <time>2021-11-06T04:20:58.000Z</time>
      </trkpt>
      <trkpt lat="45.20034" lon="5.74044">
        <ele>207.60000610352</ele>
        <time>2021-11-06T04:21:00.000Z</time>
      </trkpt>
      <trkpt lat="45.20041" lon="5.74032">
        <ele>208.39999389648</ele>
        <time>2021-11-06T04:21:04.000Z</time>
      </trkpt>
      <trkpt lat="45.20044" lon="5.74023">
        <ele>208.60000610352</ele>
        <time>2021-11-06T04:21:06.000Z</time>
      </trkpt>
      <trkpt lat="45.20045" lon="5.74016">
        <ele>209</ele>
        <time>2021-11-06T04:21:09.000Z</time>
      </trkpt>
      <trkpt lat="45.20045" lon="5.74017">
        <ele>209</ele>
        <time>2021-11-06T04:21:10.000Z</time>
      </trkpt>
      <trkpt lat="45.20044" lon="5.74021">
        <ele>209.60000610352</ele>
        <time>2021-11-06T04:21:13.000Z</time>
      </trkpt>
      <trkpt lat="45.20043" lon="5.74024">
        <ele>210</ele>
        <time>2021-11-06T04:21:15.000Z</time>
      </trkpt>
      <trkpt lat="45.20042" lon="5.74026">
        <ele>210.19999694824</ele>
        <time>2021-11-06T04:21:16.000Z</time>
      </trkpt>
      <trkpt lat="45.2004" lon="5.74031">
        <ele>210.60000610352</ele>
        <time>2021-11-06T04:21:19.000Z</time>
      </trkpt>
      <trkpt lat="45.20038" lon="5.74034">
        <ele>210.60000610352</ele>
        <time>2021-11-06T04:21:20.000Z</time>
      </trkpt>
      <trkpt lat="45.20035" lon="5.74039">
        <ele>211.19999694824</ele>
        <time>2021-11-06T04:21:22.000Z</time>
      </trkpt>
      <trkpt lat="45.20034" lon="5.74042">
        <ele>211.39999389648</ele>
        <time>2021-11-06T04:21:23.000Z</time>
      </trkpt>
      <trkpt lat="45.20031" lon="5.74049">
        <ele>211.80000305176</ele>
        <time>2021-11-06T04:21:26.000Z</time>
      </trkpt>
      <trkpt lat="45.20031" lon="5.74053">
        <ele>212</ele>
        <time>2021-11-06T04:21:28.000Z</time>
      </trkpt>
      <trkpt lat="45.20038" lon="5.74063">
        <ele>212.39999389648</ele>
        <time>2021-11-06T04:21:33.000Z</time>
      </trkpt>
      <trkpt lat="45.2004" lon="5.74066">
        <ele>212.39999389648</ele>
        <time>2021-11-06T04:21:34.000Z</time>
      </trkpt>
      <trkpt lat="45.20042" lon="5.74068">
        <ele>212.80000305176</ele>
        <time>2021-11-06T04:21:35.000Z</time>
      </trkpt>
      <trkpt lat="45.20045" lon="5.74073">
        <ele>213</ele>
        <time>2021-11-06T04:21:37.000Z</time>
      </trkpt>
      <trkpt lat="45.20048" lon="5.74077">
        <ele>213</ele>
        <time>2021-11-06T04:21:39.000Z</time>
      </trkpt>
      <trkpt lat="45.20056" lon="5.74085">
        <ele>213.19999694824</ele>
        <time>2021-11-06T04:21:43.000Z</time>
      </trkpt>
      <trkpt lat="45.20071" lon="5.74105">
        <ele>213.39999389648</ele>
        <time>2021-11-06T04:21:51.000Z</time>
      </trkpt>
      <trkpt lat="45.20073" lon="5.74107">
        <ele>213.39999389648</ele>
        <time>2021-11-06T04:21:52.000Z</time>
      </trkpt>
      <trkpt lat="45.20087" lon="5.74128">
        <ele>213.39999389648</ele>
        <time>2021-11-06T04:21:59.000Z</time>
      </trkpt>
      <trkpt lat="45.20089" lon="5.74131">
        <ele>213.39999389648</ele>
        <time>2021-11-06T04:22:00.000Z</time>
      </trkpt>
      <trkpt lat="45.2009" lon="5.74133">
        <ele>213.39999389648</ele>
        <time>2021-11-06T04:22:01.000Z</time>
      </trkpt>
      <trkpt lat="45.20105" lon="5.74153">
        <ele>213.60000610352</ele>
        <time>2021-11-06T04:22:08.000Z</time>
      </trkpt>
      <trkpt lat="45.20109" lon="5.74158">
        <ele>213.60000610352</ele>
        <time>2021-11-06T04:22:10.000Z</time>
      </trkpt>
      <trkpt lat="45.20113" lon="5.74161">
        <ele>213.60000610352</ele>
        <time>2021-11-06T04:22:12.000Z</time>
      </trkpt>
      <trkpt lat="45.20118" lon="5.74159">
        <ele>213.19999694824</ele>
        <time>2021-11-06T04:22:14.000Z</time>
      </trkpt>
      <trkpt lat="45.20125" lon="5.74142">
        <ele>212.19999694824</ele>
        <time>2021-11-06T04:22:20.000Z</time>
      </trkpt>
      <trkpt lat="45.20129" lon="5.74135">
        <ele>211.80000305176</ele>
        <time>2021-11-06T04:22:22.000Z</time>
      </trkpt>
      <trkpt lat="45.20137" lon="5.74116">
        <ele>210.39999389648</ele>
        <time>2021-11-06T04:22:28.000Z</time>
      </trkpt>
      <trkpt lat="45.20139" lon="5.74113">
        <ele>210.19999694824</ele>
        <time>2021-11-06T04:22:29.000Z</time>
      </trkpt>
      <trkpt lat="45.20147" lon="5.74097">
        <ele>209.60000610352</ele>
        <time>2021-11-06T04:22:34.000Z</time>
      </trkpt>
      <trkpt lat="45.20149" lon="5.74094">
        <ele>209.19999694824</ele>
        <time>2021-11-06T04:22:35.000Z</time>
      </trkpt>
      <trkpt lat="45.20156" lon="5.74075">
        <ele>208.80000305176</ele>
        <time>2021-11-06T04:22:40.000Z</time>
      </trkpt>
      <trkpt lat="45.20159" lon="5.74067">
        <ele>208.60000610352</ele>
        <time>2021-11-06T04:22:42.000Z</time>
      </trkpt>
      <trkpt lat="45.20164" lon="5.74057">
        <ele>208.19999694824</ele>
        <time>2021-11-06T04:22:45.000Z</time>
      </trkpt>
      <trkpt lat="45.20167" lon="5.74051">
        <ele>208.19999694824</ele>
        <time>2021-11-06T04:22:47.000Z</time>
      </trkpt>
      <trkpt lat="45.20173" lon="5.74041">
        <ele>207.60000610352</ele>
        <time>2021-11-06T04:22:50.000Z</time>
      </trkpt>
      <trkpt lat="45.20185" lon="5.7402">
        <ele>207.80000305176</ele>
        <time>2021-11-06T04:22:57.000Z</time>
      </trkpt>
      <trkpt lat="45.20188" lon="5.74012">
        <ele>207.80000305176</ele>
        <time>2021-11-06T04:22:59.000Z</time>
      </trkpt>
      <trkpt lat="45.20192" lon="5.74006">
        <ele>207.60000610352</ele>
        <time>2021-11-06T04:23:01.000Z</time>
      </trkpt>
      <trkpt lat="45.20197" lon="5.73997">
        <ele>207.60000610352</ele>
        <time>2021-11-06T04:23:04.000Z</time>
      </trkpt>
      <trkpt lat="45.202" lon="5.73992">
        <ele>207.60000610352</ele>
        <time>2021-11-06T04:23:06.000Z</time>
      </trkpt>
      <trkpt lat="45.20212" lon="5.73969">
        <ele>207.80000305176</ele>
        <time>2021-11-06T04:23:13.000Z</time>
      </trkpt>
      <trkpt lat="45.20214" lon="5.73962">
        <ele>207.80000305176</ele>
        <time>2021-11-06T04:23:15.000Z</time>
      </trkpt>
      <trkpt lat="45.20222" lon="5.73937">
        <ele>207.80000305176</ele>
        <time>2021-11-06T04:23:22.000Z</time>
      </trkpt>
      <trkpt lat="45.20224" lon="5.7393">
        <ele>207.80000305176</ele>
        <time>2021-11-06T04:23:24.000Z</time>
      </trkpt>
      <trkpt lat="45.20231" lon="5.73905">
        <ele>207.80000305176</ele>
        <time>2021-11-06T04:23:31.000Z</time>
      </trkpt>
      <trkpt lat="45.20235" lon="5.7388">
        <ele>207.80000305176</ele>
        <time>2021-11-06T04:23:38.000Z</time>
      </trkpt>
      <trkpt lat="45.20236" lon="5.73877">
        <ele>207.80000305176</ele>
        <time>2021-11-06T04:23:39.000Z</time>
      </trkpt>
      <trkpt lat="45.20243" lon="5.73852">
        <ele>207.80000305176</ele>
        <time>2021-11-06T04:23:46.000Z</time>
      </trkpt>
      <trkpt lat="45.20248" lon="5.73829">
        <ele>207.19999694824</ele>
        <time>2021-11-06T04:23:52.000Z</time>
      </trkpt>
      <trkpt lat="45.20252" lon="5.73819">
        <ele>207</ele>
        <time>2021-11-06T04:23:55.000Z</time>
      </trkpt>
      <trkpt lat="45.20258" lon="5.73811">
        <ele>207.60000610352</ele>
        <time>2021-11-06T04:23:58.000Z</time>
      </trkpt>
      <trkpt lat="45.20263" lon="5.73808">
        <ele>207.80000305176</ele>
        <time>2021-11-06T04:24:00.000Z</time>
      </trkpt>
      <trkpt lat="45.20273" lon="5.73808">
        <ele>207.80000305176</ele>
        <time>2021-11-06T04:24:04.000Z</time>
      </trkpt>
      <trkpt lat="45.20276" lon="5.73806">
        <ele>207.80000305176</ele>
        <time>2021-11-06T04:24:05.000Z</time>
      </trkpt>
      <trkpt lat="45.20281" lon="5.73797">
        <ele>208.19999694824</ele>
        <time>2021-11-06T04:24:09.000Z</time>
      </trkpt>
      <trkpt lat="45.20283" lon="5.73795">
        <ele>208.60000610352</ele>
        <time>2021-11-06T04:24:10.000Z</time>
      </trkpt>
      <trkpt lat="45.20291" lon="5.73791">
        <ele>209.39999389648</ele>
        <time>2021-11-06T04:24:14.000Z</time>
      </trkpt>
      <trkpt lat="45.20295" lon="5.73789">
        <ele>209.80000305176</ele>
        <time>2021-11-06T04:24:17.000Z</time>
      </trkpt>
      <trkpt lat="45.20299" lon="5.73788">
        <ele>210.39999389648</ele>
        <time>2021-11-06T04:24:20.000Z</time>
      </trkpt>
      <trkpt lat="45.20306" lon="5.73784">
        <ele>211</ele>
        <time>2021-11-06T04:24:23.000Z</time>
      </trkpt>
      <trkpt lat="45.20313" lon="5.73776">
        <ele>211.39999389648</ele>
        <time>2021-11-06T04:24:27.000Z</time>
      </trkpt>
      <trkpt lat="45.20318" lon="5.73772">
        <ele>211.80000305176</ele>
        <time>2021-11-06T04:24:29.000Z</time>
      </trkpt>
      <trkpt lat="45.20327" lon="5.73761">
        <ele>212.39999389648</ele>
        <time>2021-11-06T04:24:34.000Z</time>
      </trkpt>
      <trkpt lat="45.20332" lon="5.73756">
        <ele>212.80000305176</ele>
        <time>2021-11-06T04:24:36.000Z</time>
      </trkpt>
      <trkpt lat="45.20343" lon="5.73746">
        <ele>213.60000610352</ele>
        <time>2021-11-06T04:24:42.000Z</time>
      </trkpt>
      <trkpt lat="45.20348" lon="5.7374">
        <ele>214</ele>
        <time>2021-11-06T04:24:45.000Z</time>
      </trkpt>
      <trkpt lat="45.2035" lon="5.73737">
        <ele>214.19999694824</ele>
        <time>2021-11-06T04:24:46.000Z</time>
      </trkpt>
      <trkpt lat="45.20354" lon="5.73733">
        <ele>214.60000610352</ele>
        <time>2021-11-06T04:24:48.000Z</time>
      </trkpt>
      <trkpt lat="45.20361" lon="5.73723">
        <ele>215</ele>
        <time>2021-11-06T04:24:52.000Z</time>
      </trkpt>
      <trkpt lat="45.20365" lon="5.73719">
        <ele>215</ele>
        <time>2021-11-06T04:24:54.000Z</time>
      </trkpt>
      <trkpt lat="45.20374" lon="5.73709">
        <ele>215.60000610352</ele>
        <time>2021-11-06T04:24:58.000Z</time>
      </trkpt>
      <trkpt lat="45.20379" lon="5.73701">
        <ele>215.80000305176</ele>
        <time>2021-11-06T04:25:01.000Z</time>
      </trkpt>
      <trkpt lat="45.20383" lon="5.73691">
        <ele>217</ele>
        <time>2021-11-06T04:25:05.000Z</time>
      </trkpt>
      <trkpt lat="45.20385" lon="5.73688">
        <ele>217.19999694824</ele>
        <time>2021-11-06T04:25:06.000Z</time>
      </trkpt>
      <trkpt lat="45.20393" lon="5.73685">
        <ele>217.60000610352</ele>
        <time>2021-11-06T04:25:10.000Z</time>
      </trkpt>
      <trkpt lat="45.20395" lon="5.73687">
        <ele>217.60000610352</ele>
        <time>2021-11-06T04:25:11.000Z</time>
      </trkpt>
      <trkpt lat="45.204" lon="5.73696">
        <ele>218</ele>
        <time>2021-11-06T04:25:14.000Z</time>
      </trkpt>
      <trkpt lat="45.20402" lon="5.73699">
        <ele>218</ele>
        <time>2021-11-06T04:25:15.000Z</time>
      </trkpt>
      <trkpt lat="45.20415" lon="5.73718">
        <ele>218.60000610352</ele>
        <time>2021-11-06T04:25:22.000Z</time>
      </trkpt>
      <trkpt lat="45.20423" lon="5.73728">
        <ele>219</ele>
        <time>2021-11-06T04:25:27.000Z</time>
      </trkpt>
      <trkpt lat="45.20424" lon="5.73731">
        <ele>219</ele>
        <time>2021-11-06T04:25:28.000Z</time>
      </trkpt>
      <trkpt lat="45.20427" lon="5.73737">
        <ele>219.19999694824</ele>
        <time>2021-11-06T04:25:30.000Z</time>
      </trkpt>
      <trkpt lat="45.2043" lon="5.73746">
        <ele>219.39999389648</ele>
        <time>2021-11-06T04:25:33.000Z</time>
      </trkpt>
      <trkpt lat="45.2044" lon="5.73761">
        <ele>220</ele>
        <time>2021-11-06T04:25:39.000Z</time>
      </trkpt>
      <trkpt lat="45.20443" lon="5.73763">
        <ele>220</ele>
        <time>2021-11-06T04:25:40.000Z</time>
      </trkpt>
      <trkpt lat="45.20456" lon="5.73773">
        <ele>220.60000610352</ele>
        <time>2021-11-06T04:25:45.000Z</time>
      </trkpt>
      <trkpt lat="45.20466" lon="5.73786">
        <ele>221</ele>
        <time>2021-11-06T04:25:50.000Z</time>
      </trkpt>
      <trkpt lat="45.20467" lon="5.73789">
        <ele>221.39999389648</ele>
        <time>2021-11-06T04:25:51.000Z</time>
      </trkpt>
      <trkpt lat="45.2048" lon="5.73802">
        <ele>222</ele>
        <time>2021-11-06T04:25:57.000Z</time>
      </trkpt>
      <trkpt lat="45.20485" lon="5.73806">
        <ele>222.39999389648</ele>
        <time>2021-11-06T04:25:59.000Z</time>
      </trkpt>
      <trkpt lat="45.20493" lon="5.73813">
        <ele>223.19999694824</ele>
        <time>2021-11-06T04:26:03.000Z</time>
      </trkpt>
      <trkpt lat="45.20498" lon="5.73818">
        <ele>223.80000305176</ele>
        <time>2021-11-06T04:26:06.000Z</time>
      </trkpt>
      <trkpt lat="45.205" lon="5.7382">
        <ele>224</ele>
        <time>2021-11-06T04:26:07.000Z</time>
      </trkpt>
      <trkpt lat="45.20509" lon="5.73827">
        <ele>224.19999694824</ele>
        <time>2021-11-06T04:26:11.000Z</time>
      </trkpt>
      <trkpt lat="45.20521" lon="5.73836">
        <ele>225</ele>
        <time>2021-11-06T04:26:16.000Z</time>
      </trkpt>
      <trkpt lat="45.20522" lon="5.73838">
        <ele>225.19999694824</ele>
        <time>2021-11-06T04:26:17.000Z</time>
      </trkpt>
      <trkpt lat="45.20524" lon="5.73839">
        <ele>225.60000610352</ele>
        <time>2021-11-06T04:26:18.000Z</time>
      </trkpt>
      <trkpt lat="45.20526" lon="5.73839">
        <ele>226</ele>
        <time>2021-11-06T04:26:20.000Z</time>
      </trkpt>
      <trkpt lat="45.20531" lon="5.73839">
        <ele>226.80000305176</ele>
        <time>2021-11-06T04:26:23.000Z</time>
      </trkpt>
      <trkpt lat="45.20537" lon="5.73842">
        <ele>227.19999694824</ele>
        <time>2021-11-06T04:26:26.000Z</time>
      </trkpt>
      <trkpt lat="45.2054" lon="5.73849">
        <ele>227.80000305176</ele>
        <time>2021-11-06T04:26:28.000Z</time>
      </trkpt>
      <trkpt lat="45.20544" lon="5.73856">
        <ele>229</ele>
        <time>2021-11-06T04:26:31.000Z</time>
      </trkpt>
      <trkpt lat="45.20545" lon="5.73859">
        <ele>229.60000610352</ele>
        <time>2021-11-06T04:26:33.000Z</time>
      </trkpt>
      <trkpt lat="45.20546" lon="5.73862">
        <ele>230.19999694824</ele>
        <time>2021-11-06T04:26:35.000Z</time>
      </trkpt>
      <trkpt lat="45.20548" lon="5.73866">
        <ele>230.60000610352</ele>
        <time>2021-11-06T04:26:37.000Z</time>
      </trkpt>
      <trkpt lat="45.20549" lon="5.73867">
        <ele>231.19999694824</ele>
        <time>2021-11-06T04:26:38.000Z</time>
      </trkpt>
      <trkpt lat="45.2055" lon="5.73869">
        <ele>231.39999389648</ele>
        <time>2021-11-06T04:26:39.000Z</time>
      </trkpt>
      <trkpt lat="45.20556" lon="5.73872">
        <ele>232.60000610352</ele>
        <time>2021-11-06T04:26:43.000Z</time>
      </trkpt>
      <trkpt lat="45.20557" lon="5.73872">
        <ele>232.80000305176</ele>
        <time>2021-11-06T04:26:44.000Z</time>
      </trkpt>
      <trkpt lat="45.20561" lon="5.73872">
        <ele>233.80000305176</ele>
        <time>2021-11-06T04:26:47.000Z</time>
      </trkpt>
      <trkpt lat="45.20566" lon="5.73868">
        <ele>235.19999694824</ele>
        <time>2021-11-06T04:26:51.000Z</time>
      </trkpt>
      <trkpt lat="45.20574" lon="5.73865">
        <ele>236.19999694824</ele>
        <time>2021-11-06T04:26:56.000Z</time>
      </trkpt>
      <trkpt lat="45.20579" lon="5.73863">
        <ele>237.19999694824</ele>
        <time>2021-11-06T04:27:00.000Z</time>
      </trkpt>
      <trkpt lat="45.20581" lon="5.73862">
        <ele>237.39999389648</ele>
        <time>2021-11-06T04:27:01.000Z</time>
      </trkpt>
      <trkpt lat="45.20586" lon="5.7386">
        <ele>238.39999389648</ele>
        <time>2021-11-06T04:27:05.000Z</time>
      </trkpt>
      <trkpt lat="45.20591" lon="5.73858">
        <ele>239.60000610352</ele>
        <time>2021-11-06T04:27:09.000Z</time>
      </trkpt>
      <trkpt lat="45.20592" lon="5.73857">
        <ele>240</ele>
        <time>2021-11-06T04:27:10.000Z</time>
      </trkpt>
      <trkpt lat="45.20596" lon="5.73855">
        <ele>240.60000610352</ele>
        <time>2021-11-06T04:27:13.000Z</time>
      </trkpt>
      <trkpt lat="45.206" lon="5.73852">
        <ele>242</ele>
        <time>2021-11-06T04:27:17.000Z</time>
      </trkpt>
      <trkpt lat="45.20603" lon="5.73851">
        <ele>242.60000610352</ele>
        <time>2021-11-06T04:27:19.000Z</time>
      </trkpt>
      <trkpt lat="45.20605" lon="5.7385">
        <ele>243</ele>
        <time>2021-11-06T04:27:21.000Z</time>
      </trkpt>
      <trkpt lat="45.20609" lon="5.73848">
        <ele>244</ele>
        <time>2021-11-06T04:27:24.000Z</time>
      </trkpt>
      <trkpt lat="45.20615" lon="5.73845">
        <ele>245.19999694824</ele>
        <time>2021-11-06T04:27:28.000Z</time>
      </trkpt>
      <trkpt lat="45.20617" lon="5.73845">
        <ele>245.39999389648</ele>
        <time>2021-11-06T04:27:29.000Z</time>
      </trkpt>
      <trkpt lat="45.2062" lon="5.73843">
        <ele>246.19999694824</ele>
        <time>2021-11-06T04:27:32.000Z</time>
      </trkpt>
      <trkpt lat="45.20625" lon="5.73841">
        <ele>247.39999389648</ele>
        <time>2021-11-06T04:27:36.000Z</time>
      </trkpt>
      <trkpt lat="45.20627" lon="5.73841">
        <ele>247.80000305176</ele>
        <time>2021-11-06T04:27:38.000Z</time>
      </trkpt>
      <trkpt lat="45.2063" lon="5.73839">
        <ele>248.39999389648</ele>
        <time>2021-11-06T04:27:40.000Z</time>
      </trkpt>
      <trkpt lat="45.20635" lon="5.73838">
        <ele>249.60000610352</ele>
        <time>2021-11-06T04:27:44.000Z</time>
      </trkpt>
      <trkpt lat="45.20639" lon="5.73836">
        <ele>251</ele>
        <time>2021-11-06T04:27:48.000Z</time>
      </trkpt>
      <trkpt lat="45.20644" lon="5.73835">
        <ele>252.19999694824</ele>
        <time>2021-11-06T04:27:52.000Z</time>
      </trkpt>
      <trkpt lat="45.20648" lon="5.73834">
        <ele>253.39999389648</ele>
        <time>2021-11-06T04:27:56.000Z</time>
      </trkpt>
      <trkpt lat="45.2065" lon="5.73832">
        <ele>253.80000305176</ele>
        <time>2021-11-06T04:27:57.000Z</time>
      </trkpt>
      <trkpt lat="45.20652" lon="5.73831">
        <ele>254.39999389648</ele>
        <time>2021-11-06T04:27:59.000Z</time>
      </trkpt>
      <trkpt lat="45.20656" lon="5.73828">
        <ele>255.60000610352</ele>
        <time>2021-11-06T04:28:03.000Z</time>
      </trkpt>
      <trkpt lat="45.20658" lon="5.73826">
        <ele>256</ele>
        <time>2021-11-06T04:28:05.000Z</time>
      </trkpt>
      <trkpt lat="45.2066" lon="5.73825">
        <ele>256.79998779297</ele>
        <time>2021-11-06T04:28:07.000Z</time>
      </trkpt>
      <trkpt lat="45.20663" lon="5.73823">
        <ele>258</ele>
        <time>2021-11-06T04:28:11.000Z</time>
      </trkpt>
      <trkpt lat="45.20665" lon="5.73823">
        <ele>258.39999389648</ele>
        <time>2021-11-06T04:28:13.000Z</time>
      </trkpt>
      <trkpt lat="45.20666" lon="5.73823">
        <ele>258.60000610352</ele>
        <time>2021-11-06T04:28:14.000Z</time>
      </trkpt>
      <trkpt lat="45.20667" lon="5.73823">
        <ele>259.20001220703</ele>
        <time>2021-11-06T04:28:15.000Z</time>
      </trkpt>
      <trkpt lat="45.20668" lon="5.73822">
        <ele>259.39999389648</ele>
        <time>2021-11-06T04:28:16.000Z</time>
      </trkpt>
      <trkpt lat="45.20671" lon="5.73821">
        <ele>260</ele>
        <time>2021-11-06T04:28:18.000Z</time>
      </trkpt>
      <trkpt lat="45.20672" lon="5.73821">
        <ele>260.39999389648</ele>
        <time>2021-11-06T04:28:20.000Z</time>
      </trkpt>
      <trkpt lat="45.20673" lon="5.7382">
        <ele>260.60000610352</ele>
        <time>2021-11-06T04:28:21.000Z</time>
      </trkpt>
      <trkpt lat="45.20675" lon="5.73819">
        <ele>260.60000610352</ele>
        <time>2021-11-06T04:28:23.000Z</time>
      </trkpt>
      <trkpt lat="45.20677" lon="5.73818">
        <ele>261.39999389648</ele>
        <time>2021-11-06T04:28:25.000Z</time>
      </trkpt>
      <trkpt lat="45.20683" lon="5.73815">
        <ele>262.79998779297</ele>
        <time>2021-11-06T04:28:30.000Z</time>
      </trkpt>
      <trkpt lat="45.20684" lon="5.73815">
        <ele>263</ele>
        <time>2021-11-06T04:28:31.000Z</time>
      </trkpt>
      <trkpt lat="45.20687" lon="5.73813">
        <ele>264</ele>
        <time>2021-11-06T04:28:34.000Z</time>
      </trkpt>
      <trkpt lat="45.20692" lon="5.7381">
        <ele>264.79998779297</ele>
        <time>2021-11-06T04:28:38.000Z</time>
      </trkpt>
      <trkpt lat="45.20693" lon="5.73809">
        <ele>265.20001220703</ele>
        <time>2021-11-06T04:28:39.000Z</time>
      </trkpt>
      <trkpt lat="45.207" lon="5.73805">
        <ele>266.60000610352</ele>
        <time>2021-11-06T04:28:44.000Z</time>
      </trkpt>
      <trkpt lat="45.20704" lon="5.73801">
        <ele>267.20001220703</ele>
        <time>2021-11-06T04:28:46.000Z</time>
      </trkpt>
      <trkpt lat="45.20705" lon="5.73801">
        <ele>267.39999389648</ele>
        <time>2021-11-06T04:28:47.000Z</time>
      </trkpt>
      <trkpt lat="45.20706" lon="5.738">
        <ele>267.79998779297</ele>
        <time>2021-11-06T04:28:48.000Z</time>
      </trkpt>
      <trkpt lat="45.20706" lon="5.73799">
        <ele>268</ele>
        <time>2021-11-06T04:28:49.000Z</time>
      </trkpt>
      <trkpt lat="45.20708" lon="5.73797">
        <ele>268.60000610352</ele>
        <time>2021-11-06T04:28:51.000Z</time>
      </trkpt>
      <trkpt lat="45.2071" lon="5.73795">
        <ele>268.79998779297</ele>
        <time>2021-11-06T04:28:52.000Z</time>
      </trkpt>
      <trkpt lat="45.20711" lon="5.73794">
        <ele>269.20001220703</ele>
        <time>2021-11-06T04:28:53.000Z</time>
      </trkpt>
      <trkpt lat="45.20713" lon="5.7379">
        <ele>270.60000610352</ele>
        <time>2021-11-06T04:28:57.000Z</time>
      </trkpt>
      <trkpt lat="45.20715" lon="5.73789">
        <ele>271.20001220703</ele>
        <time>2021-11-06T04:28:59.000Z</time>
      </trkpt>
      <trkpt lat="45.20718" lon="5.73787">
        <ele>272</ele>
        <time>2021-11-06T04:29:02.000Z</time>
      </trkpt>
      <trkpt lat="45.20722" lon="5.73785">
        <ele>273.20001220703</ele>
        <time>2021-11-06T04:29:05.000Z</time>
      </trkpt>
      <trkpt lat="45.20725" lon="5.73781">
        <ele>274.39999389648</ele>
        <time>2021-11-06T04:29:09.000Z</time>
      </trkpt>
      <trkpt lat="45.20726" lon="5.73781">
        <ele>274.60000610352</ele>
        <time>2021-11-06T04:29:10.000Z</time>
      </trkpt>
      <trkpt lat="45.20728" lon="5.73778">
        <ele>275.39999389648</ele>
        <time>2021-11-06T04:29:13.000Z</time>
      </trkpt>
      <trkpt lat="45.20729" lon="5.73777">
        <ele>275.79998779297</ele>
        <time>2021-11-06T04:29:14.000Z</time>
      </trkpt>
      <trkpt lat="45.20731" lon="5.73775">
        <ele>276.60000610352</ele>
        <time>2021-11-06T04:29:17.000Z</time>
      </trkpt>
      <trkpt lat="45.20732" lon="5.73774">
        <ele>277</ele>
        <time>2021-11-06T04:29:18.000Z</time>
      </trkpt>
      <trkpt lat="45.20733" lon="5.73771">
        <ele>277.60000610352</ele>
        <time>2021-11-06T04:29:20.000Z</time>
      </trkpt>
      <trkpt lat="45.20734" lon="5.7377">
        <ele>278.60000610352</ele>
        <time>2021-11-06T04:29:23.000Z</time>
      </trkpt>
      <trkpt lat="45.20736" lon="5.73768">
        <ele>279.39999389648</ele>
        <time>2021-11-06T04:29:25.000Z</time>
      </trkpt>
      <trkpt lat="45.20738" lon="5.73765">
        <ele>280</ele>
        <time>2021-11-06T04:29:27.000Z</time>
      </trkpt>
      <trkpt lat="45.20742" lon="5.73758">
        <ele>281</ele>
        <time>2021-11-06T04:29:31.000Z</time>
      </trkpt>
      <trkpt lat="45.20743" lon="5.73758">
        <ele>281.20001220703</ele>
        <time>2021-11-06T04:29:32.000Z</time>
      </trkpt>
      <trkpt lat="45.20743" lon="5.73757">
        <ele>281.79998779297</ele>
        <time>2021-11-06T04:29:33.000Z</time>
      </trkpt>
      <trkpt lat="45.20743" lon="5.73757">
        <ele>282.20001220703</ele>
        <time>2021-11-06T04:29:34.000Z</time>
      </trkpt>
      <trkpt lat="45.20745" lon="5.73756">
        <ele>282.79998779297</ele>
        <time>2021-11-06T04:29:36.000Z</time>
      </trkpt>
      <trkpt lat="45.20747" lon="5.73755">
        <ele>283.39999389648</ele>
        <time>2021-11-06T04:29:37.000Z</time>
      </trkpt>
      <trkpt lat="45.20752" lon="5.73755">
        <ele>284.39999389648</ele>
        <time>2021-11-06T04:29:41.000Z</time>
      </trkpt>
      <trkpt lat="45.20754" lon="5.73752">
        <ele>285.60000610352</ele>
        <time>2021-11-06T04:29:44.000Z</time>
      </trkpt>
      <trkpt lat="45.20755" lon="5.73751">
        <ele>285.79998779297</ele>
        <time>2021-11-06T04:29:45.000Z</time>
      </trkpt>
      <trkpt lat="45.2076" lon="5.73748">
        <ele>286.79998779297</ele>
        <time>2021-11-06T04:29:48.000Z</time>
      </trkpt>
      <trkpt lat="45.20762" lon="5.73747">
        <ele>287.39999389648</ele>
        <time>2021-11-06T04:29:50.000Z</time>
      </trkpt>
      <trkpt lat="45.20764" lon="5.73745">
        <ele>288</ele>
        <time>2021-11-06T04:29:52.000Z</time>
      </trkpt>
      <trkpt lat="45.20765" lon="5.73743">
        <ele>288.79998779297</ele>
        <time>2021-11-06T04:29:55.000Z</time>
      </trkpt>
      <trkpt lat="45.20766" lon="5.73741">
        <ele>289</ele>
        <time>2021-11-06T04:29:56.000Z</time>
      </trkpt>
      <trkpt lat="45.20767" lon="5.7374">
        <ele>289.60000610352</ele>
        <time>2021-11-06T04:29:57.000Z</time>
      </trkpt>
      <trkpt lat="45.20769" lon="5.73738">
        <ele>290.39999389648</ele>
        <time>2021-11-06T04:30:01.000Z</time>
      </trkpt>
      <trkpt lat="45.20769" lon="5.73738">
        <ele>290.79998779297</ele>
        <time>2021-11-06T04:30:02.000Z</time>
      </trkpt>
      <trkpt lat="45.20771" lon="5.73735">
        <ele>292.20001220703</ele>
        <time>2021-11-06T04:30:06.000Z</time>
      </trkpt>
      <trkpt lat="45.20772" lon="5.73734">
        <ele>292.60000610352</ele>
        <time>2021-11-06T04:30:07.000Z</time>
      </trkpt>
      <trkpt lat="45.20775" lon="5.73733">
        <ele>293.20001220703</ele>
        <time>2021-11-06T04:30:09.000Z</time>
      </trkpt>
      <trkpt lat="45.20776" lon="5.73732">
        <ele>293.39999389648</ele>
        <time>2021-11-06T04:30:10.000Z</time>
      </trkpt>
      <trkpt lat="45.2078" lon="5.7373">
        <ele>294</ele>
        <time>2021-11-06T04:30:13.000Z</time>
      </trkpt>
      <trkpt lat="45.20781" lon="5.73729">
        <ele>294.20001220703</ele>
        <time>2021-11-06T04:30:14.000Z</time>
      </trkpt>
      <trkpt lat="45.20781" lon="5.73728">
        <ele>294.60000610352</ele>
        <time>2021-11-06T04:30:15.000Z</time>
      </trkpt>
      <trkpt lat="45.20784" lon="5.7373">
        <ele>295.20001220703</ele>
        <time>2021-11-06T04:30:18.000Z</time>
      </trkpt>
      <trkpt lat="45.20787" lon="5.73729">
        <ele>295.79998779297</ele>
        <time>2021-11-06T04:30:21.000Z</time>
      </trkpt>
      <trkpt lat="45.20788" lon="5.73728">
        <ele>296.20001220703</ele>
        <time>2021-11-06T04:30:22.000Z</time>
      </trkpt>
      <trkpt lat="45.20788" lon="5.73727">
        <ele>296.39999389648</ele>
        <time>2021-11-06T04:30:23.000Z</time>
      </trkpt>
      <trkpt lat="45.20789" lon="5.73726">
        <ele>296.79998779297</ele>
        <time>2021-11-06T04:30:25.000Z</time>
      </trkpt>
      <trkpt lat="45.20794" lon="5.73725">
        <ele>298</ele>
        <time>2021-11-06T04:30:29.000Z</time>
      </trkpt>
      <trkpt lat="45.208" lon="5.73722">
        <ele>299.20001220703</ele>
        <time>2021-11-06T04:30:34.000Z</time>
      </trkpt>
      <trkpt lat="45.20804" lon="5.7372">
        <ele>300.60000610352</ele>
        <time>2021-11-06T04:30:39.000Z</time>
      </trkpt>
      <trkpt lat="45.20805" lon="5.7372">
        <ele>301</ele>
        <time>2021-11-06T04:30:40.000Z</time>
      </trkpt>
      <trkpt lat="45.20806" lon="5.7372">
        <ele>301.60000610352</ele>
        <time>2021-11-06T04:30:43.000Z</time>
      </trkpt>
      <trkpt lat="45.20807" lon="5.73719">
        <ele>302</ele>
        <time>2021-11-06T04:30:45.000Z</time>
      </trkpt>
      <trkpt lat="45.20808" lon="5.73719">
        <ele>302.79998779297</ele>
        <time>2021-11-06T04:30:47.000Z</time>
      </trkpt>
      <trkpt lat="45.20808" lon="5.73719">
        <ele>303</ele>
        <time>2021-11-06T04:30:48.000Z</time>
      </trkpt>
      <trkpt lat="45.20809" lon="5.73721">
        <ele>303.60000610352</ele>
        <time>2021-11-06T04:30:50.000Z</time>
      </trkpt>
      <trkpt lat="45.20809" lon="5.73723">
        <ele>303.60000610352</ele>
        <time>2021-11-06T04:30:51.000Z</time>
      </trkpt>
      <trkpt lat="45.2081" lon="5.73725">
        <ele>304.20001220703</ele>
        <time>2021-11-06T04:30:52.000Z</time>
      </trkpt>
      <trkpt lat="45.20814" lon="5.73732">
        <ele>304.79998779297</ele>
        <time>2021-11-06T04:30:56.000Z</time>
      </trkpt>
      <trkpt lat="45.20815" lon="5.73734">
        <ele>305.20001220703</ele>
        <time>2021-11-06T04:30:57.000Z</time>
      </trkpt>
      <trkpt lat="45.20823" lon="5.73737">
        <ele>306.20001220703</ele>
        <time>2021-11-06T04:31:02.000Z</time>
      </trkpt>
      <trkpt lat="45.20824" lon="5.73736">
        <ele>306.20001220703</ele>
        <time>2021-11-06T04:31:03.000Z</time>
      </trkpt>
      <trkpt lat="45.20828" lon="5.73736">
        <ele>307.20001220703</ele>
        <time>2021-11-06T04:31:06.000Z</time>
      </trkpt>
      <trkpt lat="45.20831" lon="5.73737">
        <ele>308.20001220703</ele>
        <time>2021-11-06T04:31:09.000Z</time>
      </trkpt>
      <trkpt lat="45.20832" lon="5.73737">
        <ele>308.60000610352</ele>
        <time>2021-11-06T04:31:10.000Z</time>
      </trkpt>
      <trkpt lat="45.20836" lon="5.73734">
        <ele>309.60000610352</ele>
        <time>2021-11-06T04:31:14.000Z</time>
      </trkpt>
      <trkpt lat="45.20838" lon="5.73731">
        <ele>310.20001220703</ele>
        <time>2021-11-06T04:31:16.000Z</time>
      </trkpt>
      <trkpt lat="45.20838" lon="5.73728">
        <ele>310.39999389648</ele>
        <time>2021-11-06T04:31:17.000Z</time>
      </trkpt>
      <trkpt lat="45.20839" lon="5.73727">
        <ele>310.60000610352</ele>
        <time>2021-11-06T04:31:18.000Z</time>
      </trkpt>
      <trkpt lat="45.20839" lon="5.73725">
        <ele>311</ele>
        <time>2021-11-06T04:31:19.000Z</time>
      </trkpt>
      <trkpt lat="45.20839" lon="5.73725">
        <ele>311.20001220703</ele>
        <time>2021-11-06T04:31:20.000Z</time>
      </trkpt>
      <trkpt lat="45.20841" lon="5.73725">
        <ele>311.79998779297</ele>
        <time>2021-11-06T04:31:22.000Z</time>
      </trkpt>
      <trkpt lat="45.20843" lon="5.73725">
        <ele>312.20001220703</ele>
        <time>2021-11-06T04:31:24.000Z</time>
      </trkpt>
      <trkpt lat="45.20847" lon="5.73727">
        <ele>313</ele>
        <time>2021-11-06T04:31:26.000Z</time>
      </trkpt>
      <trkpt lat="45.20847" lon="5.73731">
        <ele>313.60000610352</ele>
        <time>2021-11-06T04:31:28.000Z</time>
      </trkpt>
      <trkpt lat="45.20848" lon="5.73731">
        <ele>313.79998779297</ele>
        <time>2021-11-06T04:31:29.000Z</time>
      </trkpt>
      <trkpt lat="45.20849" lon="5.73731">
        <ele>314.20001220703</ele>
        <time>2021-11-06T04:31:30.000Z</time>
      </trkpt>
      <trkpt lat="45.20851" lon="5.7373">
        <ele>315</ele>
        <time>2021-11-06T04:31:33.000Z</time>
      </trkpt>
      <trkpt lat="45.20853" lon="5.73728">
        <ele>315.39999389648</ele>
        <time>2021-11-06T04:31:35.000Z</time>
      </trkpt>
      <trkpt lat="45.20852" lon="5.73726">
        <ele>315.60000610352</ele>
        <time>2021-11-06T04:31:36.000Z</time>
      </trkpt>
      <trkpt lat="45.20852" lon="5.73723">
        <ele>316.60000610352</ele>
        <time>2021-11-06T04:31:39.000Z</time>
      </trkpt>
      <trkpt lat="45.20854" lon="5.73719">
        <ele>317.39999389648</ele>
        <time>2021-11-06T04:31:42.000Z</time>
      </trkpt>
      <trkpt lat="45.20854" lon="5.73721">
        <ele>317.79998779297</ele>
        <time>2021-11-06T04:31:44.000Z</time>
      </trkpt>
      <trkpt lat="45.20856" lon="5.73726">
        <ele>318.39999389648</ele>
        <time>2021-11-06T04:31:47.000Z</time>
      </trkpt>
      <trkpt lat="45.20859" lon="5.73728">
        <ele>319</ele>
        <time>2021-11-06T04:31:50.000Z</time>
      </trkpt>
      <trkpt lat="45.20864" lon="5.73729">
        <ele>320</ele>
        <time>2021-11-06T04:31:54.000Z</time>
      </trkpt>
      <trkpt lat="45.20867" lon="5.73728">
        <ele>320.60000610352</ele>
        <time>2021-11-06T04:31:56.000Z</time>
      </trkpt>
      <trkpt lat="45.20869" lon="5.73728">
        <ele>321.20001220703</ele>
        <time>2021-11-06T04:31:58.000Z</time>
      </trkpt>
      <trkpt lat="45.20874" lon="5.73729">
        <ele>322.39999389648</ele>
        <time>2021-11-06T04:32:02.000Z</time>
      </trkpt>
      <trkpt lat="45.20878" lon="5.73731">
        <ele>322.79998779297</ele>
        <time>2021-11-06T04:32:05.000Z</time>
      </trkpt>
      <trkpt lat="45.2088" lon="5.73732">
        <ele>323.60000610352</ele>
        <time>2021-11-06T04:32:07.000Z</time>
      </trkpt>
      <trkpt lat="45.20884" lon="5.73731">
        <ele>324.60000610352</ele>
        <time>2021-11-06T04:32:11.000Z</time>
      </trkpt>
      <trkpt lat="45.20886" lon="5.7373">
        <ele>325</ele>
        <time>2021-11-06T04:32:13.000Z</time>
      </trkpt>
      <trkpt lat="45.20886" lon="5.73729">
        <ele>325.20001220703</ele>
        <time>2021-11-06T04:32:14.000Z</time>
      </trkpt>
      <trkpt lat="45.20887" lon="5.73725">
        <ele>325.79998779297</ele>
        <time>2021-11-06T04:32:17.000Z</time>
      </trkpt>
      <trkpt lat="45.2089" lon="5.73722">
        <ele>327</ele>
        <time>2021-11-06T04:32:20.000Z</time>
      </trkpt>
      <trkpt lat="45.2089" lon="5.73721">
        <ele>327.39999389648</ele>
        <time>2021-11-06T04:32:22.000Z</time>
      </trkpt>
      <trkpt lat="45.2089" lon="5.7372">
        <ele>327.60000610352</ele>
        <time>2021-11-06T04:32:23.000Z</time>
      </trkpt>
      <trkpt lat="45.20891" lon="5.73719">
        <ele>328</ele>
        <time>2021-11-06T04:32:25.000Z</time>
      </trkpt>
      <trkpt lat="45.20892" lon="5.73718">
        <ele>328.60000610352</ele>
        <time>2021-11-06T04:32:26.000Z</time>
      </trkpt>
      <trkpt lat="45.20892" lon="5.73717">
        <ele>329.20001220703</ele>
        <time>2021-11-06T04:32:28.000Z</time>
      </trkpt>
      <trkpt lat="45.20893" lon="5.73716">
        <ele>329.60000610352</ele>
        <time>2021-11-06T04:32:30.000Z</time>
      </trkpt>
      <trkpt lat="45.20895" lon="5.73714">
        <ele>330</ele>
        <time>2021-11-06T04:32:32.000Z</time>
      </trkpt>
      <trkpt lat="45.20895" lon="5.73713">
        <ele>330.39999389648</ele>
        <time>2021-11-06T04:32:33.000Z</time>
      </trkpt>
      <trkpt lat="45.20896" lon="5.73712">
        <ele>331.20001220703</ele>
        <time>2021-11-06T04:32:35.000Z</time>
      </trkpt>
      <trkpt lat="45.20896" lon="5.73711">
        <ele>331.60000610352</ele>
        <time>2021-11-06T04:32:37.000Z</time>
      </trkpt>
      <trkpt lat="45.20899" lon="5.73708">
        <ele>332.79998779297</ele>
        <time>2021-11-06T04:32:41.000Z</time>
      </trkpt>
      <trkpt lat="45.20901" lon="5.73707">
        <ele>333.20001220703</ele>
        <time>2021-11-06T04:32:43.000Z</time>
      </trkpt>
      <trkpt lat="45.20904" lon="5.73706">
        <ele>333.79998779297</ele>
        <time>2021-11-06T04:32:46.000Z</time>
      </trkpt>
      <trkpt lat="45.20907" lon="5.73706">
        <ele>335</ele>
        <time>2021-11-06T04:32:49.000Z</time>
      </trkpt>
      <trkpt lat="45.20908" lon="5.73706">
        <ele>335.20001220703</ele>
        <time>2021-11-06T04:32:50.000Z</time>
      </trkpt>
      <trkpt lat="45.20911" lon="5.73705">
        <ele>335.79998779297</ele>
        <time>2021-11-06T04:32:52.000Z</time>
      </trkpt>
      <trkpt lat="45.20911" lon="5.73705">
        <ele>336.20001220703</ele>
        <time>2021-11-06T04:32:53.000Z</time>
      </trkpt>
      <trkpt lat="45.20914" lon="5.73704">
        <ele>337.20001220703</ele>
        <time>2021-11-06T04:32:57.000Z</time>
      </trkpt>
      <trkpt lat="45.20917" lon="5.73703">
        <ele>338.39999389648</ele>
        <time>2021-11-06T04:33:01.000Z</time>
      </trkpt>
      <trkpt lat="45.20918" lon="5.73704">
        <ele>338.79998779297</ele>
        <time>2021-11-06T04:33:03.000Z</time>
      </trkpt>
      <trkpt lat="45.2092" lon="5.73703">
        <ele>339.60000610352</ele>
        <time>2021-11-06T04:33:05.000Z</time>
      </trkpt>
      <trkpt lat="45.20922" lon="5.73703">
        <ele>340</ele>
        <time>2021-11-06T04:33:06.000Z</time>
      </trkpt>
      <trkpt lat="45.20924" lon="5.73704">
        <ele>340.60000610352</ele>
        <time>2021-11-06T04:33:09.000Z</time>
      </trkpt>
      <trkpt lat="45.20925" lon="5.73705">
        <ele>341</ele>
        <time>2021-11-06T04:33:10.000Z</time>
      </trkpt>
      <trkpt lat="45.20927" lon="5.73705">
        <ele>342</ele>
        <time>2021-11-06T04:33:14.000Z</time>
      </trkpt>
      <trkpt lat="45.20928" lon="5.73705">
        <ele>342.20001220703</ele>
        <time>2021-11-06T04:33:15.000Z</time>
      </trkpt>
      <trkpt lat="45.20928" lon="5.73704">
        <ele>342.79998779297</ele>
        <time>2021-11-06T04:33:16.000Z</time>
      </trkpt>
      <trkpt lat="45.20929" lon="5.73704">
        <ele>343.39999389648</ele>
        <time>2021-11-06T04:33:18.000Z</time>
      </trkpt>
      <trkpt lat="45.2093" lon="5.73704">
        <ele>344</ele>
        <time>2021-11-06T04:33:20.000Z</time>
      </trkpt>
      <trkpt lat="45.20932" lon="5.73705">
        <ele>344.39999389648</ele>
        <time>2021-11-06T04:33:22.000Z</time>
      </trkpt>
      <trkpt lat="45.20934" lon="5.73706">
        <ele>345.39999389648</ele>
        <time>2021-11-06T04:33:25.000Z</time>
      </trkpt>
      <trkpt lat="45.20937" lon="5.73707">
        <ele>346</ele>
        <time>2021-11-06T04:33:28.000Z</time>
      </trkpt>
      <trkpt lat="45.20938" lon="5.73705">
        <ele>346.60000610352</ele>
        <time>2021-11-06T04:33:29.000Z</time>
      </trkpt>
      <trkpt lat="45.2094" lon="5.73704">
        <ele>346.79998779297</ele>
        <time>2021-11-06T04:33:30.000Z</time>
      </trkpt>
      <trkpt lat="45.20944" lon="5.737">
        <ele>347.39999389648</ele>
        <time>2021-11-06T04:33:33.000Z</time>
      </trkpt>
      <trkpt lat="45.20945" lon="5.73699">
        <ele>347.79998779297</ele>
        <time>2021-11-06T04:33:34.000Z</time>
      </trkpt>
      <trkpt lat="45.20946" lon="5.73699">
        <ele>348.20001220703</ele>
        <time>2021-11-06T04:33:35.000Z</time>
      </trkpt>
      <trkpt lat="45.20946" lon="5.73698">
        <ele>348.60000610352</ele>
        <time>2021-11-06T04:33:37.000Z</time>
      </trkpt>
      <trkpt lat="45.20947" lon="5.73698">
        <ele>349</ele>
        <time>2021-11-06T04:33:38.000Z</time>
      </trkpt>
      <trkpt lat="45.2095" lon="5.73697">
        <ele>349.79998779297</ele>
        <time>2021-11-06T04:33:42.000Z</time>
      </trkpt>
      <trkpt lat="45.2095" lon="5.73697">
        <ele>350</ele>
        <time>2021-11-06T04:33:43.000Z</time>
      </trkpt>
      <trkpt lat="45.20951" lon="5.73697">
        <ele>350.20001220703</ele>
        <time>2021-11-06T04:33:44.000Z</time>
      </trkpt>
      <trkpt lat="45.20952" lon="5.73697">
        <ele>350.39999389648</ele>
        <time>2021-11-06T04:33:45.000Z</time>
      </trkpt>
      <trkpt lat="45.20954" lon="5.73696">
        <ele>351</ele>
        <time>2021-11-06T04:33:48.000Z</time>
      </trkpt>
      <trkpt lat="45.20956" lon="5.73692">
        <ele>352.20001220703</ele>
        <time>2021-11-06T04:33:51.000Z</time>
      </trkpt>
      <trkpt lat="45.2096" lon="5.73687">
        <ele>353.20001220703</ele>
        <time>2021-11-06T04:33:56.000Z</time>
      </trkpt>
      <trkpt lat="45.2096" lon="5.73686">
        <ele>354.60000610352</ele>
        <time>2021-11-06T04:33:59.000Z</time>
      </trkpt>
      <trkpt lat="45.20961" lon="5.73685">
        <ele>355</ele>
        <time>2021-11-06T04:34:00.000Z</time>
      </trkpt>
      <trkpt lat="45.20961" lon="5.73683">
        <ele>355.39999389648</ele>
        <time>2021-11-06T04:34:02.000Z</time>
      </trkpt>
      <trkpt lat="45.20962" lon="5.73682">
        <ele>355.79998779297</ele>
        <time>2021-11-06T04:34:03.000Z</time>
      </trkpt>
      <trkpt lat="45.20962" lon="5.7368">
        <ele>356.60000610352</ele>
        <time>2021-11-06T04:34:05.000Z</time>
      </trkpt>
      <trkpt lat="45.20962" lon="5.73679">
        <ele>356.79998779297</ele>
        <time>2021-11-06T04:34:06.000Z</time>
      </trkpt>
      <trkpt lat="45.20966" lon="5.73673">
        <ele>357.60000610352</ele>
        <time>2021-11-06T04:34:10.000Z</time>
      </trkpt>
      <trkpt lat="45.20966" lon="5.73672">
        <ele>358.20001220703</ele>
        <time>2021-11-06T04:34:12.000Z</time>
      </trkpt>
      <trkpt lat="45.20965" lon="5.73672">
        <ele>359</ele>
        <time>2021-11-06T04:34:16.000Z</time>
      </trkpt>
      <trkpt lat="45.20966" lon="5.73671">
        <ele>359.20001220703</ele>
        <time>2021-11-06T04:34:17.000Z</time>
      </trkpt>
      <trkpt lat="45.20969" lon="5.73668">
        <ele>360.20001220703</ele>
        <time>2021-11-06T04:34:21.000Z</time>
      </trkpt>
      <trkpt lat="45.2097" lon="5.73667">
        <ele>360.39999389648</ele>
        <time>2021-11-06T04:34:22.000Z</time>
      </trkpt>
      <trkpt lat="45.20971" lon="5.73664">
        <ele>360.79998779297</ele>
        <time>2021-11-06T04:34:24.000Z</time>
      </trkpt>
      <trkpt lat="45.20973" lon="5.73662">
        <ele>361.60000610352</ele>
        <time>2021-11-06T04:34:27.000Z</time>
      </trkpt>
      <trkpt lat="45.20973" lon="5.7366">
        <ele>362.20001220703</ele>
        <time>2021-11-06T04:34:30.000Z</time>
      </trkpt>
      <trkpt lat="45.20975" lon="5.73657">
        <ele>362.60000610352</ele>
        <time>2021-11-06T04:34:32.000Z</time>
      </trkpt>
      <trkpt lat="45.20975" lon="5.73656">
        <ele>363</ele>
        <time>2021-11-06T04:34:33.000Z</time>
      </trkpt>
      <trkpt lat="45.20976" lon="5.73656">
        <ele>363.20001220703</ele>
        <time>2021-11-06T04:34:34.000Z</time>
      </trkpt>
      <trkpt lat="45.20976" lon="5.73653">
        <ele>364</ele>
        <time>2021-11-06T04:34:37.000Z</time>
      </trkpt>
      <trkpt lat="45.20976" lon="5.73652">
        <ele>364.20001220703</ele>
        <time>2021-11-06T04:34:38.000Z</time>
      </trkpt>
      <trkpt lat="45.20977" lon="5.73651">
        <ele>365</ele>
        <time>2021-11-06T04:34:41.000Z</time>
      </trkpt>
      <trkpt lat="45.20977" lon="5.7365">
        <ele>365.20001220703</ele>
        <time>2021-11-06T04:34:42.000Z</time>
      </trkpt>
      <trkpt lat="45.20978" lon="5.73648">
        <ele>365.79998779297</ele>
        <time>2021-11-06T04:34:44.000Z</time>
      </trkpt>
      <trkpt lat="45.20979" lon="5.73646">
        <ele>366.39999389648</ele>
        <time>2021-11-06T04:34:46.000Z</time>
      </trkpt>
      <trkpt lat="45.20981" lon="5.73642">
        <ele>367.60000610352</ele>
        <time>2021-11-06T04:34:52.000Z</time>
      </trkpt>
      <trkpt lat="45.20982" lon="5.73639">
        <ele>368.79998779297</ele>
        <time>2021-11-06T04:34:55.000Z</time>
      </trkpt>
      <trkpt lat="45.20982" lon="5.73635">
        <ele>369.79998779297</ele>
        <time>2021-11-06T04:34:59.000Z</time>
      </trkpt>
      <trkpt lat="45.20983" lon="5.73633">
        <ele>370.79998779297</ele>
        <time>2021-11-06T04:35:02.000Z</time>
      </trkpt>
      <trkpt lat="45.20983" lon="5.73631">
        <ele>372</ele>
        <time>2021-11-06T04:35:05.000Z</time>
      </trkpt>
      <trkpt lat="45.20983" lon="5.73628">
        <ele>372.79998779297</ele>
        <time>2021-11-06T04:35:08.000Z</time>
      </trkpt>
      <trkpt lat="45.20983" lon="5.73626">
        <ele>373.20001220703</ele>
        <time>2021-11-06T04:35:10.000Z</time>
      </trkpt>
      <trkpt lat="45.20983" lon="5.73624">
        <ele>374.20001220703</ele>
        <time>2021-11-06T04:35:13.000Z</time>
      </trkpt>
      <trkpt lat="45.20985" lon="5.73617">
        <ele>375.39999389648</ele>
        <time>2021-11-06T04:35:19.000Z</time>
      </trkpt>
      <trkpt lat="45.20986" lon="5.73614">
        <ele>376.20001220703</ele>
        <time>2021-11-06T04:35:21.000Z</time>
      </trkpt>
      <trkpt lat="45.20987" lon="5.73613">
        <ele>376.39999389648</ele>
        <time>2021-11-06T04:35:22.000Z</time>
      </trkpt>
      <trkpt lat="45.20988" lon="5.7361">
        <ele>377.60000610352</ele>
        <time>2021-11-06T04:35:27.000Z</time>
      </trkpt>
      <trkpt lat="45.20988" lon="5.73608">
        <ele>378.20001220703</ele>
        <time>2021-11-06T04:35:29.000Z</time>
      </trkpt>
      <trkpt lat="45.20988" lon="5.73607">
        <ele>378.60000610352</ele>
        <time>2021-11-06T04:35:30.000Z</time>
      </trkpt>
      <trkpt lat="45.20989" lon="5.73601">
        <ele>379.79998779297</ele>
        <time>2021-11-06T04:35:35.000Z</time>
      </trkpt>
      <trkpt lat="45.2099" lon="5.73599">
        <ele>380.20001220703</ele>
        <time>2021-11-06T04:35:36.000Z</time>
      </trkpt>
      <trkpt lat="45.20991" lon="5.73595">
        <ele>380.79998779297</ele>
        <time>2021-11-06T04:35:39.000Z</time>
      </trkpt>
      <trkpt lat="45.20991" lon="5.73592">
        <ele>382</ele>
        <time>2021-11-06T04:35:43.000Z</time>
      </trkpt>
      <trkpt lat="45.20992" lon="5.73587">
        <ele>383.20001220703</ele>
        <time>2021-11-06T04:35:48.000Z</time>
      </trkpt>
      <trkpt lat="45.20992" lon="5.73584">
        <ele>384.20001220703</ele>
        <time>2021-11-06T04:35:51.000Z</time>
      </trkpt>
      <trkpt lat="45.20993" lon="5.73583">
        <ele>384.39999389648</ele>
        <time>2021-11-06T04:35:52.000Z</time>
      </trkpt>
      <trkpt lat="45.20995" lon="5.7358">
        <ele>385.20001220703</ele>
        <time>2021-11-06T04:35:57.000Z</time>
      </trkpt>
      <trkpt lat="45.20996" lon="5.73578">
        <ele>385.79998779297</ele>
        <time>2021-11-06T04:35:59.000Z</time>
      </trkpt>
      <trkpt lat="45.20997" lon="5.73573">
        <ele>387</ele>
        <time>2021-11-06T04:36:03.000Z</time>
      </trkpt>
      <trkpt lat="45.20996" lon="5.73572">
        <ele>387.79998779297</ele>
        <time>2021-11-06T04:36:05.000Z</time>
      </trkpt>
      <trkpt lat="45.20995" lon="5.73571">
        <ele>388.20001220703</ele>
        <time>2021-11-06T04:36:06.000Z</time>
      </trkpt>
      <trkpt lat="45.20997" lon="5.7357">
        <ele>388.79998779297</ele>
        <time>2021-11-06T04:36:10.000Z</time>
      </trkpt>
      <trkpt lat="45.20997" lon="5.73569">
        <ele>389.39999389648</ele>
        <time>2021-11-06T04:36:11.000Z</time>
      </trkpt>
      <trkpt lat="45.20996" lon="5.73566">
        <ele>390.20001220703</ele>
        <time>2021-11-06T04:36:15.000Z</time>
      </trkpt>
      <trkpt lat="45.20996" lon="5.73565">
        <ele>390.39999389648</ele>
        <time>2021-11-06T04:36:16.000Z</time>
      </trkpt>
      <trkpt lat="45.20997" lon="5.73561">
        <ele>391.39999389648</ele>
        <time>2021-11-06T04:36:20.000Z</time>
      </trkpt>
      <trkpt lat="45.20999" lon="5.73558">
        <ele>392.60000610352</ele>
        <time>2021-11-06T04:36:24.000Z</time>
      </trkpt>
      <trkpt lat="45.20999" lon="5.73556">
        <ele>393</ele>
        <time>2021-11-06T04:36:25.000Z</time>
      </trkpt>
      <trkpt lat="45.21001" lon="5.73552">
        <ele>393.79998779297</ele>
        <time>2021-11-06T04:36:28.000Z</time>
      </trkpt>
      <trkpt lat="45.21" lon="5.73551">
        <ele>394.20001220703</ele>
        <time>2021-11-06T04:36:31.000Z</time>
      </trkpt>
      <trkpt lat="45.21" lon="5.73549">
        <ele>394.79998779297</ele>
        <time>2021-11-06T04:36:33.000Z</time>
      </trkpt>
      <trkpt lat="45.21001" lon="5.73546">
        <ele>396</ele>
        <time>2021-11-06T04:36:36.000Z</time>
      </trkpt>
      <trkpt lat="45.21002" lon="5.73545">
        <ele>396.60000610352</ele>
        <time>2021-11-06T04:36:38.000Z</time>
      </trkpt>
      <trkpt lat="45.21002" lon="5.73543">
        <ele>397.39999389648</ele>
        <time>2021-11-06T04:36:41.000Z</time>
      </trkpt>
      <trkpt lat="45.21002" lon="5.73539">
        <ele>398</ele>
        <time>2021-11-06T04:36:44.000Z</time>
      </trkpt>
      <trkpt lat="45.21003" lon="5.73538">
        <ele>398.39999389648</ele>
        <time>2021-11-06T04:36:47.000Z</time>
      </trkpt>
      <trkpt lat="45.21004" lon="5.73534">
        <ele>399.20001220703</ele>
        <time>2021-11-06T04:36:50.000Z</time>
      </trkpt>
      <trkpt lat="45.21004" lon="5.73534">
        <ele>399.60000610352</ele>
        <time>2021-11-06T04:36:51.000Z</time>
      </trkpt>
      <trkpt lat="45.21005" lon="5.73532">
        <ele>400.60000610352</ele>
        <time>2021-11-06T04:36:55.000Z</time>
      </trkpt>
      <trkpt lat="45.21006" lon="5.73531">
        <ele>400.79998779297</ele>
        <time>2021-11-06T04:36:56.000Z</time>
      </trkpt>
      <trkpt lat="45.21007" lon="5.7353">
        <ele>401.79998779297</ele>
        <time>2021-11-06T04:36:58.000Z</time>
      </trkpt>
      <trkpt lat="45.21007" lon="5.73527">
        <ele>402.60000610352</ele>
        <time>2021-11-06T04:37:01.000Z</time>
      </trkpt>
      <trkpt lat="45.21007" lon="5.73525">
        <ele>402.79998779297</ele>
        <time>2021-11-06T04:37:02.000Z</time>
      </trkpt>
      <trkpt lat="45.21007" lon="5.73524">
        <ele>403.79998779297</ele>
        <time>2021-11-06T04:37:06.000Z</time>
      </trkpt>
      <trkpt lat="45.21008" lon="5.73523">
        <ele>404.39999389648</ele>
        <time>2021-11-06T04:37:08.000Z</time>
      </trkpt>
      <trkpt lat="45.21009" lon="5.73522">
        <ele>405</ele>
        <time>2021-11-06T04:37:10.000Z</time>
      </trkpt>
      <trkpt lat="45.21006" lon="5.73523">
        <ele>406</ele>
        <time>2021-11-06T04:37:15.000Z</time>
      </trkpt>
      <trkpt lat="45.21006" lon="5.73521">
        <ele>407.20001220703</ele>
        <time>2021-11-06T04:37:18.000Z</time>
      </trkpt>
      <trkpt lat="45.21008" lon="5.73517">
        <ele>408.39999389648</ele>
        <time>2021-11-06T04:37:21.000Z</time>
      </trkpt>
      <trkpt lat="45.21009" lon="5.73511">
        <ele>409.39999389648</ele>
        <time>2021-11-06T04:37:26.000Z</time>
      </trkpt>
      <trkpt lat="45.21009" lon="5.73509">
        <ele>410</ele>
        <time>2021-11-06T04:37:27.000Z</time>
      </trkpt>
      <trkpt lat="45.2101" lon="5.73508">
        <ele>410.60000610352</ele>
        <time>2021-11-06T04:37:29.000Z</time>
      </trkpt>
      <trkpt lat="45.2101" lon="5.73504">
        <ele>411.60000610352</ele>
        <time>2021-11-06T04:37:33.000Z</time>
      </trkpt>
      <trkpt lat="45.21009" lon="5.73501">
        <ele>413</ele>
        <time>2021-11-06T04:37:37.000Z</time>
      </trkpt>
      <trkpt lat="45.21011" lon="5.73499">
        <ele>413.60000610352</ele>
        <time>2021-11-06T04:37:40.000Z</time>
      </trkpt>
      <trkpt lat="45.21011" lon="5.73496">
        <ele>414.20001220703</ele>
        <time>2021-11-06T04:37:44.000Z</time>
      </trkpt>
      <trkpt lat="45.21011" lon="5.73496">
        <ele>414.39999389648</ele>
        <time>2021-11-06T04:37:45.000Z</time>
      </trkpt>
      <trkpt lat="45.21013" lon="5.73493">
        <ele>415.20001220703</ele>
        <time>2021-11-06T04:37:48.000Z</time>
      </trkpt>
      <trkpt lat="45.21013" lon="5.73491">
        <ele>416.39999389648</ele>
        <time>2021-11-06T04:37:52.000Z</time>
      </trkpt>
      <trkpt lat="45.21013" lon="5.73489">
        <ele>417</ele>
        <time>2021-11-06T04:37:54.000Z</time>
      </trkpt>
      <trkpt lat="45.21013" lon="5.73487">
        <ele>417.39999389648</ele>
        <time>2021-11-06T04:37:55.000Z</time>
      </trkpt>
      <trkpt lat="45.21016" lon="5.7348">
        <ele>418.60000610352</ele>
        <time>2021-11-06T04:38:00.000Z</time>
      </trkpt>
      <trkpt lat="45.21017" lon="5.73478">
        <ele>419.79998779297</ele>
        <time>2021-11-06T04:38:04.000Z</time>
      </trkpt>
      <trkpt lat="45.21016" lon="5.73478">
        <ele>421</ele>
        <time>2021-11-06T04:38:09.000Z</time>
      </trkpt>
      <trkpt lat="45.21016" lon="5.73477">
        <ele>422.39999389648</ele>
        <time>2021-11-06T04:38:13.000Z</time>
      </trkpt>
      <trkpt lat="45.21015" lon="5.73477">
        <ele>422.60000610352</ele>
        <time>2021-11-06T04:38:14.000Z</time>
      </trkpt>
      <trkpt lat="45.21015" lon="5.73474">
        <ele>423.60000610352</ele>
        <time>2021-11-06T04:38:18.000Z</time>
      </trkpt>
      <trkpt lat="45.21015" lon="5.73472">
        <ele>424.60000610352</ele>
        <time>2021-11-06T04:38:20.000Z</time>
      </trkpt>
      <trkpt lat="45.21016" lon="5.73472">
        <ele>424.79998779297</ele>
        <time>2021-11-06T04:38:21.000Z</time>
      </trkpt>
      <trkpt lat="45.21016" lon="5.73472">
        <ele>425.60000610352</ele>
        <time>2021-11-06T04:38:24.000Z</time>
      </trkpt>
      <trkpt lat="45.21016" lon="5.73472">
        <ele>425.79998779297</ele>
        <time>2021-11-06T04:38:25.000Z</time>
      </trkpt>
      <trkpt lat="45.21015" lon="5.73472">
        <ele>426.39999389648</ele>
        <time>2021-11-06T04:38:27.000Z</time>
      </trkpt>
      <trkpt lat="45.21015" lon="5.73471">
        <ele>426.79998779297</ele>
        <time>2021-11-06T04:38:29.000Z</time>
      </trkpt>
      <trkpt lat="45.21014" lon="5.73469">
        <ele>427.39999389648</ele>
        <time>2021-11-06T04:38:31.000Z</time>
      </trkpt>
      <trkpt lat="45.21012" lon="5.73467">
        <ele>428</ele>
        <time>2021-11-06T04:38:33.000Z</time>
      </trkpt>
      <trkpt lat="45.21011" lon="5.73466">
        <ele>429</ele>
        <time>2021-11-06T04:38:35.000Z</time>
      </trkpt>
      <trkpt lat="45.21011" lon="5.73466">
        <ele>429.20001220703</ele>
        <time>2021-11-06T04:38:36.000Z</time>
      </trkpt>
      <trkpt lat="45.2101" lon="5.73468">
        <ele>430.39999389648</ele>
        <time>2021-11-06T04:38:40.000Z</time>
      </trkpt>
      <trkpt lat="45.21009" lon="5.73468">
        <ele>431.39999389648</ele>
        <time>2021-11-06T04:38:44.000Z</time>
      </trkpt>
      <trkpt lat="45.21007" lon="5.73467">
        <ele>431.79998779297</ele>
        <time>2021-11-06T04:38:46.000Z</time>
      </trkpt>
      <trkpt lat="45.21004" lon="5.73465">
        <ele>432.79998779297</ele>
        <time>2021-11-06T04:38:48.000Z</time>
      </trkpt>
      <trkpt lat="45.21002" lon="5.7346">
        <ele>433.79998779297</ele>
        <time>2021-11-06T04:38:51.000Z</time>
      </trkpt>
      <trkpt lat="45.21001" lon="5.73459">
        <ele>433.79998779297</ele>
        <time>2021-11-06T04:38:52.000Z</time>
      </trkpt>
      <trkpt lat="45.20998" lon="5.73457">
        <ele>435</ele>
        <time>2021-11-06T04:38:55.000Z</time>
      </trkpt>
      <trkpt lat="45.20996" lon="5.73457">
        <ele>435.60000610352</ele>
        <time>2021-11-06T04:38:58.000Z</time>
      </trkpt>
      <trkpt lat="45.20995" lon="5.73456">
        <ele>435.79998779297</ele>
        <time>2021-11-06T04:38:59.000Z</time>
      </trkpt>
      <trkpt lat="45.20995" lon="5.73456">
        <ele>436</ele>
        <time>2021-11-06T04:39:00.000Z</time>
      </trkpt>
      <trkpt lat="45.20991" lon="5.73452">
        <ele>437.20001220703</ele>
        <time>2021-11-06T04:39:04.000Z</time>
      </trkpt>
      <trkpt lat="45.20989" lon="5.73452">
        <ele>437.60000610352</ele>
        <time>2021-11-06T04:39:06.000Z</time>
      </trkpt>
      <trkpt lat="45.20986" lon="5.73451">
        <ele>438.39999389648</ele>
        <time>2021-11-06T04:39:10.000Z</time>
      </trkpt>
      <trkpt lat="45.20983" lon="5.73449">
        <ele>439.39999389648</ele>
        <time>2021-11-06T04:39:13.000Z</time>
      </trkpt>
      <trkpt lat="45.20983" lon="5.73448">
        <ele>439.60000610352</ele>
        <time>2021-11-06T04:39:14.000Z</time>
      </trkpt>
      <trkpt lat="45.20981" lon="5.73447">
        <ele>440</ele>
        <time>2021-11-06T04:39:16.000Z</time>
      </trkpt>
      <trkpt lat="45.20981" lon="5.73447">
        <ele>440.20001220703</ele>
        <time>2021-11-06T04:39:17.000Z</time>
      </trkpt>
      <trkpt lat="45.2098" lon="5.73446">
        <ele>440.79998779297</ele>
        <time>2021-11-06T04:39:19.000Z</time>
      </trkpt>
      <trkpt lat="45.20978" lon="5.73443">
        <ele>441.39999389648</ele>
        <time>2021-11-06T04:39:21.000Z</time>
      </trkpt>
      <trkpt lat="45.20976" lon="5.73442">
        <ele>442</ele>
        <time>2021-11-06T04:39:23.000Z</time>
      </trkpt>
      <trkpt lat="45.20975" lon="5.7344">
        <ele>443</ele>
        <time>2021-11-06T04:39:26.000Z</time>
      </trkpt>
      <trkpt lat="45.20975" lon="5.7344">
        <ele>443.20001220703</ele>
        <time>2021-11-06T04:39:27.000Z</time>
      </trkpt>
      <trkpt lat="45.20973" lon="5.73439">
        <ele>443.79998779297</ele>
        <time>2021-11-06T04:39:29.000Z</time>
      </trkpt>
      <trkpt lat="45.20973" lon="5.73439">
        <ele>444</ele>
        <time>2021-11-06T04:39:30.000Z</time>
      </trkpt>
      <trkpt lat="45.20972" lon="5.73439">
        <ele>444.60000610352</ele>
        <time>2021-11-06T04:39:31.000Z</time>
      </trkpt>
      <trkpt lat="45.20969" lon="5.7344">
        <ele>445.20001220703</ele>
        <time>2021-11-06T04:39:34.000Z</time>
      </trkpt>
      <trkpt lat="45.20969" lon="5.73439">
        <ele>445.60000610352</ele>
        <time>2021-11-06T04:39:35.000Z</time>
      </trkpt>
      <trkpt lat="45.20967" lon="5.73433">
        <ele>446.60000610352</ele>
        <time>2021-11-06T04:39:40.000Z</time>
      </trkpt>
      <trkpt lat="45.20967" lon="5.73433">
        <ele>446.79998779297</ele>
        <time>2021-11-06T04:39:41.000Z</time>
      </trkpt>
      <trkpt lat="45.20965" lon="5.7343">
        <ele>448</ele>
        <time>2021-11-06T04:39:45.000Z</time>
      </trkpt>
      <trkpt lat="45.20963" lon="5.73426">
        <ele>449.20001220703</ele>
        <time>2021-11-06T04:39:48.000Z</time>
      </trkpt>
      <trkpt lat="45.20962" lon="5.73425">
        <ele>449.39999389648</ele>
        <time>2021-11-06T04:39:49.000Z</time>
      </trkpt>
      <trkpt lat="45.2096" lon="5.73423">
        <ele>450.20001220703</ele>
        <time>2021-11-06T04:39:52.000Z</time>
      </trkpt>
      <trkpt lat="45.2096" lon="5.73422">
        <ele>450.60000610352</ele>
        <time>2021-11-06T04:39:53.000Z</time>
      </trkpt>
      <trkpt lat="45.20959" lon="5.73421">
        <ele>451.39999389648</ele>
        <time>2021-11-06T04:39:56.000Z</time>
      </trkpt>
      <trkpt lat="45.20958" lon="5.73421">
        <ele>451.79998779297</ele>
        <time>2021-11-06T04:39:58.000Z</time>
      </trkpt>
      <trkpt lat="45.20958" lon="5.73417">
        <ele>452.60000610352</ele>
        <time>2021-11-06T04:40:01.000Z</time>
      </trkpt>
      <trkpt lat="45.20957" lon="5.73416">
        <ele>453</ele>
        <time>2021-11-06T04:40:02.000Z</time>
      </trkpt>
      <trkpt lat="45.20957" lon="5.73411">
        <ele>454.20001220703</ele>
        <time>2021-11-06T04:40:05.000Z</time>
      </trkpt>
      <trkpt lat="45.20957" lon="5.73409">
        <ele>454.60000610352</ele>
        <time>2021-11-06T04:40:07.000Z</time>
      </trkpt>
      <trkpt lat="45.20957" lon="5.73408">
        <ele>455.20001220703</ele>
        <time>2021-11-06T04:40:09.000Z</time>
      </trkpt>
      <trkpt lat="45.20956" lon="5.73407">
        <ele>455.79998779297</ele>
        <time>2021-11-06T04:40:13.000Z</time>
      </trkpt>
      <trkpt lat="45.20956" lon="5.73407">
        <ele>456.39999389648</ele>
        <time>2021-11-06T04:40:14.000Z</time>
      </trkpt>
      <trkpt lat="45.20953" lon="5.73404">
        <ele>457.60000610352</ele>
        <time>2021-11-06T04:40:17.000Z</time>
      </trkpt>
      <trkpt lat="45.20953" lon="5.73404">
        <ele>458</ele>
        <time>2021-11-06T04:40:19.000Z</time>
      </trkpt>
      <trkpt lat="45.20951" lon="5.73403">
        <ele>459</ele>
        <time>2021-11-06T04:40:21.000Z</time>
      </trkpt>
      <trkpt lat="45.20946" lon="5.73403">
        <ele>459.60000610352</ele>
        <time>2021-11-06T04:40:25.000Z</time>
      </trkpt>
      <trkpt lat="45.20938" lon="5.73398">
        <ele>457.79998779297</ele>
        <time>2021-11-06T04:40:32.000Z</time>
      </trkpt>
      <trkpt lat="45.20932" lon="5.73396">
        <ele>458</ele>
        <time>2021-11-06T04:40:36.000Z</time>
      </trkpt>
      <trkpt lat="45.20929" lon="5.73394">
        <ele>458.79998779297</ele>
        <time>2021-11-06T04:40:39.000Z</time>
      </trkpt>
      <trkpt lat="45.20928" lon="5.73393">
        <ele>459</ele>
        <time>2021-11-06T04:40:40.000Z</time>
      </trkpt>
      <trkpt lat="45.20927" lon="5.73392">
        <ele>459.39999389648</ele>
        <time>2021-11-06T04:40:42.000Z</time>
      </trkpt>
      <trkpt lat="45.20926" lon="5.7339">
        <ele>460.20001220703</ele>
        <time>2021-11-06T04:40:44.000Z</time>
      </trkpt>
      <trkpt lat="45.20925" lon="5.7339">
        <ele>460.60000610352</ele>
        <time>2021-11-06T04:40:45.000Z</time>
      </trkpt>
      <trkpt lat="45.20924" lon="5.73388">
        <ele>460.79998779297</ele>
        <time>2021-11-06T04:40:47.000Z</time>
      </trkpt>
      <trkpt lat="45.20923" lon="5.73388">
        <ele>461.39999389648</ele>
        <time>2021-11-06T04:40:48.000Z</time>
      </trkpt>
      <trkpt lat="45.20922" lon="5.73388">
        <ele>461.79998779297</ele>
        <time>2021-11-06T04:40:50.000Z</time>
      </trkpt>
      <trkpt lat="45.20921" lon="5.73387">
        <ele>462.39999389648</ele>
        <time>2021-11-06T04:40:52.000Z</time>
      </trkpt>
      <trkpt lat="45.20917" lon="5.73385">
        <ele>463.60000610352</ele>
        <time>2021-11-06T04:40:55.000Z</time>
      </trkpt>
      <trkpt lat="45.20914" lon="5.73383">
        <ele>464.60000610352</ele>
        <time>2021-11-06T04:40:59.000Z</time>
      </trkpt>
      <trkpt lat="45.20914" lon="5.73382">
        <ele>464.79998779297</ele>
        <time>2021-11-06T04:41:00.000Z</time>
      </trkpt>
      <trkpt lat="45.20913" lon="5.73381">
        <ele>465.20001220703</ele>
        <time>2021-11-06T04:41:02.000Z</time>
      </trkpt>
      <trkpt lat="45.20913" lon="5.7338">
        <ele>465.79998779297</ele>
        <time>2021-11-06T04:41:03.000Z</time>
      </trkpt>
      <trkpt lat="45.20913" lon="5.73377">
        <ele>466.60000610352</ele>
        <time>2021-11-06T04:41:05.000Z</time>
      </trkpt>
      <trkpt lat="45.20911" lon="5.73377">
        <ele>467</ele>
        <time>2021-11-06T04:41:07.000Z</time>
      </trkpt>
      <trkpt lat="45.2091" lon="5.73377">
        <ele>467.20001220703</ele>
        <time>2021-11-06T04:41:08.000Z</time>
      </trkpt>
      <trkpt lat="45.2091" lon="5.73377">
        <ele>467.39999389648</ele>
        <time>2021-11-06T04:41:09.000Z</time>
      </trkpt>
      <trkpt lat="45.20909" lon="5.73375">
        <ele>468</ele>
        <time>2021-11-06T04:41:10.000Z</time>
      </trkpt>
      <trkpt lat="45.20908" lon="5.7337">
        <ele>469.20001220703</ele>
        <time>2021-11-06T04:41:13.000Z</time>
      </trkpt>
      <trkpt lat="45.20906" lon="5.73367">
        <ele>470.20001220703</ele>
        <time>2021-11-06T04:41:17.000Z</time>
      </trkpt>
      <trkpt lat="45.20904" lon="5.73364">
        <ele>470.79998779297</ele>
        <time>2021-11-06T04:41:20.000Z</time>
      </trkpt>
      <trkpt lat="45.20904" lon="5.73362">
        <ele>471.20001220703</ele>
        <time>2021-11-06T04:41:22.000Z</time>
      </trkpt>
      <trkpt lat="45.20902" lon="5.73361">
        <ele>472</ele>
        <time>2021-11-06T04:41:24.000Z</time>
      </trkpt>
      <trkpt lat="45.20902" lon="5.73361">
        <ele>472.39999389648</ele>
        <time>2021-11-06T04:41:25.000Z</time>
      </trkpt>
      <trkpt lat="45.20899" lon="5.73358">
        <ele>473.20001220703</ele>
        <time>2021-11-06T04:41:29.000Z</time>
      </trkpt>
      <trkpt lat="45.20898" lon="5.73356">
        <ele>473.39999389648</ele>
        <time>2021-11-06T04:41:31.000Z</time>
      </trkpt>
      <trkpt lat="45.20896" lon="5.73355">
        <ele>473.79998779297</ele>
        <time>2021-11-06T04:41:33.000Z</time>
      </trkpt>
      <trkpt lat="45.20894" lon="5.73354">
        <ele>474.79998779297</ele>
        <time>2021-11-06T04:41:35.000Z</time>
      </trkpt>
      <trkpt lat="45.2089" lon="5.73352">
        <ele>475.79998779297</ele>
        <time>2021-11-06T04:41:39.000Z</time>
      </trkpt>
      <trkpt lat="45.20887" lon="5.73351">
        <ele>476.79998779297</ele>
        <time>2021-11-06T04:41:44.000Z</time>
      </trkpt>
      <trkpt lat="45.20886" lon="5.7335">
        <ele>477</ele>
        <time>2021-11-06T04:41:45.000Z</time>
      </trkpt>
      <trkpt lat="45.20886" lon="5.7335">
        <ele>477.60000610352</ele>
        <time>2021-11-06T04:41:47.000Z</time>
      </trkpt>
      <trkpt lat="45.20885" lon="5.7335">
        <ele>478.20001220703</ele>
        <time>2021-11-06T04:41:49.000Z</time>
      </trkpt>
      <trkpt lat="45.20884" lon="5.7335">
        <ele>478.20001220703</ele>
        <time>2021-11-06T04:41:50.000Z</time>
      </trkpt>
      <trkpt lat="45.20883" lon="5.7335">
        <ele>478.60000610352</ele>
        <time>2021-11-06T04:41:52.000Z</time>
      </trkpt>
      <trkpt lat="45.20882" lon="5.7335">
        <ele>479.20001220703</ele>
        <time>2021-11-06T04:41:54.000Z</time>
      </trkpt>
      <trkpt lat="45.2088" lon="5.73349">
        <ele>479.79998779297</ele>
        <time>2021-11-06T04:41:56.000Z</time>
      </trkpt>
      <trkpt lat="45.20879" lon="5.7335">
        <ele>480</ele>
        <time>2021-11-06T04:41:57.000Z</time>
      </trkpt>
      <trkpt lat="45.20879" lon="5.73349">
        <ele>480.39999389648</ele>
        <time>2021-11-06T04:41:58.000Z</time>
      </trkpt>
      <trkpt lat="45.20877" lon="5.7335">
        <ele>481.20001220703</ele>
        <time>2021-11-06T04:42:01.000Z</time>
      </trkpt>
      <trkpt lat="45.20876" lon="5.7335">
        <ele>481.39999389648</ele>
        <time>2021-11-06T04:42:02.000Z</time>
      </trkpt>
      <trkpt lat="45.20875" lon="5.73351">
        <ele>481.39999389648</ele>
        <time>2021-11-06T04:42:03.000Z</time>
      </trkpt>
      <trkpt lat="45.20874" lon="5.73352">
        <ele>482</ele>
        <time>2021-11-06T04:42:05.000Z</time>
      </trkpt>
      <trkpt lat="45.20872" lon="5.73352">
        <ele>482.60000610352</ele>
        <time>2021-11-06T04:42:07.000Z</time>
      </trkpt>
      <trkpt lat="45.2087" lon="5.73351">
        <ele>483.60000610352</ele>
        <time>2021-11-06T04:42:11.000Z</time>
      </trkpt>
      <trkpt lat="45.20866" lon="5.7335">
        <ele>484.60000610352</ele>
        <time>2021-11-06T04:42:16.000Z</time>
      </trkpt>
      <trkpt lat="45.20864" lon="5.7335">
        <ele>485.20001220703</ele>
        <time>2021-11-06T04:42:18.000Z</time>
      </trkpt>
      <trkpt lat="45.20863" lon="5.73348">
        <ele>485.79998779297</ele>
        <time>2021-11-06T04:42:20.000Z</time>
      </trkpt>
      <trkpt lat="45.20861" lon="5.73346">
        <ele>486.79998779297</ele>
        <time>2021-11-06T04:42:23.000Z</time>
      </trkpt>
      <trkpt lat="45.20859" lon="5.73345">
        <ele>487.60000610352</ele>
        <time>2021-11-06T04:42:25.000Z</time>
      </trkpt>
      <trkpt lat="45.20859" lon="5.73344">
        <ele>488</ele>
        <time>2021-11-06T04:42:26.000Z</time>
      </trkpt>
      <trkpt lat="45.20859" lon="5.73342">
        <ele>488.39999389648</ele>
        <time>2021-11-06T04:42:28.000Z</time>
      </trkpt>
      <trkpt lat="45.20857" lon="5.73339">
        <ele>488.60000610352</ele>
        <time>2021-11-06T04:42:31.000Z</time>
      </trkpt>
      <trkpt lat="45.20858" lon="5.73337">
        <ele>489</ele>
        <time>2021-11-06T04:42:32.000Z</time>
      </trkpt>
      <trkpt lat="45.20857" lon="5.73333">
        <ele>490</ele>
        <time>2021-11-06T04:42:35.000Z</time>
      </trkpt>
      <trkpt lat="45.20858" lon="5.73329">
        <ele>490.39999389648</ele>
        <time>2021-11-06T04:42:37.000Z</time>
      </trkpt>
      <trkpt lat="45.20858" lon="5.73326">
        <ele>491.20001220703</ele>
        <time>2021-11-06T04:42:39.000Z</time>
      </trkpt>
      <trkpt lat="45.20857" lon="5.73322">
        <ele>491.79998779297</ele>
        <time>2021-11-06T04:42:41.000Z</time>
      </trkpt>
      <trkpt lat="45.20855" lon="5.73316">
        <ele>492.20001220703</ele>
        <time>2021-11-06T04:42:44.000Z</time>
      </trkpt>
      <trkpt lat="45.20854" lon="5.73315">
        <ele>492.39999389648</ele>
        <time>2021-11-06T04:42:45.000Z</time>
      </trkpt>
      <trkpt lat="45.20855" lon="5.73312">
        <ele>493</ele>
        <time>2021-11-06T04:42:47.000Z</time>
      </trkpt>
      <trkpt lat="45.20856" lon="5.73311">
        <ele>493.39999389648</ele>
        <time>2021-11-06T04:42:49.000Z</time>
      </trkpt>
      <trkpt lat="45.20858" lon="5.73312">
        <ele>494.39999389648</ele>
        <time>2021-11-06T04:42:52.000Z</time>
      </trkpt>
      <trkpt lat="45.20862" lon="5.73312">
        <ele>495.20001220703</ele>
        <time>2021-11-06T04:42:55.000Z</time>
      </trkpt>
      <trkpt lat="45.20864" lon="5.7331">
        <ele>495.60000610352</ele>
        <time>2021-11-06T04:42:57.000Z</time>
      </trkpt>
      <trkpt lat="45.2087" lon="5.73313">
        <ele>496.60000610352</ele>
        <time>2021-11-06T04:43:01.000Z</time>
      </trkpt>
      <trkpt lat="45.20875" lon="5.73314">
        <ele>497.79998779297</ele>
        <time>2021-11-06T04:43:06.000Z</time>
      </trkpt>
      <trkpt lat="45.20883" lon="5.73308">
        <ele>498.79998779297</ele>
        <time>2021-11-06T04:43:13.000Z</time>
      </trkpt>
      <trkpt lat="45.20884" lon="5.73308">
        <ele>499</ele>
        <time>2021-11-06T04:43:15.000Z</time>
      </trkpt>
      <trkpt lat="45.20885" lon="5.73309">
        <ele>499.79998779297</ele>
        <time>2021-11-06T04:43:17.000Z</time>
      </trkpt>
      <trkpt lat="45.20886" lon="5.7331">
        <ele>500</ele>
        <time>2021-11-06T04:43:18.000Z</time>
      </trkpt>
      <trkpt lat="45.20891" lon="5.73307">
        <ele>500.79998779297</ele>
        <time>2021-11-06T04:43:23.000Z</time>
      </trkpt>
      <trkpt lat="45.20892" lon="5.73307">
        <ele>501</ele>
        <time>2021-11-06T04:43:24.000Z</time>
      </trkpt>
      <trkpt lat="45.20896" lon="5.73306">
        <ele>501.60000610352</ele>
        <time>2021-11-06T04:43:26.000Z</time>
      </trkpt>
      <trkpt lat="45.20899" lon="5.73305">
        <ele>502.20001220703</ele>
        <time>2021-11-06T04:43:28.000Z</time>
      </trkpt>
      <trkpt lat="45.209" lon="5.73306">
        <ele>502.20001220703</ele>
        <time>2021-11-06T04:43:29.000Z</time>
      </trkpt>
      <trkpt lat="45.20904" lon="5.73306">
        <ele>503</ele>
        <time>2021-11-06T04:43:33.000Z</time>
      </trkpt>
      <trkpt lat="45.20905" lon="5.73305">
        <ele>503.20001220703</ele>
        <time>2021-11-06T04:43:34.000Z</time>
      </trkpt>
      <trkpt lat="45.20906" lon="5.73305">
        <ele>503.39999389648</ele>
        <time>2021-11-06T04:43:35.000Z</time>
      </trkpt>
      <trkpt lat="45.20909" lon="5.73302">
        <ele>504.20001220703</ele>
        <time>2021-11-06T04:43:39.000Z</time>
      </trkpt>
      <trkpt lat="45.2091" lon="5.73302">
        <ele>504.39999389648</ele>
        <time>2021-11-06T04:43:40.000Z</time>
      </trkpt>
      <trkpt lat="45.20911" lon="5.73302">
        <ele>504.60000610352</ele>
        <time>2021-11-06T04:43:41.000Z</time>
      </trkpt>
      <trkpt lat="45.20912" lon="5.73303">
        <ele>504.79998779297</ele>
        <time>2021-11-06T04:43:42.000Z</time>
      </trkpt>
      <trkpt lat="45.20915" lon="5.73302">
        <ele>505.39999389648</ele>
        <time>2021-11-06T04:43:44.000Z</time>
      </trkpt>
      <trkpt lat="45.20916" lon="5.73302">
        <ele>505.60000610352</ele>
        <time>2021-11-06T04:43:45.000Z</time>
      </trkpt>
      <trkpt lat="45.20919" lon="5.73302">
        <ele>506</ele>
        <time>2021-11-06T04:43:48.000Z</time>
      </trkpt>
      <trkpt lat="45.20921" lon="5.73303">
        <ele>506.20001220703</ele>
        <time>2021-11-06T04:43:49.000Z</time>
      </trkpt>
      <trkpt lat="45.20924" lon="5.73304">
        <ele>506.79998779297</ele>
        <time>2021-11-06T04:43:51.000Z</time>
      </trkpt>
      <trkpt lat="45.20925" lon="5.73304">
        <ele>506.79998779297</ele>
        <time>2021-11-06T04:43:52.000Z</time>
      </trkpt>
      <trkpt lat="45.20929" lon="5.73305">
        <ele>507.60000610352</ele>
        <time>2021-11-06T04:43:55.000Z</time>
      </trkpt>
      <trkpt lat="45.2093" lon="5.73305">
        <ele>507.79998779297</ele>
        <time>2021-11-06T04:43:56.000Z</time>
      </trkpt>
      <trkpt lat="45.20938" lon="5.73307">
        <ele>508.79998779297</ele>
        <time>2021-11-06T04:44:01.000Z</time>
      </trkpt>
      <trkpt lat="45.2094" lon="5.73307">
        <ele>509.20001220703</ele>
        <time>2021-11-06T04:44:02.000Z</time>
      </trkpt>
      <trkpt lat="45.20943" lon="5.73306">
        <ele>509.60000610352</ele>
        <time>2021-11-06T04:44:04.000Z</time>
      </trkpt>
      <trkpt lat="45.20946" lon="5.73306">
        <ele>509.79998779297</ele>
        <time>2021-11-06T04:44:06.000Z</time>
      </trkpt>
      <trkpt lat="45.20948" lon="5.73305">
        <ele>510.39999389648</ele>
        <time>2021-11-06T04:44:08.000Z</time>
      </trkpt>
      <trkpt lat="45.20949" lon="5.73304">
        <ele>510.60000610352</ele>
        <time>2021-11-06T04:44:09.000Z</time>
      </trkpt>
      <trkpt lat="45.20951" lon="5.73303">
        <ele>510.79998779297</ele>
        <time>2021-11-06T04:44:11.000Z</time>
      </trkpt>
      <trkpt lat="45.20952" lon="5.73303">
        <ele>511.20001220703</ele>
        <time>2021-11-06T04:44:12.000Z</time>
      </trkpt>
      <trkpt lat="45.20954" lon="5.73301">
        <ele>511.79998779297</ele>
        <time>2021-11-06T04:44:15.000Z</time>
      </trkpt>
      <trkpt lat="45.20955" lon="5.73301">
        <ele>512</ele>
        <time>2021-11-06T04:44:16.000Z</time>
      </trkpt>
      <trkpt lat="45.20956" lon="5.733">
        <ele>512.20001220703</ele>
        <time>2021-11-06T04:44:17.000Z</time>
      </trkpt>
      <trkpt lat="45.20958" lon="5.73301">
        <ele>512.40002441406</ele>
        <time>2021-11-06T04:44:18.000Z</time>
      </trkpt>
      <trkpt lat="45.20962" lon="5.73299">
        <ele>513</ele>
        <time>2021-11-06T04:44:22.000Z</time>
      </trkpt>
      <trkpt lat="45.20964" lon="5.73298">
        <ele>513.40002441406</ele>
        <time>2021-11-06T04:44:24.000Z</time>
      </trkpt>
      <trkpt lat="45.20971" lon="5.73297">
        <ele>514.59997558594</ele>
        <time>2021-11-06T04:44:29.000Z</time>
      </trkpt>
      <trkpt lat="45.20973" lon="5.73297">
        <ele>515.40002441406</ele>
        <time>2021-11-06T04:44:32.000Z</time>
      </trkpt>
      <trkpt lat="45.20977" lon="5.73296">
        <ele>516</ele>
        <time>2021-11-06T04:44:35.000Z</time>
      </trkpt>
      <trkpt lat="45.20982" lon="5.73294">
        <ele>517</ele>
        <time>2021-11-06T04:44:39.000Z</time>
      </trkpt>
      <trkpt lat="45.20982" lon="5.73293">
        <ele>517.40002441406</ele>
        <time>2021-11-06T04:44:41.000Z</time>
      </trkpt>
      <trkpt lat="45.20982" lon="5.73293">
        <ele>517.79998779297</ele>
        <time>2021-11-06T04:44:42.000Z</time>
      </trkpt>
      <trkpt lat="45.20982" lon="5.73292">
        <ele>518</ele>
        <time>2021-11-06T04:44:43.000Z</time>
      </trkpt>
      <trkpt lat="45.20978" lon="5.73291">
        <ele>519.40002441406</ele>
        <time>2021-11-06T04:44:48.000Z</time>
      </trkpt>
      <trkpt lat="45.20975" lon="5.73291">
        <ele>520.20001220703</ele>
        <time>2021-11-06T04:44:51.000Z</time>
      </trkpt>
      <trkpt lat="45.20974" lon="5.73291">
        <ele>520.40002441406</ele>
        <time>2021-11-06T04:44:52.000Z</time>
      </trkpt>
      <trkpt lat="45.20972" lon="5.73291">
        <ele>520.59997558594</ele>
        <time>2021-11-06T04:44:54.000Z</time>
      </trkpt>
      <trkpt lat="45.2097" lon="5.73291">
        <ele>520.79998779297</ele>
        <time>2021-11-06T04:44:56.000Z</time>
      </trkpt>
      <trkpt lat="45.20968" lon="5.73289">
        <ele>521.40002441406</ele>
        <time>2021-11-06T04:44:58.000Z</time>
      </trkpt>
      <trkpt lat="45.20966" lon="5.73288">
        <ele>522.20001220703</ele>
        <time>2021-11-06T04:45:02.000Z</time>
      </trkpt>
      <trkpt lat="45.20964" lon="5.73288">
        <ele>522.40002441406</ele>
        <time>2021-11-06T04:45:03.000Z</time>
      </trkpt>
      <trkpt lat="45.20963" lon="5.73287">
        <ele>522.79998779297</ele>
        <time>2021-11-06T04:45:04.000Z</time>
      </trkpt>
      <trkpt lat="45.20956" lon="5.73288">
        <ele>524</ele>
        <time>2021-11-06T04:45:11.000Z</time>
      </trkpt>
      <trkpt lat="45.20951" lon="5.73289">
        <ele>525</ele>
        <time>2021-11-06T04:45:16.000Z</time>
      </trkpt>
      <trkpt lat="45.2095" lon="5.7329">
        <ele>525.40002441406</ele>
        <time>2021-11-06T04:45:17.000Z</time>
      </trkpt>
      <trkpt lat="45.20948" lon="5.73292">
        <ele>525.79998779297</ele>
        <time>2021-11-06T04:45:19.000Z</time>
      </trkpt>
      <trkpt lat="45.20947" lon="5.73292">
        <ele>526.20001220703</ele>
        <time>2021-11-06T04:45:20.000Z</time>
      </trkpt>
      <trkpt lat="45.20944" lon="5.73293">
        <ele>526.59997558594</ele>
        <time>2021-11-06T04:45:22.000Z</time>
      </trkpt>
      <trkpt lat="45.20941" lon="5.7329">
        <ele>527.20001220703</ele>
        <time>2021-11-06T04:45:25.000Z</time>
      </trkpt>
      <trkpt lat="45.20939" lon="5.73286">
        <ele>527.79998779297</ele>
        <time>2021-11-06T04:45:28.000Z</time>
      </trkpt>
      <trkpt lat="45.20937" lon="5.73283">
        <ele>528.40002441406</ele>
        <time>2021-11-06T04:45:30.000Z</time>
      </trkpt>
      <trkpt lat="45.20936" lon="5.73282">
        <ele>528.40002441406</ele>
        <time>2021-11-06T04:45:31.000Z</time>
      </trkpt>
      <trkpt lat="45.20935" lon="5.73281">
        <ele>528.59997558594</ele>
        <time>2021-11-06T04:45:32.000Z</time>
      </trkpt>
      <trkpt lat="45.20932" lon="5.73279">
        <ele>528.79998779297</ele>
        <time>2021-11-06T04:45:34.000Z</time>
      </trkpt>
      <trkpt lat="45.20928" lon="5.73276">
        <ele>529.59997558594</ele>
        <time>2021-11-06T04:45:38.000Z</time>
      </trkpt>
      <trkpt lat="45.20926" lon="5.73276">
        <ele>529.79998779297</ele>
        <time>2021-11-06T04:45:39.000Z</time>
      </trkpt>
      <trkpt lat="45.20921" lon="5.73275">
        <ele>530.79998779297</ele>
        <time>2021-11-06T04:45:43.000Z</time>
      </trkpt>
      <trkpt lat="45.20917" lon="5.73274">
        <ele>532</ele>
        <time>2021-11-06T04:45:47.000Z</time>
      </trkpt>
      <trkpt lat="45.20915" lon="5.73273">
        <ele>532.20001220703</ele>
        <time>2021-11-06T04:45:49.000Z</time>
      </trkpt>
      <trkpt lat="45.2091" lon="5.73271">
        <ele>533.20001220703</ele>
        <time>2021-11-06T04:45:53.000Z</time>
      </trkpt>
      <trkpt lat="45.20908" lon="5.73269">
        <ele>533.59997558594</ele>
        <time>2021-11-06T04:45:55.000Z</time>
      </trkpt>
      <trkpt lat="45.20908" lon="5.73267">
        <ele>533.79998779297</ele>
        <time>2021-11-06T04:45:56.000Z</time>
      </trkpt>
      <trkpt lat="45.20909" lon="5.73265">
        <ele>534.40002441406</ele>
        <time>2021-11-06T04:45:58.000Z</time>
      </trkpt>
      <trkpt lat="45.2091" lon="5.73265">
        <ele>535.20001220703</ele>
        <time>2021-11-06T04:46:01.000Z</time>
      </trkpt>
      <trkpt lat="45.20913" lon="5.73264">
        <ele>535.59997558594</ele>
        <time>2021-11-06T04:46:03.000Z</time>
      </trkpt>
      <trkpt lat="45.20921" lon="5.73261">
        <ele>536.59997558594</ele>
        <time>2021-11-06T04:46:08.000Z</time>
      </trkpt>
      <trkpt lat="45.20928" lon="5.7326">
        <ele>537.79998779297</ele>
        <time>2021-11-06T04:46:14.000Z</time>
      </trkpt>
      <trkpt lat="45.2093" lon="5.7326">
        <ele>538</ele>
        <time>2021-11-06T04:46:15.000Z</time>
      </trkpt>
      <trkpt lat="45.20932" lon="5.73259">
        <ele>538.20001220703</ele>
        <time>2021-11-06T04:46:16.000Z</time>
      </trkpt>
      <trkpt lat="45.20934" lon="5.73259">
        <ele>538.59997558594</ele>
        <time>2021-11-06T04:46:18.000Z</time>
      </trkpt>
      <trkpt lat="45.20937" lon="5.73259">
        <ele>539</ele>
        <time>2021-11-06T04:46:20.000Z</time>
      </trkpt>
      <trkpt lat="45.20937" lon="5.7326">
        <ele>539.40002441406</ele>
        <time>2021-11-06T04:46:21.000Z</time>
      </trkpt>
      <trkpt lat="45.20938" lon="5.7326">
        <ele>539.79998779297</ele>
        <time>2021-11-06T04:46:23.000Z</time>
      </trkpt>
      <trkpt lat="45.2094" lon="5.73261">
        <ele>540.20001220703</ele>
        <time>2021-11-06T04:46:25.000Z</time>
      </trkpt>
      <trkpt lat="45.20945" lon="5.73261">
        <ele>541</ele>
        <time>2021-11-06T04:46:29.000Z</time>
      </trkpt>
      <trkpt lat="45.20945" lon="5.7326">
        <ele>541.20001220703</ele>
        <time>2021-11-06T04:46:30.000Z</time>
      </trkpt>
      <trkpt lat="45.20948" lon="5.73258">
        <ele>542.40002441406</ele>
        <time>2021-11-06T04:46:34.000Z</time>
      </trkpt>
      <trkpt lat="45.2095" lon="5.73257">
        <ele>542.79998779297</ele>
        <time>2021-11-06T04:46:36.000Z</time>
      </trkpt>
      <trkpt lat="45.20953" lon="5.73255">
        <ele>543.59997558594</ele>
        <time>2021-11-06T04:46:39.000Z</time>
      </trkpt>
      <trkpt lat="45.2096" lon="5.73252">
        <ele>544.59997558594</ele>
        <time>2021-11-06T04:46:44.000Z</time>
      </trkpt>
      <trkpt lat="45.20961" lon="5.73252">
        <ele>544.79998779297</ele>
        <time>2021-11-06T04:46:45.000Z</time>
      </trkpt>
      <trkpt lat="45.20967" lon="5.73251">
        <ele>545.79998779297</ele>
        <time>2021-11-06T04:46:50.000Z</time>
      </trkpt>
      <trkpt lat="45.20968" lon="5.73251">
        <ele>546</ele>
        <time>2021-11-06T04:46:51.000Z</time>
      </trkpt>
      <trkpt lat="45.20973" lon="5.7325">
        <ele>547.20001220703</ele>
        <time>2021-11-06T04:46:56.000Z</time>
      </trkpt>
      <trkpt lat="45.20974" lon="5.73249">
        <ele>547.40002441406</ele>
        <time>2021-11-06T04:46:57.000Z</time>
      </trkpt>
      <trkpt lat="45.20974" lon="5.73248">
        <ele>547.59997558594</ele>
        <time>2021-11-06T04:46:58.000Z</time>
      </trkpt>
      <trkpt lat="45.20976" lon="5.73246">
        <ele>547.79998779297</ele>
        <time>2021-11-06T04:47:00.000Z</time>
      </trkpt>
      <trkpt lat="45.20978" lon="5.73244">
        <ele>548.59997558594</ele>
        <time>2021-11-06T04:47:02.000Z</time>
      </trkpt>
      <trkpt lat="45.20979" lon="5.73243">
        <ele>548.79998779297</ele>
        <time>2021-11-06T04:47:03.000Z</time>
      </trkpt>
      <trkpt lat="45.20984" lon="5.73243">
        <ele>549.59997558594</ele>
        <time>2021-11-06T04:47:07.000Z</time>
      </trkpt>
      <trkpt lat="45.20983" lon="5.73243">
        <ele>550.20001220703</ele>
        <time>2021-11-06T04:47:09.000Z</time>
      </trkpt>
      <trkpt lat="45.20981" lon="5.73243">
        <ele>550.59997558594</ele>
        <time>2021-11-06T04:47:10.000Z</time>
      </trkpt>
      <trkpt lat="45.2098" lon="5.73244">
        <ele>550.79998779297</ele>
        <time>2021-11-06T04:47:11.000Z</time>
      </trkpt>
      <trkpt lat="45.20978" lon="5.73244">
        <ele>551.20001220703</ele>
        <time>2021-11-06T04:47:14.000Z</time>
      </trkpt>
      <trkpt lat="45.20976" lon="5.73245">
        <ele>551.40002441406</ele>
        <time>2021-11-06T04:47:16.000Z</time>
      </trkpt>
      <trkpt lat="45.20974" lon="5.73244">
        <ele>552</ele>
        <time>2021-11-06T04:47:18.000Z</time>
      </trkpt>
      <trkpt lat="45.2097" lon="5.73242">
        <ele>552.59997558594</ele>
        <time>2021-11-06T04:47:21.000Z</time>
      </trkpt>
      <trkpt lat="45.20966" lon="5.73241">
        <ele>553</ele>
        <time>2021-11-06T04:47:24.000Z</time>
      </trkpt>
      <trkpt lat="45.20964" lon="5.73239">
        <ele>553.59997558594</ele>
        <time>2021-11-06T04:47:26.000Z</time>
      </trkpt>
      <trkpt lat="45.20962" lon="5.73237">
        <ele>554.20001220703</ele>
        <time>2021-11-06T04:47:28.000Z</time>
      </trkpt>
      <trkpt lat="45.20961" lon="5.73237">
        <ele>554.40002441406</ele>
        <time>2021-11-06T04:47:29.000Z</time>
      </trkpt>
      <trkpt lat="45.20956" lon="5.73239">
        <ele>555.40002441406</ele>
        <time>2021-11-06T04:47:33.000Z</time>
      </trkpt>
      <trkpt lat="45.20952" lon="5.7324">
        <ele>556</ele>
        <time>2021-11-06T04:47:36.000Z</time>
      </trkpt>
      <trkpt lat="45.2095" lon="5.7324">
        <ele>556.40002441406</ele>
        <time>2021-11-06T04:47:38.000Z</time>
      </trkpt>
      <trkpt lat="45.20945" lon="5.73239">
        <ele>557.59997558594</ele>
        <time>2021-11-06T04:47:43.000Z</time>
      </trkpt>
      <trkpt lat="45.20943" lon="5.73238">
        <ele>558</ele>
        <time>2021-11-06T04:47:44.000Z</time>
      </trkpt>
      <trkpt lat="45.2094" lon="5.73238">
        <ele>558.59997558594</ele>
        <time>2021-11-06T04:47:47.000Z</time>
      </trkpt>
      <trkpt lat="45.2094" lon="5.73237">
        <ele>558.79998779297</ele>
        <time>2021-11-06T04:47:48.000Z</time>
      </trkpt>
      <trkpt lat="45.20938" lon="5.73235">
        <ele>559.20001220703</ele>
        <time>2021-11-06T04:47:50.000Z</time>
      </trkpt>
      <trkpt lat="45.20933" lon="5.73232">
        <ele>560</ele>
        <time>2021-11-06T04:47:54.000Z</time>
      </trkpt>
      <trkpt lat="45.2093" lon="5.73228">
        <ele>560.40002441406</ele>
        <time>2021-11-06T04:47:57.000Z</time>
      </trkpt>
      <trkpt lat="45.20931" lon="5.73226">
        <ele>561</ele>
        <time>2021-11-06T04:47:59.000Z</time>
      </trkpt>
      <trkpt lat="45.20933" lon="5.73227">
        <ele>561.79998779297</ele>
        <time>2021-11-06T04:48:01.000Z</time>
      </trkpt>
      <trkpt lat="45.20936" lon="5.73228">
        <ele>562.40002441406</ele>
        <time>2021-11-06T04:48:03.000Z</time>
      </trkpt>
      <trkpt lat="45.2094" lon="5.73227">
        <ele>563.20001220703</ele>
        <time>2021-11-06T04:48:06.000Z</time>
      </trkpt>
      <trkpt lat="45.20942" lon="5.73227">
        <ele>563.40002441406</ele>
        <time>2021-11-06T04:48:07.000Z</time>
      </trkpt>
      <trkpt lat="45.20946" lon="5.73226">
        <ele>564</ele>
        <time>2021-11-06T04:48:10.000Z</time>
      </trkpt>
      <trkpt lat="45.20951" lon="5.73224">
        <ele>564.59997558594</ele>
        <time>2021-11-06T04:48:14.000Z</time>
      </trkpt>
      <trkpt lat="45.20958" lon="5.73221">
        <ele>565.79998779297</ele>
        <time>2021-11-06T04:48:20.000Z</time>
      </trkpt>
      <trkpt lat="45.20963" lon="5.73219">
        <ele>566.79998779297</ele>
        <time>2021-11-06T04:48:24.000Z</time>
      </trkpt>
      <trkpt lat="45.20964" lon="5.73219">
        <ele>567.20001220703</ele>
        <time>2021-11-06T04:48:25.000Z</time>
      </trkpt>
      <trkpt lat="45.20966" lon="5.73218">
        <ele>567.79998779297</ele>
        <time>2021-11-06T04:48:27.000Z</time>
      </trkpt>
      <trkpt lat="45.20974" lon="5.73217">
        <ele>569</ele>
        <time>2021-11-06T04:48:33.000Z</time>
      </trkpt>
      <trkpt lat="45.20977" lon="5.73211">
        <ele>570</ele>
        <time>2021-11-06T04:48:37.000Z</time>
      </trkpt>
      <trkpt lat="45.20978" lon="5.73209">
        <ele>570.20001220703</ele>
        <time>2021-11-06T04:48:38.000Z</time>
      </trkpt>
      <trkpt lat="45.20982" lon="5.73207">
        <ele>571.20001220703</ele>
        <time>2021-11-06T04:48:42.000Z</time>
      </trkpt>
      <trkpt lat="45.20982" lon="5.73205">
        <ele>571.59997558594</ele>
        <time>2021-11-06T04:48:44.000Z</time>
      </trkpt>
      <trkpt lat="45.20981" lon="5.73205">
        <ele>572.20001220703</ele>
        <time>2021-11-06T04:48:45.000Z</time>
      </trkpt>
      <trkpt lat="45.20981" lon="5.73206">
        <ele>572.40002441406</ele>
        <time>2021-11-06T04:48:46.000Z</time>
      </trkpt>
      <trkpt lat="45.20979" lon="5.73205">
        <ele>573</ele>
        <time>2021-11-06T04:48:48.000Z</time>
      </trkpt>
      <trkpt lat="45.20977" lon="5.73207">
        <ele>573.59997558594</ele>
        <time>2021-11-06T04:48:50.000Z</time>
      </trkpt>
      <trkpt lat="45.20973" lon="5.73212">
        <ele>574.40002441406</ele>
        <time>2021-11-06T04:48:54.000Z</time>
      </trkpt>
      <trkpt lat="45.20972" lon="5.73211">
        <ele>574.59997558594</ele>
        <time>2021-11-06T04:48:55.000Z</time>
      </trkpt>
      <trkpt lat="45.20971" lon="5.73211">
        <ele>574.79998779297</ele>
        <time>2021-11-06T04:48:56.000Z</time>
      </trkpt>
      <trkpt lat="45.20972" lon="5.73209">
        <ele>575</ele>
        <time>2021-11-06T04:48:58.000Z</time>
      </trkpt>
      <trkpt lat="45.20974" lon="5.73209">
        <ele>575.79998779297</ele>
        <time>2021-11-06T04:49:00.000Z</time>
      </trkpt>
      <trkpt lat="45.20975" lon="5.7321">
        <ele>576</ele>
        <time>2021-11-06T04:49:01.000Z</time>
      </trkpt>
      <trkpt lat="45.20977" lon="5.73209">
        <ele>576.40002441406</ele>
        <time>2021-11-06T04:49:03.000Z</time>
      </trkpt>
      <trkpt lat="45.20977" lon="5.73208">
        <ele>576.59997558594</ele>
        <time>2021-11-06T04:49:04.000Z</time>
      </trkpt>
      <trkpt lat="45.20978" lon="5.73207">
        <ele>577</ele>
        <time>2021-11-06T04:49:05.000Z</time>
      </trkpt>
      <trkpt lat="45.20979" lon="5.73206">
        <ele>577.40002441406</ele>
        <time>2021-11-06T04:49:06.000Z</time>
      </trkpt>
      <trkpt lat="45.20982" lon="5.73204">
        <ele>577.59997558594</ele>
        <time>2021-11-06T04:49:08.000Z</time>
      </trkpt>
      <trkpt lat="45.20983" lon="5.73203">
        <ele>577.79998779297</ele>
        <time>2021-11-06T04:49:09.000Z</time>
      </trkpt>
      <trkpt lat="45.20985" lon="5.732">
        <ele>578.20001220703</ele>
        <time>2021-11-06T04:49:11.000Z</time>
      </trkpt>
      <trkpt lat="45.20987" lon="5.73198">
        <ele>578.59997558594</ele>
        <time>2021-11-06T04:49:13.000Z</time>
      </trkpt>
      <trkpt lat="45.20989" lon="5.73194">
        <ele>579.20001220703</ele>
        <time>2021-11-06T04:49:16.000Z</time>
      </trkpt>
      <trkpt lat="45.2099" lon="5.73192">
        <ele>579.40002441406</ele>
        <time>2021-11-06T04:49:17.000Z</time>
      </trkpt>
      <trkpt lat="45.20991" lon="5.7319">
        <ele>579.59997558594</ele>
        <time>2021-11-06T04:49:18.000Z</time>
      </trkpt>
      <trkpt lat="45.20993" lon="5.73184">
        <ele>580.59997558594</ele>
        <time>2021-11-06T04:49:22.000Z</time>
      </trkpt>
      <trkpt lat="45.20996" lon="5.73178">
        <ele>581.59997558594</ele>
        <time>2021-11-06T04:49:27.000Z</time>
      </trkpt>
      <trkpt lat="45.20997" lon="5.73177">
        <ele>581.59997558594</ele>
        <time>2021-11-06T04:49:28.000Z</time>
      </trkpt>
      <trkpt lat="45.20997" lon="5.73176">
        <ele>581.79998779297</ele>
        <time>2021-11-06T04:49:29.000Z</time>
      </trkpt>
      <trkpt lat="45.21" lon="5.73174">
        <ele>582.59997558594</ele>
        <time>2021-11-06T04:49:32.000Z</time>
      </trkpt>
      <trkpt lat="45.21001" lon="5.73172">
        <ele>583</ele>
        <time>2021-11-06T04:49:34.000Z</time>
      </trkpt>
      <trkpt lat="45.21002" lon="5.73172">
        <ele>583.40002441406</ele>
        <time>2021-11-06T04:49:35.000Z</time>
      </trkpt>
      <trkpt lat="45.21003" lon="5.73172">
        <ele>583.79998779297</ele>
        <time>2021-11-06T04:49:36.000Z</time>
      </trkpt>
      <trkpt lat="45.21005" lon="5.73168">
        <ele>584.20001220703</ele>
        <time>2021-11-06T04:49:38.000Z</time>
      </trkpt>
      <trkpt lat="45.21009" lon="5.73167">
        <ele>585</ele>
        <time>2021-11-06T04:49:41.000Z</time>
      </trkpt>
      <trkpt lat="45.2101" lon="5.73168">
        <ele>585</ele>
        <time>2021-11-06T04:49:42.000Z</time>
      </trkpt>
      <trkpt lat="45.21015" lon="5.73164">
        <ele>586</ele>
        <time>2021-11-06T04:49:46.000Z</time>
      </trkpt>
      <trkpt lat="45.21015" lon="5.73165">
        <ele>586.20001220703</ele>
        <time>2021-11-06T04:49:47.000Z</time>
      </trkpt>
      <trkpt lat="45.21019" lon="5.73166">
        <ele>586.79998779297</ele>
        <time>2021-11-06T04:49:50.000Z</time>
      </trkpt>
      <trkpt lat="45.21022" lon="5.73167">
        <ele>587</ele>
        <time>2021-11-06T04:49:52.000Z</time>
      </trkpt>
      <trkpt lat="45.21025" lon="5.73171">
        <ele>587.59997558594</ele>
        <time>2021-11-06T04:49:55.000Z</time>
      </trkpt>
      <trkpt lat="45.21027" lon="5.73174">
        <ele>588</ele>
        <time>2021-11-06T04:49:57.000Z</time>
      </trkpt>
      <trkpt lat="45.21029" lon="5.73175">
        <ele>588</ele>
        <time>2021-11-06T04:49:58.000Z</time>
      </trkpt>
      <trkpt lat="45.21033" lon="5.73177">
        <ele>588.79998779297</ele>
        <time>2021-11-06T04:50:00.000Z</time>
      </trkpt>
      <trkpt lat="45.21036" lon="5.73178">
        <ele>589.20001220703</ele>
        <time>2021-11-06T04:50:02.000Z</time>
      </trkpt>
      <trkpt lat="45.21038" lon="5.73179">
        <ele>589.59997558594</ele>
        <time>2021-11-06T04:50:04.000Z</time>
      </trkpt>
      <trkpt lat="45.21039" lon="5.73181">
        <ele>590.20001220703</ele>
        <time>2021-11-06T04:50:06.000Z</time>
      </trkpt>
      <trkpt lat="45.21041" lon="5.73181">
        <ele>590.40002441406</ele>
        <time>2021-11-06T04:50:07.000Z</time>
      </trkpt>
      <trkpt lat="45.21044" lon="5.7318">
        <ele>590.79998779297</ele>
        <time>2021-11-06T04:50:09.000Z</time>
      </trkpt>
      <trkpt lat="45.21046" lon="5.73179">
        <ele>591</ele>
        <time>2021-11-06T04:50:10.000Z</time>
      </trkpt>
      <trkpt lat="45.21047" lon="5.73178">
        <ele>591.20001220703</ele>
        <time>2021-11-06T04:50:11.000Z</time>
      </trkpt>
      <trkpt lat="45.21048" lon="5.73178">
        <ele>591.40002441406</ele>
        <time>2021-11-06T04:50:12.000Z</time>
      </trkpt>
      <trkpt lat="45.2105" lon="5.73178">
        <ele>592</ele>
        <time>2021-11-06T04:50:14.000Z</time>
      </trkpt>
      <trkpt lat="45.21051" lon="5.73176">
        <ele>592.40002441406</ele>
        <time>2021-11-06T04:50:15.000Z</time>
      </trkpt>
      <trkpt lat="45.21053" lon="5.73176">
        <ele>592.79998779297</ele>
        <time>2021-11-06T04:50:18.000Z</time>
      </trkpt>
      <trkpt lat="45.21054" lon="5.73177">
        <ele>593</ele>
        <time>2021-11-06T04:50:19.000Z</time>
      </trkpt>
      <trkpt lat="45.21056" lon="5.73178">
        <ele>593.59997558594</ele>
        <time>2021-11-06T04:50:21.000Z</time>
      </trkpt>
      <trkpt lat="45.21057" lon="5.73178">
        <ele>593.79998779297</ele>
        <time>2021-11-06T04:50:22.000Z</time>
      </trkpt>
      <trkpt lat="45.21058" lon="5.73178">
        <ele>594.40002441406</ele>
        <time>2021-11-06T04:50:24.000Z</time>
      </trkpt>
      <trkpt lat="45.21059" lon="5.7318">
        <ele>594.59997558594</ele>
        <time>2021-11-06T04:50:25.000Z</time>
      </trkpt>
      <trkpt lat="45.21061" lon="5.73181">
        <ele>595</ele>
        <time>2021-11-06T04:50:27.000Z</time>
      </trkpt>
      <trkpt lat="45.21063" lon="5.73184">
        <ele>595.20001220703</ele>
        <time>2021-11-06T04:50:29.000Z</time>
      </trkpt>
      <trkpt lat="45.21063" lon="5.73185">
        <ele>595.59997558594</ele>
        <time>2021-11-06T04:50:30.000Z</time>
      </trkpt>
      <trkpt lat="45.21065" lon="5.73186">
        <ele>595.79998779297</ele>
        <time>2021-11-06T04:50:31.000Z</time>
      </trkpt>
      <trkpt lat="45.2107" lon="5.73188">
        <ele>596.20001220703</ele>
        <time>2021-11-06T04:50:33.000Z</time>
      </trkpt>
      <trkpt lat="45.21073" lon="5.7319">
        <ele>596.59997558594</ele>
        <time>2021-11-06T04:50:35.000Z</time>
      </trkpt>
      <trkpt lat="45.21081" lon="5.73197">
        <ele>598</ele>
        <time>2021-11-06T04:50:41.000Z</time>
      </trkpt>
      <trkpt lat="45.21082" lon="5.73198">
        <ele>598.40002441406</ele>
        <time>2021-11-06T04:50:43.000Z</time>
      </trkpt>
      <trkpt lat="45.21086" lon="5.73199">
        <ele>599.20001220703</ele>
        <time>2021-11-06T04:50:46.000Z</time>
      </trkpt>
      <trkpt lat="45.21086" lon="5.732">
        <ele>599.79998779297</ele>
        <time>2021-11-06T04:50:49.000Z</time>
      </trkpt>
      <trkpt lat="45.21085" lon="5.732">
        <ele>600.40002441406</ele>
        <time>2021-11-06T04:50:50.000Z</time>
      </trkpt>
      <trkpt lat="45.21082" lon="5.73201">
        <ele>601.20001220703</ele>
        <time>2021-11-06T04:50:53.000Z</time>
      </trkpt>
      <trkpt lat="45.21081" lon="5.73201">
        <ele>601.40002441406</ele>
        <time>2021-11-06T04:50:54.000Z</time>
      </trkpt>
      <trkpt lat="45.21079" lon="5.732">
        <ele>601.59997558594</ele>
        <time>2021-11-06T04:50:55.000Z</time>
      </trkpt>
      <trkpt lat="45.21076" lon="5.73199">
        <ele>602</ele>
        <time>2021-11-06T04:50:58.000Z</time>
      </trkpt>
      <trkpt lat="45.21075" lon="5.73198">
        <ele>602.40002441406</ele>
        <time>2021-11-06T04:50:59.000Z</time>
      </trkpt>
      <trkpt lat="45.21075" lon="5.73197">
        <ele>602.79998779297</ele>
        <time>2021-11-06T04:51:00.000Z</time>
      </trkpt>
      <trkpt lat="45.21074" lon="5.73195">
        <ele>603.40002441406</ele>
        <time>2021-11-06T04:51:02.000Z</time>
      </trkpt>
      <trkpt lat="45.21075" lon="5.73194">
        <ele>603.59997558594</ele>
        <time>2021-11-06T04:51:03.000Z</time>
      </trkpt>
      <trkpt lat="45.21074" lon="5.73192">
        <ele>603.79998779297</ele>
        <time>2021-11-06T04:51:04.000Z</time>
      </trkpt>
      <trkpt lat="45.21074" lon="5.73191">
        <ele>604.20001220703</ele>
        <time>2021-11-06T04:51:05.000Z</time>
      </trkpt>
      <trkpt lat="45.21072" lon="5.73189">
        <ele>604.59997558594</ele>
        <time>2021-11-06T04:51:07.000Z</time>
      </trkpt>
      <trkpt lat="45.2107" lon="5.73186">
        <ele>605.20001220703</ele>
        <time>2021-11-06T04:51:10.000Z</time>
      </trkpt>
      <trkpt lat="45.21068" lon="5.73184">
        <ele>605.59997558594</ele>
        <time>2021-11-06T04:51:12.000Z</time>
      </trkpt>
      <trkpt lat="45.21067" lon="5.73181">
        <ele>606.20001220703</ele>
        <time>2021-11-06T04:51:14.000Z</time>
      </trkpt>
      <trkpt lat="45.21066" lon="5.73178">
        <ele>606.79998779297</ele>
        <time>2021-11-06T04:51:16.000Z</time>
      </trkpt>
      <trkpt lat="45.21065" lon="5.73175">
        <ele>607.20001220703</ele>
        <time>2021-11-06T04:51:18.000Z</time>
      </trkpt>
      <trkpt lat="45.21064" lon="5.73173">
        <ele>607.79998779297</ele>
        <time>2021-11-06T04:51:20.000Z</time>
      </trkpt>
      <trkpt lat="45.21061" lon="5.73171">
        <ele>608.59997558594</ele>
        <time>2021-11-06T04:51:23.000Z</time>
      </trkpt>
      <trkpt lat="45.2106" lon="5.7317">
        <ele>609</ele>
        <time>2021-11-06T04:51:24.000Z</time>
      </trkpt>
      <trkpt lat="45.2106" lon="5.7317">
        <ele>609.20001220703</ele>
        <time>2021-11-06T04:51:25.000Z</time>
      </trkpt>
      <trkpt lat="45.21057" lon="5.73172">
        <ele>609.79998779297</ele>
        <time>2021-11-06T04:51:28.000Z</time>
      </trkpt>
      <trkpt lat="45.21055" lon="5.73173">
        <ele>610</ele>
        <time>2021-11-06T04:51:30.000Z</time>
      </trkpt>
      <trkpt lat="45.21053" lon="5.73173">
        <ele>610.20001220703</ele>
        <time>2021-11-06T04:51:31.000Z</time>
      </trkpt>
      <trkpt lat="45.21052" lon="5.73172">
        <ele>610.20001220703</ele>
        <time>2021-11-06T04:51:32.000Z</time>
      </trkpt>
      <trkpt lat="45.21049" lon="5.7317">
        <ele>610.79998779297</ele>
        <time>2021-11-06T04:51:34.000Z</time>
      </trkpt>
      <trkpt lat="45.21047" lon="5.73166">
        <ele>611</ele>
        <time>2021-11-06T04:51:36.000Z</time>
      </trkpt>
      <trkpt lat="45.21046" lon="5.73165">
        <ele>611.20001220703</ele>
        <time>2021-11-06T04:51:37.000Z</time>
      </trkpt>
      <trkpt lat="45.21041" lon="5.73161">
        <ele>612</ele>
        <time>2021-11-06T04:51:41.000Z</time>
      </trkpt>
      <trkpt lat="45.2104" lon="5.7316">
        <ele>612.40002441406</ele>
        <time>2021-11-06T04:51:42.000Z</time>
      </trkpt>
      <trkpt lat="45.21037" lon="5.73156">
        <ele>613.40002441406</ele>
        <time>2021-11-06T04:51:46.000Z</time>
      </trkpt>
      <trkpt lat="45.21036" lon="5.73154">
        <ele>613.59997558594</ele>
        <time>2021-11-06T04:51:47.000Z</time>
      </trkpt>
      <trkpt lat="45.21033" lon="5.7315">
        <ele>614.40002441406</ele>
        <time>2021-11-06T04:51:50.000Z</time>
      </trkpt>
      <trkpt lat="45.21028" lon="5.73146">
        <ele>615.59997558594</ele>
        <time>2021-11-06T04:51:54.000Z</time>
      </trkpt>
      <trkpt lat="45.21026" lon="5.73143">
        <ele>615.79998779297</ele>
        <time>2021-11-06T04:51:56.000Z</time>
      </trkpt>
      <trkpt lat="45.21024" lon="5.73141">
        <ele>616.40002441406</ele>
        <time>2021-11-06T04:51:58.000Z</time>
      </trkpt>
      <trkpt lat="45.21024" lon="5.7314">
        <ele>616.79998779297</ele>
        <time>2021-11-06T04:51:59.000Z</time>
      </trkpt>
      <trkpt lat="45.21022" lon="5.7314">
        <ele>618</ele>
        <time>2021-11-06T04:52:02.000Z</time>
      </trkpt>
      <trkpt lat="45.21021" lon="5.7314">
        <ele>618.20001220703</ele>
        <time>2021-11-06T04:52:03.000Z</time>
      </trkpt>
      <trkpt lat="45.21019" lon="5.73136">
        <ele>619.20001220703</ele>
        <time>2021-11-06T04:52:06.000Z</time>
      </trkpt>
      <trkpt lat="45.21018" lon="5.73138">
        <ele>619.59997558594</ele>
        <time>2021-11-06T04:52:08.000Z</time>
      </trkpt>
      <trkpt lat="45.21017" lon="5.73139">
        <ele>619.79998779297</ele>
        <time>2021-11-06T04:52:09.000Z</time>
      </trkpt>
      <trkpt lat="45.21016" lon="5.73141">
        <ele>619.79998779297</ele>
        <time>2021-11-06T04:52:11.000Z</time>
      </trkpt>
      <trkpt lat="45.21013" lon="5.7314">
        <ele>620</ele>
        <time>2021-11-06T04:52:13.000Z</time>
      </trkpt>
      <trkpt lat="45.21013" lon="5.7314">
        <ele>620.20001220703</ele>
        <time>2021-11-06T04:52:14.000Z</time>
      </trkpt>
      <trkpt lat="45.21012" lon="5.7314">
        <ele>620.59997558594</ele>
        <time>2021-11-06T04:52:15.000Z</time>
      </trkpt>
      <trkpt lat="45.21012" lon="5.7314">
        <ele>620.79998779297</ele>
        <time>2021-11-06T04:52:18.000Z</time>
      </trkpt>
      <trkpt lat="45.21008" lon="5.73142">
        <ele>621.20001220703</ele>
        <time>2021-11-06T04:52:22.000Z</time>
      </trkpt>
      <trkpt lat="45.21007" lon="5.73142">
        <ele>621.20001220703</ele>
        <time>2021-11-06T04:52:23.000Z</time>
      </trkpt>
      <trkpt lat="45.21006" lon="5.73141">
        <ele>621.40002441406</ele>
        <time>2021-11-06T04:52:24.000Z</time>
      </trkpt>
      <trkpt lat="45.21002" lon="5.73143">
        <ele>622.20001220703</ele>
        <time>2021-11-06T04:52:28.000Z</time>
      </trkpt>
      <trkpt lat="45.21" lon="5.73144">
        <ele>622.40002441406</ele>
        <time>2021-11-06T04:52:29.000Z</time>
      </trkpt>
      <trkpt lat="45.20997" lon="5.73146">
        <ele>623.59997558594</ele>
        <time>2021-11-06T04:52:33.000Z</time>
      </trkpt>
      <trkpt lat="45.20995" lon="5.73147">
        <ele>623.79998779297</ele>
        <time>2021-11-06T04:52:35.000Z</time>
      </trkpt>
      <trkpt lat="45.20992" lon="5.73149">
        <ele>624.79998779297</ele>
        <time>2021-11-06T04:52:38.000Z</time>
      </trkpt>
      <trkpt lat="45.20992" lon="5.73148">
        <ele>625</ele>
        <time>2021-11-06T04:52:39.000Z</time>
      </trkpt>
      <trkpt lat="45.2099" lon="5.73148">
        <ele>625.20001220703</ele>
        <time>2021-11-06T04:52:40.000Z</time>
      </trkpt>
      <trkpt lat="45.20985" lon="5.73146">
        <ele>626</ele>
        <time>2021-11-06T04:52:44.000Z</time>
      </trkpt>
      <trkpt lat="45.20986" lon="5.73144">
        <ele>626.59997558594</ele>
        <time>2021-11-06T04:52:46.000Z</time>
      </trkpt>
      <trkpt lat="45.20987" lon="5.73143">
        <ele>627</ele>
        <time>2021-11-06T04:52:47.000Z</time>
      </trkpt>
      <trkpt lat="45.20988" lon="5.73142">
        <ele>627.40002441406</ele>
        <time>2021-11-06T04:52:48.000Z</time>
      </trkpt>
      <trkpt lat="45.20993" lon="5.73135">
        <ele>628.59997558594</ele>
        <time>2021-11-06T04:52:53.000Z</time>
      </trkpt>
      <trkpt lat="45.20994" lon="5.73134">
        <ele>628.79998779297</ele>
        <time>2021-11-06T04:52:54.000Z</time>
      </trkpt>
      <trkpt lat="45.21" lon="5.7313">
        <ele>629.59997558594</ele>
        <time>2021-11-06T04:52:59.000Z</time>
      </trkpt>
      <trkpt lat="45.21001" lon="5.7313">
        <ele>629.79998779297</ele>
        <time>2021-11-06T04:53:00.000Z</time>
      </trkpt>
      <trkpt lat="45.21002" lon="5.73128">
        <ele>630.20001220703</ele>
        <time>2021-11-06T04:53:02.000Z</time>
      </trkpt>
      <trkpt lat="45.21003" lon="5.73124">
        <ele>630.79998779297</ele>
        <time>2021-11-06T04:53:05.000Z</time>
      </trkpt>
      <trkpt lat="45.21004" lon="5.73122">
        <ele>631.20001220703</ele>
        <time>2021-11-06T04:53:06.000Z</time>
      </trkpt>
      <trkpt lat="45.21005" lon="5.7312">
        <ele>631.59997558594</ele>
        <time>2021-11-06T04:53:08.000Z</time>
      </trkpt>
      <trkpt lat="45.21005" lon="5.73118">
        <ele>632</ele>
        <time>2021-11-06T04:53:09.000Z</time>
      </trkpt>
      <trkpt lat="45.21006" lon="5.73117">
        <ele>632.20001220703</ele>
        <time>2021-11-06T04:53:10.000Z</time>
      </trkpt>
      <trkpt lat="45.21008" lon="5.73114">
        <ele>632.59997558594</ele>
        <time>2021-11-06T04:53:12.000Z</time>
      </trkpt>
      <trkpt lat="45.21009" lon="5.73112">
        <ele>632.79998779297</ele>
        <time>2021-11-06T04:53:13.000Z</time>
      </trkpt>
      <trkpt lat="45.21011" lon="5.73109">
        <ele>633.20001220703</ele>
        <time>2021-11-06T04:53:15.000Z</time>
      </trkpt>
      <trkpt lat="45.21013" lon="5.73107">
        <ele>633.40002441406</ele>
        <time>2021-11-06T04:53:17.000Z</time>
      </trkpt>
      <trkpt lat="45.21015" lon="5.73108">
        <ele>634</ele>
        <time>2021-11-06T04:53:19.000Z</time>
      </trkpt>
      <trkpt lat="45.21016" lon="5.73109">
        <ele>634.20001220703</ele>
        <time>2021-11-06T04:53:20.000Z</time>
      </trkpt>
      <trkpt lat="45.21017" lon="5.73109">
        <ele>634.59997558594</ele>
        <time>2021-11-06T04:53:21.000Z</time>
      </trkpt>
      <trkpt lat="45.21019" lon="5.73107">
        <ele>635.20001220703</ele>
        <time>2021-11-06T04:53:24.000Z</time>
      </trkpt>
      <trkpt lat="45.21021" lon="5.73107">
        <ele>635.59997558594</ele>
        <time>2021-11-06T04:53:25.000Z</time>
      </trkpt>
      <trkpt lat="45.21023" lon="5.73109">
        <ele>636.20001220703</ele>
        <time>2021-11-06T04:53:29.000Z</time>
      </trkpt>
      <trkpt lat="45.21024" lon="5.7311">
        <ele>636.20001220703</ele>
        <time>2021-11-06T04:53:30.000Z</time>
      </trkpt>
      <trkpt lat="45.21028" lon="5.73112">
        <ele>636.79998779297</ele>
        <time>2021-11-06T04:53:34.000Z</time>
      </trkpt>
      <trkpt lat="45.2103" lon="5.73113">
        <ele>637.20001220703</ele>
        <time>2021-11-06T04:53:36.000Z</time>
      </trkpt>
      <trkpt lat="45.21034" lon="5.73115">
        <ele>638</ele>
        <time>2021-11-06T04:53:40.000Z</time>
      </trkpt>
      <trkpt lat="45.21037" lon="5.73117">
        <ele>638.40002441406</ele>
        <time>2021-11-06T04:53:42.000Z</time>
      </trkpt>
      <trkpt lat="45.21041" lon="5.73118">
        <ele>639</ele>
        <time>2021-11-06T04:53:45.000Z</time>
      </trkpt>
      <trkpt lat="45.21045" lon="5.73117">
        <ele>639.40002441406</ele>
        <time>2021-11-06T04:53:47.000Z</time>
      </trkpt>
      <trkpt lat="45.21047" lon="5.73117">
        <ele>639.59997558594</ele>
        <time>2021-11-06T04:53:48.000Z</time>
      </trkpt>
      <trkpt lat="45.2105" lon="5.73118">
        <ele>640.20001220703</ele>
        <time>2021-11-06T04:53:50.000Z</time>
      </trkpt>
      <trkpt lat="45.21052" lon="5.73119">
        <ele>640.59997558594</ele>
        <time>2021-11-06T04:53:52.000Z</time>
      </trkpt>
      <trkpt lat="45.21055" lon="5.73118">
        <ele>641</ele>
        <time>2021-11-06T04:53:54.000Z</time>
      </trkpt>
      <trkpt lat="45.21055" lon="5.73117">
        <ele>641.20001220703</ele>
        <time>2021-11-06T04:53:55.000Z</time>
      </trkpt>
      <trkpt lat="45.21062" lon="5.73115">
        <ele>642.40002441406</ele>
        <time>2021-11-06T04:54:00.000Z</time>
      </trkpt>
      <trkpt lat="45.21063" lon="5.73114">
        <ele>642.59997558594</ele>
        <time>2021-11-06T04:54:01.000Z</time>
      </trkpt>
      <trkpt lat="45.21068" lon="5.7311">
        <ele>643.79998779297</ele>
        <time>2021-11-06T04:54:05.000Z</time>
      </trkpt>
      <trkpt lat="45.21069" lon="5.7311">
        <ele>644.20001220703</ele>
        <time>2021-11-06T04:54:06.000Z</time>
      </trkpt>
      <trkpt lat="45.21073" lon="5.73108">
        <ele>644.79998779297</ele>
        <time>2021-11-06T04:54:09.000Z</time>
      </trkpt>
      <trkpt lat="45.21073" lon="5.73107">
        <ele>645.20001220703</ele>
        <time>2021-11-06T04:54:10.000Z</time>
      </trkpt>
      <trkpt lat="45.21073" lon="5.73108">
        <ele>645.40002441406</ele>
        <time>2021-11-06T04:54:11.000Z</time>
      </trkpt>
      <trkpt lat="45.21075" lon="5.73112">
        <ele>646</ele>
        <time>2021-11-06T04:54:13.000Z</time>
      </trkpt>
      <trkpt lat="45.21078" lon="5.73117">
        <ele>646.20001220703</ele>
        <time>2021-11-06T04:54:17.000Z</time>
      </trkpt>
      <trkpt lat="45.21083" lon="5.73119">
        <ele>647</ele>
        <time>2021-11-06T04:54:20.000Z</time>
      </trkpt>
      <trkpt lat="45.21086" lon="5.73121">
        <ele>647.20001220703</ele>
        <time>2021-11-06T04:54:21.000Z</time>
      </trkpt>
      <trkpt lat="45.21088" lon="5.73124">
        <ele>648</ele>
        <time>2021-11-06T04:54:24.000Z</time>
      </trkpt>
      <trkpt lat="45.21089" lon="5.73125">
        <ele>648</ele>
        <time>2021-11-06T04:54:25.000Z</time>
      </trkpt>
      <trkpt lat="45.21093" lon="5.73129">
        <ele>649.20001220703</ele>
        <time>2021-11-06T04:54:29.000Z</time>
      </trkpt>
      <trkpt lat="45.21094" lon="5.7313">
        <ele>649.20001220703</ele>
        <time>2021-11-06T04:54:30.000Z</time>
      </trkpt>
      <trkpt lat="45.211" lon="5.73137">
        <ele>650.59997558594</ele>
        <time>2021-11-06T04:54:35.000Z</time>
      </trkpt>
      <trkpt lat="45.21101" lon="5.73138">
        <ele>651.40002441406</ele>
        <time>2021-11-06T04:54:37.000Z</time>
      </trkpt>
      <trkpt lat="45.21104" lon="5.73139">
        <ele>651.59997558594</ele>
        <time>2021-11-06T04:54:39.000Z</time>
      </trkpt>
      <trkpt lat="45.21108" lon="5.73137">
        <ele>652.79998779297</ele>
        <time>2021-11-06T04:54:43.000Z</time>
      </trkpt>
      <trkpt lat="45.21109" lon="5.73138">
        <ele>653.20001220703</ele>
        <time>2021-11-06T04:54:44.000Z</time>
      </trkpt>
      <trkpt lat="45.21111" lon="5.73138">
        <ele>654</ele>
        <time>2021-11-06T04:54:46.000Z</time>
      </trkpt>
      <trkpt lat="45.21112" lon="5.73139">
        <ele>654.20001220703</ele>
        <time>2021-11-06T04:54:47.000Z</time>
      </trkpt>
      <trkpt lat="45.21113" lon="5.73139">
        <ele>654.59997558594</ele>
        <time>2021-11-06T04:54:48.000Z</time>
      </trkpt>
      <trkpt lat="45.21115" lon="5.73139">
        <ele>655</ele>
        <time>2021-11-06T04:54:50.000Z</time>
      </trkpt>
      <trkpt lat="45.21115" lon="5.73138">
        <ele>655.20001220703</ele>
        <time>2021-11-06T04:54:51.000Z</time>
      </trkpt>
      <trkpt lat="45.21116" lon="5.73138">
        <ele>655.20001220703</ele>
        <time>2021-11-06T04:54:52.000Z</time>
      </trkpt>
      <trkpt lat="45.21119" lon="5.73138">
        <ele>655.59997558594</ele>
        <time>2021-11-06T04:54:54.000Z</time>
      </trkpt>
      <trkpt lat="45.21122" lon="5.73138">
        <ele>656</ele>
        <time>2021-11-06T04:54:57.000Z</time>
      </trkpt>
      <trkpt lat="45.21123" lon="5.73137">
        <ele>656.40002441406</ele>
        <time>2021-11-06T04:54:58.000Z</time>
      </trkpt>
      <trkpt lat="45.21126" lon="5.73133">
        <ele>657.59997558594</ele>
        <time>2021-11-06T04:55:03.000Z</time>
      </trkpt>
      <trkpt lat="45.21126" lon="5.73134">
        <ele>658.59997558594</ele>
        <time>2021-11-06T04:55:07.000Z</time>
      </trkpt>
      <trkpt lat="45.21125" lon="5.73135">
        <ele>659.20001220703</ele>
        <time>2021-11-06T04:55:08.000Z</time>
      </trkpt>
      <trkpt lat="45.21124" lon="5.73135">
        <ele>659.59997558594</ele>
        <time>2021-11-06T04:55:09.000Z</time>
      </trkpt>
      <trkpt lat="45.21124" lon="5.73136">
        <ele>659.79998779297</ele>
        <time>2021-11-06T04:55:10.000Z</time>
      </trkpt>
      <trkpt lat="45.21123" lon="5.73138">
        <ele>660.20001220703</ele>
        <time>2021-11-06T04:55:12.000Z</time>
      </trkpt>
      <trkpt lat="45.21121" lon="5.73139">
        <ele>660.79998779297</ele>
        <time>2021-11-06T04:55:14.000Z</time>
      </trkpt>
      <trkpt lat="45.2112" lon="5.73139">
        <ele>661</ele>
        <time>2021-11-06T04:55:15.000Z</time>
      </trkpt>
      <trkpt lat="45.21117" lon="5.7314">
        <ele>661.59997558594</ele>
        <time>2021-11-06T04:55:18.000Z</time>
      </trkpt>
      <trkpt lat="45.21117" lon="5.7314">
        <ele>662</ele>
        <time>2021-11-06T04:55:19.000Z</time>
      </trkpt>
      <trkpt lat="45.21116" lon="5.73141">
        <ele>662.20001220703</ele>
        <time>2021-11-06T04:55:20.000Z</time>
      </trkpt>
      <trkpt lat="45.21115" lon="5.73141">
        <ele>662.40002441406</ele>
        <time>2021-11-06T04:55:21.000Z</time>
      </trkpt>
      <trkpt lat="45.21112" lon="5.73143">
        <ele>663.40002441406</ele>
        <time>2021-11-06T04:55:25.000Z</time>
      </trkpt>
      <trkpt lat="45.21111" lon="5.73142">
        <ele>663.59997558594</ele>
        <time>2021-11-06T04:55:26.000Z</time>
      </trkpt>
      <trkpt lat="45.2111" lon="5.73138">
        <ele>664.59997558594</ele>
        <time>2021-11-06T04:55:29.000Z</time>
      </trkpt>
      <trkpt lat="45.21112" lon="5.73135">
        <ele>665</ele>
        <time>2021-11-06T04:55:31.000Z</time>
      </trkpt>
      <trkpt lat="45.21114" lon="5.73134">
        <ele>665.40002441406</ele>
        <time>2021-11-06T04:55:33.000Z</time>
      </trkpt>
      <trkpt lat="45.21114" lon="5.73133">
        <ele>665.79998779297</ele>
        <time>2021-11-06T04:55:34.000Z</time>
      </trkpt>
      <trkpt lat="45.21115" lon="5.73131">
        <ele>666.20001220703</ele>
        <time>2021-11-06T04:55:35.000Z</time>
      </trkpt>
      <trkpt lat="45.21117" lon="5.73129">
        <ele>666.59997558594</ele>
        <time>2021-11-06T04:55:37.000Z</time>
      </trkpt>
      <trkpt lat="45.21119" lon="5.73127">
        <ele>667.20001220703</ele>
        <time>2021-11-06T04:55:39.000Z</time>
      </trkpt>
      <trkpt lat="45.2112" lon="5.73126">
        <ele>667.40002441406</ele>
        <time>2021-11-06T04:55:40.000Z</time>
      </trkpt>
      <trkpt lat="45.21125" lon="5.73124">
        <ele>668.20001220703</ele>
        <time>2021-11-06T04:55:44.000Z</time>
      </trkpt>
      <trkpt lat="45.21127" lon="5.73123">
        <ele>668.59997558594</ele>
        <time>2021-11-06T04:55:45.000Z</time>
      </trkpt>
      <trkpt lat="45.21129" lon="5.73123">
        <ele>669.40002441406</ele>
        <time>2021-11-06T04:55:47.000Z</time>
      </trkpt>
      <trkpt lat="45.21132" lon="5.73122">
        <ele>670.20001220703</ele>
        <time>2021-11-06T04:55:51.000Z</time>
      </trkpt>
      <trkpt lat="45.21132" lon="5.73122">
        <ele>670.40002441406</ele>
        <time>2021-11-06T04:55:52.000Z</time>
      </trkpt>
      <trkpt lat="45.21134" lon="5.73122">
        <ele>670.79998779297</ele>
        <time>2021-11-06T04:55:54.000Z</time>
      </trkpt>
      <trkpt lat="45.21136" lon="5.73122">
        <ele>671.59997558594</ele>
        <time>2021-11-06T04:55:57.000Z</time>
      </trkpt>
      <trkpt lat="45.21137" lon="5.73121">
        <ele>672</ele>
        <time>2021-11-06T04:55:58.000Z</time>
      </trkpt>
      <trkpt lat="45.21139" lon="5.7312">
        <ele>673</ele>
        <time>2021-11-06T04:56:01.000Z</time>
      </trkpt>
      <trkpt lat="45.21141" lon="5.7312">
        <ele>673.40002441406</ele>
        <time>2021-11-06T04:56:02.000Z</time>
      </trkpt>
      <trkpt lat="45.21144" lon="5.73121">
        <ele>673.59997558594</ele>
        <time>2021-11-06T04:56:04.000Z</time>
      </trkpt>
      <trkpt lat="45.21146" lon="5.73122">
        <ele>674</ele>
        <time>2021-11-06T04:56:06.000Z</time>
      </trkpt>
      <trkpt lat="45.21147" lon="5.73123">
        <ele>674.20001220703</ele>
        <time>2021-11-06T04:56:07.000Z</time>
      </trkpt>
      <trkpt lat="45.2115" lon="5.73126">
        <ele>674.59997558594</ele>
        <time>2021-11-06T04:56:09.000Z</time>
      </trkpt>
      <trkpt lat="45.21151" lon="5.73129">
        <ele>674.79998779297</ele>
        <time>2021-11-06T04:56:10.000Z</time>
      </trkpt>
      <trkpt lat="45.21152" lon="5.73131">
        <ele>675.20001220703</ele>
        <time>2021-11-06T04:56:11.000Z</time>
      </trkpt>
      <trkpt lat="45.21155" lon="5.73133">
        <ele>676.20001220703</ele>
        <time>2021-11-06T04:56:15.000Z</time>
      </trkpt>
      <trkpt lat="45.21156" lon="5.73133">
        <ele>676.59997558594</ele>
        <time>2021-11-06T04:56:16.000Z</time>
      </trkpt>
      <trkpt lat="45.21159" lon="5.73135">
        <ele>677.20001220703</ele>
        <time>2021-11-06T04:56:19.000Z</time>
      </trkpt>
      <trkpt lat="45.2116" lon="5.73137">
        <ele>677.79998779297</ele>
        <time>2021-11-06T04:56:21.000Z</time>
      </trkpt>
      <trkpt lat="45.21161" lon="5.73138">
        <ele>677.79998779297</ele>
        <time>2021-11-06T04:56:22.000Z</time>
      </trkpt>
      <trkpt lat="45.21163" lon="5.73142">
        <ele>678.40002441406</ele>
        <time>2021-11-06T04:56:25.000Z</time>
      </trkpt>
      <trkpt lat="45.21166" lon="5.73146">
        <ele>679.40002441406</ele>
        <time>2021-11-06T04:56:28.000Z</time>
      </trkpt>
      <trkpt lat="45.21167" lon="5.73147">
        <ele>679.59997558594</ele>
        <time>2021-11-06T04:56:29.000Z</time>
      </trkpt>
      <trkpt lat="45.21172" lon="5.73151">
        <ele>680.59997558594</ele>
        <time>2021-11-06T04:56:33.000Z</time>
      </trkpt>
      <trkpt lat="45.21173" lon="5.73153">
        <ele>681.20001220703</ele>
        <time>2021-11-06T04:56:35.000Z</time>
      </trkpt>
      <trkpt lat="45.21175" lon="5.73155">
        <ele>681.59997558594</ele>
        <time>2021-11-06T04:56:37.000Z</time>
      </trkpt>
      <trkpt lat="45.21176" lon="5.73156">
        <ele>681.79998779297</ele>
        <time>2021-11-06T04:56:38.000Z</time>
      </trkpt>
      <trkpt lat="45.21179" lon="5.73158">
        <ele>682.79998779297</ele>
        <time>2021-11-06T04:56:41.000Z</time>
      </trkpt>
      <trkpt lat="45.21182" lon="5.73161">
        <ele>683.59997558594</ele>
        <time>2021-11-06T04:56:44.000Z</time>
      </trkpt>
      <trkpt lat="45.21183" lon="5.73162">
        <ele>683.79998779297</ele>
        <time>2021-11-06T04:56:45.000Z</time>
      </trkpt>
      <trkpt lat="45.2119" lon="5.73167">
        <ele>685.20001220703</ele>
        <time>2021-11-06T04:56:50.000Z</time>
      </trkpt>
      <trkpt lat="45.21195" lon="5.73174">
        <ele>686.20001220703</ele>
        <time>2021-11-06T04:56:55.000Z</time>
      </trkpt>
      <trkpt lat="45.21198" lon="5.73178">
        <ele>686.40002441406</ele>
        <time>2021-11-06T04:56:57.000Z</time>
      </trkpt>
      <trkpt lat="45.21202" lon="5.73182">
        <ele>687.40002441406</ele>
        <time>2021-11-06T04:57:01.000Z</time>
      </trkpt>
      <trkpt lat="45.21205" lon="5.73186">
        <ele>688.20001220703</ele>
        <time>2021-11-06T04:57:04.000Z</time>
      </trkpt>
      <trkpt lat="45.21206" lon="5.73187">
        <ele>688.40002441406</ele>
        <time>2021-11-06T04:57:05.000Z</time>
      </trkpt>
      <trkpt lat="45.2121" lon="5.73191">
        <ele>689.40002441406</ele>
        <time>2021-11-06T04:57:09.000Z</time>
      </trkpt>
      <trkpt lat="45.2121" lon="5.73192">
        <ele>689.59997558594</ele>
        <time>2021-11-06T04:57:10.000Z</time>
      </trkpt>
      <trkpt lat="45.21212" lon="5.73193">
        <ele>690.20001220703</ele>
        <time>2021-11-06T04:57:12.000Z</time>
      </trkpt>
      <trkpt lat="45.21214" lon="5.73196">
        <ele>691</ele>
        <time>2021-11-06T04:57:15.000Z</time>
      </trkpt>
      <trkpt lat="45.21219" lon="5.73202">
        <ele>692.20001220703</ele>
        <time>2021-11-06T04:57:20.000Z</time>
      </trkpt>
      <trkpt lat="45.2122" lon="5.73204">
        <ele>692.59997558594</ele>
        <time>2021-11-06T04:57:21.000Z</time>
      </trkpt>
      <trkpt lat="45.21223" lon="5.73206">
        <ele>693.20001220703</ele>
        <time>2021-11-06T04:57:24.000Z</time>
      </trkpt>
      <trkpt lat="45.21228" lon="5.7321">
        <ele>694.20001220703</ele>
        <time>2021-11-06T04:57:28.000Z</time>
      </trkpt>
      <trkpt lat="45.2123" lon="5.73212">
        <ele>694.40002441406</ele>
        <time>2021-11-06T04:57:29.000Z</time>
      </trkpt>
      <trkpt lat="45.21231" lon="5.73212">
        <ele>694.59997558594</ele>
        <time>2021-11-06T04:57:30.000Z</time>
      </trkpt>
      <trkpt lat="45.21237" lon="5.73213">
        <ele>695.79998779297</ele>
        <time>2021-11-06T04:57:34.000Z</time>
      </trkpt>
      <trkpt lat="45.21238" lon="5.73214">
        <ele>696.20001220703</ele>
        <time>2021-11-06T04:57:35.000Z</time>
      </trkpt>
      <trkpt lat="45.21239" lon="5.73215">
        <ele>696.40002441406</ele>
        <time>2021-11-06T04:57:36.000Z</time>
      </trkpt>
      <trkpt lat="45.2124" lon="5.73217">
        <ele>696.79998779297</ele>
        <time>2021-11-06T04:57:38.000Z</time>
      </trkpt>
      <trkpt lat="45.21243" lon="5.73218">
        <ele>697.59997558594</ele>
        <time>2021-11-06T04:57:41.000Z</time>
      </trkpt>
      <trkpt lat="45.21244" lon="5.73218">
        <ele>698</ele>
        <time>2021-11-06T04:57:42.000Z</time>
      </trkpt>
      <trkpt lat="45.21247" lon="5.73222">
        <ele>699.40002441406</ele>
        <time>2021-11-06T04:57:47.000Z</time>
      </trkpt>
      <trkpt lat="45.21248" lon="5.73223">
        <ele>699.79998779297</ele>
        <time>2021-11-06T04:57:48.000Z</time>
      </trkpt>
      <trkpt lat="45.2125" lon="5.73225">
        <ele>700.20001220703</ele>
        <time>2021-11-06T04:57:50.000Z</time>
      </trkpt>
      <trkpt lat="45.21252" lon="5.73228">
        <ele>700.79998779297</ele>
        <time>2021-11-06T04:57:52.000Z</time>
      </trkpt>
      <trkpt lat="45.21252" lon="5.7323">
        <ele>701.20001220703</ele>
        <time>2021-11-06T04:57:53.000Z</time>
      </trkpt>
      <trkpt lat="45.21254" lon="5.73235">
        <ele>701.79998779297</ele>
        <time>2021-11-06T04:57:56.000Z</time>
      </trkpt>
      <trkpt lat="45.21255" lon="5.73239">
        <ele>702.40002441406</ele>
        <time>2021-11-06T04:57:58.000Z</time>
      </trkpt>
      <trkpt lat="45.21255" lon="5.73241">
        <ele>702.59997558594</ele>
        <time>2021-11-06T04:57:59.000Z</time>
      </trkpt>
      <trkpt lat="45.21257" lon="5.73245">
        <ele>703</ele>
        <time>2021-11-06T04:58:01.000Z</time>
      </trkpt>
      <trkpt lat="45.21259" lon="5.73251">
        <ele>703.79998779297</ele>
        <time>2021-11-06T04:58:04.000Z</time>
      </trkpt>
      <trkpt lat="45.21261" lon="5.73253">
        <ele>704.20001220703</ele>
        <time>2021-11-06T04:58:06.000Z</time>
      </trkpt>
      <trkpt lat="45.21263" lon="5.73255">
        <ele>704.79998779297</ele>
        <time>2021-11-06T04:58:08.000Z</time>
      </trkpt>
      <trkpt lat="45.21265" lon="5.73256">
        <ele>705.20001220703</ele>
        <time>2021-11-06T04:58:10.000Z</time>
      </trkpt>
      <trkpt lat="45.2127" lon="5.73258">
        <ele>706.20001220703</ele>
        <time>2021-11-06T04:58:15.000Z</time>
      </trkpt>
      <trkpt lat="45.21271" lon="5.73258">
        <ele>706.59997558594</ele>
        <time>2021-11-06T04:58:16.000Z</time>
      </trkpt>
      <trkpt lat="45.21276" lon="5.73259">
        <ele>707.40002441406</ele>
        <time>2021-11-06T04:58:20.000Z</time>
      </trkpt>
      <trkpt lat="45.21279" lon="5.73262">
        <ele>708.20001220703</ele>
        <time>2021-11-06T04:58:23.000Z</time>
      </trkpt>
      <trkpt lat="45.21281" lon="5.73264">
        <ele>708.40002441406</ele>
        <time>2021-11-06T04:58:25.000Z</time>
      </trkpt>
      <trkpt lat="45.21283" lon="5.73268">
        <ele>708.79998779297</ele>
        <time>2021-11-06T04:58:27.000Z</time>
      </trkpt>
      <trkpt lat="45.21285" lon="5.7327">
        <ele>709.20001220703</ele>
        <time>2021-11-06T04:58:29.000Z</time>
      </trkpt>
      <trkpt lat="45.21286" lon="5.7327">
        <ele>709.20001220703</ele>
        <time>2021-11-06T04:58:30.000Z</time>
      </trkpt>
      <trkpt lat="45.21289" lon="5.73271">
        <ele>709.79998779297</ele>
        <time>2021-11-06T04:58:32.000Z</time>
      </trkpt>
      <trkpt lat="45.21291" lon="5.73271">
        <ele>710.40002441406</ele>
        <time>2021-11-06T04:58:34.000Z</time>
      </trkpt>
      <trkpt lat="45.21292" lon="5.73273">
        <ele>710.79998779297</ele>
        <time>2021-11-06T04:58:36.000Z</time>
      </trkpt>
      <trkpt lat="45.21292" lon="5.73274">
        <ele>711.20001220703</ele>
        <time>2021-11-06T04:58:37.000Z</time>
      </trkpt>
      <trkpt lat="45.21293" lon="5.73276">
        <ele>711.59997558594</ele>
        <time>2021-11-06T04:58:39.000Z</time>
      </trkpt>
      <trkpt lat="45.21294" lon="5.73278">
        <ele>711.79998779297</ele>
        <time>2021-11-06T04:58:40.000Z</time>
      </trkpt>
      <trkpt lat="45.21294" lon="5.73284">
        <ele>712.20001220703</ele>
        <time>2021-11-06T04:58:43.000Z</time>
      </trkpt>
      <trkpt lat="45.21297" lon="5.73289">
        <ele>713</ele>
        <time>2021-11-06T04:58:47.000Z</time>
      </trkpt>
      <trkpt lat="45.21298" lon="5.7329">
        <ele>713.40002441406</ele>
        <time>2021-11-06T04:58:48.000Z</time>
      </trkpt>
      <trkpt lat="45.21299" lon="5.73291">
        <ele>713.59997558594</ele>
        <time>2021-11-06T04:58:49.000Z</time>
      </trkpt>
      <trkpt lat="45.21302" lon="5.73291">
        <ele>714.59997558594</ele>
        <time>2021-11-06T04:58:53.000Z</time>
      </trkpt>
      <trkpt lat="45.21303" lon="5.73291">
        <ele>714.79998779297</ele>
        <time>2021-11-06T04:58:54.000Z</time>
      </trkpt>
      <trkpt lat="45.21309" lon="5.73287">
        <ele>716.20001220703</ele>
        <time>2021-11-06T04:58:59.000Z</time>
      </trkpt>
      <trkpt lat="45.21313" lon="5.73286">
        <ele>717</ele>
        <time>2021-11-06T04:59:03.000Z</time>
      </trkpt>
      <trkpt lat="45.21313" lon="5.73286">
        <ele>717.20001220703</ele>
        <time>2021-11-06T04:59:04.000Z</time>
      </trkpt>
      <trkpt lat="45.21316" lon="5.73286">
        <ele>718</ele>
        <time>2021-11-06T04:59:07.000Z</time>
      </trkpt>
      <trkpt lat="45.21318" lon="5.73286">
        <ele>718.40002441406</ele>
        <time>2021-11-06T04:59:09.000Z</time>
      </trkpt>
      <trkpt lat="45.21323" lon="5.73285">
        <ele>719.40002441406</ele>
        <time>2021-11-06T04:59:13.000Z</time>
      </trkpt>
      <trkpt lat="45.21324" lon="5.73285">
        <ele>719.59997558594</ele>
        <time>2021-11-06T04:59:14.000Z</time>
      </trkpt>
      <trkpt lat="45.21326" lon="5.73286">
        <ele>720.40002441406</ele>
        <time>2021-11-06T04:59:17.000Z</time>
      </trkpt>
      <trkpt lat="45.21327" lon="5.73286">
        <ele>721.20001220703</ele>
        <time>2021-11-06T04:59:19.000Z</time>
      </trkpt>
      <trkpt lat="45.21328" lon="5.73287">
        <ele>721.40002441406</ele>
        <time>2021-11-06T04:59:20.000Z</time>
      </trkpt>
      <trkpt lat="45.21328" lon="5.73288">
        <ele>721.59997558594</ele>
        <time>2021-11-06T04:59:21.000Z</time>
      </trkpt>
      <trkpt lat="45.21333" lon="5.73299">
        <ele>722.40002441406</ele>
        <time>2021-11-06T04:59:27.000Z</time>
      </trkpt>
      <trkpt lat="45.21337" lon="5.73302">
        <ele>722.40002441406</ele>
        <time>2021-11-06T04:59:30.000Z</time>
      </trkpt>
      <trkpt lat="45.21338" lon="5.73305">
        <ele>723</ele>
        <time>2021-11-06T04:59:32.000Z</time>
      </trkpt>
      <trkpt lat="45.21339" lon="5.73306">
        <ele>723.20001220703</ele>
        <time>2021-11-06T04:59:33.000Z</time>
      </trkpt>
      <trkpt lat="45.21342" lon="5.73307">
        <ele>723.40002441406</ele>
        <time>2021-11-06T04:59:35.000Z</time>
      </trkpt>
      <trkpt lat="45.21345" lon="5.73308">
        <ele>723.59997558594</ele>
        <time>2021-11-06T04:59:38.000Z</time>
      </trkpt>
      <trkpt lat="45.21345" lon="5.73309">
        <ele>724.20001220703</ele>
        <time>2021-11-06T04:59:39.000Z</time>
      </trkpt>
      <trkpt lat="45.21349" lon="5.73311">
        <ele>725</ele>
        <time>2021-11-06T04:59:42.000Z</time>
      </trkpt>
      <trkpt lat="45.2135" lon="5.73312">
        <ele>725.40002441406</ele>
        <time>2021-11-06T04:59:43.000Z</time>
      </trkpt>
      <trkpt lat="45.21353" lon="5.73318">
        <ele>726.59997558594</ele>
        <time>2021-11-06T04:59:48.000Z</time>
      </trkpt>
      <trkpt lat="45.21356" lon="5.7332">
        <ele>727.20001220703</ele>
        <time>2021-11-06T04:59:51.000Z</time>
      </trkpt>
      <trkpt lat="45.21359" lon="5.73323">
        <ele>727.79998779297</ele>
        <time>2021-11-06T04:59:54.000Z</time>
      </trkpt>
      <trkpt lat="45.21363" lon="5.73329">
        <ele>728.59997558594</ele>
        <time>2021-11-06T04:59:58.000Z</time>
      </trkpt>
      <trkpt lat="45.21364" lon="5.7333">
        <ele>729</ele>
        <time>2021-11-06T04:59:59.000Z</time>
      </trkpt>
      <trkpt lat="45.21367" lon="5.73333">
        <ele>730.20001220703</ele>
        <time>2021-11-06T05:00:03.000Z</time>
      </trkpt>
      <trkpt lat="45.21368" lon="5.73334">
        <ele>730.40002441406</ele>
        <time>2021-11-06T05:00:04.000Z</time>
      </trkpt>
      <trkpt lat="45.21369" lon="5.73336">
        <ele>731.20001220703</ele>
        <time>2021-11-06T05:00:06.000Z</time>
      </trkpt>
      <trkpt lat="45.2137" lon="5.7334">
        <ele>731.79998779297</ele>
        <time>2021-11-06T05:00:09.000Z</time>
      </trkpt>
      <trkpt lat="45.21375" lon="5.73347">
        <ele>732.59997558594</ele>
        <time>2021-11-06T05:00:15.000Z</time>
      </trkpt>
      <trkpt lat="45.21382" lon="5.73355">
        <ele>733.79998779297</ele>
        <time>2021-11-06T05:00:22.000Z</time>
      </trkpt>
      <trkpt lat="45.21383" lon="5.73355">
        <ele>734.20001220703</ele>
        <time>2021-11-06T05:00:23.000Z</time>
      </trkpt>
      <trkpt lat="45.21387" lon="5.73359">
        <ele>735.20001220703</ele>
        <time>2021-11-06T05:00:26.000Z</time>
      </trkpt>
      <trkpt lat="45.21387" lon="5.73361">
        <ele>735.59997558594</ele>
        <time>2021-11-06T05:00:27.000Z</time>
      </trkpt>
      <trkpt lat="45.21389" lon="5.73366">
        <ele>736</ele>
        <time>2021-11-06T05:00:30.000Z</time>
      </trkpt>
      <trkpt lat="45.21389" lon="5.73368">
        <ele>736.40002441406</ele>
        <time>2021-11-06T05:00:31.000Z</time>
      </trkpt>
      <trkpt lat="45.21391" lon="5.73373">
        <ele>736.79998779297</ele>
        <time>2021-11-06T05:00:33.000Z</time>
      </trkpt>
      <trkpt lat="45.21395" lon="5.73376">
        <ele>737.40002441406</ele>
        <time>2021-11-06T05:00:37.000Z</time>
      </trkpt>
      <trkpt lat="45.21398" lon="5.73378">
        <ele>738.20001220703</ele>
        <time>2021-11-06T05:00:40.000Z</time>
      </trkpt>
      <trkpt lat="45.21401" lon="5.73378">
        <ele>738.79998779297</ele>
        <time>2021-11-06T05:00:42.000Z</time>
      </trkpt>
      <trkpt lat="45.21403" lon="5.7338">
        <ele>739.20001220703</ele>
        <time>2021-11-06T05:00:44.000Z</time>
      </trkpt>
      <trkpt lat="45.21404" lon="5.73381">
        <ele>739.40002441406</ele>
        <time>2021-11-06T05:00:45.000Z</time>
      </trkpt>
      <trkpt lat="45.21405" lon="5.73384">
        <ele>739.79998779297</ele>
        <time>2021-11-06T05:00:47.000Z</time>
      </trkpt>
      <trkpt lat="45.21405" lon="5.73387">
        <ele>740.20001220703</ele>
        <time>2021-11-06T05:00:49.000Z</time>
      </trkpt>
      <trkpt lat="45.21407" lon="5.73395">
        <ele>741.20001220703</ele>
        <time>2021-11-06T05:00:53.000Z</time>
      </trkpt>
      <trkpt lat="45.21409" lon="5.73398">
        <ele>741.59997558594</ele>
        <time>2021-11-06T05:00:56.000Z</time>
      </trkpt>
      <trkpt lat="45.21411" lon="5.73401">
        <ele>742.20001220703</ele>
        <time>2021-11-06T05:00:58.000Z</time>
      </trkpt>
      <trkpt lat="45.21412" lon="5.73404">
        <ele>742.79998779297</ele>
        <time>2021-11-06T05:01:01.000Z</time>
      </trkpt>
      <trkpt lat="45.21413" lon="5.73407">
        <ele>743.40002441406</ele>
        <time>2021-11-06T05:01:03.000Z</time>
      </trkpt>
      <trkpt lat="45.21416" lon="5.73413">
        <ele>744.40002441406</ele>
        <time>2021-11-06T05:01:07.000Z</time>
      </trkpt>
      <trkpt lat="45.21418" lon="5.73416">
        <ele>744.79998779297</ele>
        <time>2021-11-06T05:01:09.000Z</time>
      </trkpt>
      <trkpt lat="45.21418" lon="5.73418">
        <ele>745</ele>
        <time>2021-11-06T05:01:10.000Z</time>
      </trkpt>
      <trkpt lat="45.2142" lon="5.73421">
        <ele>745.59997558594</ele>
        <time>2021-11-06T05:01:12.000Z</time>
      </trkpt>
      <trkpt lat="45.21421" lon="5.73426">
        <ele>746.40002441406</ele>
        <time>2021-11-06T05:01:15.000Z</time>
      </trkpt>
      <trkpt lat="45.21422" lon="5.73428">
        <ele>746.59997558594</ele>
        <time>2021-11-06T05:01:16.000Z</time>
      </trkpt>
      <trkpt lat="45.21428" lon="5.73436">
        <ele>747.79998779297</ele>
        <time>2021-11-06T05:01:22.000Z</time>
      </trkpt>
      <trkpt lat="45.21429" lon="5.73438">
        <ele>748.20001220703</ele>
        <time>2021-11-06T05:01:23.000Z</time>
      </trkpt>
      <trkpt lat="45.2143" lon="5.73439">
        <ele>748.40002441406</ele>
        <time>2021-11-06T05:01:24.000Z</time>
      </trkpt>
      <trkpt lat="45.21431" lon="5.73441">
        <ele>749</ele>
        <time>2021-11-06T05:01:26.000Z</time>
      </trkpt>
      <trkpt lat="45.21433" lon="5.73444">
        <ele>750</ele>
        <time>2021-11-06T05:01:29.000Z</time>
      </trkpt>
      <trkpt lat="45.21434" lon="5.73447">
        <ele>750.59997558594</ele>
        <time>2021-11-06T05:01:31.000Z</time>
      </trkpt>
      <trkpt lat="45.21435" lon="5.7345">
        <ele>751.40002441406</ele>
        <time>2021-11-06T05:01:33.000Z</time>
      </trkpt>
      <trkpt lat="45.21436" lon="5.73454">
        <ele>751.79998779297</ele>
        <time>2021-11-06T05:01:35.000Z</time>
      </trkpt>
      <trkpt lat="45.21437" lon="5.73461">
        <ele>752.20001220703</ele>
        <time>2021-11-06T05:01:37.000Z</time>
      </trkpt>
      <trkpt lat="45.21438" lon="5.73464">
        <ele>752.40002441406</ele>
        <time>2021-11-06T05:01:39.000Z</time>
      </trkpt>
      <trkpt lat="45.2144" lon="5.73466">
        <ele>752.79998779297</ele>
        <time>2021-11-06T05:01:41.000Z</time>
      </trkpt>
      <trkpt lat="45.21441" lon="5.7347">
        <ele>753.59997558594</ele>
        <time>2021-11-06T05:01:44.000Z</time>
      </trkpt>
      <trkpt lat="45.21443" lon="5.73472">
        <ele>754.20001220703</ele>
        <time>2021-11-06T05:01:47.000Z</time>
      </trkpt>
      <trkpt lat="45.21444" lon="5.73473">
        <ele>754.59997558594</ele>
        <time>2021-11-06T05:01:48.000Z</time>
      </trkpt>
      <trkpt lat="45.21446" lon="5.73475">
        <ele>755</ele>
        <time>2021-11-06T05:01:50.000Z</time>
      </trkpt>
      <trkpt lat="45.21446" lon="5.73476">
        <ele>755.20001220703</ele>
        <time>2021-11-06T05:01:51.000Z</time>
      </trkpt>
      <trkpt lat="45.21448" lon="5.73478">
        <ele>755.79998779297</ele>
        <time>2021-11-06T05:01:53.000Z</time>
      </trkpt>
      <trkpt lat="45.21449" lon="5.73479">
        <ele>756</ele>
        <time>2021-11-06T05:01:54.000Z</time>
      </trkpt>
      <trkpt lat="45.21451" lon="5.7348">
        <ele>756.40002441406</ele>
        <time>2021-11-06T05:01:56.000Z</time>
      </trkpt>
      <trkpt lat="45.21453" lon="5.73482">
        <ele>757</ele>
        <time>2021-11-06T05:01:58.000Z</time>
      </trkpt>
      <trkpt lat="45.21458" lon="5.73487">
        <ele>758</ele>
        <time>2021-11-06T05:02:03.000Z</time>
      </trkpt>
      <trkpt lat="45.21461" lon="5.73491">
        <ele>759</ele>
        <time>2021-11-06T05:02:06.000Z</time>
      </trkpt>
      <trkpt lat="45.21461" lon="5.73492">
        <ele>759.40002441406</ele>
        <time>2021-11-06T05:02:07.000Z</time>
      </trkpt>
      <trkpt lat="45.21463" lon="5.73499">
        <ele>760.20001220703</ele>
        <time>2021-11-06T05:02:10.000Z</time>
      </trkpt>
      <trkpt lat="45.21463" lon="5.73503">
        <ele>760.79998779297</ele>
        <time>2021-11-06T05:02:13.000Z</time>
      </trkpt>
      <trkpt lat="45.21464" lon="5.73506">
        <ele>761.20001220703</ele>
        <time>2021-11-06T05:02:15.000Z</time>
      </trkpt>
      <trkpt lat="45.21466" lon="5.73512">
        <ele>762.20001220703</ele>
        <time>2021-11-06T05:02:19.000Z</time>
      </trkpt>
      <trkpt lat="45.21465" lon="5.73515">
        <ele>762.59997558594</ele>
        <time>2021-11-06T05:02:21.000Z</time>
      </trkpt>
      <trkpt lat="45.21465" lon="5.73516">
        <ele>763.40002441406</ele>
        <time>2021-11-06T05:02:23.000Z</time>
      </trkpt>
      <trkpt lat="45.21466" lon="5.73518">
        <ele>763.79998779297</ele>
        <time>2021-11-06T05:02:25.000Z</time>
      </trkpt>
      <trkpt lat="45.21467" lon="5.73521">
        <ele>764.40002441406</ele>
        <time>2021-11-06T05:02:28.000Z</time>
      </trkpt>
      <trkpt lat="45.21467" lon="5.73523">
        <ele>764.40002441406</ele>
        <time>2021-11-06T05:02:29.000Z</time>
      </trkpt>
      <trkpt lat="45.21468" lon="5.73524">
        <ele>764.59997558594</ele>
        <time>2021-11-06T05:02:30.000Z</time>
      </trkpt>
      <trkpt lat="45.2147" lon="5.73528">
        <ele>765.20001220703</ele>
        <time>2021-11-06T05:02:32.000Z</time>
      </trkpt>
      <trkpt lat="45.21472" lon="5.7353">
        <ele>765.40002441406</ele>
        <time>2021-11-06T05:02:34.000Z</time>
      </trkpt>
      <trkpt lat="45.21473" lon="5.73531">
        <ele>765.59997558594</ele>
        <time>2021-11-06T05:02:35.000Z</time>
      </trkpt>
      <trkpt lat="45.21476" lon="5.73538">
        <ele>766.59997558594</ele>
        <time>2021-11-06T05:02:40.000Z</time>
      </trkpt>
      <trkpt lat="45.21476" lon="5.73539">
        <ele>767</ele>
        <time>2021-11-06T05:02:41.000Z</time>
      </trkpt>
      <trkpt lat="45.21477" lon="5.73543">
        <ele>767.59997558594</ele>
        <time>2021-11-06T05:02:44.000Z</time>
      </trkpt>
      <trkpt lat="45.21478" lon="5.73543">
        <ele>767.59997558594</ele>
        <time>2021-11-06T05:02:45.000Z</time>
      </trkpt>
      <trkpt lat="45.2148" lon="5.73546">
        <ele>768.20001220703</ele>
        <time>2021-11-06T05:02:48.000Z</time>
      </trkpt>
      <trkpt lat="45.21481" lon="5.73548">
        <ele>768.59997558594</ele>
        <time>2021-11-06T05:02:50.000Z</time>
      </trkpt>
      <trkpt lat="45.21484" lon="5.73548">
        <ele>769</ele>
        <time>2021-11-06T05:02:52.000Z</time>
      </trkpt>
      <trkpt lat="45.21487" lon="5.7355">
        <ele>769.40002441406</ele>
        <time>2021-11-06T05:02:55.000Z</time>
      </trkpt>
      <trkpt lat="45.21488" lon="5.73551">
        <ele>769.59997558594</ele>
        <time>2021-11-06T05:02:56.000Z</time>
      </trkpt>
      <trkpt lat="45.21493" lon="5.73554">
        <ele>770.59997558594</ele>
        <time>2021-11-06T05:03:01.000Z</time>
      </trkpt>
      <trkpt lat="45.21494" lon="5.73555">
        <ele>770.79998779297</ele>
        <time>2021-11-06T05:03:02.000Z</time>
      </trkpt>
      <trkpt lat="45.215" lon="5.73558">
        <ele>771.79998779297</ele>
        <time>2021-11-06T05:03:07.000Z</time>
      </trkpt>
      <trkpt lat="45.21501" lon="5.73559">
        <ele>772.20001220703</ele>
        <time>2021-11-06T05:03:08.000Z</time>
      </trkpt>
      <trkpt lat="45.21504" lon="5.73564">
        <ele>773</ele>
        <time>2021-11-06T05:03:12.000Z</time>
      </trkpt>
      <trkpt lat="45.21504" lon="5.73567">
        <ele>773.59997558594</ele>
        <time>2021-11-06T05:03:14.000Z</time>
      </trkpt>
      <trkpt lat="45.21504" lon="5.73569">
        <ele>773.79998779297</ele>
        <time>2021-11-06T05:03:15.000Z</time>
      </trkpt>
      <trkpt lat="45.21504" lon="5.73573">
        <ele>774</ele>
        <time>2021-11-06T05:03:17.000Z</time>
      </trkpt>
      <trkpt lat="45.21504" lon="5.73575">
        <ele>774.40002441406</ele>
        <time>2021-11-06T05:03:18.000Z</time>
      </trkpt>
      <trkpt lat="45.21506" lon="5.73582">
        <ele>775.59997558594</ele>
        <time>2021-11-06T05:03:22.000Z</time>
      </trkpt>
      <trkpt lat="45.21506" lon="5.73585">
        <ele>776.20001220703</ele>
        <time>2021-11-06T05:03:24.000Z</time>
      </trkpt>
      <trkpt lat="45.21505" lon="5.73589">
        <ele>776.79998779297</ele>
        <time>2021-11-06T05:03:26.000Z</time>
      </trkpt>
      <trkpt lat="45.21506" lon="5.73591">
        <ele>777</ele>
        <time>2021-11-06T05:03:27.000Z</time>
      </trkpt>
      <trkpt lat="45.21507" lon="5.73592">
        <ele>777</ele>
        <time>2021-11-06T05:03:28.000Z</time>
      </trkpt>
      <trkpt lat="45.21509" lon="5.73596">
        <ele>778</ele>
        <time>2021-11-06T05:03:31.000Z</time>
      </trkpt>
      <trkpt lat="45.21511" lon="5.73597">
        <ele>778.40002441406</ele>
        <time>2021-11-06T05:03:33.000Z</time>
      </trkpt>
      <trkpt lat="45.21511" lon="5.73597">
        <ele>778.59997558594</ele>
        <time>2021-11-06T05:03:34.000Z</time>
      </trkpt>
      <trkpt lat="45.21511" lon="5.73597">
        <ele>778.59997558594</ele>
        <time>2021-11-06T05:03:35.000Z</time>
      </trkpt>
      <trkpt lat="45.21511" lon="5.73596">
        <ele>779</ele>
        <time>2021-11-06T05:03:36.000Z</time>
      </trkpt>
      <trkpt lat="45.2151" lon="5.73594">
        <ele>779.40002441406</ele>
        <time>2021-11-06T05:03:37.000Z</time>
      </trkpt>
      <trkpt lat="45.2151" lon="5.73588">
        <ele>780.59997558594</ele>
        <time>2021-11-06T05:03:41.000Z</time>
      </trkpt>
      <trkpt lat="45.21513" lon="5.73579">
        <ele>781.79998779297</ele>
        <time>2021-11-06T05:03:47.000Z</time>
      </trkpt>
      <trkpt lat="45.21514" lon="5.73577">
        <ele>782.40002441406</ele>
        <time>2021-11-06T05:03:50.000Z</time>
      </trkpt>
      <trkpt lat="45.21514" lon="5.73578">
        <ele>783.20001220703</ele>
        <time>2021-11-06T05:03:53.000Z</time>
      </trkpt>
      <trkpt lat="45.21515" lon="5.7358">
        <ele>783.79998779297</ele>
        <time>2021-11-06T05:03:55.000Z</time>
      </trkpt>
      <trkpt lat="45.21515" lon="5.73585">
        <ele>784.20001220703</ele>
        <time>2021-11-06T05:03:57.000Z</time>
      </trkpt>
      <trkpt lat="45.21517" lon="5.73591">
        <ele>784.79998779297</ele>
        <time>2021-11-06T05:04:01.000Z</time>
      </trkpt>
      <trkpt lat="45.21518" lon="5.73592">
        <ele>785</ele>
        <time>2021-11-06T05:04:02.000Z</time>
      </trkpt>
      <trkpt lat="45.21519" lon="5.73593">
        <ele>785.20001220703</ele>
        <time>2021-11-06T05:04:03.000Z</time>
      </trkpt>
      <trkpt lat="45.2152" lon="5.73594">
        <ele>785.59997558594</ele>
        <time>2021-11-06T05:04:05.000Z</time>
      </trkpt>
      <trkpt lat="45.21522" lon="5.73597">
        <ele>786.20001220703</ele>
        <time>2021-11-06T05:04:08.000Z</time>
      </trkpt>
      <trkpt lat="45.21524" lon="5.736">
        <ele>786.59997558594</ele>
        <time>2021-11-06T05:04:10.000Z</time>
      </trkpt>
      <trkpt lat="45.21525" lon="5.73602">
        <ele>787</ele>
        <time>2021-11-06T05:04:12.000Z</time>
      </trkpt>
      <trkpt lat="45.21527" lon="5.73603">
        <ele>787.20001220703</ele>
        <time>2021-11-06T05:04:14.000Z</time>
      </trkpt>
      <trkpt lat="45.21528" lon="5.73604">
        <ele>787.40002441406</ele>
        <time>2021-11-06T05:04:15.000Z</time>
      </trkpt>
      <trkpt lat="45.21532" lon="5.7361">
        <ele>788.40002441406</ele>
        <time>2021-11-06T05:04:21.000Z</time>
      </trkpt>
      <trkpt lat="45.21533" lon="5.73612">
        <ele>788.79998779297</ele>
        <time>2021-11-06T05:04:22.000Z</time>
      </trkpt>
      <trkpt lat="45.21537" lon="5.73617">
        <ele>789.40002441406</ele>
        <time>2021-11-06T05:04:26.000Z</time>
      </trkpt>
      <trkpt lat="45.21538" lon="5.73618">
        <ele>789.79998779297</ele>
        <time>2021-11-06T05:04:28.000Z</time>
      </trkpt>
      <trkpt lat="45.21538" lon="5.73618">
        <ele>790</ele>
        <time>2021-11-06T05:04:29.000Z</time>
      </trkpt>
      <trkpt lat="45.21538" lon="5.73616">
        <ele>790.79998779297</ele>
        <time>2021-11-06T05:04:31.000Z</time>
      </trkpt>
      <trkpt lat="45.21537" lon="5.73613">
        <ele>791.20001220703</ele>
        <time>2021-11-06T05:04:33.000Z</time>
      </trkpt>
      <trkpt lat="45.21537" lon="5.73611">
        <ele>791.59997558594</ele>
        <time>2021-11-06T05:04:35.000Z</time>
      </trkpt>
      <trkpt lat="45.21537" lon="5.7361">
        <ele>791.79998779297</ele>
        <time>2021-11-06T05:04:36.000Z</time>
      </trkpt>
      <trkpt lat="45.21535" lon="5.73604">
        <ele>792.79998779297</ele>
        <time>2021-11-06T05:04:41.000Z</time>
      </trkpt>
      <trkpt lat="45.21535" lon="5.73602">
        <ele>793.20001220703</ele>
        <time>2021-11-06T05:04:42.000Z</time>
      </trkpt>
      <trkpt lat="45.21534" lon="5.73599">
        <ele>793.59997558594</ele>
        <time>2021-11-06T05:04:45.000Z</time>
      </trkpt>
      <trkpt lat="45.21534" lon="5.73596">
        <ele>794</ele>
        <time>2021-11-06T05:04:47.000Z</time>
      </trkpt>
      <trkpt lat="45.21537" lon="5.73596">
        <ele>795</ele>
        <time>2021-11-06T05:04:51.000Z</time>
      </trkpt>
      <trkpt lat="45.2154" lon="5.73599">
        <ele>795.79998779297</ele>
        <time>2021-11-06T05:04:54.000Z</time>
      </trkpt>
      <trkpt lat="45.21541" lon="5.73601">
        <ele>796</ele>
        <time>2021-11-06T05:04:56.000Z</time>
      </trkpt>
      <trkpt lat="45.21543" lon="5.73604">
        <ele>796.59997558594</ele>
        <time>2021-11-06T05:04:59.000Z</time>
      </trkpt>
      <trkpt lat="45.21544" lon="5.73606">
        <ele>797.20001220703</ele>
        <time>2021-11-06T05:05:02.000Z</time>
      </trkpt>
      <trkpt lat="45.21544" lon="5.73606">
        <ele>797.59997558594</ele>
        <time>2021-11-06T05:05:03.000Z</time>
      </trkpt>
      <trkpt lat="45.21544" lon="5.73605">
        <ele>797.79998779297</ele>
        <time>2021-11-06T05:05:04.000Z</time>
      </trkpt>
      <trkpt lat="45.21543" lon="5.73603">
        <ele>798.20001220703</ele>
        <time>2021-11-06T05:05:06.000Z</time>
      </trkpt>
      <trkpt lat="45.21543" lon="5.73596">
        <ele>798.79998779297</ele>
        <time>2021-11-06T05:05:11.000Z</time>
      </trkpt>
      <trkpt lat="45.21542" lon="5.73595">
        <ele>799.20001220703</ele>
        <time>2021-11-06T05:05:12.000Z</time>
      </trkpt>
      <trkpt lat="45.21542" lon="5.73594">
        <ele>799.40002441406</ele>
        <time>2021-11-06T05:05:13.000Z</time>
      </trkpt>
      <trkpt lat="45.21541" lon="5.73593">
        <ele>799.59997558594</ele>
        <time>2021-11-06T05:05:14.000Z</time>
      </trkpt>
      <trkpt lat="45.21541" lon="5.7359">
        <ele>800</ele>
        <time>2021-11-06T05:05:16.000Z</time>
      </trkpt>
      <trkpt lat="45.2154" lon="5.73587">
        <ele>800.79998779297</ele>
        <time>2021-11-06T05:05:18.000Z</time>
      </trkpt>
      <trkpt lat="45.2154" lon="5.73586">
        <ele>801</ele>
        <time>2021-11-06T05:05:19.000Z</time>
      </trkpt>
      <trkpt lat="45.2154" lon="5.73583">
        <ele>801.20001220703</ele>
        <time>2021-11-06T05:05:21.000Z</time>
      </trkpt>
      <trkpt lat="45.21538" lon="5.7358">
        <ele>801.59997558594</ele>
        <time>2021-11-06T05:05:23.000Z</time>
      </trkpt>
      <trkpt lat="45.21538" lon="5.73578">
        <ele>802</ele>
        <time>2021-11-06T05:05:24.000Z</time>
      </trkpt>
      <trkpt lat="45.21536" lon="5.73572">
        <ele>802.59997558594</ele>
        <time>2021-11-06T05:05:29.000Z</time>
      </trkpt>
      <trkpt lat="45.21536" lon="5.7357">
        <ele>803</ele>
        <time>2021-11-06T05:05:30.000Z</time>
      </trkpt>
      <trkpt lat="45.21536" lon="5.73566">
        <ele>804</ele>
        <time>2021-11-06T05:05:33.000Z</time>
      </trkpt>
      <trkpt lat="45.21536" lon="5.73564">
        <ele>804.20001220703</ele>
        <time>2021-11-06T05:05:34.000Z</time>
      </trkpt>
      <trkpt lat="45.21536" lon="5.73563">
        <ele>804.20001220703</ele>
        <time>2021-11-06T05:05:35.000Z</time>
      </trkpt>
      <trkpt lat="45.21536" lon="5.73562">
        <ele>804.40002441406</ele>
        <time>2021-11-06T05:05:36.000Z</time>
      </trkpt>
      <trkpt lat="45.21537" lon="5.73558">
        <ele>805</ele>
        <time>2021-11-06T05:05:38.000Z</time>
      </trkpt>
      <trkpt lat="45.21537" lon="5.73557">
        <ele>805.40002441406</ele>
        <time>2021-11-06T05:05:39.000Z</time>
      </trkpt>
      <trkpt lat="45.21537" lon="5.73555">
        <ele>805.40002441406</ele>
        <time>2021-11-06T05:05:40.000Z</time>
      </trkpt>
      <trkpt lat="45.21536" lon="5.73552">
        <ele>805.79998779297</ele>
        <time>2021-11-06T05:05:42.000Z</time>
      </trkpt>
      <trkpt lat="45.21536" lon="5.73549">
        <ele>806.40002441406</ele>
        <time>2021-11-06T05:05:44.000Z</time>
      </trkpt>
      <trkpt lat="45.21536" lon="5.73546">
        <ele>806.59997558594</ele>
        <time>2021-11-06T05:05:46.000Z</time>
      </trkpt>
      <trkpt lat="45.21538" lon="5.73546">
        <ele>807</ele>
        <time>2021-11-06T05:05:48.000Z</time>
      </trkpt>
      <trkpt lat="45.21538" lon="5.73548">
        <ele>807.79998779297</ele>
        <time>2021-11-06T05:05:50.000Z</time>
      </trkpt>
      <trkpt lat="45.21539" lon="5.73551">
        <ele>808.79998779297</ele>
        <time>2021-11-06T05:05:54.000Z</time>
      </trkpt>
      <trkpt lat="45.21541" lon="5.73553">
        <ele>809</ele>
        <time>2021-11-06T05:05:56.000Z</time>
      </trkpt>
      <trkpt lat="45.21542" lon="5.73557">
        <ele>809.79998779297</ele>
        <time>2021-11-06T05:05:58.000Z</time>
      </trkpt>
      <trkpt lat="45.21544" lon="5.73559">
        <ele>810.20001220703</ele>
        <time>2021-11-06T05:06:00.000Z</time>
      </trkpt>
      <trkpt lat="45.21545" lon="5.7356">
        <ele>810.40002441406</ele>
        <time>2021-11-06T05:06:01.000Z</time>
      </trkpt>
      <trkpt lat="45.21548" lon="5.73563">
        <ele>811.40002441406</ele>
        <time>2021-11-06T05:06:05.000Z</time>
      </trkpt>
      <trkpt lat="45.21552" lon="5.73566">
        <ele>812</ele>
        <time>2021-11-06T05:06:09.000Z</time>
      </trkpt>
      <trkpt lat="45.21552" lon="5.73568">
        <ele>812.40002441406</ele>
        <time>2021-11-06T05:06:10.000Z</time>
      </trkpt>
      <trkpt lat="45.21553" lon="5.73569">
        <ele>812.59997558594</ele>
        <time>2021-11-06T05:06:11.000Z</time>
      </trkpt>
      <trkpt lat="45.21556" lon="5.73573">
        <ele>813.40002441406</ele>
        <time>2021-11-06T05:06:15.000Z</time>
      </trkpt>
      <trkpt lat="45.21557" lon="5.73575">
        <ele>814</ele>
        <time>2021-11-06T05:06:17.000Z</time>
      </trkpt>
      <trkpt lat="45.2156" lon="5.73581">
        <ele>814.79998779297</ele>
        <time>2021-11-06T05:06:21.000Z</time>
      </trkpt>
      <trkpt lat="45.2156" lon="5.73582">
        <ele>815</ele>
        <time>2021-11-06T05:06:22.000Z</time>
      </trkpt>
      <trkpt lat="45.21565" lon="5.7359">
        <ele>816.20001220703</ele>
        <time>2021-11-06T05:06:28.000Z</time>
      </trkpt>
      <trkpt lat="45.21564" lon="5.73589">
        <ele>817</ele>
        <time>2021-11-06T05:06:30.000Z</time>
      </trkpt>
      <trkpt lat="45.21564" lon="5.73588">
        <ele>817.20001220703</ele>
        <time>2021-11-06T05:06:31.000Z</time>
      </trkpt>
      <trkpt lat="45.21563" lon="5.73587">
        <ele>817.40002441406</ele>
        <time>2021-11-06T05:06:32.000Z</time>
      </trkpt>
      <trkpt lat="45.21561" lon="5.73585">
        <ele>817.59997558594</ele>
        <time>2021-11-06T05:06:35.000Z</time>
      </trkpt>
      <trkpt lat="45.2156" lon="5.73581">
        <ele>818.40002441406</ele>
        <time>2021-11-06T05:06:37.000Z</time>
      </trkpt>
      <trkpt lat="45.21561" lon="5.73576">
        <ele>819</ele>
        <time>2021-11-06T05:06:40.000Z</time>
      </trkpt>
      <trkpt lat="45.2156" lon="5.73575">
        <ele>819.20001220703</ele>
        <time>2021-11-06T05:06:41.000Z</time>
      </trkpt>
      <trkpt lat="45.2156" lon="5.73572">
        <ele>819.59997558594</ele>
        <time>2021-11-06T05:06:43.000Z</time>
      </trkpt>
      <trkpt lat="45.21559" lon="5.73571">
        <ele>820</ele>
        <time>2021-11-06T05:06:44.000Z</time>
      </trkpt>
      <trkpt lat="45.21559" lon="5.73568">
        <ele>820.40002441406</ele>
        <time>2021-11-06T05:06:46.000Z</time>
      </trkpt>
      <trkpt lat="45.21557" lon="5.73563">
        <ele>821</ele>
        <time>2021-11-06T05:06:49.000Z</time>
      </trkpt>
      <trkpt lat="45.21555" lon="5.73554">
        <ele>822.20001220703</ele>
        <time>2021-11-06T05:06:55.000Z</time>
      </trkpt>
      <trkpt lat="45.21554" lon="5.73545">
        <ele>823.40002441406</ele>
        <time>2021-11-06T05:07:00.000Z</time>
      </trkpt>
      <trkpt lat="45.21554" lon="5.73544">
        <ele>823.59997558594</ele>
        <time>2021-11-06T05:07:01.000Z</time>
      </trkpt>
      <trkpt lat="45.21554" lon="5.73541">
        <ele>824</ele>
        <time>2021-11-06T05:07:03.000Z</time>
      </trkpt>
      <trkpt lat="45.21554" lon="5.73537">
        <ele>824.40002441406</ele>
        <time>2021-11-06T05:07:05.000Z</time>
      </trkpt>
      <trkpt lat="45.21555" lon="5.73534">
        <ele>825</ele>
        <time>2021-11-06T05:07:07.000Z</time>
      </trkpt>
      <trkpt lat="45.21555" lon="5.7353">
        <ele>825.59997558594</ele>
        <time>2021-11-06T05:07:10.000Z</time>
      </trkpt>
      <trkpt lat="45.21556" lon="5.73519">
        <ele>826.59997558594</ele>
        <time>2021-11-06T05:07:16.000Z</time>
      </trkpt>
      <trkpt lat="45.21556" lon="5.73514">
        <ele>827.59997558594</ele>
        <time>2021-11-06T05:07:19.000Z</time>
      </trkpt>
      <trkpt lat="45.21555" lon="5.73513">
        <ele>827.79998779297</ele>
        <time>2021-11-06T05:07:20.000Z</time>
      </trkpt>
      <trkpt lat="45.21555" lon="5.73509">
        <ele>828.20001220703</ele>
        <time>2021-11-06T05:07:22.000Z</time>
      </trkpt>
      <trkpt lat="45.21554" lon="5.73506">
        <ele>828.59997558594</ele>
        <time>2021-11-06T05:07:25.000Z</time>
      </trkpt>
      <trkpt lat="45.21554" lon="5.73505">
        <ele>828.79998779297</ele>
        <time>2021-11-06T05:07:27.000Z</time>
      </trkpt>
      <trkpt lat="45.21553" lon="5.73502">
        <ele>829.20001220703</ele>
        <time>2021-11-06T05:07:29.000Z</time>
      </trkpt>
      <trkpt lat="45.21552" lon="5.73499">
        <ele>830</ele>
        <time>2021-11-06T05:07:32.000Z</time>
      </trkpt>
      <trkpt lat="45.21551" lon="5.73494">
        <ele>830.79998779297</ele>
        <time>2021-11-06T05:07:36.000Z</time>
      </trkpt>
      <trkpt lat="45.2155" lon="5.73494">
        <ele>831</ele>
        <time>2021-11-06T05:07:38.000Z</time>
      </trkpt>
      <trkpt lat="45.21545" lon="5.7349">
        <ele>831.59997558594</ele>
        <time>2021-11-06T05:07:43.000Z</time>
      </trkpt>
      <trkpt lat="45.21543" lon="5.7349">
        <ele>831.79998779297</ele>
        <time>2021-11-06T05:07:44.000Z</time>
      </trkpt>
      <trkpt lat="45.21542" lon="5.73489">
        <ele>832</ele>
        <time>2021-11-06T05:07:45.000Z</time>
      </trkpt>
      <trkpt lat="45.21538" lon="5.73484">
        <ele>832.79998779297</ele>
        <time>2021-11-06T05:07:49.000Z</time>
      </trkpt>
      <trkpt lat="45.21537" lon="5.73483">
        <ele>833.20001220703</ele>
        <time>2021-11-06T05:07:50.000Z</time>
      </trkpt>
      <trkpt lat="45.21536" lon="5.73482">
        <ele>833.20001220703</ele>
        <time>2021-11-06T05:07:51.000Z</time>
      </trkpt>
      <trkpt lat="45.21535" lon="5.73478">
        <ele>833.59997558594</ele>
        <time>2021-11-06T05:07:53.000Z</time>
      </trkpt>
      <trkpt lat="45.21536" lon="5.73476">
        <ele>834.40002441406</ele>
        <time>2021-11-06T05:07:55.000Z</time>
      </trkpt>
      <trkpt lat="45.21537" lon="5.73476">
        <ele>834.59997558594</ele>
        <time>2021-11-06T05:07:56.000Z</time>
      </trkpt>
      <trkpt lat="45.21538" lon="5.73476">
        <ele>834.79998779297</ele>
        <time>2021-11-06T05:07:57.000Z</time>
      </trkpt>
      <trkpt lat="45.2154" lon="5.73478">
        <ele>835.40002441406</ele>
        <time>2021-11-06T05:07:59.000Z</time>
      </trkpt>
      <trkpt lat="45.21542" lon="5.73478">
        <ele>835.59997558594</ele>
        <time>2021-11-06T05:08:00.000Z</time>
      </trkpt>
      <trkpt lat="45.21544" lon="5.73478">
        <ele>836</ele>
        <time>2021-11-06T05:08:02.000Z</time>
      </trkpt>
      <trkpt lat="45.21547" lon="5.73479">
        <ele>836.40002441406</ele>
        <time>2021-11-06T05:08:05.000Z</time>
      </trkpt>
      <trkpt lat="45.21549" lon="5.73479">
        <ele>837.20001220703</ele>
        <time>2021-11-06T05:08:07.000Z</time>
      </trkpt>
      <trkpt lat="45.21549" lon="5.73479">
        <ele>837.40002441406</ele>
        <time>2021-11-06T05:08:08.000Z</time>
      </trkpt>
      <trkpt lat="45.2155" lon="5.73479">
        <ele>837.59997558594</ele>
        <time>2021-11-06T05:08:09.000Z</time>
      </trkpt>
      <trkpt lat="45.21556" lon="5.73478">
        <ele>838.40002441406</ele>
        <time>2021-11-06T05:08:13.000Z</time>
      </trkpt>
      <trkpt lat="45.21557" lon="5.73478">
        <ele>838.59997558594</ele>
        <time>2021-11-06T05:08:14.000Z</time>
      </trkpt>
      <trkpt lat="45.21562" lon="5.7348">
        <ele>839.59997558594</ele>
        <time>2021-11-06T05:08:18.000Z</time>
      </trkpt>
      <trkpt lat="45.21565" lon="5.73485">
        <ele>840.40002441406</ele>
        <time>2021-11-06T05:08:22.000Z</time>
      </trkpt>
      <trkpt lat="45.21566" lon="5.73487">
        <ele>840.59997558594</ele>
        <time>2021-11-06T05:08:23.000Z</time>
      </trkpt>
      <trkpt lat="45.21567" lon="5.73487">
        <ele>840.59997558594</ele>
        <time>2021-11-06T05:08:24.000Z</time>
      </trkpt>
      <trkpt lat="45.21568" lon="5.73489">
        <ele>841</ele>
        <time>2021-11-06T05:08:26.000Z</time>
      </trkpt>
      <trkpt lat="45.2157" lon="5.7349">
        <ele>841.59997558594</ele>
        <time>2021-11-06T05:08:28.000Z</time>
      </trkpt>
      <trkpt lat="45.21572" lon="5.73492">
        <ele>842</ele>
        <time>2021-11-06T05:08:30.000Z</time>
      </trkpt>
      <trkpt lat="45.21575" lon="5.73497">
        <ele>842.59997558594</ele>
        <time>2021-11-06T05:08:34.000Z</time>
      </trkpt>
      <trkpt lat="45.21577" lon="5.73501">
        <ele>843.59997558594</ele>
        <time>2021-11-06T05:08:37.000Z</time>
      </trkpt>
      <trkpt lat="45.21577" lon="5.73503">
        <ele>843.59997558594</ele>
        <time>2021-11-06T05:08:38.000Z</time>
      </trkpt>
      <trkpt lat="45.21579" lon="5.73508">
        <ele>844.59997558594</ele>
        <time>2021-11-06T05:08:41.000Z</time>
      </trkpt>
      <trkpt lat="45.2158" lon="5.73509">
        <ele>844.79998779297</ele>
        <time>2021-11-06T05:08:42.000Z</time>
      </trkpt>
      <trkpt lat="45.2158" lon="5.7351">
        <ele>844.79998779297</ele>
        <time>2021-11-06T05:08:43.000Z</time>
      </trkpt>
      <trkpt lat="45.2158" lon="5.73511">
        <ele>845.20001220703</ele>
        <time>2021-11-06T05:08:44.000Z</time>
      </trkpt>
      <trkpt lat="45.21582" lon="5.73514">
        <ele>845.79998779297</ele>
        <time>2021-11-06T05:08:46.000Z</time>
      </trkpt>
      <trkpt lat="45.21585" lon="5.73521">
        <ele>846.79998779297</ele>
        <time>2021-11-06T05:08:51.000Z</time>
      </trkpt>
      <trkpt lat="45.21585" lon="5.73523">
        <ele>847</ele>
        <time>2021-11-06T05:08:52.000Z</time>
      </trkpt>
      <trkpt lat="45.21586" lon="5.73524">
        <ele>847.40002441406</ele>
        <time>2021-11-06T05:08:53.000Z</time>
      </trkpt>
      <trkpt lat="45.2159" lon="5.73526">
        <ele>848</ele>
        <time>2021-11-06T05:08:56.000Z</time>
      </trkpt>
      <trkpt lat="45.21591" lon="5.73529">
        <ele>848.20001220703</ele>
        <time>2021-11-06T05:08:58.000Z</time>
      </trkpt>
      <trkpt lat="45.21593" lon="5.73534">
        <ele>849.20001220703</ele>
        <time>2021-11-06T05:09:01.000Z</time>
      </trkpt>
      <trkpt lat="45.21598" lon="5.73539">
        <ele>850.40002441406</ele>
        <time>2021-11-06T05:09:06.000Z</time>
      </trkpt>
      <trkpt lat="45.21599" lon="5.7354">
        <ele>850.59997558594</ele>
        <time>2021-11-06T05:09:07.000Z</time>
      </trkpt>
      <trkpt lat="45.21603" lon="5.73545">
        <ele>851.79998779297</ele>
        <time>2021-11-06T05:09:11.000Z</time>
      </trkpt>
      <trkpt lat="45.21606" lon="5.7355">
        <ele>852.20001220703</ele>
        <time>2021-11-06T05:09:15.000Z</time>
      </trkpt>
      <trkpt lat="45.21608" lon="5.73552">
        <ele>852.79998779297</ele>
        <time>2021-11-06T05:09:17.000Z</time>
      </trkpt>
      <trkpt lat="45.21612" lon="5.7356">
        <ele>854.20001220703</ele>
        <time>2021-11-06T05:09:23.000Z</time>
      </trkpt>
      <trkpt lat="45.21616" lon="5.73564">
        <ele>855</ele>
        <time>2021-11-06T05:09:27.000Z</time>
      </trkpt>
      <trkpt lat="45.21617" lon="5.73565">
        <ele>855.20001220703</ele>
        <time>2021-11-06T05:09:28.000Z</time>
      </trkpt>
      <trkpt lat="45.21618" lon="5.73568">
        <ele>855.79998779297</ele>
        <time>2021-11-06T05:09:30.000Z</time>
      </trkpt>
      <trkpt lat="45.21619" lon="5.73569">
        <ele>856.20001220703</ele>
        <time>2021-11-06T05:09:31.000Z</time>
      </trkpt>
      <trkpt lat="45.2162" lon="5.7357">
        <ele>856.40002441406</ele>
        <time>2021-11-06T05:09:32.000Z</time>
      </trkpt>
      <trkpt lat="45.21622" lon="5.73573">
        <ele>857</ele>
        <time>2021-11-06T05:09:35.000Z</time>
      </trkpt>
      <trkpt lat="45.21623" lon="5.73574">
        <ele>857.40002441406</ele>
        <time>2021-11-06T05:09:36.000Z</time>
      </trkpt>
      <trkpt lat="45.21624" lon="5.73575">
        <ele>857.59997558594</ele>
        <time>2021-11-06T05:09:37.000Z</time>
      </trkpt>
      <trkpt lat="45.21627" lon="5.73577">
        <ele>858.79998779297</ele>
        <time>2021-11-06T05:09:41.000Z</time>
      </trkpt>
      <trkpt lat="45.21627" lon="5.73577">
        <ele>859.20001220703</ele>
        <time>2021-11-06T05:09:42.000Z</time>
      </trkpt>
      <trkpt lat="45.21626" lon="5.73576">
        <ele>859.40002441406</ele>
        <time>2021-11-06T05:09:43.000Z</time>
      </trkpt>
      <trkpt lat="45.21626" lon="5.73576">
        <ele>860</ele>
        <time>2021-11-06T05:09:44.000Z</time>
      </trkpt>
      <trkpt lat="45.21625" lon="5.73574">
        <ele>860.59997558594</ele>
        <time>2021-11-06T05:09:46.000Z</time>
      </trkpt>
      <trkpt lat="45.21624" lon="5.73573">
        <ele>861</ele>
        <time>2021-11-06T05:09:48.000Z</time>
      </trkpt>
      <trkpt lat="45.21624" lon="5.73572">
        <ele>861</ele>
        <time>2021-11-06T05:09:49.000Z</time>
      </trkpt>
      <trkpt lat="45.21622" lon="5.73566">
        <ele>862</ele>
        <time>2021-11-06T05:09:54.000Z</time>
      </trkpt>
      <trkpt lat="45.21621" lon="5.73564">
        <ele>862.40002441406</ele>
        <time>2021-11-06T05:09:56.000Z</time>
      </trkpt>
      <trkpt lat="45.2162" lon="5.73558">
        <ele>863.20001220703</ele>
        <time>2021-11-06T05:10:00.000Z</time>
      </trkpt>
      <trkpt lat="45.21619" lon="5.73556">
        <ele>863.79998779297</ele>
        <time>2021-11-06T05:10:02.000Z</time>
      </trkpt>
      <trkpt lat="45.21617" lon="5.73551">
        <ele>864.20001220703</ele>
        <time>2021-11-06T05:10:05.000Z</time>
      </trkpt>
      <trkpt lat="45.21615" lon="5.73546">
        <ele>865.20001220703</ele>
        <time>2021-11-06T05:10:09.000Z</time>
      </trkpt>
      <trkpt lat="45.21615" lon="5.73545">
        <ele>865.40002441406</ele>
        <time>2021-11-06T05:10:10.000Z</time>
      </trkpt>
      <trkpt lat="45.21614" lon="5.73542">
        <ele>865.59997558594</ele>
        <time>2021-11-06T05:10:12.000Z</time>
      </trkpt>
      <trkpt lat="45.21614" lon="5.73541">
        <ele>866</ele>
        <time>2021-11-06T05:10:13.000Z</time>
      </trkpt>
      <trkpt lat="45.21614" lon="5.73539">
        <ele>866.20001220703</ele>
        <time>2021-11-06T05:10:14.000Z</time>
      </trkpt>
      <trkpt lat="45.21613" lon="5.73538">
        <ele>866.40002441406</ele>
        <time>2021-11-06T05:10:15.000Z</time>
      </trkpt>
      <trkpt lat="45.21612" lon="5.73533">
        <ele>866.79998779297</ele>
        <time>2021-11-06T05:10:18.000Z</time>
      </trkpt>
      <trkpt lat="45.21614" lon="5.73533">
        <ele>867.59997558594</ele>
        <time>2021-11-06T05:10:21.000Z</time>
      </trkpt>
      <trkpt lat="45.21615" lon="5.73534">
        <ele>868</ele>
        <time>2021-11-06T05:10:22.000Z</time>
      </trkpt>
      <trkpt lat="45.21617" lon="5.73537">
        <ele>868.79998779297</ele>
        <time>2021-11-06T05:10:25.000Z</time>
      </trkpt>
      <trkpt lat="45.2162" lon="5.73541">
        <ele>869.79998779297</ele>
        <time>2021-11-06T05:10:28.000Z</time>
      </trkpt>
      <trkpt lat="45.2162" lon="5.73542">
        <ele>869.79998779297</ele>
        <time>2021-11-06T05:10:29.000Z</time>
      </trkpt>
      <trkpt lat="45.21622" lon="5.73542">
        <ele>870</ele>
        <time>2021-11-06T05:10:30.000Z</time>
      </trkpt>
      <trkpt lat="45.21624" lon="5.73545">
        <ele>870.79998779297</ele>
        <time>2021-11-06T05:10:33.000Z</time>
      </trkpt>
      <trkpt lat="45.21625" lon="5.73546">
        <ele>870.79998779297</ele>
        <time>2021-11-06T05:10:34.000Z</time>
      </trkpt>
      <trkpt lat="45.21625" lon="5.73547">
        <ele>871.20001220703</ele>
        <time>2021-11-06T05:10:35.000Z</time>
      </trkpt>
      <trkpt lat="45.21629" lon="5.73552">
        <ele>872.20001220703</ele>
        <time>2021-11-06T05:10:40.000Z</time>
      </trkpt>
      <trkpt lat="45.21631" lon="5.73553">
        <ele>872.59997558594</ele>
        <time>2021-11-06T05:10:42.000Z</time>
      </trkpt>
      <trkpt lat="45.21633" lon="5.73555">
        <ele>873.40002441406</ele>
        <time>2021-11-06T05:10:44.000Z</time>
      </trkpt>
      <trkpt lat="45.21637" lon="5.73558">
        <ele>874</ele>
        <time>2021-11-06T05:10:48.000Z</time>
      </trkpt>
      <trkpt lat="45.21638" lon="5.73559">
        <ele>874.59997558594</ele>
        <time>2021-11-06T05:10:49.000Z</time>
      </trkpt>
      <trkpt lat="45.21643" lon="5.7356">
        <ele>875.59997558594</ele>
        <time>2021-11-06T05:10:53.000Z</time>
      </trkpt>
      <trkpt lat="45.21647" lon="5.73561">
        <ele>876.40002441406</ele>
        <time>2021-11-06T05:10:57.000Z</time>
      </trkpt>
      <trkpt lat="45.21649" lon="5.73561">
        <ele>876.79998779297</ele>
        <time>2021-11-06T05:11:00.000Z</time>
      </trkpt>
      <trkpt lat="45.21651" lon="5.7356">
        <ele>877.20001220703</ele>
        <time>2021-11-06T05:11:02.000Z</time>
      </trkpt>
      <trkpt lat="45.21652" lon="5.73559">
        <ele>877.40002441406</ele>
        <time>2021-11-06T05:11:03.000Z</time>
      </trkpt>
      <trkpt lat="45.21653" lon="5.73558">
        <ele>877.79998779297</ele>
        <time>2021-11-06T05:11:05.000Z</time>
      </trkpt>
      <trkpt lat="45.21657" lon="5.73557">
        <ele>878.59997558594</ele>
        <time>2021-11-06T05:11:09.000Z</time>
      </trkpt>
      <trkpt lat="45.21659" lon="5.73556">
        <ele>879</ele>
        <time>2021-11-06T05:11:11.000Z</time>
      </trkpt>
      <trkpt lat="45.21664" lon="5.73555">
        <ele>880</ele>
        <time>2021-11-06T05:11:16.000Z</time>
      </trkpt>
      <trkpt lat="45.21665" lon="5.73555">
        <ele>880.20001220703</ele>
        <time>2021-11-06T05:11:17.000Z</time>
      </trkpt>
      <trkpt lat="45.21666" lon="5.73555">
        <ele>880.40002441406</ele>
        <time>2021-11-06T05:11:18.000Z</time>
      </trkpt>
      <trkpt lat="45.21668" lon="5.73554">
        <ele>881.20001220703</ele>
        <time>2021-11-06T05:11:20.000Z</time>
      </trkpt>
      <trkpt lat="45.21669" lon="5.73554">
        <ele>881.40002441406</ele>
        <time>2021-11-06T05:11:21.000Z</time>
      </trkpt>
      <trkpt lat="45.21674" lon="5.73555">
        <ele>882</ele>
        <time>2021-11-06T05:11:25.000Z</time>
      </trkpt>
      <trkpt lat="45.21675" lon="5.73556">
        <ele>882.40002441406</ele>
        <time>2021-11-06T05:11:26.000Z</time>
      </trkpt>
      <trkpt lat="45.21685" lon="5.73558">
        <ele>882.79998779297</ele>
        <time>2021-11-06T05:11:32.000Z</time>
      </trkpt>
      <trkpt lat="45.2169" lon="5.73559">
        <ele>883.40002441406</ele>
        <time>2021-11-06T05:11:35.000Z</time>
      </trkpt>
      <trkpt lat="45.21693" lon="5.73559">
        <ele>884.59997558594</ele>
        <time>2021-11-06T05:11:38.000Z</time>
      </trkpt>
      <trkpt lat="45.21695" lon="5.7356">
        <ele>884.79998779297</ele>
        <time>2021-11-06T05:11:39.000Z</time>
      </trkpt>
      <trkpt lat="45.217" lon="5.73561">
        <ele>885.59997558594</ele>
        <time>2021-11-06T05:11:42.000Z</time>
      </trkpt>
      <trkpt lat="45.21702" lon="5.73562">
        <ele>886</ele>
        <time>2021-11-06T05:11:44.000Z</time>
      </trkpt>
      <trkpt lat="45.21702" lon="5.73563">
        <ele>886.20001220703</ele>
        <time>2021-11-06T05:11:45.000Z</time>
      </trkpt>
      <trkpt lat="45.21702" lon="5.73564">
        <ele>886.79998779297</ele>
        <time>2021-11-06T05:11:47.000Z</time>
      </trkpt>
      <trkpt lat="45.21702" lon="5.73565">
        <ele>887.40002441406</ele>
        <time>2021-11-06T05:11:50.000Z</time>
      </trkpt>
      <trkpt lat="45.21701" lon="5.73565">
        <ele>887.40002441406</ele>
        <time>2021-11-06T05:11:51.000Z</time>
      </trkpt>
      <trkpt lat="45.217" lon="5.73563">
        <ele>887.79998779297</ele>
        <time>2021-11-06T05:11:53.000Z</time>
      </trkpt>
      <trkpt lat="45.21699" lon="5.73562">
        <ele>888.40002441406</ele>
        <time>2021-11-06T05:11:55.000Z</time>
      </trkpt>
      <trkpt lat="45.21697" lon="5.7356">
        <ele>888.79998779297</ele>
        <time>2021-11-06T05:11:57.000Z</time>
      </trkpt>
      <trkpt lat="45.21697" lon="5.7356">
        <ele>889</ele>
        <time>2021-11-06T05:11:58.000Z</time>
      </trkpt>
      <trkpt lat="45.21696" lon="5.73558">
        <ele>889</ele>
        <time>2021-11-06T05:11:59.000Z</time>
      </trkpt>
      <trkpt lat="45.21695" lon="5.73557">
        <ele>889.20001220703</ele>
        <time>2021-11-06T05:12:00.000Z</time>
      </trkpt>
      <trkpt lat="45.21691" lon="5.73554">
        <ele>890.20001220703</ele>
        <time>2021-11-06T05:12:04.000Z</time>
      </trkpt>
      <trkpt lat="45.21687" lon="5.73551">
        <ele>891.20001220703</ele>
        <time>2021-11-06T05:12:08.000Z</time>
      </trkpt>
      <trkpt lat="45.21685" lon="5.73548">
        <ele>891.59997558594</ele>
        <time>2021-11-06T05:12:11.000Z</time>
      </trkpt>
      <trkpt lat="45.21684" lon="5.73549">
        <ele>891.79998779297</ele>
        <time>2021-11-06T05:12:12.000Z</time>
      </trkpt>
      <trkpt lat="45.21682" lon="5.73549">
        <ele>892.20001220703</ele>
        <time>2021-11-06T05:12:14.000Z</time>
      </trkpt>
      <trkpt lat="45.21682" lon="5.73548">
        <ele>892.40002441406</ele>
        <time>2021-11-06T05:12:15.000Z</time>
      </trkpt>
      <trkpt lat="45.2168" lon="5.73546">
        <ele>892.59997558594</ele>
        <time>2021-11-06T05:12:17.000Z</time>
      </trkpt>
      <trkpt lat="45.2168" lon="5.73546">
        <ele>893</ele>
        <time>2021-11-06T05:12:18.000Z</time>
      </trkpt>
      <trkpt lat="45.21678" lon="5.73545">
        <ele>893.40002441406</ele>
        <time>2021-11-06T05:12:20.000Z</time>
      </trkpt>
      <trkpt lat="45.21674" lon="5.73544">
        <ele>894</ele>
        <time>2021-11-06T05:12:24.000Z</time>
      </trkpt>
      <trkpt lat="45.21671" lon="5.73543">
        <ele>894.59997558594</ele>
        <time>2021-11-06T05:12:26.000Z</time>
      </trkpt>
      <trkpt lat="45.21668" lon="5.7354">
        <ele>895.20001220703</ele>
        <time>2021-11-06T05:12:30.000Z</time>
      </trkpt>
      <trkpt lat="45.21667" lon="5.7354">
        <ele>895.59997558594</ele>
        <time>2021-11-06T05:12:31.000Z</time>
      </trkpt>
      <trkpt lat="45.21665" lon="5.73538">
        <ele>896.20001220703</ele>
        <time>2021-11-06T05:12:33.000Z</time>
      </trkpt>
      <trkpt lat="45.21666" lon="5.73537">
        <ele>896.59997558594</ele>
        <time>2021-11-06T05:12:34.000Z</time>
      </trkpt>
      <trkpt lat="45.21667" lon="5.73536">
        <ele>896.79998779297</ele>
        <time>2021-11-06T05:12:35.000Z</time>
      </trkpt>
      <trkpt lat="45.21668" lon="5.73535">
        <ele>897.79998779297</ele>
        <time>2021-11-06T05:12:38.000Z</time>
      </trkpt>
      <trkpt lat="45.21669" lon="5.73535">
        <ele>898</ele>
        <time>2021-11-06T05:12:39.000Z</time>
      </trkpt>
      <trkpt lat="45.21671" lon="5.73535">
        <ele>898.40002441406</ele>
        <time>2021-11-06T05:12:41.000Z</time>
      </trkpt>
      <trkpt lat="45.21674" lon="5.73533">
        <ele>899</ele>
        <time>2021-11-06T05:12:44.000Z</time>
      </trkpt>
      <trkpt lat="45.21679" lon="5.73531">
        <ele>900</ele>
        <time>2021-11-06T05:12:49.000Z</time>
      </trkpt>
      <trkpt lat="45.21682" lon="5.7353">
        <ele>900.79998779297</ele>
        <time>2021-11-06T05:12:51.000Z</time>
      </trkpt>
      <trkpt lat="45.21684" lon="5.7353">
        <ele>901</ele>
        <time>2021-11-06T05:12:53.000Z</time>
      </trkpt>
      <trkpt lat="45.21685" lon="5.73531">
        <ele>901.20001220703</ele>
        <time>2021-11-06T05:12:54.000Z</time>
      </trkpt>
      <trkpt lat="45.2169" lon="5.73532">
        <ele>902.20001220703</ele>
        <time>2021-11-06T05:12:59.000Z</time>
      </trkpt>
      <trkpt lat="45.21692" lon="5.73531">
        <ele>902.40002441406</ele>
        <time>2021-11-06T05:13:01.000Z</time>
      </trkpt>
      <trkpt lat="45.21696" lon="5.73529">
        <ele>903</ele>
        <time>2021-11-06T05:13:05.000Z</time>
      </trkpt>
      <trkpt lat="45.21698" lon="5.73529">
        <ele>903.40002441406</ele>
        <time>2021-11-06T05:13:06.000Z</time>
      </trkpt>
      <trkpt lat="45.21702" lon="5.73528">
        <ele>904.40002441406</ele>
        <time>2021-11-06T05:13:10.000Z</time>
      </trkpt>
      <trkpt lat="45.21703" lon="5.73528">
        <ele>904.79998779297</ele>
        <time>2021-11-06T05:13:11.000Z</time>
      </trkpt>
      <trkpt lat="45.21707" lon="5.73529">
        <ele>905.79998779297</ele>
        <time>2021-11-06T05:13:16.000Z</time>
      </trkpt>
      <trkpt lat="45.21709" lon="5.7353">
        <ele>906.20001220703</ele>
        <time>2021-11-06T05:13:17.000Z</time>
      </trkpt>
      <trkpt lat="45.21712" lon="5.7353">
        <ele>906.79998779297</ele>
        <time>2021-11-06T05:13:20.000Z</time>
      </trkpt>
      <trkpt lat="45.21715" lon="5.73533">
        <ele>907.59997558594</ele>
        <time>2021-11-06T05:13:23.000Z</time>
      </trkpt>
      <trkpt lat="45.21716" lon="5.73534">
        <ele>908</ele>
        <time>2021-11-06T05:13:24.000Z</time>
      </trkpt>
      <trkpt lat="45.21719" lon="5.73542">
        <ele>908.59997558594</ele>
        <time>2021-11-06T05:13:28.000Z</time>
      </trkpt>
      <trkpt lat="45.2172" lon="5.73542">
        <ele>908.59997558594</ele>
        <time>2021-11-06T05:13:29.000Z</time>
      </trkpt>
      <trkpt lat="45.21723" lon="5.73544">
        <ele>908.79998779297</ele>
        <time>2021-11-06T05:13:31.000Z</time>
      </trkpt>
      <trkpt lat="45.21728" lon="5.73542">
        <ele>908.79998779297</ele>
        <time>2021-11-06T05:13:35.000Z</time>
      </trkpt>
      <trkpt lat="45.21742" lon="5.73539">
        <ele>909</ele>
        <time>2021-11-06T05:13:42.000Z</time>
      </trkpt>
      <trkpt lat="45.21744" lon="5.73538">
        <ele>909</ele>
        <time>2021-11-06T05:13:43.000Z</time>
      </trkpt>
      <trkpt lat="45.21746" lon="5.73541">
        <ele>908.79998779297</ele>
        <time>2021-11-06T05:13:45.000Z</time>
      </trkpt>
      <trkpt lat="45.21748" lon="5.73543">
        <ele>908.59997558594</ele>
        <time>2021-11-06T05:13:47.000Z</time>
      </trkpt>
      <trkpt lat="45.21754" lon="5.73546">
        <ele>907.79998779297</ele>
        <time>2021-11-06T05:13:51.000Z</time>
      </trkpt>
      <trkpt lat="45.21756" lon="5.73547">
        <ele>907.40002441406</ele>
        <time>2021-11-06T05:13:53.000Z</time>
      </trkpt>
      <trkpt lat="45.2176" lon="5.73549">
        <ele>906.59997558594</ele>
        <time>2021-11-06T05:13:56.000Z</time>
      </trkpt>
      <trkpt lat="45.21765" lon="5.73553">
        <ele>905.59997558594</ele>
        <time>2021-11-06T05:14:00.000Z</time>
      </trkpt>
      <trkpt lat="45.21768" lon="5.73554">
        <ele>905.40002441406</ele>
        <time>2021-11-06T05:14:02.000Z</time>
      </trkpt>
      <trkpt lat="45.21772" lon="5.73558">
        <ele>905.20001220703</ele>
        <time>2021-11-06T05:14:05.000Z</time>
      </trkpt>
      <trkpt lat="45.21779" lon="5.73565">
        <ele>905</ele>
        <time>2021-11-06T05:14:09.000Z</time>
      </trkpt>
      <trkpt lat="45.21781" lon="5.73567">
        <ele>904.79998779297</ele>
        <time>2021-11-06T05:14:10.000Z</time>
      </trkpt>
      <trkpt lat="45.21782" lon="5.73573">
        <ele>904.40002441406</ele>
        <time>2021-11-06T05:14:12.000Z</time>
      </trkpt>
      <trkpt lat="45.21787" lon="5.7358">
        <ele>904.20001220703</ele>
        <time>2021-11-06T05:14:15.000Z</time>
      </trkpt>
      <trkpt lat="45.21794" lon="5.73588">
        <ele>903.79998779297</ele>
        <time>2021-11-06T05:14:20.000Z</time>
      </trkpt>
      <trkpt lat="45.21796" lon="5.73589">
        <ele>903.79998779297</ele>
        <time>2021-11-06T05:14:21.000Z</time>
      </trkpt>
      <trkpt lat="45.21802" lon="5.73592">
        <ele>904</ele>
        <time>2021-11-06T05:14:24.000Z</time>
      </trkpt>
      <trkpt lat="45.21806" lon="5.73594">
        <ele>904.40002441406</ele>
        <time>2021-11-06T05:14:26.000Z</time>
      </trkpt>
      <trkpt lat="45.21809" lon="5.73596">
        <ele>904.79998779297</ele>
        <time>2021-11-06T05:14:28.000Z</time>
      </trkpt>
      <trkpt lat="45.21814" lon="5.73601">
        <ele>905</ele>
        <time>2021-11-06T05:14:32.000Z</time>
      </trkpt>
      <trkpt lat="45.21818" lon="5.73608">
        <ele>905.40002441406</ele>
        <time>2021-11-06T05:14:35.000Z</time>
      </trkpt>
      <trkpt lat="45.21823" lon="5.73613">
        <ele>905.59997558594</ele>
        <time>2021-11-06T05:14:37.000Z</time>
      </trkpt>
      <trkpt lat="45.21832" lon="5.73621">
        <ele>906.59997558594</ele>
        <time>2021-11-06T05:14:42.000Z</time>
      </trkpt>
      <trkpt lat="45.21833" lon="5.73622">
        <ele>906.79998779297</ele>
        <time>2021-11-06T05:14:43.000Z</time>
      </trkpt>
      <trkpt lat="45.21839" lon="5.7363">
        <ele>907.40002441406</ele>
        <time>2021-11-06T05:14:48.000Z</time>
      </trkpt>
      <trkpt lat="45.21843" lon="5.7364">
        <ele>907</ele>
        <time>2021-11-06T05:14:52.000Z</time>
      </trkpt>
      <trkpt lat="45.21848" lon="5.73645">
        <ele>906.79998779297</ele>
        <time>2021-11-06T05:14:54.000Z</time>
      </trkpt>
      <trkpt lat="45.21858" lon="5.73657">
        <ele>906</ele>
        <time>2021-11-06T05:15:00.000Z</time>
      </trkpt>
      <trkpt lat="45.21868" lon="5.73671">
        <ele>906.20001220703</ele>
        <time>2021-11-06T05:15:06.000Z</time>
      </trkpt>
      <trkpt lat="45.21874" lon="5.73675">
        <ele>906.20001220703</ele>
        <time>2021-11-06T05:15:09.000Z</time>
      </trkpt>
      <trkpt lat="45.21877" lon="5.73678">
        <ele>906.40002441406</ele>
        <time>2021-11-06T05:15:11.000Z</time>
      </trkpt>
      <trkpt lat="45.21884" lon="5.73688">
        <ele>907</ele>
        <time>2021-11-06T05:15:16.000Z</time>
      </trkpt>
      <trkpt lat="45.21895" lon="5.73698">
        <ele>905.79998779297</ele>
        <time>2021-11-06T05:15:23.000Z</time>
      </trkpt>
      <trkpt lat="45.21897" lon="5.73699">
        <ele>905.40002441406</ele>
        <time>2021-11-06T05:15:24.000Z</time>
      </trkpt>
      <trkpt lat="45.21903" lon="5.737">
        <ele>904.20001220703</ele>
        <time>2021-11-06T05:15:29.000Z</time>
      </trkpt>
      <trkpt lat="45.21906" lon="5.73701">
        <ele>903.40002441406</ele>
        <time>2021-11-06T05:15:31.000Z</time>
      </trkpt>
      <trkpt lat="45.21907" lon="5.73702">
        <ele>903</ele>
        <time>2021-11-06T05:15:32.000Z</time>
      </trkpt>
      <trkpt lat="45.21911" lon="5.73703">
        <ele>902.20001220703</ele>
        <time>2021-11-06T05:15:34.000Z</time>
      </trkpt>
      <trkpt lat="45.21915" lon="5.73704">
        <ele>901.59997558594</ele>
        <time>2021-11-06T05:15:36.000Z</time>
      </trkpt>
      <trkpt lat="45.21916" lon="5.73704">
        <ele>901.20001220703</ele>
        <time>2021-11-06T05:15:37.000Z</time>
      </trkpt>
      <trkpt lat="45.21919" lon="5.73705">
        <ele>900.59997558594</ele>
        <time>2021-11-06T05:15:39.000Z</time>
      </trkpt>
      <trkpt lat="45.21926" lon="5.73709">
        <ele>898.79998779297</ele>
        <time>2021-11-06T05:15:43.000Z</time>
      </trkpt>
      <trkpt lat="45.21929" lon="5.73712">
        <ele>897.79998779297</ele>
        <time>2021-11-06T05:15:45.000Z</time>
      </trkpt>
      <trkpt lat="45.21933" lon="5.73715">
        <ele>897</ele>
        <time>2021-11-06T05:15:47.000Z</time>
      </trkpt>
      <trkpt lat="45.21936" lon="5.73718">
        <ele>896.59997558594</ele>
        <time>2021-11-06T05:15:49.000Z</time>
      </trkpt>
      <trkpt lat="45.21939" lon="5.73722">
        <ele>896</ele>
        <time>2021-11-06T05:15:51.000Z</time>
      </trkpt>
      <trkpt lat="45.21941" lon="5.73725">
        <ele>895.40002441406</ele>
        <time>2021-11-06T05:15:53.000Z</time>
      </trkpt>
      <trkpt lat="45.21944" lon="5.73729">
        <ele>894.59997558594</ele>
        <time>2021-11-06T05:15:56.000Z</time>
      </trkpt>
      <trkpt lat="45.21945" lon="5.73732">
        <ele>894</ele>
        <time>2021-11-06T05:15:57.000Z</time>
      </trkpt>
      <trkpt lat="45.21949" lon="5.73739">
        <ele>893</ele>
        <time>2021-11-06T05:16:00.000Z</time>
      </trkpt>
      <trkpt lat="45.21953" lon="5.73747">
        <ele>892.40002441406</ele>
        <time>2021-11-06T05:16:03.000Z</time>
      </trkpt>
      <trkpt lat="45.2196" lon="5.73762">
        <ele>892</ele>
        <time>2021-11-06T05:16:08.000Z</time>
      </trkpt>
      <trkpt lat="45.21961" lon="5.73765">
        <ele>891.79998779297</ele>
        <time>2021-11-06T05:16:09.000Z</time>
      </trkpt>
      <trkpt lat="45.21966" lon="5.73776">
        <ele>890.79998779297</ele>
        <time>2021-11-06T05:16:13.000Z</time>
      </trkpt>
      <trkpt lat="45.21968" lon="5.7378">
        <ele>890.40002441406</ele>
        <time>2021-11-06T05:16:15.000Z</time>
      </trkpt>
      <trkpt lat="45.21972" lon="5.73788">
        <ele>889.59997558594</ele>
        <time>2021-11-06T05:16:18.000Z</time>
      </trkpt>
      <trkpt lat="45.21977" lon="5.73797">
        <ele>888.59997558594</ele>
        <time>2021-11-06T05:16:22.000Z</time>
      </trkpt>
      <trkpt lat="45.21978" lon="5.73798">
        <ele>888.40002441406</ele>
        <time>2021-11-06T05:16:23.000Z</time>
      </trkpt>
      <trkpt lat="45.21982" lon="5.73802">
        <ele>887.40002441406</ele>
        <time>2021-11-06T05:16:27.000Z</time>
      </trkpt>
      <trkpt lat="45.21985" lon="5.73805">
        <ele>886.59997558594</ele>
        <time>2021-11-06T05:16:29.000Z</time>
      </trkpt>
      <trkpt lat="45.21986" lon="5.73806">
        <ele>886.40002441406</ele>
        <time>2021-11-06T05:16:30.000Z</time>
      </trkpt>
      <trkpt lat="45.21992" lon="5.73812">
        <ele>885.59997558594</ele>
        <time>2021-11-06T05:16:33.000Z</time>
      </trkpt>
      <trkpt lat="45.21994" lon="5.73813">
        <ele>885</ele>
        <time>2021-11-06T05:16:34.000Z</time>
      </trkpt>
      <trkpt lat="45.21995" lon="5.73814">
        <ele>884.59997558594</ele>
        <time>2021-11-06T05:16:35.000Z</time>
      </trkpt>
      <trkpt lat="45.21997" lon="5.73815">
        <ele>884.40002441406</ele>
        <time>2021-11-06T05:16:36.000Z</time>
      </trkpt>
      <trkpt lat="45.22" lon="5.73818">
        <ele>883.79998779297</ele>
        <time>2021-11-06T05:16:38.000Z</time>
      </trkpt>
      <trkpt lat="45.22007" lon="5.73821">
        <ele>882.59997558594</ele>
        <time>2021-11-06T05:16:41.000Z</time>
      </trkpt>
      <trkpt lat="45.2202" lon="5.73826">
        <ele>881.40002441406</ele>
        <time>2021-11-06T05:16:49.000Z</time>
      </trkpt>
      <trkpt lat="45.22021" lon="5.73827">
        <ele>881.20001220703</ele>
        <time>2021-11-06T05:16:50.000Z</time>
      </trkpt>
      <trkpt lat="45.2203" lon="5.73831">
        <ele>880.40002441406</ele>
        <time>2021-11-06T05:16:54.000Z</time>
      </trkpt>
      <trkpt lat="45.22034" lon="5.73834">
        <ele>880</ele>
        <time>2021-11-06T05:16:56.000Z</time>
      </trkpt>
      <trkpt lat="45.22045" lon="5.73843">
        <ele>879.20001220703</ele>
        <time>2021-11-06T05:17:01.000Z</time>
      </trkpt>
      <trkpt lat="45.22049" lon="5.73847">
        <ele>878.40002441406</ele>
        <time>2021-11-06T05:17:04.000Z</time>
      </trkpt>
      <trkpt lat="45.22052" lon="5.7385">
        <ele>878.20001220703</ele>
        <time>2021-11-06T05:17:06.000Z</time>
      </trkpt>
      <trkpt lat="45.22063" lon="5.73854">
        <ele>877.59997558594</ele>
        <time>2021-11-06T05:17:11.000Z</time>
      </trkpt>
      <trkpt lat="45.2208" lon="5.73862">
        <ele>877.40002441406</ele>
        <time>2021-11-06T05:17:18.000Z</time>
      </trkpt>
      <trkpt lat="45.22095" lon="5.73871">
        <ele>878</ele>
        <time>2021-11-06T05:17:25.000Z</time>
      </trkpt>
      <trkpt lat="45.22096" lon="5.73873">
        <ele>878.20001220703</ele>
        <time>2021-11-06T05:17:26.000Z</time>
      </trkpt>
      <trkpt lat="45.22104" lon="5.73879">
        <ele>879</ele>
        <time>2021-11-06T05:17:30.000Z</time>
      </trkpt>
      <trkpt lat="45.22105" lon="5.7388">
        <ele>879.40002441406</ele>
        <time>2021-11-06T05:17:31.000Z</time>
      </trkpt>
      <trkpt lat="45.2211" lon="5.73882">
        <ele>880</ele>
        <time>2021-11-06T05:17:34.000Z</time>
      </trkpt>
      <trkpt lat="45.22114" lon="5.73883">
        <ele>880.40002441406</ele>
        <time>2021-11-06T05:17:36.000Z</time>
      </trkpt>
      <trkpt lat="45.22115" lon="5.73883">
        <ele>880.40002441406</ele>
        <time>2021-11-06T05:17:37.000Z</time>
      </trkpt>
      <trkpt lat="45.22122" lon="5.73888">
        <ele>881.59997558594</ele>
        <time>2021-11-06T05:17:42.000Z</time>
      </trkpt>
      <trkpt lat="45.22123" lon="5.73889">
        <ele>881.79998779297</ele>
        <time>2021-11-06T05:17:43.000Z</time>
      </trkpt>
      <trkpt lat="45.22132" lon="5.73893">
        <ele>882.59997558594</ele>
        <time>2021-11-06T05:17:49.000Z</time>
      </trkpt>
      <trkpt lat="45.22134" lon="5.73893">
        <ele>882.79998779297</ele>
        <time>2021-11-06T05:17:50.000Z</time>
      </trkpt>
      <trkpt lat="45.2214" lon="5.73896">
        <ele>883.40002441406</ele>
        <time>2021-11-06T05:17:53.000Z</time>
      </trkpt>
      <trkpt lat="45.22143" lon="5.73897">
        <ele>883.79998779297</ele>
        <time>2021-11-06T05:17:55.000Z</time>
      </trkpt>
      <trkpt lat="45.22147" lon="5.73897">
        <ele>884.20001220703</ele>
        <time>2021-11-06T05:17:57.000Z</time>
      </trkpt>
      <trkpt lat="45.22154" lon="5.739">
        <ele>885.20001220703</ele>
        <time>2021-11-06T05:18:01.000Z</time>
      </trkpt>
      <trkpt lat="45.22155" lon="5.739">
        <ele>885.40002441406</ele>
        <time>2021-11-06T05:18:02.000Z</time>
      </trkpt>
      <trkpt lat="45.22162" lon="5.73905">
        <ele>886</ele>
        <time>2021-11-06T05:18:05.000Z</time>
      </trkpt>
      <trkpt lat="45.22165" lon="5.73906">
        <ele>886.20001220703</ele>
        <time>2021-11-06T05:18:07.000Z</time>
      </trkpt>
      <trkpt lat="45.22176" lon="5.73909">
        <ele>887.20001220703</ele>
        <time>2021-11-06T05:18:13.000Z</time>
      </trkpt>
      <trkpt lat="45.22177" lon="5.7391">
        <ele>887.59997558594</ele>
        <time>2021-11-06T05:18:14.000Z</time>
      </trkpt>
      <trkpt lat="45.22185" lon="5.73916">
        <ele>888.59997558594</ele>
        <time>2021-11-06T05:18:19.000Z</time>
      </trkpt>
      <trkpt lat="45.22186" lon="5.73918">
        <ele>888.59997558594</ele>
        <time>2021-11-06T05:18:20.000Z</time>
      </trkpt>
      <trkpt lat="45.22192" lon="5.73925">
        <ele>889.20001220703</ele>
        <time>2021-11-06T05:18:24.000Z</time>
      </trkpt>
      <trkpt lat="45.22195" lon="5.73928">
        <ele>889.79998779297</ele>
        <time>2021-11-06T05:18:26.000Z</time>
      </trkpt>
      <trkpt lat="45.22197" lon="5.73929">
        <ele>890</ele>
        <time>2021-11-06T05:18:27.000Z</time>
      </trkpt>
      <trkpt lat="45.222" lon="5.73933">
        <ele>890.59997558594</ele>
        <time>2021-11-06T05:18:29.000Z</time>
      </trkpt>
      <trkpt lat="45.22202" lon="5.73935">
        <ele>891</ele>
        <time>2021-11-06T05:18:30.000Z</time>
      </trkpt>
      <trkpt lat="45.22206" lon="5.7394">
        <ele>891.59997558594</ele>
        <time>2021-11-06T05:18:33.000Z</time>
      </trkpt>
      <trkpt lat="45.22209" lon="5.73944">
        <ele>892</ele>
        <time>2021-11-06T05:18:35.000Z</time>
      </trkpt>
      <trkpt lat="45.22215" lon="5.73952">
        <ele>892.79998779297</ele>
        <time>2021-11-06T05:18:39.000Z</time>
      </trkpt>
      <trkpt lat="45.22218" lon="5.73956">
        <ele>893</ele>
        <time>2021-11-06T05:18:41.000Z</time>
      </trkpt>
      <trkpt lat="45.22227" lon="5.73963">
        <ele>893.79998779297</ele>
        <time>2021-11-06T05:18:46.000Z</time>
      </trkpt>
      <trkpt lat="45.2223" lon="5.73965">
        <ele>894</ele>
        <time>2021-11-06T05:18:48.000Z</time>
      </trkpt>
      <trkpt lat="45.22238" lon="5.73972">
        <ele>894.79998779297</ele>
        <time>2021-11-06T05:18:52.000Z</time>
      </trkpt>
      <trkpt lat="45.22244" lon="5.73976">
        <ele>895</ele>
        <time>2021-11-06T05:18:55.000Z</time>
      </trkpt>
      <trkpt lat="45.22249" lon="5.73978">
        <ele>895.20001220703</ele>
        <time>2021-11-06T05:18:57.000Z</time>
      </trkpt>
      <trkpt lat="45.22251" lon="5.73979">
        <ele>895.20001220703</ele>
        <time>2021-11-06T05:18:58.000Z</time>
      </trkpt>
      <trkpt lat="45.22258" lon="5.73982">
        <ele>895.59997558594</ele>
        <time>2021-11-06T05:19:01.000Z</time>
      </trkpt>
      <trkpt lat="45.22267" lon="5.73984">
        <ele>896.20001220703</ele>
        <time>2021-11-06T05:19:05.000Z</time>
      </trkpt>
      <trkpt lat="45.22276" lon="5.73989">
        <ele>897.40002441406</ele>
        <time>2021-11-06T05:19:11.000Z</time>
      </trkpt>
      <trkpt lat="45.22277" lon="5.73991">
        <ele>897.59997558594</ele>
        <time>2021-11-06T05:19:12.000Z</time>
      </trkpt>
      <trkpt lat="45.22278" lon="5.73992">
        <ele>897.79998779297</ele>
        <time>2021-11-06T05:19:13.000Z</time>
      </trkpt>
      <trkpt lat="45.22285" lon="5.73996">
        <ele>898.59997558594</ele>
        <time>2021-11-06T05:19:18.000Z</time>
      </trkpt>
      <trkpt lat="45.22293" lon="5.73999">
        <ele>899.40002441406</ele>
        <time>2021-11-06T05:19:21.000Z</time>
      </trkpt>
      <trkpt lat="45.22299" lon="5.74001">
        <ele>900</ele>
        <time>2021-11-06T05:19:24.000Z</time>
      </trkpt>
      <trkpt lat="45.22308" lon="5.74006">
        <ele>900.79998779297</ele>
        <time>2021-11-06T05:19:29.000Z</time>
      </trkpt>
      <trkpt lat="45.2231" lon="5.74006">
        <ele>901.20001220703</ele>
        <time>2021-11-06T05:19:30.000Z</time>
      </trkpt>
      <trkpt lat="45.22321" lon="5.74011">
        <ele>902.40002441406</ele>
        <time>2021-11-06T05:19:36.000Z</time>
      </trkpt>
      <trkpt lat="45.22327" lon="5.74013">
        <ele>902.79998779297</ele>
        <time>2021-11-06T05:19:40.000Z</time>
      </trkpt>
      <trkpt lat="45.22332" lon="5.74014">
        <ele>903.40002441406</ele>
        <time>2021-11-06T05:19:43.000Z</time>
      </trkpt>
      <trkpt lat="45.22337" lon="5.74018">
        <ele>903.79998779297</ele>
        <time>2021-11-06T05:19:47.000Z</time>
      </trkpt>
      <trkpt lat="45.22343" lon="5.74022">
        <ele>904.59997558594</ele>
        <time>2021-11-06T05:19:51.000Z</time>
      </trkpt>
      <trkpt lat="45.22353" lon="5.7403">
        <ele>905.79998779297</ele>
        <time>2021-11-06T05:19:57.000Z</time>
      </trkpt>
      <trkpt lat="45.22358" lon="5.74035">
        <ele>906.79998779297</ele>
        <time>2021-11-06T05:20:00.000Z</time>
      </trkpt>
      <trkpt lat="45.22371" lon="5.74042">
        <ele>907</ele>
        <time>2021-11-06T05:20:04.000Z</time>
      </trkpt>
      <trkpt lat="45.22377" lon="5.74048">
        <ele>906.79998779297</ele>
        <time>2021-11-06T05:20:07.000Z</time>
      </trkpt>
      <trkpt lat="45.22384" lon="5.74056">
        <ele>906.59997558594</ele>
        <time>2021-11-06T05:20:11.000Z</time>
      </trkpt>
      <trkpt lat="45.22395" lon="5.74068">
        <ele>906.20001220703</ele>
        <time>2021-11-06T05:20:17.000Z</time>
      </trkpt>
      <trkpt lat="45.22397" lon="5.74072">
        <ele>905.79998779297</ele>
        <time>2021-11-06T05:20:19.000Z</time>
      </trkpt>
      <trkpt lat="45.224" lon="5.74078">
        <ele>905.40002441406</ele>
        <time>2021-11-06T05:20:22.000Z</time>
      </trkpt>
      <trkpt lat="45.22404" lon="5.74081">
        <ele>905.20001220703</ele>
        <time>2021-11-06T05:20:24.000Z</time>
      </trkpt>
      <trkpt lat="45.22408" lon="5.74084">
        <ele>904.79998779297</ele>
        <time>2021-11-06T05:20:26.000Z</time>
      </trkpt>
      <trkpt lat="45.2241" lon="5.74085">
        <ele>904.59997558594</ele>
        <time>2021-11-06T05:20:27.000Z</time>
      </trkpt>
      <trkpt lat="45.22411" lon="5.74088">
        <ele>904.40002441406</ele>
        <time>2021-11-06T05:20:28.000Z</time>
      </trkpt>
      <trkpt lat="45.22413" lon="5.74091">
        <ele>903.79998779297</ele>
        <time>2021-11-06T05:20:30.000Z</time>
      </trkpt>
      <trkpt lat="45.22415" lon="5.74093">
        <ele>903.59997558594</ele>
        <time>2021-11-06T05:20:31.000Z</time>
      </trkpt>
      <trkpt lat="45.22417" lon="5.74097">
        <ele>903</ele>
        <time>2021-11-06T05:20:33.000Z</time>
      </trkpt>
      <trkpt lat="45.22422" lon="5.74103">
        <ele>902.40002441406</ele>
        <time>2021-11-06T05:20:36.000Z</time>
      </trkpt>
      <trkpt lat="45.22426" lon="5.74107">
        <ele>902</ele>
        <time>2021-11-06T05:20:38.000Z</time>
      </trkpt>
      <trkpt lat="45.22427" lon="5.74109">
        <ele>901.40002441406</ele>
        <time>2021-11-06T05:20:39.000Z</time>
      </trkpt>
      <trkpt lat="45.22429" lon="5.74115">
        <ele>900.79998779297</ele>
        <time>2021-11-06T05:20:41.000Z</time>
      </trkpt>
      <trkpt lat="45.22433" lon="5.74119">
        <ele>900.40002441406</ele>
        <time>2021-11-06T05:20:43.000Z</time>
      </trkpt>
      <trkpt lat="45.22436" lon="5.74124">
        <ele>900</ele>
        <time>2021-11-06T05:20:45.000Z</time>
      </trkpt>
      <trkpt lat="45.22438" lon="5.74128">
        <ele>899.20001220703</ele>
        <time>2021-11-06T05:20:47.000Z</time>
      </trkpt>
      <trkpt lat="45.22444" lon="5.74137">
        <ele>898.40002441406</ele>
        <time>2021-11-06T05:20:51.000Z</time>
      </trkpt>
      <trkpt lat="45.22445" lon="5.74139">
        <ele>898.20001220703</ele>
        <time>2021-11-06T05:20:52.000Z</time>
      </trkpt>
      <trkpt lat="45.22447" lon="5.74142">
        <ele>898</ele>
        <time>2021-11-06T05:20:53.000Z</time>
      </trkpt>
      <trkpt lat="45.22452" lon="5.74149">
        <ele>896.79998779297</ele>
        <time>2021-11-06T05:20:56.000Z</time>
      </trkpt>
      <trkpt lat="45.22454" lon="5.74154">
        <ele>896.40002441406</ele>
        <time>2021-11-06T05:20:58.000Z</time>
      </trkpt>
      <trkpt lat="45.22458" lon="5.74159">
        <ele>895.79998779297</ele>
        <time>2021-11-06T05:21:01.000Z</time>
      </trkpt>
      <trkpt lat="45.2246" lon="5.7416">
        <ele>895.40002441406</ele>
        <time>2021-11-06T05:21:02.000Z</time>
      </trkpt>
      <trkpt lat="45.22463" lon="5.74164">
        <ele>894.79998779297</ele>
        <time>2021-11-06T05:21:04.000Z</time>
      </trkpt>
      <trkpt lat="45.22466" lon="5.74169">
        <ele>894.40002441406</ele>
        <time>2021-11-06T05:21:06.000Z</time>
      </trkpt>
      <trkpt lat="45.22473" lon="5.7418">
        <ele>893.59997558594</ele>
        <time>2021-11-06T05:21:11.000Z</time>
      </trkpt>
      <trkpt lat="45.22475" lon="5.74183">
        <ele>892.79998779297</ele>
        <time>2021-11-06T05:21:13.000Z</time>
      </trkpt>
      <trkpt lat="45.22477" lon="5.74185">
        <ele>892.59997558594</ele>
        <time>2021-11-06T05:21:14.000Z</time>
      </trkpt>
      <trkpt lat="45.22479" lon="5.74186">
        <ele>892.40002441406</ele>
        <time>2021-11-06T05:21:15.000Z</time>
      </trkpt>
      <trkpt lat="45.2248" lon="5.74187">
        <ele>892.20001220703</ele>
        <time>2021-11-06T05:21:16.000Z</time>
      </trkpt>
      <trkpt lat="45.22487" lon="5.74196">
        <ele>891</ele>
        <time>2021-11-06T05:21:21.000Z</time>
      </trkpt>
      <trkpt lat="45.22496" lon="5.74202">
        <ele>889.79998779297</ele>
        <time>2021-11-06T05:21:26.000Z</time>
      </trkpt>
      <trkpt lat="45.22504" lon="5.74208">
        <ele>888.79998779297</ele>
        <time>2021-11-06T05:21:30.000Z</time>
      </trkpt>
      <trkpt lat="45.22518" lon="5.74216">
        <ele>887.59997558594</ele>
        <time>2021-11-06T05:21:36.000Z</time>
      </trkpt>
      <trkpt lat="45.22526" lon="5.7422">
        <ele>886.59997558594</ele>
        <time>2021-11-06T05:21:40.000Z</time>
      </trkpt>
      <trkpt lat="45.22532" lon="5.74223">
        <ele>885.59997558594</ele>
        <time>2021-11-06T05:21:44.000Z</time>
      </trkpt>
      <trkpt lat="45.22533" lon="5.74225">
        <ele>885.40002441406</ele>
        <time>2021-11-06T05:21:45.000Z</time>
      </trkpt>
      <trkpt lat="45.22537" lon="5.74227">
        <ele>885</ele>
        <time>2021-11-06T05:21:47.000Z</time>
      </trkpt>
      <trkpt lat="45.22544" lon="5.74232">
        <ele>884.20001220703</ele>
        <time>2021-11-06T05:21:51.000Z</time>
      </trkpt>
      <trkpt lat="45.22549" lon="5.74234">
        <ele>883.20001220703</ele>
        <time>2021-11-06T05:21:54.000Z</time>
      </trkpt>
      <trkpt lat="45.2255" lon="5.74235">
        <ele>883</ele>
        <time>2021-11-06T05:21:55.000Z</time>
      </trkpt>
      <trkpt lat="45.22555" lon="5.74238">
        <ele>882.40002441406</ele>
        <time>2021-11-06T05:21:58.000Z</time>
      </trkpt>
      <trkpt lat="45.22559" lon="5.74239">
        <ele>882</ele>
        <time>2021-11-06T05:22:00.000Z</time>
      </trkpt>
      <trkpt lat="45.22567" lon="5.74244">
        <ele>881</ele>
        <time>2021-11-06T05:22:04.000Z</time>
      </trkpt>
      <trkpt lat="45.22569" lon="5.74245">
        <ele>880.59997558594</ele>
        <time>2021-11-06T05:22:05.000Z</time>
      </trkpt>
      <trkpt lat="45.22572" lon="5.74246">
        <ele>880.40002441406</ele>
        <time>2021-11-06T05:22:06.000Z</time>
      </trkpt>
      <trkpt lat="45.22582" lon="5.74249">
        <ele>879.40002441406</ele>
        <time>2021-11-06T05:22:11.000Z</time>
      </trkpt>
      <trkpt lat="45.22588" lon="5.74251">
        <ele>878.59997558594</ele>
        <time>2021-11-06T05:22:14.000Z</time>
      </trkpt>
      <trkpt lat="45.2259" lon="5.74252">
        <ele>878.20001220703</ele>
        <time>2021-11-06T05:22:15.000Z</time>
      </trkpt>
      <trkpt lat="45.22601" lon="5.74256">
        <ele>877.20001220703</ele>
        <time>2021-11-06T05:22:20.000Z</time>
      </trkpt>
      <trkpt lat="45.22606" lon="5.74259">
        <ele>876.59997558594</ele>
        <time>2021-11-06T05:22:22.000Z</time>
      </trkpt>
      <trkpt lat="45.2261" lon="5.74261">
        <ele>876.20001220703</ele>
        <time>2021-11-06T05:22:24.000Z</time>
      </trkpt>
      <trkpt lat="45.22615" lon="5.74262">
        <ele>875.40002441406</ele>
        <time>2021-11-06T05:22:26.000Z</time>
      </trkpt>
      <trkpt lat="45.22618" lon="5.74263">
        <ele>875</ele>
        <time>2021-11-06T05:22:27.000Z</time>
      </trkpt>
      <trkpt lat="45.2262" lon="5.74263">
        <ele>874.79998779297</ele>
        <time>2021-11-06T05:22:28.000Z</time>
      </trkpt>
      <trkpt lat="45.22627" lon="5.74264">
        <ele>874</ele>
        <time>2021-11-06T05:22:31.000Z</time>
      </trkpt>
      <trkpt lat="45.22638" lon="5.74266">
        <ele>872.79998779297</ele>
        <time>2021-11-06T05:22:36.000Z</time>
      </trkpt>
      <trkpt lat="45.22639" lon="5.74266">
        <ele>872.79998779297</ele>
        <time>2021-11-06T05:22:37.000Z</time>
      </trkpt>
      <trkpt lat="45.22645" lon="5.74266">
        <ele>871.79998779297</ele>
        <time>2021-11-06T05:22:40.000Z</time>
      </trkpt>
      <trkpt lat="45.22655" lon="5.74267">
        <ele>870.79998779297</ele>
        <time>2021-11-06T05:22:45.000Z</time>
      </trkpt>
      <trkpt lat="45.22657" lon="5.74268">
        <ele>870.59997558594</ele>
        <time>2021-11-06T05:22:46.000Z</time>
      </trkpt>
      <trkpt lat="45.22665" lon="5.74271">
        <ele>869.40002441406</ele>
        <time>2021-11-06T05:22:50.000Z</time>
      </trkpt>
      <trkpt lat="45.22672" lon="5.74275">
        <ele>869</ele>
        <time>2021-11-06T05:22:53.000Z</time>
      </trkpt>
      <trkpt lat="45.22676" lon="5.74278">
        <ele>868.20001220703</ele>
        <time>2021-11-06T05:22:55.000Z</time>
      </trkpt>
      <trkpt lat="45.22687" lon="5.74288">
        <ele>867.40002441406</ele>
        <time>2021-11-06T05:23:00.000Z</time>
      </trkpt>
      <trkpt lat="45.22689" lon="5.74291">
        <ele>867</ele>
        <time>2021-11-06T05:23:01.000Z</time>
      </trkpt>
      <trkpt lat="45.22698" lon="5.743">
        <ele>866.20001220703</ele>
        <time>2021-11-06T05:23:06.000Z</time>
      </trkpt>
      <trkpt lat="45.227" lon="5.74302">
        <ele>865.59997558594</ele>
        <time>2021-11-06T05:23:07.000Z</time>
      </trkpt>
      <trkpt lat="45.22706" lon="5.74305">
        <ele>864.59997558594</ele>
        <time>2021-11-06T05:23:11.000Z</time>
      </trkpt>
      <trkpt lat="45.22708" lon="5.74307">
        <ele>864.20001220703</ele>
        <time>2021-11-06T05:23:12.000Z</time>
      </trkpt>
      <trkpt lat="45.22719" lon="5.74317">
        <ele>863.20001220703</ele>
        <time>2021-11-06T05:23:17.000Z</time>
      </trkpt>
      <trkpt lat="45.2273" lon="5.74323">
        <ele>862</ele>
        <time>2021-11-06T05:23:22.000Z</time>
      </trkpt>
      <trkpt lat="45.22734" lon="5.74324">
        <ele>861.40002441406</ele>
        <time>2021-11-06T05:23:24.000Z</time>
      </trkpt>
      <trkpt lat="45.22739" lon="5.74327">
        <ele>861</ele>
        <time>2021-11-06T05:23:26.000Z</time>
      </trkpt>
      <trkpt lat="45.22741" lon="5.74329">
        <ele>860.59997558594</ele>
        <time>2021-11-06T05:23:27.000Z</time>
      </trkpt>
      <trkpt lat="45.22744" lon="5.74329">
        <ele>860.40002441406</ele>
        <time>2021-11-06T05:23:28.000Z</time>
      </trkpt>
      <trkpt lat="45.22746" lon="5.74331">
        <ele>860.20001220703</ele>
        <time>2021-11-06T05:23:29.000Z</time>
      </trkpt>
      <trkpt lat="45.22754" lon="5.74337">
        <ele>859.59997558594</ele>
        <time>2021-11-06T05:23:33.000Z</time>
      </trkpt>
      <trkpt lat="45.22761" lon="5.7434">
        <ele>858.79998779297</ele>
        <time>2021-11-06T05:23:36.000Z</time>
      </trkpt>
      <trkpt lat="45.22762" lon="5.74342">
        <ele>858.40002441406</ele>
        <time>2021-11-06T05:23:37.000Z</time>
      </trkpt>
      <trkpt lat="45.2277" lon="5.74349">
        <ele>857.59997558594</ele>
        <time>2021-11-06T05:23:42.000Z</time>
      </trkpt>
      <trkpt lat="45.22771" lon="5.74351">
        <ele>857.40002441406</ele>
        <time>2021-11-06T05:23:43.000Z</time>
      </trkpt>
      <trkpt lat="45.22774" lon="5.74353">
        <ele>857</ele>
        <time>2021-11-06T05:23:45.000Z</time>
      </trkpt>
      <trkpt lat="45.22778" lon="5.74356">
        <ele>856.40002441406</ele>
        <time>2021-11-06T05:23:47.000Z</time>
      </trkpt>
      <trkpt lat="45.2278" lon="5.74357">
        <ele>856</ele>
        <time>2021-11-06T05:23:48.000Z</time>
      </trkpt>
      <trkpt lat="45.2279" lon="5.74362">
        <ele>855</ele>
        <time>2021-11-06T05:23:52.000Z</time>
      </trkpt>
      <trkpt lat="45.22792" lon="5.74363">
        <ele>854.79998779297</ele>
        <time>2021-11-06T05:23:53.000Z</time>
      </trkpt>
      <trkpt lat="45.22795" lon="5.74365">
        <ele>854.40002441406</ele>
        <time>2021-11-06T05:23:54.000Z</time>
      </trkpt>
      <trkpt lat="45.22799" lon="5.74369">
        <ele>853.79998779297</ele>
        <time>2021-11-06T05:23:56.000Z</time>
      </trkpt>
      <trkpt lat="45.22805" lon="5.74374">
        <ele>853</ele>
        <time>2021-11-06T05:23:59.000Z</time>
      </trkpt>
      <trkpt lat="45.22808" lon="5.74378">
        <ele>852.59997558594</ele>
        <time>2021-11-06T05:24:01.000Z</time>
      </trkpt>
      <trkpt lat="45.22816" lon="5.74385">
        <ele>851.79998779297</ele>
        <time>2021-11-06T05:24:05.000Z</time>
      </trkpt>
      <trkpt lat="45.22818" lon="5.74387">
        <ele>851.59997558594</ele>
        <time>2021-11-06T05:24:06.000Z</time>
      </trkpt>
      <trkpt lat="45.22824" lon="5.74391">
        <ele>850.79998779297</ele>
        <time>2021-11-06T05:24:09.000Z</time>
      </trkpt>
      <trkpt lat="45.22828" lon="5.74393">
        <ele>850.20001220703</ele>
        <time>2021-11-06T05:24:11.000Z</time>
      </trkpt>
      <trkpt lat="45.22831" lon="5.74395">
        <ele>849.79998779297</ele>
        <time>2021-11-06T05:24:13.000Z</time>
      </trkpt>
      <trkpt lat="45.22835" lon="5.74397">
        <ele>849.20001220703</ele>
        <time>2021-11-06T05:24:15.000Z</time>
      </trkpt>
      <trkpt lat="45.22843" lon="5.74401">
        <ele>848</ele>
        <time>2021-11-06T05:24:20.000Z</time>
      </trkpt>
      <trkpt lat="45.22847" lon="5.74404">
        <ele>847.40002441406</ele>
        <time>2021-11-06T05:24:22.000Z</time>
      </trkpt>
      <trkpt lat="45.22851" lon="5.74408">
        <ele>847</ele>
        <time>2021-11-06T05:24:24.000Z</time>
      </trkpt>
      <trkpt lat="45.22861" lon="5.74416">
        <ele>846</ele>
        <time>2021-11-06T05:24:29.000Z</time>
      </trkpt>
      <trkpt lat="45.22862" lon="5.74418">
        <ele>845.79998779297</ele>
        <time>2021-11-06T05:24:30.000Z</time>
      </trkpt>
      <trkpt lat="45.22869" lon="5.74427">
        <ele>845.20001220703</ele>
        <time>2021-11-06T05:24:33.000Z</time>
      </trkpt>
      <trkpt lat="45.22872" lon="5.74433">
        <ele>844.59997558594</ele>
        <time>2021-11-06T05:24:35.000Z</time>
      </trkpt>
      <trkpt lat="45.22873" lon="5.74434">
        <ele>844.40002441406</ele>
        <time>2021-11-06T05:24:36.000Z</time>
      </trkpt>
      <trkpt lat="45.22875" lon="5.74437">
        <ele>844.20001220703</ele>
        <time>2021-11-06T05:24:42.000Z</time>
      </trkpt>
      <trkpt lat="45.22875" lon="5.74439">
        <ele>844.40002441406</ele>
        <time>2021-11-06T05:24:47.000Z</time>
      </trkpt>
      <trkpt lat="45.22876" lon="5.74439">
        <ele>844.40002441406</ele>
        <time>2021-11-06T05:24:51.000Z</time>
      </trkpt>
      <trkpt lat="45.22875" lon="5.74439">
        <ele>844.40002441406</ele>
        <time>2021-11-06T05:24:52.000Z</time>
      </trkpt>
      <trkpt lat="45.22875" lon="5.74439">
        <ele>844.40002441406</ele>
        <time>2021-11-06T05:24:54.000Z</time>
      </trkpt>
      <trkpt lat="45.22881" lon="5.74442">
        <ele>844.20001220703</ele>
        <time>2021-11-06T05:25:02.000Z</time>
      </trkpt>
      <trkpt lat="45.22886" lon="5.74444">
        <ele>843.79998779297</ele>
        <time>2021-11-06T05:25:04.000Z</time>
      </trkpt>
      <trkpt lat="45.22888" lon="5.74445">
        <ele>843.40002441406</ele>
        <time>2021-11-06T05:25:05.000Z</time>
      </trkpt>
      <trkpt lat="45.22891" lon="5.74448">
        <ele>842.79998779297</ele>
        <time>2021-11-06T05:25:07.000Z</time>
      </trkpt>
      <trkpt lat="45.22893" lon="5.7445">
        <ele>842.20001220703</ele>
        <time>2021-11-06T05:25:09.000Z</time>
      </trkpt>
      <trkpt lat="45.22894" lon="5.74451">
        <ele>841.79998779297</ele>
        <time>2021-11-06T05:25:10.000Z</time>
      </trkpt>
      <trkpt lat="45.22901" lon="5.74451">
        <ele>841</ele>
        <time>2021-11-06T05:25:13.000Z</time>
      </trkpt>
      <trkpt lat="45.2291" lon="5.74455">
        <ele>839.79998779297</ele>
        <time>2021-11-06T05:25:18.000Z</time>
      </trkpt>
      <trkpt lat="45.22916" lon="5.74459">
        <ele>839.20001220703</ele>
        <time>2021-11-06T05:25:21.000Z</time>
      </trkpt>
      <trkpt lat="45.22918" lon="5.7446">
        <ele>838.79998779297</ele>
        <time>2021-11-06T05:25:22.000Z</time>
      </trkpt>
      <trkpt lat="45.22923" lon="5.74465">
        <ele>838</ele>
        <time>2021-11-06T05:25:25.000Z</time>
      </trkpt>
      <trkpt lat="45.22926" lon="5.74468">
        <ele>837.59997558594</ele>
        <time>2021-11-06T05:25:27.000Z</time>
      </trkpt>
      <trkpt lat="45.22927" lon="5.74471">
        <ele>837</ele>
        <time>2021-11-06T05:25:28.000Z</time>
      </trkpt>
      <trkpt lat="45.22931" lon="5.74476">
        <ele>836.40002441406</ele>
        <time>2021-11-06T05:25:30.000Z</time>
      </trkpt>
      <trkpt lat="45.22939" lon="5.74483">
        <ele>835.59997558594</ele>
        <time>2021-11-06T05:25:33.000Z</time>
      </trkpt>
      <trkpt lat="45.22943" lon="5.74486">
        <ele>835.40002441406</ele>
        <time>2021-11-06T05:25:34.000Z</time>
      </trkpt>
      <trkpt lat="45.22946" lon="5.74488">
        <ele>835.20001220703</ele>
        <time>2021-11-06T05:25:35.000Z</time>
      </trkpt>
      <trkpt lat="45.2296" lon="5.74505">
        <ele>833.79998779297</ele>
        <time>2021-11-06T05:25:41.000Z</time>
      </trkpt>
      <trkpt lat="45.22961" lon="5.74507">
        <ele>833.59997558594</ele>
        <time>2021-11-06T05:25:42.000Z</time>
      </trkpt>
      <trkpt lat="45.22969" lon="5.74514">
        <ele>832.40002441406</ele>
        <time>2021-11-06T05:25:46.000Z</time>
      </trkpt>
      <trkpt lat="45.22972" lon="5.74518">
        <ele>832</ele>
        <time>2021-11-06T05:25:48.000Z</time>
      </trkpt>
      <trkpt lat="45.22978" lon="5.74522">
        <ele>831.20001220703</ele>
        <time>2021-11-06T05:25:51.000Z</time>
      </trkpt>
      <trkpt lat="45.22981" lon="5.74526">
        <ele>830.40002441406</ele>
        <time>2021-11-06T05:25:53.000Z</time>
      </trkpt>
      <trkpt lat="45.22983" lon="5.74531">
        <ele>830</ele>
        <time>2021-11-06T05:25:55.000Z</time>
      </trkpt>
      <trkpt lat="45.22984" lon="5.74533">
        <ele>829.40002441406</ele>
        <time>2021-11-06T05:25:56.000Z</time>
      </trkpt>
      <trkpt lat="45.22989" lon="5.74536">
        <ele>828.79998779297</ele>
        <time>2021-11-06T05:25:59.000Z</time>
      </trkpt>
      <trkpt lat="45.2299" lon="5.74537">
        <ele>828.79998779297</ele>
        <time>2021-11-06T05:26:00.000Z</time>
      </trkpt>
      <trkpt lat="45.22995" lon="5.74542">
        <ele>827.79998779297</ele>
        <time>2021-11-06T05:26:04.000Z</time>
      </trkpt>
      <trkpt lat="45.22997" lon="5.74543">
        <ele>827.59997558594</ele>
        <time>2021-11-06T05:26:05.000Z</time>
      </trkpt>
      <trkpt lat="45.22998" lon="5.74544">
        <ele>827.20001220703</ele>
        <time>2021-11-06T05:26:06.000Z</time>
      </trkpt>
      <trkpt lat="45.23004" lon="5.74551">
        <ele>826.40002441406</ele>
        <time>2021-11-06T05:26:09.000Z</time>
      </trkpt>
      <trkpt lat="45.23011" lon="5.74556">
        <ele>826</ele>
        <time>2021-11-06T05:26:11.000Z</time>
      </trkpt>
      <trkpt lat="45.23021" lon="5.74564">
        <ele>825.20001220703</ele>
        <time>2021-11-06T05:26:14.000Z</time>
      </trkpt>
      <trkpt lat="45.23025" lon="5.74569">
        <ele>824.20001220703</ele>
        <time>2021-11-06T05:26:17.000Z</time>
      </trkpt>
      <trkpt lat="45.23028" lon="5.74574">
        <ele>823.79998779297</ele>
        <time>2021-11-06T05:26:19.000Z</time>
      </trkpt>
      <trkpt lat="45.23034" lon="5.74585">
        <ele>822.79998779297</ele>
        <time>2021-11-06T05:26:23.000Z</time>
      </trkpt>
      <trkpt lat="45.23042" lon="5.74593">
        <ele>821.59997558594</ele>
        <time>2021-11-06T05:26:27.000Z</time>
      </trkpt>
      <trkpt lat="45.23045" lon="5.74597">
        <ele>821.20001220703</ele>
        <time>2021-11-06T05:26:29.000Z</time>
      </trkpt>
      <trkpt lat="45.2305" lon="5.74606">
        <ele>820.40002441406</ele>
        <time>2021-11-06T05:26:32.000Z</time>
      </trkpt>
      <trkpt lat="45.23055" lon="5.74619">
        <ele>819.79998779297</ele>
        <time>2021-11-06T05:26:35.000Z</time>
      </trkpt>
      <trkpt lat="45.23059" lon="5.74624">
        <ele>819.20001220703</ele>
        <time>2021-11-06T05:26:37.000Z</time>
      </trkpt>
      <trkpt lat="45.23068" lon="5.74638">
        <ele>818.20001220703</ele>
        <time>2021-11-06T05:26:41.000Z</time>
      </trkpt>
      <trkpt lat="45.2307" lon="5.74642">
        <ele>818</ele>
        <time>2021-11-06T05:26:42.000Z</time>
      </trkpt>
      <trkpt lat="45.23076" lon="5.74649">
        <ele>817</ele>
        <time>2021-11-06T05:26:45.000Z</time>
      </trkpt>
      <trkpt lat="45.23078" lon="5.74651">
        <ele>816.79998779297</ele>
        <time>2021-11-06T05:26:46.000Z</time>
      </trkpt>
      <trkpt lat="45.23083" lon="5.74659">
        <ele>815.79998779297</ele>
        <time>2021-11-06T05:26:49.000Z</time>
      </trkpt>
      <trkpt lat="45.23086" lon="5.74664">
        <ele>815</ele>
        <time>2021-11-06T05:26:51.000Z</time>
      </trkpt>
      <trkpt lat="45.23088" lon="5.74666">
        <ele>814.59997558594</ele>
        <time>2021-11-06T05:26:52.000Z</time>
      </trkpt>
      <trkpt lat="45.23095" lon="5.74677">
        <ele>813.59997558594</ele>
        <time>2021-11-06T05:26:57.000Z</time>
      </trkpt>
      <trkpt lat="45.23096" lon="5.74679">
        <ele>813.59997558594</ele>
        <time>2021-11-06T05:26:58.000Z</time>
      </trkpt>
      <trkpt lat="45.23099" lon="5.74686">
        <ele>812.59997558594</ele>
        <time>2021-11-06T05:27:01.000Z</time>
      </trkpt>
      <trkpt lat="45.23105" lon="5.74697">
        <ele>811.40002441406</ele>
        <time>2021-11-06T05:27:05.000Z</time>
      </trkpt>
      <trkpt lat="45.2311" lon="5.74706">
        <ele>810.40002441406</ele>
        <time>2021-11-06T05:27:09.000Z</time>
      </trkpt>
      <trkpt lat="45.23112" lon="5.74712">
        <ele>809.59997558594</ele>
        <time>2021-11-06T05:27:11.000Z</time>
      </trkpt>
      <trkpt lat="45.23114" lon="5.74715">
        <ele>809.40002441406</ele>
        <time>2021-11-06T05:27:12.000Z</time>
      </trkpt>
      <trkpt lat="45.23123" lon="5.7473">
        <ele>808</ele>
        <time>2021-11-06T05:27:17.000Z</time>
      </trkpt>
      <trkpt lat="45.23124" lon="5.74733">
        <ele>807.79998779297</ele>
        <time>2021-11-06T05:27:18.000Z</time>
      </trkpt>
      <trkpt lat="45.23129" lon="5.74744">
        <ele>806.79998779297</ele>
        <time>2021-11-06T05:27:22.000Z</time>
      </trkpt>
      <trkpt lat="45.23132" lon="5.74749">
        <ele>806.20001220703</ele>
        <time>2021-11-06T05:27:24.000Z</time>
      </trkpt>
      <trkpt lat="45.23133" lon="5.74752">
        <ele>806</ele>
        <time>2021-11-06T05:27:25.000Z</time>
      </trkpt>
      <trkpt lat="45.23136" lon="5.74758">
        <ele>805.59997558594</ele>
        <time>2021-11-06T05:27:27.000Z</time>
      </trkpt>
      <trkpt lat="45.2314" lon="5.74767">
        <ele>804.59997558594</ele>
        <time>2021-11-06T05:27:30.000Z</time>
      </trkpt>
      <trkpt lat="45.23142" lon="5.7477">
        <ele>804.40002441406</ele>
        <time>2021-11-06T05:27:31.000Z</time>
      </trkpt>
      <trkpt lat="45.23148" lon="5.74779">
        <ele>803.40002441406</ele>
        <time>2021-11-06T05:27:34.000Z</time>
      </trkpt>
      <trkpt lat="45.23149" lon="5.74783">
        <ele>803</ele>
        <time>2021-11-06T05:27:35.000Z</time>
      </trkpt>
      <trkpt lat="45.2315" lon="5.74786">
        <ele>802.79998779297</ele>
        <time>2021-11-06T05:27:36.000Z</time>
      </trkpt>
      <trkpt lat="45.23156" lon="5.74794">
        <ele>802.20001220703</ele>
        <time>2021-11-06T05:27:39.000Z</time>
      </trkpt>
      <trkpt lat="45.23161" lon="5.74803">
        <ele>801.40002441406</ele>
        <time>2021-11-06T05:27:42.000Z</time>
      </trkpt>
      <trkpt lat="45.23162" lon="5.74805">
        <ele>801</ele>
        <time>2021-11-06T05:27:43.000Z</time>
      </trkpt>
      <trkpt lat="45.23166" lon="5.74816">
        <ele>800</ele>
        <time>2021-11-06T05:27:47.000Z</time>
      </trkpt>
      <trkpt lat="45.23175" lon="5.74828">
        <ele>798.79998779297</ele>
        <time>2021-11-06T05:27:52.000Z</time>
      </trkpt>
      <trkpt lat="45.23181" lon="5.74839">
        <ele>797.79998779297</ele>
        <time>2021-11-06T05:27:56.000Z</time>
      </trkpt>
      <trkpt lat="45.2319" lon="5.74846">
        <ele>796.79998779297</ele>
        <time>2021-11-06T05:28:00.000Z</time>
      </trkpt>
      <trkpt lat="45.23191" lon="5.74848">
        <ele>796.59997558594</ele>
        <time>2021-11-06T05:28:01.000Z</time>
      </trkpt>
      <trkpt lat="45.23195" lon="5.74852">
        <ele>795.79998779297</ele>
        <time>2021-11-06T05:28:04.000Z</time>
      </trkpt>
      <trkpt lat="45.23196" lon="5.74852">
        <ele>795.20001220703</ele>
        <time>2021-11-06T05:28:05.000Z</time>
      </trkpt>
      <trkpt lat="45.23207" lon="5.74856">
        <ele>794.20001220703</ele>
        <time>2021-11-06T05:28:09.000Z</time>
      </trkpt>
      <trkpt lat="45.23213" lon="5.74865">
        <ele>793</ele>
        <time>2021-11-06T05:28:12.000Z</time>
      </trkpt>
      <trkpt lat="45.23219" lon="5.74882">
        <ele>792</ele>
        <time>2021-11-06T05:28:17.000Z</time>
      </trkpt>
      <trkpt lat="45.2322" lon="5.74885">
        <ele>792</ele>
        <time>2021-11-06T05:28:18.000Z</time>
      </trkpt>
      <trkpt lat="45.23223" lon="5.74895">
        <ele>790.79998779297</ele>
        <time>2021-11-06T05:28:22.000Z</time>
      </trkpt>
      <trkpt lat="45.23224" lon="5.74897">
        <ele>790.40002441406</ele>
        <time>2021-11-06T05:28:23.000Z</time>
      </trkpt>
      <trkpt lat="45.23228" lon="5.74902">
        <ele>789.59997558594</ele>
        <time>2021-11-06T05:28:26.000Z</time>
      </trkpt>
      <trkpt lat="45.23235" lon="5.74909">
        <ele>788.40002441406</ele>
        <time>2021-11-06T05:28:30.000Z</time>
      </trkpt>
      <trkpt lat="45.23237" lon="5.74911">
        <ele>788.20001220703</ele>
        <time>2021-11-06T05:28:31.000Z</time>
      </trkpt>
      <trkpt lat="45.23243" lon="5.74918">
        <ele>787.40002441406</ele>
        <time>2021-11-06T05:28:34.000Z</time>
      </trkpt>
      <trkpt lat="45.23253" lon="5.74925">
        <ele>786.20001220703</ele>
        <time>2021-11-06T05:28:38.000Z</time>
      </trkpt>
      <trkpt lat="45.23254" lon="5.74927">
        <ele>786</ele>
        <time>2021-11-06T05:28:39.000Z</time>
      </trkpt>
      <trkpt lat="45.23261" lon="5.74936">
        <ele>785.20001220703</ele>
        <time>2021-11-06T05:28:42.000Z</time>
      </trkpt>
      <trkpt lat="45.23269" lon="5.74946">
        <ele>784.20001220703</ele>
        <time>2021-11-06T05:28:46.000Z</time>
      </trkpt>
      <trkpt lat="45.23271" lon="5.74948">
        <ele>784</ele>
        <time>2021-11-06T05:28:47.000Z</time>
      </trkpt>
      <trkpt lat="45.23278" lon="5.74956">
        <ele>783.20001220703</ele>
        <time>2021-11-06T05:28:50.000Z</time>
      </trkpt>
      <trkpt lat="45.23279" lon="5.74959">
        <ele>782.79998779297</ele>
        <time>2021-11-06T05:28:51.000Z</time>
      </trkpt>
      <trkpt lat="45.23281" lon="5.74962">
        <ele>782.59997558594</ele>
        <time>2021-11-06T05:28:52.000Z</time>
      </trkpt>
      <trkpt lat="45.23282" lon="5.74965">
        <ele>782.20001220703</ele>
        <time>2021-11-06T05:28:53.000Z</time>
      </trkpt>
      <trkpt lat="45.23285" lon="5.74971">
        <ele>781.79998779297</ele>
        <time>2021-11-06T05:28:55.000Z</time>
      </trkpt>
      <trkpt lat="45.23293" lon="5.74984">
        <ele>780.59997558594</ele>
        <time>2021-11-06T05:28:59.000Z</time>
      </trkpt>
      <trkpt lat="45.23295" lon="5.74988">
        <ele>780.40002441406</ele>
        <time>2021-11-06T05:29:00.000Z</time>
      </trkpt>
      <trkpt lat="45.23301" lon="5.74997">
        <ele>779.59997558594</ele>
        <time>2021-11-06T05:29:03.000Z</time>
      </trkpt>
      <trkpt lat="45.23305" lon="5.75003">
        <ele>779</ele>
        <time>2021-11-06T05:29:05.000Z</time>
      </trkpt>
      <trkpt lat="45.2331" lon="5.75015">
        <ele>778.40002441406</ele>
        <time>2021-11-06T05:29:08.000Z</time>
      </trkpt>
      <trkpt lat="45.23315" lon="5.75026">
        <ele>777.40002441406</ele>
        <time>2021-11-06T05:29:11.000Z</time>
      </trkpt>
      <trkpt lat="45.23319" lon="5.75035">
        <ele>776.40002441406</ele>
        <time>2021-11-06T05:29:14.000Z</time>
      </trkpt>
      <trkpt lat="45.2332" lon="5.75038">
        <ele>776.20001220703</ele>
        <time>2021-11-06T05:29:15.000Z</time>
      </trkpt>
      <trkpt lat="45.23322" lon="5.75041">
        <ele>775.79998779297</ele>
        <time>2021-11-06T05:29:16.000Z</time>
      </trkpt>
      <trkpt lat="45.23326" lon="5.75053">
        <ele>774.79998779297</ele>
        <time>2021-11-06T05:29:20.000Z</time>
      </trkpt>
      <trkpt lat="45.23327" lon="5.75057">
        <ele>774.59997558594</ele>
        <time>2021-11-06T05:29:21.000Z</time>
      </trkpt>
      <trkpt lat="45.23327" lon="5.75067">
        <ele>773.40002441406</ele>
        <time>2021-11-06T05:29:24.000Z</time>
      </trkpt>
      <trkpt lat="45.23326" lon="5.75078">
        <ele>772.40002441406</ele>
        <time>2021-11-06T05:29:27.000Z</time>
      </trkpt>
      <trkpt lat="45.23325" lon="5.75082">
        <ele>772.20001220703</ele>
        <time>2021-11-06T05:29:28.000Z</time>
      </trkpt>
      <trkpt lat="45.23324" lon="5.75085">
        <ele>771.79998779297</ele>
        <time>2021-11-06T05:29:29.000Z</time>
      </trkpt>
      <trkpt lat="45.23322" lon="5.75104">
        <ele>771</ele>
        <time>2021-11-06T05:29:34.000Z</time>
      </trkpt>
      <trkpt lat="45.23325" lon="5.75114">
        <ele>771</ele>
        <time>2021-11-06T05:29:38.000Z</time>
      </trkpt>
      <trkpt lat="45.23336" lon="5.75111">
        <ele>772</ele>
        <time>2021-11-06T05:29:44.000Z</time>
      </trkpt>
      <trkpt lat="45.2334" lon="5.75109">
        <ele>772.20001220703</ele>
        <time>2021-11-06T05:29:46.000Z</time>
      </trkpt>
      <trkpt lat="45.23349" lon="5.75104">
        <ele>773.20001220703</ele>
        <time>2021-11-06T05:29:50.000Z</time>
      </trkpt>
      <trkpt lat="45.2335" lon="5.75104">
        <ele>773.59997558594</ele>
        <time>2021-11-06T05:29:51.000Z</time>
      </trkpt>
      <trkpt lat="45.23355" lon="5.75103">
        <ele>773.79998779297</ele>
        <time>2021-11-06T05:29:53.000Z</time>
      </trkpt>
      <trkpt lat="45.2336" lon="5.75102">
        <ele>774</ele>
        <time>2021-11-06T05:29:55.000Z</time>
      </trkpt>
      <trkpt lat="45.23363" lon="5.75101">
        <ele>774.40002441406</ele>
        <time>2021-11-06T05:29:57.000Z</time>
      </trkpt>
      <trkpt lat="45.23365" lon="5.75102">
        <ele>774.59997558594</ele>
        <time>2021-11-06T05:29:58.000Z</time>
      </trkpt>
      <trkpt lat="45.23372" lon="5.75104">
        <ele>775.20001220703</ele>
        <time>2021-11-06T05:30:01.000Z</time>
      </trkpt>
      <trkpt lat="45.23379" lon="5.75104">
        <ele>775.59997558594</ele>
        <time>2021-11-06T05:30:04.000Z</time>
      </trkpt>
      <trkpt lat="45.23381" lon="5.75104">
        <ele>775.79998779297</ele>
        <time>2021-11-06T05:30:05.000Z</time>
      </trkpt>
      <trkpt lat="45.23385" lon="5.75104">
        <ele>776.20001220703</ele>
        <time>2021-11-06T05:30:07.000Z</time>
      </trkpt>
      <trkpt lat="45.23392" lon="5.75105">
        <ele>776.79998779297</ele>
        <time>2021-11-06T05:30:10.000Z</time>
      </trkpt>
      <trkpt lat="45.23397" lon="5.75107">
        <ele>777.20001220703</ele>
        <time>2021-11-06T05:30:13.000Z</time>
      </trkpt>
      <trkpt lat="45.23405" lon="5.75107">
        <ele>778</ele>
        <time>2021-11-06T05:30:17.000Z</time>
      </trkpt>
      <trkpt lat="45.2341" lon="5.75108">
        <ele>778.20001220703</ele>
        <time>2021-11-06T05:30:19.000Z</time>
      </trkpt>
      <trkpt lat="45.23422" lon="5.75108">
        <ele>779</ele>
        <time>2021-11-06T05:30:25.000Z</time>
      </trkpt>
      <trkpt lat="45.23424" lon="5.75107">
        <ele>779.20001220703</ele>
        <time>2021-11-06T05:30:26.000Z</time>
      </trkpt>
      <trkpt lat="45.23437" lon="5.75104">
        <ele>780</ele>
        <time>2021-11-06T05:30:32.000Z</time>
      </trkpt>
      <trkpt lat="45.2344" lon="5.75103">
        <ele>780.20001220703</ele>
        <time>2021-11-06T05:30:33.000Z</time>
      </trkpt>
      <trkpt lat="45.23446" lon="5.75101">
        <ele>780.40002441406</ele>
        <time>2021-11-06T05:30:36.000Z</time>
      </trkpt>
      <trkpt lat="45.23457" lon="5.75097">
        <ele>781.20001220703</ele>
        <time>2021-11-06T05:30:41.000Z</time>
      </trkpt>
      <trkpt lat="45.23466" lon="5.75094">
        <ele>781.79998779297</ele>
        <time>2021-11-06T05:30:45.000Z</time>
      </trkpt>
      <trkpt lat="45.23473" lon="5.75091">
        <ele>782.20001220703</ele>
        <time>2021-11-06T05:30:48.000Z</time>
      </trkpt>
      <trkpt lat="45.2348" lon="5.75088">
        <ele>782.59997558594</ele>
        <time>2021-11-06T05:30:51.000Z</time>
      </trkpt>
      <trkpt lat="45.23487" lon="5.75085">
        <ele>783</ele>
        <time>2021-11-06T05:30:54.000Z</time>
      </trkpt>
      <trkpt lat="45.23489" lon="5.75084">
        <ele>783.20001220703</ele>
        <time>2021-11-06T05:30:55.000Z</time>
      </trkpt>
      <trkpt lat="45.23491" lon="5.75084">
        <ele>783.40002441406</ele>
        <time>2021-11-06T05:30:56.000Z</time>
      </trkpt>
      <trkpt lat="45.23505" lon="5.75078">
        <ele>784.40002441406</ele>
        <time>2021-11-06T05:31:02.000Z</time>
      </trkpt>
      <trkpt lat="45.23507" lon="5.75078">
        <ele>784.59997558594</ele>
        <time>2021-11-06T05:31:03.000Z</time>
      </trkpt>
      <trkpt lat="45.23519" lon="5.75077">
        <ele>785.20001220703</ele>
        <time>2021-11-06T05:31:08.000Z</time>
      </trkpt>
      <trkpt lat="45.23529" lon="5.75078">
        <ele>785.59997558594</ele>
        <time>2021-11-06T05:31:12.000Z</time>
      </trkpt>
      <trkpt lat="45.23535" lon="5.7508">
        <ele>786.20001220703</ele>
        <time>2021-11-06T05:31:15.000Z</time>
      </trkpt>
      <trkpt lat="45.23537" lon="5.75081">
        <ele>786.59997558594</ele>
        <time>2021-11-06T05:31:16.000Z</time>
      </trkpt>
      <trkpt lat="45.23551" lon="5.75091">
        <ele>787.59997558594</ele>
        <time>2021-11-06T05:31:24.000Z</time>
      </trkpt>
      <trkpt lat="45.23552" lon="5.75091">
        <ele>787.79998779297</ele>
        <time>2021-11-06T05:31:25.000Z</time>
      </trkpt>
      <trkpt lat="45.23555" lon="5.75092">
        <ele>788.59997558594</ele>
        <time>2021-11-06T05:31:28.000Z</time>
      </trkpt>
      <trkpt lat="45.23556" lon="5.7509">
        <ele>788.79998779297</ele>
        <time>2021-11-06T05:31:29.000Z</time>
      </trkpt>
      <trkpt lat="45.2356" lon="5.7509">
        <ele>789.79998779297</ele>
        <time>2021-11-06T05:31:32.000Z</time>
      </trkpt>
      <trkpt lat="45.23562" lon="5.75091">
        <ele>790.40002441406</ele>
        <time>2021-11-06T05:31:34.000Z</time>
      </trkpt>
      <trkpt lat="45.23563" lon="5.75091">
        <ele>790.79998779297</ele>
        <time>2021-11-06T05:31:35.000Z</time>
      </trkpt>
      <trkpt lat="45.23564" lon="5.75092">
        <ele>791</ele>
        <time>2021-11-06T05:31:36.000Z</time>
      </trkpt>
      <trkpt lat="45.23567" lon="5.75094">
        <ele>792.20001220703</ele>
        <time>2021-11-06T05:31:41.000Z</time>
      </trkpt>
      <trkpt lat="45.23569" lon="5.75096">
        <ele>792.40002441406</ele>
        <time>2021-11-06T05:31:42.000Z</time>
      </trkpt>
      <trkpt lat="45.23572" lon="5.751">
        <ele>793.20001220703</ele>
        <time>2021-11-06T05:31:45.000Z</time>
      </trkpt>
      <trkpt lat="45.23573" lon="5.75101">
        <ele>793.59997558594</ele>
        <time>2021-11-06T05:31:47.000Z</time>
      </trkpt>
      <trkpt lat="45.23574" lon="5.75101">
        <ele>794</ele>
        <time>2021-11-06T05:31:48.000Z</time>
      </trkpt>
      <trkpt lat="45.23575" lon="5.75102">
        <ele>794.40002441406</ele>
        <time>2021-11-06T05:31:49.000Z</time>
      </trkpt>
      <trkpt lat="45.23578" lon="5.75105">
        <ele>795.40002441406</ele>
        <time>2021-11-06T05:31:53.000Z</time>
      </trkpt>
      <trkpt lat="45.23579" lon="5.75105">
        <ele>795.59997558594</ele>
        <time>2021-11-06T05:31:54.000Z</time>
      </trkpt>
      <trkpt lat="45.23582" lon="5.75108">
        <ele>796.59997558594</ele>
        <time>2021-11-06T05:31:58.000Z</time>
      </trkpt>
      <trkpt lat="45.23584" lon="5.75113">
        <ele>797.20001220703</ele>
        <time>2021-11-06T05:32:01.000Z</time>
      </trkpt>
      <trkpt lat="45.23585" lon="5.75115">
        <ele>797.59997558594</ele>
        <time>2021-11-06T05:32:02.000Z</time>
      </trkpt>
      <trkpt lat="45.23584" lon="5.75119">
        <ele>798.20001220703</ele>
        <time>2021-11-06T05:32:04.000Z</time>
      </trkpt>
      <trkpt lat="45.23582" lon="5.75123">
        <ele>798.79998779297</ele>
        <time>2021-11-06T05:32:06.000Z</time>
      </trkpt>
      <trkpt lat="45.23578" lon="5.75128">
        <ele>799.59997558594</ele>
        <time>2021-11-06T05:32:09.000Z</time>
      </trkpt>
      <trkpt lat="45.23577" lon="5.75128">
        <ele>800.20001220703</ele>
        <time>2021-11-06T05:32:10.000Z</time>
      </trkpt>
      <trkpt lat="45.23576" lon="5.75128">
        <ele>800.59997558594</ele>
        <time>2021-11-06T05:32:11.000Z</time>
      </trkpt>
      <trkpt lat="45.23573" lon="5.7513">
        <ele>801.20001220703</ele>
        <time>2021-11-06T05:32:14.000Z</time>
      </trkpt>
      <trkpt lat="45.23571" lon="5.75131">
        <ele>801.59997558594</ele>
        <time>2021-11-06T05:32:15.000Z</time>
      </trkpt>
      <trkpt lat="45.2357" lon="5.75132">
        <ele>802</ele>
        <time>2021-11-06T05:32:16.000Z</time>
      </trkpt>
      <trkpt lat="45.23567" lon="5.75134">
        <ele>802.40002441406</ele>
        <time>2021-11-06T05:32:18.000Z</time>
      </trkpt>
      <trkpt lat="45.23563" lon="5.75136">
        <ele>803.40002441406</ele>
        <time>2021-11-06T05:32:21.000Z</time>
      </trkpt>
      <trkpt lat="45.23562" lon="5.75137">
        <ele>803.59997558594</ele>
        <time>2021-11-06T05:32:22.000Z</time>
      </trkpt>
      <trkpt lat="45.2356" lon="5.7514">
        <ele>804.40002441406</ele>
        <time>2021-11-06T05:32:25.000Z</time>
      </trkpt>
      <trkpt lat="45.23558" lon="5.7514">
        <ele>804.59997558594</ele>
        <time>2021-11-06T05:32:26.000Z</time>
      </trkpt>
      <trkpt lat="45.23557" lon="5.75141">
        <ele>804.79998779297</ele>
        <time>2021-11-06T05:32:27.000Z</time>
      </trkpt>
      <trkpt lat="45.23553" lon="5.75143">
        <ele>805.79998779297</ele>
        <time>2021-11-06T05:32:30.000Z</time>
      </trkpt>
      <trkpt lat="45.23545" lon="5.7515">
        <ele>806.79998779297</ele>
        <time>2021-11-06T05:32:34.000Z</time>
      </trkpt>
      <trkpt lat="45.23544" lon="5.75151">
        <ele>807.20001220703</ele>
        <time>2021-11-06T05:32:35.000Z</time>
      </trkpt>
      <trkpt lat="45.2354" lon="5.75152">
        <ele>808</ele>
        <time>2021-11-06T05:32:38.000Z</time>
      </trkpt>
      <trkpt lat="45.23539" lon="5.75153">
        <ele>808.59997558594</ele>
        <time>2021-11-06T05:32:40.000Z</time>
      </trkpt>
      <trkpt lat="45.23539" lon="5.75152">
        <ele>808.79998779297</ele>
        <time>2021-11-06T05:32:41.000Z</time>
      </trkpt>
      <trkpt lat="45.23538" lon="5.75152">
        <ele>809</ele>
        <time>2021-11-06T05:32:42.000Z</time>
      </trkpt>
      <trkpt lat="45.23537" lon="5.75152">
        <ele>809.20001220703</ele>
        <time>2021-11-06T05:32:43.000Z</time>
      </trkpt>
      <trkpt lat="45.23535" lon="5.75153">
        <ele>809.79998779297</ele>
        <time>2021-11-06T05:32:45.000Z</time>
      </trkpt>
      <trkpt lat="45.23535" lon="5.75154">
        <ele>810</ele>
        <time>2021-11-06T05:32:46.000Z</time>
      </trkpt>
      <trkpt lat="45.23533" lon="5.75156">
        <ele>810.20001220703</ele>
        <time>2021-11-06T05:32:47.000Z</time>
      </trkpt>
      <trkpt lat="45.23529" lon="5.75159">
        <ele>811.40002441406</ele>
        <time>2021-11-06T05:32:52.000Z</time>
      </trkpt>
      <trkpt lat="45.23529" lon="5.75159">
        <ele>811.59997558594</ele>
        <time>2021-11-06T05:32:53.000Z</time>
      </trkpt>
      <trkpt lat="45.23525" lon="5.7516">
        <ele>812.59997558594</ele>
        <time>2021-11-06T05:32:56.000Z</time>
      </trkpt>
      <trkpt lat="45.23523" lon="5.75162">
        <ele>813</ele>
        <time>2021-11-06T05:32:58.000Z</time>
      </trkpt>
      <trkpt lat="45.23521" lon="5.75167">
        <ele>813.59997558594</ele>
        <time>2021-11-06T05:33:01.000Z</time>
      </trkpt>
      <trkpt lat="45.2352" lon="5.75168">
        <ele>813.79998779297</ele>
        <time>2021-11-06T05:33:02.000Z</time>
      </trkpt>
      <trkpt lat="45.23518" lon="5.75169">
        <ele>814.59997558594</ele>
        <time>2021-11-06T05:33:05.000Z</time>
      </trkpt>
      <trkpt lat="45.23517" lon="5.75169">
        <ele>815.20001220703</ele>
        <time>2021-11-06T05:33:07.000Z</time>
      </trkpt>
      <trkpt lat="45.23516" lon="5.75174">
        <ele>815.79998779297</ele>
        <time>2021-11-06T05:33:10.000Z</time>
      </trkpt>
      <trkpt lat="45.23515" lon="5.75175">
        <ele>816.40002441406</ele>
        <time>2021-11-06T05:33:12.000Z</time>
      </trkpt>
      <trkpt lat="45.23515" lon="5.75175">
        <ele>816.59997558594</ele>
        <time>2021-11-06T05:33:13.000Z</time>
      </trkpt>
      <trkpt lat="45.23515" lon="5.75176">
        <ele>817</ele>
        <time>2021-11-06T05:33:15.000Z</time>
      </trkpt>
      <trkpt lat="45.23514" lon="5.75176">
        <ele>817.40002441406</ele>
        <time>2021-11-06T05:33:16.000Z</time>
      </trkpt>
      <trkpt lat="45.23513" lon="5.75181">
        <ele>818</ele>
        <time>2021-11-06T05:33:19.000Z</time>
      </trkpt>
      <trkpt lat="45.23512" lon="5.75182">
        <ele>818.40002441406</ele>
        <time>2021-11-06T05:33:20.000Z</time>
      </trkpt>
      <trkpt lat="45.23509" lon="5.75184">
        <ele>819.20001220703</ele>
        <time>2021-11-06T05:33:23.000Z</time>
      </trkpt>
      <trkpt lat="45.23506" lon="5.75186">
        <ele>819.79998779297</ele>
        <time>2021-11-06T05:33:26.000Z</time>
      </trkpt>
      <trkpt lat="45.23505" lon="5.75187">
        <ele>820.40002441406</ele>
        <time>2021-11-06T05:33:28.000Z</time>
      </trkpt>
      <trkpt lat="45.23503" lon="5.7519">
        <ele>821</ele>
        <time>2021-11-06T05:33:30.000Z</time>
      </trkpt>
      <trkpt lat="45.23502" lon="5.75191">
        <ele>821</ele>
        <time>2021-11-06T05:33:31.000Z</time>
      </trkpt>
      <trkpt lat="45.235" lon="5.75192">
        <ele>821.59997558594</ele>
        <time>2021-11-06T05:33:33.000Z</time>
      </trkpt>
      <trkpt lat="45.23499" lon="5.75193">
        <ele>821.79998779297</ele>
        <time>2021-11-06T05:33:35.000Z</time>
      </trkpt>
      <trkpt lat="45.23499" lon="5.75196">
        <ele>822.59997558594</ele>
        <time>2021-11-06T05:33:37.000Z</time>
      </trkpt>
      <trkpt lat="45.23497" lon="5.75198">
        <ele>822.79998779297</ele>
        <time>2021-11-06T05:33:38.000Z</time>
      </trkpt>
      <trkpt lat="45.23492" lon="5.75204">
        <ele>823.79998779297</ele>
        <time>2021-11-06T05:33:42.000Z</time>
      </trkpt>
      <trkpt lat="45.2349" lon="5.75205">
        <ele>824.20001220703</ele>
        <time>2021-11-06T05:33:43.000Z</time>
      </trkpt>
      <trkpt lat="45.23486" lon="5.75206">
        <ele>825</ele>
        <time>2021-11-06T05:33:46.000Z</time>
      </trkpt>
      <trkpt lat="45.23484" lon="5.75206">
        <ele>825.20001220703</ele>
        <time>2021-11-06T05:33:47.000Z</time>
      </trkpt>
      <trkpt lat="45.23481" lon="5.75206">
        <ele>825.59997558594</ele>
        <time>2021-11-06T05:33:49.000Z</time>
      </trkpt>
      <trkpt lat="45.23478" lon="5.75207">
        <ele>826</ele>
        <time>2021-11-06T05:33:51.000Z</time>
      </trkpt>
      <trkpt lat="45.23478" lon="5.75211">
        <ele>827</ele>
        <time>2021-11-06T05:33:54.000Z</time>
      </trkpt>
      <trkpt lat="45.23477" lon="5.75211">
        <ele>827</ele>
        <time>2021-11-06T05:33:55.000Z</time>
      </trkpt>
      <trkpt lat="45.23472" lon="5.75214">
        <ele>828.20001220703</ele>
        <time>2021-11-06T05:33:59.000Z</time>
      </trkpt>
      <trkpt lat="45.2347" lon="5.75216">
        <ele>828.59997558594</ele>
        <time>2021-11-06T05:34:00.000Z</time>
      </trkpt>
      <trkpt lat="45.23467" lon="5.7522">
        <ele>829.59997558594</ele>
        <time>2021-11-06T05:34:04.000Z</time>
      </trkpt>
      <trkpt lat="45.23466" lon="5.75221">
        <ele>830</ele>
        <time>2021-11-06T05:34:05.000Z</time>
      </trkpt>
      <trkpt lat="45.23465" lon="5.75222">
        <ele>830.40002441406</ele>
        <time>2021-11-06T05:34:07.000Z</time>
      </trkpt>
      <trkpt lat="45.23461" lon="5.75225">
        <ele>831</ele>
        <time>2021-11-06T05:34:10.000Z</time>
      </trkpt>
      <trkpt lat="45.23457" lon="5.75228">
        <ele>832</ele>
        <time>2021-11-06T05:34:13.000Z</time>
      </trkpt>
      <trkpt lat="45.23456" lon="5.75229">
        <ele>832.20001220703</ele>
        <time>2021-11-06T05:34:14.000Z</time>
      </trkpt>
      <trkpt lat="45.23452" lon="5.75231">
        <ele>833.20001220703</ele>
        <time>2021-11-06T05:34:18.000Z</time>
      </trkpt>
      <trkpt lat="45.23452" lon="5.75232">
        <ele>833.59997558594</ele>
        <time>2021-11-06T05:34:19.000Z</time>
      </trkpt>
      <trkpt lat="45.23451" lon="5.75233">
        <ele>833.79998779297</ele>
        <time>2021-11-06T05:34:21.000Z</time>
      </trkpt>
      <trkpt lat="45.2345" lon="5.75234">
        <ele>834</ele>
        <time>2021-11-06T05:34:22.000Z</time>
      </trkpt>
      <trkpt lat="45.23449" lon="5.75235">
        <ele>834.79998779297</ele>
        <time>2021-11-06T05:34:24.000Z</time>
      </trkpt>
      <trkpt lat="45.23449" lon="5.75237">
        <ele>835.20001220703</ele>
        <time>2021-11-06T05:34:25.000Z</time>
      </trkpt>
      <trkpt lat="45.23449" lon="5.75241">
        <ele>836</ele>
        <time>2021-11-06T05:34:28.000Z</time>
      </trkpt>
      <trkpt lat="45.23448" lon="5.75243">
        <ele>836.20001220703</ele>
        <time>2021-11-06T05:34:29.000Z</time>
      </trkpt>
      <trkpt lat="45.23446" lon="5.75246">
        <ele>837</ele>
        <time>2021-11-06T05:34:32.000Z</time>
      </trkpt>
      <trkpt lat="45.23446" lon="5.75248">
        <ele>837.20001220703</ele>
        <time>2021-11-06T05:34:33.000Z</time>
      </trkpt>
      <trkpt lat="45.23444" lon="5.75251">
        <ele>838</ele>
        <time>2021-11-06T05:34:37.000Z</time>
      </trkpt>
      <trkpt lat="45.23444" lon="5.75253">
        <ele>838.40002441406</ele>
        <time>2021-11-06T05:34:38.000Z</time>
      </trkpt>
      <trkpt lat="45.2344" lon="5.75254">
        <ele>839.20001220703</ele>
        <time>2021-11-06T05:34:41.000Z</time>
      </trkpt>
      <trkpt lat="45.23439" lon="5.75255">
        <ele>839.40002441406</ele>
        <time>2021-11-06T05:34:42.000Z</time>
      </trkpt>
      <trkpt lat="45.23437" lon="5.75259">
        <ele>840.20001220703</ele>
        <time>2021-11-06T05:34:44.000Z</time>
      </trkpt>
      <trkpt lat="45.23437" lon="5.75262">
        <ele>840.59997558594</ele>
        <time>2021-11-06T05:34:46.000Z</time>
      </trkpt>
      <trkpt lat="45.23435" lon="5.75265">
        <ele>840.79998779297</ele>
        <time>2021-11-06T05:34:48.000Z</time>
      </trkpt>
      <trkpt lat="45.23433" lon="5.75266">
        <ele>841.59997558594</ele>
        <time>2021-11-06T05:34:50.000Z</time>
      </trkpt>
      <trkpt lat="45.23431" lon="5.7527">
        <ele>842.40002441406</ele>
        <time>2021-11-06T05:34:53.000Z</time>
      </trkpt>
      <trkpt lat="45.2343" lon="5.75272">
        <ele>842.59997558594</ele>
        <time>2021-11-06T05:34:54.000Z</time>
      </trkpt>
      <trkpt lat="45.23428" lon="5.75272">
        <ele>842.79998779297</ele>
        <time>2021-11-06T05:34:55.000Z</time>
      </trkpt>
      <trkpt lat="45.23425" lon="5.75273">
        <ele>843.40002441406</ele>
        <time>2021-11-06T05:34:57.000Z</time>
      </trkpt>
      <trkpt lat="45.23423" lon="5.75276">
        <ele>843.79998779297</ele>
        <time>2021-11-06T05:34:59.000Z</time>
      </trkpt>
      <trkpt lat="45.23423" lon="5.75279">
        <ele>844</ele>
        <time>2021-11-06T05:35:01.000Z</time>
      </trkpt>
      <trkpt lat="45.23424" lon="5.75284">
        <ele>844.59997558594</ele>
        <time>2021-11-06T05:35:03.000Z</time>
      </trkpt>
      <trkpt lat="45.23423" lon="5.75285">
        <ele>845</ele>
        <time>2021-11-06T05:35:04.000Z</time>
      </trkpt>
      <trkpt lat="45.23422" lon="5.75286">
        <ele>845.20001220703</ele>
        <time>2021-11-06T05:35:05.000Z</time>
      </trkpt>
      <trkpt lat="45.23419" lon="5.75288">
        <ele>845.79998779297</ele>
        <time>2021-11-06T05:35:08.000Z</time>
      </trkpt>
      <trkpt lat="45.23418" lon="5.75288">
        <ele>846</ele>
        <time>2021-11-06T05:35:09.000Z</time>
      </trkpt>
      <trkpt lat="45.23417" lon="5.75288">
        <ele>846.40002441406</ele>
        <time>2021-11-06T05:35:10.000Z</time>
      </trkpt>
      <trkpt lat="45.23416" lon="5.75294">
        <ele>847.20001220703</ele>
        <time>2021-11-06T05:35:13.000Z</time>
      </trkpt>
      <trkpt lat="45.23417" lon="5.75295">
        <ele>847.40002441406</ele>
        <time>2021-11-06T05:35:14.000Z</time>
      </trkpt>
      <trkpt lat="45.23416" lon="5.75294">
        <ele>848</ele>
        <time>2021-11-06T05:35:17.000Z</time>
      </trkpt>
      <trkpt lat="45.23415" lon="5.75295">
        <ele>848.40002441406</ele>
        <time>2021-11-06T05:35:18.000Z</time>
      </trkpt>
      <trkpt lat="45.23417" lon="5.75299">
        <ele>849.20001220703</ele>
        <time>2021-11-06T05:35:21.000Z</time>
      </trkpt>
      <trkpt lat="45.23417" lon="5.75299">
        <ele>849.40002441406</ele>
        <time>2021-11-06T05:35:22.000Z</time>
      </trkpt>
      <trkpt lat="45.23418" lon="5.753">
        <ele>849.59997558594</ele>
        <time>2021-11-06T05:35:23.000Z</time>
      </trkpt>
      <trkpt lat="45.23421" lon="5.7531">
        <ele>851</ele>
        <time>2021-11-06T05:35:28.000Z</time>
      </trkpt>
      <trkpt lat="45.23419" lon="5.75314">
        <ele>851.59997558594</ele>
        <time>2021-11-06T05:35:30.000Z</time>
      </trkpt>
      <trkpt lat="45.23418" lon="5.75314">
        <ele>852</ele>
        <time>2021-11-06T05:35:31.000Z</time>
      </trkpt>
      <trkpt lat="45.23417" lon="5.75316">
        <ele>852.20001220703</ele>
        <time>2021-11-06T05:35:32.000Z</time>
      </trkpt>
      <trkpt lat="45.23416" lon="5.75319">
        <ele>853</ele>
        <time>2021-11-06T05:35:34.000Z</time>
      </trkpt>
      <trkpt lat="45.23415" lon="5.7532">
        <ele>853.20001220703</ele>
        <time>2021-11-06T05:35:35.000Z</time>
      </trkpt>
      <trkpt lat="45.23411" lon="5.75321">
        <ele>853.79998779297</ele>
        <time>2021-11-06T05:35:37.000Z</time>
      </trkpt>
      <trkpt lat="45.2341" lon="5.75323">
        <ele>854</ele>
        <time>2021-11-06T05:35:38.000Z</time>
      </trkpt>
      <trkpt lat="45.23409" lon="5.75324">
        <ele>854.40002441406</ele>
        <time>2021-11-06T05:35:39.000Z</time>
      </trkpt>
      <trkpt lat="45.23408" lon="5.75325">
        <ele>854.59997558594</ele>
        <time>2021-11-06T05:35:40.000Z</time>
      </trkpt>
      <trkpt lat="45.23406" lon="5.75325">
        <ele>855</ele>
        <time>2021-11-06T05:35:42.000Z</time>
      </trkpt>
      <trkpt lat="45.23404" lon="5.75327">
        <ele>855.59997558594</ele>
        <time>2021-11-06T05:35:44.000Z</time>
      </trkpt>
      <trkpt lat="45.23403" lon="5.75328">
        <ele>856.40002441406</ele>
        <time>2021-11-06T05:35:46.000Z</time>
      </trkpt>
      <trkpt lat="45.23402" lon="5.7533">
        <ele>856.59997558594</ele>
        <time>2021-11-06T05:35:47.000Z</time>
      </trkpt>
      <trkpt lat="45.23398" lon="5.75336">
        <ele>857.79998779297</ele>
        <time>2021-11-06T05:35:52.000Z</time>
      </trkpt>
      <trkpt lat="45.23392" lon="5.75341">
        <ele>859</ele>
        <time>2021-11-06T05:35:57.000Z</time>
      </trkpt>
      <trkpt lat="45.23391" lon="5.75342">
        <ele>859.20001220703</ele>
        <time>2021-11-06T05:35:58.000Z</time>
      </trkpt>
      <trkpt lat="45.23391" lon="5.75344">
        <ele>859.40002441406</ele>
        <time>2021-11-06T05:35:59.000Z</time>
      </trkpt>
      <trkpt lat="45.23389" lon="5.75348">
        <ele>859.59997558594</ele>
        <time>2021-11-06T05:36:01.000Z</time>
      </trkpt>
      <trkpt lat="45.23389" lon="5.75349">
        <ele>860</ele>
        <time>2021-11-06T05:36:02.000Z</time>
      </trkpt>
      <trkpt lat="45.23388" lon="5.75351">
        <ele>860.40002441406</ele>
        <time>2021-11-06T05:36:03.000Z</time>
      </trkpt>
      <trkpt lat="45.23387" lon="5.75352">
        <ele>860.79998779297</ele>
        <time>2021-11-06T05:36:05.000Z</time>
      </trkpt>
      <trkpt lat="45.23385" lon="5.75353">
        <ele>861.40002441406</ele>
        <time>2021-11-06T05:36:07.000Z</time>
      </trkpt>
      <trkpt lat="45.23382" lon="5.75353">
        <ele>862</ele>
        <time>2021-11-06T05:36:09.000Z</time>
      </trkpt>
      <trkpt lat="45.23379" lon="5.75353">
        <ele>862.59997558594</ele>
        <time>2021-11-06T05:36:12.000Z</time>
      </trkpt>
      <trkpt lat="45.23377" lon="5.75354">
        <ele>863.20001220703</ele>
        <time>2021-11-06T05:36:14.000Z</time>
      </trkpt>
      <trkpt lat="45.23375" lon="5.75354">
        <ele>863.79998779297</ele>
        <time>2021-11-06T05:36:16.000Z</time>
      </trkpt>
      <trkpt lat="45.23371" lon="5.75357">
        <ele>864.79998779297</ele>
        <time>2021-11-06T05:36:20.000Z</time>
      </trkpt>
      <trkpt lat="45.2337" lon="5.75358">
        <ele>865.20001220703</ele>
        <time>2021-11-06T05:36:21.000Z</time>
      </trkpt>
      <trkpt lat="45.23365" lon="5.75362">
        <ele>866.20001220703</ele>
        <time>2021-11-06T05:36:26.000Z</time>
      </trkpt>
      <trkpt lat="45.23362" lon="5.75362">
        <ele>866.79998779297</ele>
        <time>2021-11-06T05:36:28.000Z</time>
      </trkpt>
      <trkpt lat="45.23361" lon="5.75363">
        <ele>867.40002441406</ele>
        <time>2021-11-06T05:36:30.000Z</time>
      </trkpt>
      <trkpt lat="45.2336" lon="5.75365">
        <ele>868</ele>
        <time>2021-11-06T05:36:32.000Z</time>
      </trkpt>
      <trkpt lat="45.23359" lon="5.75366">
        <ele>868.20001220703</ele>
        <time>2021-11-06T05:36:33.000Z</time>
      </trkpt>
      <trkpt lat="45.23359" lon="5.75367">
        <ele>868.40002441406</ele>
        <time>2021-11-06T05:36:34.000Z</time>
      </trkpt>
      <trkpt lat="45.23357" lon="5.7537">
        <ele>868.79998779297</ele>
        <time>2021-11-06T05:36:37.000Z</time>
      </trkpt>
      <trkpt lat="45.23354" lon="5.75373">
        <ele>869.59997558594</ele>
        <time>2021-11-06T05:36:39.000Z</time>
      </trkpt>
      <trkpt lat="45.23349" lon="5.75375">
        <ele>870.40002441406</ele>
        <time>2021-11-06T05:36:43.000Z</time>
      </trkpt>
      <trkpt lat="45.23347" lon="5.75374">
        <ele>870.79998779297</ele>
        <time>2021-11-06T05:36:45.000Z</time>
      </trkpt>
      <trkpt lat="45.23342" lon="5.75376">
        <ele>871.79998779297</ele>
        <time>2021-11-06T05:36:48.000Z</time>
      </trkpt>
      <trkpt lat="45.23339" lon="5.75376">
        <ele>872.40002441406</ele>
        <time>2021-11-06T05:36:51.000Z</time>
      </trkpt>
      <trkpt lat="45.23337" lon="5.75379">
        <ele>873.20001220703</ele>
        <time>2021-11-06T05:36:53.000Z</time>
      </trkpt>
      <trkpt lat="45.23337" lon="5.7538">
        <ele>873.40002441406</ele>
        <time>2021-11-06T05:36:54.000Z</time>
      </trkpt>
      <trkpt lat="45.23336" lon="5.75386">
        <ele>874.40002441406</ele>
        <time>2021-11-06T05:36:58.000Z</time>
      </trkpt>
      <trkpt lat="45.23331" lon="5.75391">
        <ele>875.40002441406</ele>
        <time>2021-11-06T05:37:03.000Z</time>
      </trkpt>
      <trkpt lat="45.23328" lon="5.75392">
        <ele>876.40002441406</ele>
        <time>2021-11-06T05:37:06.000Z</time>
      </trkpt>
      <trkpt lat="45.23327" lon="5.75394">
        <ele>876.59997558594</ele>
        <time>2021-11-06T05:37:07.000Z</time>
      </trkpt>
      <trkpt lat="45.23326" lon="5.75395">
        <ele>876.79998779297</ele>
        <time>2021-11-06T05:37:08.000Z</time>
      </trkpt>
      <trkpt lat="45.23326" lon="5.75395">
        <ele>877</ele>
        <time>2021-11-06T05:37:09.000Z</time>
      </trkpt>
      <trkpt lat="45.23323" lon="5.75397">
        <ele>877.59997558594</ele>
        <time>2021-11-06T05:37:11.000Z</time>
      </trkpt>
      <trkpt lat="45.23322" lon="5.75398">
        <ele>877.79998779297</ele>
        <time>2021-11-06T05:37:12.000Z</time>
      </trkpt>
      <trkpt lat="45.23321" lon="5.75399">
        <ele>878.20001220703</ele>
        <time>2021-11-06T05:37:13.000Z</time>
      </trkpt>
      <trkpt lat="45.23319" lon="5.75399">
        <ele>878.20001220703</ele>
        <time>2021-11-06T05:37:14.000Z</time>
      </trkpt>
      <trkpt lat="45.23315" lon="5.75401">
        <ele>878.79998779297</ele>
        <time>2021-11-06T05:37:16.000Z</time>
      </trkpt>
      <trkpt lat="45.23315" lon="5.75404">
        <ele>879.20001220703</ele>
        <time>2021-11-06T05:37:17.000Z</time>
      </trkpt>
      <trkpt lat="45.23316" lon="5.75406">
        <ele>879.59997558594</ele>
        <time>2021-11-06T05:37:18.000Z</time>
      </trkpt>
      <trkpt lat="45.23316" lon="5.75408">
        <ele>879.79998779297</ele>
        <time>2021-11-06T05:37:19.000Z</time>
      </trkpt>
      <trkpt lat="45.23315" lon="5.75408">
        <ele>880</ele>
        <time>2021-11-06T05:37:20.000Z</time>
      </trkpt>
      <trkpt lat="45.23313" lon="5.75411">
        <ele>880.59997558594</ele>
        <time>2021-11-06T05:37:23.000Z</time>
      </trkpt>
      <trkpt lat="45.23312" lon="5.75411">
        <ele>881</ele>
        <time>2021-11-06T05:37:24.000Z</time>
      </trkpt>
      <trkpt lat="45.23307" lon="5.75416">
        <ele>882</ele>
        <time>2021-11-06T05:37:28.000Z</time>
      </trkpt>
      <trkpt lat="45.23307" lon="5.75418">
        <ele>882.20001220703</ele>
        <time>2021-11-06T05:37:29.000Z</time>
      </trkpt>
      <trkpt lat="45.23304" lon="5.75421">
        <ele>882.79998779297</ele>
        <time>2021-11-06T05:37:32.000Z</time>
      </trkpt>
      <trkpt lat="45.23304" lon="5.75422">
        <ele>883</ele>
        <time>2021-11-06T05:37:33.000Z</time>
      </trkpt>
      <trkpt lat="45.23303" lon="5.75423">
        <ele>883.40002441406</ele>
        <time>2021-11-06T05:37:34.000Z</time>
      </trkpt>
      <trkpt lat="45.233" lon="5.75427">
        <ele>884.59997558594</ele>
        <time>2021-11-06T05:37:38.000Z</time>
      </trkpt>
      <trkpt lat="45.23299" lon="5.75428">
        <ele>885</ele>
        <time>2021-11-06T05:37:39.000Z</time>
      </trkpt>
      <trkpt lat="45.23298" lon="5.75432">
        <ele>885.59997558594</ele>
        <time>2021-11-06T05:37:42.000Z</time>
      </trkpt>
      <trkpt lat="45.23297" lon="5.75432">
        <ele>885.79998779297</ele>
        <time>2021-11-06T05:37:43.000Z</time>
      </trkpt>
      <trkpt lat="45.23295" lon="5.75433">
        <ele>886.40002441406</ele>
        <time>2021-11-06T05:37:45.000Z</time>
      </trkpt>
      <trkpt lat="45.23291" lon="5.75436">
        <ele>886.59997558594</ele>
        <time>2021-11-06T05:37:48.000Z</time>
      </trkpt>
      <trkpt lat="45.2329" lon="5.75438">
        <ele>887</ele>
        <time>2021-11-06T05:37:49.000Z</time>
      </trkpt>
      <trkpt lat="45.23288" lon="5.7544">
        <ele>887.59997558594</ele>
        <time>2021-11-06T05:37:51.000Z</time>
      </trkpt>
      <trkpt lat="45.23287" lon="5.7544">
        <ele>887.79998779297</ele>
        <time>2021-11-06T05:37:52.000Z</time>
      </trkpt>
      <trkpt lat="45.23286" lon="5.75444">
        <ele>888.79998779297</ele>
        <time>2021-11-06T05:37:55.000Z</time>
      </trkpt>
      <trkpt lat="45.23285" lon="5.75446">
        <ele>889.40002441406</ele>
        <time>2021-11-06T05:37:57.000Z</time>
      </trkpt>
      <trkpt lat="45.23284" lon="5.75451">
        <ele>890</ele>
        <time>2021-11-06T05:37:59.000Z</time>
      </trkpt>
      <trkpt lat="45.23284" lon="5.75453">
        <ele>890.20001220703</ele>
        <time>2021-11-06T05:38:01.000Z</time>
      </trkpt>
      <trkpt lat="45.23283" lon="5.75455">
        <ele>890.40002441406</ele>
        <time>2021-11-06T05:38:02.000Z</time>
      </trkpt>
      <trkpt lat="45.23281" lon="5.75456">
        <ele>891</ele>
        <time>2021-11-06T05:38:04.000Z</time>
      </trkpt>
      <trkpt lat="45.23279" lon="5.75457">
        <ele>891.40002441406</ele>
        <time>2021-11-06T05:38:06.000Z</time>
      </trkpt>
      <trkpt lat="45.23279" lon="5.75457">
        <ele>891.59997558594</ele>
        <time>2021-11-06T05:38:07.000Z</time>
      </trkpt>
      <trkpt lat="45.23278" lon="5.75458">
        <ele>891.79998779297</ele>
        <time>2021-11-06T05:38:08.000Z</time>
      </trkpt>
      <trkpt lat="45.23277" lon="5.7546">
        <ele>892.20001220703</ele>
        <time>2021-11-06T05:38:09.000Z</time>
      </trkpt>
      <trkpt lat="45.23276" lon="5.75461">
        <ele>892.40002441406</ele>
        <time>2021-11-06T05:38:10.000Z</time>
      </trkpt>
      <trkpt lat="45.23274" lon="5.75464">
        <ele>892.79998779297</ele>
        <time>2021-11-06T05:38:12.000Z</time>
      </trkpt>
      <trkpt lat="45.23274" lon="5.75466">
        <ele>893</ele>
        <time>2021-11-06T05:38:13.000Z</time>
      </trkpt>
      <trkpt lat="45.23274" lon="5.75467">
        <ele>893.40002441406</ele>
        <time>2021-11-06T05:38:14.000Z</time>
      </trkpt>
      <trkpt lat="45.23273" lon="5.75469">
        <ele>893.59997558594</ele>
        <time>2021-11-06T05:38:15.000Z</time>
      </trkpt>
      <trkpt lat="45.23269" lon="5.75473">
        <ele>894.20001220703</ele>
        <time>2021-11-06T05:38:18.000Z</time>
      </trkpt>
      <trkpt lat="45.23268" lon="5.75475">
        <ele>894.59997558594</ele>
        <time>2021-11-06T05:38:19.000Z</time>
      </trkpt>
      <trkpt lat="45.23268" lon="5.75477">
        <ele>894.79998779297</ele>
        <time>2021-11-06T05:38:20.000Z</time>
      </trkpt>
      <trkpt lat="45.23268" lon="5.75485">
        <ele>895.20001220703</ele>
        <time>2021-11-06T05:38:23.000Z</time>
      </trkpt>
      <trkpt lat="45.23269" lon="5.75487">
        <ele>895.59997558594</ele>
        <time>2021-11-06T05:38:24.000Z</time>
      </trkpt>
      <trkpt lat="45.23269" lon="5.75489">
        <ele>896</ele>
        <time>2021-11-06T05:38:25.000Z</time>
      </trkpt>
      <trkpt lat="45.23268" lon="5.7549">
        <ele>896.20001220703</ele>
        <time>2021-11-06T05:38:27.000Z</time>
      </trkpt>
      <trkpt lat="45.23268" lon="5.7549">
        <ele>896.20001220703</ele>
        <time>2021-11-06T05:38:28.000Z</time>
      </trkpt>
      <trkpt lat="45.23266" lon="5.75492">
        <ele>896.20001220703</ele>
        <time>2021-11-06T05:38:36.000Z</time>
      </trkpt>
      <trkpt lat="45.23265" lon="5.75491">
        <ele>896</ele>
        <time>2021-11-06T05:38:40.000Z</time>
      </trkpt>
      <trkpt lat="45.23265" lon="5.7549">
        <ele>896</ele>
        <time>2021-11-06T05:38:44.000Z</time>
      </trkpt>
      <trkpt lat="45.23265" lon="5.7549">
        <ele>896</ele>
        <time>2021-11-06T05:38:48.000Z</time>
      </trkpt>
      <trkpt lat="45.23265" lon="5.7549">
        <ele>896</ele>
        <time>2021-11-06T05:38:53.000Z</time>
      </trkpt>
      <trkpt lat="45.23265" lon="5.7549">
        <ele>896.20001220703</ele>
        <time>2021-11-06T05:38:56.000Z</time>
      </trkpt>
      <trkpt lat="45.23264" lon="5.7549">
        <ele>896.40002441406</ele>
        <time>2021-11-06T05:39:00.000Z</time>
      </trkpt>
      <trkpt lat="45.23263" lon="5.7549">
        <ele>896.40002441406</ele>
        <time>2021-11-06T05:39:02.000Z</time>
      </trkpt>
      <trkpt lat="45.23263" lon="5.7549">
        <ele>896.20001220703</ele>
        <time>2021-11-06T05:39:06.000Z</time>
      </trkpt>
      <trkpt lat="45.23263" lon="5.7549">
        <ele>896.20001220703</ele>
        <time>2021-11-06T05:39:13.000Z</time>
      </trkpt>
      <trkpt lat="45.23263" lon="5.7549">
        <ele>895.59997558594</ele>
        <time>2021-11-06T05:39:23.000Z</time>
      </trkpt>
      <trkpt lat="45.23269" lon="5.75491">
        <ele>895.79998779297</ele>
        <time>2021-11-06T05:39:30.000Z</time>
      </trkpt>
      <trkpt lat="45.23275" lon="5.75489">
        <ele>896.59997558594</ele>
        <time>2021-11-06T05:39:34.000Z</time>
      </trkpt>
      <trkpt lat="45.23277" lon="5.75488">
        <ele>897.20001220703</ele>
        <time>2021-11-06T05:39:36.000Z</time>
      </trkpt>
      <trkpt lat="45.23278" lon="5.75488">
        <ele>897.40002441406</ele>
        <time>2021-11-06T05:39:37.000Z</time>
      </trkpt>
      <trkpt lat="45.23279" lon="5.75487">
        <ele>897.59997558594</ele>
        <time>2021-11-06T05:39:38.000Z</time>
      </trkpt>
      <trkpt lat="45.2328" lon="5.75487">
        <ele>897.79998779297</ele>
        <time>2021-11-06T05:39:39.000Z</time>
      </trkpt>
      <trkpt lat="45.23283" lon="5.75487">
        <ele>898.59997558594</ele>
        <time>2021-11-06T05:39:41.000Z</time>
      </trkpt>
      <trkpt lat="45.23285" lon="5.75486">
        <ele>899</ele>
        <time>2021-11-06T05:39:43.000Z</time>
      </trkpt>
      <trkpt lat="45.23287" lon="5.75484">
        <ele>899.40002441406</ele>
        <time>2021-11-06T05:39:45.000Z</time>
      </trkpt>
      <trkpt lat="45.23289" lon="5.75481">
        <ele>900.20001220703</ele>
        <time>2021-11-06T05:39:48.000Z</time>
      </trkpt>
      <trkpt lat="45.23293" lon="5.75478">
        <ele>901.20001220703</ele>
        <time>2021-11-06T05:39:52.000Z</time>
      </trkpt>
      <trkpt lat="45.23296" lon="5.75476">
        <ele>902.20001220703</ele>
        <time>2021-11-06T05:39:55.000Z</time>
      </trkpt>
      <trkpt lat="45.23301" lon="5.75473">
        <ele>903.40002441406</ele>
        <time>2021-11-06T05:39:59.000Z</time>
      </trkpt>
      <trkpt lat="45.23302" lon="5.75473">
        <ele>903.59997558594</ele>
        <time>2021-11-06T05:40:00.000Z</time>
      </trkpt>
      <trkpt lat="45.23305" lon="5.75472">
        <ele>904.20001220703</ele>
        <time>2021-11-06T05:40:03.000Z</time>
      </trkpt>
      <trkpt lat="45.23306" lon="5.75472">
        <ele>904.59997558594</ele>
        <time>2021-11-06T05:40:04.000Z</time>
      </trkpt>
      <trkpt lat="45.23309" lon="5.75471">
        <ele>905</ele>
        <time>2021-11-06T05:40:06.000Z</time>
      </trkpt>
      <trkpt lat="45.2331" lon="5.7547">
        <ele>905.59997558594</ele>
        <time>2021-11-06T05:40:07.000Z</time>
      </trkpt>
      <trkpt lat="45.23317" lon="5.75468">
        <ele>907</ele>
        <time>2021-11-06T05:40:12.000Z</time>
      </trkpt>
      <trkpt lat="45.23319" lon="5.75468">
        <ele>907.59997558594</ele>
        <time>2021-11-06T05:40:14.000Z</time>
      </trkpt>
      <trkpt lat="45.23325" lon="5.75467">
        <ele>908.59997558594</ele>
        <time>2021-11-06T05:40:18.000Z</time>
      </trkpt>
      <trkpt lat="45.23326" lon="5.75466">
        <ele>909.20001220703</ele>
        <time>2021-11-06T05:40:20.000Z</time>
      </trkpt>
      <trkpt lat="45.23329" lon="5.75465">
        <ele>909.59997558594</ele>
        <time>2021-11-06T05:40:22.000Z</time>
      </trkpt>
      <trkpt lat="45.23334" lon="5.75465">
        <ele>910.79998779297</ele>
        <time>2021-11-06T05:40:26.000Z</time>
      </trkpt>
      <trkpt lat="45.23337" lon="5.75465">
        <ele>911.20001220703</ele>
        <time>2021-11-06T05:40:28.000Z</time>
      </trkpt>
      <trkpt lat="45.23341" lon="5.75464">
        <ele>911.79998779297</ele>
        <time>2021-11-06T05:40:31.000Z</time>
      </trkpt>
      <trkpt lat="45.23342" lon="5.75464">
        <ele>912</ele>
        <time>2021-11-06T05:40:32.000Z</time>
      </trkpt>
      <trkpt lat="45.23346" lon="5.75463">
        <ele>912.79998779297</ele>
        <time>2021-11-06T05:40:35.000Z</time>
      </trkpt>
      <trkpt lat="45.23347" lon="5.75462">
        <ele>913</ele>
        <time>2021-11-06T05:40:36.000Z</time>
      </trkpt>
      <trkpt lat="45.23348" lon="5.75463">
        <ele>913.20001220703</ele>
        <time>2021-11-06T05:40:37.000Z</time>
      </trkpt>
      <trkpt lat="45.23352" lon="5.75462">
        <ele>914</ele>
        <time>2021-11-06T05:40:40.000Z</time>
      </trkpt>
      <trkpt lat="45.23352" lon="5.75462">
        <ele>914.40002441406</ele>
        <time>2021-11-06T05:40:41.000Z</time>
      </trkpt>
      <trkpt lat="45.23354" lon="5.75461">
        <ele>914.79998779297</ele>
        <time>2021-11-06T05:40:43.000Z</time>
      </trkpt>
      <trkpt lat="45.23355" lon="5.75462">
        <ele>915</ele>
        <time>2021-11-06T05:40:44.000Z</time>
      </trkpt>
      <trkpt lat="45.23357" lon="5.75461">
        <ele>915.59997558594</ele>
        <time>2021-11-06T05:40:46.000Z</time>
      </trkpt>
      <trkpt lat="45.23359" lon="5.7546">
        <ele>916.20001220703</ele>
        <time>2021-11-06T05:40:48.000Z</time>
      </trkpt>
      <trkpt lat="45.23364" lon="5.75459">
        <ele>917</ele>
        <time>2021-11-06T05:40:51.000Z</time>
      </trkpt>
      <trkpt lat="45.23367" lon="5.75458">
        <ele>917.40002441406</ele>
        <time>2021-11-06T05:40:53.000Z</time>
      </trkpt>
      <trkpt lat="45.23369" lon="5.75458">
        <ele>917.79998779297</ele>
        <time>2021-11-06T05:40:54.000Z</time>
      </trkpt>
      <trkpt lat="45.23372" lon="5.75458">
        <ele>918.40002441406</ele>
        <time>2021-11-06T05:40:56.000Z</time>
      </trkpt>
      <trkpt lat="45.23375" lon="5.75456">
        <ele>919.20001220703</ele>
        <time>2021-11-06T05:41:00.000Z</time>
      </trkpt>
      <trkpt lat="45.23377" lon="5.75456">
        <ele>919.59997558594</ele>
        <time>2021-11-06T05:41:01.000Z</time>
      </trkpt>
      <trkpt lat="45.23378" lon="5.75457">
        <ele>920</ele>
        <time>2021-11-06T05:41:02.000Z</time>
      </trkpt>
      <trkpt lat="45.23379" lon="5.75456">
        <ele>920.20001220703</ele>
        <time>2021-11-06T05:41:03.000Z</time>
      </trkpt>
      <trkpt lat="45.2338" lon="5.75455">
        <ele>920.79998779297</ele>
        <time>2021-11-06T05:41:05.000Z</time>
      </trkpt>
      <trkpt lat="45.23383" lon="5.75456">
        <ele>921.20001220703</ele>
        <time>2021-11-06T05:41:07.000Z</time>
      </trkpt>
      <trkpt lat="45.23385" lon="5.75455">
        <ele>922</ele>
        <time>2021-11-06T05:41:09.000Z</time>
      </trkpt>
      <trkpt lat="45.23389" lon="5.75455">
        <ele>922.59997558594</ele>
        <time>2021-11-06T05:41:13.000Z</time>
      </trkpt>
      <trkpt lat="45.23391" lon="5.75454">
        <ele>923</ele>
        <time>2021-11-06T05:41:15.000Z</time>
      </trkpt>
      <trkpt lat="45.23394" lon="5.75455">
        <ele>923.40002441406</ele>
        <time>2021-11-06T05:41:17.000Z</time>
      </trkpt>
      <trkpt lat="45.23396" lon="5.75455">
        <ele>923.59997558594</ele>
        <time>2021-11-06T05:41:18.000Z</time>
      </trkpt>
      <trkpt lat="45.23398" lon="5.75456">
        <ele>924.20001220703</ele>
        <time>2021-11-06T05:41:20.000Z</time>
      </trkpt>
      <trkpt lat="45.23401" lon="5.75457">
        <ele>924.59997558594</ele>
        <time>2021-11-06T05:41:23.000Z</time>
      </trkpt>
      <trkpt lat="45.23403" lon="5.75458">
        <ele>925.40002441406</ele>
        <time>2021-11-06T05:41:25.000Z</time>
      </trkpt>
      <trkpt lat="45.23407" lon="5.75458">
        <ele>926.40002441406</ele>
        <time>2021-11-06T05:41:30.000Z</time>
      </trkpt>
      <trkpt lat="45.23409" lon="5.75458">
        <ele>927</ele>
        <time>2021-11-06T05:41:31.000Z</time>
      </trkpt>
      <trkpt lat="45.23414" lon="5.75457">
        <ele>927.59997558594</ele>
        <time>2021-11-06T05:41:35.000Z</time>
      </trkpt>
      <trkpt lat="45.23415" lon="5.75458">
        <ele>927.79998779297</ele>
        <time>2021-11-06T05:41:36.000Z</time>
      </trkpt>
      <trkpt lat="45.23419" lon="5.75458">
        <ele>928.59997558594</ele>
        <time>2021-11-06T05:41:39.000Z</time>
      </trkpt>
      <trkpt lat="45.23424" lon="5.75461">
        <ele>929.59997558594</ele>
        <time>2021-11-06T05:41:43.000Z</time>
      </trkpt>
      <trkpt lat="45.23425" lon="5.75461">
        <ele>929.79998779297</ele>
        <time>2021-11-06T05:41:44.000Z</time>
      </trkpt>
      <trkpt lat="45.23426" lon="5.75461">
        <ele>930.20001220703</ele>
        <time>2021-11-06T05:41:45.000Z</time>
      </trkpt>
      <trkpt lat="45.2343" lon="5.75461">
        <ele>931.20001220703</ele>
        <time>2021-11-06T05:41:48.000Z</time>
      </trkpt>
      <trkpt lat="45.23432" lon="5.75458">
        <ele>931.59997558594</ele>
        <time>2021-11-06T05:41:50.000Z</time>
      </trkpt>
      <trkpt lat="45.23436" lon="5.75456">
        <ele>932.40002441406</ele>
        <time>2021-11-06T05:41:53.000Z</time>
      </trkpt>
      <trkpt lat="45.23438" lon="5.75458">
        <ele>933</ele>
        <time>2021-11-06T05:41:55.000Z</time>
      </trkpt>
      <trkpt lat="45.23439" lon="5.75459">
        <ele>933</ele>
        <time>2021-11-06T05:41:56.000Z</time>
      </trkpt>
      <trkpt lat="45.23441" lon="5.75461">
        <ele>933.59997558594</ele>
        <time>2021-11-06T05:41:58.000Z</time>
      </trkpt>
      <trkpt lat="45.23445" lon="5.75461">
        <ele>934.79998779297</ele>
        <time>2021-11-06T05:42:02.000Z</time>
      </trkpt>
      <trkpt lat="45.23446" lon="5.75463">
        <ele>935</ele>
        <time>2021-11-06T05:42:03.000Z</time>
      </trkpt>
      <trkpt lat="45.2345" lon="5.75465">
        <ele>935.79998779297</ele>
        <time>2021-11-06T05:42:06.000Z</time>
      </trkpt>
      <trkpt lat="45.23452" lon="5.75465">
        <ele>936.20001220703</ele>
        <time>2021-11-06T05:42:08.000Z</time>
      </trkpt>
      <trkpt lat="45.23454" lon="5.75467">
        <ele>936.59997558594</ele>
        <time>2021-11-06T05:42:10.000Z</time>
      </trkpt>
      <trkpt lat="45.23456" lon="5.75467">
        <ele>937</ele>
        <time>2021-11-06T05:42:11.000Z</time>
      </trkpt>
      <trkpt lat="45.23457" lon="5.75467">
        <ele>937.40002441406</ele>
        <time>2021-11-06T05:42:12.000Z</time>
      </trkpt>
      <trkpt lat="45.2346" lon="5.75468">
        <ele>938.20001220703</ele>
        <time>2021-11-06T05:42:15.000Z</time>
      </trkpt>
      <trkpt lat="45.2346" lon="5.75467">
        <ele>938.79998779297</ele>
        <time>2021-11-06T05:42:16.000Z</time>
      </trkpt>
      <trkpt lat="45.23462" lon="5.75465">
        <ele>939.40002441406</ele>
        <time>2021-11-06T05:42:18.000Z</time>
      </trkpt>
      <trkpt lat="45.23467" lon="5.75463">
        <ele>939.79998779297</ele>
        <time>2021-11-06T05:42:21.000Z</time>
      </trkpt>
      <trkpt lat="45.23468" lon="5.75463">
        <ele>940</ele>
        <time>2021-11-06T05:42:22.000Z</time>
      </trkpt>
      <trkpt lat="45.23473" lon="5.75465">
        <ele>940.59997558594</ele>
        <time>2021-11-06T05:42:26.000Z</time>
      </trkpt>
      <trkpt lat="45.23474" lon="5.75464">
        <ele>940.79998779297</ele>
        <time>2021-11-06T05:42:27.000Z</time>
      </trkpt>
      <trkpt lat="45.23477" lon="5.75465">
        <ele>941.79998779297</ele>
        <time>2021-11-06T05:42:30.000Z</time>
      </trkpt>
      <trkpt lat="45.2348" lon="5.75467">
        <ele>942.79998779297</ele>
        <time>2021-11-06T05:42:34.000Z</time>
      </trkpt>
      <trkpt lat="45.23481" lon="5.75468">
        <ele>943</ele>
        <time>2021-11-06T05:42:35.000Z</time>
      </trkpt>
      <trkpt lat="45.23485" lon="5.75468">
        <ele>943.79998779297</ele>
        <time>2021-11-06T05:42:40.000Z</time>
      </trkpt>
      <trkpt lat="45.23488" lon="5.75469">
        <ele>944.40002441406</ele>
        <time>2021-11-06T05:42:43.000Z</time>
      </trkpt>
      <trkpt lat="45.23489" lon="5.7547">
        <ele>945</ele>
        <time>2021-11-06T05:42:44.000Z</time>
      </trkpt>
      <trkpt lat="45.2349" lon="5.75472">
        <ele>945.40002441406</ele>
        <time>2021-11-06T05:42:46.000Z</time>
      </trkpt>
      <trkpt lat="45.2349" lon="5.75476">
        <ele>946.20001220703</ele>
        <time>2021-11-06T05:42:49.000Z</time>
      </trkpt>
      <trkpt lat="45.23486" lon="5.75476">
        <ele>947.40002441406</ele>
        <time>2021-11-06T05:42:52.000Z</time>
      </trkpt>
      <trkpt lat="45.23483" lon="5.75478">
        <ele>948.40002441406</ele>
        <time>2021-11-06T05:42:55.000Z</time>
      </trkpt>
      <trkpt lat="45.23482" lon="5.75479">
        <ele>948.59997558594</ele>
        <time>2021-11-06T05:42:56.000Z</time>
      </trkpt>
      <trkpt lat="45.23481" lon="5.75479">
        <ele>948.79998779297</ele>
        <time>2021-11-06T05:42:57.000Z</time>
      </trkpt>
      <trkpt lat="45.23476" lon="5.7548">
        <ele>949.79998779297</ele>
        <time>2021-11-06T05:43:01.000Z</time>
      </trkpt>
      <trkpt lat="45.23471" lon="5.75481">
        <ele>951</ele>
        <time>2021-11-06T05:43:06.000Z</time>
      </trkpt>
      <trkpt lat="45.2347" lon="5.75484">
        <ele>951.79998779297</ele>
        <time>2021-11-06T05:43:08.000Z</time>
      </trkpt>
      <trkpt lat="45.2347" lon="5.75485">
        <ele>952.20001220703</ele>
        <time>2021-11-06T05:43:09.000Z</time>
      </trkpt>
      <trkpt lat="45.23468" lon="5.75489">
        <ele>952.59997558594</ele>
        <time>2021-11-06T05:43:11.000Z</time>
      </trkpt>
      <trkpt lat="45.23467" lon="5.75492">
        <ele>953.20001220703</ele>
        <time>2021-11-06T05:43:13.000Z</time>
      </trkpt>
      <trkpt lat="45.23464" lon="5.75492">
        <ele>954.20001220703</ele>
        <time>2021-11-06T05:43:15.000Z</time>
      </trkpt>
      <trkpt lat="45.23462" lon="5.75492">
        <ele>954.40002441406</ele>
        <time>2021-11-06T05:43:16.000Z</time>
      </trkpt>
      <trkpt lat="45.23461" lon="5.75492">
        <ele>954.79998779297</ele>
        <time>2021-11-06T05:43:17.000Z</time>
      </trkpt>
      <trkpt lat="45.23459" lon="5.75492">
        <ele>955</ele>
        <time>2021-11-06T05:43:19.000Z</time>
      </trkpt>
      <trkpt lat="45.23457" lon="5.75491">
        <ele>955.20001220703</ele>
        <time>2021-11-06T05:43:20.000Z</time>
      </trkpt>
      <trkpt lat="45.23454" lon="5.75491">
        <ele>955.20001220703</ele>
        <time>2021-11-06T05:43:22.000Z</time>
      </trkpt>
      <trkpt lat="45.23453" lon="5.75492">
        <ele>955.40002441406</ele>
        <time>2021-11-06T05:43:23.000Z</time>
      </trkpt>
      <trkpt lat="45.23451" lon="5.75498">
        <ele>956.20001220703</ele>
        <time>2021-11-06T05:43:26.000Z</time>
      </trkpt>
      <trkpt lat="45.23451" lon="5.75501">
        <ele>956.40002441406</ele>
        <time>2021-11-06T05:43:28.000Z</time>
      </trkpt>
      <trkpt lat="45.23449" lon="5.75505">
        <ele>957.20001220703</ele>
        <time>2021-11-06T05:43:30.000Z</time>
      </trkpt>
      <trkpt lat="45.23447" lon="5.75508">
        <ele>957.59997558594</ele>
        <time>2021-11-06T05:43:32.000Z</time>
      </trkpt>
      <trkpt lat="45.23446" lon="5.75509">
        <ele>957.79998779297</ele>
        <time>2021-11-06T05:43:33.000Z</time>
      </trkpt>
      <trkpt lat="45.23444" lon="5.75511">
        <ele>958.79998779297</ele>
        <time>2021-11-06T05:43:36.000Z</time>
      </trkpt>
      <trkpt lat="45.23441" lon="5.75511">
        <ele>959.40002441406</ele>
        <time>2021-11-06T05:43:38.000Z</time>
      </trkpt>
      <trkpt lat="45.2344" lon="5.75514">
        <ele>959.59997558594</ele>
        <time>2021-11-06T05:43:40.000Z</time>
      </trkpt>
      <trkpt lat="45.23439" lon="5.75514">
        <ele>959.79998779297</ele>
        <time>2021-11-06T05:43:41.000Z</time>
      </trkpt>
      <trkpt lat="45.23438" lon="5.75514">
        <ele>960.20001220703</ele>
        <time>2021-11-06T05:43:42.000Z</time>
      </trkpt>
      <trkpt lat="45.23437" lon="5.75514">
        <ele>960.59997558594</ele>
        <time>2021-11-06T05:43:43.000Z</time>
      </trkpt>
      <trkpt lat="45.23433" lon="5.75512">
        <ele>961</ele>
        <time>2021-11-06T05:43:45.000Z</time>
      </trkpt>
      <trkpt lat="45.2343" lon="5.75515">
        <ele>961.59997558594</ele>
        <time>2021-11-06T05:43:49.000Z</time>
      </trkpt>
      <trkpt lat="45.23429" lon="5.75517">
        <ele>962</ele>
        <time>2021-11-06T05:43:50.000Z</time>
      </trkpt>
      <trkpt lat="45.23428" lon="5.75518">
        <ele>962</ele>
        <time>2021-11-06T05:43:51.000Z</time>
      </trkpt>
      <trkpt lat="45.23423" lon="5.75518">
        <ele>962.40002441406</ele>
        <time>2021-11-06T05:43:54.000Z</time>
      </trkpt>
      <trkpt lat="45.23421" lon="5.75518">
        <ele>963</ele>
        <time>2021-11-06T05:43:55.000Z</time>
      </trkpt>
      <trkpt lat="45.23415" lon="5.7552">
        <ele>964.20001220703</ele>
        <time>2021-11-06T05:44:00.000Z</time>
      </trkpt>
      <trkpt lat="45.23414" lon="5.75521">
        <ele>964.59997558594</ele>
        <time>2021-11-06T05:44:01.000Z</time>
      </trkpt>
      <trkpt lat="45.23413" lon="5.75525">
        <ele>965.40002441406</ele>
        <time>2021-11-06T05:44:03.000Z</time>
      </trkpt>
      <trkpt lat="45.23407" lon="5.75527">
        <ele>966</ele>
        <time>2021-11-06T05:44:06.000Z</time>
      </trkpt>
      <trkpt lat="45.23405" lon="5.75528">
        <ele>966.59997558594</ele>
        <time>2021-11-06T05:44:08.000Z</time>
      </trkpt>
      <trkpt lat="45.23401" lon="5.75531">
        <ele>967.79998779297</ele>
        <time>2021-11-06T05:44:12.000Z</time>
      </trkpt>
      <trkpt lat="45.234" lon="5.75533">
        <ele>968.20001220703</ele>
        <time>2021-11-06T05:44:14.000Z</time>
      </trkpt>
      <trkpt lat="45.23396" lon="5.75535">
        <ele>969</ele>
        <time>2021-11-06T05:44:17.000Z</time>
      </trkpt>
      <trkpt lat="45.23392" lon="5.75539">
        <ele>970</ele>
        <time>2021-11-06T05:44:21.000Z</time>
      </trkpt>
      <trkpt lat="45.23389" lon="5.7554">
        <ele>970.79998779297</ele>
        <time>2021-11-06T05:44:24.000Z</time>
      </trkpt>
      <trkpt lat="45.23388" lon="5.7554">
        <ele>971.20001220703</ele>
        <time>2021-11-06T05:44:25.000Z</time>
      </trkpt>
      <trkpt lat="45.23387" lon="5.75541">
        <ele>971.40002441406</ele>
        <time>2021-11-06T05:44:26.000Z</time>
      </trkpt>
      <trkpt lat="45.23386" lon="5.75543">
        <ele>971.79998779297</ele>
        <time>2021-11-06T05:44:28.000Z</time>
      </trkpt>
      <trkpt lat="45.23384" lon="5.75545">
        <ele>972.40002441406</ele>
        <time>2021-11-06T05:44:30.000Z</time>
      </trkpt>
      <trkpt lat="45.23383" lon="5.75546">
        <ele>972.59997558594</ele>
        <time>2021-11-06T05:44:31.000Z</time>
      </trkpt>
      <trkpt lat="45.23381" lon="5.75548">
        <ele>973.20001220703</ele>
        <time>2021-11-06T05:44:34.000Z</time>
      </trkpt>
      <trkpt lat="45.2338" lon="5.75548">
        <ele>973.59997558594</ele>
        <time>2021-11-06T05:44:35.000Z</time>
      </trkpt>
      <trkpt lat="45.23375" lon="5.75551">
        <ele>974.59997558594</ele>
        <time>2021-11-06T05:44:40.000Z</time>
      </trkpt>
      <trkpt lat="45.23372" lon="5.75555">
        <ele>975.79998779297</ele>
        <time>2021-11-06T05:44:43.000Z</time>
      </trkpt>
      <trkpt lat="45.23369" lon="5.75558">
        <ele>976.40002441406</ele>
        <time>2021-11-06T05:44:46.000Z</time>
      </trkpt>
      <trkpt lat="45.23368" lon="5.75559">
        <ele>976.79998779297</ele>
        <time>2021-11-06T05:44:47.000Z</time>
      </trkpt>
      <trkpt lat="45.23367" lon="5.75561">
        <ele>977</ele>
        <time>2021-11-06T05:44:48.000Z</time>
      </trkpt>
      <trkpt lat="45.23364" lon="5.75563">
        <ele>977.79998779297</ele>
        <time>2021-11-06T05:44:51.000Z</time>
      </trkpt>
      <trkpt lat="45.23363" lon="5.75565">
        <ele>978</ele>
        <time>2021-11-06T05:44:52.000Z</time>
      </trkpt>
      <trkpt lat="45.2336" lon="5.7557">
        <ele>978.79998779297</ele>
        <time>2021-11-06T05:44:55.000Z</time>
      </trkpt>
      <trkpt lat="45.23359" lon="5.75572">
        <ele>979.20001220703</ele>
        <time>2021-11-06T05:44:56.000Z</time>
      </trkpt>
      <trkpt lat="45.23357" lon="5.75577">
        <ele>980.20001220703</ele>
        <time>2021-11-06T05:44:59.000Z</time>
      </trkpt>
      <trkpt lat="45.23355" lon="5.75578">
        <ele>980.40002441406</ele>
        <time>2021-11-06T05:45:00.000Z</time>
      </trkpt>
      <trkpt lat="45.23354" lon="5.7558">
        <ele>980.79998779297</ele>
        <time>2021-11-06T05:45:01.000Z</time>
      </trkpt>
      <trkpt lat="45.23351" lon="5.75583">
        <ele>981.40002441406</ele>
        <time>2021-11-06T05:45:04.000Z</time>
      </trkpt>
      <trkpt lat="45.23349" lon="5.75584">
        <ele>981.79998779297</ele>
        <time>2021-11-06T05:45:05.000Z</time>
      </trkpt>
      <trkpt lat="45.23347" lon="5.75587">
        <ele>982.59997558594</ele>
        <time>2021-11-06T05:45:08.000Z</time>
      </trkpt>
      <trkpt lat="45.23346" lon="5.75589">
        <ele>983</ele>
        <time>2021-11-06T05:45:09.000Z</time>
      </trkpt>
      <trkpt lat="45.23345" lon="5.7559">
        <ele>983.40002441406</ele>
        <time>2021-11-06T05:45:10.000Z</time>
      </trkpt>
      <trkpt lat="45.23344" lon="5.75591">
        <ele>983.59997558594</ele>
        <time>2021-11-06T05:45:11.000Z</time>
      </trkpt>
      <trkpt lat="45.2334" lon="5.75596">
        <ele>984.20001220703</ele>
        <time>2021-11-06T05:45:14.000Z</time>
      </trkpt>
      <trkpt lat="45.23338" lon="5.75598">
        <ele>984.59997558594</ele>
        <time>2021-11-06T05:45:16.000Z</time>
      </trkpt>
      <trkpt lat="45.23336" lon="5.75597">
        <ele>985</ele>
        <time>2021-11-06T05:45:18.000Z</time>
      </trkpt>
      <trkpt lat="45.23336" lon="5.75597">
        <ele>985.20001220703</ele>
        <time>2021-11-06T05:45:20.000Z</time>
      </trkpt>
      <trkpt lat="45.23336" lon="5.75598">
        <ele>985.20001220703</ele>
        <time>2021-11-06T05:45:21.000Z</time>
      </trkpt>
      <trkpt lat="45.23335" lon="5.756">
        <ele>985.20001220703</ele>
        <time>2021-11-06T05:45:26.000Z</time>
      </trkpt>
      <trkpt lat="45.23334" lon="5.756">
        <ele>985.59997558594</ele>
        <time>2021-11-06T05:45:36.000Z</time>
      </trkpt>
      <trkpt lat="45.23334" lon="5.756">
        <ele>985.40002441406</ele>
        <time>2021-11-06T05:45:39.000Z</time>
      </trkpt>
      <trkpt lat="45.23335" lon="5.756">
        <ele>985.40002441406</ele>
        <time>2021-11-06T05:45:41.000Z</time>
      </trkpt>
      <trkpt lat="45.23335" lon="5.756">
        <ele>985.40002441406</ele>
        <time>2021-11-06T05:45:43.000Z</time>
      </trkpt>
      <trkpt lat="45.23335" lon="5.756">
        <ele>985.40002441406</ele>
        <time>2021-11-06T05:45:46.000Z</time>
      </trkpt>
      <trkpt lat="45.23335" lon="5.756">
        <ele>985.40002441406</ele>
        <time>2021-11-06T05:45:47.000Z</time>
      </trkpt>
      <trkpt lat="45.23335" lon="5.756">
        <ele>985.20001220703</ele>
        <time>2021-11-06T05:45:48.000Z</time>
      </trkpt>
      <trkpt lat="45.23335" lon="5.75602">
        <ele>985.20001220703</ele>
        <time>2021-11-06T05:45:57.000Z</time>
      </trkpt>
      <trkpt lat="45.23335" lon="5.75602">
        <ele>985.20001220703</ele>
        <time>2021-11-06T05:45:59.000Z</time>
      </trkpt>
      <trkpt lat="45.23335" lon="5.75602">
        <ele>985</ele>
        <time>2021-11-06T05:46:01.000Z</time>
      </trkpt>
      <trkpt lat="45.23335" lon="5.75602">
        <ele>985</ele>
        <time>2021-11-06T05:46:04.000Z</time>
      </trkpt>
      <trkpt lat="45.23336" lon="5.75602">
        <ele>985</ele>
        <time>2021-11-06T05:46:06.000Z</time>
      </trkpt>
      <trkpt lat="45.23336" lon="5.75602">
        <ele>985</ele>
        <time>2021-11-06T05:46:08.000Z</time>
      </trkpt>
      <trkpt lat="45.23336" lon="5.75602">
        <ele>985</ele>
        <time>2021-11-06T05:46:11.000Z</time>
      </trkpt>
      <trkpt lat="45.23336" lon="5.75602">
        <ele>984.79998779297</ele>
        <time>2021-11-06T05:46:12.000Z</time>
      </trkpt>
      <trkpt lat="45.23336" lon="5.75602">
        <ele>984.59997558594</ele>
        <time>2021-11-06T05:46:21.000Z</time>
      </trkpt>
      <trkpt lat="45.23336" lon="5.75601">
        <ele>984.40002441406</ele>
        <time>2021-11-06T05:46:40.000Z</time>
      </trkpt>
      <trkpt lat="45.23341" lon="5.75599">
        <ele>984.40002441406</ele>
        <time>2021-11-06T05:46:49.000Z</time>
      </trkpt>
      <trkpt lat="45.23345" lon="5.75597">
        <ele>984.40002441406</ele>
        <time>2021-11-06T05:46:53.000Z</time>
      </trkpt>
      <trkpt lat="45.23347" lon="5.75597">
        <ele>984.40002441406</ele>
        <time>2021-11-06T05:46:54.000Z</time>
      </trkpt>
      <trkpt lat="45.23348" lon="5.75595">
        <ele>984.40002441406</ele>
        <time>2021-11-06T05:46:55.000Z</time>
      </trkpt>
      <trkpt lat="45.23348" lon="5.75594">
        <ele>984.40002441406</ele>
        <time>2021-11-06T05:46:56.000Z</time>
      </trkpt>
      <trkpt lat="45.2335" lon="5.75593">
        <ele>984.79998779297</ele>
        <time>2021-11-06T05:46:59.000Z</time>
      </trkpt>
      <trkpt lat="45.23353" lon="5.75591">
        <ele>985.59997558594</ele>
        <time>2021-11-06T05:47:03.000Z</time>
      </trkpt>
      <trkpt lat="45.23353" lon="5.75591">
        <ele>986</ele>
        <time>2021-11-06T05:47:04.000Z</time>
      </trkpt>
      <trkpt lat="45.23359" lon="5.75587">
        <ele>987</ele>
        <time>2021-11-06T05:47:09.000Z</time>
      </trkpt>
      <trkpt lat="45.2336" lon="5.75585">
        <ele>987.20001220703</ele>
        <time>2021-11-06T05:47:10.000Z</time>
      </trkpt>
      <trkpt lat="45.23361" lon="5.75584">
        <ele>987.40002441406</ele>
        <time>2021-11-06T05:47:11.000Z</time>
      </trkpt>
      <trkpt lat="45.23364" lon="5.75582">
        <ele>988</ele>
        <time>2021-11-06T05:47:13.000Z</time>
      </trkpt>
      <trkpt lat="45.23366" lon="5.75581">
        <ele>988.59997558594</ele>
        <time>2021-11-06T05:47:15.000Z</time>
      </trkpt>
      <trkpt lat="45.23368" lon="5.7558">
        <ele>988.79998779297</ele>
        <time>2021-11-06T05:47:16.000Z</time>
      </trkpt>
      <trkpt lat="45.2337" lon="5.7558">
        <ele>989.40002441406</ele>
        <time>2021-11-06T05:47:18.000Z</time>
      </trkpt>
      <trkpt lat="45.23371" lon="5.7558">
        <ele>989.59997558594</ele>
        <time>2021-11-06T05:47:19.000Z</time>
      </trkpt>
      <trkpt lat="45.23373" lon="5.7558">
        <ele>990</ele>
        <time>2021-11-06T05:47:21.000Z</time>
      </trkpt>
      <trkpt lat="45.23374" lon="5.75581">
        <ele>990.59997558594</ele>
        <time>2021-11-06T05:47:22.000Z</time>
      </trkpt>
      <trkpt lat="45.23375" lon="5.75581">
        <ele>991</ele>
        <time>2021-11-06T05:47:23.000Z</time>
      </trkpt>
      <trkpt lat="45.23377" lon="5.75581">
        <ele>991.20001220703</ele>
        <time>2021-11-06T05:47:24.000Z</time>
      </trkpt>
      <trkpt lat="45.2338" lon="5.75581">
        <ele>991.79998779297</ele>
        <time>2021-11-06T05:47:26.000Z</time>
      </trkpt>
      <trkpt lat="45.23383" lon="5.75581">
        <ele>992.59997558594</ele>
        <time>2021-11-06T05:47:29.000Z</time>
      </trkpt>
      <trkpt lat="45.23384" lon="5.75579">
        <ele>993</ele>
        <time>2021-11-06T05:47:30.000Z</time>
      </trkpt>
      <trkpt lat="45.23388" lon="5.75579">
        <ele>993.59997558594</ele>
        <time>2021-11-06T05:47:32.000Z</time>
      </trkpt>
      <trkpt lat="45.23391" lon="5.75579">
        <ele>994</ele>
        <time>2021-11-06T05:47:34.000Z</time>
      </trkpt>
      <trkpt lat="45.23396" lon="5.75579">
        <ele>994.79998779297</ele>
        <time>2021-11-06T05:47:37.000Z</time>
      </trkpt>
      <trkpt lat="45.23399" lon="5.75578">
        <ele>995.20001220703</ele>
        <time>2021-11-06T05:47:39.000Z</time>
      </trkpt>
      <trkpt lat="45.234" lon="5.75578">
        <ele>995.59997558594</ele>
        <time>2021-11-06T05:47:40.000Z</time>
      </trkpt>
      <trkpt lat="45.234" lon="5.75577">
        <ele>996</ele>
        <time>2021-11-06T05:47:41.000Z</time>
      </trkpt>
      <trkpt lat="45.23403" lon="5.75576">
        <ele>996.40002441406</ele>
        <time>2021-11-06T05:47:43.000Z</time>
      </trkpt>
      <trkpt lat="45.23404" lon="5.75576">
        <ele>996.79998779297</ele>
        <time>2021-11-06T05:47:44.000Z</time>
      </trkpt>
      <trkpt lat="45.23406" lon="5.75576">
        <ele>997.40002441406</ele>
        <time>2021-11-06T05:47:46.000Z</time>
      </trkpt>
      <trkpt lat="45.23407" lon="5.75575">
        <ele>997.59997558594</ele>
        <time>2021-11-06T05:47:47.000Z</time>
      </trkpt>
      <trkpt lat="45.23409" lon="5.75576">
        <ele>997.79998779297</ele>
        <time>2021-11-06T05:47:48.000Z</time>
      </trkpt>
      <trkpt lat="45.23412" lon="5.75576">
        <ele>998.79998779297</ele>
        <time>2021-11-06T05:47:51.000Z</time>
      </trkpt>
      <trkpt lat="45.23414" lon="5.75579">
        <ele>999</ele>
        <time>2021-11-06T05:47:53.000Z</time>
      </trkpt>
      <trkpt lat="45.23417" lon="5.75579">
        <ele>999.79998779297</ele>
        <time>2021-11-06T05:47:56.000Z</time>
      </trkpt>
      <trkpt lat="45.23424" lon="5.75581">
        <ele>1001</ele>
        <time>2021-11-06T05:48:01.000Z</time>
      </trkpt>
      <trkpt lat="45.23424" lon="5.75581">
        <ele>1001.4000244141</ele>
        <time>2021-11-06T05:48:02.000Z</time>
      </trkpt>
      <trkpt lat="45.23428" lon="5.75582">
        <ele>1002</ele>
        <time>2021-11-06T05:48:05.000Z</time>
      </trkpt>
      <trkpt lat="45.23431" lon="5.75582">
        <ele>1003.200012207</ele>
        <time>2021-11-06T05:48:09.000Z</time>
      </trkpt>
      <trkpt lat="45.23434" lon="5.75582">
        <ele>1004</ele>
        <time>2021-11-06T05:48:11.000Z</time>
      </trkpt>
      <trkpt lat="45.23436" lon="5.7558">
        <ele>1004.200012207</ele>
        <time>2021-11-06T05:48:13.000Z</time>
      </trkpt>
      <trkpt lat="45.23439" lon="5.75575">
        <ele>1005</ele>
        <time>2021-11-06T05:48:16.000Z</time>
      </trkpt>
      <trkpt lat="45.23441" lon="5.75575">
        <ele>1005.200012207</ele>
        <time>2021-11-06T05:48:17.000Z</time>
      </trkpt>
      <trkpt lat="45.23445" lon="5.7557">
        <ele>1006.200012207</ele>
        <time>2021-11-06T05:48:21.000Z</time>
      </trkpt>
      <trkpt lat="45.23449" lon="5.7557">
        <ele>1007</ele>
        <time>2021-11-06T05:48:23.000Z</time>
      </trkpt>
      <trkpt lat="45.23452" lon="5.75569">
        <ele>1007.5999755859</ele>
        <time>2021-11-06T05:48:25.000Z</time>
      </trkpt>
      <trkpt lat="45.23455" lon="5.75571">
        <ele>1008.200012207</ele>
        <time>2021-11-06T05:48:28.000Z</time>
      </trkpt>
      <trkpt lat="45.23457" lon="5.75572">
        <ele>1008.799987793</ele>
        <time>2021-11-06T05:48:30.000Z</time>
      </trkpt>
      <trkpt lat="45.23463" lon="5.75573">
        <ele>1009.799987793</ele>
        <time>2021-11-06T05:48:34.000Z</time>
      </trkpt>
      <trkpt lat="45.23464" lon="5.75574">
        <ele>1010.200012207</ele>
        <time>2021-11-06T05:48:35.000Z</time>
      </trkpt>
      <trkpt lat="45.23467" lon="5.75575">
        <ele>1010.5999755859</ele>
        <time>2021-11-06T05:48:37.000Z</time>
      </trkpt>
      <trkpt lat="45.23468" lon="5.75575">
        <ele>1011</ele>
        <time>2021-11-06T05:48:38.000Z</time>
      </trkpt>
      <trkpt lat="45.23474" lon="5.75576">
        <ele>1012.200012207</ele>
        <time>2021-11-06T05:48:43.000Z</time>
      </trkpt>
      <trkpt lat="45.23475" lon="5.75577">
        <ele>1012.4000244141</ele>
        <time>2021-11-06T05:48:44.000Z</time>
      </trkpt>
      <trkpt lat="45.23479" lon="5.75578">
        <ele>1013.200012207</ele>
        <time>2021-11-06T05:48:47.000Z</time>
      </trkpt>
      <trkpt lat="45.23482" lon="5.75581">
        <ele>1014.4000244141</ele>
        <time>2021-11-06T05:48:50.000Z</time>
      </trkpt>
      <trkpt lat="45.23484" lon="5.75582">
        <ele>1014.5999755859</ele>
        <time>2021-11-06T05:48:51.000Z</time>
      </trkpt>
      <trkpt lat="45.23486" lon="5.75583">
        <ele>1015.4000244141</ele>
        <time>2021-11-06T05:48:53.000Z</time>
      </trkpt>
      <trkpt lat="45.23488" lon="5.75583">
        <ele>1016</ele>
        <time>2021-11-06T05:48:55.000Z</time>
      </trkpt>
      <trkpt lat="45.23489" lon="5.75582">
        <ele>1016.200012207</ele>
        <time>2021-11-06T05:48:56.000Z</time>
      </trkpt>
      <trkpt lat="45.2349" lon="5.75582">
        <ele>1016.4000244141</ele>
        <time>2021-11-06T05:48:57.000Z</time>
      </trkpt>
      <trkpt lat="45.23496" lon="5.75586">
        <ele>1017.5999755859</ele>
        <time>2021-11-06T05:49:02.000Z</time>
      </trkpt>
      <trkpt lat="45.23498" lon="5.75587">
        <ele>1018</ele>
        <time>2021-11-06T05:49:04.000Z</time>
      </trkpt>
      <trkpt lat="45.23502" lon="5.75586">
        <ele>1018.5999755859</ele>
        <time>2021-11-06T05:49:08.000Z</time>
      </trkpt>
      <trkpt lat="45.23503" lon="5.75586">
        <ele>1019.200012207</ele>
        <time>2021-11-06T05:49:09.000Z</time>
      </trkpt>
      <trkpt lat="45.23506" lon="5.75586">
        <ele>1019.799987793</ele>
        <time>2021-11-06T05:49:12.000Z</time>
      </trkpt>
      <trkpt lat="45.23511" lon="5.75589">
        <ele>1021</ele>
        <time>2021-11-06T05:49:16.000Z</time>
      </trkpt>
      <trkpt lat="45.23512" lon="5.75591">
        <ele>1021.4000244141</ele>
        <time>2021-11-06T05:49:18.000Z</time>
      </trkpt>
      <trkpt lat="45.23515" lon="5.75594">
        <ele>1022.200012207</ele>
        <time>2021-11-06T05:49:21.000Z</time>
      </trkpt>
      <trkpt lat="45.23517" lon="5.75594">
        <ele>1023.200012207</ele>
        <time>2021-11-06T05:49:24.000Z</time>
      </trkpt>
      <trkpt lat="45.23519" lon="5.75594">
        <ele>1023.200012207</ele>
        <time>2021-11-06T05:49:25.000Z</time>
      </trkpt>
      <trkpt lat="45.2352" lon="5.75594">
        <ele>1023.799987793</ele>
        <time>2021-11-06T05:49:26.000Z</time>
      </trkpt>
      <trkpt lat="45.23522" lon="5.75595">
        <ele>1024.4000244141</ele>
        <time>2021-11-06T05:49:28.000Z</time>
      </trkpt>
      <trkpt lat="45.23524" lon="5.75595">
        <ele>1024.5999755859</ele>
        <time>2021-11-06T05:49:30.000Z</time>
      </trkpt>
      <trkpt lat="45.23526" lon="5.75595">
        <ele>1024.8000488281</ele>
        <time>2021-11-06T05:49:31.000Z</time>
      </trkpt>
      <trkpt lat="45.23528" lon="5.75596">
        <ele>1025.4000244141</ele>
        <time>2021-11-06T05:49:33.000Z</time>
      </trkpt>
      <trkpt lat="45.23529" lon="5.75596">
        <ele>1025.5999755859</ele>
        <time>2021-11-06T05:49:34.000Z</time>
      </trkpt>
      <trkpt lat="45.23531" lon="5.75596">
        <ele>1026.1999511719</ele>
        <time>2021-11-06T05:49:36.000Z</time>
      </trkpt>
      <trkpt lat="45.23532" lon="5.75596">
        <ele>1026.4000244141</ele>
        <time>2021-11-06T05:49:37.000Z</time>
      </trkpt>
      <trkpt lat="45.23535" lon="5.75597">
        <ele>1027</ele>
        <time>2021-11-06T05:49:39.000Z</time>
      </trkpt>
      <trkpt lat="45.23538" lon="5.75602">
        <ele>1027.8000488281</ele>
        <time>2021-11-06T05:49:42.000Z</time>
      </trkpt>
      <trkpt lat="45.23538" lon="5.75604">
        <ele>1028.5999755859</ele>
        <time>2021-11-06T05:49:44.000Z</time>
      </trkpt>
      <trkpt lat="45.23536" lon="5.75607">
        <ele>1029</ele>
        <time>2021-11-06T05:49:46.000Z</time>
      </trkpt>
      <trkpt lat="45.23535" lon="5.75607">
        <ele>1029.5999755859</ele>
        <time>2021-11-06T05:49:47.000Z</time>
      </trkpt>
      <trkpt lat="45.23532" lon="5.75606">
        <ele>1030.1999511719</ele>
        <time>2021-11-06T05:49:49.000Z</time>
      </trkpt>
      <trkpt lat="45.23527" lon="5.75606">
        <ele>1031</ele>
        <time>2021-11-06T05:49:53.000Z</time>
      </trkpt>
      <trkpt lat="45.23527" lon="5.75606">
        <ele>1031.4000244141</ele>
        <time>2021-11-06T05:49:54.000Z</time>
      </trkpt>
      <trkpt lat="45.23524" lon="5.75609">
        <ele>1031.8000488281</ele>
        <time>2021-11-06T05:49:57.000Z</time>
      </trkpt>
      <trkpt lat="45.23523" lon="5.7561">
        <ele>1032.4000244141</ele>
        <time>2021-11-06T05:49:59.000Z</time>
      </trkpt>
      <trkpt lat="45.23522" lon="5.75611">
        <ele>1032.8000488281</ele>
        <time>2021-11-06T05:50:00.000Z</time>
      </trkpt>
      <trkpt lat="45.23521" lon="5.75618">
        <ele>1033.5999755859</ele>
        <time>2021-11-06T05:50:03.000Z</time>
      </trkpt>
      <trkpt lat="45.2352" lon="5.75618">
        <ele>1033.8000488281</ele>
        <time>2021-11-06T05:50:04.000Z</time>
      </trkpt>
      <trkpt lat="45.23519" lon="5.75618">
        <ele>1034.1999511719</ele>
        <time>2021-11-06T05:50:05.000Z</time>
      </trkpt>
      <trkpt lat="45.23516" lon="5.75617">
        <ele>1034.8000488281</ele>
        <time>2021-11-06T05:50:07.000Z</time>
      </trkpt>
      <trkpt lat="45.23514" lon="5.75615">
        <ele>1035.1999511719</ele>
        <time>2021-11-06T05:50:09.000Z</time>
      </trkpt>
      <trkpt lat="45.23512" lon="5.75615">
        <ele>1035.8000488281</ele>
        <time>2021-11-06T05:50:11.000Z</time>
      </trkpt>
      <trkpt lat="45.2351" lon="5.75615">
        <ele>1036.1999511719</ele>
        <time>2021-11-06T05:50:13.000Z</time>
      </trkpt>
      <trkpt lat="45.23506" lon="5.75616">
        <ele>1037</ele>
        <time>2021-11-06T05:50:16.000Z</time>
      </trkpt>
      <trkpt lat="45.23503" lon="5.75615">
        <ele>1037.4000244141</ele>
        <time>2021-11-06T05:50:18.000Z</time>
      </trkpt>
      <trkpt lat="45.23501" lon="5.75615">
        <ele>1037.5999755859</ele>
        <time>2021-11-06T05:50:19.000Z</time>
      </trkpt>
      <trkpt lat="45.23499" lon="5.75616">
        <ele>1038.1999511719</ele>
        <time>2021-11-06T05:50:21.000Z</time>
      </trkpt>
      <trkpt lat="45.23495" lon="5.7562">
        <ele>1039.1999511719</ele>
        <time>2021-11-06T05:50:25.000Z</time>
      </trkpt>
      <trkpt lat="45.23494" lon="5.75619">
        <ele>1039.5999755859</ele>
        <time>2021-11-06T05:50:26.000Z</time>
      </trkpt>
      <trkpt lat="45.2349" lon="5.75617">
        <ele>1040.4000244141</ele>
        <time>2021-11-06T05:50:29.000Z</time>
      </trkpt>
      <trkpt lat="45.23488" lon="5.75619">
        <ele>1040.8000488281</ele>
        <time>2021-11-06T05:50:31.000Z</time>
      </trkpt>
      <trkpt lat="45.23486" lon="5.7562">
        <ele>1041.5999755859</ele>
        <time>2021-11-06T05:50:33.000Z</time>
      </trkpt>
      <trkpt lat="45.23483" lon="5.7562">
        <ele>1042.5999755859</ele>
        <time>2021-11-06T05:50:37.000Z</time>
      </trkpt>
      <trkpt lat="45.23482" lon="5.7562">
        <ele>1042.8000488281</ele>
        <time>2021-11-06T05:50:38.000Z</time>
      </trkpt>
      <trkpt lat="45.23481" lon="5.7562">
        <ele>1043.1999511719</ele>
        <time>2021-11-06T05:50:39.000Z</time>
      </trkpt>
      <trkpt lat="45.23479" lon="5.75619">
        <ele>1043.8000488281</ele>
        <time>2021-11-06T05:50:41.000Z</time>
      </trkpt>
      <trkpt lat="45.23475" lon="5.7562">
        <ele>1044.1999511719</ele>
        <time>2021-11-06T05:50:44.000Z</time>
      </trkpt>
      <trkpt lat="45.23473" lon="5.75621">
        <ele>1044.8000488281</ele>
        <time>2021-11-06T05:50:45.000Z</time>
      </trkpt>
      <trkpt lat="45.23471" lon="5.7562">
        <ele>1045</ele>
        <time>2021-11-06T05:50:46.000Z</time>
      </trkpt>
      <trkpt lat="45.23468" lon="5.75619">
        <ele>1045.1999511719</ele>
        <time>2021-11-06T05:50:47.000Z</time>
      </trkpt>
      <trkpt lat="45.23466" lon="5.75621">
        <ele>1045.4000244141</ele>
        <time>2021-11-06T05:50:49.000Z</time>
      </trkpt>
      <trkpt lat="45.23464" lon="5.75621">
        <ele>1045.5999755859</ele>
        <time>2021-11-06T05:50:50.000Z</time>
      </trkpt>
      <trkpt lat="45.23462" lon="5.75619">
        <ele>1046</ele>
        <time>2021-11-06T05:50:52.000Z</time>
      </trkpt>
      <trkpt lat="45.23461" lon="5.7562">
        <ele>1046.1999511719</ele>
        <time>2021-11-06T05:50:53.000Z</time>
      </trkpt>
      <trkpt lat="45.2346" lon="5.75621">
        <ele>1046.5999755859</ele>
        <time>2021-11-06T05:50:54.000Z</time>
      </trkpt>
      <trkpt lat="45.23459" lon="5.75625">
        <ele>1046.8000488281</ele>
        <time>2021-11-06T05:50:56.000Z</time>
      </trkpt>
      <trkpt lat="45.23458" lon="5.75626">
        <ele>1047.1999511719</ele>
        <time>2021-11-06T05:50:57.000Z</time>
      </trkpt>
      <trkpt lat="45.23455" lon="5.75629">
        <ele>1048</ele>
        <time>2021-11-06T05:51:00.000Z</time>
      </trkpt>
      <trkpt lat="45.23454" lon="5.75631">
        <ele>1048.4000244141</ele>
        <time>2021-11-06T05:51:02.000Z</time>
      </trkpt>
      <trkpt lat="45.23451" lon="5.75635">
        <ele>1049.4000244141</ele>
        <time>2021-11-06T05:51:05.000Z</time>
      </trkpt>
      <trkpt lat="45.2345" lon="5.75637">
        <ele>1049.8000488281</ele>
        <time>2021-11-06T05:51:07.000Z</time>
      </trkpt>
      <trkpt lat="45.23447" lon="5.75638">
        <ele>1050.1999511719</ele>
        <time>2021-11-06T05:51:09.000Z</time>
      </trkpt>
      <trkpt lat="45.23446" lon="5.75639">
        <ele>1050.8000488281</ele>
        <time>2021-11-06T05:51:10.000Z</time>
      </trkpt>
      <trkpt lat="45.23443" lon="5.75642">
        <ele>1051.4000244141</ele>
        <time>2021-11-06T05:51:13.000Z</time>
      </trkpt>
      <trkpt lat="45.23442" lon="5.75642">
        <ele>1051.8000488281</ele>
        <time>2021-11-06T05:51:15.000Z</time>
      </trkpt>
      <trkpt lat="45.23437" lon="5.75644">
        <ele>1052.8000488281</ele>
        <time>2021-11-06T05:51:19.000Z</time>
      </trkpt>
      <trkpt lat="45.23436" lon="5.75645">
        <ele>1052.8000488281</ele>
        <time>2021-11-06T05:51:20.000Z</time>
      </trkpt>
      <trkpt lat="45.23435" lon="5.75646">
        <ele>1053</ele>
        <time>2021-11-06T05:51:21.000Z</time>
      </trkpt>
      <trkpt lat="45.23434" lon="5.75649">
        <ele>1053.5999755859</ele>
        <time>2021-11-06T05:51:23.000Z</time>
      </trkpt>
      <trkpt lat="45.23432" lon="5.7565">
        <ele>1054.1999511719</ele>
        <time>2021-11-06T05:51:25.000Z</time>
      </trkpt>
      <trkpt lat="45.2343" lon="5.75651">
        <ele>1054.4000244141</ele>
        <time>2021-11-06T05:51:27.000Z</time>
      </trkpt>
      <trkpt lat="45.23427" lon="5.75652">
        <ele>1055.1999511719</ele>
        <time>2021-11-06T05:51:29.000Z</time>
      </trkpt>
      <trkpt lat="45.23425" lon="5.75654">
        <ele>1055.8000488281</ele>
        <time>2021-11-06T05:51:31.000Z</time>
      </trkpt>
      <trkpt lat="45.23424" lon="5.75655">
        <ele>1056</ele>
        <time>2021-11-06T05:51:32.000Z</time>
      </trkpt>
      <trkpt lat="45.23423" lon="5.75656">
        <ele>1056.1999511719</ele>
        <time>2021-11-06T05:51:33.000Z</time>
      </trkpt>
      <trkpt lat="45.23423" lon="5.75658">
        <ele>1056.8000488281</ele>
        <time>2021-11-06T05:51:35.000Z</time>
      </trkpt>
      <trkpt lat="45.23422" lon="5.75659">
        <ele>1057.1999511719</ele>
        <time>2021-11-06T05:51:36.000Z</time>
      </trkpt>
      <trkpt lat="45.23421" lon="5.75658">
        <ele>1057.4000244141</ele>
        <time>2021-11-06T05:51:37.000Z</time>
      </trkpt>
      <trkpt lat="45.2342" lon="5.75664">
        <ele>1058.4000244141</ele>
        <time>2021-11-06T05:51:41.000Z</time>
      </trkpt>
      <trkpt lat="45.23421" lon="5.7567">
        <ele>1059.5999755859</ele>
        <time>2021-11-06T05:51:44.000Z</time>
      </trkpt>
      <trkpt lat="45.2342" lon="5.75671">
        <ele>1059.8000488281</ele>
        <time>2021-11-06T05:51:45.000Z</time>
      </trkpt>
      <trkpt lat="45.23417" lon="5.75675">
        <ele>1060.4000244141</ele>
        <time>2021-11-06T05:51:48.000Z</time>
      </trkpt>
      <trkpt lat="45.23416" lon="5.75677">
        <ele>1060.5999755859</ele>
        <time>2021-11-06T05:51:49.000Z</time>
      </trkpt>
      <trkpt lat="45.23415" lon="5.75678">
        <ele>1061</ele>
        <time>2021-11-06T05:51:50.000Z</time>
      </trkpt>
      <trkpt lat="45.23413" lon="5.75682">
        <ele>1061.1999511719</ele>
        <time>2021-11-06T05:51:52.000Z</time>
      </trkpt>
      <trkpt lat="45.23409" lon="5.75684">
        <ele>1061.8000488281</ele>
        <time>2021-11-06T05:51:55.000Z</time>
      </trkpt>
      <trkpt lat="45.23408" lon="5.75685">
        <ele>1062.1999511719</ele>
        <time>2021-11-06T05:51:56.000Z</time>
      </trkpt>
      <trkpt lat="45.23407" lon="5.75688">
        <ele>1063.4000244141</ele>
        <time>2021-11-06T05:52:00.000Z</time>
      </trkpt>
      <trkpt lat="45.23406" lon="5.7569">
        <ele>1063.4000244141</ele>
        <time>2021-11-06T05:52:01.000Z</time>
      </trkpt>
      <trkpt lat="45.23406" lon="5.75697">
        <ele>1064.1999511719</ele>
        <time>2021-11-06T05:52:04.000Z</time>
      </trkpt>
      <trkpt lat="45.23406" lon="5.75699">
        <ele>1064.5999755859</ele>
        <time>2021-11-06T05:52:05.000Z</time>
      </trkpt>
      <trkpt lat="45.23405" lon="5.75703">
        <ele>1065.1999511719</ele>
        <time>2021-11-06T05:52:08.000Z</time>
      </trkpt>
      <trkpt lat="45.23403" lon="5.75705">
        <ele>1065.5999755859</ele>
        <time>2021-11-06T05:52:10.000Z</time>
      </trkpt>
      <trkpt lat="45.23402" lon="5.75706">
        <ele>1066</ele>
        <time>2021-11-06T05:52:11.000Z</time>
      </trkpt>
      <trkpt lat="45.23399" lon="5.75713">
        <ele>1066.8000488281</ele>
        <time>2021-11-06T05:52:15.000Z</time>
      </trkpt>
      <trkpt lat="45.23397" lon="5.75717">
        <ele>1067.5999755859</ele>
        <time>2021-11-06T05:52:17.000Z</time>
      </trkpt>
      <trkpt lat="45.23396" lon="5.75723">
        <ele>1068.1999511719</ele>
        <time>2021-11-06T05:52:20.000Z</time>
      </trkpt>
      <trkpt lat="45.23396" lon="5.75724">
        <ele>1068.1999511719</ele>
        <time>2021-11-06T05:52:21.000Z</time>
      </trkpt>
      <trkpt lat="45.23397" lon="5.75724">
        <ele>1068.4000244141</ele>
        <time>2021-11-06T05:52:22.000Z</time>
      </trkpt>
      <trkpt lat="45.23398" lon="5.75725">
        <ele>1068.8000488281</ele>
        <time>2021-11-06T05:52:23.000Z</time>
      </trkpt>
      <trkpt lat="45.23399" lon="5.75722">
        <ele>1069.5999755859</ele>
        <time>2021-11-06T05:52:26.000Z</time>
      </trkpt>
      <trkpt lat="45.234" lon="5.75722">
        <ele>1070</ele>
        <time>2021-11-06T05:52:27.000Z</time>
      </trkpt>
      <trkpt lat="45.23404" lon="5.75719">
        <ele>1071</ele>
        <time>2021-11-06T05:52:31.000Z</time>
      </trkpt>
      <trkpt lat="45.23406" lon="5.75718">
        <ele>1071.4000244141</ele>
        <time>2021-11-06T05:52:33.000Z</time>
      </trkpt>
      <trkpt lat="45.23406" lon="5.75716">
        <ele>1072</ele>
        <time>2021-11-06T05:52:35.000Z</time>
      </trkpt>
      <trkpt lat="45.23407" lon="5.75716">
        <ele>1072.4000244141</ele>
        <time>2021-11-06T05:52:36.000Z</time>
      </trkpt>
      <trkpt lat="45.23408" lon="5.75713">
        <ele>1072.5999755859</ele>
        <time>2021-11-06T05:52:37.000Z</time>
      </trkpt>
      <trkpt lat="45.2341" lon="5.75711">
        <ele>1073</ele>
        <time>2021-11-06T05:52:39.000Z</time>
      </trkpt>
      <trkpt lat="45.23412" lon="5.7571">
        <ele>1073.1999511719</ele>
        <time>2021-11-06T05:52:40.000Z</time>
      </trkpt>
      <trkpt lat="45.23415" lon="5.75706">
        <ele>1074.1999511719</ele>
        <time>2021-11-06T05:52:44.000Z</time>
      </trkpt>
      <trkpt lat="45.23416" lon="5.75706">
        <ele>1074.4000244141</ele>
        <time>2021-11-06T05:52:45.000Z</time>
      </trkpt>
      <trkpt lat="45.23417" lon="5.75704">
        <ele>1074.5999755859</ele>
        <time>2021-11-06T05:52:46.000Z</time>
      </trkpt>
      <trkpt lat="45.23419" lon="5.75702">
        <ele>1075.5999755859</ele>
        <time>2021-11-06T05:52:49.000Z</time>
      </trkpt>
      <trkpt lat="45.23419" lon="5.75701">
        <ele>1075.8000488281</ele>
        <time>2021-11-06T05:52:50.000Z</time>
      </trkpt>
      <trkpt lat="45.2342" lon="5.75701">
        <ele>1076</ele>
        <time>2021-11-06T05:52:51.000Z</time>
      </trkpt>
      <trkpt lat="45.23423" lon="5.757">
        <ele>1076.5999755859</ele>
        <time>2021-11-06T05:52:53.000Z</time>
      </trkpt>
      <trkpt lat="45.23425" lon="5.75698">
        <ele>1077</ele>
        <time>2021-11-06T05:52:55.000Z</time>
      </trkpt>
      <trkpt lat="45.23426" lon="5.75694">
        <ele>1077.5999755859</ele>
        <time>2021-11-06T05:52:58.000Z</time>
      </trkpt>
      <trkpt lat="45.23428" lon="5.75692">
        <ele>1078.1999511719</ele>
        <time>2021-11-06T05:53:00.000Z</time>
      </trkpt>
      <trkpt lat="45.2343" lon="5.7569">
        <ele>1078.5999755859</ele>
        <time>2021-11-06T05:53:02.000Z</time>
      </trkpt>
      <trkpt lat="45.23432" lon="5.7569">
        <ele>1078.8000488281</ele>
        <time>2021-11-06T05:53:03.000Z</time>
      </trkpt>
      <trkpt lat="45.23433" lon="5.75692">
        <ele>1079.1999511719</ele>
        <time>2021-11-06T05:53:05.000Z</time>
      </trkpt>
      <trkpt lat="45.23433" lon="5.75693">
        <ele>1079.8000488281</ele>
        <time>2021-11-06T05:53:06.000Z</time>
      </trkpt>
      <trkpt lat="45.23432" lon="5.75695">
        <ele>1080</ele>
        <time>2021-11-06T05:53:07.000Z</time>
      </trkpt>
      <trkpt lat="45.23431" lon="5.75697">
        <ele>1080.4000244141</ele>
        <time>2021-11-06T05:53:10.000Z</time>
      </trkpt>
      <trkpt lat="45.23431" lon="5.75698">
        <ele>1081</ele>
        <time>2021-11-06T05:53:11.000Z</time>
      </trkpt>
      <trkpt lat="45.23431" lon="5.75699">
        <ele>1081.1999511719</ele>
        <time>2021-11-06T05:53:12.000Z</time>
      </trkpt>
      <trkpt lat="45.2343" lon="5.75703">
        <ele>1082</ele>
        <time>2021-11-06T05:53:16.000Z</time>
      </trkpt>
      <trkpt lat="45.23429" lon="5.75704">
        <ele>1082.4000244141</ele>
        <time>2021-11-06T05:53:17.000Z</time>
      </trkpt>
      <trkpt lat="45.23429" lon="5.75707">
        <ele>1082.5999755859</ele>
        <time>2021-11-06T05:53:18.000Z</time>
      </trkpt>
      <trkpt lat="45.23429" lon="5.75714">
        <ele>1083.1999511719</ele>
        <time>2021-11-06T05:53:22.000Z</time>
      </trkpt>
      <trkpt lat="45.23429" lon="5.75715">
        <ele>1083.1999511719</ele>
        <time>2021-11-06T05:53:23.000Z</time>
      </trkpt>
      <trkpt lat="45.23428" lon="5.75718">
        <ele>1083.8000488281</ele>
        <time>2021-11-06T05:53:24.000Z</time>
      </trkpt>
      <trkpt lat="45.23428" lon="5.7572">
        <ele>1084.4000244141</ele>
        <time>2021-11-06T05:53:26.000Z</time>
      </trkpt>
      <trkpt lat="45.23427" lon="5.75727">
        <ele>1085</ele>
        <time>2021-11-06T05:53:30.000Z</time>
      </trkpt>
      <trkpt lat="45.23427" lon="5.75728">
        <ele>1085.5999755859</ele>
        <time>2021-11-06T05:53:31.000Z</time>
      </trkpt>
      <trkpt lat="45.23425" lon="5.75733">
        <ele>1086.5999755859</ele>
        <time>2021-11-06T05:53:35.000Z</time>
      </trkpt>
      <trkpt lat="45.23425" lon="5.75734">
        <ele>1086.8000488281</ele>
        <time>2021-11-06T05:53:36.000Z</time>
      </trkpt>
      <trkpt lat="45.23424" lon="5.75739">
        <ele>1087.5999755859</ele>
        <time>2021-11-06T05:53:40.000Z</time>
      </trkpt>
      <trkpt lat="45.23424" lon="5.7574">
        <ele>1087.8000488281</ele>
        <time>2021-11-06T05:53:41.000Z</time>
      </trkpt>
      <trkpt lat="45.23423" lon="5.75741">
        <ele>1088.4000244141</ele>
        <time>2021-11-06T05:53:42.000Z</time>
      </trkpt>
      <trkpt lat="45.23422" lon="5.75744">
        <ele>1089</ele>
        <time>2021-11-06T05:53:44.000Z</time>
      </trkpt>
      <trkpt lat="45.2342" lon="5.75746">
        <ele>1089.5999755859</ele>
        <time>2021-11-06T05:53:47.000Z</time>
      </trkpt>
      <trkpt lat="45.2342" lon="5.75748">
        <ele>1090.4000244141</ele>
        <time>2021-11-06T05:53:49.000Z</time>
      </trkpt>
      <trkpt lat="45.23418" lon="5.75752">
        <ele>1091.1999511719</ele>
        <time>2021-11-06T05:53:52.000Z</time>
      </trkpt>
      <trkpt lat="45.23417" lon="5.75753">
        <ele>1091.4000244141</ele>
        <time>2021-11-06T05:53:53.000Z</time>
      </trkpt>
      <trkpt lat="45.23417" lon="5.75754">
        <ele>1091.5999755859</ele>
        <time>2021-11-06T05:53:54.000Z</time>
      </trkpt>
      <trkpt lat="45.23415" lon="5.75757">
        <ele>1092.8000488281</ele>
        <time>2021-11-06T05:53:57.000Z</time>
      </trkpt>
      <trkpt lat="45.23413" lon="5.75762">
        <ele>1093.1999511719</ele>
        <time>2021-11-06T05:54:00.000Z</time>
      </trkpt>
      <trkpt lat="45.23413" lon="5.75768">
        <ele>1093.8000488281</ele>
        <time>2021-11-06T05:54:02.000Z</time>
      </trkpt>
      <trkpt lat="45.23408" lon="5.75773">
        <ele>1094.5999755859</ele>
        <time>2021-11-06T05:54:06.000Z</time>
      </trkpt>
      <trkpt lat="45.23408" lon="5.75777">
        <ele>1094.8000488281</ele>
        <time>2021-11-06T05:54:07.000Z</time>
      </trkpt>
      <trkpt lat="45.23407" lon="5.75785">
        <ele>1095.5999755859</ele>
        <time>2021-11-06T05:54:11.000Z</time>
      </trkpt>
      <trkpt lat="45.23406" lon="5.75786">
        <ele>1095.8000488281</ele>
        <time>2021-11-06T05:54:12.000Z</time>
      </trkpt>
      <trkpt lat="45.23406" lon="5.75787">
        <ele>1095.8000488281</ele>
        <time>2021-11-06T05:54:13.000Z</time>
      </trkpt>
      <trkpt lat="45.23406" lon="5.75788">
        <ele>1096</ele>
        <time>2021-11-06T05:54:14.000Z</time>
      </trkpt>
      <trkpt lat="45.23405" lon="5.75792">
        <ele>1097</ele>
        <time>2021-11-06T05:54:17.000Z</time>
      </trkpt>
      <trkpt lat="45.23405" lon="5.75795">
        <ele>1097.1999511719</ele>
        <time>2021-11-06T05:54:18.000Z</time>
      </trkpt>
      <trkpt lat="45.23405" lon="5.75796">
        <ele>1097.4000244141</ele>
        <time>2021-11-06T05:54:19.000Z</time>
      </trkpt>
      <trkpt lat="45.23405" lon="5.758">
        <ele>1097.8000488281</ele>
        <time>2021-11-06T05:54:21.000Z</time>
      </trkpt>
      <trkpt lat="45.23404" lon="5.75802">
        <ele>1098.1999511719</ele>
        <time>2021-11-06T05:54:22.000Z</time>
      </trkpt>
      <trkpt lat="45.23404" lon="5.75809">
        <ele>1099.1999511719</ele>
        <time>2021-11-06T05:54:26.000Z</time>
      </trkpt>
      <trkpt lat="45.23404" lon="5.75814">
        <ele>1100</ele>
        <time>2021-11-06T05:54:29.000Z</time>
      </trkpt>
      <trkpt lat="45.23403" lon="5.75816">
        <ele>1100.4000244141</ele>
        <time>2021-11-06T05:54:30.000Z</time>
      </trkpt>
      <trkpt lat="45.234" lon="5.75821">
        <ele>1101</ele>
        <time>2021-11-06T05:54:33.000Z</time>
      </trkpt>
      <trkpt lat="45.23398" lon="5.75824">
        <ele>1101.4000244141</ele>
        <time>2021-11-06T05:54:35.000Z</time>
      </trkpt>
      <trkpt lat="45.23395" lon="5.75826">
        <ele>1102.4000244141</ele>
        <time>2021-11-06T05:54:38.000Z</time>
      </trkpt>
      <trkpt lat="45.23393" lon="5.75828">
        <ele>1103</ele>
        <time>2021-11-06T05:54:40.000Z</time>
      </trkpt>
      <trkpt lat="45.23391" lon="5.7583">
        <ele>1103.5999755859</ele>
        <time>2021-11-06T05:54:42.000Z</time>
      </trkpt>
      <trkpt lat="45.23386" lon="5.75831">
        <ele>1104.1999511719</ele>
        <time>2021-11-06T05:54:45.000Z</time>
      </trkpt>
      <trkpt lat="45.23385" lon="5.75834">
        <ele>1104.5999755859</ele>
        <time>2021-11-06T05:54:47.000Z</time>
      </trkpt>
      <trkpt lat="45.23382" lon="5.75833">
        <ele>1105.8000488281</ele>
        <time>2021-11-06T05:54:50.000Z</time>
      </trkpt>
      <trkpt lat="45.23381" lon="5.75833">
        <ele>1106</ele>
        <time>2021-11-06T05:54:51.000Z</time>
      </trkpt>
      <trkpt lat="45.23377" lon="5.75835">
        <ele>1107</ele>
        <time>2021-11-06T05:54:55.000Z</time>
      </trkpt>
      <trkpt lat="45.23375" lon="5.75835">
        <ele>1107.5999755859</ele>
        <time>2021-11-06T05:54:57.000Z</time>
      </trkpt>
      <trkpt lat="45.23371" lon="5.75836">
        <ele>1108.1999511719</ele>
        <time>2021-11-06T05:55:00.000Z</time>
      </trkpt>
      <trkpt lat="45.23369" lon="5.75838">
        <ele>1108.4000244141</ele>
        <time>2021-11-06T05:55:02.000Z</time>
      </trkpt>
      <trkpt lat="45.23368" lon="5.75838">
        <ele>1108.4000244141</ele>
        <time>2021-11-06T05:55:03.000Z</time>
      </trkpt>
      <trkpt lat="45.23366" lon="5.75839">
        <ele>1108.8000488281</ele>
        <time>2021-11-06T05:55:04.000Z</time>
      </trkpt>
      <trkpt lat="45.23364" lon="5.7584">
        <ele>1109.1999511719</ele>
        <time>2021-11-06T05:55:05.000Z</time>
      </trkpt>
      <trkpt lat="45.23361" lon="5.75842">
        <ele>1109.8000488281</ele>
        <time>2021-11-06T05:55:08.000Z</time>
      </trkpt>
      <trkpt lat="45.23359" lon="5.75846">
        <ele>1110.1999511719</ele>
        <time>2021-11-06T05:55:10.000Z</time>
      </trkpt>
      <trkpt lat="45.23359" lon="5.75847">
        <ele>1110.4000244141</ele>
        <time>2021-11-06T05:55:11.000Z</time>
      </trkpt>
      <trkpt lat="45.23353" lon="5.75856">
        <ele>1111.4000244141</ele>
        <time>2021-11-06T05:55:16.000Z</time>
      </trkpt>
      <trkpt lat="45.23352" lon="5.75861">
        <ele>1112</ele>
        <time>2021-11-06T05:55:20.000Z</time>
      </trkpt>
      <trkpt lat="45.2335" lon="5.75865">
        <ele>1112.4000244141</ele>
        <time>2021-11-06T05:55:22.000Z</time>
      </trkpt>
      <trkpt lat="45.23349" lon="5.75868">
        <ele>1112.8000488281</ele>
        <time>2021-11-06T05:55:24.000Z</time>
      </trkpt>
      <trkpt lat="45.23349" lon="5.75876">
        <ele>1113.4000244141</ele>
        <time>2021-11-06T05:55:28.000Z</time>
      </trkpt>
      <trkpt lat="45.2335" lon="5.7588">
        <ele>1114.1999511719</ele>
        <time>2021-11-06T05:55:31.000Z</time>
      </trkpt>
      <trkpt lat="45.23351" lon="5.75882">
        <ele>1114.4000244141</ele>
        <time>2021-11-06T05:55:33.000Z</time>
      </trkpt>
      <trkpt lat="45.23352" lon="5.75883">
        <ele>1115</ele>
        <time>2021-11-06T05:55:35.000Z</time>
      </trkpt>
      <trkpt lat="45.23353" lon="5.75885">
        <ele>1115.1999511719</ele>
        <time>2021-11-06T05:55:36.000Z</time>
      </trkpt>
      <trkpt lat="45.23353" lon="5.75886">
        <ele>1115.8000488281</ele>
        <time>2021-11-06T05:55:37.000Z</time>
      </trkpt>
      <trkpt lat="45.23354" lon="5.75889">
        <ele>1116.1999511719</ele>
        <time>2021-11-06T05:55:39.000Z</time>
      </trkpt>
      <trkpt lat="45.23355" lon="5.75893">
        <ele>1116.8000488281</ele>
        <time>2021-11-06T05:55:43.000Z</time>
      </trkpt>
      <trkpt lat="45.23357" lon="5.75898">
        <ele>1117.8000488281</ele>
        <time>2021-11-06T05:55:47.000Z</time>
      </trkpt>
      <trkpt lat="45.2336" lon="5.75902">
        <ele>1118.5999755859</ele>
        <time>2021-11-06T05:55:50.000Z</time>
      </trkpt>
      <trkpt lat="45.23361" lon="5.75903">
        <ele>1119</ele>
        <time>2021-11-06T05:55:51.000Z</time>
      </trkpt>
      <trkpt lat="45.23364" lon="5.75911">
        <ele>1120.1999511719</ele>
        <time>2021-11-06T05:55:56.000Z</time>
      </trkpt>
      <trkpt lat="45.23365" lon="5.75912">
        <ele>1120.5999755859</ele>
        <time>2021-11-06T05:55:57.000Z</time>
      </trkpt>
      <trkpt lat="45.23367" lon="5.75917">
        <ele>1121</ele>
        <time>2021-11-06T05:56:00.000Z</time>
      </trkpt>
      <trkpt lat="45.23367" lon="5.75919">
        <ele>1121.4000244141</ele>
        <time>2021-11-06T05:56:02.000Z</time>
      </trkpt>
      <trkpt lat="45.23368" lon="5.75923">
        <ele>1122</ele>
        <time>2021-11-06T05:56:04.000Z</time>
      </trkpt>
      <trkpt lat="45.23368" lon="5.75928">
        <ele>1122.4000244141</ele>
        <time>2021-11-06T05:56:06.000Z</time>
      </trkpt>
      <trkpt lat="45.2337" lon="5.75931">
        <ele>1123</ele>
        <time>2021-11-06T05:56:10.000Z</time>
      </trkpt>
      <trkpt lat="45.23371" lon="5.75934">
        <ele>1123.8000488281</ele>
        <time>2021-11-06T05:56:12.000Z</time>
      </trkpt>
      <trkpt lat="45.23373" lon="5.75937">
        <ele>1124.4000244141</ele>
        <time>2021-11-06T05:56:16.000Z</time>
      </trkpt>
      <trkpt lat="45.23372" lon="5.75936">
        <ele>1124.8000488281</ele>
        <time>2021-11-06T05:56:17.000Z</time>
      </trkpt>
      <trkpt lat="45.23372" lon="5.75933">
        <ele>1125.4000244141</ele>
        <time>2021-11-06T05:56:19.000Z</time>
      </trkpt>
      <trkpt lat="45.2337" lon="5.75929">
        <ele>1125.8000488281</ele>
        <time>2021-11-06T05:56:21.000Z</time>
      </trkpt>
      <trkpt lat="45.2337" lon="5.75927">
        <ele>1126</ele>
        <time>2021-11-06T05:56:22.000Z</time>
      </trkpt>
      <trkpt lat="45.23372" lon="5.75924">
        <ele>1126.5999755859</ele>
        <time>2021-11-06T05:56:24.000Z</time>
      </trkpt>
      <trkpt lat="45.23372" lon="5.75922">
        <ele>1127</ele>
        <time>2021-11-06T05:56:26.000Z</time>
      </trkpt>
      <trkpt lat="45.23372" lon="5.75914">
        <ele>1128</ele>
        <time>2021-11-06T05:56:30.000Z</time>
      </trkpt>
      <trkpt lat="45.23372" lon="5.75911">
        <ele>1128.4000244141</ele>
        <time>2021-11-06T05:56:32.000Z</time>
      </trkpt>
      <trkpt lat="45.23372" lon="5.7591">
        <ele>1128.5999755859</ele>
        <time>2021-11-06T05:56:33.000Z</time>
      </trkpt>
      <trkpt lat="45.23374" lon="5.75905">
        <ele>1129.4000244141</ele>
        <time>2021-11-06T05:56:36.000Z</time>
      </trkpt>
      <trkpt lat="45.23376" lon="5.75898">
        <ele>1130.4000244141</ele>
        <time>2021-11-06T05:56:41.000Z</time>
      </trkpt>
      <trkpt lat="45.23377" lon="5.75897">
        <ele>1130.8000488281</ele>
        <time>2021-11-06T05:56:42.000Z</time>
      </trkpt>
      <trkpt lat="45.23377" lon="5.75896">
        <ele>1131.1999511719</ele>
        <time>2021-11-06T05:56:43.000Z</time>
      </trkpt>
      <trkpt lat="45.2338" lon="5.75894">
        <ele>1131.8000488281</ele>
        <time>2021-11-06T05:56:46.000Z</time>
      </trkpt>
      <trkpt lat="45.23383" lon="5.75891">
        <ele>1132.8000488281</ele>
        <time>2021-11-06T05:56:49.000Z</time>
      </trkpt>
      <trkpt lat="45.23385" lon="5.75889">
        <ele>1133.4000244141</ele>
        <time>2021-11-06T05:56:52.000Z</time>
      </trkpt>
      <trkpt lat="45.23386" lon="5.75889">
        <ele>1133.5999755859</ele>
        <time>2021-11-06T05:56:53.000Z</time>
      </trkpt>
      <trkpt lat="45.23387" lon="5.75888">
        <ele>1134</ele>
        <time>2021-11-06T05:56:54.000Z</time>
      </trkpt>
      <trkpt lat="45.23394" lon="5.7589">
        <ele>1135.4000244141</ele>
        <time>2021-11-06T05:57:00.000Z</time>
      </trkpt>
      <trkpt lat="45.23396" lon="5.7589">
        <ele>1136</ele>
        <time>2021-11-06T05:57:02.000Z</time>
      </trkpt>
      <trkpt lat="45.23399" lon="5.7589">
        <ele>1136.5999755859</ele>
        <time>2021-11-06T05:57:05.000Z</time>
      </trkpt>
      <trkpt lat="45.23401" lon="5.7589">
        <ele>1137</ele>
        <time>2021-11-06T05:57:06.000Z</time>
      </trkpt>
      <trkpt lat="45.23403" lon="5.75889">
        <ele>1137.5999755859</ele>
        <time>2021-11-06T05:57:08.000Z</time>
      </trkpt>
      <trkpt lat="45.23406" lon="5.75889">
        <ele>1138</ele>
        <time>2021-11-06T05:57:11.000Z</time>
      </trkpt>
      <trkpt lat="45.23408" lon="5.75889">
        <ele>1138.4000244141</ele>
        <time>2021-11-06T05:57:12.000Z</time>
      </trkpt>
      <trkpt lat="45.2341" lon="5.75889">
        <ele>1138.8000488281</ele>
        <time>2021-11-06T05:57:13.000Z</time>
      </trkpt>
      <trkpt lat="45.23415" lon="5.75885">
        <ele>1139.8000488281</ele>
        <time>2021-11-06T05:57:18.000Z</time>
      </trkpt>
      <trkpt lat="45.23416" lon="5.75885">
        <ele>1140.1999511719</ele>
        <time>2021-11-06T05:57:19.000Z</time>
      </trkpt>
      <trkpt lat="45.23419" lon="5.75883">
        <ele>1141</ele>
        <time>2021-11-06T05:57:22.000Z</time>
      </trkpt>
      <trkpt lat="45.23421" lon="5.75883">
        <ele>1141.1999511719</ele>
        <time>2021-11-06T05:57:24.000Z</time>
      </trkpt>
      <trkpt lat="45.23422" lon="5.75883">
        <ele>1141.8000488281</ele>
        <time>2021-11-06T05:57:26.000Z</time>
      </trkpt>
      <trkpt lat="45.23424" lon="5.75882">
        <ele>1142.5999755859</ele>
        <time>2021-11-06T05:57:28.000Z</time>
      </trkpt>
      <trkpt lat="45.23425" lon="5.7588">
        <ele>1143</ele>
        <time>2021-11-06T05:57:30.000Z</time>
      </trkpt>
      <trkpt lat="45.23427" lon="5.75878">
        <ele>1143.1999511719</ele>
        <time>2021-11-06T05:57:32.000Z</time>
      </trkpt>
      <trkpt lat="45.23429" lon="5.75879">
        <ele>1143.8000488281</ele>
        <time>2021-11-06T05:57:34.000Z</time>
      </trkpt>
      <trkpt lat="45.23432" lon="5.75876">
        <ele>1144.4000244141</ele>
        <time>2021-11-06T05:57:36.000Z</time>
      </trkpt>
      <trkpt lat="45.23434" lon="5.75873">
        <ele>1144.8000488281</ele>
        <time>2021-11-06T05:57:38.000Z</time>
      </trkpt>
      <trkpt lat="45.23435" lon="5.75872">
        <ele>1144.8000488281</ele>
        <time>2021-11-06T05:57:39.000Z</time>
      </trkpt>
      <trkpt lat="45.23438" lon="5.75869">
        <ele>1146</ele>
        <time>2021-11-06T05:57:42.000Z</time>
      </trkpt>
      <trkpt lat="45.23439" lon="5.75868">
        <ele>1146.5999755859</ele>
        <time>2021-11-06T05:57:44.000Z</time>
      </trkpt>
      <trkpt lat="45.2344" lon="5.75867">
        <ele>1146.5999755859</ele>
        <time>2021-11-06T05:57:45.000Z</time>
      </trkpt>
      <trkpt lat="45.23442" lon="5.75867">
        <ele>1147.1999511719</ele>
        <time>2021-11-06T05:57:46.000Z</time>
      </trkpt>
      <trkpt lat="45.23444" lon="5.75866">
        <ele>1147.8000488281</ele>
        <time>2021-11-06T05:57:48.000Z</time>
      </trkpt>
      <trkpt lat="45.23446" lon="5.75866">
        <ele>1148.4000244141</ele>
        <time>2021-11-06T05:57:50.000Z</time>
      </trkpt>
      <trkpt lat="45.23446" lon="5.75864">
        <ele>1148.5999755859</ele>
        <time>2021-11-06T05:57:51.000Z</time>
      </trkpt>
      <trkpt lat="45.23447" lon="5.75864">
        <ele>1149.1999511719</ele>
        <time>2021-11-06T05:57:52.000Z</time>
      </trkpt>
      <trkpt lat="45.23449" lon="5.75864">
        <ele>1149.4000244141</ele>
        <time>2021-11-06T05:57:53.000Z</time>
      </trkpt>
      <trkpt lat="45.23451" lon="5.75863">
        <ele>1150</ele>
        <time>2021-11-06T05:57:55.000Z</time>
      </trkpt>
      <trkpt lat="45.23452" lon="5.75862">
        <ele>1150.1999511719</ele>
        <time>2021-11-06T05:57:56.000Z</time>
      </trkpt>
      <trkpt lat="45.23454" lon="5.75861">
        <ele>1151</ele>
        <time>2021-11-06T05:57:58.000Z</time>
      </trkpt>
      <trkpt lat="45.23455" lon="5.7586">
        <ele>1151.1999511719</ele>
        <time>2021-11-06T05:57:59.000Z</time>
      </trkpt>
      <trkpt lat="45.23456" lon="5.75857">
        <ele>1151.5999755859</ele>
        <time>2021-11-06T05:58:01.000Z</time>
      </trkpt>
      <trkpt lat="45.23458" lon="5.75855">
        <ele>1152</ele>
        <time>2021-11-06T05:58:02.000Z</time>
      </trkpt>
      <trkpt lat="45.23463" lon="5.7585">
        <ele>1153.1999511719</ele>
        <time>2021-11-06T05:58:07.000Z</time>
      </trkpt>
      <trkpt lat="45.23464" lon="5.7585">
        <ele>1153.5999755859</ele>
        <time>2021-11-06T05:58:08.000Z</time>
      </trkpt>
      <trkpt lat="45.23467" lon="5.75848">
        <ele>1154.4000244141</ele>
        <time>2021-11-06T05:58:11.000Z</time>
      </trkpt>
      <trkpt lat="45.2347" lon="5.75846">
        <ele>1155.4000244141</ele>
        <time>2021-11-06T05:58:15.000Z</time>
      </trkpt>
      <trkpt lat="45.23472" lon="5.75844">
        <ele>1156.4000244141</ele>
        <time>2021-11-06T05:58:18.000Z</time>
      </trkpt>
      <trkpt lat="45.23473" lon="5.75843">
        <ele>1156.5999755859</ele>
        <time>2021-11-06T05:58:19.000Z</time>
      </trkpt>
      <trkpt lat="45.23475" lon="5.7584">
        <ele>1157.8000488281</ele>
        <time>2021-11-06T05:58:24.000Z</time>
      </trkpt>
      <trkpt lat="45.2348" lon="5.75835">
        <ele>1159</ele>
        <time>2021-11-06T05:58:29.000Z</time>
      </trkpt>
      <trkpt lat="45.23482" lon="5.75833">
        <ele>1160</ele>
        <time>2021-11-06T05:58:33.000Z</time>
      </trkpt>
      <trkpt lat="45.23485" lon="5.75835">
        <ele>1160.5999755859</ele>
        <time>2021-11-06T05:58:36.000Z</time>
      </trkpt>
      <trkpt lat="45.23487" lon="5.75834">
        <ele>1161</ele>
        <time>2021-11-06T05:58:38.000Z</time>
      </trkpt>
      <trkpt lat="45.2349" lon="5.75834">
        <ele>1161.8000488281</ele>
        <time>2021-11-06T05:58:40.000Z</time>
      </trkpt>
      <trkpt lat="45.23492" lon="5.75832">
        <ele>1162.1999511719</ele>
        <time>2021-11-06T05:58:42.000Z</time>
      </trkpt>
      <trkpt lat="45.23496" lon="5.75828">
        <ele>1163.4000244141</ele>
        <time>2021-11-06T05:58:47.000Z</time>
      </trkpt>
      <trkpt lat="45.23497" lon="5.75827">
        <ele>1163.5999755859</ele>
        <time>2021-11-06T05:58:48.000Z</time>
      </trkpt>
      <trkpt lat="45.23501" lon="5.75827">
        <ele>1164.4000244141</ele>
        <time>2021-11-06T05:58:52.000Z</time>
      </trkpt>
      <trkpt lat="45.23505" lon="5.75824">
        <ele>1165.4000244141</ele>
        <time>2021-11-06T05:58:55.000Z</time>
      </trkpt>
      <trkpt lat="45.23509" lon="5.7582">
        <ele>1166.4000244141</ele>
        <time>2021-11-06T05:59:00.000Z</time>
      </trkpt>
      <trkpt lat="45.2351" lon="5.75818">
        <ele>1167.1999511719</ele>
        <time>2021-11-06T05:59:02.000Z</time>
      </trkpt>
      <trkpt lat="45.23513" lon="5.75818">
        <ele>1167.8000488281</ele>
        <time>2021-11-06T05:59:04.000Z</time>
      </trkpt>
      <trkpt lat="45.23515" lon="5.75816">
        <ele>1168.4000244141</ele>
        <time>2021-11-06T05:59:07.000Z</time>
      </trkpt>
      <trkpt lat="45.23517" lon="5.75815">
        <ele>1168.4000244141</ele>
        <time>2021-11-06T05:59:08.000Z</time>
      </trkpt>
      <trkpt lat="45.23518" lon="5.75814">
        <ele>1168.8000488281</ele>
        <time>2021-11-06T05:59:10.000Z</time>
      </trkpt>
      <trkpt lat="45.23522" lon="5.75812">
        <ele>1169.8000488281</ele>
        <time>2021-11-06T05:59:13.000Z</time>
      </trkpt>
      <trkpt lat="45.23525" lon="5.75811">
        <ele>1170.5999755859</ele>
        <time>2021-11-06T05:59:16.000Z</time>
      </trkpt>
      <trkpt lat="45.23526" lon="5.75811">
        <ele>1171</ele>
        <time>2021-11-06T05:59:17.000Z</time>
      </trkpt>
      <trkpt lat="45.23527" lon="5.75809">
        <ele>1171.1999511719</ele>
        <time>2021-11-06T05:59:19.000Z</time>
      </trkpt>
      <trkpt lat="45.23527" lon="5.75807">
        <ele>1171.1999511719</ele>
        <time>2021-11-06T05:59:20.000Z</time>
      </trkpt>
      <trkpt lat="45.23529" lon="5.75806">
        <ele>1172</ele>
        <time>2021-11-06T05:59:23.000Z</time>
      </trkpt>
      <trkpt lat="45.2353" lon="5.75802">
        <ele>1173</ele>
        <time>2021-11-06T05:59:27.000Z</time>
      </trkpt>
      <trkpt lat="45.23531" lon="5.75802">
        <ele>1173.1999511719</ele>
        <time>2021-11-06T05:59:28.000Z</time>
      </trkpt>
      <trkpt lat="45.23535" lon="5.75802">
        <ele>1174</ele>
        <time>2021-11-06T05:59:32.000Z</time>
      </trkpt>
      <trkpt lat="45.23536" lon="5.75802">
        <ele>1174.4000244141</ele>
        <time>2021-11-06T05:59:33.000Z</time>
      </trkpt>
      <trkpt lat="45.23538" lon="5.75801">
        <ele>1175</ele>
        <time>2021-11-06T05:59:35.000Z</time>
      </trkpt>
      <trkpt lat="45.23541" lon="5.758">
        <ele>1175.5999755859</ele>
        <time>2021-11-06T05:59:37.000Z</time>
      </trkpt>
      <trkpt lat="45.23543" lon="5.758">
        <ele>1175.8000488281</ele>
        <time>2021-11-06T05:59:38.000Z</time>
      </trkpt>
      <trkpt lat="45.23548" lon="5.758">
        <ele>1176.8000488281</ele>
        <time>2021-11-06T05:59:41.000Z</time>
      </trkpt>
      <trkpt lat="45.23551" lon="5.75799">
        <ele>1177.8000488281</ele>
        <time>2021-11-06T05:59:45.000Z</time>
      </trkpt>
      <trkpt lat="45.23555" lon="5.75799">
        <ele>1179</ele>
        <time>2021-11-06T05:59:48.000Z</time>
      </trkpt>
      <trkpt lat="45.23557" lon="5.75798">
        <ele>1179.5999755859</ele>
        <time>2021-11-06T05:59:50.000Z</time>
      </trkpt>
      <trkpt lat="45.23558" lon="5.75797">
        <ele>1179.8000488281</ele>
        <time>2021-11-06T05:59:52.000Z</time>
      </trkpt>
      <trkpt lat="45.23559" lon="5.75797">
        <ele>1180</ele>
        <time>2021-11-06T05:59:53.000Z</time>
      </trkpt>
      <trkpt lat="45.23563" lon="5.75799">
        <ele>1181.1999511719</ele>
        <time>2021-11-06T05:59:56.000Z</time>
      </trkpt>
      <trkpt lat="45.23564" lon="5.75797">
        <ele>1181.5999755859</ele>
        <time>2021-11-06T05:59:58.000Z</time>
      </trkpt>
      <trkpt lat="45.23566" lon="5.75793">
        <ele>1182.1999511719</ele>
        <time>2021-11-06T06:00:02.000Z</time>
      </trkpt>
      <trkpt lat="45.23571" lon="5.7579">
        <ele>1183.5999755859</ele>
        <time>2021-11-06T06:00:06.000Z</time>
      </trkpt>
      <trkpt lat="45.23574" lon="5.7579">
        <ele>1184.4000244141</ele>
        <time>2021-11-06T06:00:09.000Z</time>
      </trkpt>
      <trkpt lat="45.23576" lon="5.7579">
        <ele>1184.5999755859</ele>
        <time>2021-11-06T06:00:10.000Z</time>
      </trkpt>
      <trkpt lat="45.23578" lon="5.7579">
        <ele>1185.1999511719</ele>
        <time>2021-11-06T06:00:12.000Z</time>
      </trkpt>
      <trkpt lat="45.23581" lon="5.75791">
        <ele>1185.5999755859</ele>
        <time>2021-11-06T06:00:14.000Z</time>
      </trkpt>
      <trkpt lat="45.23583" lon="5.7579">
        <ele>1186.1999511719</ele>
        <time>2021-11-06T06:00:16.000Z</time>
      </trkpt>
      <trkpt lat="45.23588" lon="5.75792">
        <ele>1186.8000488281</ele>
        <time>2021-11-06T06:00:19.000Z</time>
      </trkpt>
      <trkpt lat="45.23589" lon="5.75792">
        <ele>1187.4000244141</ele>
        <time>2021-11-06T06:00:21.000Z</time>
      </trkpt>
      <trkpt lat="45.2359" lon="5.75791">
        <ele>1187.8000488281</ele>
        <time>2021-11-06T06:00:22.000Z</time>
      </trkpt>
      <trkpt lat="45.23591" lon="5.7579">
        <ele>1188.1999511719</ele>
        <time>2021-11-06T06:00:24.000Z</time>
      </trkpt>
      <trkpt lat="45.23595" lon="5.7579">
        <ele>1189</ele>
        <time>2021-11-06T06:00:27.000Z</time>
      </trkpt>
      <trkpt lat="45.23595" lon="5.75789">
        <ele>1189.4000244141</ele>
        <time>2021-11-06T06:00:28.000Z</time>
      </trkpt>
      <trkpt lat="45.23598" lon="5.75789">
        <ele>1190.1999511719</ele>
        <time>2021-11-06T06:00:31.000Z</time>
      </trkpt>
      <trkpt lat="45.23604" lon="5.75786">
        <ele>1191</ele>
        <time>2021-11-06T06:00:36.000Z</time>
      </trkpt>
      <trkpt lat="45.23605" lon="5.75786">
        <ele>1191.5999755859</ele>
        <time>2021-11-06T06:00:37.000Z</time>
      </trkpt>
      <trkpt lat="45.23607" lon="5.75789">
        <ele>1192.5999755859</ele>
        <time>2021-11-06T06:00:41.000Z</time>
      </trkpt>
      <trkpt lat="45.23604" lon="5.75791">
        <ele>1193.1999511719</ele>
        <time>2021-11-06T06:00:43.000Z</time>
      </trkpt>
      <trkpt lat="45.23601" lon="5.7579">
        <ele>1193.5999755859</ele>
        <time>2021-11-06T06:00:45.000Z</time>
      </trkpt>
      <trkpt lat="45.23596" lon="5.75794">
        <ele>1194.5999755859</ele>
        <time>2021-11-06T06:00:49.000Z</time>
      </trkpt>
      <trkpt lat="45.23594" lon="5.758">
        <ele>1195.4000244141</ele>
        <time>2021-11-06T06:00:52.000Z</time>
      </trkpt>
      <trkpt lat="45.23593" lon="5.75801">
        <ele>1195.8000488281</ele>
        <time>2021-11-06T06:00:53.000Z</time>
      </trkpt>
      <trkpt lat="45.23591" lon="5.75805">
        <ele>1196.4000244141</ele>
        <time>2021-11-06T06:00:57.000Z</time>
      </trkpt>
      <trkpt lat="45.23591" lon="5.75806">
        <ele>1197</ele>
        <time>2021-11-06T06:00:58.000Z</time>
      </trkpt>
      <trkpt lat="45.2359" lon="5.75808">
        <ele>1197.4000244141</ele>
        <time>2021-11-06T06:01:00.000Z</time>
      </trkpt>
      <trkpt lat="45.23589" lon="5.7581">
        <ele>1197.8000488281</ele>
        <time>2021-11-06T06:01:02.000Z</time>
      </trkpt>
      <trkpt lat="45.23589" lon="5.75812">
        <ele>1198</ele>
        <time>2021-11-06T06:01:03.000Z</time>
      </trkpt>
      <trkpt lat="45.23588" lon="5.75816">
        <ele>1198.8000488281</ele>
        <time>2021-11-06T06:01:06.000Z</time>
      </trkpt>
      <trkpt lat="45.23588" lon="5.75817">
        <ele>1199</ele>
        <time>2021-11-06T06:01:07.000Z</time>
      </trkpt>
      <trkpt lat="45.23586" lon="5.75822">
        <ele>1199.5999755859</ele>
        <time>2021-11-06T06:01:11.000Z</time>
      </trkpt>
      <trkpt lat="45.23586" lon="5.75823">
        <ele>1200.1999511719</ele>
        <time>2021-11-06T06:01:12.000Z</time>
      </trkpt>
      <trkpt lat="45.23585" lon="5.75827">
        <ele>1201.1999511719</ele>
        <time>2021-11-06T06:01:16.000Z</time>
      </trkpt>
      <trkpt lat="45.23585" lon="5.75833">
        <ele>1201.5999755859</ele>
        <time>2021-11-06T06:01:18.000Z</time>
      </trkpt>
      <trkpt lat="45.23582" lon="5.75837">
        <ele>1202.4000244141</ele>
        <time>2021-11-06T06:01:21.000Z</time>
      </trkpt>
      <trkpt lat="45.23578" lon="5.75845">
        <ele>1203.1999511719</ele>
        <time>2021-11-06T06:01:25.000Z</time>
      </trkpt>
      <trkpt lat="45.23577" lon="5.75847">
        <ele>1203.5999755859</ele>
        <time>2021-11-06T06:01:27.000Z</time>
      </trkpt>
      <trkpt lat="45.23575" lon="5.75848">
        <ele>1204.1999511719</ele>
        <time>2021-11-06T06:01:29.000Z</time>
      </trkpt>
      <trkpt lat="45.23573" lon="5.75851">
        <ele>1204.8000488281</ele>
        <time>2021-11-06T06:01:31.000Z</time>
      </trkpt>
      <trkpt lat="45.2357" lon="5.75856">
        <ele>1205.4000244141</ele>
        <time>2021-11-06T06:01:34.000Z</time>
      </trkpt>
      <trkpt lat="45.23569" lon="5.75857">
        <ele>1206</ele>
        <time>2021-11-06T06:01:36.000Z</time>
      </trkpt>
      <trkpt lat="45.23568" lon="5.75859">
        <ele>1206.1999511719</ele>
        <time>2021-11-06T06:01:37.000Z</time>
      </trkpt>
      <trkpt lat="45.23568" lon="5.75861">
        <ele>1206.8000488281</ele>
        <time>2021-11-06T06:01:39.000Z</time>
      </trkpt>
      <trkpt lat="45.23567" lon="5.75863">
        <ele>1207</ele>
        <time>2021-11-06T06:01:40.000Z</time>
      </trkpt>
      <trkpt lat="45.23567" lon="5.75864">
        <ele>1207.1999511719</ele>
        <time>2021-11-06T06:01:41.000Z</time>
      </trkpt>
      <trkpt lat="45.23567" lon="5.75866">
        <ele>1207.5999755859</ele>
        <time>2021-11-06T06:01:42.000Z</time>
      </trkpt>
      <trkpt lat="45.23565" lon="5.7587">
        <ele>1208</ele>
        <time>2021-11-06T06:01:44.000Z</time>
      </trkpt>
      <trkpt lat="45.23562" lon="5.75875">
        <ele>1209.1999511719</ele>
        <time>2021-11-06T06:01:48.000Z</time>
      </trkpt>
      <trkpt lat="45.2356" lon="5.7588">
        <ele>1210.1999511719</ele>
        <time>2021-11-06T06:01:52.000Z</time>
      </trkpt>
      <trkpt lat="45.23559" lon="5.7588">
        <ele>1210.5999755859</ele>
        <time>2021-11-06T06:01:54.000Z</time>
      </trkpt>
      <trkpt lat="45.23559" lon="5.75882">
        <ele>1210.8000488281</ele>
        <time>2021-11-06T06:01:55.000Z</time>
      </trkpt>
      <trkpt lat="45.23558" lon="5.75884">
        <ele>1211.1999511719</ele>
        <time>2021-11-06T06:01:56.000Z</time>
      </trkpt>
      <trkpt lat="45.23556" lon="5.7589">
        <ele>1212.1999511719</ele>
        <time>2021-11-06T06:01:59.000Z</time>
      </trkpt>
      <trkpt lat="45.23555" lon="5.75892">
        <ele>1212.4000244141</ele>
        <time>2021-11-06T06:02:00.000Z</time>
      </trkpt>
      <trkpt lat="45.23555" lon="5.75894">
        <ele>1212.5999755859</ele>
        <time>2021-11-06T06:02:01.000Z</time>
      </trkpt>
      <trkpt lat="45.23555" lon="5.75897">
        <ele>1213.1999511719</ele>
        <time>2021-11-06T06:02:03.000Z</time>
      </trkpt>
      <trkpt lat="45.23554" lon="5.75899">
        <ele>1213.5999755859</ele>
        <time>2021-11-06T06:02:04.000Z</time>
      </trkpt>
      <trkpt lat="45.23554" lon="5.75901">
        <ele>1213.8000488281</ele>
        <time>2021-11-06T06:02:05.000Z</time>
      </trkpt>
      <trkpt lat="45.23553" lon="5.75903">
        <ele>1214.1999511719</ele>
        <time>2021-11-06T06:02:06.000Z</time>
      </trkpt>
      <trkpt lat="45.23552" lon="5.75904">
        <ele>1214.4000244141</ele>
        <time>2021-11-06T06:02:07.000Z</time>
      </trkpt>
      <trkpt lat="45.23552" lon="5.75905">
        <ele>1214.5999755859</ele>
        <time>2021-11-06T06:02:08.000Z</time>
      </trkpt>
      <trkpt lat="45.23551" lon="5.75905">
        <ele>1214.8000488281</ele>
        <time>2021-11-06T06:02:09.000Z</time>
      </trkpt>
      <trkpt lat="45.2355" lon="5.75908">
        <ele>1215.4000244141</ele>
        <time>2021-11-06T06:02:11.000Z</time>
      </trkpt>
      <trkpt lat="45.23549" lon="5.75909">
        <ele>1215.8000488281</ele>
        <time>2021-11-06T06:02:12.000Z</time>
      </trkpt>
      <trkpt lat="45.23547" lon="5.75915">
        <ele>1217</ele>
        <time>2021-11-06T06:02:17.000Z</time>
      </trkpt>
      <trkpt lat="45.23544" lon="5.75923">
        <ele>1218.1999511719</ele>
        <time>2021-11-06T06:02:21.000Z</time>
      </trkpt>
      <trkpt lat="45.23542" lon="5.75924">
        <ele>1218.4000244141</ele>
        <time>2021-11-06T06:02:23.000Z</time>
      </trkpt>
      <trkpt lat="45.23541" lon="5.75925">
        <ele>1218.5999755859</ele>
        <time>2021-11-06T06:02:24.000Z</time>
      </trkpt>
      <trkpt lat="45.2354" lon="5.75929">
        <ele>1219.4000244141</ele>
        <time>2021-11-06T06:02:26.000Z</time>
      </trkpt>
      <trkpt lat="45.23539" lon="5.75931">
        <ele>1219.8000488281</ele>
        <time>2021-11-06T06:02:28.000Z</time>
      </trkpt>
      <trkpt lat="45.23539" lon="5.75933">
        <ele>1219.8000488281</ele>
        <time>2021-11-06T06:02:29.000Z</time>
      </trkpt>
      <trkpt lat="45.23538" lon="5.75936">
        <ele>1220.5999755859</ele>
        <time>2021-11-06T06:02:31.000Z</time>
      </trkpt>
      <trkpt lat="45.23538" lon="5.7594">
        <ele>1221.4000244141</ele>
        <time>2021-11-06T06:02:33.000Z</time>
      </trkpt>
      <trkpt lat="45.23537" lon="5.75942">
        <ele>1221.5999755859</ele>
        <time>2021-11-06T06:02:34.000Z</time>
      </trkpt>
      <trkpt lat="45.23537" lon="5.75945">
        <ele>1221.5999755859</ele>
        <time>2021-11-06T06:02:35.000Z</time>
      </trkpt>
      <trkpt lat="45.23537" lon="5.75947">
        <ele>1222.1999511719</ele>
        <time>2021-11-06T06:02:36.000Z</time>
      </trkpt>
      <trkpt lat="45.23536" lon="5.75948">
        <ele>1222.8000488281</ele>
        <time>2021-11-06T06:02:38.000Z</time>
      </trkpt>
      <trkpt lat="45.23536" lon="5.75948">
        <ele>1222.8000488281</ele>
        <time>2021-11-06T06:02:39.000Z</time>
      </trkpt>
      <trkpt lat="45.23535" lon="5.75952">
        <ele>1223.1999511719</ele>
        <time>2021-11-06T06:02:41.000Z</time>
      </trkpt>
      <trkpt lat="45.23535" lon="5.75955">
        <ele>1223.8000488281</ele>
        <time>2021-11-06T06:02:43.000Z</time>
      </trkpt>
      <trkpt lat="45.23534" lon="5.75956">
        <ele>1224</ele>
        <time>2021-11-06T06:02:44.000Z</time>
      </trkpt>
      <trkpt lat="45.23532" lon="5.7596">
        <ele>1224.5999755859</ele>
        <time>2021-11-06T06:02:47.000Z</time>
      </trkpt>
      <trkpt lat="45.23531" lon="5.75963">
        <ele>1225.1999511719</ele>
        <time>2021-11-06T06:02:49.000Z</time>
      </trkpt>
      <trkpt lat="45.23531" lon="5.75964">
        <ele>1225.4000244141</ele>
        <time>2021-11-06T06:02:50.000Z</time>
      </trkpt>
      <trkpt lat="45.2353" lon="5.75965">
        <ele>1226</ele>
        <time>2021-11-06T06:02:52.000Z</time>
      </trkpt>
      <trkpt lat="45.23528" lon="5.75968">
        <ele>1226.1999511719</ele>
        <time>2021-11-06T06:02:54.000Z</time>
      </trkpt>
      <trkpt lat="45.23525" lon="5.75971">
        <ele>1226.8000488281</ele>
        <time>2021-11-06T06:02:57.000Z</time>
      </trkpt>
      <trkpt lat="45.23525" lon="5.75973">
        <ele>1227.1999511719</ele>
        <time>2021-11-06T06:02:58.000Z</time>
      </trkpt>
      <trkpt lat="45.23525" lon="5.75975">
        <ele>1227.4000244141</ele>
        <time>2021-11-06T06:02:59.000Z</time>
      </trkpt>
      <trkpt lat="45.23525" lon="5.75982">
        <ele>1228</ele>
        <time>2021-11-06T06:03:02.000Z</time>
      </trkpt>
      <trkpt lat="45.23523" lon="5.75984">
        <ele>1228.5999755859</ele>
        <time>2021-11-06T06:03:04.000Z</time>
      </trkpt>
      <trkpt lat="45.2352" lon="5.75989">
        <ele>1229.5999755859</ele>
        <time>2021-11-06T06:03:09.000Z</time>
      </trkpt>
      <trkpt lat="45.23516" lon="5.75998">
        <ele>1230.8000488281</ele>
        <time>2021-11-06T06:03:13.000Z</time>
      </trkpt>
      <trkpt lat="45.23514" lon="5.76002">
        <ele>1231.1999511719</ele>
        <time>2021-11-06T06:03:15.000Z</time>
      </trkpt>
      <trkpt lat="45.23512" lon="5.76004">
        <ele>1231.8000488281</ele>
        <time>2021-11-06T06:03:17.000Z</time>
      </trkpt>
      <trkpt lat="45.2351" lon="5.76006">
        <ele>1232</ele>
        <time>2021-11-06T06:03:19.000Z</time>
      </trkpt>
      <trkpt lat="45.23508" lon="5.7601">
        <ele>1232.8000488281</ele>
        <time>2021-11-06T06:03:21.000Z</time>
      </trkpt>
      <trkpt lat="45.23509" lon="5.76014">
        <ele>1233.8000488281</ele>
        <time>2021-11-06T06:03:25.000Z</time>
      </trkpt>
      <trkpt lat="45.23509" lon="5.76014">
        <ele>1234.4000244141</ele>
        <time>2021-11-06T06:03:26.000Z</time>
      </trkpt>
      <trkpt lat="45.2351" lon="5.76014">
        <ele>1234.5999755859</ele>
        <time>2021-11-06T06:03:27.000Z</time>
      </trkpt>
      <trkpt lat="45.2351" lon="5.76014">
        <ele>1235</ele>
        <time>2021-11-06T06:03:28.000Z</time>
      </trkpt>
      <trkpt lat="45.23512" lon="5.76012">
        <ele>1235.5999755859</ele>
        <time>2021-11-06T06:03:31.000Z</time>
      </trkpt>
      <trkpt lat="45.23513" lon="5.76009">
        <ele>1236</ele>
        <time>2021-11-06T06:03:33.000Z</time>
      </trkpt>
      <trkpt lat="45.23515" lon="5.76003">
        <ele>1237.1999511719</ele>
        <time>2021-11-06T06:03:38.000Z</time>
      </trkpt>
      <trkpt lat="45.23515" lon="5.76001">
        <ele>1237.5999755859</ele>
        <time>2021-11-06T06:03:39.000Z</time>
      </trkpt>
      <trkpt lat="45.2352" lon="5.75999">
        <ele>1238</ele>
        <time>2021-11-06T06:03:42.000Z</time>
      </trkpt>
      <trkpt lat="45.23521" lon="5.75999">
        <ele>1238.1999511719</ele>
        <time>2021-11-06T06:03:43.000Z</time>
      </trkpt>
      <trkpt lat="45.23525" lon="5.75998">
        <ele>1239.1999511719</ele>
        <time>2021-11-06T06:03:46.000Z</time>
      </trkpt>
      <trkpt lat="45.23526" lon="5.75998">
        <ele>1239.4000244141</ele>
        <time>2021-11-06T06:03:47.000Z</time>
      </trkpt>
      <trkpt lat="45.23529" lon="5.75997">
        <ele>1239.8000488281</ele>
        <time>2021-11-06T06:03:49.000Z</time>
      </trkpt>
      <trkpt lat="45.23529" lon="5.75997">
        <ele>1240.1999511719</ele>
        <time>2021-11-06T06:03:50.000Z</time>
      </trkpt>
      <trkpt lat="45.2353" lon="5.75996">
        <ele>1240.4000244141</ele>
        <time>2021-11-06T06:03:51.000Z</time>
      </trkpt>
      <trkpt lat="45.23531" lon="5.75995">
        <ele>1240.5999755859</ele>
        <time>2021-11-06T06:03:52.000Z</time>
      </trkpt>
      <trkpt lat="45.23536" lon="5.75993">
        <ele>1241.5999755859</ele>
        <time>2021-11-06T06:03:56.000Z</time>
      </trkpt>
      <trkpt lat="45.23537" lon="5.75993">
        <ele>1241.8000488281</ele>
        <time>2021-11-06T06:03:57.000Z</time>
      </trkpt>
      <trkpt lat="45.23541" lon="5.75994">
        <ele>1242.5999755859</ele>
        <time>2021-11-06T06:04:01.000Z</time>
      </trkpt>
      <trkpt lat="45.23542" lon="5.75994">
        <ele>1243</ele>
        <time>2021-11-06T06:04:02.000Z</time>
      </trkpt>
      <trkpt lat="45.23544" lon="5.75993">
        <ele>1243.5999755859</ele>
        <time>2021-11-06T06:04:05.000Z</time>
      </trkpt>
      <trkpt lat="45.23546" lon="5.75992">
        <ele>1244</ele>
        <time>2021-11-06T06:04:07.000Z</time>
      </trkpt>
      <trkpt lat="45.23547" lon="5.75991">
        <ele>1244.1999511719</ele>
        <time>2021-11-06T06:04:08.000Z</time>
      </trkpt>
      <trkpt lat="45.23551" lon="5.75989">
        <ele>1245</ele>
        <time>2021-11-06T06:04:12.000Z</time>
      </trkpt>
      <trkpt lat="45.23552" lon="5.75989">
        <ele>1245</ele>
        <time>2021-11-06T06:04:13.000Z</time>
      </trkpt>
      <trkpt lat="45.23554" lon="5.75988">
        <ele>1246</ele>
        <time>2021-11-06T06:04:15.000Z</time>
      </trkpt>
      <trkpt lat="45.23555" lon="5.75987">
        <ele>1246.1999511719</ele>
        <time>2021-11-06T06:04:16.000Z</time>
      </trkpt>
      <trkpt lat="45.23558" lon="5.75982">
        <ele>1246.8000488281</ele>
        <time>2021-11-06T06:04:21.000Z</time>
      </trkpt>
      <trkpt lat="45.23558" lon="5.7598">
        <ele>1247.1999511719</ele>
        <time>2021-11-06T06:04:22.000Z</time>
      </trkpt>
      <trkpt lat="45.23559" lon="5.75978">
        <ele>1247.4000244141</ele>
        <time>2021-11-06T06:04:23.000Z</time>
      </trkpt>
      <trkpt lat="45.2356" lon="5.75975">
        <ele>1247.8000488281</ele>
        <time>2021-11-06T06:04:25.000Z</time>
      </trkpt>
      <trkpt lat="45.23562" lon="5.75974">
        <ele>1248.4000244141</ele>
        <time>2021-11-06T06:04:27.000Z</time>
      </trkpt>
      <trkpt lat="45.23561" lon="5.75973">
        <ele>1248.5999755859</ele>
        <time>2021-11-06T06:04:28.000Z</time>
      </trkpt>
      <trkpt lat="45.23563" lon="5.75971">
        <ele>1249</ele>
        <time>2021-11-06T06:04:30.000Z</time>
      </trkpt>
      <trkpt lat="45.23564" lon="5.7597">
        <ele>1249.4000244141</ele>
        <time>2021-11-06T06:04:31.000Z</time>
      </trkpt>
      <trkpt lat="45.23565" lon="5.75969">
        <ele>1249.8000488281</ele>
        <time>2021-11-06T06:04:32.000Z</time>
      </trkpt>
      <trkpt lat="45.23567" lon="5.75968">
        <ele>1250.1999511719</ele>
        <time>2021-11-06T06:04:34.000Z</time>
      </trkpt>
      <trkpt lat="45.2357" lon="5.75966">
        <ele>1250.8000488281</ele>
        <time>2021-11-06T06:04:37.000Z</time>
      </trkpt>
      <trkpt lat="45.23577" lon="5.75964">
        <ele>1252</ele>
        <time>2021-11-06T06:04:41.000Z</time>
      </trkpt>
      <trkpt lat="45.2358" lon="5.75964">
        <ele>1252.8000488281</ele>
        <time>2021-11-06T06:04:43.000Z</time>
      </trkpt>
      <trkpt lat="45.23582" lon="5.75963">
        <ele>1253</ele>
        <time>2021-11-06T06:04:44.000Z</time>
      </trkpt>
      <trkpt lat="45.23582" lon="5.75962">
        <ele>1253.4000244141</ele>
        <time>2021-11-06T06:04:45.000Z</time>
      </trkpt>
      <trkpt lat="45.23584" lon="5.75962">
        <ele>1253.8000488281</ele>
        <time>2021-11-06T06:04:47.000Z</time>
      </trkpt>
      <trkpt lat="45.23585" lon="5.75963">
        <ele>1254</ele>
        <time>2021-11-06T06:04:48.000Z</time>
      </trkpt>
      <trkpt lat="45.23586" lon="5.75963">
        <ele>1254.4000244141</ele>
        <time>2021-11-06T06:04:49.000Z</time>
      </trkpt>
      <trkpt lat="45.2359" lon="5.75961">
        <ele>1255.1999511719</ele>
        <time>2021-11-06T06:04:52.000Z</time>
      </trkpt>
      <trkpt lat="45.23592" lon="5.75959">
        <ele>1255.4000244141</ele>
        <time>2021-11-06T06:04:53.000Z</time>
      </trkpt>
      <trkpt lat="45.23593" lon="5.75959">
        <ele>1255.8000488281</ele>
        <time>2021-11-06T06:04:54.000Z</time>
      </trkpt>
      <trkpt lat="45.23595" lon="5.75957">
        <ele>1256.4000244141</ele>
        <time>2021-11-06T06:04:56.000Z</time>
      </trkpt>
      <trkpt lat="45.23597" lon="5.75955">
        <ele>1257</ele>
        <time>2021-11-06T06:04:58.000Z</time>
      </trkpt>
      <trkpt lat="45.23597" lon="5.75954">
        <ele>1257.1999511719</ele>
        <time>2021-11-06T06:04:59.000Z</time>
      </trkpt>
      <trkpt lat="45.23598" lon="5.75954">
        <ele>1257.4000244141</ele>
        <time>2021-11-06T06:05:00.000Z</time>
      </trkpt>
      <trkpt lat="45.23602" lon="5.75953">
        <ele>1258.5999755859</ele>
        <time>2021-11-06T06:05:04.000Z</time>
      </trkpt>
      <trkpt lat="45.23607" lon="5.75951">
        <ele>1260</ele>
        <time>2021-11-06T06:05:10.000Z</time>
      </trkpt>
      <trkpt lat="45.23608" lon="5.7595">
        <ele>1260.1999511719</ele>
        <time>2021-11-06T06:05:11.000Z</time>
      </trkpt>
      <trkpt lat="45.23611" lon="5.7595">
        <ele>1261.1999511719</ele>
        <time>2021-11-06T06:05:15.000Z</time>
      </trkpt>
      <trkpt lat="45.23613" lon="5.75949">
        <ele>1261.4000244141</ele>
        <time>2021-11-06T06:05:17.000Z</time>
      </trkpt>
      <trkpt lat="45.23616" lon="5.75949">
        <ele>1262.4000244141</ele>
        <time>2021-11-06T06:05:20.000Z</time>
      </trkpt>
      <trkpt lat="45.23621" lon="5.75949">
        <ele>1263.4000244141</ele>
        <time>2021-11-06T06:05:24.000Z</time>
      </trkpt>
      <trkpt lat="45.23622" lon="5.75949">
        <ele>1263.5999755859</ele>
        <time>2021-11-06T06:05:25.000Z</time>
      </trkpt>
      <trkpt lat="45.23625" lon="5.75948">
        <ele>1264.1999511719</ele>
        <time>2021-11-06T06:05:27.000Z</time>
      </trkpt>
      <trkpt lat="45.23627" lon="5.75947">
        <ele>1264.5999755859</ele>
        <time>2021-11-06T06:05:29.000Z</time>
      </trkpt>
      <trkpt lat="45.23628" lon="5.75947">
        <ele>1264.8000488281</ele>
        <time>2021-11-06T06:05:30.000Z</time>
      </trkpt>
      <trkpt lat="45.23629" lon="5.75948">
        <ele>1265.1999511719</ele>
        <time>2021-11-06T06:05:31.000Z</time>
      </trkpt>
      <trkpt lat="45.23629" lon="5.7595">
        <ele>1265.8000488281</ele>
        <time>2021-11-06T06:05:33.000Z</time>
      </trkpt>
      <trkpt lat="45.23628" lon="5.75951">
        <ele>1266</ele>
        <time>2021-11-06T06:05:34.000Z</time>
      </trkpt>
      <trkpt lat="45.23628" lon="5.75951">
        <ele>1266.1999511719</ele>
        <time>2021-11-06T06:05:35.000Z</time>
      </trkpt>
      <trkpt lat="45.23626" lon="5.75952">
        <ele>1267.1999511719</ele>
        <time>2021-11-06T06:05:38.000Z</time>
      </trkpt>
      <trkpt lat="45.23625" lon="5.75953">
        <ele>1267.5999755859</ele>
        <time>2021-11-06T06:05:40.000Z</time>
      </trkpt>
      <trkpt lat="45.23624" lon="5.75955">
        <ele>1268.1999511719</ele>
        <time>2021-11-06T06:05:42.000Z</time>
      </trkpt>
      <trkpt lat="45.23622" lon="5.75956">
        <ele>1268.5999755859</ele>
        <time>2021-11-06T06:05:43.000Z</time>
      </trkpt>
      <trkpt lat="45.23619" lon="5.75957">
        <ele>1269.1999511719</ele>
        <time>2021-11-06T06:05:47.000Z</time>
      </trkpt>
      <trkpt lat="45.23618" lon="5.75959">
        <ele>1269.8000488281</ele>
        <time>2021-11-06T06:05:49.000Z</time>
      </trkpt>
      <trkpt lat="45.23618" lon="5.75962">
        <ele>1270.1999511719</ele>
        <time>2021-11-06T06:05:52.000Z</time>
      </trkpt>
      <trkpt lat="45.23617" lon="5.75963">
        <ele>1270.4000244141</ele>
        <time>2021-11-06T06:05:53.000Z</time>
      </trkpt>
      <trkpt lat="45.23617" lon="5.75964">
        <ele>1270.5999755859</ele>
        <time>2021-11-06T06:05:54.000Z</time>
      </trkpt>
      <trkpt lat="45.23616" lon="5.75966">
        <ele>1271</ele>
        <time>2021-11-06T06:05:55.000Z</time>
      </trkpt>
      <trkpt lat="45.23615" lon="5.75967">
        <ele>1271.4000244141</ele>
        <time>2021-11-06T06:05:56.000Z</time>
      </trkpt>
      <trkpt lat="45.23613" lon="5.75971">
        <ele>1272.1999511719</ele>
        <time>2021-11-06T06:05:59.000Z</time>
      </trkpt>
      <trkpt lat="45.23612" lon="5.75972">
        <ele>1272.1999511719</ele>
        <time>2021-11-06T06:06:00.000Z</time>
      </trkpt>
      <trkpt lat="45.2361" lon="5.75973">
        <ele>1272.8000488281</ele>
        <time>2021-11-06T06:06:02.000Z</time>
      </trkpt>
      <trkpt lat="45.23608" lon="5.75976">
        <ele>1273.4000244141</ele>
        <time>2021-11-06T06:06:05.000Z</time>
      </trkpt>
      <trkpt lat="45.23605" lon="5.75978">
        <ele>1274</ele>
        <time>2021-11-06T06:06:08.000Z</time>
      </trkpt>
      <trkpt lat="45.23601" lon="5.75983">
        <ele>1275</ele>
        <time>2021-11-06T06:06:12.000Z</time>
      </trkpt>
      <trkpt lat="45.23601" lon="5.75984">
        <ele>1275.1999511719</ele>
        <time>2021-11-06T06:06:13.000Z</time>
      </trkpt>
      <trkpt lat="45.236" lon="5.75987">
        <ele>1275.8000488281</ele>
        <time>2021-11-06T06:06:14.000Z</time>
      </trkpt>
      <trkpt lat="45.236" lon="5.75989">
        <ele>1276.1999511719</ele>
        <time>2021-11-06T06:06:15.000Z</time>
      </trkpt>
      <trkpt lat="45.23599" lon="5.7599">
        <ele>1276.4000244141</ele>
        <time>2021-11-06T06:06:16.000Z</time>
      </trkpt>
      <trkpt lat="45.23597" lon="5.75993">
        <ele>1276.8000488281</ele>
        <time>2021-11-06T06:06:18.000Z</time>
      </trkpt>
      <trkpt lat="45.23596" lon="5.75995">
        <ele>1277.4000244141</ele>
        <time>2021-11-06T06:06:19.000Z</time>
      </trkpt>
      <trkpt lat="45.23593" lon="5.76">
        <ele>1278</ele>
        <time>2021-11-06T06:06:22.000Z</time>
      </trkpt>
      <trkpt lat="45.23593" lon="5.76002">
        <ele>1278.4000244141</ele>
        <time>2021-11-06T06:06:23.000Z</time>
      </trkpt>
      <trkpt lat="45.23593" lon="5.76004">
        <ele>1278.5999755859</ele>
        <time>2021-11-06T06:06:24.000Z</time>
      </trkpt>
      <trkpt lat="45.23593" lon="5.76011">
        <ele>1279.4000244141</ele>
        <time>2021-11-06T06:06:27.000Z</time>
      </trkpt>
      <trkpt lat="45.23592" lon="5.76014">
        <ele>1280</ele>
        <time>2021-11-06T06:06:29.000Z</time>
      </trkpt>
      <trkpt lat="45.23592" lon="5.76018">
        <ele>1280.4000244141</ele>
        <time>2021-11-06T06:06:32.000Z</time>
      </trkpt>
      <trkpt lat="45.2359" lon="5.76021">
        <ele>1281.5999755859</ele>
        <time>2021-11-06T06:06:35.000Z</time>
      </trkpt>
      <trkpt lat="45.2359" lon="5.76021">
        <ele>1281.8000488281</ele>
        <time>2021-11-06T06:06:36.000Z</time>
      </trkpt>
      <trkpt lat="45.2359" lon="5.76025">
        <ele>1282.4000244141</ele>
        <time>2021-11-06T06:06:39.000Z</time>
      </trkpt>
      <trkpt lat="45.2359" lon="5.76026">
        <ele>1282.8000488281</ele>
        <time>2021-11-06T06:06:41.000Z</time>
      </trkpt>
      <trkpt lat="45.23589" lon="5.76029">
        <ele>1283.8000488281</ele>
        <time>2021-11-06T06:06:44.000Z</time>
      </trkpt>
      <trkpt lat="45.23586" lon="5.76033">
        <ele>1284.8000488281</ele>
        <time>2021-11-06T06:06:48.000Z</time>
      </trkpt>
      <trkpt lat="45.23586" lon="5.76034">
        <ele>1285</ele>
        <time>2021-11-06T06:06:49.000Z</time>
      </trkpt>
      <trkpt lat="45.23584" lon="5.76035">
        <ele>1285.5999755859</ele>
        <time>2021-11-06T06:06:51.000Z</time>
      </trkpt>
      <trkpt lat="45.23583" lon="5.76035">
        <ele>1286</ele>
        <time>2021-11-06T06:06:52.000Z</time>
      </trkpt>
      <trkpt lat="45.23579" lon="5.76037">
        <ele>1286.8000488281</ele>
        <time>2021-11-06T06:06:56.000Z</time>
      </trkpt>
      <trkpt lat="45.23578" lon="5.76038">
        <ele>1287.1999511719</ele>
        <time>2021-11-06T06:06:57.000Z</time>
      </trkpt>
      <trkpt lat="45.23577" lon="5.76042">
        <ele>1288.1999511719</ele>
        <time>2021-11-06T06:07:01.000Z</time>
      </trkpt>
      <trkpt lat="45.23574" lon="5.76046">
        <ele>1289.4000244141</ele>
        <time>2021-11-06T06:07:05.000Z</time>
      </trkpt>
      <trkpt lat="45.23572" lon="5.76049">
        <ele>1290.1999511719</ele>
        <time>2021-11-06T06:07:08.000Z</time>
      </trkpt>
      <trkpt lat="45.23572" lon="5.7605">
        <ele>1290.1999511719</ele>
        <time>2021-11-06T06:07:09.000Z</time>
      </trkpt>
      <trkpt lat="45.23571" lon="5.76051">
        <ele>1290.5999755859</ele>
        <time>2021-11-06T06:07:10.000Z</time>
      </trkpt>
      <trkpt lat="45.23568" lon="5.76055">
        <ele>1291.8000488281</ele>
        <time>2021-11-06T06:07:13.000Z</time>
      </trkpt>
      <trkpt lat="45.23568" lon="5.76056">
        <ele>1291.8000488281</ele>
        <time>2021-11-06T06:07:14.000Z</time>
      </trkpt>
      <trkpt lat="45.23567" lon="5.76059">
        <ele>1293.1999511719</ele>
        <time>2021-11-06T06:07:17.000Z</time>
      </trkpt>
      <trkpt lat="45.23567" lon="5.76059">
        <ele>1293.5999755859</ele>
        <time>2021-11-06T06:07:18.000Z</time>
      </trkpt>
      <trkpt lat="45.23565" lon="5.7606">
        <ele>1294.1999511719</ele>
        <time>2021-11-06T06:07:20.000Z</time>
      </trkpt>
      <trkpt lat="45.23562" lon="5.76064">
        <ele>1295.1999511719</ele>
        <time>2021-11-06T06:07:24.000Z</time>
      </trkpt>
      <trkpt lat="45.23559" lon="5.76065">
        <ele>1296.1999511719</ele>
        <time>2021-11-06T06:07:28.000Z</time>
      </trkpt>
      <trkpt lat="45.23558" lon="5.76065">
        <ele>1296.5999755859</ele>
        <time>2021-11-06T06:07:29.000Z</time>
      </trkpt>
      <trkpt lat="45.23558" lon="5.76066">
        <ele>1296.8000488281</ele>
        <time>2021-11-06T06:07:30.000Z</time>
      </trkpt>
      <trkpt lat="45.2356" lon="5.76065">
        <ele>1297.8000488281</ele>
        <time>2021-11-06T06:07:35.000Z</time>
      </trkpt>
      <trkpt lat="45.2356" lon="5.76064">
        <ele>1298.4000244141</ele>
        <time>2021-11-06T06:07:36.000Z</time>
      </trkpt>
      <trkpt lat="45.23561" lon="5.76064">
        <ele>1298.5999755859</ele>
        <time>2021-11-06T06:07:37.000Z</time>
      </trkpt>
      <trkpt lat="45.23562" lon="5.76064">
        <ele>1298.8000488281</ele>
        <time>2021-11-06T06:07:38.000Z</time>
      </trkpt>
      <trkpt lat="45.23565" lon="5.76064">
        <ele>1299.8000488281</ele>
        <time>2021-11-06T06:07:43.000Z</time>
      </trkpt>
      <trkpt lat="45.23566" lon="5.76064">
        <ele>1300.1999511719</ele>
        <time>2021-11-06T06:07:44.000Z</time>
      </trkpt>
      <trkpt lat="45.2357" lon="5.76065">
        <ele>1301.4000244141</ele>
        <time>2021-11-06T06:07:49.000Z</time>
      </trkpt>
      <trkpt lat="45.23571" lon="5.76065">
        <ele>1302</ele>
        <time>2021-11-06T06:07:52.000Z</time>
      </trkpt>
      <trkpt lat="45.23572" lon="5.76065">
        <ele>1302.5999755859</ele>
        <time>2021-11-06T06:07:54.000Z</time>
      </trkpt>
      <trkpt lat="45.23573" lon="5.76064">
        <ele>1303</ele>
        <time>2021-11-06T06:07:55.000Z</time>
      </trkpt>
      <trkpt lat="45.23575" lon="5.76063">
        <ele>1303.8000488281</ele>
        <time>2021-11-06T06:07:57.000Z</time>
      </trkpt>
      <trkpt lat="45.23577" lon="5.76063">
        <ele>1304.8000488281</ele>
        <time>2021-11-06T06:08:01.000Z</time>
      </trkpt>
      <trkpt lat="45.23578" lon="5.76063">
        <ele>1304.8000488281</ele>
        <time>2021-11-06T06:08:02.000Z</time>
      </trkpt>
      <trkpt lat="45.2358" lon="5.76063">
        <ele>1305.4000244141</ele>
        <time>2021-11-06T06:08:05.000Z</time>
      </trkpt>
      <trkpt lat="45.23582" lon="5.76062">
        <ele>1306</ele>
        <time>2021-11-06T06:08:07.000Z</time>
      </trkpt>
      <trkpt lat="45.23584" lon="5.76062">
        <ele>1306.1999511719</ele>
        <time>2021-11-06T06:08:08.000Z</time>
      </trkpt>
      <trkpt lat="45.23586" lon="5.76061">
        <ele>1306.8000488281</ele>
        <time>2021-11-06T06:08:10.000Z</time>
      </trkpt>
      <trkpt lat="45.23588" lon="5.7606">
        <ele>1307.1999511719</ele>
        <time>2021-11-06T06:08:12.000Z</time>
      </trkpt>
      <trkpt lat="45.2359" lon="5.76061">
        <ele>1307.5999755859</ele>
        <time>2021-11-06T06:08:14.000Z</time>
      </trkpt>
      <trkpt lat="45.2359" lon="5.76062">
        <ele>1308</ele>
        <time>2021-11-06T06:08:15.000Z</time>
      </trkpt>
      <trkpt lat="45.23589" lon="5.76062">
        <ele>1308.1999511719</ele>
        <time>2021-11-06T06:08:16.000Z</time>
      </trkpt>
      <trkpt lat="45.23586" lon="5.76066">
        <ele>1309.5999755859</ele>
        <time>2021-11-06T06:08:20.000Z</time>
      </trkpt>
      <trkpt lat="45.23585" lon="5.7607">
        <ele>1310.1999511719</ele>
        <time>2021-11-06T06:08:22.000Z</time>
      </trkpt>
      <trkpt lat="45.23585" lon="5.76071">
        <ele>1310.4000244141</ele>
        <time>2021-11-06T06:08:24.000Z</time>
      </trkpt>
      <trkpt lat="45.23584" lon="5.76072">
        <ele>1310.8000488281</ele>
        <time>2021-11-06T06:08:25.000Z</time>
      </trkpt>
      <trkpt lat="45.23579" lon="5.76075">
        <ele>1311.8000488281</ele>
        <time>2021-11-06T06:08:30.000Z</time>
      </trkpt>
      <trkpt lat="45.23579" lon="5.76075">
        <ele>1312</ele>
        <time>2021-11-06T06:08:31.000Z</time>
      </trkpt>
      <trkpt lat="45.23578" lon="5.76077">
        <ele>1312.4000244141</ele>
        <time>2021-11-06T06:08:33.000Z</time>
      </trkpt>
      <trkpt lat="45.23576" lon="5.76079">
        <ele>1312.5999755859</ele>
        <time>2021-11-06T06:08:35.000Z</time>
      </trkpt>
      <trkpt lat="45.23575" lon="5.7608">
        <ele>1313.1999511719</ele>
        <time>2021-11-06T06:08:36.000Z</time>
      </trkpt>
      <trkpt lat="45.23574" lon="5.76082">
        <ele>1313.5999755859</ele>
        <time>2021-11-06T06:08:37.000Z</time>
      </trkpt>
      <trkpt lat="45.23571" lon="5.76084">
        <ele>1314.4000244141</ele>
        <time>2021-11-06T06:08:40.000Z</time>
      </trkpt>
      <trkpt lat="45.23567" lon="5.76087">
        <ele>1315.4000244141</ele>
        <time>2021-11-06T06:08:44.000Z</time>
      </trkpt>
      <trkpt lat="45.23566" lon="5.76089">
        <ele>1315.8000488281</ele>
        <time>2021-11-06T06:08:46.000Z</time>
      </trkpt>
      <trkpt lat="45.23565" lon="5.76092">
        <ele>1316.4000244141</ele>
        <time>2021-11-06T06:08:49.000Z</time>
      </trkpt>
      <trkpt lat="45.23564" lon="5.76093">
        <ele>1316.5999755859</ele>
        <time>2021-11-06T06:08:50.000Z</time>
      </trkpt>
      <trkpt lat="45.23563" lon="5.76096">
        <ele>1317.1999511719</ele>
        <time>2021-11-06T06:08:52.000Z</time>
      </trkpt>
      <trkpt lat="45.23562" lon="5.76097">
        <ele>1317.4000244141</ele>
        <time>2021-11-06T06:08:53.000Z</time>
      </trkpt>
      <trkpt lat="45.23559" lon="5.761">
        <ele>1318.1999511719</ele>
        <time>2021-11-06T06:08:58.000Z</time>
      </trkpt>
      <trkpt lat="45.23558" lon="5.76101">
        <ele>1318.8000488281</ele>
        <time>2021-11-06T06:08:59.000Z</time>
      </trkpt>
      <trkpt lat="45.23556" lon="5.76101">
        <ele>1319</ele>
        <time>2021-11-06T06:09:00.000Z</time>
      </trkpt>
      <trkpt lat="45.23552" lon="5.76104">
        <ele>1319.8000488281</ele>
        <time>2021-11-06T06:09:04.000Z</time>
      </trkpt>
      <trkpt lat="45.23552" lon="5.76105">
        <ele>1320</ele>
        <time>2021-11-06T06:09:05.000Z</time>
      </trkpt>
      <trkpt lat="45.23553" lon="5.76106">
        <ele>1320.4000244141</ele>
        <time>2021-11-06T06:09:08.000Z</time>
      </trkpt>
      <trkpt lat="45.23553" lon="5.76106">
        <ele>1320.8000488281</ele>
        <time>2021-11-06T06:09:09.000Z</time>
      </trkpt>
      <trkpt lat="45.23555" lon="5.76106">
        <ele>1320.8000488281</ele>
        <time>2021-11-06T06:09:10.000Z</time>
      </trkpt>
      <trkpt lat="45.23558" lon="5.76105">
        <ele>1321.8000488281</ele>
        <time>2021-11-06T06:09:13.000Z</time>
      </trkpt>
      <trkpt lat="45.23558" lon="5.76105">
        <ele>1322</ele>
        <time>2021-11-06T06:09:14.000Z</time>
      </trkpt>
      <trkpt lat="45.23561" lon="5.76105">
        <ele>1322.4000244141</ele>
        <time>2021-11-06T06:09:17.000Z</time>
      </trkpt>
      <trkpt lat="45.23564" lon="5.76106">
        <ele>1323.1999511719</ele>
        <time>2021-11-06T06:09:20.000Z</time>
      </trkpt>
      <trkpt lat="45.23566" lon="5.76104">
        <ele>1323.5999755859</ele>
        <time>2021-11-06T06:09:22.000Z</time>
      </trkpt>
      <trkpt lat="45.23568" lon="5.76103">
        <ele>1324</ele>
        <time>2021-11-06T06:09:25.000Z</time>
      </trkpt>
      <trkpt lat="45.2357" lon="5.76104">
        <ele>1324.4000244141</ele>
        <time>2021-11-06T06:09:26.000Z</time>
      </trkpt>
      <trkpt lat="45.23573" lon="5.76102">
        <ele>1325.4000244141</ele>
        <time>2021-11-06T06:09:29.000Z</time>
      </trkpt>
      <trkpt lat="45.23573" lon="5.76102">
        <ele>1325.5999755859</ele>
        <time>2021-11-06T06:09:30.000Z</time>
      </trkpt>
      <trkpt lat="45.23578" lon="5.76101">
        <ele>1326.8000488281</ele>
        <time>2021-11-06T06:09:35.000Z</time>
      </trkpt>
      <trkpt lat="45.23581" lon="5.761">
        <ele>1327.4000244141</ele>
        <time>2021-11-06T06:09:38.000Z</time>
      </trkpt>
      <trkpt lat="45.23583" lon="5.76102">
        <ele>1327.8000488281</ele>
        <time>2021-11-06T06:09:40.000Z</time>
      </trkpt>
      <trkpt lat="45.23583" lon="5.76108">
        <ele>1328.5999755859</ele>
        <time>2021-11-06T06:09:43.000Z</time>
      </trkpt>
      <trkpt lat="45.23581" lon="5.76109">
        <ele>1329</ele>
        <time>2021-11-06T06:09:45.000Z</time>
      </trkpt>
      <trkpt lat="45.23578" lon="5.7611">
        <ele>1329.4000244141</ele>
        <time>2021-11-06T06:09:48.000Z</time>
      </trkpt>
      <trkpt lat="45.23577" lon="5.76109">
        <ele>1330</ele>
        <time>2021-11-06T06:09:49.000Z</time>
      </trkpt>
      <trkpt lat="45.23576" lon="5.7611">
        <ele>1330.4000244141</ele>
        <time>2021-11-06T06:09:50.000Z</time>
      </trkpt>
      <trkpt lat="45.23574" lon="5.76114">
        <ele>1330.8000488281</ele>
        <time>2021-11-06T06:09:53.000Z</time>
      </trkpt>
      <trkpt lat="45.23574" lon="5.76115">
        <ele>1331</ele>
        <time>2021-11-06T06:09:54.000Z</time>
      </trkpt>
      <trkpt lat="45.23567" lon="5.76118">
        <ele>1332.1999511719</ele>
        <time>2021-11-06T06:10:00.000Z</time>
      </trkpt>
      <trkpt lat="45.23564" lon="5.76121">
        <ele>1333.1999511719</ele>
        <time>2021-11-06T06:10:04.000Z</time>
      </trkpt>
      <trkpt lat="45.23563" lon="5.76121">
        <ele>1333.4000244141</ele>
        <time>2021-11-06T06:10:05.000Z</time>
      </trkpt>
      <trkpt lat="45.23561" lon="5.76124">
        <ele>1333.8000488281</ele>
        <time>2021-11-06T06:10:08.000Z</time>
      </trkpt>
      <trkpt lat="45.23559" lon="5.76126">
        <ele>1334.4000244141</ele>
        <time>2021-11-06T06:10:10.000Z</time>
      </trkpt>
      <trkpt lat="45.23558" lon="5.76128">
        <ele>1335</ele>
        <time>2021-11-06T06:10:12.000Z</time>
      </trkpt>
      <trkpt lat="45.23556" lon="5.76127">
        <ele>1335.4000244141</ele>
        <time>2021-11-06T06:10:14.000Z</time>
      </trkpt>
      <trkpt lat="45.23555" lon="5.76128">
        <ele>1335.5999755859</ele>
        <time>2021-11-06T06:10:15.000Z</time>
      </trkpt>
      <trkpt lat="45.23551" lon="5.76132">
        <ele>1336.5999755859</ele>
        <time>2021-11-06T06:10:20.000Z</time>
      </trkpt>
      <trkpt lat="45.2355" lon="5.76135">
        <ele>1337</ele>
        <time>2021-11-06T06:10:22.000Z</time>
      </trkpt>
      <trkpt lat="45.23549" lon="5.76136">
        <ele>1337.1999511719</ele>
        <time>2021-11-06T06:10:23.000Z</time>
      </trkpt>
      <trkpt lat="45.23547" lon="5.76139">
        <ele>1337.8000488281</ele>
        <time>2021-11-06T06:10:26.000Z</time>
      </trkpt>
      <trkpt lat="45.23545" lon="5.76138">
        <ele>1337.8000488281</ele>
        <time>2021-11-06T06:10:27.000Z</time>
      </trkpt>
      <trkpt lat="45.23544" lon="5.76138">
        <ele>1338.1999511719</ele>
        <time>2021-11-06T06:10:28.000Z</time>
      </trkpt>
      <trkpt lat="45.23542" lon="5.76137">
        <ele>1339</ele>
        <time>2021-11-06T06:10:30.000Z</time>
      </trkpt>
      <trkpt lat="45.23539" lon="5.76138">
        <ele>1339.5999755859</ele>
        <time>2021-11-06T06:10:33.000Z</time>
      </trkpt>
      <trkpt lat="45.23538" lon="5.76137">
        <ele>1340.1999511719</ele>
        <time>2021-11-06T06:10:36.000Z</time>
      </trkpt>
      <trkpt lat="45.23538" lon="5.76138">
        <ele>1340.1999511719</ele>
        <time>2021-11-06T06:10:37.000Z</time>
      </trkpt>
      <trkpt lat="45.23539" lon="5.76139">
        <ele>1340.1999511719</ele>
        <time>2021-11-06T06:10:38.000Z</time>
      </trkpt>
      <trkpt lat="45.23544" lon="5.76144">
        <ele>1340.8000488281</ele>
        <time>2021-11-06T06:10:44.000Z</time>
      </trkpt>
      <trkpt lat="45.23545" lon="5.76144">
        <ele>1341.5999755859</ele>
        <time>2021-11-06T06:10:46.000Z</time>
      </trkpt>
      <trkpt lat="45.23547" lon="5.76142">
        <ele>1342.5999755859</ele>
        <time>2021-11-06T06:10:49.000Z</time>
      </trkpt>
      <trkpt lat="45.23548" lon="5.76139">
        <ele>1343.5999755859</ele>
        <time>2021-11-06T06:10:52.000Z</time>
      </trkpt>
      <trkpt lat="45.23548" lon="5.7614">
        <ele>1344.1999511719</ele>
        <time>2021-11-06T06:10:53.000Z</time>
      </trkpt>
      <trkpt lat="45.23549" lon="5.76141">
        <ele>1345.1999511719</ele>
        <time>2021-11-06T06:10:54.000Z</time>
      </trkpt>
      <trkpt lat="45.2355" lon="5.76141">
        <ele>1346</ele>
        <time>2021-11-06T06:10:55.000Z</time>
      </trkpt>
      <trkpt lat="45.23553" lon="5.76139">
        <ele>1346.8000488281</ele>
        <time>2021-11-06T06:10:58.000Z</time>
      </trkpt>
      <trkpt lat="45.23555" lon="5.76138">
        <ele>1346.8000488281</ele>
        <time>2021-11-06T06:10:59.000Z</time>
      </trkpt>
      <trkpt lat="45.23558" lon="5.76137">
        <ele>1346.8000488281</ele>
        <time>2021-11-06T06:11:02.000Z</time>
      </trkpt>
      <trkpt lat="45.23561" lon="5.76141">
        <ele>1346.8000488281</ele>
        <time>2021-11-06T06:11:05.000Z</time>
      </trkpt>
      <trkpt lat="45.23561" lon="5.76142">
        <ele>1346.8000488281</ele>
        <time>2021-11-06T06:11:06.000Z</time>
      </trkpt>
      <trkpt lat="45.2356" lon="5.76144">
        <ele>1347.4000244141</ele>
        <time>2021-11-06T06:11:08.000Z</time>
      </trkpt>
      <trkpt lat="45.23559" lon="5.76145">
        <ele>1348</ele>
        <time>2021-11-06T06:11:09.000Z</time>
      </trkpt>
      <trkpt lat="45.23558" lon="5.76146">
        <ele>1349</ele>
        <time>2021-11-06T06:11:10.000Z</time>
      </trkpt>
      <trkpt lat="45.23558" lon="5.76146">
        <ele>1349.4000244141</ele>
        <time>2021-11-06T06:11:11.000Z</time>
      </trkpt>
      <trkpt lat="45.23555" lon="5.76144">
        <ele>1350.1999511719</ele>
        <time>2021-11-06T06:11:12.000Z</time>
      </trkpt>
      <trkpt lat="45.23555" lon="5.76146">
        <ele>1351</ele>
        <time>2021-11-06T06:11:14.000Z</time>
      </trkpt>
      <trkpt lat="45.23555" lon="5.76146">
        <ele>1351.1999511719</ele>
        <time>2021-11-06T06:11:15.000Z</time>
      </trkpt>
      <trkpt lat="45.23556" lon="5.76147">
        <ele>1352</ele>
        <time>2021-11-06T06:11:20.000Z</time>
      </trkpt>
      <trkpt lat="45.23559" lon="5.76145">
        <ele>1352.1999511719</ele>
        <time>2021-11-06T06:11:23.000Z</time>
      </trkpt>
      <trkpt lat="45.23563" lon="5.76145">
        <ele>1352.8000488281</ele>
        <time>2021-11-06T06:11:26.000Z</time>
      </trkpt>
      <trkpt lat="45.23565" lon="5.76144">
        <ele>1353.1999511719</ele>
        <time>2021-11-06T06:11:29.000Z</time>
      </trkpt>
      <trkpt lat="45.23568" lon="5.76141">
        <ele>1354</ele>
        <time>2021-11-06T06:11:32.000Z</time>
      </trkpt>
      <trkpt lat="45.23571" lon="5.7614">
        <ele>1354.4000244141</ele>
        <time>2021-11-06T06:11:35.000Z</time>
      </trkpt>
      <trkpt lat="45.23576" lon="5.76137">
        <ele>1354.1999511719</ele>
        <time>2021-11-06T06:11:39.000Z</time>
      </trkpt>
      <trkpt lat="45.23581" lon="5.76135">
        <ele>1354.4000244141</ele>
        <time>2021-11-06T06:11:43.000Z</time>
      </trkpt>
      <trkpt lat="45.23583" lon="5.76133">
        <ele>1354.4000244141</ele>
        <time>2021-11-06T06:11:45.000Z</time>
      </trkpt>
      <trkpt lat="45.23589" lon="5.7613">
        <ele>1354.8000488281</ele>
        <time>2021-11-06T06:11:49.000Z</time>
      </trkpt>
      <trkpt lat="45.23592" lon="5.76128">
        <ele>1355.4000244141</ele>
        <time>2021-11-06T06:11:52.000Z</time>
      </trkpt>
      <trkpt lat="45.23597" lon="5.76125">
        <ele>1355.8000488281</ele>
        <time>2021-11-06T06:11:56.000Z</time>
      </trkpt>
      <trkpt lat="45.23598" lon="5.76124">
        <ele>1356.1999511719</ele>
        <time>2021-11-06T06:11:58.000Z</time>
      </trkpt>
      <trkpt lat="45.236" lon="5.76123">
        <ele>1356.4000244141</ele>
        <time>2021-11-06T06:12:00.000Z</time>
      </trkpt>
      <trkpt lat="45.236" lon="5.76122">
        <ele>1356.5999755859</ele>
        <time>2021-11-06T06:12:02.000Z</time>
      </trkpt>
      <trkpt lat="45.236" lon="5.76122">
        <ele>1356.8000488281</ele>
        <time>2021-11-06T06:12:03.000Z</time>
      </trkpt>
      <trkpt lat="45.23601" lon="5.7612">
        <ele>1357.4000244141</ele>
        <time>2021-11-06T06:12:06.000Z</time>
      </trkpt>
      <trkpt lat="45.23605" lon="5.76119">
        <ele>1358.1999511719</ele>
        <time>2021-11-06T06:12:09.000Z</time>
      </trkpt>
      <trkpt lat="45.23607" lon="5.76117">
        <ele>1358.5999755859</ele>
        <time>2021-11-06T06:12:12.000Z</time>
      </trkpt>
      <trkpt lat="45.2361" lon="5.76115">
        <ele>1359.8000488281</ele>
        <time>2021-11-06T06:12:15.000Z</time>
      </trkpt>
      <trkpt lat="45.23611" lon="5.76113">
        <ele>1359.8000488281</ele>
        <time>2021-11-06T06:12:16.000Z</time>
      </trkpt>
      <trkpt lat="45.23614" lon="5.76109">
        <ele>1361.1999511719</ele>
        <time>2021-11-06T06:12:22.000Z</time>
      </trkpt>
      <trkpt lat="45.23616" lon="5.76107">
        <ele>1361.8000488281</ele>
        <time>2021-11-06T06:12:24.000Z</time>
      </trkpt>
      <trkpt lat="45.23624" lon="5.76103">
        <ele>1361.8000488281</ele>
        <time>2021-11-06T06:12:29.000Z</time>
      </trkpt>
      <trkpt lat="45.23635" lon="5.76099">
        <ele>1361.8000488281</ele>
        <time>2021-11-06T06:12:36.000Z</time>
      </trkpt>
      <trkpt lat="45.2364" lon="5.76097">
        <ele>1362</ele>
        <time>2021-11-06T06:12:40.000Z</time>
      </trkpt>
      <trkpt lat="45.23641" lon="5.76095">
        <ele>1362.1999511719</ele>
        <time>2021-11-06T06:12:41.000Z</time>
      </trkpt>
      <trkpt lat="45.23642" lon="5.76094">
        <ele>1362.1999511719</ele>
        <time>2021-11-06T06:12:42.000Z</time>
      </trkpt>
      <trkpt lat="45.23648" lon="5.76089">
        <ele>1362.8000488281</ele>
        <time>2021-11-06T06:12:47.000Z</time>
      </trkpt>
      <trkpt lat="45.23655" lon="5.76086">
        <ele>1363.1999511719</ele>
        <time>2021-11-06T06:12:52.000Z</time>
      </trkpt>
      <trkpt lat="45.23657" lon="5.76085">
        <ele>1363.5999755859</ele>
        <time>2021-11-06T06:12:54.000Z</time>
      </trkpt>
      <trkpt lat="45.23658" lon="5.76084">
        <ele>1363.8000488281</ele>
        <time>2021-11-06T06:12:55.000Z</time>
      </trkpt>
      <trkpt lat="45.2366" lon="5.76082">
        <ele>1364.1999511719</ele>
        <time>2021-11-06T06:12:57.000Z</time>
      </trkpt>
      <trkpt lat="45.2366" lon="5.76082">
        <ele>1364.4000244141</ele>
        <time>2021-11-06T06:12:58.000Z</time>
      </trkpt>
      <trkpt lat="45.23665" lon="5.7608">
        <ele>1365.4000244141</ele>
        <time>2021-11-06T06:13:03.000Z</time>
      </trkpt>
      <trkpt lat="45.23666" lon="5.76078">
        <ele>1365.5999755859</ele>
        <time>2021-11-06T06:13:04.000Z</time>
      </trkpt>
      <trkpt lat="45.23668" lon="5.76076">
        <ele>1366</ele>
        <time>2021-11-06T06:13:07.000Z</time>
      </trkpt>
      <trkpt lat="45.23669" lon="5.76076">
        <ele>1366.4000244141</ele>
        <time>2021-11-06T06:13:08.000Z</time>
      </trkpt>
      <trkpt lat="45.23671" lon="5.76075">
        <ele>1367.1999511719</ele>
        <time>2021-11-06T06:13:11.000Z</time>
      </trkpt>
      <trkpt lat="45.23672" lon="5.76074">
        <ele>1367.5999755859</ele>
        <time>2021-11-06T06:13:13.000Z</time>
      </trkpt>
      <trkpt lat="45.23674" lon="5.76073">
        <ele>1368.1999511719</ele>
        <time>2021-11-06T06:13:16.000Z</time>
      </trkpt>
      <trkpt lat="45.23675" lon="5.76072">
        <ele>1368.5999755859</ele>
        <time>2021-11-06T06:13:18.000Z</time>
      </trkpt>
      <trkpt lat="45.23675" lon="5.76071">
        <ele>1369</ele>
        <time>2021-11-06T06:13:19.000Z</time>
      </trkpt>
      <trkpt lat="45.23676" lon="5.76071">
        <ele>1369.1999511719</ele>
        <time>2021-11-06T06:13:21.000Z</time>
      </trkpt>
      <trkpt lat="45.23678" lon="5.76067">
        <ele>1369.8000488281</ele>
        <time>2021-11-06T06:13:24.000Z</time>
      </trkpt>
      <trkpt lat="45.23679" lon="5.76067">
        <ele>1370.1999511719</ele>
        <time>2021-11-06T06:13:25.000Z</time>
      </trkpt>
      <trkpt lat="45.23679" lon="5.76066">
        <ele>1370.5999755859</ele>
        <time>2021-11-06T06:13:27.000Z</time>
      </trkpt>
      <trkpt lat="45.2368" lon="5.76066">
        <ele>1371.4000244141</ele>
        <time>2021-11-06T06:13:30.000Z</time>
      </trkpt>
      <trkpt lat="45.23683" lon="5.76064">
        <ele>1372</ele>
        <time>2021-11-06T06:13:36.000Z</time>
      </trkpt>
      <trkpt lat="45.23684" lon="5.76063">
        <ele>1371.8000488281</ele>
        <time>2021-11-06T06:13:44.000Z</time>
      </trkpt>
      <trkpt lat="45.23685" lon="5.76064">
        <ele>1371.5999755859</ele>
        <time>2021-11-06T06:13:53.000Z</time>
      </trkpt>
      <trkpt lat="45.23684" lon="5.76063">
        <ele>1371.5999755859</ele>
        <time>2021-11-06T06:14:02.000Z</time>
      </trkpt>
      <trkpt lat="45.23684" lon="5.76063">
        <ele>1371.4000244141</ele>
        <time>2021-11-06T06:14:06.000Z</time>
      </trkpt>
      <trkpt lat="45.23685" lon="5.76063">
        <ele>1371.4000244141</ele>
        <time>2021-11-06T06:14:09.000Z</time>
      </trkpt>
      <trkpt lat="45.23685" lon="5.76063">
        <ele>1371.4000244141</ele>
        <time>2021-11-06T06:14:13.000Z</time>
      </trkpt>
      <trkpt lat="45.23685" lon="5.76063">
        <ele>1371.1999511719</ele>
        <time>2021-11-06T06:14:16.000Z</time>
      </trkpt>
      <trkpt lat="45.23685" lon="5.76063">
        <ele>1371.1999511719</ele>
        <time>2021-11-06T06:14:18.000Z</time>
      </trkpt>
      <trkpt lat="45.23685" lon="5.76063">
        <ele>1371.1999511719</ele>
        <time>2021-11-06T06:14:22.000Z</time>
      </trkpt>
      <trkpt lat="45.23685" lon="5.76063">
        <ele>1371</ele>
        <time>2021-11-06T06:14:23.000Z</time>
      </trkpt>
      <trkpt lat="45.23685" lon="5.76063">
        <ele>1370.8000488281</ele>
        <time>2021-11-06T06:14:29.000Z</time>
      </trkpt>
      <trkpt lat="45.23685" lon="5.76063">
        <ele>1370.8000488281</ele>
        <time>2021-11-06T06:14:32.000Z</time>
      </trkpt>
      <trkpt lat="45.23685" lon="5.76063">
        <ele>1370.5999755859</ele>
        <time>2021-11-06T06:14:36.000Z</time>
      </trkpt>
      <trkpt lat="45.23684" lon="5.76063">
        <ele>1370.5999755859</ele>
        <time>2021-11-06T06:14:44.000Z</time>
      </trkpt>
      <trkpt lat="45.23684" lon="5.76063">
        <ele>1370.4000244141</ele>
        <time>2021-11-06T06:14:47.000Z</time>
      </trkpt>
      <trkpt lat="45.23684" lon="5.76063">
        <ele>1370.1999511719</ele>
        <time>2021-11-06T06:14:51.000Z</time>
      </trkpt>
      <trkpt lat="45.23684" lon="5.76063">
        <ele>1370.1999511719</ele>
        <time>2021-11-06T06:14:53.000Z</time>
      </trkpt>
      <trkpt lat="45.23684" lon="5.76063">
        <ele>1370.1999511719</ele>
        <time>2021-11-06T06:15:01.000Z</time>
      </trkpt>
      <trkpt lat="45.23684" lon="5.76063">
        <ele>1370.1999511719</ele>
        <time>2021-11-06T06:15:03.000Z</time>
      </trkpt>
      <trkpt lat="45.23684" lon="5.76063">
        <ele>1370.1999511719</ele>
        <time>2021-11-06T06:15:05.000Z</time>
      </trkpt>
      <trkpt lat="45.23684" lon="5.76062">
        <ele>1370.1999511719</ele>
        <time>2021-11-06T06:15:13.000Z</time>
      </trkpt>
      <trkpt lat="45.2368" lon="5.76068">
        <ele>1365</ele>
        <time>2021-11-06T06:15:51.000Z</time>
      </trkpt>
      <trkpt lat="45.23671" lon="5.76076">
        <ele>1364.1999511719</ele>
        <time>2021-11-06T06:15:58.000Z</time>
      </trkpt>
      <trkpt lat="45.2367" lon="5.76077">
        <ele>1364</ele>
        <time>2021-11-06T06:15:59.000Z</time>
      </trkpt>
      <trkpt lat="45.23665" lon="5.76082">
        <ele>1362.5999755859</ele>
        <time>2021-11-06T06:16:03.000Z</time>
      </trkpt>
      <trkpt lat="45.23664" lon="5.76083">
        <ele>1362.1999511719</ele>
        <time>2021-11-06T06:16:05.000Z</time>
      </trkpt>
      <trkpt lat="45.23662" lon="5.76084">
        <ele>1361.5999755859</ele>
        <time>2021-11-06T06:16:07.000Z</time>
      </trkpt>
      <trkpt lat="45.23659" lon="5.76087">
        <ele>1360.4000244141</ele>
        <time>2021-11-06T06:16:11.000Z</time>
      </trkpt>
      <trkpt lat="45.23655" lon="5.76089">
        <ele>1359.5999755859</ele>
        <time>2021-11-06T06:16:14.000Z</time>
      </trkpt>
      <trkpt lat="45.23654" lon="5.76089">
        <ele>1359.5999755859</ele>
        <time>2021-11-06T06:16:15.000Z</time>
      </trkpt>
      <trkpt lat="45.23653" lon="5.76091">
        <ele>1359.1999511719</ele>
        <time>2021-11-06T06:16:18.000Z</time>
      </trkpt>
      <trkpt lat="45.23651" lon="5.76092">
        <ele>1359.1999511719</ele>
        <time>2021-11-06T06:16:20.000Z</time>
      </trkpt>
      <trkpt lat="45.2365" lon="5.76093">
        <ele>1358.8000488281</ele>
        <time>2021-11-06T06:16:21.000Z</time>
      </trkpt>
      <trkpt lat="45.23644" lon="5.76096">
        <ele>1358.1999511719</ele>
        <time>2021-11-06T06:16:26.000Z</time>
      </trkpt>
      <trkpt lat="45.23641" lon="5.76097">
        <ele>1358</ele>
        <time>2021-11-06T06:16:29.000Z</time>
      </trkpt>
      <trkpt lat="45.2364" lon="5.76097">
        <ele>1357.8000488281</ele>
        <time>2021-11-06T06:16:30.000Z</time>
      </trkpt>
      <trkpt lat="45.23639" lon="5.76098">
        <ele>1357.5999755859</ele>
        <time>2021-11-06T06:16:31.000Z</time>
      </trkpt>
      <trkpt lat="45.23637" lon="5.76098">
        <ele>1357.1999511719</ele>
        <time>2021-11-06T06:16:34.000Z</time>
      </trkpt>
      <trkpt lat="45.23629" lon="5.76103">
        <ele>1356.5999755859</ele>
        <time>2021-11-06T06:16:39.000Z</time>
      </trkpt>
      <trkpt lat="45.23617" lon="5.76109">
        <ele>1356.5999755859</ele>
        <time>2021-11-06T06:16:49.000Z</time>
      </trkpt>
      <trkpt lat="45.23615" lon="5.7611">
        <ele>1356.4000244141</ele>
        <time>2021-11-06T06:16:52.000Z</time>
      </trkpt>
      <trkpt lat="45.23613" lon="5.76112">
        <ele>1356.4000244141</ele>
        <time>2021-11-06T06:16:54.000Z</time>
      </trkpt>
      <trkpt lat="45.2361" lon="5.76115">
        <ele>1356.1999511719</ele>
        <time>2021-11-06T06:16:57.000Z</time>
      </trkpt>
      <trkpt lat="45.2361" lon="5.76116">
        <ele>1355.4000244141</ele>
        <time>2021-11-06T06:17:02.000Z</time>
      </trkpt>
      <trkpt lat="45.2361" lon="5.76116">
        <ele>1355</ele>
        <time>2021-11-06T06:17:04.000Z</time>
      </trkpt>
      <trkpt lat="45.23607" lon="5.76118">
        <ele>1354.4000244141</ele>
        <time>2021-11-06T06:17:08.000Z</time>
      </trkpt>
      <trkpt lat="45.23605" lon="5.76119">
        <ele>1354.1999511719</ele>
        <time>2021-11-06T06:17:10.000Z</time>
      </trkpt>
      <trkpt lat="45.23604" lon="5.76119">
        <ele>1354</ele>
        <time>2021-11-06T06:17:11.000Z</time>
      </trkpt>
      <trkpt lat="45.23602" lon="5.76121">
        <ele>1353</ele>
        <time>2021-11-06T06:17:15.000Z</time>
      </trkpt>
      <trkpt lat="45.23602" lon="5.76121">
        <ele>1352.8000488281</ele>
        <time>2021-11-06T06:17:16.000Z</time>
      </trkpt>
      <trkpt lat="45.23603" lon="5.76121">
        <ele>1352.5999755859</ele>
        <time>2021-11-06T06:17:18.000Z</time>
      </trkpt>
      <trkpt lat="45.236" lon="5.76124">
        <ele>1351.8000488281</ele>
        <time>2021-11-06T06:17:22.000Z</time>
      </trkpt>
      <trkpt lat="45.23599" lon="5.76125">
        <ele>1351.5999755859</ele>
        <time>2021-11-06T06:17:23.000Z</time>
      </trkpt>
      <trkpt lat="45.23596" lon="5.76129">
        <ele>1350.8000488281</ele>
        <time>2021-11-06T06:17:26.000Z</time>
      </trkpt>
      <trkpt lat="45.23591" lon="5.76133">
        <ele>1350.1999511719</ele>
        <time>2021-11-06T06:17:29.000Z</time>
      </trkpt>
      <trkpt lat="45.2359" lon="5.76134">
        <ele>1349.8000488281</ele>
        <time>2021-11-06T06:17:30.000Z</time>
      </trkpt>
      <trkpt lat="45.23583" lon="5.76139">
        <ele>1348.8000488281</ele>
        <time>2021-11-06T06:17:35.000Z</time>
      </trkpt>
      <trkpt lat="45.2358" lon="5.76142">
        <ele>1348.4000244141</ele>
        <time>2021-11-06T06:17:38.000Z</time>
      </trkpt>
      <trkpt lat="45.23571" lon="5.76148">
        <ele>1348</ele>
        <time>2021-11-06T06:17:44.000Z</time>
      </trkpt>
      <trkpt lat="45.23568" lon="5.76148">
        <ele>1347.8000488281</ele>
        <time>2021-11-06T06:17:46.000Z</time>
      </trkpt>
      <trkpt lat="45.23567" lon="5.76148">
        <ele>1347.8000488281</ele>
        <time>2021-11-06T06:17:47.000Z</time>
      </trkpt>
      <trkpt lat="45.23554" lon="5.76153">
        <ele>1346.4000244141</ele>
        <time>2021-11-06T06:17:56.000Z</time>
      </trkpt>
      <trkpt lat="45.23551" lon="5.76157">
        <ele>1345.4000244141</ele>
        <time>2021-11-06T06:17:59.000Z</time>
      </trkpt>
      <trkpt lat="45.23551" lon="5.76158">
        <ele>1344.5999755859</ele>
        <time>2021-11-06T06:18:02.000Z</time>
      </trkpt>
      <trkpt lat="45.2355" lon="5.76159">
        <ele>1344.4000244141</ele>
        <time>2021-11-06T06:18:04.000Z</time>
      </trkpt>
      <trkpt lat="45.23551" lon="5.7616">
        <ele>1344.1999511719</ele>
        <time>2021-11-06T06:18:06.000Z</time>
      </trkpt>
      <trkpt lat="45.23551" lon="5.7616">
        <ele>1343.8000488281</ele>
        <time>2021-11-06T06:18:07.000Z</time>
      </trkpt>
      <trkpt lat="45.23552" lon="5.76161">
        <ele>1343.5999755859</ele>
        <time>2021-11-06T06:18:09.000Z</time>
      </trkpt>
      <trkpt lat="45.23552" lon="5.76161">
        <ele>1343.1999511719</ele>
        <time>2021-11-06T06:18:10.000Z</time>
      </trkpt>
      <trkpt lat="45.23554" lon="5.76162">
        <ele>1343</ele>
        <time>2021-11-06T06:18:12.000Z</time>
      </trkpt>
      <trkpt lat="45.23555" lon="5.76162">
        <ele>1342.5999755859</ele>
        <time>2021-11-06T06:18:13.000Z</time>
      </trkpt>
      <trkpt lat="45.23556" lon="5.76162">
        <ele>1342.1999511719</ele>
        <time>2021-11-06T06:18:14.000Z</time>
      </trkpt>
      <trkpt lat="45.23559" lon="5.76162">
        <ele>1340.8000488281</ele>
        <time>2021-11-06T06:18:17.000Z</time>
      </trkpt>
      <trkpt lat="45.23559" lon="5.76163">
        <ele>1340.5999755859</ele>
        <time>2021-11-06T06:18:18.000Z</time>
      </trkpt>
      <trkpt lat="45.2356" lon="5.76163">
        <ele>1340.4000244141</ele>
        <time>2021-11-06T06:18:19.000Z</time>
      </trkpt>
      <trkpt lat="45.23561" lon="5.76166">
        <ele>1340</ele>
        <time>2021-11-06T06:18:22.000Z</time>
      </trkpt>
      <trkpt lat="45.23561" lon="5.76167">
        <ele>1339.1999511719</ele>
        <time>2021-11-06T06:18:23.000Z</time>
      </trkpt>
      <trkpt lat="45.23561" lon="5.76168">
        <ele>1338.5999755859</ele>
        <time>2021-11-06T06:18:24.000Z</time>
      </trkpt>
      <trkpt lat="45.23562" lon="5.76168">
        <ele>1338</ele>
        <time>2021-11-06T06:18:25.000Z</time>
      </trkpt>
      <trkpt lat="45.23563" lon="5.76168">
        <ele>1337.8000488281</ele>
        <time>2021-11-06T06:18:26.000Z</time>
      </trkpt>
      <trkpt lat="45.23565" lon="5.76169">
        <ele>1336.5999755859</ele>
        <time>2021-11-06T06:18:29.000Z</time>
      </trkpt>
      <trkpt lat="45.23569" lon="5.76169">
        <ele>1335.8000488281</ele>
        <time>2021-11-06T06:18:32.000Z</time>
      </trkpt>
      <trkpt lat="45.2357" lon="5.76168">
        <ele>1335.5999755859</ele>
        <time>2021-11-06T06:18:33.000Z</time>
      </trkpt>
      <trkpt lat="45.23573" lon="5.76166">
        <ele>1334.8000488281</ele>
        <time>2021-11-06T06:18:36.000Z</time>
      </trkpt>
      <trkpt lat="45.23574" lon="5.76166">
        <ele>1334.4000244141</ele>
        <time>2021-11-06T06:18:37.000Z</time>
      </trkpt>
      <trkpt lat="45.23578" lon="5.76166">
        <ele>1333.5999755859</ele>
        <time>2021-11-06T06:18:40.000Z</time>
      </trkpt>
      <trkpt lat="45.23579" lon="5.76166">
        <ele>1333.1999511719</ele>
        <time>2021-11-06T06:18:41.000Z</time>
      </trkpt>
      <trkpt lat="45.23581" lon="5.76164">
        <ele>1332</ele>
        <time>2021-11-06T06:18:44.000Z</time>
      </trkpt>
      <trkpt lat="45.23582" lon="5.76164">
        <ele>1331.5999755859</ele>
        <time>2021-11-06T06:18:45.000Z</time>
      </trkpt>
      <trkpt lat="45.23582" lon="5.76167">
        <ele>1331</ele>
        <time>2021-11-06T06:18:47.000Z</time>
      </trkpt>
      <trkpt lat="45.23582" lon="5.76168">
        <ele>1330.5999755859</ele>
        <time>2021-11-06T06:18:48.000Z</time>
      </trkpt>
      <trkpt lat="45.23584" lon="5.76171">
        <ele>1329.5999755859</ele>
        <time>2021-11-06T06:18:51.000Z</time>
      </trkpt>
      <trkpt lat="45.23584" lon="5.76173">
        <ele>1329.1999511719</ele>
        <time>2021-11-06T06:18:52.000Z</time>
      </trkpt>
      <trkpt lat="45.23584" lon="5.76174">
        <ele>1328.8000488281</ele>
        <time>2021-11-06T06:18:54.000Z</time>
      </trkpt>
      <trkpt lat="45.23585" lon="5.76175">
        <ele>1328.1999511719</ele>
        <time>2021-11-06T06:18:56.000Z</time>
      </trkpt>
      <trkpt lat="45.23584" lon="5.7618">
        <ele>1327.1999511719</ele>
        <time>2021-11-06T06:18:59.000Z</time>
      </trkpt>
      <trkpt lat="45.23585" lon="5.76183">
        <ele>1326.4000244141</ele>
        <time>2021-11-06T06:19:01.000Z</time>
      </trkpt>
      <trkpt lat="45.23586" lon="5.76183">
        <ele>1326</ele>
        <time>2021-11-06T06:19:02.000Z</time>
      </trkpt>
      <trkpt lat="45.23589" lon="5.76186">
        <ele>1325.4000244141</ele>
        <time>2021-11-06T06:19:05.000Z</time>
      </trkpt>
      <trkpt lat="45.2359" lon="5.76189">
        <ele>1325</ele>
        <time>2021-11-06T06:19:06.000Z</time>
      </trkpt>
      <trkpt lat="45.2359" lon="5.76192">
        <ele>1324.8000488281</ele>
        <time>2021-11-06T06:19:07.000Z</time>
      </trkpt>
      <trkpt lat="45.2359" lon="5.76199">
        <ele>1324</ele>
        <time>2021-11-06T06:19:10.000Z</time>
      </trkpt>
      <trkpt lat="45.23587" lon="5.7621">
        <ele>1322.5999755859</ele>
        <time>2021-11-06T06:19:14.000Z</time>
      </trkpt>
      <trkpt lat="45.23583" lon="5.76213">
        <ele>1321.8000488281</ele>
        <time>2021-11-06T06:19:19.000Z</time>
      </trkpt>
      <trkpt lat="45.23583" lon="5.76212">
        <ele>1321.5999755859</ele>
        <time>2021-11-06T06:19:20.000Z</time>
      </trkpt>
      <trkpt lat="45.23587" lon="5.76213">
        <ele>1321.4000244141</ele>
        <time>2021-11-06T06:19:25.000Z</time>
      </trkpt>
      <trkpt lat="45.23585" lon="5.76214">
        <ele>1321.4000244141</ele>
        <time>2021-11-06T06:19:32.000Z</time>
      </trkpt>
      <trkpt lat="45.23585" lon="5.76214">
        <ele>1321.5999755859</ele>
        <time>2021-11-06T06:19:33.000Z</time>
      </trkpt>
      <trkpt lat="45.23585" lon="5.76214">
        <ele>1321.5999755859</ele>
        <time>2021-11-06T06:19:35.000Z</time>
      </trkpt>
      <trkpt lat="45.23584" lon="5.76212">
        <ele>1321.4000244141</ele>
        <time>2021-11-06T06:19:48.000Z</time>
      </trkpt>
      <trkpt lat="45.23584" lon="5.76212">
        <ele>1321.4000244141</ele>
        <time>2021-11-06T06:19:50.000Z</time>
      </trkpt>
      <trkpt lat="45.23584" lon="5.76212">
        <ele>1321.4000244141</ele>
        <time>2021-11-06T06:19:51.000Z</time>
      </trkpt>
      <trkpt lat="45.23584" lon="5.76212">
        <ele>1321.4000244141</ele>
        <time>2021-11-06T06:19:53.000Z</time>
      </trkpt>
      <trkpt lat="45.2358" lon="5.76219">
        <ele>1321.4000244141</ele>
        <time>2021-11-06T06:20:00.000Z</time>
      </trkpt>
      <trkpt lat="45.23568" lon="5.76233">
        <ele>1321.1999511719</ele>
        <time>2021-11-06T06:20:08.000Z</time>
      </trkpt>
      <trkpt lat="45.23564" lon="5.76238">
        <ele>1321.4000244141</ele>
        <time>2021-11-06T06:20:11.000Z</time>
      </trkpt>
      <trkpt lat="45.23559" lon="5.76245">
        <ele>1321.8000488281</ele>
        <time>2021-11-06T06:20:15.000Z</time>
      </trkpt>
      <trkpt lat="45.23557" lon="5.76247">
        <ele>1322</ele>
        <time>2021-11-06T06:20:16.000Z</time>
      </trkpt>
      <trkpt lat="45.23554" lon="5.76249">
        <ele>1322.1999511719</ele>
        <time>2021-11-06T06:20:18.000Z</time>
      </trkpt>
      <trkpt lat="45.23553" lon="5.7625">
        <ele>1322.1999511719</ele>
        <time>2021-11-06T06:20:19.000Z</time>
      </trkpt>
      <trkpt lat="45.23549" lon="5.76252">
        <ele>1322.4000244141</ele>
        <time>2021-11-06T06:20:21.000Z</time>
      </trkpt>
      <trkpt lat="45.23548" lon="5.76253">
        <ele>1322.5999755859</ele>
        <time>2021-11-06T06:20:22.000Z</time>
      </trkpt>
      <trkpt lat="45.23542" lon="5.76257">
        <ele>1322.8000488281</ele>
        <time>2021-11-06T06:20:25.000Z</time>
      </trkpt>
      <trkpt lat="45.23538" lon="5.7626">
        <ele>1323.4000244141</ele>
        <time>2021-11-06T06:20:27.000Z</time>
      </trkpt>
      <trkpt lat="45.23537" lon="5.76261">
        <ele>1323.5999755859</ele>
        <time>2021-11-06T06:20:28.000Z</time>
      </trkpt>
      <trkpt lat="45.23535" lon="5.76264">
        <ele>1324.1999511719</ele>
        <time>2021-11-06T06:20:30.000Z</time>
      </trkpt>
      <trkpt lat="45.23535" lon="5.76269">
        <ele>1324.4000244141</ele>
        <time>2021-11-06T06:20:32.000Z</time>
      </trkpt>
      <trkpt lat="45.23537" lon="5.76277">
        <ele>1324.4000244141</ele>
        <time>2021-11-06T06:20:35.000Z</time>
      </trkpt>
      <trkpt lat="45.23539" lon="5.76288">
        <ele>1324</ele>
        <time>2021-11-06T06:20:39.000Z</time>
      </trkpt>
      <trkpt lat="45.23541" lon="5.76305">
        <ele>1322.4000244141</ele>
        <time>2021-11-06T06:20:45.000Z</time>
      </trkpt>
      <trkpt lat="45.23544" lon="5.7632">
        <ele>1321.4000244141</ele>
        <time>2021-11-06T06:20:50.000Z</time>
      </trkpt>
      <trkpt lat="45.23545" lon="5.76323">
        <ele>1321</ele>
        <time>2021-11-06T06:20:51.000Z</time>
      </trkpt>
      <trkpt lat="45.23546" lon="5.7633">
        <ele>1320.4000244141</ele>
        <time>2021-11-06T06:20:53.000Z</time>
      </trkpt>
      <trkpt lat="45.23548" lon="5.76344">
        <ele>1319.1999511719</ele>
        <time>2021-11-06T06:20:58.000Z</time>
      </trkpt>
      <trkpt lat="45.23549" lon="5.76357">
        <ele>1318.1999511719</ele>
        <time>2021-11-06T06:21:02.000Z</time>
      </trkpt>
      <trkpt lat="45.23549" lon="5.76365">
        <ele>1317.8000488281</ele>
        <time>2021-11-06T06:21:04.000Z</time>
      </trkpt>
      <trkpt lat="45.23547" lon="5.76383">
        <ele>1317.8000488281</ele>
        <time>2021-11-06T06:21:10.000Z</time>
      </trkpt>
      <trkpt lat="45.23541" lon="5.76389">
        <ele>1318.8000488281</ele>
        <time>2021-11-06T06:21:15.000Z</time>
      </trkpt>
      <trkpt lat="45.23538" lon="5.76391">
        <ele>1319.1999511719</ele>
        <time>2021-11-06T06:21:17.000Z</time>
      </trkpt>
      <trkpt lat="45.23531" lon="5.76392">
        <ele>1320.1999511719</ele>
        <time>2021-11-06T06:21:22.000Z</time>
      </trkpt>
      <trkpt lat="45.23529" lon="5.76392">
        <ele>1320.5999755859</ele>
        <time>2021-11-06T06:21:23.000Z</time>
      </trkpt>
      <trkpt lat="45.23524" lon="5.76394">
        <ele>1321.8000488281</ele>
        <time>2021-11-06T06:21:27.000Z</time>
      </trkpt>
      <trkpt lat="45.23522" lon="5.76396">
        <ele>1322.4000244141</ele>
        <time>2021-11-06T06:21:29.000Z</time>
      </trkpt>
      <trkpt lat="45.23521" lon="5.76399">
        <ele>1322.8000488281</ele>
        <time>2021-11-06T06:21:31.000Z</time>
      </trkpt>
      <trkpt lat="45.2352" lon="5.76401">
        <ele>1323.5999755859</ele>
        <time>2021-11-06T06:21:33.000Z</time>
      </trkpt>
      <trkpt lat="45.23519" lon="5.76404">
        <ele>1324</ele>
        <time>2021-11-06T06:21:35.000Z</time>
      </trkpt>
      <trkpt lat="45.23519" lon="5.76405">
        <ele>1324.5999755859</ele>
        <time>2021-11-06T06:21:36.000Z</time>
      </trkpt>
      <trkpt lat="45.23518" lon="5.76407">
        <ele>1325</ele>
        <time>2021-11-06T06:21:38.000Z</time>
      </trkpt>
      <trkpt lat="45.23515" lon="5.76406">
        <ele>1325.5999755859</ele>
        <time>2021-11-06T06:21:40.000Z</time>
      </trkpt>
      <trkpt lat="45.23515" lon="5.76406">
        <ele>1326</ele>
        <time>2021-11-06T06:21:41.000Z</time>
      </trkpt>
      <trkpt lat="45.23514" lon="5.76405">
        <ele>1326.1999511719</ele>
        <time>2021-11-06T06:21:42.000Z</time>
      </trkpt>
      <trkpt lat="45.23512" lon="5.76403">
        <ele>1327</ele>
        <time>2021-11-06T06:21:44.000Z</time>
      </trkpt>
      <trkpt lat="45.23512" lon="5.76402">
        <ele>1327.1999511719</ele>
        <time>2021-11-06T06:21:45.000Z</time>
      </trkpt>
      <trkpt lat="45.2351" lon="5.764">
        <ele>1328.4000244141</ele>
        <time>2021-11-06T06:21:48.000Z</time>
      </trkpt>
      <trkpt lat="45.23507" lon="5.76398">
        <ele>1328.8000488281</ele>
        <time>2021-11-06T06:21:50.000Z</time>
      </trkpt>
      <trkpt lat="45.23505" lon="5.76397">
        <ele>1329</ele>
        <time>2021-11-06T06:21:52.000Z</time>
      </trkpt>
      <trkpt lat="45.23501" lon="5.76396">
        <ele>1329.1999511719</ele>
        <time>2021-11-06T06:21:55.000Z</time>
      </trkpt>
      <trkpt lat="45.23499" lon="5.76394">
        <ele>1329.4000244141</ele>
        <time>2021-11-06T06:21:56.000Z</time>
      </trkpt>
      <trkpt lat="45.23494" lon="5.76387">
        <ele>1329.8000488281</ele>
        <time>2021-11-06T06:22:00.000Z</time>
      </trkpt>
      <trkpt lat="45.23492" lon="5.76379">
        <ele>1330</ele>
        <time>2021-11-06T06:22:03.000Z</time>
      </trkpt>
      <trkpt lat="45.2349" lon="5.76367">
        <ele>1330</ele>
        <time>2021-11-06T06:22:09.000Z</time>
      </trkpt>
      <trkpt lat="45.2349" lon="5.76366">
        <ele>1330</ele>
        <time>2021-11-06T06:22:11.000Z</time>
      </trkpt>
      <trkpt lat="45.23489" lon="5.76371">
        <ele>1329.4000244141</ele>
        <time>2021-11-06T06:22:18.000Z</time>
      </trkpt>
      <trkpt lat="45.23489" lon="5.76368">
        <ele>1329.1999511719</ele>
        <time>2021-11-06T06:22:23.000Z</time>
      </trkpt>
      <trkpt lat="45.2349" lon="5.76368">
        <ele>1329.1999511719</ele>
        <time>2021-11-06T06:22:30.000Z</time>
      </trkpt>
      <trkpt lat="45.2349" lon="5.76368">
        <ele>1329.1999511719</ele>
        <time>2021-11-06T06:22:32.000Z</time>
      </trkpt>
      <trkpt lat="45.2349" lon="5.76368">
        <ele>1329</ele>
        <time>2021-11-06T06:22:35.000Z</time>
      </trkpt>
      <trkpt lat="45.2349" lon="5.76369">
        <ele>1328.8000488281</ele>
        <time>2021-11-06T06:22:41.000Z</time>
      </trkpt>
      <trkpt lat="45.2349" lon="5.76374">
        <ele>1328.5999755859</ele>
        <time>2021-11-06T06:22:43.000Z</time>
      </trkpt>
      <trkpt lat="45.23489" lon="5.76375">
        <ele>1328.4000244141</ele>
        <time>2021-11-06T06:22:44.000Z</time>
      </trkpt>
      <trkpt lat="45.23486" lon="5.76378">
        <ele>1327.8000488281</ele>
        <time>2021-11-06T06:22:48.000Z</time>
      </trkpt>
      <trkpt lat="45.23486" lon="5.76377">
        <ele>1327.8000488281</ele>
        <time>2021-11-06T06:22:50.000Z</time>
      </trkpt>
      <trkpt lat="45.23486" lon="5.76377">
        <ele>1327.5999755859</ele>
        <time>2021-11-06T06:22:51.000Z</time>
      </trkpt>
      <trkpt lat="45.23484" lon="5.76376">
        <ele>1327.1999511719</ele>
        <time>2021-11-06T06:22:53.000Z</time>
      </trkpt>
      <trkpt lat="45.23484" lon="5.76376">
        <ele>1326.5999755859</ele>
        <time>2021-11-06T06:22:54.000Z</time>
      </trkpt>
      <trkpt lat="45.23482" lon="5.76374">
        <ele>1326.1999511719</ele>
        <time>2021-11-06T06:22:55.000Z</time>
      </trkpt>
      <trkpt lat="45.23481" lon="5.76372">
        <ele>1325.4000244141</ele>
        <time>2021-11-06T06:22:56.000Z</time>
      </trkpt>
      <trkpt lat="45.2348" lon="5.76371">
        <ele>1325</ele>
        <time>2021-11-06T06:22:57.000Z</time>
      </trkpt>
      <trkpt lat="45.2348" lon="5.7637">
        <ele>1324.4000244141</ele>
        <time>2021-11-06T06:22:58.000Z</time>
      </trkpt>
      <trkpt lat="45.23478" lon="5.76368">
        <ele>1323.8000488281</ele>
        <time>2021-11-06T06:23:00.000Z</time>
      </trkpt>
      <trkpt lat="45.23477" lon="5.76366">
        <ele>1323.5999755859</ele>
        <time>2021-11-06T06:23:05.000Z</time>
      </trkpt>
      <trkpt lat="45.23477" lon="5.76366">
        <ele>1323.5999755859</ele>
        <time>2021-11-06T06:23:06.000Z</time>
      </trkpt>
      <trkpt lat="45.23477" lon="5.76366">
        <ele>1323.5999755859</ele>
        <time>2021-11-06T06:23:07.000Z</time>
      </trkpt>
      <trkpt lat="45.23477" lon="5.76366">
        <ele>1323.5999755859</ele>
        <time>2021-11-06T06:23:10.000Z</time>
      </trkpt>
      <trkpt lat="45.23477" lon="5.76366">
        <ele>1323.5999755859</ele>
        <time>2021-11-06T06:23:16.000Z</time>
      </trkpt>
      <trkpt lat="45.23477" lon="5.76366">
        <ele>1323.1999511719</ele>
        <time>2021-11-06T06:23:22.000Z</time>
      </trkpt>
      <trkpt lat="45.23477" lon="5.76366">
        <ele>1323.1999511719</ele>
        <time>2021-11-06T06:23:24.000Z</time>
      </trkpt>
      <trkpt lat="45.23477" lon="5.76366">
        <ele>1323</ele>
        <time>2021-11-06T06:23:27.000Z</time>
      </trkpt>
      <trkpt lat="45.23477" lon="5.76366">
        <ele>1323</ele>
        <time>2021-11-06T06:23:28.000Z</time>
      </trkpt>
      <trkpt lat="45.23477" lon="5.76366">
        <ele>1322.8000488281</ele>
        <time>2021-11-06T06:23:32.000Z</time>
      </trkpt>
      <trkpt lat="45.23477" lon="5.76367">
        <ele>1322.5999755859</ele>
        <time>2021-11-06T06:23:40.000Z</time>
      </trkpt>
      <trkpt lat="45.23478" lon="5.76369">
        <ele>1323.1999511719</ele>
        <time>2021-11-06T06:23:42.000Z</time>
      </trkpt>
      <trkpt lat="45.2348" lon="5.76371">
        <ele>1324</ele>
        <time>2021-11-06T06:23:45.000Z</time>
      </trkpt>
      <trkpt lat="45.23481" lon="5.76373">
        <ele>1325.1999511719</ele>
        <time>2021-11-06T06:23:47.000Z</time>
      </trkpt>
      <trkpt lat="45.23481" lon="5.76374">
        <ele>1325.4000244141</ele>
        <time>2021-11-06T06:23:48.000Z</time>
      </trkpt>
      <trkpt lat="45.23487" lon="5.76378">
        <ele>1326</ele>
        <time>2021-11-06T06:23:52.000Z</time>
      </trkpt>
      <trkpt lat="45.2349" lon="5.76383">
        <ele>1326</ele>
        <time>2021-11-06T06:23:54.000Z</time>
      </trkpt>
      <trkpt lat="45.23492" lon="5.76387">
        <ele>1326</ele>
        <time>2021-11-06T06:23:55.000Z</time>
      </trkpt>
      <trkpt lat="45.23494" lon="5.76395">
        <ele>1325.4000244141</ele>
        <time>2021-11-06T06:23:58.000Z</time>
      </trkpt>
      <trkpt lat="45.23495" lon="5.76398">
        <ele>1325.1999511719</ele>
        <time>2021-11-06T06:23:59.000Z</time>
      </trkpt>
      <trkpt lat="45.23501" lon="5.76416">
        <ele>1324.5999755859</ele>
        <time>2021-11-06T06:24:05.000Z</time>
      </trkpt>
      <trkpt lat="45.23505" lon="5.76427">
        <ele>1324</ele>
        <time>2021-11-06T06:24:09.000Z</time>
      </trkpt>
      <trkpt lat="45.23506" lon="5.76433">
        <ele>1323.5999755859</ele>
        <time>2021-11-06T06:24:11.000Z</time>
      </trkpt>
      <trkpt lat="45.23509" lon="5.76439">
        <ele>1323.4000244141</ele>
        <time>2021-11-06T06:24:13.000Z</time>
      </trkpt>
      <trkpt lat="45.2351" lon="5.76441">
        <ele>1323.4000244141</ele>
        <time>2021-11-06T06:24:14.000Z</time>
      </trkpt>
      <trkpt lat="45.23511" lon="5.76447">
        <ele>1323</ele>
        <time>2021-11-06T06:24:16.000Z</time>
      </trkpt>
      <trkpt lat="45.23511" lon="5.7645">
        <ele>1322.8000488281</ele>
        <time>2021-11-06T06:24:17.000Z</time>
      </trkpt>
      <trkpt lat="45.2351" lon="5.76461">
        <ele>1321.8000488281</ele>
        <time>2021-11-06T06:24:22.000Z</time>
      </trkpt>
      <trkpt lat="45.2351" lon="5.76464">
        <ele>1321.4000244141</ele>
        <time>2021-11-06T06:24:23.000Z</time>
      </trkpt>
      <trkpt lat="45.23509" lon="5.76467">
        <ele>1321</ele>
        <time>2021-11-06T06:24:24.000Z</time>
      </trkpt>
      <trkpt lat="45.23508" lon="5.76473">
        <ele>1320.4000244141</ele>
        <time>2021-11-06T06:24:26.000Z</time>
      </trkpt>
      <trkpt lat="45.23509" lon="5.76478">
        <ele>1319.8000488281</ele>
        <time>2021-11-06T06:24:28.000Z</time>
      </trkpt>
      <trkpt lat="45.23509" lon="5.76485">
        <ele>1319.4000244141</ele>
        <time>2021-11-06T06:24:30.000Z</time>
      </trkpt>
      <trkpt lat="45.2351" lon="5.76494">
        <ele>1318.1999511719</ele>
        <time>2021-11-06T06:24:34.000Z</time>
      </trkpt>
      <trkpt lat="45.23509" lon="5.76495">
        <ele>1317.5999755859</ele>
        <time>2021-11-06T06:24:36.000Z</time>
      </trkpt>
      <trkpt lat="45.23539" lon="5.76626">
        <ele>1304.4000244141</ele>
        <time>2021-11-06T06:25:26.000Z</time>
      </trkpt>
      <trkpt lat="45.2354" lon="5.76629">
        <ele>1304.4000244141</ele>
        <time>2021-11-06T06:25:27.000Z</time>
      </trkpt>
      <trkpt lat="45.23548" lon="5.7664">
        <ele>1304.1999511719</ele>
        <time>2021-11-06T06:25:31.000Z</time>
      </trkpt>
      <trkpt lat="45.2355" lon="5.76645">
        <ele>1304</ele>
        <time>2021-11-06T06:25:33.000Z</time>
      </trkpt>
      <trkpt lat="45.23553" lon="5.76659">
        <ele>1304.4000244141</ele>
        <time>2021-11-06T06:25:37.000Z</time>
      </trkpt>
      <trkpt lat="45.23559" lon="5.76678">
        <ele>1305.4000244141</ele>
        <time>2021-11-06T06:25:43.000Z</time>
      </trkpt>
      <trkpt lat="45.2356" lon="5.76685">
        <ele>1305.5999755859</ele>
        <time>2021-11-06T06:25:45.000Z</time>
      </trkpt>
      <trkpt lat="45.23568" lon="5.76706">
        <ele>1305.4000244141</ele>
        <time>2021-11-06T06:25:53.000Z</time>
      </trkpt>
      <trkpt lat="45.23571" lon="5.76712">
        <ele>1305.4000244141</ele>
        <time>2021-11-06T06:25:55.000Z</time>
      </trkpt>
      <trkpt lat="45.23575" lon="5.76727">
        <ele>1305.5999755859</ele>
        <time>2021-11-06T06:26:00.000Z</time>
      </trkpt>
      <trkpt lat="45.23578" lon="5.76735">
        <ele>1305.5999755859</ele>
        <time>2021-11-06T06:26:03.000Z</time>
      </trkpt>
      <trkpt lat="45.23587" lon="5.76758">
        <ele>1305.1999511719</ele>
        <time>2021-11-06T06:26:11.000Z</time>
      </trkpt>
      <trkpt lat="45.23594" lon="5.76776">
        <ele>1305.1999511719</ele>
        <time>2021-11-06T06:26:18.000Z</time>
      </trkpt>
      <trkpt lat="45.23601" lon="5.76778">
        <ele>1305.1999511719</ele>
        <time>2021-11-06T06:26:22.000Z</time>
      </trkpt>
      <trkpt lat="45.23603" lon="5.76777">
        <ele>1305.4000244141</ele>
        <time>2021-11-06T06:26:23.000Z</time>
      </trkpt>
      <trkpt lat="45.23608" lon="5.76778">
        <ele>1306.8000488281</ele>
        <time>2021-11-06T06:26:28.000Z</time>
      </trkpt>
      <trkpt lat="45.23608" lon="5.76791">
        <ele>1308</ele>
        <time>2021-11-06T06:26:34.000Z</time>
      </trkpt>
      <trkpt lat="45.23609" lon="5.76793">
        <ele>1308</ele>
        <time>2021-11-06T06:26:35.000Z</time>
      </trkpt>
      <trkpt lat="45.23609" lon="5.76805">
        <ele>1309</ele>
        <time>2021-11-06T06:26:41.000Z</time>
      </trkpt>
      <trkpt lat="45.23609" lon="5.76807">
        <ele>1309.1999511719</ele>
        <time>2021-11-06T06:26:42.000Z</time>
      </trkpt>
      <trkpt lat="45.2361" lon="5.76809">
        <ele>1309.4000244141</ele>
        <time>2021-11-06T06:26:43.000Z</time>
      </trkpt>
      <trkpt lat="45.23615" lon="5.76822">
        <ele>1310</ele>
        <time>2021-11-06T06:26:50.000Z</time>
      </trkpt>
      <trkpt lat="45.23615" lon="5.76826">
        <ele>1310.1999511719</ele>
        <time>2021-11-06T06:26:51.000Z</time>
      </trkpt>
      <trkpt lat="45.23623" lon="5.76843">
        <ele>1309.8000488281</ele>
        <time>2021-11-06T06:26:59.000Z</time>
      </trkpt>
      <trkpt lat="45.23626" lon="5.76852">
        <ele>1310.4000244141</ele>
        <time>2021-11-06T06:27:06.000Z</time>
      </trkpt>
      <trkpt lat="45.2363" lon="5.76865">
        <ele>1310.4000244141</ele>
        <time>2021-11-06T06:27:14.000Z</time>
      </trkpt>
      <trkpt lat="45.2363" lon="5.76869">
        <ele>1310.4000244141</ele>
        <time>2021-11-06T06:27:17.000Z</time>
      </trkpt>
      <trkpt lat="45.23629" lon="5.76872">
        <ele>1310.4000244141</ele>
        <time>2021-11-06T06:27:19.000Z</time>
      </trkpt>
      <trkpt lat="45.23629" lon="5.76873">
        <ele>1310.4000244141</ele>
        <time>2021-11-06T06:27:20.000Z</time>
      </trkpt>
      <trkpt lat="45.23629" lon="5.76875">
        <ele>1310.1999511719</ele>
        <time>2021-11-06T06:27:22.000Z</time>
      </trkpt>
      <trkpt lat="45.23631" lon="5.76881">
        <ele>1310</ele>
        <time>2021-11-06T06:27:25.000Z</time>
      </trkpt>
      <trkpt lat="45.23633" lon="5.76889">
        <ele>1309.4000244141</ele>
        <time>2021-11-06T06:27:29.000Z</time>
      </trkpt>
      <trkpt lat="45.23637" lon="5.76896">
        <ele>1309.1999511719</ele>
        <time>2021-11-06T06:27:33.000Z</time>
      </trkpt>
      <trkpt lat="45.23638" lon="5.76897">
        <ele>1309</ele>
        <time>2021-11-06T06:27:34.000Z</time>
      </trkpt>
      <trkpt lat="45.2364" lon="5.769">
        <ele>1308.8000488281</ele>
        <time>2021-11-06T06:27:36.000Z</time>
      </trkpt>
      <trkpt lat="45.23641" lon="5.76909">
        <ele>1308.4000244141</ele>
        <time>2021-11-06T06:27:39.000Z</time>
      </trkpt>
      <trkpt lat="45.23641" lon="5.76915">
        <ele>1308.4000244141</ele>
        <time>2021-11-06T06:27:41.000Z</time>
      </trkpt>
      <trkpt lat="45.23642" lon="5.76919">
        <ele>1308.8000488281</ele>
        <time>2021-11-06T06:27:43.000Z</time>
      </trkpt>
      <trkpt lat="45.23642" lon="5.76922">
        <ele>1309.4000244141</ele>
        <time>2021-11-06T06:27:45.000Z</time>
      </trkpt>
      <trkpt lat="45.23642" lon="5.76929">
        <ele>1310.1999511719</ele>
        <time>2021-11-06T06:27:48.000Z</time>
      </trkpt>
      <trkpt lat="45.23642" lon="5.76938">
        <ele>1311</ele>
        <time>2021-11-06T06:27:52.000Z</time>
      </trkpt>
      <trkpt lat="45.23645" lon="5.7694">
        <ele>1311.4000244141</ele>
        <time>2021-11-06T06:27:55.000Z</time>
      </trkpt>
      <trkpt lat="45.23646" lon="5.76941">
        <ele>1311.5999755859</ele>
        <time>2021-11-06T06:27:56.000Z</time>
      </trkpt>
      <trkpt lat="45.23646" lon="5.76947">
        <ele>1311.5999755859</ele>
        <time>2021-11-06T06:27:58.000Z</time>
      </trkpt>
      <trkpt lat="45.23646" lon="5.76957">
        <ele>1312.4000244141</ele>
        <time>2021-11-06T06:28:03.000Z</time>
      </trkpt>
      <trkpt lat="45.23647" lon="5.76959">
        <ele>1312.4000244141</ele>
        <time>2021-11-06T06:28:04.000Z</time>
      </trkpt>
      <trkpt lat="45.23651" lon="5.76965">
        <ele>1312.5999755859</ele>
        <time>2021-11-06T06:28:08.000Z</time>
      </trkpt>
      <trkpt lat="45.23654" lon="5.76971">
        <ele>1312.4000244141</ele>
        <time>2021-11-06T06:28:12.000Z</time>
      </trkpt>
      <trkpt lat="45.23657" lon="5.76976">
        <ele>1312.4000244141</ele>
        <time>2021-11-06T06:28:16.000Z</time>
      </trkpt>
      <trkpt lat="45.2366" lon="5.76981">
        <ele>1312</ele>
        <time>2021-11-06T06:28:19.000Z</time>
      </trkpt>
      <trkpt lat="45.23661" lon="5.76985">
        <ele>1311.8000488281</ele>
        <time>2021-11-06T06:28:22.000Z</time>
      </trkpt>
      <trkpt lat="45.23668" lon="5.76999">
        <ele>1312.1999511719</ele>
        <time>2021-11-06T06:28:29.000Z</time>
      </trkpt>
      <trkpt lat="45.23672" lon="5.77015">
        <ele>1313</ele>
        <time>2021-11-06T06:28:36.000Z</time>
      </trkpt>
      <trkpt lat="45.23673" lon="5.77026">
        <ele>1313.1999511719</ele>
        <time>2021-11-06T06:28:41.000Z</time>
      </trkpt>
      <trkpt lat="45.23673" lon="5.77031">
        <ele>1313.4000244141</ele>
        <time>2021-11-06T06:28:43.000Z</time>
      </trkpt>
      <trkpt lat="45.23671" lon="5.77034">
        <ele>1313.5999755859</ele>
        <time>2021-11-06T06:28:45.000Z</time>
      </trkpt>
      <trkpt lat="45.23669" lon="5.77034">
        <ele>1313.5999755859</ele>
        <time>2021-11-06T06:28:46.000Z</time>
      </trkpt>
      <trkpt lat="45.23669" lon="5.77035">
        <ele>1313.8000488281</ele>
        <time>2021-11-06T06:28:47.000Z</time>
      </trkpt>
      <trkpt lat="45.23668" lon="5.77036">
        <ele>1314</ele>
        <time>2021-11-06T06:28:49.000Z</time>
      </trkpt>
      <trkpt lat="45.23668" lon="5.77036">
        <ele>1314</ele>
        <time>2021-11-06T06:28:53.000Z</time>
      </trkpt>
      <trkpt lat="45.23669" lon="5.77036">
        <ele>1314</ele>
        <time>2021-11-06T06:28:56.000Z</time>
      </trkpt>
      <trkpt lat="45.23669" lon="5.77035">
        <ele>1314</ele>
        <time>2021-11-06T06:28:58.000Z</time>
      </trkpt>
      <trkpt lat="45.2367" lon="5.77034">
        <ele>1313.8000488281</ele>
        <time>2021-11-06T06:29:00.000Z</time>
      </trkpt>
      <trkpt lat="45.23675" lon="5.77035">
        <ele>1312.5999755859</ele>
        <time>2021-11-06T06:29:07.000Z</time>
      </trkpt>
      <trkpt lat="45.23676" lon="5.77036">
        <ele>1312.1999511719</ele>
        <time>2021-11-06T06:29:09.000Z</time>
      </trkpt>
      <trkpt lat="45.23679" lon="5.77038">
        <ele>1311.4000244141</ele>
        <time>2021-11-06T06:29:12.000Z</time>
      </trkpt>
      <trkpt lat="45.2368" lon="5.77039">
        <ele>1311</ele>
        <time>2021-11-06T06:29:13.000Z</time>
      </trkpt>
      <trkpt lat="45.23684" lon="5.77046">
        <ele>1309.8000488281</ele>
        <time>2021-11-06T06:29:18.000Z</time>
      </trkpt>
      <trkpt lat="45.23685" lon="5.77048">
        <ele>1309.4000244141</ele>
        <time>2021-11-06T06:29:19.000Z</time>
      </trkpt>
      <trkpt lat="45.2369" lon="5.77055">
        <ele>1308.5999755859</ele>
        <time>2021-11-06T06:29:24.000Z</time>
      </trkpt>
      <trkpt lat="45.23691" lon="5.77056">
        <ele>1308.4000244141</ele>
        <time>2021-11-06T06:29:25.000Z</time>
      </trkpt>
      <trkpt lat="45.23697" lon="5.77063">
        <ele>1307.4000244141</ele>
        <time>2021-11-06T06:29:29.000Z</time>
      </trkpt>
      <trkpt lat="45.23701" lon="5.77067">
        <ele>1307.1999511719</ele>
        <time>2021-11-06T06:29:31.000Z</time>
      </trkpt>
      <trkpt lat="45.23708" lon="5.77077">
        <ele>1306.4000244141</ele>
        <time>2021-11-06T06:29:36.000Z</time>
      </trkpt>
      <trkpt lat="45.23709" lon="5.77079">
        <ele>1306.4000244141</ele>
        <time>2021-11-06T06:29:37.000Z</time>
      </trkpt>
      <trkpt lat="45.23709" lon="5.77081">
        <ele>1306.4000244141</ele>
        <time>2021-11-06T06:29:38.000Z</time>
      </trkpt>
      <trkpt lat="45.23709" lon="5.77084">
        <ele>1306.4000244141</ele>
        <time>2021-11-06T06:29:39.000Z</time>
      </trkpt>
      <trkpt lat="45.23714" lon="5.77099">
        <ele>1307.4000244141</ele>
        <time>2021-11-06T06:29:46.000Z</time>
      </trkpt>
      <trkpt lat="45.23717" lon="5.771">
        <ele>1307.4000244141</ele>
        <time>2021-11-06T06:29:48.000Z</time>
      </trkpt>
      <trkpt lat="45.23723" lon="5.77103">
        <ele>1307</ele>
        <time>2021-11-06T06:29:52.000Z</time>
      </trkpt>
      <trkpt lat="45.23728" lon="5.77106">
        <ele>1306</ele>
        <time>2021-11-06T06:29:57.000Z</time>
      </trkpt>
      <trkpt lat="45.23729" lon="5.77107">
        <ele>1305.8000488281</ele>
        <time>2021-11-06T06:29:58.000Z</time>
      </trkpt>
      <trkpt lat="45.23729" lon="5.77108">
        <ele>1305.5999755859</ele>
        <time>2021-11-06T06:29:59.000Z</time>
      </trkpt>
      <trkpt lat="45.2373" lon="5.77109">
        <ele>1305.4000244141</ele>
        <time>2021-11-06T06:30:00.000Z</time>
      </trkpt>
      <trkpt lat="45.23733" lon="5.77113">
        <ele>1304.1999511719</ele>
        <time>2021-11-06T06:30:05.000Z</time>
      </trkpt>
      <trkpt lat="45.23735" lon="5.77116">
        <ele>1303.8000488281</ele>
        <time>2021-11-06T06:30:08.000Z</time>
      </trkpt>
      <trkpt lat="45.23736" lon="5.77115">
        <ele>1303.4000244141</ele>
        <time>2021-11-06T06:30:10.000Z</time>
      </trkpt>
      <trkpt lat="45.23737" lon="5.77116">
        <ele>1303.1999511719</ele>
        <time>2021-11-06T06:30:11.000Z</time>
      </trkpt>
      <trkpt lat="45.23737" lon="5.77117">
        <ele>1303</ele>
        <time>2021-11-06T06:30:12.000Z</time>
      </trkpt>
      <trkpt lat="45.2374" lon="5.77122">
        <ele>1302.5999755859</ele>
        <time>2021-11-06T06:30:14.000Z</time>
      </trkpt>
      <trkpt lat="45.23743" lon="5.77127">
        <ele>1302</ele>
        <time>2021-11-06T06:30:17.000Z</time>
      </trkpt>
      <trkpt lat="45.23746" lon="5.77136">
        <ele>1301.5999755859</ele>
        <time>2021-11-06T06:30:21.000Z</time>
      </trkpt>
      <trkpt lat="45.2375" lon="5.77145">
        <ele>1301</ele>
        <time>2021-11-06T06:30:25.000Z</time>
      </trkpt>
      <trkpt lat="45.23751" lon="5.77147">
        <ele>1300.8000488281</ele>
        <time>2021-11-06T06:30:26.000Z</time>
      </trkpt>
      <trkpt lat="45.23755" lon="5.77152">
        <ele>1299.8000488281</ele>
        <time>2021-11-06T06:30:31.000Z</time>
      </trkpt>
      <trkpt lat="45.23757" lon="5.77152">
        <ele>1299.1999511719</ele>
        <time>2021-11-06T06:30:33.000Z</time>
      </trkpt>
      <trkpt lat="45.23757" lon="5.77153">
        <ele>1298.8000488281</ele>
        <time>2021-11-06T06:30:34.000Z</time>
      </trkpt>
      <trkpt lat="45.23758" lon="5.77153">
        <ele>1298.4000244141</ele>
        <time>2021-11-06T06:30:35.000Z</time>
      </trkpt>
      <trkpt lat="45.2376" lon="5.77156">
        <ele>1297.1999511719</ele>
        <time>2021-11-06T06:30:38.000Z</time>
      </trkpt>
      <trkpt lat="45.23762" lon="5.77158">
        <ele>1296.4000244141</ele>
        <time>2021-11-06T06:30:40.000Z</time>
      </trkpt>
      <trkpt lat="45.23762" lon="5.77159">
        <ele>1296</ele>
        <time>2021-11-06T06:30:41.000Z</time>
      </trkpt>
      <trkpt lat="45.23765" lon="5.77164">
        <ele>1295</ele>
        <time>2021-11-06T06:30:46.000Z</time>
      </trkpt>
      <trkpt lat="45.23765" lon="5.77163">
        <ele>1294.4000244141</ele>
        <time>2021-11-06T06:30:48.000Z</time>
      </trkpt>
      <trkpt lat="45.23765" lon="5.77162">
        <ele>1294.1999511719</ele>
        <time>2021-11-06T06:30:49.000Z</time>
      </trkpt>
      <trkpt lat="45.23766" lon="5.77162">
        <ele>1293.5999755859</ele>
        <time>2021-11-06T06:30:50.000Z</time>
      </trkpt>
      <trkpt lat="45.23769" lon="5.77163">
        <ele>1293</ele>
        <time>2021-11-06T06:30:52.000Z</time>
      </trkpt>
      <trkpt lat="45.23773" lon="5.77166">
        <ele>1292.5999755859</ele>
        <time>2021-11-06T06:30:54.000Z</time>
      </trkpt>
      <trkpt lat="45.23774" lon="5.77167">
        <ele>1292.5999755859</ele>
        <time>2021-11-06T06:30:55.000Z</time>
      </trkpt>
      <trkpt lat="45.23778" lon="5.77173">
        <ele>1291.4000244141</ele>
        <time>2021-11-06T06:30:58.000Z</time>
      </trkpt>
      <trkpt lat="45.23782" lon="5.77178">
        <ele>1291.1999511719</ele>
        <time>2021-11-06T06:31:00.000Z</time>
      </trkpt>
      <trkpt lat="45.23785" lon="5.77182">
        <ele>1290.4000244141</ele>
        <time>2021-11-06T06:31:04.000Z</time>
      </trkpt>
      <trkpt lat="45.23788" lon="5.77188">
        <ele>1290.1999511719</ele>
        <time>2021-11-06T06:31:08.000Z</time>
      </trkpt>
      <trkpt lat="45.23791" lon="5.77192">
        <ele>1290.1999511719</ele>
        <time>2021-11-06T06:31:11.000Z</time>
      </trkpt>
      <trkpt lat="45.23796" lon="5.77208">
        <ele>1290</ele>
        <time>2021-11-06T06:31:18.000Z</time>
      </trkpt>
      <trkpt lat="45.23804" lon="5.77221">
        <ele>1289.8000488281</ele>
        <time>2021-11-06T06:31:25.000Z</time>
      </trkpt>
      <trkpt lat="45.23809" lon="5.7723">
        <ele>1289.8000488281</ele>
        <time>2021-11-06T06:31:29.000Z</time>
      </trkpt>
      <trkpt lat="45.23812" lon="5.77236">
        <ele>1290</ele>
        <time>2021-11-06T06:31:33.000Z</time>
      </trkpt>
      <trkpt lat="45.23824" lon="5.77255">
        <ele>1289.8000488281</ele>
        <time>2021-11-06T06:31:41.000Z</time>
      </trkpt>
      <trkpt lat="45.23825" lon="5.7726">
        <ele>1290.1999511719</ele>
        <time>2021-11-06T06:31:43.000Z</time>
      </trkpt>
      <trkpt lat="45.23826" lon="5.77267">
        <ele>1291</ele>
        <time>2021-11-06T06:31:46.000Z</time>
      </trkpt>
      <trkpt lat="45.23826" lon="5.77269">
        <ele>1291.1999511719</ele>
        <time>2021-11-06T06:31:47.000Z</time>
      </trkpt>
      <trkpt lat="45.23826" lon="5.7727">
        <ele>1291.5999755859</ele>
        <time>2021-11-06T06:31:48.000Z</time>
      </trkpt>
      <trkpt lat="45.23829" lon="5.77275">
        <ele>1292.1999511719</ele>
        <time>2021-11-06T06:31:52.000Z</time>
      </trkpt>
      <trkpt lat="45.23835" lon="5.77281">
        <ele>1291.5999755859</ele>
        <time>2021-11-06T06:31:58.000Z</time>
      </trkpt>
      <trkpt lat="45.23842" lon="5.77287">
        <ele>1291.4000244141</ele>
        <time>2021-11-06T06:32:02.000Z</time>
      </trkpt>
      <trkpt lat="45.23846" lon="5.77293">
        <ele>1291.4000244141</ele>
        <time>2021-11-06T06:32:04.000Z</time>
      </trkpt>
      <trkpt lat="45.23849" lon="5.77304">
        <ele>1291.5999755859</ele>
        <time>2021-11-06T06:32:08.000Z</time>
      </trkpt>
      <trkpt lat="45.2385" lon="5.77305">
        <ele>1291.5999755859</ele>
        <time>2021-11-06T06:32:09.000Z</time>
      </trkpt>
      <trkpt lat="45.23853" lon="5.77314">
        <ele>1292.5999755859</ele>
        <time>2021-11-06T06:32:14.000Z</time>
      </trkpt>
      <trkpt lat="45.23854" lon="5.77315">
        <ele>1292.5999755859</ele>
        <time>2021-11-06T06:32:15.000Z</time>
      </trkpt>
      <trkpt lat="45.23855" lon="5.77316">
        <ele>1292.8000488281</ele>
        <time>2021-11-06T06:32:16.000Z</time>
      </trkpt>
      <trkpt lat="45.23863" lon="5.77321">
        <ele>1293.5999755859</ele>
        <time>2021-11-06T06:32:23.000Z</time>
      </trkpt>
      <trkpt lat="45.23866" lon="5.77321">
        <ele>1293.8000488281</ele>
        <time>2021-11-06T06:32:24.000Z</time>
      </trkpt>
      <trkpt lat="45.23872" lon="5.77323">
        <ele>1294.8000488281</ele>
        <time>2021-11-06T06:32:28.000Z</time>
      </trkpt>
      <trkpt lat="45.23872" lon="5.77323">
        <ele>1295</ele>
        <time>2021-11-06T06:32:29.000Z</time>
      </trkpt>
      <trkpt lat="45.23873" lon="5.77323">
        <ele>1296</ele>
        <time>2021-11-06T06:32:31.000Z</time>
      </trkpt>
      <trkpt lat="45.23874" lon="5.77324">
        <ele>1296.4000244141</ele>
        <time>2021-11-06T06:32:33.000Z</time>
      </trkpt>
      <trkpt lat="45.23875" lon="5.77326">
        <ele>1296.5999755859</ele>
        <time>2021-11-06T06:32:35.000Z</time>
      </trkpt>
      <trkpt lat="45.23876" lon="5.77326">
        <ele>1296.5999755859</ele>
        <time>2021-11-06T06:32:37.000Z</time>
      </trkpt>
      <trkpt lat="45.23877" lon="5.77326">
        <ele>1296.8000488281</ele>
        <time>2021-11-06T06:32:38.000Z</time>
      </trkpt>
      <trkpt lat="45.23877" lon="5.77326">
        <ele>1296.8000488281</ele>
        <time>2021-11-06T06:32:39.000Z</time>
      </trkpt>
      <trkpt lat="45.23878" lon="5.77325">
        <ele>1296.8000488281</ele>
        <time>2021-11-06T06:32:40.000Z</time>
      </trkpt>
      <trkpt lat="45.23881" lon="5.77326">
        <ele>1296.8000488281</ele>
        <time>2021-11-06T06:32:42.000Z</time>
      </trkpt>
      <trkpt lat="45.23882" lon="5.77326">
        <ele>1297</ele>
        <time>2021-11-06T06:32:44.000Z</time>
      </trkpt>
      <trkpt lat="45.23886" lon="5.77326">
        <ele>1297</ele>
        <time>2021-11-06T06:32:47.000Z</time>
      </trkpt>
      <trkpt lat="45.23889" lon="5.77328">
        <ele>1297</ele>
        <time>2021-11-06T06:32:48.000Z</time>
      </trkpt>
      <trkpt lat="45.23896" lon="5.7733">
        <ele>1297.8000488281</ele>
        <time>2021-11-06T06:32:53.000Z</time>
      </trkpt>
      <trkpt lat="45.23896" lon="5.7733">
        <ele>1298</ele>
        <time>2021-11-06T06:32:54.000Z</time>
      </trkpt>
      <trkpt lat="45.23899" lon="5.77329">
        <ele>1298.4000244141</ele>
        <time>2021-11-06T06:32:58.000Z</time>
      </trkpt>
      <trkpt lat="45.239" lon="5.77329">
        <ele>1298.4000244141</ele>
        <time>2021-11-06T06:32:59.000Z</time>
      </trkpt>
      <trkpt lat="45.239" lon="5.77329">
        <ele>1298.4000244141</ele>
        <time>2021-11-06T06:33:00.000Z</time>
      </trkpt>
      <trkpt lat="45.23901" lon="5.77329">
        <ele>1298</ele>
        <time>2021-11-06T06:33:03.000Z</time>
      </trkpt>
      <trkpt lat="45.23902" lon="5.77329">
        <ele>1297.8000488281</ele>
        <time>2021-11-06T06:33:04.000Z</time>
      </trkpt>
      <trkpt lat="45.23905" lon="5.77329">
        <ele>1297.1999511719</ele>
        <time>2021-11-06T06:33:06.000Z</time>
      </trkpt>
      <trkpt lat="45.23907" lon="5.77329">
        <ele>1296.8000488281</ele>
        <time>2021-11-06T06:33:08.000Z</time>
      </trkpt>
      <trkpt lat="45.23908" lon="5.77331">
        <ele>1296.1999511719</ele>
        <time>2021-11-06T06:33:10.000Z</time>
      </trkpt>
      <trkpt lat="45.23908" lon="5.77332">
        <ele>1295.8000488281</ele>
        <time>2021-11-06T06:33:11.000Z</time>
      </trkpt>
      <trkpt lat="45.23908" lon="5.77332">
        <ele>1295.5999755859</ele>
        <time>2021-11-06T06:33:12.000Z</time>
      </trkpt>
      <trkpt lat="45.23908" lon="5.77333">
        <ele>1295.4000244141</ele>
        <time>2021-11-06T06:33:13.000Z</time>
      </trkpt>
      <trkpt lat="45.23909" lon="5.77334">
        <ele>1295</ele>
        <time>2021-11-06T06:33:16.000Z</time>
      </trkpt>
      <trkpt lat="45.23911" lon="5.77335">
        <ele>1294.5999755859</ele>
        <time>2021-11-06T06:33:18.000Z</time>
      </trkpt>
      <trkpt lat="45.23913" lon="5.77336">
        <ele>1293.8000488281</ele>
        <time>2021-11-06T06:33:21.000Z</time>
      </trkpt>
      <trkpt lat="45.23913" lon="5.77336">
        <ele>1293.5999755859</ele>
        <time>2021-11-06T06:33:22.000Z</time>
      </trkpt>
      <trkpt lat="45.23913" lon="5.77336">
        <ele>1293.4000244141</ele>
        <time>2021-11-06T06:33:23.000Z</time>
      </trkpt>
      <trkpt lat="45.23914" lon="5.77336">
        <ele>1293.1999511719</ele>
        <time>2021-11-06T06:33:25.000Z</time>
      </trkpt>
      <trkpt lat="45.23915" lon="5.77338">
        <ele>1292.4000244141</ele>
        <time>2021-11-06T06:33:27.000Z</time>
      </trkpt>
      <trkpt lat="45.23915" lon="5.7734">
        <ele>1292.1999511719</ele>
        <time>2021-11-06T06:33:28.000Z</time>
      </trkpt>
      <trkpt lat="45.23915" lon="5.7734">
        <ele>1292.1999511719</ele>
        <time>2021-11-06T06:33:29.000Z</time>
      </trkpt>
      <trkpt lat="45.23918" lon="5.77343">
        <ele>1291.8000488281</ele>
        <time>2021-11-06T06:33:33.000Z</time>
      </trkpt>
      <trkpt lat="45.23919" lon="5.77344">
        <ele>1291.8000488281</ele>
        <time>2021-11-06T06:33:34.000Z</time>
      </trkpt>
      <trkpt lat="45.23919" lon="5.77344">
        <ele>1291.5999755859</ele>
        <time>2021-11-06T06:33:35.000Z</time>
      </trkpt>
      <trkpt lat="45.23915" lon="5.77352">
        <ele>1292.1999511719</ele>
        <time>2021-11-06T06:33:42.000Z</time>
      </trkpt>
      <trkpt lat="45.23916" lon="5.77359">
        <ele>1293.1999511719</ele>
        <time>2021-11-06T06:33:47.000Z</time>
      </trkpt>
      <trkpt lat="45.23915" lon="5.7736">
        <ele>1293.1999511719</ele>
        <time>2021-11-06T06:33:48.000Z</time>
      </trkpt>
      <trkpt lat="45.23914" lon="5.77362">
        <ele>1293.5999755859</ele>
        <time>2021-11-06T06:33:49.000Z</time>
      </trkpt>
      <trkpt lat="45.23914" lon="5.77364">
        <ele>1293.8000488281</ele>
        <time>2021-11-06T06:33:50.000Z</time>
      </trkpt>
      <trkpt lat="45.23913" lon="5.77368">
        <ele>1294.4000244141</ele>
        <time>2021-11-06T06:33:53.000Z</time>
      </trkpt>
      <trkpt lat="45.2391" lon="5.77372">
        <ele>1294.5999755859</ele>
        <time>2021-11-06T06:33:56.000Z</time>
      </trkpt>
      <trkpt lat="45.23907" lon="5.77375">
        <ele>1295.4000244141</ele>
        <time>2021-11-06T06:33:59.000Z</time>
      </trkpt>
      <trkpt lat="45.23906" lon="5.77377">
        <ele>1295.5999755859</ele>
        <time>2021-11-06T06:34:00.000Z</time>
      </trkpt>
      <trkpt lat="45.23906" lon="5.77377">
        <ele>1295.8000488281</ele>
        <time>2021-11-06T06:34:01.000Z</time>
      </trkpt>
      <trkpt lat="45.23906" lon="5.77378">
        <ele>1296.1999511719</ele>
        <time>2021-11-06T06:34:02.000Z</time>
      </trkpt>
      <trkpt lat="45.23908" lon="5.77381">
        <ele>1296.5999755859</ele>
        <time>2021-11-06T06:34:05.000Z</time>
      </trkpt>
      <trkpt lat="45.23908" lon="5.77384">
        <ele>1296.8000488281</ele>
        <time>2021-11-06T06:34:06.000Z</time>
      </trkpt>
      <trkpt lat="45.23908" lon="5.77385">
        <ele>1297</ele>
        <time>2021-11-06T06:34:07.000Z</time>
      </trkpt>
      <trkpt lat="45.23909" lon="5.77385">
        <ele>1297</ele>
        <time>2021-11-06T06:34:09.000Z</time>
      </trkpt>
      <trkpt lat="45.23911" lon="5.77383">
        <ele>1297</ele>
        <time>2021-11-06T06:34:11.000Z</time>
      </trkpt>
      <trkpt lat="45.23913" lon="5.77385">
        <ele>1297</ele>
        <time>2021-11-06T06:34:13.000Z</time>
      </trkpt>
      <trkpt lat="45.23916" lon="5.77392">
        <ele>1297.1999511719</ele>
        <time>2021-11-06T06:34:17.000Z</time>
      </trkpt>
      <trkpt lat="45.23917" lon="5.77395">
        <ele>1298</ele>
        <time>2021-11-06T06:34:20.000Z</time>
      </trkpt>
      <trkpt lat="45.23918" lon="5.77396">
        <ele>1298.5999755859</ele>
        <time>2021-11-06T06:34:22.000Z</time>
      </trkpt>
      <trkpt lat="45.23918" lon="5.77395">
        <ele>1298.8000488281</ele>
        <time>2021-11-06T06:34:23.000Z</time>
      </trkpt>
      <trkpt lat="45.2392" lon="5.77395">
        <ele>1299</ele>
        <time>2021-11-06T06:34:25.000Z</time>
      </trkpt>
      <trkpt lat="45.23923" lon="5.77397">
        <ele>1299.1999511719</ele>
        <time>2021-11-06T06:34:27.000Z</time>
      </trkpt>
      <trkpt lat="45.23924" lon="5.77397">
        <ele>1299.1999511719</ele>
        <time>2021-11-06T06:34:28.000Z</time>
      </trkpt>
      <trkpt lat="45.23926" lon="5.77398">
        <ele>1299.8000488281</ele>
        <time>2021-11-06T06:34:32.000Z</time>
      </trkpt>
      <trkpt lat="45.23928" lon="5.77399">
        <ele>1300</ele>
        <time>2021-11-06T06:34:34.000Z</time>
      </trkpt>
      <trkpt lat="45.23929" lon="5.774">
        <ele>1300.4000244141</ele>
        <time>2021-11-06T06:34:35.000Z</time>
      </trkpt>
      <trkpt lat="45.23931" lon="5.77403">
        <ele>1300.8000488281</ele>
        <time>2021-11-06T06:34:39.000Z</time>
      </trkpt>
      <trkpt lat="45.23932" lon="5.77404">
        <ele>1301</ele>
        <time>2021-11-06T06:34:41.000Z</time>
      </trkpt>
      <trkpt lat="45.23933" lon="5.77406">
        <ele>1301.4000244141</ele>
        <time>2021-11-06T06:34:43.000Z</time>
      </trkpt>
      <trkpt lat="45.23933" lon="5.77407">
        <ele>1301.8000488281</ele>
        <time>2021-11-06T06:34:45.000Z</time>
      </trkpt>
      <trkpt lat="45.23934" lon="5.77408">
        <ele>1302.1999511719</ele>
        <time>2021-11-06T06:34:47.000Z</time>
      </trkpt>
      <trkpt lat="45.23936" lon="5.7741">
        <ele>1302.5999755859</ele>
        <time>2021-11-06T06:34:49.000Z</time>
      </trkpt>
      <trkpt lat="45.23937" lon="5.77413">
        <ele>1303</ele>
        <time>2021-11-06T06:34:52.000Z</time>
      </trkpt>
      <trkpt lat="45.23936" lon="5.77414">
        <ele>1303.1999511719</ele>
        <time>2021-11-06T06:34:53.000Z</time>
      </trkpt>
      <trkpt lat="45.23937" lon="5.77416">
        <ele>1303.1999511719</ele>
        <time>2021-11-06T06:34:55.000Z</time>
      </trkpt>
      <trkpt lat="45.23939" lon="5.77418">
        <ele>1303.5999755859</ele>
        <time>2021-11-06T06:34:57.000Z</time>
      </trkpt>
      <trkpt lat="45.2394" lon="5.77421">
        <ele>1303.8000488281</ele>
        <time>2021-11-06T06:34:59.000Z</time>
      </trkpt>
      <trkpt lat="45.23941" lon="5.77426">
        <ele>1304.5999755859</ele>
        <time>2021-11-06T06:35:04.000Z</time>
      </trkpt>
      <trkpt lat="45.23941" lon="5.77428">
        <ele>1305.4000244141</ele>
        <time>2021-11-06T06:35:06.000Z</time>
      </trkpt>
      <trkpt lat="45.23942" lon="5.7743">
        <ele>1305.5999755859</ele>
        <time>2021-11-06T06:35:08.000Z</time>
      </trkpt>
      <trkpt lat="45.23943" lon="5.77435">
        <ele>1306.1999511719</ele>
        <time>2021-11-06T06:35:12.000Z</time>
      </trkpt>
      <trkpt lat="45.23943" lon="5.77436">
        <ele>1306.4000244141</ele>
        <time>2021-11-06T06:35:13.000Z</time>
      </trkpt>
      <trkpt lat="45.23943" lon="5.77437">
        <ele>1306.4000244141</ele>
        <time>2021-11-06T06:35:14.000Z</time>
      </trkpt>
      <trkpt lat="45.23944" lon="5.77441">
        <ele>1306.8000488281</ele>
        <time>2021-11-06T06:35:17.000Z</time>
      </trkpt>
      <trkpt lat="45.23945" lon="5.77445">
        <ele>1307.4000244141</ele>
        <time>2021-11-06T06:35:20.000Z</time>
      </trkpt>
      <trkpt lat="45.23943" lon="5.77448">
        <ele>1308</ele>
        <time>2021-11-06T06:35:23.000Z</time>
      </trkpt>
      <trkpt lat="45.23943" lon="5.77449">
        <ele>1308.4000244141</ele>
        <time>2021-11-06T06:35:25.000Z</time>
      </trkpt>
      <trkpt lat="45.23943" lon="5.77449">
        <ele>1309</ele>
        <time>2021-11-06T06:35:27.000Z</time>
      </trkpt>
      <trkpt lat="45.23943" lon="5.77449">
        <ele>1309</ele>
        <time>2021-11-06T06:35:28.000Z</time>
      </trkpt>
      <trkpt lat="45.23944" lon="5.77448">
        <ele>1309.1999511719</ele>
        <time>2021-11-06T06:35:30.000Z</time>
      </trkpt>
      <trkpt lat="45.23946" lon="5.77449">
        <ele>1308.8000488281</ele>
        <time>2021-11-06T06:35:32.000Z</time>
      </trkpt>
      <trkpt lat="45.23948" lon="5.77453">
        <ele>1308.1999511719</ele>
        <time>2021-11-06T06:35:35.000Z</time>
      </trkpt>
      <trkpt lat="45.23954" lon="5.77461">
        <ele>1308.4000244141</ele>
        <time>2021-11-06T06:35:42.000Z</time>
      </trkpt>
      <trkpt lat="45.23956" lon="5.77464">
        <ele>1308.4000244141</ele>
        <time>2021-11-06T06:35:44.000Z</time>
      </trkpt>
      <trkpt lat="45.23964" lon="5.77473">
        <ele>1308.5999755859</ele>
        <time>2021-11-06T06:35:50.000Z</time>
      </trkpt>
      <trkpt lat="45.23974" lon="5.7749">
        <ele>1308.5999755859</ele>
        <time>2021-11-06T06:35:59.000Z</time>
      </trkpt>
      <trkpt lat="45.23977" lon="5.77504">
        <ele>1309.1999511719</ele>
        <time>2021-11-06T06:36:05.000Z</time>
      </trkpt>
      <trkpt lat="45.23978" lon="5.77507">
        <ele>1309.1999511719</ele>
        <time>2021-11-06T06:36:07.000Z</time>
      </trkpt>
      <trkpt lat="45.23986" lon="5.7752">
        <ele>1310.1999511719</ele>
        <time>2021-11-06T06:36:14.000Z</time>
      </trkpt>
      <trkpt lat="45.23987" lon="5.77523">
        <ele>1310.4000244141</ele>
        <time>2021-11-06T06:36:15.000Z</time>
      </trkpt>
      <trkpt lat="45.23994" lon="5.77532">
        <ele>1310.1999511719</ele>
        <time>2021-11-06T06:36:22.000Z</time>
      </trkpt>
      <trkpt lat="45.23996" lon="5.77533">
        <ele>1310</ele>
        <time>2021-11-06T06:36:24.000Z</time>
      </trkpt>
      <trkpt lat="45.23999" lon="5.77534">
        <ele>1309.5999755859</ele>
        <time>2021-11-06T06:36:27.000Z</time>
      </trkpt>
      <trkpt lat="45.24001" lon="5.77536">
        <ele>1309</ele>
        <time>2021-11-06T06:36:30.000Z</time>
      </trkpt>
      <trkpt lat="45.24003" lon="5.7754">
        <ele>1308.5999755859</ele>
        <time>2021-11-06T06:36:33.000Z</time>
      </trkpt>
      <trkpt lat="45.24004" lon="5.77541">
        <ele>1308.4000244141</ele>
        <time>2021-11-06T06:36:35.000Z</time>
      </trkpt>
      <trkpt lat="45.24004" lon="5.77542">
        <ele>1308.1999511719</ele>
        <time>2021-11-06T06:36:37.000Z</time>
      </trkpt>
      <trkpt lat="45.24005" lon="5.77541">
        <ele>1308.1999511719</ele>
        <time>2021-11-06T06:36:39.000Z</time>
      </trkpt>
      <trkpt lat="45.24007" lon="5.77542">
        <ele>1307.5999755859</ele>
        <time>2021-11-06T06:36:42.000Z</time>
      </trkpt>
      <trkpt lat="45.24008" lon="5.77544">
        <ele>1307.4000244141</ele>
        <time>2021-11-06T06:36:43.000Z</time>
      </trkpt>
      <trkpt lat="45.24009" lon="5.77546">
        <ele>1307.1999511719</ele>
        <time>2021-11-06T06:36:44.000Z</time>
      </trkpt>
      <trkpt lat="45.24013" lon="5.77548">
        <ele>1306.5999755859</ele>
        <time>2021-11-06T06:36:49.000Z</time>
      </trkpt>
      <trkpt lat="45.24016" lon="5.7755">
        <ele>1306</ele>
        <time>2021-11-06T06:36:52.000Z</time>
      </trkpt>
      <trkpt lat="45.24019" lon="5.77554">
        <ele>1306</ele>
        <time>2021-11-06T06:36:56.000Z</time>
      </trkpt>
      <trkpt lat="45.24021" lon="5.7756">
        <ele>1306.1999511719</ele>
        <time>2021-11-06T06:37:00.000Z</time>
      </trkpt>
      <trkpt lat="45.24023" lon="5.77563">
        <ele>1306.1999511719</ele>
        <time>2021-11-06T06:37:04.000Z</time>
      </trkpt>
      <trkpt lat="45.24024" lon="5.77565">
        <ele>1306.1999511719</ele>
        <time>2021-11-06T06:37:06.000Z</time>
      </trkpt>
      <trkpt lat="45.24025" lon="5.77566">
        <ele>1305.8000488281</ele>
        <time>2021-11-06T06:37:08.000Z</time>
      </trkpt>
      <trkpt lat="45.24025" lon="5.77568">
        <ele>1305.5999755859</ele>
        <time>2021-11-06T06:37:10.000Z</time>
      </trkpt>
      <trkpt lat="45.24026" lon="5.77569">
        <ele>1305.5999755859</ele>
        <time>2021-11-06T06:37:11.000Z</time>
      </trkpt>
      <trkpt lat="45.24027" lon="5.77569">
        <ele>1305.4000244141</ele>
        <time>2021-11-06T06:37:12.000Z</time>
      </trkpt>
      <trkpt lat="45.24036" lon="5.77573">
        <ele>1304.5999755859</ele>
        <time>2021-11-06T06:37:18.000Z</time>
      </trkpt>
      <trkpt lat="45.24037" lon="5.77573">
        <ele>1304.4000244141</ele>
        <time>2021-11-06T06:37:19.000Z</time>
      </trkpt>
      <trkpt lat="45.24044" lon="5.77574">
        <ele>1303.4000244141</ele>
        <time>2021-11-06T06:37:25.000Z</time>
      </trkpt>
      <trkpt lat="45.24047" lon="5.77572">
        <ele>1302.8000488281</ele>
        <time>2021-11-06T06:37:27.000Z</time>
      </trkpt>
      <trkpt lat="45.24048" lon="5.77572">
        <ele>1302.5999755859</ele>
        <time>2021-11-06T06:37:28.000Z</time>
      </trkpt>
      <trkpt lat="45.2405" lon="5.77573">
        <ele>1302.4000244141</ele>
        <time>2021-11-06T06:37:29.000Z</time>
      </trkpt>
      <trkpt lat="45.24055" lon="5.77578">
        <ele>1302.1999511719</ele>
        <time>2021-11-06T06:37:32.000Z</time>
      </trkpt>
      <trkpt lat="45.24056" lon="5.77578">
        <ele>1302</ele>
        <time>2021-11-06T06:37:33.000Z</time>
      </trkpt>
      <trkpt lat="45.24059" lon="5.7758">
        <ele>1301.8000488281</ele>
        <time>2021-11-06T06:37:35.000Z</time>
      </trkpt>
      <trkpt lat="45.24062" lon="5.77586">
        <ele>1302</ele>
        <time>2021-11-06T06:37:38.000Z</time>
      </trkpt>
      <trkpt lat="45.24064" lon="5.77593">
        <ele>1302.8000488281</ele>
        <time>2021-11-06T06:37:42.000Z</time>
      </trkpt>
      <trkpt lat="45.24066" lon="5.77596">
        <ele>1303.4000244141</ele>
        <time>2021-11-06T06:37:44.000Z</time>
      </trkpt>
      <trkpt lat="45.24068" lon="5.77598">
        <ele>1303.5999755859</ele>
        <time>2021-11-06T06:37:45.000Z</time>
      </trkpt>
      <trkpt lat="45.2407" lon="5.77603">
        <ele>1304.4000244141</ele>
        <time>2021-11-06T06:37:48.000Z</time>
      </trkpt>
      <trkpt lat="45.24071" lon="5.77605">
        <ele>1305</ele>
        <time>2021-11-06T06:37:50.000Z</time>
      </trkpt>
      <trkpt lat="45.24072" lon="5.77609">
        <ele>1305.4000244141</ele>
        <time>2021-11-06T06:37:52.000Z</time>
      </trkpt>
      <trkpt lat="45.24071" lon="5.77614">
        <ele>1306.4000244141</ele>
        <time>2021-11-06T06:37:55.000Z</time>
      </trkpt>
      <trkpt lat="45.24071" lon="5.77615">
        <ele>1306.8000488281</ele>
        <time>2021-11-06T06:37:56.000Z</time>
      </trkpt>
      <trkpt lat="45.24071" lon="5.77617">
        <ele>1307</ele>
        <time>2021-11-06T06:37:57.000Z</time>
      </trkpt>
      <trkpt lat="45.24071" lon="5.77619">
        <ele>1307.4000244141</ele>
        <time>2021-11-06T06:37:58.000Z</time>
      </trkpt>
      <trkpt lat="45.24072" lon="5.77621">
        <ele>1307.8000488281</ele>
        <time>2021-11-06T06:37:59.000Z</time>
      </trkpt>
      <trkpt lat="45.24073" lon="5.77622">
        <ele>1308</ele>
        <time>2021-11-06T06:38:00.000Z</time>
      </trkpt>
      <trkpt lat="45.24075" lon="5.77625">
        <ele>1308.1999511719</ele>
        <time>2021-11-06T06:38:02.000Z</time>
      </trkpt>
      <trkpt lat="45.24078" lon="5.77629">
        <ele>1308.4000244141</ele>
        <time>2021-11-06T06:38:04.000Z</time>
      </trkpt>
      <trkpt lat="45.24081" lon="5.77632">
        <ele>1308.4000244141</ele>
        <time>2021-11-06T06:38:06.000Z</time>
      </trkpt>
      <trkpt lat="45.24091" lon="5.77638">
        <ele>1308.5999755859</ele>
        <time>2021-11-06T06:38:11.000Z</time>
      </trkpt>
      <trkpt lat="45.24094" lon="5.77643">
        <ele>1309</ele>
        <time>2021-11-06T06:38:13.000Z</time>
      </trkpt>
      <trkpt lat="45.24096" lon="5.77645">
        <ele>1309</ele>
        <time>2021-11-06T06:38:14.000Z</time>
      </trkpt>
      <trkpt lat="45.241" lon="5.7765">
        <ele>1309.4000244141</ele>
        <time>2021-11-06T06:38:17.000Z</time>
      </trkpt>
      <trkpt lat="45.24102" lon="5.77652">
        <ele>1309.4000244141</ele>
        <time>2021-11-06T06:38:19.000Z</time>
      </trkpt>
      <trkpt lat="45.24105" lon="5.77657">
        <ele>1309.5999755859</ele>
        <time>2021-11-06T06:38:24.000Z</time>
      </trkpt>
      <trkpt lat="45.24114" lon="5.77668">
        <ele>1309.1999511719</ele>
        <time>2021-11-06T06:38:30.000Z</time>
      </trkpt>
      <trkpt lat="45.24115" lon="5.77669">
        <ele>1309</ele>
        <time>2021-11-06T06:38:31.000Z</time>
      </trkpt>
      <trkpt lat="45.24121" lon="5.77674">
        <ele>1308.4000244141</ele>
        <time>2021-11-06T06:38:35.000Z</time>
      </trkpt>
      <trkpt lat="45.24124" lon="5.77679">
        <ele>1308</ele>
        <time>2021-11-06T06:38:39.000Z</time>
      </trkpt>
      <trkpt lat="45.24125" lon="5.77679">
        <ele>1307.8000488281</ele>
        <time>2021-11-06T06:38:40.000Z</time>
      </trkpt>
      <trkpt lat="45.24126" lon="5.77679">
        <ele>1307.8000488281</ele>
        <time>2021-11-06T06:38:41.000Z</time>
      </trkpt>
      <trkpt lat="45.2413" lon="5.77683">
        <ele>1307.1999511719</ele>
        <time>2021-11-06T06:38:44.000Z</time>
      </trkpt>
      <trkpt lat="45.24132" lon="5.77688">
        <ele>1307</ele>
        <time>2021-11-06T06:38:47.000Z</time>
      </trkpt>
      <trkpt lat="45.24133" lon="5.77689">
        <ele>1307</ele>
        <time>2021-11-06T06:38:48.000Z</time>
      </trkpt>
      <trkpt lat="45.24133" lon="5.7769">
        <ele>1307</ele>
        <time>2021-11-06T06:38:49.000Z</time>
      </trkpt>
      <trkpt lat="45.24135" lon="5.77693">
        <ele>1307.1999511719</ele>
        <time>2021-11-06T06:38:51.000Z</time>
      </trkpt>
      <trkpt lat="45.24136" lon="5.77695">
        <ele>1307.4000244141</ele>
        <time>2021-11-06T06:38:53.000Z</time>
      </trkpt>
      <trkpt lat="45.24138" lon="5.77697">
        <ele>1307.5999755859</ele>
        <time>2021-11-06T06:38:55.000Z</time>
      </trkpt>
      <trkpt lat="45.24139" lon="5.77698">
        <ele>1308</ele>
        <time>2021-11-06T06:38:56.000Z</time>
      </trkpt>
      <trkpt lat="45.24141" lon="5.77699">
        <ele>1308.5999755859</ele>
        <time>2021-11-06T06:38:58.000Z</time>
      </trkpt>
      <trkpt lat="45.24144" lon="5.77701">
        <ele>1309</ele>
        <time>2021-11-06T06:39:00.000Z</time>
      </trkpt>
      <trkpt lat="45.24145" lon="5.77703">
        <ele>1309.4000244141</ele>
        <time>2021-11-06T06:39:01.000Z</time>
      </trkpt>
      <trkpt lat="45.24148" lon="5.77711">
        <ele>1310.1999511719</ele>
        <time>2021-11-06T06:39:05.000Z</time>
      </trkpt>
      <trkpt lat="45.24149" lon="5.77713">
        <ele>1310.8000488281</ele>
        <time>2021-11-06T06:39:08.000Z</time>
      </trkpt>
      <trkpt lat="45.24151" lon="5.77716">
        <ele>1311.1999511719</ele>
        <time>2021-11-06T06:39:10.000Z</time>
      </trkpt>
      <trkpt lat="45.24154" lon="5.77721">
        <ele>1312.1999511719</ele>
        <time>2021-11-06T06:39:15.000Z</time>
      </trkpt>
      <trkpt lat="45.24154" lon="5.77722">
        <ele>1312.4000244141</ele>
        <time>2021-11-06T06:39:16.000Z</time>
      </trkpt>
      <trkpt lat="45.24156" lon="5.77723">
        <ele>1313</ele>
        <time>2021-11-06T06:39:19.000Z</time>
      </trkpt>
      <trkpt lat="45.24159" lon="5.77722">
        <ele>1313.1999511719</ele>
        <time>2021-11-06T06:39:22.000Z</time>
      </trkpt>
      <trkpt lat="45.24161" lon="5.77725">
        <ele>1313.1999511719</ele>
        <time>2021-11-06T06:39:25.000Z</time>
      </trkpt>
      <trkpt lat="45.24161" lon="5.77727">
        <ele>1313.4000244141</ele>
        <time>2021-11-06T06:39:26.000Z</time>
      </trkpt>
      <trkpt lat="45.24161" lon="5.7773">
        <ele>1314</ele>
        <time>2021-11-06T06:39:29.000Z</time>
      </trkpt>
      <trkpt lat="45.24161" lon="5.77732">
        <ele>1314.4000244141</ele>
        <time>2021-11-06T06:39:31.000Z</time>
      </trkpt>
      <trkpt lat="45.24162" lon="5.77734">
        <ele>1314.5999755859</ele>
        <time>2021-11-06T06:39:33.000Z</time>
      </trkpt>
      <trkpt lat="45.24163" lon="5.77735">
        <ele>1315</ele>
        <time>2021-11-06T06:39:35.000Z</time>
      </trkpt>
      <trkpt lat="45.24164" lon="5.77736">
        <ele>1315.1999511719</ele>
        <time>2021-11-06T06:39:36.000Z</time>
      </trkpt>
      <trkpt lat="45.24166" lon="5.7774">
        <ele>1315.5999755859</ele>
        <time>2021-11-06T06:39:39.000Z</time>
      </trkpt>
      <trkpt lat="45.24168" lon="5.77743">
        <ele>1315.8000488281</ele>
        <time>2021-11-06T06:39:41.000Z</time>
      </trkpt>
      <trkpt lat="45.24169" lon="5.77745">
        <ele>1316.1999511719</ele>
        <time>2021-11-06T06:39:43.000Z</time>
      </trkpt>
      <trkpt lat="45.2417" lon="5.77749">
        <ele>1316.8000488281</ele>
        <time>2021-11-06T06:39:47.000Z</time>
      </trkpt>
      <trkpt lat="45.24173" lon="5.77754">
        <ele>1317</ele>
        <time>2021-11-06T06:39:52.000Z</time>
      </trkpt>
      <trkpt lat="45.24175" lon="5.77755">
        <ele>1317</ele>
        <time>2021-11-06T06:39:53.000Z</time>
      </trkpt>
      <trkpt lat="45.24177" lon="5.77757">
        <ele>1317</ele>
        <time>2021-11-06T06:39:54.000Z</time>
      </trkpt>
      <trkpt lat="45.24179" lon="5.7776">
        <ele>1317.1999511719</ele>
        <time>2021-11-06T06:39:56.000Z</time>
      </trkpt>
      <trkpt lat="45.24179" lon="5.77762">
        <ele>1317.1999511719</ele>
        <time>2021-11-06T06:39:57.000Z</time>
      </trkpt>
      <trkpt lat="45.24181" lon="5.7777">
        <ele>1318.1999511719</ele>
        <time>2021-11-06T06:40:04.000Z</time>
      </trkpt>
      <trkpt lat="45.24182" lon="5.77769">
        <ele>1318.1999511719</ele>
        <time>2021-11-06T06:40:05.000Z</time>
      </trkpt>
      <trkpt lat="45.24184" lon="5.7777">
        <ele>1318</ele>
        <time>2021-11-06T06:40:08.000Z</time>
      </trkpt>
      <trkpt lat="45.24187" lon="5.77769">
        <ele>1317.4000244141</ele>
        <time>2021-11-06T06:40:11.000Z</time>
      </trkpt>
      <trkpt lat="45.24188" lon="5.7777">
        <ele>1317.1999511719</ele>
        <time>2021-11-06T06:40:12.000Z</time>
      </trkpt>
      <trkpt lat="45.24193" lon="5.77772">
        <ele>1316</ele>
        <time>2021-11-06T06:40:16.000Z</time>
      </trkpt>
      <trkpt lat="45.24194" lon="5.77774">
        <ele>1316</ele>
        <time>2021-11-06T06:40:17.000Z</time>
      </trkpt>
      <trkpt lat="45.24195" lon="5.77775">
        <ele>1316</ele>
        <time>2021-11-06T06:40:18.000Z</time>
      </trkpt>
      <trkpt lat="45.24195" lon="5.77779">
        <ele>1316</ele>
        <time>2021-11-06T06:40:21.000Z</time>
      </trkpt>
      <trkpt lat="45.24195" lon="5.7778">
        <ele>1316.8000488281</ele>
        <time>2021-11-06T06:40:23.000Z</time>
      </trkpt>
      <trkpt lat="45.24195" lon="5.7778">
        <ele>1317.1999511719</ele>
        <time>2021-11-06T06:40:24.000Z</time>
      </trkpt>
      <trkpt lat="45.24195" lon="5.77783">
        <ele>1317.8000488281</ele>
        <time>2021-11-06T06:40:26.000Z</time>
      </trkpt>
      <trkpt lat="45.24196" lon="5.77784">
        <ele>1318.1999511719</ele>
        <time>2021-11-06T06:40:28.000Z</time>
      </trkpt>
      <trkpt lat="45.24197" lon="5.77786">
        <ele>1318.4000244141</ele>
        <time>2021-11-06T06:40:29.000Z</time>
      </trkpt>
      <trkpt lat="45.242" lon="5.77794">
        <ele>1319.5999755859</ele>
        <time>2021-11-06T06:40:35.000Z</time>
      </trkpt>
      <trkpt lat="45.24205" lon="5.77799">
        <ele>1320.1999511719</ele>
        <time>2021-11-06T06:40:40.000Z</time>
      </trkpt>
      <trkpt lat="45.24206" lon="5.77801">
        <ele>1320.4000244141</ele>
        <time>2021-11-06T06:40:41.000Z</time>
      </trkpt>
      <trkpt lat="45.24206" lon="5.77802">
        <ele>1320.4000244141</ele>
        <time>2021-11-06T06:40:42.000Z</time>
      </trkpt>
      <trkpt lat="45.24207" lon="5.77803">
        <ele>1320.8000488281</ele>
        <time>2021-11-06T06:40:43.000Z</time>
      </trkpt>
      <trkpt lat="45.2421" lon="5.77808">
        <ele>1321.5999755859</ele>
        <time>2021-11-06T06:40:47.000Z</time>
      </trkpt>
      <trkpt lat="45.2421" lon="5.77811">
        <ele>1322</ele>
        <time>2021-11-06T06:40:48.000Z</time>
      </trkpt>
      <trkpt lat="45.24211" lon="5.77813">
        <ele>1322.1999511719</ele>
        <time>2021-11-06T06:40:49.000Z</time>
      </trkpt>
      <trkpt lat="45.24215" lon="5.77819">
        <ele>1323</ele>
        <time>2021-11-06T06:40:52.000Z</time>
      </trkpt>
      <trkpt lat="45.24222" lon="5.77824">
        <ele>1323.4000244141</ele>
        <time>2021-11-06T06:40:56.000Z</time>
      </trkpt>
      <trkpt lat="45.2423" lon="5.7783">
        <ele>1323.8000488281</ele>
        <time>2021-11-06T06:41:01.000Z</time>
      </trkpt>
      <trkpt lat="45.24233" lon="5.77834">
        <ele>1324.1999511719</ele>
        <time>2021-11-06T06:41:04.000Z</time>
      </trkpt>
      <trkpt lat="45.24238" lon="5.77841">
        <ele>1325.1999511719</ele>
        <time>2021-11-06T06:41:11.000Z</time>
      </trkpt>
      <trkpt lat="45.24239" lon="5.77841">
        <ele>1325.4000244141</ele>
        <time>2021-11-06T06:41:12.000Z</time>
      </trkpt>
      <trkpt lat="45.24239" lon="5.77845">
        <ele>1326.4000244141</ele>
        <time>2021-11-06T06:41:15.000Z</time>
      </trkpt>
      <trkpt lat="45.24239" lon="5.77846">
        <ele>1326.5999755859</ele>
        <time>2021-11-06T06:41:16.000Z</time>
      </trkpt>
      <trkpt lat="45.2424" lon="5.77852">
        <ele>1327.5999755859</ele>
        <time>2021-11-06T06:41:21.000Z</time>
      </trkpt>
      <trkpt lat="45.24241" lon="5.77854">
        <ele>1327.5999755859</ele>
        <time>2021-11-06T06:41:23.000Z</time>
      </trkpt>
      <trkpt lat="45.24244" lon="5.7786">
        <ele>1328.8000488281</ele>
        <time>2021-11-06T06:41:28.000Z</time>
      </trkpt>
      <trkpt lat="45.24245" lon="5.77862">
        <ele>1329.4000244141</ele>
        <time>2021-11-06T06:41:30.000Z</time>
      </trkpt>
      <trkpt lat="45.24246" lon="5.77865">
        <ele>1329.8000488281</ele>
        <time>2021-11-06T06:41:33.000Z</time>
      </trkpt>
      <trkpt lat="45.24246" lon="5.77867">
        <ele>1330.4000244141</ele>
        <time>2021-11-06T06:41:35.000Z</time>
      </trkpt>
      <trkpt lat="45.24249" lon="5.77869">
        <ele>1331</ele>
        <time>2021-11-06T06:41:37.000Z</time>
      </trkpt>
      <trkpt lat="45.24255" lon="5.77873">
        <ele>1331.4000244141</ele>
        <time>2021-11-06T06:41:41.000Z</time>
      </trkpt>
      <trkpt lat="45.24257" lon="5.77875">
        <ele>1331.4000244141</ele>
        <time>2021-11-06T06:41:43.000Z</time>
      </trkpt>
      <trkpt lat="45.24259" lon="5.77876">
        <ele>1331.1999511719</ele>
        <time>2021-11-06T06:41:45.000Z</time>
      </trkpt>
      <trkpt lat="45.2426" lon="5.77877">
        <ele>1331</ele>
        <time>2021-11-06T06:41:46.000Z</time>
      </trkpt>
      <trkpt lat="45.24269" lon="5.77884">
        <ele>1330.8000488281</ele>
        <time>2021-11-06T06:41:53.000Z</time>
      </trkpt>
      <trkpt lat="45.24274" lon="5.77893">
        <ele>1331.1999511719</ele>
        <time>2021-11-06T06:41:58.000Z</time>
      </trkpt>
      <trkpt lat="45.24277" lon="5.77898">
        <ele>1331.4000244141</ele>
        <time>2021-11-06T06:42:00.000Z</time>
      </trkpt>
      <trkpt lat="45.24278" lon="5.77899">
        <ele>1331.4000244141</ele>
        <time>2021-11-06T06:42:01.000Z</time>
      </trkpt>
      <trkpt lat="45.24279" lon="5.77901">
        <ele>1331.5999755859</ele>
        <time>2021-11-06T06:42:03.000Z</time>
      </trkpt>
      <trkpt lat="45.24284" lon="5.77903">
        <ele>1331.8000488281</ele>
        <time>2021-11-06T06:42:06.000Z</time>
      </trkpt>
      <trkpt lat="45.24289" lon="5.77909">
        <ele>1331.8000488281</ele>
        <time>2021-11-06T06:42:09.000Z</time>
      </trkpt>
      <trkpt lat="45.24293" lon="5.77915">
        <ele>1332</ele>
        <time>2021-11-06T06:42:12.000Z</time>
      </trkpt>
      <trkpt lat="45.24294" lon="5.77919">
        <ele>1332.4000244141</ele>
        <time>2021-11-06T06:42:14.000Z</time>
      </trkpt>
      <trkpt lat="45.24295" lon="5.77924">
        <ele>1333.4000244141</ele>
        <time>2021-11-06T06:42:17.000Z</time>
      </trkpt>
      <trkpt lat="45.24295" lon="5.77926">
        <ele>1333.5999755859</ele>
        <time>2021-11-06T06:42:18.000Z</time>
      </trkpt>
      <trkpt lat="45.243" lon="5.77932">
        <ele>1334.1999511719</ele>
        <time>2021-11-06T06:42:23.000Z</time>
      </trkpt>
      <trkpt lat="45.24307" lon="5.7794">
        <ele>1334.5999755859</ele>
        <time>2021-11-06T06:42:28.000Z</time>
      </trkpt>
      <trkpt lat="45.24309" lon="5.7794">
        <ele>1334.5999755859</ele>
        <time>2021-11-06T06:42:29.000Z</time>
      </trkpt>
      <trkpt lat="45.24313" lon="5.77941">
        <ele>1334.5999755859</ele>
        <time>2021-11-06T06:42:32.000Z</time>
      </trkpt>
      <trkpt lat="45.24318" lon="5.77946">
        <ele>1334.5999755859</ele>
        <time>2021-11-06T06:42:36.000Z</time>
      </trkpt>
      <trkpt lat="45.2432" lon="5.77946">
        <ele>1334.4000244141</ele>
        <time>2021-11-06T06:42:38.000Z</time>
      </trkpt>
      <trkpt lat="45.24325" lon="5.77946">
        <ele>1333.4000244141</ele>
        <time>2021-11-06T06:42:42.000Z</time>
      </trkpt>
      <trkpt lat="45.2433" lon="5.77949">
        <ele>1332.5999755859</ele>
        <time>2021-11-06T06:42:45.000Z</time>
      </trkpt>
      <trkpt lat="45.24332" lon="5.7795">
        <ele>1332.1999511719</ele>
        <time>2021-11-06T06:42:46.000Z</time>
      </trkpt>
      <trkpt lat="45.24335" lon="5.77949">
        <ele>1331.5999755859</ele>
        <time>2021-11-06T06:42:49.000Z</time>
      </trkpt>
      <trkpt lat="45.24337" lon="5.7795">
        <ele>1331.1999511719</ele>
        <time>2021-11-06T06:42:51.000Z</time>
      </trkpt>
      <trkpt lat="45.24338" lon="5.77952">
        <ele>1331.1999511719</ele>
        <time>2021-11-06T06:42:52.000Z</time>
      </trkpt>
      <trkpt lat="45.24341" lon="5.77953">
        <ele>1331</ele>
        <time>2021-11-06T06:42:53.000Z</time>
      </trkpt>
      <trkpt lat="45.24347" lon="5.77965">
        <ele>1330.4000244141</ele>
        <time>2021-11-06T06:42:58.000Z</time>
      </trkpt>
      <trkpt lat="45.24348" lon="5.77967">
        <ele>1330.4000244141</ele>
        <time>2021-11-06T06:42:59.000Z</time>
      </trkpt>
      <trkpt lat="45.24348" lon="5.77974">
        <ele>1331.1999511719</ele>
        <time>2021-11-06T06:43:02.000Z</time>
      </trkpt>
      <trkpt lat="45.24348" lon="5.77977">
        <ele>1331.1999511719</ele>
        <time>2021-11-06T06:43:03.000Z</time>
      </trkpt>
      <trkpt lat="45.24347" lon="5.77984">
        <ele>1332.1999511719</ele>
        <time>2021-11-06T06:43:07.000Z</time>
      </trkpt>
      <trkpt lat="45.24347" lon="5.77985">
        <ele>1332.4000244141</ele>
        <time>2021-11-06T06:43:08.000Z</time>
      </trkpt>
      <trkpt lat="45.24347" lon="5.77987">
        <ele>1332.8000488281</ele>
        <time>2021-11-06T06:43:09.000Z</time>
      </trkpt>
      <trkpt lat="45.24351" lon="5.77992">
        <ele>1333.1999511719</ele>
        <time>2021-11-06T06:43:13.000Z</time>
      </trkpt>
      <trkpt lat="45.24353" lon="5.77993">
        <ele>1332.8000488281</ele>
        <time>2021-11-06T06:43:16.000Z</time>
      </trkpt>
      <trkpt lat="45.24354" lon="5.77996">
        <ele>1332.5999755859</ele>
        <time>2021-11-06T06:43:18.000Z</time>
      </trkpt>
      <trkpt lat="45.24361" lon="5.78003">
        <ele>1331.5999755859</ele>
        <time>2021-11-06T06:43:25.000Z</time>
      </trkpt>
      <trkpt lat="45.24364" lon="5.78007">
        <ele>1331.1999511719</ele>
        <time>2021-11-06T06:43:27.000Z</time>
      </trkpt>
      <trkpt lat="45.24366" lon="5.78012">
        <ele>1331.1999511719</ele>
        <time>2021-11-06T06:43:30.000Z</time>
      </trkpt>
      <trkpt lat="45.24366" lon="5.78013">
        <ele>1331.1999511719</ele>
        <time>2021-11-06T06:43:31.000Z</time>
      </trkpt>
      <trkpt lat="45.2437" lon="5.78023">
        <ele>1331.4000244141</ele>
        <time>2021-11-06T06:43:35.000Z</time>
      </trkpt>
      <trkpt lat="45.24371" lon="5.78025">
        <ele>1331.4000244141</ele>
        <time>2021-11-06T06:43:36.000Z</time>
      </trkpt>
      <trkpt lat="45.24374" lon="5.78031">
        <ele>1331.4000244141</ele>
        <time>2021-11-06T06:43:39.000Z</time>
      </trkpt>
      <trkpt lat="45.24374" lon="5.78038">
        <ele>1331</ele>
        <time>2021-11-06T06:43:43.000Z</time>
      </trkpt>
      <trkpt lat="45.24379" lon="5.78044">
        <ele>1330.4000244141</ele>
        <time>2021-11-06T06:43:49.000Z</time>
      </trkpt>
      <trkpt lat="45.24379" lon="5.78044">
        <ele>1330.1999511719</ele>
        <time>2021-11-06T06:43:50.000Z</time>
      </trkpt>
      <trkpt lat="45.24383" lon="5.78045">
        <ele>1329.1999511719</ele>
        <time>2021-11-06T06:43:54.000Z</time>
      </trkpt>
      <trkpt lat="45.24384" lon="5.78045">
        <ele>1328.5999755859</ele>
        <time>2021-11-06T06:43:55.000Z</time>
      </trkpt>
      <trkpt lat="45.24385" lon="5.78046">
        <ele>1328.1999511719</ele>
        <time>2021-11-06T06:43:56.000Z</time>
      </trkpt>
      <trkpt lat="45.24386" lon="5.78049">
        <ele>1327.5999755859</ele>
        <time>2021-11-06T06:43:58.000Z</time>
      </trkpt>
      <trkpt lat="45.24387" lon="5.78052">
        <ele>1327</ele>
        <time>2021-11-06T06:44:01.000Z</time>
      </trkpt>
      <trkpt lat="45.24388" lon="5.78054">
        <ele>1326.8000488281</ele>
        <time>2021-11-06T06:44:03.000Z</time>
      </trkpt>
      <trkpt lat="45.24391" lon="5.78058">
        <ele>1326</ele>
        <time>2021-11-06T06:44:06.000Z</time>
      </trkpt>
      <trkpt lat="45.24392" lon="5.78059">
        <ele>1325.8000488281</ele>
        <time>2021-11-06T06:44:07.000Z</time>
      </trkpt>
      <trkpt lat="45.24395" lon="5.78061">
        <ele>1325.1999511719</ele>
        <time>2021-11-06T06:44:11.000Z</time>
      </trkpt>
      <trkpt lat="45.24397" lon="5.78061">
        <ele>1324.8000488281</ele>
        <time>2021-11-06T06:44:13.000Z</time>
      </trkpt>
      <trkpt lat="45.24399" lon="5.78062">
        <ele>1324.4000244141</ele>
        <time>2021-11-06T06:44:14.000Z</time>
      </trkpt>
      <trkpt lat="45.24405" lon="5.78072">
        <ele>1324</ele>
        <time>2021-11-06T06:44:20.000Z</time>
      </trkpt>
      <trkpt lat="45.24405" lon="5.78074">
        <ele>1324</ele>
        <time>2021-11-06T06:44:22.000Z</time>
      </trkpt>
      <trkpt lat="45.24409" lon="5.78074">
        <ele>1324</ele>
        <time>2021-11-06T06:44:27.000Z</time>
      </trkpt>
      <trkpt lat="45.24409" lon="5.78075">
        <ele>1323.8000488281</ele>
        <time>2021-11-06T06:44:28.000Z</time>
      </trkpt>
      <trkpt lat="45.24409" lon="5.78076">
        <ele>1323.5999755859</ele>
        <time>2021-11-06T06:44:29.000Z</time>
      </trkpt>
      <trkpt lat="45.2441" lon="5.78076">
        <ele>1323.1999511719</ele>
        <time>2021-11-06T06:44:33.000Z</time>
      </trkpt>
      <trkpt lat="45.24415" lon="5.78083">
        <ele>1322.5999755859</ele>
        <time>2021-11-06T06:44:40.000Z</time>
      </trkpt>
      <trkpt lat="45.24416" lon="5.78086">
        <ele>1322.5999755859</ele>
        <time>2021-11-06T06:44:42.000Z</time>
      </trkpt>
      <trkpt lat="45.24418" lon="5.78087">
        <ele>1322.5999755859</ele>
        <time>2021-11-06T06:44:45.000Z</time>
      </trkpt>
      <trkpt lat="45.24422" lon="5.78089">
        <ele>1322.1999511719</ele>
        <time>2021-11-06T06:44:48.000Z</time>
      </trkpt>
      <trkpt lat="45.24424" lon="5.7809">
        <ele>1321.4000244141</ele>
        <time>2021-11-06T06:44:51.000Z</time>
      </trkpt>
      <trkpt lat="45.24424" lon="5.78091">
        <ele>1321.1999511719</ele>
        <time>2021-11-06T06:44:54.000Z</time>
      </trkpt>
      <trkpt lat="45.24425" lon="5.78091">
        <ele>1321</ele>
        <time>2021-11-06T06:44:56.000Z</time>
      </trkpt>
      <trkpt lat="45.24425" lon="5.78092">
        <ele>1321</ele>
        <time>2021-11-06T06:44:58.000Z</time>
      </trkpt>
      <trkpt lat="45.24426" lon="5.78091">
        <ele>1321</ele>
        <time>2021-11-06T06:45:00.000Z</time>
      </trkpt>
      <trkpt lat="45.24429" lon="5.7809">
        <ele>1320.1999511719</ele>
        <time>2021-11-06T06:45:03.000Z</time>
      </trkpt>
      <trkpt lat="45.24428" lon="5.78085">
        <ele>1319.1999511719</ele>
        <time>2021-11-06T06:45:07.000Z</time>
      </trkpt>
      <trkpt lat="45.24429" lon="5.78084">
        <ele>1319</ele>
        <time>2021-11-06T06:45:08.000Z</time>
      </trkpt>
      <trkpt lat="45.2443" lon="5.78082">
        <ele>1318</ele>
        <time>2021-11-06T06:45:12.000Z</time>
      </trkpt>
      <trkpt lat="45.2443" lon="5.7808">
        <ele>1317</ele>
        <time>2021-11-06T06:45:14.000Z</time>
      </trkpt>
      <trkpt lat="45.24431" lon="5.78079">
        <ele>1316.8000488281</ele>
        <time>2021-11-06T06:45:15.000Z</time>
      </trkpt>
      <trkpt lat="45.24431" lon="5.78079">
        <ele>1316.5999755859</ele>
        <time>2021-11-06T06:45:16.000Z</time>
      </trkpt>
      <trkpt lat="45.24434" lon="5.78079">
        <ele>1316.1999511719</ele>
        <time>2021-11-06T06:45:22.000Z</time>
      </trkpt>
      <trkpt lat="45.24435" lon="5.7808">
        <ele>1315.5999755859</ele>
        <time>2021-11-06T06:45:23.000Z</time>
      </trkpt>
      <trkpt lat="45.24439" lon="5.78081">
        <ele>1315</ele>
        <time>2021-11-06T06:45:28.000Z</time>
      </trkpt>
      <trkpt lat="45.24443" lon="5.78085">
        <ele>1314.8000488281</ele>
        <time>2021-11-06T06:45:33.000Z</time>
      </trkpt>
      <trkpt lat="45.24446" lon="5.78092">
        <ele>1315.1999511719</ele>
        <time>2021-11-06T06:45:37.000Z</time>
      </trkpt>
      <trkpt lat="45.24448" lon="5.78094">
        <ele>1315.8000488281</ele>
        <time>2021-11-06T06:45:40.000Z</time>
      </trkpt>
      <trkpt lat="45.24451" lon="5.78101">
        <ele>1316.8000488281</ele>
        <time>2021-11-06T06:45:45.000Z</time>
      </trkpt>
      <trkpt lat="45.24452" lon="5.78103">
        <ele>1317.4000244141</ele>
        <time>2021-11-06T06:45:48.000Z</time>
      </trkpt>
      <trkpt lat="45.24453" lon="5.78105">
        <ele>1318</ele>
        <time>2021-11-06T06:45:50.000Z</time>
      </trkpt>
      <trkpt lat="45.24454" lon="5.78108">
        <ele>1318.4000244141</ele>
        <time>2021-11-06T06:45:52.000Z</time>
      </trkpt>
      <trkpt lat="45.24455" lon="5.7811">
        <ele>1318.5999755859</ele>
        <time>2021-11-06T06:45:54.000Z</time>
      </trkpt>
      <trkpt lat="45.24455" lon="5.7811">
        <ele>1319</ele>
        <time>2021-11-06T06:45:55.000Z</time>
      </trkpt>
      <trkpt lat="45.24455" lon="5.78112">
        <ele>1319.4000244141</ele>
        <time>2021-11-06T06:45:56.000Z</time>
      </trkpt>
      <trkpt lat="45.24454" lon="5.78115">
        <ele>1319.8000488281</ele>
        <time>2021-11-06T06:45:59.000Z</time>
      </trkpt>
      <trkpt lat="45.24454" lon="5.78116">
        <ele>1320.1999511719</ele>
        <time>2021-11-06T06:46:00.000Z</time>
      </trkpt>
      <trkpt lat="45.24455" lon="5.78119">
        <ele>1320.4000244141</ele>
        <time>2021-11-06T06:46:02.000Z</time>
      </trkpt>
      <trkpt lat="45.24456" lon="5.78124">
        <ele>1320.5999755859</ele>
        <time>2021-11-06T06:46:06.000Z</time>
      </trkpt>
      <trkpt lat="45.24456" lon="5.78125">
        <ele>1320.8000488281</ele>
        <time>2021-11-06T06:46:07.000Z</time>
      </trkpt>
      <trkpt lat="45.24458" lon="5.78127">
        <ele>1321.4000244141</ele>
        <time>2021-11-06T06:46:09.000Z</time>
      </trkpt>
      <trkpt lat="45.24461" lon="5.7813">
        <ele>1321.8000488281</ele>
        <time>2021-11-06T06:46:12.000Z</time>
      </trkpt>
      <trkpt lat="45.24464" lon="5.78131">
        <ele>1322.1999511719</ele>
        <time>2021-11-06T06:46:14.000Z</time>
      </trkpt>
      <trkpt lat="45.24468" lon="5.78134">
        <ele>1322.4000244141</ele>
        <time>2021-11-06T06:46:16.000Z</time>
      </trkpt>
      <trkpt lat="45.2447" lon="5.78136">
        <ele>1322.5999755859</ele>
        <time>2021-11-06T06:46:18.000Z</time>
      </trkpt>
      <trkpt lat="45.24474" lon="5.78136">
        <ele>1322.8000488281</ele>
        <time>2021-11-06T06:46:23.000Z</time>
      </trkpt>
      <trkpt lat="45.24475" lon="5.78141">
        <ele>1323</ele>
        <time>2021-11-06T06:46:26.000Z</time>
      </trkpt>
      <trkpt lat="45.24476" lon="5.78145">
        <ele>1323</ele>
        <time>2021-11-06T06:46:29.000Z</time>
      </trkpt>
      <trkpt lat="45.24477" lon="5.78147">
        <ele>1323</ele>
        <time>2021-11-06T06:46:31.000Z</time>
      </trkpt>
      <trkpt lat="45.24481" lon="5.78151">
        <ele>1323.1999511719</ele>
        <time>2021-11-06T06:46:36.000Z</time>
      </trkpt>
      <trkpt lat="45.24482" lon="5.78154">
        <ele>1323.1999511719</ele>
        <time>2021-11-06T06:46:38.000Z</time>
      </trkpt>
      <trkpt lat="45.24483" lon="5.78155">
        <ele>1323.1999511719</ele>
        <time>2021-11-06T06:46:39.000Z</time>
      </trkpt>
      <trkpt lat="45.24485" lon="5.78158">
        <ele>1323.4000244141</ele>
        <time>2021-11-06T06:46:41.000Z</time>
      </trkpt>
      <trkpt lat="45.24493" lon="5.78168">
        <ele>1323.8000488281</ele>
        <time>2021-11-06T06:46:48.000Z</time>
      </trkpt>
      <trkpt lat="45.24494" lon="5.7817">
        <ele>1324</ele>
        <time>2021-11-06T06:46:50.000Z</time>
      </trkpt>
      <trkpt lat="45.24496" lon="5.78173">
        <ele>1324.1999511719</ele>
        <time>2021-11-06T06:46:53.000Z</time>
      </trkpt>
      <trkpt lat="45.24497" lon="5.78176">
        <ele>1324.4000244141</ele>
        <time>2021-11-06T06:46:55.000Z</time>
      </trkpt>
      <trkpt lat="45.24497" lon="5.78176">
        <ele>1324.5999755859</ele>
        <time>2021-11-06T06:46:56.000Z</time>
      </trkpt>
      <trkpt lat="45.24496" lon="5.78177">
        <ele>1325.1999511719</ele>
        <time>2021-11-06T06:46:57.000Z</time>
      </trkpt>
      <trkpt lat="45.24496" lon="5.78178">
        <ele>1325.5999755859</ele>
        <time>2021-11-06T06:46:58.000Z</time>
      </trkpt>
      <trkpt lat="45.24499" lon="5.78184">
        <ele>1326</ele>
        <time>2021-11-06T06:47:02.000Z</time>
      </trkpt>
      <trkpt lat="45.245" lon="5.78186">
        <ele>1326</ele>
        <time>2021-11-06T06:47:03.000Z</time>
      </trkpt>
      <trkpt lat="45.24502" lon="5.78189">
        <ele>1326</ele>
        <time>2021-11-06T06:47:05.000Z</time>
      </trkpt>
      <trkpt lat="45.24508" lon="5.78194">
        <ele>1326</ele>
        <time>2021-11-06T06:47:09.000Z</time>
      </trkpt>
      <trkpt lat="45.24509" lon="5.78201">
        <ele>1326.4000244141</ele>
        <time>2021-11-06T06:47:14.000Z</time>
      </trkpt>
      <trkpt lat="45.24509" lon="5.78203">
        <ele>1326.8000488281</ele>
        <time>2021-11-06T06:47:15.000Z</time>
      </trkpt>
      <trkpt lat="45.2451" lon="5.7821">
        <ele>1328</ele>
        <time>2021-11-06T06:47:19.000Z</time>
      </trkpt>
      <trkpt lat="45.2451" lon="5.78212">
        <ele>1328.4000244141</ele>
        <time>2021-11-06T06:47:20.000Z</time>
      </trkpt>
      <trkpt lat="45.24512" lon="5.78217">
        <ele>1329.1999511719</ele>
        <time>2021-11-06T06:47:23.000Z</time>
      </trkpt>
      <trkpt lat="45.24515" lon="5.78224">
        <ele>1329.8000488281</ele>
        <time>2021-11-06T06:47:27.000Z</time>
      </trkpt>
      <trkpt lat="45.24517" lon="5.78226">
        <ele>1330.1999511719</ele>
        <time>2021-11-06T06:47:29.000Z</time>
      </trkpt>
      <trkpt lat="45.24518" lon="5.78227">
        <ele>1330.4000244141</ele>
        <time>2021-11-06T06:47:30.000Z</time>
      </trkpt>
      <trkpt lat="45.2452" lon="5.78229">
        <ele>1330.5999755859</ele>
        <time>2021-11-06T06:47:33.000Z</time>
      </trkpt>
      <trkpt lat="45.24523" lon="5.78236">
        <ele>1330.8000488281</ele>
        <time>2021-11-06T06:47:38.000Z</time>
      </trkpt>
      <trkpt lat="45.24523" lon="5.78239">
        <ele>1331.4000244141</ele>
        <time>2021-11-06T06:47:41.000Z</time>
      </trkpt>
      <trkpt lat="45.24525" lon="5.78243">
        <ele>1331.8000488281</ele>
        <time>2021-11-06T06:47:43.000Z</time>
      </trkpt>
      <trkpt lat="45.24525" lon="5.78248">
        <ele>1332.5999755859</ele>
        <time>2021-11-06T06:47:47.000Z</time>
      </trkpt>
      <trkpt lat="45.24526" lon="5.78253">
        <ele>1333.5999755859</ele>
        <time>2021-11-06T06:47:52.000Z</time>
      </trkpt>
      <trkpt lat="45.24526" lon="5.78255">
        <ele>1334.1999511719</ele>
        <time>2021-11-06T06:47:53.000Z</time>
      </trkpt>
      <trkpt lat="45.24527" lon="5.78257">
        <ele>1334.4000244141</ele>
        <time>2021-11-06T06:47:54.000Z</time>
      </trkpt>
      <trkpt lat="45.24528" lon="5.78258">
        <ele>1334.5999755859</ele>
        <time>2021-11-06T06:47:55.000Z</time>
      </trkpt>
      <trkpt lat="45.24529" lon="5.7826">
        <ele>1334.8000488281</ele>
        <time>2021-11-06T06:47:56.000Z</time>
      </trkpt>
      <trkpt lat="45.24529" lon="5.78261">
        <ele>1335</ele>
        <time>2021-11-06T06:47:57.000Z</time>
      </trkpt>
      <trkpt lat="45.2453" lon="5.78261">
        <ele>1335</ele>
        <time>2021-11-06T06:47:59.000Z</time>
      </trkpt>
      <trkpt lat="45.24533" lon="5.78262">
        <ele>1335</ele>
        <time>2021-11-06T06:48:02.000Z</time>
      </trkpt>
      <trkpt lat="45.24537" lon="5.78266">
        <ele>1334.5999755859</ele>
        <time>2021-11-06T06:48:06.000Z</time>
      </trkpt>
      <trkpt lat="45.2454" lon="5.78269">
        <ele>1334.4000244141</ele>
        <time>2021-11-06T06:48:08.000Z</time>
      </trkpt>
      <trkpt lat="45.24548" lon="5.78275">
        <ele>1334.1999511719</ele>
        <time>2021-11-06T06:48:13.000Z</time>
      </trkpt>
      <trkpt lat="45.2455" lon="5.78277">
        <ele>1334.1999511719</ele>
        <time>2021-11-06T06:48:14.000Z</time>
      </trkpt>
      <trkpt lat="45.24557" lon="5.78285">
        <ele>1334.4000244141</ele>
        <time>2021-11-06T06:48:20.000Z</time>
      </trkpt>
      <trkpt lat="45.24563" lon="5.78294">
        <ele>1335.1999511719</ele>
        <time>2021-11-06T06:48:27.000Z</time>
      </trkpt>
      <trkpt lat="45.24563" lon="5.78295">
        <ele>1335.1999511719</ele>
        <time>2021-11-06T06:48:28.000Z</time>
      </trkpt>
      <trkpt lat="45.24565" lon="5.78304">
        <ele>1336.4000244141</ele>
        <time>2021-11-06T06:48:34.000Z</time>
      </trkpt>
      <trkpt lat="45.2457" lon="5.7831">
        <ele>1337.1999511719</ele>
        <time>2021-11-06T06:48:39.000Z</time>
      </trkpt>
      <trkpt lat="45.24571" lon="5.78312">
        <ele>1337.4000244141</ele>
        <time>2021-11-06T06:48:40.000Z</time>
      </trkpt>
      <trkpt lat="45.24572" lon="5.78313">
        <ele>1337.4000244141</ele>
        <time>2021-11-06T06:48:41.000Z</time>
      </trkpt>
      <trkpt lat="45.24574" lon="5.78318">
        <ele>1338.5999755859</ele>
        <time>2021-11-06T06:48:45.000Z</time>
      </trkpt>
      <trkpt lat="45.24575" lon="5.7832">
        <ele>1338.8000488281</ele>
        <time>2021-11-06T06:48:47.000Z</time>
      </trkpt>
      <trkpt lat="45.24575" lon="5.7832">
        <ele>1339</ele>
        <time>2021-11-06T06:48:48.000Z</time>
      </trkpt>
      <trkpt lat="45.24576" lon="5.78322">
        <ele>1339.5999755859</ele>
        <time>2021-11-06T06:48:50.000Z</time>
      </trkpt>
      <trkpt lat="45.24577" lon="5.78324">
        <ele>1339.8000488281</ele>
        <time>2021-11-06T06:48:51.000Z</time>
      </trkpt>
      <trkpt lat="45.24578" lon="5.78327">
        <ele>1340</ele>
        <time>2021-11-06T06:48:53.000Z</time>
      </trkpt>
      <trkpt lat="45.24581" lon="5.78332">
        <ele>1340.8000488281</ele>
        <time>2021-11-06T06:48:57.000Z</time>
      </trkpt>
      <trkpt lat="45.24584" lon="5.78337">
        <ele>1341.5999755859</ele>
        <time>2021-11-06T06:49:01.000Z</time>
      </trkpt>
      <trkpt lat="45.24586" lon="5.7834">
        <ele>1342</ele>
        <time>2021-11-06T06:49:03.000Z</time>
      </trkpt>
      <trkpt lat="45.24587" lon="5.78341">
        <ele>1342.1999511719</ele>
        <time>2021-11-06T06:49:04.000Z</time>
      </trkpt>
      <trkpt lat="45.24591" lon="5.78346">
        <ele>1342.8000488281</ele>
        <time>2021-11-06T06:49:08.000Z</time>
      </trkpt>
      <trkpt lat="45.24592" lon="5.78347">
        <ele>1342.8000488281</ele>
        <time>2021-11-06T06:49:09.000Z</time>
      </trkpt>
      <trkpt lat="45.24594" lon="5.78352">
        <ele>1343.1999511719</ele>
        <time>2021-11-06T06:49:13.000Z</time>
      </trkpt>
      <trkpt lat="45.24596" lon="5.78354">
        <ele>1343.4000244141</ele>
        <time>2021-11-06T06:49:15.000Z</time>
      </trkpt>
      <trkpt lat="45.24606" lon="5.78363">
        <ele>1343</ele>
        <time>2021-11-06T06:49:23.000Z</time>
      </trkpt>
      <trkpt lat="45.24617" lon="5.78372">
        <ele>1343.5999755859</ele>
        <time>2021-11-06T06:49:31.000Z</time>
      </trkpt>
      <trkpt lat="45.24623" lon="5.78372">
        <ele>1343.8000488281</ele>
        <time>2021-11-06T06:49:36.000Z</time>
      </trkpt>
      <trkpt lat="45.24624" lon="5.78373">
        <ele>1343.5999755859</ele>
        <time>2021-11-06T06:49:37.000Z</time>
      </trkpt>
      <trkpt lat="45.24631" lon="5.78383">
        <ele>1343.5999755859</ele>
        <time>2021-11-06T06:49:45.000Z</time>
      </trkpt>
      <trkpt lat="45.24632" lon="5.78384">
        <ele>1343.8000488281</ele>
        <time>2021-11-06T06:49:46.000Z</time>
      </trkpt>
      <trkpt lat="45.24634" lon="5.78388">
        <ele>1344</ele>
        <time>2021-11-06T06:49:51.000Z</time>
      </trkpt>
      <trkpt lat="45.24642" lon="5.78394">
        <ele>1343.4000244141</ele>
        <time>2021-11-06T06:49:58.000Z</time>
      </trkpt>
      <trkpt lat="45.24643" lon="5.78395">
        <ele>1343.1999511719</ele>
        <time>2021-11-06T06:49:59.000Z</time>
      </trkpt>
      <trkpt lat="45.24646" lon="5.78399">
        <ele>1343.1999511719</ele>
        <time>2021-11-06T06:50:03.000Z</time>
      </trkpt>
      <trkpt lat="45.24647" lon="5.78399">
        <ele>1343.1999511719</ele>
        <time>2021-11-06T06:50:04.000Z</time>
      </trkpt>
      <trkpt lat="45.24652" lon="5.78399">
        <ele>1342.5999755859</ele>
        <time>2021-11-06T06:50:11.000Z</time>
      </trkpt>
      <trkpt lat="45.24653" lon="5.78399">
        <ele>1342.1999511719</ele>
        <time>2021-11-06T06:50:13.000Z</time>
      </trkpt>
      <trkpt lat="45.24654" lon="5.78399">
        <ele>1342</ele>
        <time>2021-11-06T06:50:14.000Z</time>
      </trkpt>
      <trkpt lat="45.24658" lon="5.78399">
        <ele>1341.1999511719</ele>
        <time>2021-11-06T06:50:18.000Z</time>
      </trkpt>
      <trkpt lat="45.24659" lon="5.784">
        <ele>1340.8000488281</ele>
        <time>2021-11-06T06:50:20.000Z</time>
      </trkpt>
      <trkpt lat="45.2466" lon="5.784">
        <ele>1340.5999755859</ele>
        <time>2021-11-06T06:50:21.000Z</time>
      </trkpt>
      <trkpt lat="45.24662" lon="5.78401">
        <ele>1340.1999511719</ele>
        <time>2021-11-06T06:50:24.000Z</time>
      </trkpt>
      <trkpt lat="45.24664" lon="5.78401">
        <ele>1339.5999755859</ele>
        <time>2021-11-06T06:50:26.000Z</time>
      </trkpt>
      <trkpt lat="45.24665" lon="5.78401">
        <ele>1339.4000244141</ele>
        <time>2021-11-06T06:50:27.000Z</time>
      </trkpt>
      <trkpt lat="45.24667" lon="5.78402">
        <ele>1338.8000488281</ele>
        <time>2021-11-06T06:50:30.000Z</time>
      </trkpt>
      <trkpt lat="45.24668" lon="5.78402">
        <ele>1338.5999755859</ele>
        <time>2021-11-06T06:50:32.000Z</time>
      </trkpt>
      <trkpt lat="45.24669" lon="5.78402">
        <ele>1338.4000244141</ele>
        <time>2021-11-06T06:50:33.000Z</time>
      </trkpt>
      <trkpt lat="45.24669" lon="5.78402">
        <ele>1338</ele>
        <time>2021-11-06T06:50:34.000Z</time>
      </trkpt>
      <trkpt lat="45.2467" lon="5.78401">
        <ele>1337.4000244141</ele>
        <time>2021-11-06T06:50:37.000Z</time>
      </trkpt>
      <trkpt lat="45.2467" lon="5.784">
        <ele>1336.8000488281</ele>
        <time>2021-11-06T06:50:40.000Z</time>
      </trkpt>
      <trkpt lat="45.24671" lon="5.78399">
        <ele>1336.4000244141</ele>
        <time>2021-11-06T06:50:42.000Z</time>
      </trkpt>
      <trkpt lat="45.24672" lon="5.78398">
        <ele>1336.1999511719</ele>
        <time>2021-11-06T06:50:43.000Z</time>
      </trkpt>
      <trkpt lat="45.24672" lon="5.78398">
        <ele>1335.8000488281</ele>
        <time>2021-11-06T06:50:44.000Z</time>
      </trkpt>
      <trkpt lat="45.24674" lon="5.78398">
        <ele>1335</ele>
        <time>2021-11-06T06:50:46.000Z</time>
      </trkpt>
      <trkpt lat="45.24675" lon="5.78398">
        <ele>1334.8000488281</ele>
        <time>2021-11-06T06:50:47.000Z</time>
      </trkpt>
      <trkpt lat="45.24676" lon="5.78398">
        <ele>1334.5999755859</ele>
        <time>2021-11-06T06:50:48.000Z</time>
      </trkpt>
      <trkpt lat="45.24679" lon="5.784">
        <ele>1333.8000488281</ele>
        <time>2021-11-06T06:50:51.000Z</time>
      </trkpt>
      <trkpt lat="45.24682" lon="5.78401">
        <ele>1333.1999511719</ele>
        <time>2021-11-06T06:50:53.000Z</time>
      </trkpt>
      <trkpt lat="45.24685" lon="5.78402">
        <ele>1332.8000488281</ele>
        <time>2021-11-06T06:50:55.000Z</time>
      </trkpt>
      <trkpt lat="45.24686" lon="5.78403">
        <ele>1332.5999755859</ele>
        <time>2021-11-06T06:50:56.000Z</time>
      </trkpt>
      <trkpt lat="45.24687" lon="5.78405">
        <ele>1332.4000244141</ele>
        <time>2021-11-06T06:50:57.000Z</time>
      </trkpt>
      <trkpt lat="45.24688" lon="5.78406">
        <ele>1332</ele>
        <time>2021-11-06T06:50:59.000Z</time>
      </trkpt>
      <trkpt lat="45.24689" lon="5.78406">
        <ele>1332</ele>
        <time>2021-11-06T06:51:00.000Z</time>
      </trkpt>
      <trkpt lat="45.2469" lon="5.78405">
        <ele>1332</ele>
        <time>2021-11-06T06:51:01.000Z</time>
      </trkpt>
      <trkpt lat="45.24691" lon="5.78405">
        <ele>1331.5999755859</ele>
        <time>2021-11-06T06:51:02.000Z</time>
      </trkpt>
      <trkpt lat="45.24692" lon="5.78405">
        <ele>1331.5999755859</ele>
        <time>2021-11-06T06:51:03.000Z</time>
      </trkpt>
      <trkpt lat="45.24697" lon="5.78405">
        <ele>1330.8000488281</ele>
        <time>2021-11-06T06:51:06.000Z</time>
      </trkpt>
      <trkpt lat="45.24699" lon="5.78405">
        <ele>1330.5999755859</ele>
        <time>2021-11-06T06:51:07.000Z</time>
      </trkpt>
      <trkpt lat="45.24704" lon="5.78404">
        <ele>1329.1999511719</ele>
        <time>2021-11-06T06:51:11.000Z</time>
      </trkpt>
      <trkpt lat="45.24705" lon="5.78405">
        <ele>1328.8000488281</ele>
        <time>2021-11-06T06:51:12.000Z</time>
      </trkpt>
      <trkpt lat="45.24708" lon="5.78405">
        <ele>1327.8000488281</ele>
        <time>2021-11-06T06:51:15.000Z</time>
      </trkpt>
      <trkpt lat="45.24709" lon="5.78405">
        <ele>1327.4000244141</ele>
        <time>2021-11-06T06:51:17.000Z</time>
      </trkpt>
      <trkpt lat="45.24709" lon="5.78405">
        <ele>1327</ele>
        <time>2021-11-06T06:51:18.000Z</time>
      </trkpt>
      <trkpt lat="45.24708" lon="5.78404">
        <ele>1326.5999755859</ele>
        <time>2021-11-06T06:51:19.000Z</time>
      </trkpt>
      <trkpt lat="45.24709" lon="5.78401">
        <ele>1325.8000488281</ele>
        <time>2021-11-06T06:51:21.000Z</time>
      </trkpt>
      <trkpt lat="45.2471" lon="5.78402">
        <ele>1325.4000244141</ele>
        <time>2021-11-06T06:51:23.000Z</time>
      </trkpt>
      <trkpt lat="45.24712" lon="5.78403">
        <ele>1325.1999511719</ele>
        <time>2021-11-06T06:51:24.000Z</time>
      </trkpt>
      <trkpt lat="45.24716" lon="5.78401">
        <ele>1324.1999511719</ele>
        <time>2021-11-06T06:51:27.000Z</time>
      </trkpt>
      <trkpt lat="45.24722" lon="5.78403">
        <ele>1323.1999511719</ele>
        <time>2021-11-06T06:51:31.000Z</time>
      </trkpt>
      <trkpt lat="45.24726" lon="5.78402">
        <ele>1322.1999511719</ele>
        <time>2021-11-06T06:51:34.000Z</time>
      </trkpt>
      <trkpt lat="45.24728" lon="5.78403">
        <ele>1322</ele>
        <time>2021-11-06T06:51:35.000Z</time>
      </trkpt>
      <trkpt lat="45.24729" lon="5.78403">
        <ele>1322</ele>
        <time>2021-11-06T06:51:36.000Z</time>
      </trkpt>
      <trkpt lat="45.2473" lon="5.78402">
        <ele>1321.4000244141</ele>
        <time>2021-11-06T06:51:38.000Z</time>
      </trkpt>
      <trkpt lat="45.2473" lon="5.78401">
        <ele>1321</ele>
        <time>2021-11-06T06:51:39.000Z</time>
      </trkpt>
      <trkpt lat="45.24733" lon="5.784">
        <ele>1320.4000244141</ele>
        <time>2021-11-06T06:51:41.000Z</time>
      </trkpt>
      <trkpt lat="45.24735" lon="5.784">
        <ele>1319.8000488281</ele>
        <time>2021-11-06T06:51:43.000Z</time>
      </trkpt>
      <trkpt lat="45.24735" lon="5.784">
        <ele>1319.4000244141</ele>
        <time>2021-11-06T06:51:44.000Z</time>
      </trkpt>
      <trkpt lat="45.24736" lon="5.78399">
        <ele>1319</ele>
        <time>2021-11-06T06:51:46.000Z</time>
      </trkpt>
      <trkpt lat="45.24736" lon="5.78399">
        <ele>1318.5999755859</ele>
        <time>2021-11-06T06:51:47.000Z</time>
      </trkpt>
      <trkpt lat="45.24738" lon="5.78399">
        <ele>1318</ele>
        <time>2021-11-06T06:51:49.000Z</time>
      </trkpt>
      <trkpt lat="45.2474" lon="5.78398">
        <ele>1317.4000244141</ele>
        <time>2021-11-06T06:51:51.000Z</time>
      </trkpt>
      <trkpt lat="45.2474" lon="5.78398">
        <ele>1317.1999511719</ele>
        <time>2021-11-06T06:51:52.000Z</time>
      </trkpt>
      <trkpt lat="45.2474" lon="5.78399">
        <ele>1317</ele>
        <time>2021-11-06T06:51:53.000Z</time>
      </trkpt>
      <trkpt lat="45.2474" lon="5.784">
        <ele>1316.5999755859</ele>
        <time>2021-11-06T06:51:54.000Z</time>
      </trkpt>
      <trkpt lat="45.2474" lon="5.78401">
        <ele>1316.4000244141</ele>
        <time>2021-11-06T06:51:56.000Z</time>
      </trkpt>
      <trkpt lat="45.2474" lon="5.78399">
        <ele>1316.1999511719</ele>
        <time>2021-11-06T06:51:58.000Z</time>
      </trkpt>
      <trkpt lat="45.24741" lon="5.78399">
        <ele>1316.1999511719</ele>
        <time>2021-11-06T06:51:59.000Z</time>
      </trkpt>
      <trkpt lat="45.24742" lon="5.78397">
        <ele>1315.8000488281</ele>
        <time>2021-11-06T06:52:00.000Z</time>
      </trkpt>
      <trkpt lat="45.24744" lon="5.78397">
        <ele>1315.5999755859</ele>
        <time>2021-11-06T06:52:01.000Z</time>
      </trkpt>
      <trkpt lat="45.24745" lon="5.78398">
        <ele>1315.1999511719</ele>
        <time>2021-11-06T06:52:02.000Z</time>
      </trkpt>
      <trkpt lat="45.24747" lon="5.78399">
        <ele>1315</ele>
        <time>2021-11-06T06:52:03.000Z</time>
      </trkpt>
      <trkpt lat="45.24748" lon="5.784">
        <ele>1315</ele>
        <time>2021-11-06T06:52:04.000Z</time>
      </trkpt>
      <trkpt lat="45.24754" lon="5.78402">
        <ele>1314.4000244141</ele>
        <time>2021-11-06T06:52:07.000Z</time>
      </trkpt>
      <trkpt lat="45.24756" lon="5.78403">
        <ele>1314.1999511719</ele>
        <time>2021-11-06T06:52:08.000Z</time>
      </trkpt>
      <trkpt lat="45.24768" lon="5.78415">
        <ele>1313.5999755859</ele>
        <time>2021-11-06T06:52:15.000Z</time>
      </trkpt>
      <trkpt lat="45.2477" lon="5.78418">
        <ele>1313.8000488281</ele>
        <time>2021-11-06T06:52:17.000Z</time>
      </trkpt>
      <trkpt lat="45.24773" lon="5.78418">
        <ele>1313.5999755859</ele>
        <time>2021-11-06T06:52:19.000Z</time>
      </trkpt>
      <trkpt lat="45.24775" lon="5.7842">
        <ele>1313.4000244141</ele>
        <time>2021-11-06T06:52:21.000Z</time>
      </trkpt>
      <trkpt lat="45.24778" lon="5.78423">
        <ele>1313.1999511719</ele>
        <time>2021-11-06T06:52:24.000Z</time>
      </trkpt>
      <trkpt lat="45.24778" lon="5.78424">
        <ele>1313.4000244141</ele>
        <time>2021-11-06T06:52:26.000Z</time>
      </trkpt>
      <trkpt lat="45.24778" lon="5.78425">
        <ele>1313.5999755859</ele>
        <time>2021-11-06T06:52:27.000Z</time>
      </trkpt>
      <trkpt lat="45.24779" lon="5.78427">
        <ele>1314.1999511719</ele>
        <time>2021-11-06T06:52:29.000Z</time>
      </trkpt>
      <trkpt lat="45.24778" lon="5.78432">
        <ele>1314.8000488281</ele>
        <time>2021-11-06T06:52:33.000Z</time>
      </trkpt>
      <trkpt lat="45.24778" lon="5.78436">
        <ele>1315.4000244141</ele>
        <time>2021-11-06T06:52:35.000Z</time>
      </trkpt>
      <trkpt lat="45.24779" lon="5.78438">
        <ele>1316.4000244141</ele>
        <time>2021-11-06T06:52:38.000Z</time>
      </trkpt>
      <trkpt lat="45.2478" lon="5.78441">
        <ele>1316.5999755859</ele>
        <time>2021-11-06T06:52:40.000Z</time>
      </trkpt>
      <trkpt lat="45.24782" lon="5.78444">
        <ele>1316.8000488281</ele>
        <time>2021-11-06T06:52:43.000Z</time>
      </trkpt>
      <trkpt lat="45.24786" lon="5.78448">
        <ele>1316.4000244141</ele>
        <time>2021-11-06T06:52:48.000Z</time>
      </trkpt>
      <trkpt lat="45.24786" lon="5.78449">
        <ele>1316.1999511719</ele>
        <time>2021-11-06T06:52:49.000Z</time>
      </trkpt>
      <trkpt lat="45.24788" lon="5.78454">
        <ele>1316</ele>
        <time>2021-11-06T06:52:52.000Z</time>
      </trkpt>
      <trkpt lat="45.24789" lon="5.78457">
        <ele>1316.1999511719</ele>
        <time>2021-11-06T06:52:54.000Z</time>
      </trkpt>
      <trkpt lat="45.24791" lon="5.78464">
        <ele>1316.1999511719</ele>
        <time>2021-11-06T06:52:59.000Z</time>
      </trkpt>
      <trkpt lat="45.24791" lon="5.78465">
        <ele>1316</ele>
        <time>2021-11-06T06:53:00.000Z</time>
      </trkpt>
      <trkpt lat="45.24794" lon="5.78472">
        <ele>1315.8000488281</ele>
        <time>2021-11-06T06:53:05.000Z</time>
      </trkpt>
      <trkpt lat="45.24794" lon="5.78475">
        <ele>1315.8000488281</ele>
        <time>2021-11-06T06:53:09.000Z</time>
      </trkpt>
      <trkpt lat="45.24794" lon="5.78476">
        <ele>1315.5999755859</ele>
        <time>2021-11-06T06:53:11.000Z</time>
      </trkpt>
      <trkpt lat="45.24794" lon="5.78477">
        <ele>1315.5999755859</ele>
        <time>2021-11-06T06:53:12.000Z</time>
      </trkpt>
      <trkpt lat="45.24795" lon="5.78478">
        <ele>1315.5999755859</ele>
        <time>2021-11-06T06:53:18.000Z</time>
      </trkpt>
      <trkpt lat="45.24794" lon="5.78481">
        <ele>1315.5999755859</ele>
        <time>2021-11-06T06:53:26.000Z</time>
      </trkpt>
      <trkpt lat="45.24793" lon="5.78482">
        <ele>1315.8000488281</ele>
        <time>2021-11-06T06:53:37.000Z</time>
      </trkpt>
      <trkpt lat="45.24793" lon="5.78482">
        <ele>1316</ele>
        <time>2021-11-06T06:53:40.000Z</time>
      </trkpt>
      <trkpt lat="45.24793" lon="5.78482">
        <ele>1316.1999511719</ele>
        <time>2021-11-06T06:53:44.000Z</time>
      </trkpt>
      <trkpt lat="45.24792" lon="5.78482">
        <ele>1316.1999511719</ele>
        <time>2021-11-06T06:53:51.000Z</time>
      </trkpt>
      <trkpt lat="45.24792" lon="5.78482">
        <ele>1316</ele>
        <time>2021-11-06T06:53:59.000Z</time>
      </trkpt>
      <trkpt lat="45.24792" lon="5.78483">
        <ele>1316.5999755859</ele>
        <time>2021-11-06T06:54:19.000Z</time>
      </trkpt>
      <trkpt lat="45.24792" lon="5.78484">
        <ele>1316.1999511719</ele>
        <time>2021-11-06T06:54:26.000Z</time>
      </trkpt>
      <trkpt lat="45.24792" lon="5.78486">
        <ele>1316.1999511719</ele>
        <time>2021-11-06T06:54:31.000Z</time>
      </trkpt>
      <trkpt lat="45.24792" lon="5.78486">
        <ele>1316.1999511719</ele>
        <time>2021-11-06T06:54:34.000Z</time>
      </trkpt>
      <trkpt lat="45.24792" lon="5.78486">
        <ele>1316.1999511719</ele>
        <time>2021-11-06T06:54:37.000Z</time>
      </trkpt>
      <trkpt lat="45.24792" lon="5.78485">
        <ele>1316.1999511719</ele>
        <time>2021-11-06T06:54:48.000Z</time>
      </trkpt>
      <trkpt lat="45.24794" lon="5.78485">
        <ele>1315.4000244141</ele>
        <time>2021-11-06T06:55:16.000Z</time>
      </trkpt>
      <trkpt lat="45.24794" lon="5.78484">
        <ele>1315.4000244141</ele>
        <time>2021-11-06T06:55:22.000Z</time>
      </trkpt>
      <trkpt lat="45.24795" lon="5.78488">
        <ele>1316</ele>
        <time>2021-11-06T06:55:26.000Z</time>
      </trkpt>
      <trkpt lat="45.24796" lon="5.78498">
        <ele>1317</ele>
        <time>2021-11-06T06:55:31.000Z</time>
      </trkpt>
      <trkpt lat="45.24796" lon="5.78501">
        <ele>1317.5999755859</ele>
        <time>2021-11-06T06:55:33.000Z</time>
      </trkpt>
      <trkpt lat="45.24795" lon="5.78504">
        <ele>1318.1999511719</ele>
        <time>2021-11-06T06:55:35.000Z</time>
      </trkpt>
      <trkpt lat="45.24796" lon="5.78508">
        <ele>1318.4000244141</ele>
        <time>2021-11-06T06:55:37.000Z</time>
      </trkpt>
      <trkpt lat="45.24797" lon="5.7851">
        <ele>1318.5999755859</ele>
        <time>2021-11-06T06:55:38.000Z</time>
      </trkpt>
      <trkpt lat="45.24799" lon="5.78515">
        <ele>1319.5999755859</ele>
        <time>2021-11-06T06:55:41.000Z</time>
      </trkpt>
      <trkpt lat="45.248" lon="5.78516">
        <ele>1319.8000488281</ele>
        <time>2021-11-06T06:55:42.000Z</time>
      </trkpt>
      <trkpt lat="45.24801" lon="5.78516">
        <ele>1320</ele>
        <time>2021-11-06T06:55:43.000Z</time>
      </trkpt>
      <trkpt lat="45.24803" lon="5.78518">
        <ele>1320.8000488281</ele>
        <time>2021-11-06T06:55:46.000Z</time>
      </trkpt>
      <trkpt lat="45.24803" lon="5.7852">
        <ele>1320.8000488281</ele>
        <time>2021-11-06T06:55:47.000Z</time>
      </trkpt>
      <trkpt lat="45.24804" lon="5.78521">
        <ele>1321</ele>
        <time>2021-11-06T06:55:48.000Z</time>
      </trkpt>
      <trkpt lat="45.24806" lon="5.78525">
        <ele>1321.4000244141</ele>
        <time>2021-11-06T06:55:51.000Z</time>
      </trkpt>
      <trkpt lat="45.24809" lon="5.7853">
        <ele>1321.8000488281</ele>
        <time>2021-11-06T06:55:54.000Z</time>
      </trkpt>
      <trkpt lat="45.24809" lon="5.78531">
        <ele>1322</ele>
        <time>2021-11-06T06:55:55.000Z</time>
      </trkpt>
      <trkpt lat="45.24811" lon="5.78535">
        <ele>1322.5999755859</ele>
        <time>2021-11-06T06:55:58.000Z</time>
      </trkpt>
      <trkpt lat="45.24811" lon="5.78536">
        <ele>1322.8000488281</ele>
        <time>2021-11-06T06:55:59.000Z</time>
      </trkpt>
      <trkpt lat="45.24811" lon="5.78537">
        <ele>1323</ele>
        <time>2021-11-06T06:56:00.000Z</time>
      </trkpt>
      <trkpt lat="45.24814" lon="5.78542">
        <ele>1323.5999755859</ele>
        <time>2021-11-06T06:56:03.000Z</time>
      </trkpt>
      <trkpt lat="45.24815" lon="5.78545">
        <ele>1324</ele>
        <time>2021-11-06T06:56:05.000Z</time>
      </trkpt>
      <trkpt lat="45.24815" lon="5.78546">
        <ele>1324.1999511719</ele>
        <time>2021-11-06T06:56:06.000Z</time>
      </trkpt>
      <trkpt lat="45.24819" lon="5.78553">
        <ele>1325.4000244141</ele>
        <time>2021-11-06T06:56:11.000Z</time>
      </trkpt>
      <trkpt lat="45.24823" lon="5.78558">
        <ele>1325.8000488281</ele>
        <time>2021-11-06T06:56:14.000Z</time>
      </trkpt>
      <trkpt lat="45.24825" lon="5.7856">
        <ele>1326.4000244141</ele>
        <time>2021-11-06T06:56:17.000Z</time>
      </trkpt>
      <trkpt lat="45.24825" lon="5.78561">
        <ele>1326.8000488281</ele>
        <time>2021-11-06T06:56:18.000Z</time>
      </trkpt>
      <trkpt lat="45.24825" lon="5.78564">
        <ele>1327</ele>
        <time>2021-11-06T06:56:20.000Z</time>
      </trkpt>
      <trkpt lat="45.24826" lon="5.78567">
        <ele>1327.8000488281</ele>
        <time>2021-11-06T06:56:22.000Z</time>
      </trkpt>
      <trkpt lat="45.24827" lon="5.78569">
        <ele>1328</ele>
        <time>2021-11-06T06:56:23.000Z</time>
      </trkpt>
      <trkpt lat="45.2483" lon="5.7857">
        <ele>1328.5999755859</ele>
        <time>2021-11-06T06:56:26.000Z</time>
      </trkpt>
      <trkpt lat="45.2483" lon="5.78571">
        <ele>1328.8000488281</ele>
        <time>2021-11-06T06:56:27.000Z</time>
      </trkpt>
      <trkpt lat="45.24832" lon="5.78574">
        <ele>1329.8000488281</ele>
        <time>2021-11-06T06:56:30.000Z</time>
      </trkpt>
      <trkpt lat="45.24833" lon="5.78575">
        <ele>1330</ele>
        <time>2021-11-06T06:56:31.000Z</time>
      </trkpt>
      <trkpt lat="45.24833" lon="5.78576">
        <ele>1330</ele>
        <time>2021-11-06T06:56:32.000Z</time>
      </trkpt>
      <trkpt lat="45.24834" lon="5.78578">
        <ele>1330.4000244141</ele>
        <time>2021-11-06T06:56:33.000Z</time>
      </trkpt>
      <trkpt lat="45.24835" lon="5.78582">
        <ele>1331.1999511719</ele>
        <time>2021-11-06T06:56:35.000Z</time>
      </trkpt>
      <trkpt lat="45.24838" lon="5.78588">
        <ele>1332.5999755859</ele>
        <time>2021-11-06T06:56:39.000Z</time>
      </trkpt>
      <trkpt lat="45.24839" lon="5.78591">
        <ele>1333.1999511719</ele>
        <time>2021-11-06T06:56:42.000Z</time>
      </trkpt>
      <trkpt lat="45.24841" lon="5.78595">
        <ele>1333.8000488281</ele>
        <time>2021-11-06T06:56:44.000Z</time>
      </trkpt>
      <trkpt lat="45.24843" lon="5.78602">
        <ele>1334.8000488281</ele>
        <time>2021-11-06T06:56:49.000Z</time>
      </trkpt>
      <trkpt lat="45.24844" lon="5.78604">
        <ele>1335.1999511719</ele>
        <time>2021-11-06T06:56:50.000Z</time>
      </trkpt>
      <trkpt lat="45.24845" lon="5.78608">
        <ele>1335.8000488281</ele>
        <time>2021-11-06T06:56:53.000Z</time>
      </trkpt>
      <trkpt lat="45.24845" lon="5.78609">
        <ele>1336.1999511719</ele>
        <time>2021-11-06T06:56:54.000Z</time>
      </trkpt>
      <trkpt lat="45.24846" lon="5.78613">
        <ele>1337.4000244141</ele>
        <time>2021-11-06T06:56:58.000Z</time>
      </trkpt>
      <trkpt lat="45.24849" lon="5.78617">
        <ele>1338.4000244141</ele>
        <time>2021-11-06T06:57:05.000Z</time>
      </trkpt>
      <trkpt lat="45.24849" lon="5.78618">
        <ele>1338.4000244141</ele>
        <time>2021-11-06T06:57:06.000Z</time>
      </trkpt>
      <trkpt lat="45.2485" lon="5.7862">
        <ele>1338.5999755859</ele>
        <time>2021-11-06T06:57:07.000Z</time>
      </trkpt>
      <trkpt lat="45.24854" lon="5.7863">
        <ele>1339.5999755859</ele>
        <time>2021-11-06T06:57:13.000Z</time>
      </trkpt>
      <trkpt lat="45.24855" lon="5.78631">
        <ele>1339.8000488281</ele>
        <time>2021-11-06T06:57:14.000Z</time>
      </trkpt>
      <trkpt lat="45.24859" lon="5.78635">
        <ele>1341</ele>
        <time>2021-11-06T06:57:18.000Z</time>
      </trkpt>
      <trkpt lat="45.2486" lon="5.78636">
        <ele>1341.4000244141</ele>
        <time>2021-11-06T06:57:19.000Z</time>
      </trkpt>
      <trkpt lat="45.2486" lon="5.78637">
        <ele>1341.5999755859</ele>
        <time>2021-11-06T06:57:20.000Z</time>
      </trkpt>
      <trkpt lat="45.2486" lon="5.7864">
        <ele>1342.1999511719</ele>
        <time>2021-11-06T06:57:24.000Z</time>
      </trkpt>
      <trkpt lat="45.24862" lon="5.78641">
        <ele>1342.8000488281</ele>
        <time>2021-11-06T06:57:26.000Z</time>
      </trkpt>
      <trkpt lat="45.24867" lon="5.78647">
        <ele>1343</ele>
        <time>2021-11-06T06:57:33.000Z</time>
      </trkpt>
      <trkpt lat="45.24869" lon="5.78647">
        <ele>1342.8000488281</ele>
        <time>2021-11-06T06:57:35.000Z</time>
      </trkpt>
      <trkpt lat="45.24871" lon="5.78649">
        <ele>1342.5999755859</ele>
        <time>2021-11-06T06:57:39.000Z</time>
      </trkpt>
      <trkpt lat="45.24873" lon="5.78651">
        <ele>1342.5999755859</ele>
        <time>2021-11-06T06:57:42.000Z</time>
      </trkpt>
      <trkpt lat="45.24875" lon="5.78655">
        <ele>1342.8000488281</ele>
        <time>2021-11-06T06:57:44.000Z</time>
      </trkpt>
      <trkpt lat="45.24875" lon="5.78659">
        <ele>1343.4000244141</ele>
        <time>2021-11-06T06:57:48.000Z</time>
      </trkpt>
      <trkpt lat="45.24875" lon="5.7866">
        <ele>1343.5999755859</ele>
        <time>2021-11-06T06:57:49.000Z</time>
      </trkpt>
      <trkpt lat="45.24878" lon="5.78665">
        <ele>1344.5999755859</ele>
        <time>2021-11-06T06:57:53.000Z</time>
      </trkpt>
      <trkpt lat="45.24879" lon="5.78666">
        <ele>1345</ele>
        <time>2021-11-06T06:57:55.000Z</time>
      </trkpt>
      <trkpt lat="45.24879" lon="5.78668">
        <ele>1345.5999755859</ele>
        <time>2021-11-06T06:57:57.000Z</time>
      </trkpt>
      <trkpt lat="45.2488" lon="5.7867">
        <ele>1345.8000488281</ele>
        <time>2021-11-06T06:57:58.000Z</time>
      </trkpt>
      <trkpt lat="45.24882" lon="5.78675">
        <ele>1347</ele>
        <time>2021-11-06T06:58:03.000Z</time>
      </trkpt>
      <trkpt lat="45.24882" lon="5.78677">
        <ele>1347.1999511719</ele>
        <time>2021-11-06T06:58:04.000Z</time>
      </trkpt>
      <trkpt lat="45.24882" lon="5.7868">
        <ele>1348.1999511719</ele>
        <time>2021-11-06T06:58:06.000Z</time>
      </trkpt>
      <trkpt lat="45.24884" lon="5.78684">
        <ele>1349.1999511719</ele>
        <time>2021-11-06T06:58:09.000Z</time>
      </trkpt>
      <trkpt lat="45.24885" lon="5.78685">
        <ele>1349.4000244141</ele>
        <time>2021-11-06T06:58:10.000Z</time>
      </trkpt>
      <trkpt lat="45.24886" lon="5.78688">
        <ele>1349.8000488281</ele>
        <time>2021-11-06T06:58:12.000Z</time>
      </trkpt>
      <trkpt lat="45.24887" lon="5.78692">
        <ele>1350.4000244141</ele>
        <time>2021-11-06T06:58:14.000Z</time>
      </trkpt>
      <trkpt lat="45.24888" lon="5.78696">
        <ele>1351</ele>
        <time>2021-11-06T06:58:17.000Z</time>
      </trkpt>
      <trkpt lat="45.24888" lon="5.78696">
        <ele>1351.5999755859</ele>
        <time>2021-11-06T06:58:18.000Z</time>
      </trkpt>
      <trkpt lat="45.2489" lon="5.78698">
        <ele>1352.1999511719</ele>
        <time>2021-11-06T06:58:21.000Z</time>
      </trkpt>
      <trkpt lat="45.24893" lon="5.78701">
        <ele>1352.1999511719</ele>
        <time>2021-11-06T06:58:24.000Z</time>
      </trkpt>
      <trkpt lat="45.24895" lon="5.78701">
        <ele>1352.1999511719</ele>
        <time>2021-11-06T06:58:26.000Z</time>
      </trkpt>
      <trkpt lat="45.24898" lon="5.78703">
        <ele>1352</ele>
        <time>2021-11-06T06:58:28.000Z</time>
      </trkpt>
      <trkpt lat="45.249" lon="5.78705">
        <ele>1352</ele>
        <time>2021-11-06T06:58:32.000Z</time>
      </trkpt>
      <trkpt lat="45.24901" lon="5.78707">
        <ele>1352</ele>
        <time>2021-11-06T06:58:34.000Z</time>
      </trkpt>
      <trkpt lat="45.24902" lon="5.78707">
        <ele>1352.1999511719</ele>
        <time>2021-11-06T06:58:35.000Z</time>
      </trkpt>
      <trkpt lat="45.24905" lon="5.7871">
        <ele>1352.1999511719</ele>
        <time>2021-11-06T06:58:38.000Z</time>
      </trkpt>
      <trkpt lat="45.24908" lon="5.78714">
        <ele>1352.5999755859</ele>
        <time>2021-11-06T06:58:41.000Z</time>
      </trkpt>
      <trkpt lat="45.24915" lon="5.78716">
        <ele>1352.4000244141</ele>
        <time>2021-11-06T06:58:46.000Z</time>
      </trkpt>
      <trkpt lat="45.24929" lon="5.78727">
        <ele>1352.5999755859</ele>
        <time>2021-11-06T06:58:53.000Z</time>
      </trkpt>
      <trkpt lat="45.2493" lon="5.78733">
        <ele>1353</ele>
        <time>2021-11-06T06:58:56.000Z</time>
      </trkpt>
      <trkpt lat="45.24934" lon="5.78738">
        <ele>1353.5999755859</ele>
        <time>2021-11-06T06:58:59.000Z</time>
      </trkpt>
      <trkpt lat="45.24935" lon="5.78739">
        <ele>1353.8000488281</ele>
        <time>2021-11-06T06:59:00.000Z</time>
      </trkpt>
      <trkpt lat="45.24941" lon="5.78745">
        <ele>1354.8000488281</ele>
        <time>2021-11-06T06:59:06.000Z</time>
      </trkpt>
      <trkpt lat="45.24944" lon="5.78747">
        <ele>1355</ele>
        <time>2021-11-06T06:59:09.000Z</time>
      </trkpt>
      <trkpt lat="45.24947" lon="5.78748">
        <ele>1355.4000244141</ele>
        <time>2021-11-06T06:59:14.000Z</time>
      </trkpt>
      <trkpt lat="45.24947" lon="5.78749">
        <ele>1355.4000244141</ele>
        <time>2021-11-06T06:59:15.000Z</time>
      </trkpt>
      <trkpt lat="45.24948" lon="5.78748">
        <ele>1355.4000244141</ele>
        <time>2021-11-06T06:59:18.000Z</time>
      </trkpt>
      <trkpt lat="45.24949" lon="5.78747">
        <ele>1355</ele>
        <time>2021-11-06T06:59:21.000Z</time>
      </trkpt>
      <trkpt lat="45.2495" lon="5.78746">
        <ele>1353.8000488281</ele>
        <time>2021-11-06T06:59:25.000Z</time>
      </trkpt>
      <trkpt lat="45.24951" lon="5.78747">
        <ele>1353.4000244141</ele>
        <time>2021-11-06T06:59:27.000Z</time>
      </trkpt>
      <trkpt lat="45.24956" lon="5.78755">
        <ele>1353.1999511719</ele>
        <time>2021-11-06T06:59:31.000Z</time>
      </trkpt>
      <trkpt lat="45.24958" lon="5.78758">
        <ele>1353.4000244141</ele>
        <time>2021-11-06T06:59:33.000Z</time>
      </trkpt>
      <trkpt lat="45.2496" lon="5.78761">
        <ele>1353.4000244141</ele>
        <time>2021-11-06T06:59:37.000Z</time>
      </trkpt>
      <trkpt lat="45.24962" lon="5.78763">
        <ele>1353.5999755859</ele>
        <time>2021-11-06T06:59:39.000Z</time>
      </trkpt>
      <trkpt lat="45.24966" lon="5.78767">
        <ele>1353.8000488281</ele>
        <time>2021-11-06T06:59:44.000Z</time>
      </trkpt>
      <trkpt lat="45.24969" lon="5.78768">
        <ele>1354.1999511719</ele>
        <time>2021-11-06T06:59:47.000Z</time>
      </trkpt>
      <trkpt lat="45.24975" lon="5.78771">
        <ele>1354</ele>
        <time>2021-11-06T06:59:52.000Z</time>
      </trkpt>
      <trkpt lat="45.24977" lon="5.78772">
        <ele>1353.8000488281</ele>
        <time>2021-11-06T06:59:54.000Z</time>
      </trkpt>
      <trkpt lat="45.2498" lon="5.78774">
        <ele>1353.8000488281</ele>
        <time>2021-11-06T06:59:56.000Z</time>
      </trkpt>
      <trkpt lat="45.24984" lon="5.78779">
        <ele>1353.8000488281</ele>
        <time>2021-11-06T07:00:00.000Z</time>
      </trkpt>
      <trkpt lat="45.2499" lon="5.78786">
        <ele>1354</ele>
        <time>2021-11-06T07:00:06.000Z</time>
      </trkpt>
      <trkpt lat="45.24995" lon="5.78794">
        <ele>1354.1999511719</ele>
        <time>2021-11-06T07:00:11.000Z</time>
      </trkpt>
      <trkpt lat="45.24997" lon="5.78798">
        <ele>1354.5999755859</ele>
        <time>2021-11-06T07:00:13.000Z</time>
      </trkpt>
      <trkpt lat="45.24998" lon="5.788">
        <ele>1355</ele>
        <time>2021-11-06T07:00:14.000Z</time>
      </trkpt>
      <trkpt lat="45.25" lon="5.78804">
        <ele>1356</ele>
        <time>2021-11-06T07:00:17.000Z</time>
      </trkpt>
      <trkpt lat="45.25002" lon="5.78806">
        <ele>1356.1999511719</ele>
        <time>2021-11-06T07:00:18.000Z</time>
      </trkpt>
      <trkpt lat="45.25003" lon="5.78807">
        <ele>1356.4000244141</ele>
        <time>2021-11-06T07:00:19.000Z</time>
      </trkpt>
      <trkpt lat="45.25003" lon="5.78808">
        <ele>1356.4000244141</ele>
        <time>2021-11-06T07:00:20.000Z</time>
      </trkpt>
      <trkpt lat="45.25006" lon="5.78812">
        <ele>1356.5999755859</ele>
        <time>2021-11-06T07:00:23.000Z</time>
      </trkpt>
      <trkpt lat="45.25008" lon="5.78814">
        <ele>1356.5999755859</ele>
        <time>2021-11-06T07:00:26.000Z</time>
      </trkpt>
      <trkpt lat="45.25008" lon="5.78816">
        <ele>1356.5999755859</ele>
        <time>2021-11-06T07:00:28.000Z</time>
      </trkpt>
      <trkpt lat="45.25009" lon="5.7882">
        <ele>1357.4000244141</ele>
        <time>2021-11-06T07:00:32.000Z</time>
      </trkpt>
      <trkpt lat="45.25008" lon="5.7882">
        <ele>1358</ele>
        <time>2021-11-06T07:00:34.000Z</time>
      </trkpt>
      <trkpt lat="45.25007" lon="5.7882">
        <ele>1358.4000244141</ele>
        <time>2021-11-06T07:00:35.000Z</time>
      </trkpt>
      <trkpt lat="45.25007" lon="5.7882">
        <ele>1358.4000244141</ele>
        <time>2021-11-06T07:00:36.000Z</time>
      </trkpt>
      <trkpt lat="45.25007" lon="5.7882">
        <ele>1358.5999755859</ele>
        <time>2021-11-06T07:00:38.000Z</time>
      </trkpt>
      <trkpt lat="45.25008" lon="5.78821">
        <ele>1358.8000488281</ele>
        <time>2021-11-06T07:00:42.000Z</time>
      </trkpt>
      <trkpt lat="45.25008" lon="5.78821">
        <ele>1358.4000244141</ele>
        <time>2021-11-06T07:00:50.000Z</time>
      </trkpt>
      <trkpt lat="45.25008" lon="5.78821">
        <ele>1358.4000244141</ele>
        <time>2021-11-06T07:00:56.000Z</time>
      </trkpt>
      <trkpt lat="45.25008" lon="5.78821">
        <ele>1358.4000244141</ele>
        <time>2021-11-06T07:01:00.000Z</time>
      </trkpt>
      <trkpt lat="45.25007" lon="5.78821">
        <ele>1358.8000488281</ele>
        <time>2021-11-06T07:01:08.000Z</time>
      </trkpt>
      <trkpt lat="45.25007" lon="5.7882">
        <ele>1358.5999755859</ele>
        <time>2021-11-06T07:01:25.000Z</time>
      </trkpt>
      <trkpt lat="45.25007" lon="5.7882">
        <ele>1357.5999755859</ele>
        <time>2021-11-06T07:01:35.000Z</time>
      </trkpt>
      <trkpt lat="45.25007" lon="5.7882">
        <ele>1357.4000244141</ele>
        <time>2021-11-06T07:01:36.000Z</time>
      </trkpt>
      <trkpt lat="45.25007" lon="5.7882">
        <ele>1356.4000244141</ele>
        <time>2021-11-06T07:01:40.000Z</time>
      </trkpt>
      <trkpt lat="45.25007" lon="5.7882">
        <ele>1356.1999511719</ele>
        <time>2021-11-06T07:01:41.000Z</time>
      </trkpt>
      <trkpt lat="45.25007" lon="5.78819">
        <ele>1355.5999755859</ele>
        <time>2021-11-06T07:01:44.000Z</time>
      </trkpt>
      <trkpt lat="45.2501" lon="5.78819">
        <ele>1355.1999511719</ele>
        <time>2021-11-06T07:01:46.000Z</time>
      </trkpt>
      <trkpt lat="45.25013" lon="5.78822">
        <ele>1355</ele>
        <time>2021-11-06T07:01:48.000Z</time>
      </trkpt>
      <trkpt lat="45.25016" lon="5.78821">
        <ele>1355.1999511719</ele>
        <time>2021-11-06T07:01:51.000Z</time>
      </trkpt>
      <trkpt lat="45.2502" lon="5.7882">
        <ele>1355.1999511719</ele>
        <time>2021-11-06T07:01:54.000Z</time>
      </trkpt>
      <trkpt lat="45.25023" lon="5.78822">
        <ele>1354.5999755859</ele>
        <time>2021-11-06T07:01:57.000Z</time>
      </trkpt>
      <trkpt lat="45.25025" lon="5.78825">
        <ele>1354.4000244141</ele>
        <time>2021-11-06T07:01:59.000Z</time>
      </trkpt>
      <trkpt lat="45.25034" lon="5.78832">
        <ele>1354.1999511719</ele>
        <time>2021-11-06T07:02:05.000Z</time>
      </trkpt>
      <trkpt lat="45.25034" lon="5.78834">
        <ele>1354.1999511719</ele>
        <time>2021-11-06T07:02:06.000Z</time>
      </trkpt>
      <trkpt lat="45.25035" lon="5.78835">
        <ele>1354.4000244141</ele>
        <time>2021-11-06T07:02:07.000Z</time>
      </trkpt>
      <trkpt lat="45.25042" lon="5.78841">
        <ele>1355.1999511719</ele>
        <time>2021-11-06T07:02:12.000Z</time>
      </trkpt>
      <trkpt lat="45.25049" lon="5.78843">
        <ele>1355.4000244141</ele>
        <time>2021-11-06T07:02:17.000Z</time>
      </trkpt>
      <trkpt lat="45.25052" lon="5.78844">
        <ele>1355.5999755859</ele>
        <time>2021-11-06T07:02:19.000Z</time>
      </trkpt>
      <trkpt lat="45.25055" lon="5.78846">
        <ele>1355.5999755859</ele>
        <time>2021-11-06T07:02:21.000Z</time>
      </trkpt>
      <trkpt lat="45.25062" lon="5.78853">
        <ele>1355.1999511719</ele>
        <time>2021-11-06T07:02:27.000Z</time>
      </trkpt>
      <trkpt lat="45.25067" lon="5.78856">
        <ele>1354.4000244141</ele>
        <time>2021-11-06T07:02:32.000Z</time>
      </trkpt>
      <trkpt lat="45.25069" lon="5.78859">
        <ele>1354.1999511719</ele>
        <time>2021-11-06T07:02:34.000Z</time>
      </trkpt>
      <trkpt lat="45.25077" lon="5.78865">
        <ele>1354.1999511719</ele>
        <time>2021-11-06T07:02:41.000Z</time>
      </trkpt>
      <trkpt lat="45.25082" lon="5.78869">
        <ele>1353.5999755859</ele>
        <time>2021-11-06T07:02:45.000Z</time>
      </trkpt>
      <trkpt lat="45.25089" lon="5.78875">
        <ele>1353</ele>
        <time>2021-11-06T07:02:50.000Z</time>
      </trkpt>
      <trkpt lat="45.25093" lon="5.78877">
        <ele>1352.4000244141</ele>
        <time>2021-11-06T07:02:53.000Z</time>
      </trkpt>
      <trkpt lat="45.25096" lon="5.78879">
        <ele>1352</ele>
        <time>2021-11-06T07:02:55.000Z</time>
      </trkpt>
      <trkpt lat="45.251" lon="5.78884">
        <ele>1351.5999755859</ele>
        <time>2021-11-06T07:02:59.000Z</time>
      </trkpt>
      <trkpt lat="45.25101" lon="5.78884">
        <ele>1351.5999755859</ele>
        <time>2021-11-06T07:03:00.000Z</time>
      </trkpt>
      <trkpt lat="45.25107" lon="5.78888">
        <ele>1350.8000488281</ele>
        <time>2021-11-06T07:03:05.000Z</time>
      </trkpt>
      <trkpt lat="45.25111" lon="5.78893">
        <ele>1350.8000488281</ele>
        <time>2021-11-06T07:03:08.000Z</time>
      </trkpt>
      <trkpt lat="45.25114" lon="5.78896">
        <ele>1350.8000488281</ele>
        <time>2021-11-06T07:03:10.000Z</time>
      </trkpt>
      <trkpt lat="45.2512" lon="5.78901">
        <ele>1350.4000244141</ele>
        <time>2021-11-06T07:03:14.000Z</time>
      </trkpt>
      <trkpt lat="45.25122" lon="5.78903">
        <ele>1350</ele>
        <time>2021-11-06T07:03:16.000Z</time>
      </trkpt>
      <trkpt lat="45.25123" lon="5.78904">
        <ele>1349.8000488281</ele>
        <time>2021-11-06T07:03:17.000Z</time>
      </trkpt>
      <trkpt lat="45.25127" lon="5.78906">
        <ele>1349</ele>
        <time>2021-11-06T07:03:20.000Z</time>
      </trkpt>
      <trkpt lat="45.25127" lon="5.78906">
        <ele>1348.8000488281</ele>
        <time>2021-11-06T07:03:21.000Z</time>
      </trkpt>
      <trkpt lat="45.25128" lon="5.78906">
        <ele>1348.4000244141</ele>
        <time>2021-11-06T07:03:22.000Z</time>
      </trkpt>
      <trkpt lat="45.25129" lon="5.78906">
        <ele>1348.1999511719</ele>
        <time>2021-11-06T07:03:23.000Z</time>
      </trkpt>
      <trkpt lat="45.25131" lon="5.78907">
        <ele>1347.4000244141</ele>
        <time>2021-11-06T07:03:25.000Z</time>
      </trkpt>
      <trkpt lat="45.25135" lon="5.78911">
        <ele>1346.1999511719</ele>
        <time>2021-11-06T07:03:29.000Z</time>
      </trkpt>
      <trkpt lat="45.2514" lon="5.78914">
        <ele>1345.1999511719</ele>
        <time>2021-11-06T07:03:34.000Z</time>
      </trkpt>
      <trkpt lat="45.25144" lon="5.78915">
        <ele>1344</ele>
        <time>2021-11-06T07:03:38.000Z</time>
      </trkpt>
      <trkpt lat="45.25145" lon="5.78916">
        <ele>1343.1999511719</ele>
        <time>2021-11-06T07:03:41.000Z</time>
      </trkpt>
      <trkpt lat="45.25146" lon="5.78917">
        <ele>1343</ele>
        <time>2021-11-06T07:03:42.000Z</time>
      </trkpt>
      <trkpt lat="45.25147" lon="5.78918">
        <ele>1343</ele>
        <time>2021-11-06T07:03:43.000Z</time>
      </trkpt>
      <trkpt lat="45.25149" lon="5.78919">
        <ele>1343</ele>
        <time>2021-11-06T07:03:44.000Z</time>
      </trkpt>
      <trkpt lat="45.25149" lon="5.7892">
        <ele>1343</ele>
        <time>2021-11-06T07:03:45.000Z</time>
      </trkpt>
      <trkpt lat="45.25152" lon="5.7892">
        <ele>1342.1999511719</ele>
        <time>2021-11-06T07:03:50.000Z</time>
      </trkpt>
      <trkpt lat="45.25153" lon="5.7892">
        <ele>1342</ele>
        <time>2021-11-06T07:03:51.000Z</time>
      </trkpt>
      <trkpt lat="45.25153" lon="5.7892">
        <ele>1341.8000488281</ele>
        <time>2021-11-06T07:03:52.000Z</time>
      </trkpt>
      <trkpt lat="45.25154" lon="5.78921">
        <ele>1341.1999511719</ele>
        <time>2021-11-06T07:03:55.000Z</time>
      </trkpt>
      <trkpt lat="45.25154" lon="5.78921">
        <ele>1341</ele>
        <time>2021-11-06T07:03:57.000Z</time>
      </trkpt>
      <trkpt lat="45.25156" lon="5.78923">
        <ele>1340.5999755859</ele>
        <time>2021-11-06T07:04:01.000Z</time>
      </trkpt>
      <trkpt lat="45.2516" lon="5.78926">
        <ele>1340.5999755859</ele>
        <time>2021-11-06T07:04:06.000Z</time>
      </trkpt>
      <trkpt lat="45.2516" lon="5.78928">
        <ele>1340.8000488281</ele>
        <time>2021-11-06T07:04:07.000Z</time>
      </trkpt>
      <trkpt lat="45.25161" lon="5.78931">
        <ele>1341.1999511719</ele>
        <time>2021-11-06T07:04:09.000Z</time>
      </trkpt>
      <trkpt lat="45.25163" lon="5.78936">
        <ele>1342.1999511719</ele>
        <time>2021-11-06T07:04:13.000Z</time>
      </trkpt>
      <trkpt lat="45.25164" lon="5.78938">
        <ele>1342.1999511719</ele>
        <time>2021-11-06T07:04:14.000Z</time>
      </trkpt>
      <trkpt lat="45.25164" lon="5.78939">
        <ele>1342.4000244141</ele>
        <time>2021-11-06T07:04:15.000Z</time>
      </trkpt>
      <trkpt lat="45.25168" lon="5.78944">
        <ele>1343</ele>
        <time>2021-11-06T07:04:20.000Z</time>
      </trkpt>
      <trkpt lat="45.25171" lon="5.78945">
        <ele>1343</ele>
        <time>2021-11-06T07:04:22.000Z</time>
      </trkpt>
      <trkpt lat="45.25173" lon="5.78948">
        <ele>1343.1999511719</ele>
        <time>2021-11-06T07:04:24.000Z</time>
      </trkpt>
      <trkpt lat="45.25176" lon="5.78954">
        <ele>1343.4000244141</ele>
        <time>2021-11-06T07:04:27.000Z</time>
      </trkpt>
      <trkpt lat="45.25177" lon="5.78957">
        <ele>1343.4000244141</ele>
        <time>2021-11-06T07:04:28.000Z</time>
      </trkpt>
      <trkpt lat="45.25179" lon="5.7896">
        <ele>1343.4000244141</ele>
        <time>2021-11-06T07:04:30.000Z</time>
      </trkpt>
      <trkpt lat="45.25183" lon="5.78969">
        <ele>1344</ele>
        <time>2021-11-06T07:04:35.000Z</time>
      </trkpt>
      <trkpt lat="45.25185" lon="5.78972">
        <ele>1344</ele>
        <time>2021-11-06T07:04:37.000Z</time>
      </trkpt>
      <trkpt lat="45.25192" lon="5.78975">
        <ele>1342.4000244141</ele>
        <time>2021-11-06T07:04:44.000Z</time>
      </trkpt>
      <trkpt lat="45.25194" lon="5.78977">
        <ele>1342</ele>
        <time>2021-11-06T07:04:45.000Z</time>
      </trkpt>
      <trkpt lat="45.25198" lon="5.78981">
        <ele>1340.5999755859</ele>
        <time>2021-11-06T07:04:48.000Z</time>
      </trkpt>
      <trkpt lat="45.252" lon="5.78985">
        <ele>1340</ele>
        <time>2021-11-06T07:04:51.000Z</time>
      </trkpt>
      <trkpt lat="45.25201" lon="5.78986">
        <ele>1340</ele>
        <time>2021-11-06T07:04:52.000Z</time>
      </trkpt>
      <trkpt lat="45.25203" lon="5.78986">
        <ele>1339.5999755859</ele>
        <time>2021-11-06T07:04:53.000Z</time>
      </trkpt>
      <trkpt lat="45.25205" lon="5.78987">
        <ele>1339.4000244141</ele>
        <time>2021-11-06T07:04:55.000Z</time>
      </trkpt>
      <trkpt lat="45.25206" lon="5.78992">
        <ele>1339.1999511719</ele>
        <time>2021-11-06T07:04:57.000Z</time>
      </trkpt>
      <trkpt lat="45.25209" lon="5.79002">
        <ele>1340</ele>
        <time>2021-11-06T07:05:03.000Z</time>
      </trkpt>
      <trkpt lat="45.25209" lon="5.79005">
        <ele>1340.1999511719</ele>
        <time>2021-11-06T07:05:04.000Z</time>
      </trkpt>
      <trkpt lat="45.25209" lon="5.79007">
        <ele>1340.8000488281</ele>
        <time>2021-11-06T07:05:05.000Z</time>
      </trkpt>
      <trkpt lat="45.25208" lon="5.79011">
        <ele>1341.5999755859</ele>
        <time>2021-11-06T07:05:08.000Z</time>
      </trkpt>
      <trkpt lat="45.25209" lon="5.79013">
        <ele>1342</ele>
        <time>2021-11-06T07:05:09.000Z</time>
      </trkpt>
      <trkpt lat="45.25209" lon="5.79014">
        <ele>1342.1999511719</ele>
        <time>2021-11-06T07:05:10.000Z</time>
      </trkpt>
      <trkpt lat="45.25212" lon="5.79019">
        <ele>1342.5999755859</ele>
        <time>2021-11-06T07:05:13.000Z</time>
      </trkpt>
      <trkpt lat="45.25215" lon="5.79023">
        <ele>1342.5999755859</ele>
        <time>2021-11-06T07:05:17.000Z</time>
      </trkpt>
      <trkpt lat="45.25221" lon="5.79024">
        <ele>1341.5999755859</ele>
        <time>2021-11-06T07:05:24.000Z</time>
      </trkpt>
      <trkpt lat="45.25223" lon="5.79024">
        <ele>1341</ele>
        <time>2021-11-06T07:05:26.000Z</time>
      </trkpt>
      <trkpt lat="45.25225" lon="5.79024">
        <ele>1339.8000488281</ele>
        <time>2021-11-06T07:05:29.000Z</time>
      </trkpt>
      <trkpt lat="45.25229" lon="5.79025">
        <ele>1338.5999755859</ele>
        <time>2021-11-06T07:05:32.000Z</time>
      </trkpt>
      <trkpt lat="45.2523" lon="5.79025">
        <ele>1338.1999511719</ele>
        <time>2021-11-06T07:05:33.000Z</time>
      </trkpt>
      <trkpt lat="45.25233" lon="5.79028">
        <ele>1337.5999755859</ele>
        <time>2021-11-06T07:05:36.000Z</time>
      </trkpt>
      <trkpt lat="45.25235" lon="5.79029">
        <ele>1337.4000244141</ele>
        <time>2021-11-06T07:05:37.000Z</time>
      </trkpt>
      <trkpt lat="45.25237" lon="5.7903">
        <ele>1337.1999511719</ele>
        <time>2021-11-06T07:05:38.000Z</time>
      </trkpt>
      <trkpt lat="45.25243" lon="5.79032">
        <ele>1336.5999755859</ele>
        <time>2021-11-06T07:05:43.000Z</time>
      </trkpt>
      <trkpt lat="45.25244" lon="5.79032">
        <ele>1336.4000244141</ele>
        <time>2021-11-06T07:05:44.000Z</time>
      </trkpt>
      <trkpt lat="45.25246" lon="5.79033">
        <ele>1335.5999755859</ele>
        <time>2021-11-06T07:05:47.000Z</time>
      </trkpt>
      <trkpt lat="45.25248" lon="5.79035">
        <ele>1335.1999511719</ele>
        <time>2021-11-06T07:05:48.000Z</time>
      </trkpt>
      <trkpt lat="45.25252" lon="5.79035">
        <ele>1334</ele>
        <time>2021-11-06T07:05:51.000Z</time>
      </trkpt>
      <trkpt lat="45.25253" lon="5.79036">
        <ele>1333.8000488281</ele>
        <time>2021-11-06T07:05:53.000Z</time>
      </trkpt>
      <trkpt lat="45.25257" lon="5.79037">
        <ele>1333.1999511719</ele>
        <time>2021-11-06T07:05:58.000Z</time>
      </trkpt>
      <trkpt lat="45.2526" lon="5.79042">
        <ele>1333</ele>
        <time>2021-11-06T07:06:02.000Z</time>
      </trkpt>
      <trkpt lat="45.25262" lon="5.79042">
        <ele>1332.8000488281</ele>
        <time>2021-11-06T07:06:04.000Z</time>
      </trkpt>
      <trkpt lat="45.25264" lon="5.79042">
        <ele>1332.5999755859</ele>
        <time>2021-11-06T07:06:05.000Z</time>
      </trkpt>
      <trkpt lat="45.25268" lon="5.79043">
        <ele>1332</ele>
        <time>2021-11-06T07:06:08.000Z</time>
      </trkpt>
      <trkpt lat="45.25273" lon="5.79045">
        <ele>1330.5999755859</ele>
        <time>2021-11-06T07:06:12.000Z</time>
      </trkpt>
      <trkpt lat="45.25275" lon="5.79047">
        <ele>1330.1999511719</ele>
        <time>2021-11-06T07:06:14.000Z</time>
      </trkpt>
      <trkpt lat="45.25276" lon="5.79047">
        <ele>1330</ele>
        <time>2021-11-06T07:06:15.000Z</time>
      </trkpt>
      <trkpt lat="45.25278" lon="5.79048">
        <ele>1329.5999755859</ele>
        <time>2021-11-06T07:06:17.000Z</time>
      </trkpt>
      <trkpt lat="45.25279" lon="5.79048">
        <ele>1329.1999511719</ele>
        <time>2021-11-06T07:06:18.000Z</time>
      </trkpt>
      <trkpt lat="45.25281" lon="5.79048">
        <ele>1328.4000244141</ele>
        <time>2021-11-06T07:06:20.000Z</time>
      </trkpt>
      <trkpt lat="45.25287" lon="5.79054">
        <ele>1328</ele>
        <time>2021-11-06T07:06:25.000Z</time>
      </trkpt>
      <trkpt lat="45.25296" lon="5.79062">
        <ele>1328</ele>
        <time>2021-11-06T07:06:34.000Z</time>
      </trkpt>
      <trkpt lat="45.253" lon="5.79065">
        <ele>1327.1999511719</ele>
        <time>2021-11-06T07:06:37.000Z</time>
      </trkpt>
      <trkpt lat="45.25303" lon="5.79066">
        <ele>1326.5999755859</ele>
        <time>2021-11-06T07:06:41.000Z</time>
      </trkpt>
      <trkpt lat="45.25304" lon="5.79067">
        <ele>1326.5999755859</ele>
        <time>2021-11-06T07:06:42.000Z</time>
      </trkpt>
      <trkpt lat="45.2531" lon="5.79072">
        <ele>1326.1999511719</ele>
        <time>2021-11-06T07:06:46.000Z</time>
      </trkpt>
      <trkpt lat="45.25312" lon="5.79072">
        <ele>1326</ele>
        <time>2021-11-06T07:06:48.000Z</time>
      </trkpt>
      <trkpt lat="45.25315" lon="5.79072">
        <ele>1325.8000488281</ele>
        <time>2021-11-06T07:06:50.000Z</time>
      </trkpt>
      <trkpt lat="45.25319" lon="5.79075">
        <ele>1325</ele>
        <time>2021-11-06T07:06:54.000Z</time>
      </trkpt>
      <trkpt lat="45.25319" lon="5.79075">
        <ele>1325</ele>
        <time>2021-11-06T07:06:55.000Z</time>
      </trkpt>
      <trkpt lat="45.2532" lon="5.79075">
        <ele>1324.5999755859</ele>
        <time>2021-11-06T07:06:57.000Z</time>
      </trkpt>
      <trkpt lat="45.25323" lon="5.79076">
        <ele>1323.8000488281</ele>
        <time>2021-11-06T07:07:00.000Z</time>
      </trkpt>
      <trkpt lat="45.25323" lon="5.79076">
        <ele>1323.4000244141</ele>
        <time>2021-11-06T07:07:01.000Z</time>
      </trkpt>
      <trkpt lat="45.25323" lon="5.79075">
        <ele>1322.8000488281</ele>
        <time>2021-11-06T07:07:03.000Z</time>
      </trkpt>
      <trkpt lat="45.25323" lon="5.79074">
        <ele>1322.5999755859</ele>
        <time>2021-11-06T07:07:04.000Z</time>
      </trkpt>
      <trkpt lat="45.25323" lon="5.79074">
        <ele>1322</ele>
        <time>2021-11-06T07:07:07.000Z</time>
      </trkpt>
      <trkpt lat="45.25324" lon="5.79073">
        <ele>1321.4000244141</ele>
        <time>2021-11-06T07:07:09.000Z</time>
      </trkpt>
      <trkpt lat="45.25325" lon="5.79073">
        <ele>1321</ele>
        <time>2021-11-06T07:07:10.000Z</time>
      </trkpt>
      <trkpt lat="45.25328" lon="5.79072">
        <ele>1320</ele>
        <time>2021-11-06T07:07:13.000Z</time>
      </trkpt>
      <trkpt lat="45.2533" lon="5.79071">
        <ele>1319.4000244141</ele>
        <time>2021-11-06T07:07:14.000Z</time>
      </trkpt>
      <trkpt lat="45.25331" lon="5.79072">
        <ele>1319.1999511719</ele>
        <time>2021-11-06T07:07:15.000Z</time>
      </trkpt>
      <trkpt lat="45.25332" lon="5.79073">
        <ele>1319</ele>
        <time>2021-11-06T07:07:16.000Z</time>
      </trkpt>
      <trkpt lat="45.25335" lon="5.79076">
        <ele>1318.5999755859</ele>
        <time>2021-11-06T07:07:18.000Z</time>
      </trkpt>
      <trkpt lat="45.25338" lon="5.79079">
        <ele>1318.4000244141</ele>
        <time>2021-11-06T07:07:20.000Z</time>
      </trkpt>
      <trkpt lat="45.25342" lon="5.79083">
        <ele>1318.1999511719</ele>
        <time>2021-11-06T07:07:23.000Z</time>
      </trkpt>
      <trkpt lat="45.25344" lon="5.79086">
        <ele>1318.4000244141</ele>
        <time>2021-11-06T07:07:26.000Z</time>
      </trkpt>
      <trkpt lat="45.25345" lon="5.79086">
        <ele>1318.5999755859</ele>
        <time>2021-11-06T07:07:28.000Z</time>
      </trkpt>
      <trkpt lat="45.25351" lon="5.79093">
        <ele>1319</ele>
        <time>2021-11-06T07:07:34.000Z</time>
      </trkpt>
      <trkpt lat="45.25351" lon="5.79095">
        <ele>1319.1999511719</ele>
        <time>2021-11-06T07:07:35.000Z</time>
      </trkpt>
      <trkpt lat="45.25354" lon="5.79099">
        <ele>1319.1999511719</ele>
        <time>2021-11-06T07:07:38.000Z</time>
      </trkpt>
      <trkpt lat="45.25355" lon="5.79099">
        <ele>1318.8000488281</ele>
        <time>2021-11-06T07:07:40.000Z</time>
      </trkpt>
      <trkpt lat="45.25355" lon="5.79098">
        <ele>1318.8000488281</ele>
        <time>2021-11-06T07:07:41.000Z</time>
      </trkpt>
      <trkpt lat="45.25356" lon="5.79097">
        <ele>1318</ele>
        <time>2021-11-06T07:07:44.000Z</time>
      </trkpt>
      <trkpt lat="45.25357" lon="5.79097">
        <ele>1317.1999511719</ele>
        <time>2021-11-06T07:07:46.000Z</time>
      </trkpt>
      <trkpt lat="45.25359" lon="5.79098">
        <ele>1316.8000488281</ele>
        <time>2021-11-06T07:07:47.000Z</time>
      </trkpt>
      <trkpt lat="45.25365" lon="5.79103">
        <ele>1316.1999511719</ele>
        <time>2021-11-06T07:07:51.000Z</time>
      </trkpt>
      <trkpt lat="45.25366" lon="5.79105">
        <ele>1316.1999511719</ele>
        <time>2021-11-06T07:07:52.000Z</time>
      </trkpt>
      <trkpt lat="45.2537" lon="5.79111">
        <ele>1316.5999755859</ele>
        <time>2021-11-06T07:07:55.000Z</time>
      </trkpt>
      <trkpt lat="45.25372" lon="5.79114">
        <ele>1317</ele>
        <time>2021-11-06T07:07:57.000Z</time>
      </trkpt>
      <trkpt lat="45.25373" lon="5.79115">
        <ele>1317.1999511719</ele>
        <time>2021-11-06T07:07:58.000Z</time>
      </trkpt>
      <trkpt lat="45.25374" lon="5.79116">
        <ele>1317.4000244141</ele>
        <time>2021-11-06T07:07:59.000Z</time>
      </trkpt>
      <trkpt lat="45.2538" lon="5.79122">
        <ele>1317.5999755859</ele>
        <time>2021-11-06T07:08:05.000Z</time>
      </trkpt>
      <trkpt lat="45.25383" lon="5.79125">
        <ele>1317.5999755859</ele>
        <time>2021-11-06T07:08:07.000Z</time>
      </trkpt>
      <trkpt lat="45.2539" lon="5.7913">
        <ele>1316.5999755859</ele>
        <time>2021-11-06T07:08:11.000Z</time>
      </trkpt>
      <trkpt lat="45.25392" lon="5.79132">
        <ele>1316.1999511719</ele>
        <time>2021-11-06T07:08:13.000Z</time>
      </trkpt>
      <trkpt lat="45.25394" lon="5.79132">
        <ele>1316</ele>
        <time>2021-11-06T07:08:14.000Z</time>
      </trkpt>
      <trkpt lat="45.25396" lon="5.79131">
        <ele>1315.1999511719</ele>
        <time>2021-11-06T07:08:17.000Z</time>
      </trkpt>
      <trkpt lat="45.25397" lon="5.79132">
        <ele>1314</ele>
        <time>2021-11-06T07:08:19.000Z</time>
      </trkpt>
      <trkpt lat="45.254" lon="5.7913">
        <ele>1313</ele>
        <time>2021-11-06T07:08:23.000Z</time>
      </trkpt>
      <trkpt lat="45.254" lon="5.79129">
        <ele>1312.8000488281</ele>
        <time>2021-11-06T07:08:24.000Z</time>
      </trkpt>
      <trkpt lat="45.25403" lon="5.79129">
        <ele>1311.5999755859</ele>
        <time>2021-11-06T07:08:27.000Z</time>
      </trkpt>
      <trkpt lat="45.25404" lon="5.7913">
        <ele>1311.1999511719</ele>
        <time>2021-11-06T07:08:28.000Z</time>
      </trkpt>
      <trkpt lat="45.25406" lon="5.79132">
        <ele>1311</ele>
        <time>2021-11-06T07:08:29.000Z</time>
      </trkpt>
      <trkpt lat="45.25407" lon="5.79136">
        <ele>1310.8000488281</ele>
        <time>2021-11-06T07:08:31.000Z</time>
      </trkpt>
      <trkpt lat="45.2541" lon="5.7914">
        <ele>1310.8000488281</ele>
        <time>2021-11-06T07:08:34.000Z</time>
      </trkpt>
      <trkpt lat="45.25411" lon="5.79141">
        <ele>1310.8000488281</ele>
        <time>2021-11-06T07:08:35.000Z</time>
      </trkpt>
      <trkpt lat="45.2542" lon="5.79148">
        <ele>1310.8000488281</ele>
        <time>2021-11-06T07:08:40.000Z</time>
      </trkpt>
      <trkpt lat="45.25421" lon="5.7915">
        <ele>1310.8000488281</ele>
        <time>2021-11-06T07:08:41.000Z</time>
      </trkpt>
      <trkpt lat="45.25423" lon="5.79154">
        <ele>1311.5999755859</ele>
        <time>2021-11-06T07:08:44.000Z</time>
      </trkpt>
      <trkpt lat="45.25425" lon="5.79156">
        <ele>1311.8000488281</ele>
        <time>2021-11-06T07:08:46.000Z</time>
      </trkpt>
      <trkpt lat="45.25425" lon="5.79157">
        <ele>1312.1999511719</ele>
        <time>2021-11-06T07:08:48.000Z</time>
      </trkpt>
      <trkpt lat="45.25425" lon="5.79158">
        <ele>1312.4000244141</ele>
        <time>2021-11-06T07:08:49.000Z</time>
      </trkpt>
      <trkpt lat="45.25425" lon="5.79159">
        <ele>1313</ele>
        <time>2021-11-06T07:08:51.000Z</time>
      </trkpt>
      <trkpt lat="45.25425" lon="5.79158">
        <ele>1313.4000244141</ele>
        <time>2021-11-06T07:08:53.000Z</time>
      </trkpt>
      <trkpt lat="45.25426" lon="5.7916">
        <ele>1313.5999755859</ele>
        <time>2021-11-06T07:08:55.000Z</time>
      </trkpt>
      <trkpt lat="45.25427" lon="5.79163">
        <ele>1314</ele>
        <time>2021-11-06T07:08:57.000Z</time>
      </trkpt>
      <trkpt lat="45.25426" lon="5.79167">
        <ele>1315.1999511719</ele>
        <time>2021-11-06T07:09:01.000Z</time>
      </trkpt>
      <trkpt lat="45.25426" lon="5.79168">
        <ele>1315.5999755859</ele>
        <time>2021-11-06T07:09:03.000Z</time>
      </trkpt>
      <trkpt lat="45.25425" lon="5.79171">
        <ele>1316.1999511719</ele>
        <time>2021-11-06T07:09:06.000Z</time>
      </trkpt>
      <trkpt lat="45.25424" lon="5.79171">
        <ele>1317.1999511719</ele>
        <time>2021-11-06T07:09:08.000Z</time>
      </trkpt>
      <trkpt lat="45.25424" lon="5.79172">
        <ele>1317.5999755859</ele>
        <time>2021-11-06T07:09:09.000Z</time>
      </trkpt>
      <trkpt lat="45.25424" lon="5.79173">
        <ele>1318</ele>
        <time>2021-11-06T07:09:10.000Z</time>
      </trkpt>
      <trkpt lat="45.25423" lon="5.79175">
        <ele>1318.5999755859</ele>
        <time>2021-11-06T07:09:12.000Z</time>
      </trkpt>
      <trkpt lat="45.25423" lon="5.79177">
        <ele>1319</ele>
        <time>2021-11-06T07:09:14.000Z</time>
      </trkpt>
      <trkpt lat="45.25424" lon="5.7918">
        <ele>1320</ele>
        <time>2021-11-06T07:09:17.000Z</time>
      </trkpt>
      <trkpt lat="45.25425" lon="5.79181">
        <ele>1320</ele>
        <time>2021-11-06T07:09:18.000Z</time>
      </trkpt>
      <trkpt lat="45.25427" lon="5.79182">
        <ele>1320.1999511719</ele>
        <time>2021-11-06T07:09:19.000Z</time>
      </trkpt>
      <trkpt lat="45.25427" lon="5.79183">
        <ele>1320.1999511719</ele>
        <time>2021-11-06T07:09:20.000Z</time>
      </trkpt>
      <trkpt lat="45.2543" lon="5.7919">
        <ele>1319.5999755859</ele>
        <time>2021-11-06T07:09:24.000Z</time>
      </trkpt>
      <trkpt lat="45.25434" lon="5.79195">
        <ele>1320</ele>
        <time>2021-11-06T07:09:28.000Z</time>
      </trkpt>
      <trkpt lat="45.25435" lon="5.79195">
        <ele>1320.1999511719</ele>
        <time>2021-11-06T07:09:30.000Z</time>
      </trkpt>
      <trkpt lat="45.25438" lon="5.792">
        <ele>1320.4000244141</ele>
        <time>2021-11-06T07:09:34.000Z</time>
      </trkpt>
      <trkpt lat="45.25438" lon="5.79202">
        <ele>1320.5999755859</ele>
        <time>2021-11-06T07:09:37.000Z</time>
      </trkpt>
      <trkpt lat="45.25439" lon="5.79204">
        <ele>1320.5999755859</ele>
        <time>2021-11-06T07:09:39.000Z</time>
      </trkpt>
      <trkpt lat="45.2544" lon="5.79206">
        <ele>1320.8000488281</ele>
        <time>2021-11-06T07:09:41.000Z</time>
      </trkpt>
      <trkpt lat="45.25443" lon="5.79208">
        <ele>1321</ele>
        <time>2021-11-06T07:09:44.000Z</time>
      </trkpt>
      <trkpt lat="45.25445" lon="5.79211">
        <ele>1321.1999511719</ele>
        <time>2021-11-06T07:09:47.000Z</time>
      </trkpt>
      <trkpt lat="45.25448" lon="5.79215">
        <ele>1322</ele>
        <time>2021-11-06T07:09:52.000Z</time>
      </trkpt>
      <trkpt lat="45.2545" lon="5.79217">
        <ele>1322.1999511719</ele>
        <time>2021-11-06T07:09:54.000Z</time>
      </trkpt>
      <trkpt lat="45.25454" lon="5.79225">
        <ele>1323.1999511719</ele>
        <time>2021-11-06T07:10:00.000Z</time>
      </trkpt>
      <trkpt lat="45.25456" lon="5.79225">
        <ele>1323.4000244141</ele>
        <time>2021-11-06T07:10:01.000Z</time>
      </trkpt>
      <trkpt lat="45.2546" lon="5.7923">
        <ele>1323.5999755859</ele>
        <time>2021-11-06T07:10:04.000Z</time>
      </trkpt>
      <trkpt lat="45.25462" lon="5.79231">
        <ele>1323.5999755859</ele>
        <time>2021-11-06T07:10:06.000Z</time>
      </trkpt>
      <trkpt lat="45.25471" lon="5.79239">
        <ele>1322.8000488281</ele>
        <time>2021-11-06T07:10:14.000Z</time>
      </trkpt>
      <trkpt lat="45.25473" lon="5.7924">
        <ele>1322.8000488281</ele>
        <time>2021-11-06T07:10:17.000Z</time>
      </trkpt>
      <trkpt lat="45.25475" lon="5.79243">
        <ele>1322.8000488281</ele>
        <time>2021-11-06T07:10:20.000Z</time>
      </trkpt>
      <trkpt lat="45.25477" lon="5.79246">
        <ele>1322.5999755859</ele>
        <time>2021-11-06T07:10:22.000Z</time>
      </trkpt>
      <trkpt lat="45.25478" lon="5.79244">
        <ele>1322.4000244141</ele>
        <time>2021-11-06T07:10:24.000Z</time>
      </trkpt>
      <trkpt lat="45.25479" lon="5.79244">
        <ele>1322.1999511719</ele>
        <time>2021-11-06T07:10:25.000Z</time>
      </trkpt>
      <trkpt lat="45.2548" lon="5.79243">
        <ele>1321.5999755859</ele>
        <time>2021-11-06T07:10:27.000Z</time>
      </trkpt>
      <trkpt lat="45.25481" lon="5.79242">
        <ele>1321.1999511719</ele>
        <time>2021-11-06T07:10:28.000Z</time>
      </trkpt>
      <trkpt lat="45.25485" lon="5.79243">
        <ele>1320.1999511719</ele>
        <time>2021-11-06T07:10:32.000Z</time>
      </trkpt>
      <trkpt lat="45.25486" lon="5.79244">
        <ele>1319.8000488281</ele>
        <time>2021-11-06T07:10:33.000Z</time>
      </trkpt>
      <trkpt lat="45.25488" lon="5.79246">
        <ele>1319.4000244141</ele>
        <time>2021-11-06T07:10:35.000Z</time>
      </trkpt>
      <trkpt lat="45.2549" lon="5.7925">
        <ele>1319.1999511719</ele>
        <time>2021-11-06T07:10:37.000Z</time>
      </trkpt>
      <trkpt lat="45.25491" lon="5.79253">
        <ele>1319.1999511719</ele>
        <time>2021-11-06T07:10:39.000Z</time>
      </trkpt>
      <trkpt lat="45.25493" lon="5.79254">
        <ele>1319.4000244141</ele>
        <time>2021-11-06T07:10:42.000Z</time>
      </trkpt>
      <trkpt lat="45.25498" lon="5.79255">
        <ele>1319.1999511719</ele>
        <time>2021-11-06T07:10:45.000Z</time>
      </trkpt>
      <trkpt lat="45.25501" lon="5.79257">
        <ele>1318.8000488281</ele>
        <time>2021-11-06T07:10:48.000Z</time>
      </trkpt>
      <trkpt lat="45.25503" lon="5.79257">
        <ele>1318.4000244141</ele>
        <time>2021-11-06T07:10:51.000Z</time>
      </trkpt>
      <trkpt lat="45.25504" lon="5.79257">
        <ele>1318</ele>
        <time>2021-11-06T07:10:53.000Z</time>
      </trkpt>
      <trkpt lat="45.25505" lon="5.79258">
        <ele>1317.8000488281</ele>
        <time>2021-11-06T07:10:55.000Z</time>
      </trkpt>
      <trkpt lat="45.25506" lon="5.79259">
        <ele>1317.5999755859</ele>
        <time>2021-11-06T07:10:56.000Z</time>
      </trkpt>
      <trkpt lat="45.25512" lon="5.79263">
        <ele>1317.1999511719</ele>
        <time>2021-11-06T07:11:02.000Z</time>
      </trkpt>
      <trkpt lat="45.25513" lon="5.79263">
        <ele>1317.1999511719</ele>
        <time>2021-11-06T07:11:03.000Z</time>
      </trkpt>
      <trkpt lat="45.25513" lon="5.79263">
        <ele>1317</ele>
        <time>2021-11-06T07:11:05.000Z</time>
      </trkpt>
      <trkpt lat="45.25514" lon="5.79263">
        <ele>1316.8000488281</ele>
        <time>2021-11-06T07:11:06.000Z</time>
      </trkpt>
      <trkpt lat="45.25516" lon="5.79264">
        <ele>1316.1999511719</ele>
        <time>2021-11-06T07:11:08.000Z</time>
      </trkpt>
      <trkpt lat="45.25521" lon="5.79268">
        <ele>1315.8000488281</ele>
        <time>2021-11-06T07:11:12.000Z</time>
      </trkpt>
      <trkpt lat="45.25522" lon="5.79269">
        <ele>1315.5999755859</ele>
        <time>2021-11-06T07:11:14.000Z</time>
      </trkpt>
      <trkpt lat="45.25525" lon="5.79269">
        <ele>1315.5999755859</ele>
        <time>2021-11-06T07:11:17.000Z</time>
      </trkpt>
      <trkpt lat="45.25526" lon="5.7927">
        <ele>1315.5999755859</ele>
        <time>2021-11-06T07:11:18.000Z</time>
      </trkpt>
      <trkpt lat="45.25528" lon="5.79271">
        <ele>1315.5999755859</ele>
        <time>2021-11-06T07:11:19.000Z</time>
      </trkpt>
      <trkpt lat="45.25531" lon="5.79273">
        <ele>1315.8000488281</ele>
        <time>2021-11-06T07:11:24.000Z</time>
      </trkpt>
      <trkpt lat="45.25531" lon="5.79273">
        <ele>1315.8000488281</ele>
        <time>2021-11-06T07:11:25.000Z</time>
      </trkpt>
      <trkpt lat="45.25531" lon="5.79273">
        <ele>1315.8000488281</ele>
        <time>2021-11-06T07:11:26.000Z</time>
      </trkpt>
      <trkpt lat="45.25531" lon="5.79272">
        <ele>1315.5999755859</ele>
        <time>2021-11-06T07:11:28.000Z</time>
      </trkpt>
      <trkpt lat="45.25533" lon="5.79271">
        <ele>1315.1999511719</ele>
        <time>2021-11-06T07:11:30.000Z</time>
      </trkpt>
      <trkpt lat="45.25534" lon="5.79271">
        <ele>1315.1999511719</ele>
        <time>2021-11-06T07:11:31.000Z</time>
      </trkpt>
      <trkpt lat="45.25535" lon="5.79271">
        <ele>1315</ele>
        <time>2021-11-06T07:11:33.000Z</time>
      </trkpt>
      <trkpt lat="45.25538" lon="5.79275">
        <ele>1315</ele>
        <time>2021-11-06T07:11:36.000Z</time>
      </trkpt>
      <trkpt lat="45.25538" lon="5.79277">
        <ele>1315</ele>
        <time>2021-11-06T07:11:37.000Z</time>
      </trkpt>
      <trkpt lat="45.25538" lon="5.79279">
        <ele>1315.1999511719</ele>
        <time>2021-11-06T07:11:39.000Z</time>
      </trkpt>
      <trkpt lat="45.25539" lon="5.79284">
        <ele>1316.1999511719</ele>
        <time>2021-11-06T07:11:42.000Z</time>
      </trkpt>
      <trkpt lat="45.2554" lon="5.79289">
        <ele>1316.8000488281</ele>
        <time>2021-11-06T07:11:45.000Z</time>
      </trkpt>
      <trkpt lat="45.25543" lon="5.79293">
        <ele>1317.4000244141</ele>
        <time>2021-11-06T07:11:48.000Z</time>
      </trkpt>
      <trkpt lat="45.25545" lon="5.79295">
        <ele>1317.4000244141</ele>
        <time>2021-11-06T07:11:49.000Z</time>
      </trkpt>
      <trkpt lat="45.25549" lon="5.793">
        <ele>1317.8000488281</ele>
        <time>2021-11-06T07:11:53.000Z</time>
      </trkpt>
      <trkpt lat="45.25549" lon="5.793">
        <ele>1318</ele>
        <time>2021-11-06T07:11:54.000Z</time>
      </trkpt>
      <trkpt lat="45.2555" lon="5.79301">
        <ele>1318.1999511719</ele>
        <time>2021-11-06T07:11:55.000Z</time>
      </trkpt>
      <trkpt lat="45.2555" lon="5.79301">
        <ele>1318.4000244141</ele>
        <time>2021-11-06T07:11:56.000Z</time>
      </trkpt>
      <trkpt lat="45.25552" lon="5.79302">
        <ele>1318.4000244141</ele>
        <time>2021-11-06T07:11:58.000Z</time>
      </trkpt>
      <trkpt lat="45.25552" lon="5.79302">
        <ele>1318.1999511719</ele>
        <time>2021-11-06T07:11:59.000Z</time>
      </trkpt>
      <trkpt lat="45.25553" lon="5.79304">
        <ele>1318</ele>
        <time>2021-11-06T07:12:01.000Z</time>
      </trkpt>
      <trkpt lat="45.25555" lon="5.79304">
        <ele>1317.8000488281</ele>
        <time>2021-11-06T07:12:03.000Z</time>
      </trkpt>
      <trkpt lat="45.25558" lon="5.79306">
        <ele>1317</ele>
        <time>2021-11-06T07:12:06.000Z</time>
      </trkpt>
      <trkpt lat="45.25559" lon="5.79307">
        <ele>1317</ele>
        <time>2021-11-06T07:12:07.000Z</time>
      </trkpt>
      <trkpt lat="45.2556" lon="5.79307">
        <ele>1316.8000488281</ele>
        <time>2021-11-06T07:12:08.000Z</time>
      </trkpt>
      <trkpt lat="45.25562" lon="5.7931">
        <ele>1315.5999755859</ele>
        <time>2021-11-06T07:12:14.000Z</time>
      </trkpt>
      <trkpt lat="45.25569" lon="5.79315">
        <ele>1315</ele>
        <time>2021-11-06T07:12:21.000Z</time>
      </trkpt>
      <trkpt lat="45.2557" lon="5.79315">
        <ele>1315</ele>
        <time>2021-11-06T07:12:22.000Z</time>
      </trkpt>
      <trkpt lat="45.25571" lon="5.79316">
        <ele>1315</ele>
        <time>2021-11-06T07:12:23.000Z</time>
      </trkpt>
      <trkpt lat="45.25572" lon="5.79317">
        <ele>1315</ele>
        <time>2021-11-06T07:12:24.000Z</time>
      </trkpt>
      <trkpt lat="45.25577" lon="5.79321">
        <ele>1315.4000244141</ele>
        <time>2021-11-06T07:12:28.000Z</time>
      </trkpt>
      <trkpt lat="45.25578" lon="5.79322">
        <ele>1315.4000244141</ele>
        <time>2021-11-06T07:12:29.000Z</time>
      </trkpt>
      <trkpt lat="45.25582" lon="5.79324">
        <ele>1315.5999755859</ele>
        <time>2021-11-06T07:12:34.000Z</time>
      </trkpt>
      <trkpt lat="45.25583" lon="5.79324">
        <ele>1315.1999511719</ele>
        <time>2021-11-06T07:12:36.000Z</time>
      </trkpt>
      <trkpt lat="45.25587" lon="5.79325">
        <ele>1314.5999755859</ele>
        <time>2021-11-06T07:12:39.000Z</time>
      </trkpt>
      <trkpt lat="45.25588" lon="5.79327">
        <ele>1314.4000244141</ele>
        <time>2021-11-06T07:12:41.000Z</time>
      </trkpt>
      <trkpt lat="45.25588" lon="5.79328">
        <ele>1314.4000244141</ele>
        <time>2021-11-06T07:12:42.000Z</time>
      </trkpt>
      <trkpt lat="45.25589" lon="5.79329">
        <ele>1314.1999511719</ele>
        <time>2021-11-06T07:12:43.000Z</time>
      </trkpt>
      <trkpt lat="45.2559" lon="5.79331">
        <ele>1314.1999511719</ele>
        <time>2021-11-06T07:12:44.000Z</time>
      </trkpt>
      <trkpt lat="45.25591" lon="5.79332">
        <ele>1314.5999755859</ele>
        <time>2021-11-06T07:12:47.000Z</time>
      </trkpt>
      <trkpt lat="45.25593" lon="5.79335">
        <ele>1315.1999511719</ele>
        <time>2021-11-06T07:12:49.000Z</time>
      </trkpt>
      <trkpt lat="45.25594" lon="5.79336">
        <ele>1315.4000244141</ele>
        <time>2021-11-06T07:12:50.000Z</time>
      </trkpt>
      <trkpt lat="45.25595" lon="5.79337">
        <ele>1315.5999755859</ele>
        <time>2021-11-06T07:12:51.000Z</time>
      </trkpt>
      <trkpt lat="45.25596" lon="5.79338">
        <ele>1315.8000488281</ele>
        <time>2021-11-06T07:12:53.000Z</time>
      </trkpt>
      <trkpt lat="45.25598" lon="5.7934">
        <ele>1316.1999511719</ele>
        <time>2021-11-06T07:12:55.000Z</time>
      </trkpt>
      <trkpt lat="45.256" lon="5.79342">
        <ele>1316.4000244141</ele>
        <time>2021-11-06T07:12:57.000Z</time>
      </trkpt>
      <trkpt lat="45.25602" lon="5.79344">
        <ele>1316.5999755859</ele>
        <time>2021-11-06T07:12:59.000Z</time>
      </trkpt>
      <trkpt lat="45.25603" lon="5.79346">
        <ele>1317.1999511719</ele>
        <time>2021-11-06T07:13:01.000Z</time>
      </trkpt>
      <trkpt lat="45.25603" lon="5.79347">
        <ele>1317.5999755859</ele>
        <time>2021-11-06T07:13:02.000Z</time>
      </trkpt>
      <trkpt lat="45.25603" lon="5.79348">
        <ele>1318</ele>
        <time>2021-11-06T07:13:03.000Z</time>
      </trkpt>
      <trkpt lat="45.25603" lon="5.7935">
        <ele>1318.4000244141</ele>
        <time>2021-11-06T07:13:05.000Z</time>
      </trkpt>
      <trkpt lat="45.25603" lon="5.79352">
        <ele>1318.8000488281</ele>
        <time>2021-11-06T07:13:07.000Z</time>
      </trkpt>
      <trkpt lat="45.25605" lon="5.79354">
        <ele>1319.4000244141</ele>
        <time>2021-11-06T07:13:09.000Z</time>
      </trkpt>
      <trkpt lat="45.25606" lon="5.79357">
        <ele>1320.1999511719</ele>
        <time>2021-11-06T07:13:11.000Z</time>
      </trkpt>
      <trkpt lat="45.25606" lon="5.79358">
        <ele>1320.5999755859</ele>
        <time>2021-11-06T07:13:13.000Z</time>
      </trkpt>
      <trkpt lat="45.25606" lon="5.79359">
        <ele>1320.8000488281</ele>
        <time>2021-11-06T07:13:14.000Z</time>
      </trkpt>
      <trkpt lat="45.25606" lon="5.79361">
        <ele>1321.1999511719</ele>
        <time>2021-11-06T07:13:16.000Z</time>
      </trkpt>
      <trkpt lat="45.25605" lon="5.79361">
        <ele>1321.1999511719</ele>
        <time>2021-11-06T07:13:17.000Z</time>
      </trkpt>
      <trkpt lat="45.25603" lon="5.79363">
        <ele>1322.1999511719</ele>
        <time>2021-11-06T07:13:21.000Z</time>
      </trkpt>
      <trkpt lat="45.25603" lon="5.79364">
        <ele>1322.5999755859</ele>
        <time>2021-11-06T07:13:22.000Z</time>
      </trkpt>
      <trkpt lat="45.25603" lon="5.79367">
        <ele>1323.1999511719</ele>
        <time>2021-11-06T07:13:25.000Z</time>
      </trkpt>
      <trkpt lat="45.25603" lon="5.79367">
        <ele>1323.5999755859</ele>
        <time>2021-11-06T07:13:26.000Z</time>
      </trkpt>
      <trkpt lat="45.25602" lon="5.79368">
        <ele>1324.1999511719</ele>
        <time>2021-11-06T07:13:28.000Z</time>
      </trkpt>
      <trkpt lat="45.25603" lon="5.79368">
        <ele>1324.5999755859</ele>
        <time>2021-11-06T07:13:29.000Z</time>
      </trkpt>
      <trkpt lat="45.25603" lon="5.79368">
        <ele>1324.8000488281</ele>
        <time>2021-11-06T07:13:30.000Z</time>
      </trkpt>
      <trkpt lat="45.25603" lon="5.7937">
        <ele>1325.1999511719</ele>
        <time>2021-11-06T07:13:33.000Z</time>
      </trkpt>
      <trkpt lat="45.25603" lon="5.79369">
        <ele>1325.4000244141</ele>
        <time>2021-11-06T07:13:35.000Z</time>
      </trkpt>
      <trkpt lat="45.25606" lon="5.79372">
        <ele>1325.5999755859</ele>
        <time>2021-11-06T07:13:42.000Z</time>
      </trkpt>
      <trkpt lat="45.25609" lon="5.79376">
        <ele>1325.4000244141</ele>
        <time>2021-11-06T07:13:47.000Z</time>
      </trkpt>
      <trkpt lat="45.25611" lon="5.79379">
        <ele>1325.4000244141</ele>
        <time>2021-11-06T07:13:50.000Z</time>
      </trkpt>
      <trkpt lat="45.25612" lon="5.7938">
        <ele>1325.4000244141</ele>
        <time>2021-11-06T07:13:52.000Z</time>
      </trkpt>
      <trkpt lat="45.25615" lon="5.79386">
        <ele>1325.8000488281</ele>
        <time>2021-11-06T07:13:56.000Z</time>
      </trkpt>
      <trkpt lat="45.25617" lon="5.79388">
        <ele>1326.1999511719</ele>
        <time>2021-11-06T07:13:58.000Z</time>
      </trkpt>
      <trkpt lat="45.25618" lon="5.79391">
        <ele>1327</ele>
        <time>2021-11-06T07:14:01.000Z</time>
      </trkpt>
      <trkpt lat="45.25616" lon="5.79393">
        <ele>1328</ele>
        <time>2021-11-06T07:14:05.000Z</time>
      </trkpt>
      <trkpt lat="45.25616" lon="5.79394">
        <ele>1328.1999511719</ele>
        <time>2021-11-06T07:14:06.000Z</time>
      </trkpt>
      <trkpt lat="45.25616" lon="5.79394">
        <ele>1328.1999511719</ele>
        <time>2021-11-06T07:14:07.000Z</time>
      </trkpt>
      <trkpt lat="45.25617" lon="5.79392">
        <ele>1328.1999511719</ele>
        <time>2021-11-06T07:14:15.000Z</time>
      </trkpt>
      <trkpt lat="45.25617" lon="5.79392">
        <ele>1328.1999511719</ele>
        <time>2021-11-06T07:14:18.000Z</time>
      </trkpt>
      <trkpt lat="45.25617" lon="5.79393">
        <ele>1328.4000244141</ele>
        <time>2021-11-06T07:14:26.000Z</time>
      </trkpt>
      <trkpt lat="45.25616" lon="5.79394">
        <ele>1328.1999511719</ele>
        <time>2021-11-06T07:14:31.000Z</time>
      </trkpt>
      <trkpt lat="45.25616" lon="5.79394">
        <ele>1328.1999511719</ele>
        <time>2021-11-06T07:14:34.000Z</time>
      </trkpt>
      <trkpt lat="45.25616" lon="5.79394">
        <ele>1328</ele>
        <time>2021-11-06T07:14:38.000Z</time>
      </trkpt>
      <trkpt lat="45.25616" lon="5.79394">
        <ele>1328</ele>
        <time>2021-11-06T07:14:42.000Z</time>
      </trkpt>
      <trkpt lat="45.25614" lon="5.79393">
        <ele>1327.8000488281</ele>
        <time>2021-11-06T07:14:51.000Z</time>
      </trkpt>
      <trkpt lat="45.25613" lon="5.79393">
        <ele>1327</ele>
        <time>2021-11-06T07:15:01.000Z</time>
      </trkpt>
      <trkpt lat="45.25613" lon="5.79392">
        <ele>1326</ele>
        <time>2021-11-06T07:15:08.000Z</time>
      </trkpt>
      <trkpt lat="45.25613" lon="5.7939">
        <ele>1325</ele>
        <time>2021-11-06T07:15:14.000Z</time>
      </trkpt>
      <trkpt lat="45.25606" lon="5.79381">
        <ele>1324.8000488281</ele>
        <time>2021-11-06T07:15:31.000Z</time>
      </trkpt>
      <trkpt lat="45.25604" lon="5.79379">
        <ele>1324.5999755859</ele>
        <time>2021-11-06T07:15:33.000Z</time>
      </trkpt>
      <trkpt lat="45.25599" lon="5.79374">
        <ele>1324.5999755859</ele>
        <time>2021-11-06T07:15:37.000Z</time>
      </trkpt>
      <trkpt lat="45.25597" lon="5.79372">
        <ele>1324.5999755859</ele>
        <time>2021-11-06T07:15:40.000Z</time>
      </trkpt>
      <trkpt lat="45.25597" lon="5.7937">
        <ele>1324.4000244141</ele>
        <time>2021-11-06T07:15:46.000Z</time>
      </trkpt>
      <trkpt lat="45.25597" lon="5.79368">
        <ele>1323.8000488281</ele>
        <time>2021-11-06T07:15:48.000Z</time>
      </trkpt>
      <trkpt lat="45.25599" lon="5.79364">
        <ele>1322.4000244141</ele>
        <time>2021-11-06T07:15:53.000Z</time>
      </trkpt>
      <trkpt lat="45.25599" lon="5.79364">
        <ele>1322.1999511719</ele>
        <time>2021-11-06T07:15:54.000Z</time>
      </trkpt>
      <trkpt lat="45.25601" lon="5.79364">
        <ele>1321.4000244141</ele>
        <time>2021-11-06T07:16:00.000Z</time>
      </trkpt>
      <trkpt lat="45.25601" lon="5.79365">
        <ele>1321.4000244141</ele>
        <time>2021-11-06T07:16:05.000Z</time>
      </trkpt>
      <trkpt lat="45.25601" lon="5.79365">
        <ele>1321.1999511719</ele>
        <time>2021-11-06T07:16:06.000Z</time>
      </trkpt>
      <trkpt lat="45.25601" lon="5.79365">
        <ele>1321.1999511719</ele>
        <time>2021-11-06T07:16:15.000Z</time>
      </trkpt>
      <trkpt lat="45.25601" lon="5.79365">
        <ele>1321.1999511719</ele>
        <time>2021-11-06T07:16:17.000Z</time>
      </trkpt>
      <trkpt lat="45.25601" lon="5.79365">
        <ele>1321.1999511719</ele>
        <time>2021-11-06T07:16:20.000Z</time>
      </trkpt>
      <trkpt lat="45.25602" lon="5.79365">
        <ele>1321.4000244141</ele>
        <time>2021-11-06T07:16:30.000Z</time>
      </trkpt>
      <trkpt lat="45.25602" lon="5.79365">
        <ele>1321.4000244141</ele>
        <time>2021-11-06T07:16:33.000Z</time>
      </trkpt>
      <trkpt lat="45.25602" lon="5.79365">
        <ele>1320.5999755859</ele>
        <time>2021-11-06T07:16:38.000Z</time>
      </trkpt>
      <trkpt lat="45.25602" lon="5.79365">
        <ele>1320.4000244141</ele>
        <time>2021-11-06T07:16:40.000Z</time>
      </trkpt>
      <trkpt lat="45.25602" lon="5.79365">
        <ele>1320.1999511719</ele>
        <time>2021-11-06T07:16:42.000Z</time>
      </trkpt>
      <trkpt lat="45.25603" lon="5.79364">
        <ele>1319.4000244141</ele>
        <time>2021-11-06T07:16:50.000Z</time>
      </trkpt>
      <trkpt lat="45.25603" lon="5.79362">
        <ele>1318.4000244141</ele>
        <time>2021-11-06T07:16:56.000Z</time>
      </trkpt>
      <trkpt lat="45.25604" lon="5.79362">
        <ele>1317.1999511719</ele>
        <time>2021-11-06T07:17:03.000Z</time>
      </trkpt>
      <trkpt lat="45.25603" lon="5.7936">
        <ele>1316.1999511719</ele>
        <time>2021-11-06T07:17:07.000Z</time>
      </trkpt>
      <trkpt lat="45.256" lon="5.79354">
        <ele>1315.5999755859</ele>
        <time>2021-11-06T07:17:10.000Z</time>
      </trkpt>
      <trkpt lat="45.25599" lon="5.79352">
        <ele>1315.4000244141</ele>
        <time>2021-11-06T07:17:11.000Z</time>
      </trkpt>
      <trkpt lat="45.25597" lon="5.79349">
        <ele>1315.1999511719</ele>
        <time>2021-11-06T07:17:12.000Z</time>
      </trkpt>
      <trkpt lat="45.25595" lon="5.79346">
        <ele>1315</ele>
        <time>2021-11-06T07:17:13.000Z</time>
      </trkpt>
      <trkpt lat="45.25593" lon="5.79341">
        <ele>1314.5999755859</ele>
        <time>2021-11-06T07:17:15.000Z</time>
      </trkpt>
      <trkpt lat="45.25592" lon="5.79339">
        <ele>1314.4000244141</ele>
        <time>2021-11-06T07:17:16.000Z</time>
      </trkpt>
      <trkpt lat="45.25591" lon="5.79338">
        <ele>1314.1999511719</ele>
        <time>2021-11-06T07:17:17.000Z</time>
      </trkpt>
      <trkpt lat="45.2559" lon="5.79335">
        <ele>1313.8000488281</ele>
        <time>2021-11-06T07:17:20.000Z</time>
      </trkpt>
      <trkpt lat="45.2559" lon="5.79334">
        <ele>1313.5999755859</ele>
        <time>2021-11-06T07:17:22.000Z</time>
      </trkpt>
      <trkpt lat="45.25589" lon="5.79333">
        <ele>1313.4000244141</ele>
        <time>2021-11-06T07:17:23.000Z</time>
      </trkpt>
      <trkpt lat="45.25588" lon="5.79332">
        <ele>1313.4000244141</ele>
        <time>2021-11-06T07:17:24.000Z</time>
      </trkpt>
      <trkpt lat="45.25587" lon="5.79332">
        <ele>1313.1999511719</ele>
        <time>2021-11-06T07:17:25.000Z</time>
      </trkpt>
      <trkpt lat="45.25585" lon="5.79331">
        <ele>1313.5999755859</ele>
        <time>2021-11-06T07:17:28.000Z</time>
      </trkpt>
      <trkpt lat="45.25583" lon="5.79332">
        <ele>1314.4000244141</ele>
        <time>2021-11-06T07:17:31.000Z</time>
      </trkpt>
      <trkpt lat="45.25579" lon="5.79329">
        <ele>1314.5999755859</ele>
        <time>2021-11-06T07:17:34.000Z</time>
      </trkpt>
      <trkpt lat="45.25577" lon="5.79327">
        <ele>1314.5999755859</ele>
        <time>2021-11-06T07:17:35.000Z</time>
      </trkpt>
      <trkpt lat="45.25576" lon="5.79325">
        <ele>1314.5999755859</ele>
        <time>2021-11-06T07:17:37.000Z</time>
      </trkpt>
      <trkpt lat="45.25571" lon="5.79321">
        <ele>1314.5999755859</ele>
        <time>2021-11-06T07:17:40.000Z</time>
      </trkpt>
      <trkpt lat="45.25569" lon="5.7932">
        <ele>1314.4000244141</ele>
        <time>2021-11-06T07:17:42.000Z</time>
      </trkpt>
      <trkpt lat="45.25565" lon="5.79318">
        <ele>1314.5999755859</ele>
        <time>2021-11-06T07:17:46.000Z</time>
      </trkpt>
      <trkpt lat="45.25566" lon="5.79319">
        <ele>1314.8000488281</ele>
        <time>2021-11-06T07:17:49.000Z</time>
      </trkpt>
      <trkpt lat="45.25566" lon="5.7932">
        <ele>1315.5999755859</ele>
        <time>2021-11-06T07:17:52.000Z</time>
      </trkpt>
      <trkpt lat="45.25566" lon="5.7932">
        <ele>1315.8000488281</ele>
        <time>2021-11-06T07:17:53.000Z</time>
      </trkpt>
      <trkpt lat="45.25565" lon="5.7932">
        <ele>1316</ele>
        <time>2021-11-06T07:17:54.000Z</time>
      </trkpt>
      <trkpt lat="45.25563" lon="5.7932">
        <ele>1316</ele>
        <time>2021-11-06T07:17:55.000Z</time>
      </trkpt>
      <trkpt lat="45.25561" lon="5.79317">
        <ele>1316.1999511719</ele>
        <time>2021-11-06T07:17:57.000Z</time>
      </trkpt>
      <trkpt lat="45.2556" lon="5.79317">
        <ele>1316.4000244141</ele>
        <time>2021-11-06T07:17:58.000Z</time>
      </trkpt>
      <trkpt lat="45.25559" lon="5.79317">
        <ele>1316.8000488281</ele>
        <time>2021-11-06T07:18:00.000Z</time>
      </trkpt>
      <trkpt lat="45.25558" lon="5.79317">
        <ele>1317</ele>
        <time>2021-11-06T07:18:01.000Z</time>
      </trkpt>
      <trkpt lat="45.25557" lon="5.79316">
        <ele>1317</ele>
        <time>2021-11-06T07:18:02.000Z</time>
      </trkpt>
      <trkpt lat="45.25556" lon="5.79315">
        <ele>1317.1999511719</ele>
        <time>2021-11-06T07:18:03.000Z</time>
      </trkpt>
      <trkpt lat="45.25554" lon="5.79314">
        <ele>1318</ele>
        <time>2021-11-06T07:18:06.000Z</time>
      </trkpt>
      <trkpt lat="45.25553" lon="5.79313">
        <ele>1318</ele>
        <time>2021-11-06T07:18:07.000Z</time>
      </trkpt>
      <trkpt lat="45.25546" lon="5.79302">
        <ele>1317.5999755859</ele>
        <time>2021-11-06T07:18:13.000Z</time>
      </trkpt>
      <trkpt lat="45.25543" lon="5.79294">
        <ele>1316.8000488281</ele>
        <time>2021-11-06T07:18:17.000Z</time>
      </trkpt>
      <trkpt lat="45.25542" lon="5.79287">
        <ele>1316.1999511719</ele>
        <time>2021-11-06T07:18:20.000Z</time>
      </trkpt>
      <trkpt lat="45.25541" lon="5.79286">
        <ele>1315.8000488281</ele>
        <time>2021-11-06T07:18:21.000Z</time>
      </trkpt>
      <trkpt lat="45.25538" lon="5.79282">
        <ele>1314.5999755859</ele>
        <time>2021-11-06T07:18:25.000Z</time>
      </trkpt>
      <trkpt lat="45.25538" lon="5.79281">
        <ele>1314.4000244141</ele>
        <time>2021-11-06T07:18:26.000Z</time>
      </trkpt>
      <trkpt lat="45.25537" lon="5.79281">
        <ele>1314.4000244141</ele>
        <time>2021-11-06T07:18:27.000Z</time>
      </trkpt>
      <trkpt lat="45.25533" lon="5.7928">
        <ele>1314.5999755859</ele>
        <time>2021-11-06T07:18:31.000Z</time>
      </trkpt>
      <trkpt lat="45.25533" lon="5.79281">
        <ele>1315</ele>
        <time>2021-11-06T07:18:33.000Z</time>
      </trkpt>
      <trkpt lat="45.25533" lon="5.79281">
        <ele>1315.4000244141</ele>
        <time>2021-11-06T07:18:35.000Z</time>
      </trkpt>
      <trkpt lat="45.25532" lon="5.7928">
        <ele>1315.5999755859</ele>
        <time>2021-11-06T07:18:36.000Z</time>
      </trkpt>
      <trkpt lat="45.2553" lon="5.79277">
        <ele>1315.8000488281</ele>
        <time>2021-11-06T07:18:38.000Z</time>
      </trkpt>
      <trkpt lat="45.25526" lon="5.79273">
        <ele>1315.8000488281</ele>
        <time>2021-11-06T07:18:43.000Z</time>
      </trkpt>
      <trkpt lat="45.25526" lon="5.79271">
        <ele>1315.8000488281</ele>
        <time>2021-11-06T07:18:44.000Z</time>
      </trkpt>
      <trkpt lat="45.25521" lon="5.79267">
        <ele>1315.5999755859</ele>
        <time>2021-11-06T07:18:49.000Z</time>
      </trkpt>
      <trkpt lat="45.25518" lon="5.79267">
        <ele>1315.8000488281</ele>
        <time>2021-11-06T07:18:53.000Z</time>
      </trkpt>
      <trkpt lat="45.25517" lon="5.79266">
        <ele>1316</ele>
        <time>2021-11-06T07:18:54.000Z</time>
      </trkpt>
      <trkpt lat="45.25516" lon="5.79266">
        <ele>1316.1999511719</ele>
        <time>2021-11-06T07:18:55.000Z</time>
      </trkpt>
      <trkpt lat="45.25515" lon="5.79266">
        <ele>1316.8000488281</ele>
        <time>2021-11-06T07:18:57.000Z</time>
      </trkpt>
      <trkpt lat="45.25512" lon="5.79265">
        <ele>1317.5999755859</ele>
        <time>2021-11-06T07:19:01.000Z</time>
      </trkpt>
      <trkpt lat="45.25507" lon="5.79262">
        <ele>1318</ele>
        <time>2021-11-06T07:19:07.000Z</time>
      </trkpt>
      <trkpt lat="45.25506" lon="5.79262">
        <ele>1318.1999511719</ele>
        <time>2021-11-06T07:19:08.000Z</time>
      </trkpt>
      <trkpt lat="45.25496" lon="5.79258">
        <ele>1318.8000488281</ele>
        <time>2021-11-06T07:19:14.000Z</time>
      </trkpt>
      <trkpt lat="45.25494" lon="5.79258">
        <ele>1319</ele>
        <time>2021-11-06T07:19:15.000Z</time>
      </trkpt>
      <trkpt lat="45.25491" lon="5.79255">
        <ele>1319.4000244141</ele>
        <time>2021-11-06T07:19:18.000Z</time>
      </trkpt>
      <trkpt lat="45.25489" lon="5.79252">
        <ele>1319.8000488281</ele>
        <time>2021-11-06T07:19:20.000Z</time>
      </trkpt>
      <trkpt lat="45.25486" lon="5.79246">
        <ele>1319.5999755859</ele>
        <time>2021-11-06T07:19:25.000Z</time>
      </trkpt>
      <trkpt lat="45.25483" lon="5.79244">
        <ele>1319.4000244141</ele>
        <time>2021-11-06T07:19:27.000Z</time>
      </trkpt>
      <trkpt lat="45.25478" lon="5.79242">
        <ele>1320.1999511719</ele>
        <time>2021-11-06T07:19:32.000Z</time>
      </trkpt>
      <trkpt lat="45.25477" lon="5.79242">
        <ele>1321</ele>
        <time>2021-11-06T07:19:34.000Z</time>
      </trkpt>
      <trkpt lat="45.25476" lon="5.79243">
        <ele>1321.1999511719</ele>
        <time>2021-11-06T07:19:35.000Z</time>
      </trkpt>
      <trkpt lat="45.25473" lon="5.79244">
        <ele>1321.8000488281</ele>
        <time>2021-11-06T07:19:38.000Z</time>
      </trkpt>
      <trkpt lat="45.25471" lon="5.79243">
        <ele>1321.8000488281</ele>
        <time>2021-11-06T07:19:40.000Z</time>
      </trkpt>
      <trkpt lat="45.25466" lon="5.79239">
        <ele>1321.8000488281</ele>
        <time>2021-11-06T07:19:45.000Z</time>
      </trkpt>
      <trkpt lat="45.25463" lon="5.79235">
        <ele>1321.4000244141</ele>
        <time>2021-11-06T07:19:48.000Z</time>
      </trkpt>
      <trkpt lat="45.25461" lon="5.79233">
        <ele>1321.4000244141</ele>
        <time>2021-11-06T07:19:50.000Z</time>
      </trkpt>
      <trkpt lat="45.25458" lon="5.79231">
        <ele>1321.8000488281</ele>
        <time>2021-11-06T07:19:53.000Z</time>
      </trkpt>
      <trkpt lat="45.25458" lon="5.79231">
        <ele>1322</ele>
        <time>2021-11-06T07:19:54.000Z</time>
      </trkpt>
      <trkpt lat="45.25455" lon="5.7923">
        <ele>1322.4000244141</ele>
        <time>2021-11-06T07:19:57.000Z</time>
      </trkpt>
      <trkpt lat="45.25454" lon="5.79229">
        <ele>1322.4000244141</ele>
        <time>2021-11-06T07:19:59.000Z</time>
      </trkpt>
      <trkpt lat="45.2545" lon="5.79222">
        <ele>1321.4000244141</ele>
        <time>2021-11-06T07:20:06.000Z</time>
      </trkpt>
      <trkpt lat="45.25447" lon="5.79221">
        <ele>1321</ele>
        <time>2021-11-06T07:20:08.000Z</time>
      </trkpt>
      <trkpt lat="45.25442" lon="5.79215">
        <ele>1320.4000244141</ele>
        <time>2021-11-06T07:20:13.000Z</time>
      </trkpt>
      <trkpt lat="45.25442" lon="5.79214">
        <ele>1320.1999511719</ele>
        <time>2021-11-06T07:20:14.000Z</time>
      </trkpt>
      <trkpt lat="45.2544" lon="5.79211">
        <ele>1319.8000488281</ele>
        <time>2021-11-06T07:20:16.000Z</time>
      </trkpt>
      <trkpt lat="45.25438" lon="5.79206">
        <ele>1319.8000488281</ele>
        <time>2021-11-06T07:20:19.000Z</time>
      </trkpt>
      <trkpt lat="45.25436" lon="5.79201">
        <ele>1319.5999755859</ele>
        <time>2021-11-06T07:20:23.000Z</time>
      </trkpt>
      <trkpt lat="45.25435" lon="5.79199">
        <ele>1319</ele>
        <time>2021-11-06T07:20:26.000Z</time>
      </trkpt>
      <trkpt lat="45.25435" lon="5.792">
        <ele>1318.8000488281</ele>
        <time>2021-11-06T07:20:27.000Z</time>
      </trkpt>
      <trkpt lat="45.25433" lon="5.79197">
        <ele>1319</ele>
        <time>2021-11-06T07:20:31.000Z</time>
      </trkpt>
      <trkpt lat="45.25432" lon="5.79193">
        <ele>1319.1999511719</ele>
        <time>2021-11-06T07:20:34.000Z</time>
      </trkpt>
      <trkpt lat="45.25426" lon="5.79186">
        <ele>1318.8000488281</ele>
        <time>2021-11-06T07:20:40.000Z</time>
      </trkpt>
      <trkpt lat="45.25425" lon="5.79183">
        <ele>1319</ele>
        <time>2021-11-06T07:20:42.000Z</time>
      </trkpt>
      <trkpt lat="45.25425" lon="5.79182">
        <ele>1319</ele>
        <time>2021-11-06T07:20:43.000Z</time>
      </trkpt>
      <trkpt lat="45.25425" lon="5.79178">
        <ele>1318</ele>
        <time>2021-11-06T07:20:47.000Z</time>
      </trkpt>
      <trkpt lat="45.25426" lon="5.79178">
        <ele>1317.8000488281</ele>
        <time>2021-11-06T07:20:48.000Z</time>
      </trkpt>
      <trkpt lat="45.25426" lon="5.79178">
        <ele>1317</ele>
        <time>2021-11-06T07:20:51.000Z</time>
      </trkpt>
      <trkpt lat="45.25427" lon="5.79177">
        <ele>1316.8000488281</ele>
        <time>2021-11-06T07:20:52.000Z</time>
      </trkpt>
      <trkpt lat="45.25427" lon="5.79174">
        <ele>1316</ele>
        <time>2021-11-06T07:20:55.000Z</time>
      </trkpt>
      <trkpt lat="45.25427" lon="5.79173">
        <ele>1315.5999755859</ele>
        <time>2021-11-06T07:20:56.000Z</time>
      </trkpt>
      <trkpt lat="45.25427" lon="5.79169">
        <ele>1314.8000488281</ele>
        <time>2021-11-06T07:21:00.000Z</time>
      </trkpt>
      <trkpt lat="45.25426" lon="5.79168">
        <ele>1314.4000244141</ele>
        <time>2021-11-06T07:21:01.000Z</time>
      </trkpt>
      <trkpt lat="45.25424" lon="5.79164">
        <ele>1313.1999511719</ele>
        <time>2021-11-06T07:21:05.000Z</time>
      </trkpt>
      <trkpt lat="45.25422" lon="5.79159">
        <ele>1312.8000488281</ele>
        <time>2021-11-06T07:21:08.000Z</time>
      </trkpt>
      <trkpt lat="45.25421" lon="5.79157">
        <ele>1312</ele>
        <time>2021-11-06T07:21:10.000Z</time>
      </trkpt>
      <trkpt lat="45.25419" lon="5.79153">
        <ele>1311.1999511719</ele>
        <time>2021-11-06T07:21:14.000Z</time>
      </trkpt>
      <trkpt lat="45.25418" lon="5.79151">
        <ele>1310.8000488281</ele>
        <time>2021-11-06T07:21:15.000Z</time>
      </trkpt>
      <trkpt lat="45.25411" lon="5.79146">
        <ele>1310.1999511719</ele>
        <time>2021-11-06T07:21:21.000Z</time>
      </trkpt>
      <trkpt lat="45.25411" lon="5.79145">
        <ele>1310.1999511719</ele>
        <time>2021-11-06T07:21:22.000Z</time>
      </trkpt>
      <trkpt lat="45.25409" lon="5.79139">
        <ele>1310.4000244141</ele>
        <time>2021-11-06T07:21:25.000Z</time>
      </trkpt>
      <trkpt lat="45.25409" lon="5.79139">
        <ele>1310.4000244141</ele>
        <time>2021-11-06T07:21:26.000Z</time>
      </trkpt>
      <trkpt lat="45.25408" lon="5.79137">
        <ele>1310.4000244141</ele>
        <time>2021-11-06T07:21:28.000Z</time>
      </trkpt>
      <trkpt lat="45.25407" lon="5.79136">
        <ele>1310.4000244141</ele>
        <time>2021-11-06T07:21:30.000Z</time>
      </trkpt>
      <trkpt lat="45.25407" lon="5.79136">
        <ele>1310.4000244141</ele>
        <time>2021-11-06T07:21:31.000Z</time>
      </trkpt>
      <trkpt lat="45.25404" lon="5.79141">
        <ele>1312</ele>
        <time>2021-11-06T07:21:36.000Z</time>
      </trkpt>
      <trkpt lat="45.25403" lon="5.7914">
        <ele>1312.1999511719</ele>
        <time>2021-11-06T07:21:37.000Z</time>
      </trkpt>
      <trkpt lat="45.25401" lon="5.79141">
        <ele>1313</ele>
        <time>2021-11-06T07:21:39.000Z</time>
      </trkpt>
      <trkpt lat="45.254" lon="5.79141">
        <ele>1313.1999511719</ele>
        <time>2021-11-06T07:21:40.000Z</time>
      </trkpt>
      <trkpt lat="45.25397" lon="5.79142">
        <ele>1314.1999511719</ele>
        <time>2021-11-06T07:21:42.000Z</time>
      </trkpt>
      <trkpt lat="45.25396" lon="5.79142">
        <ele>1314.1999511719</ele>
        <time>2021-11-06T07:21:43.000Z</time>
      </trkpt>
      <trkpt lat="45.25393" lon="5.79139">
        <ele>1315</ele>
        <time>2021-11-06T07:21:45.000Z</time>
      </trkpt>
      <trkpt lat="45.25391" lon="5.79137">
        <ele>1315.5999755859</ele>
        <time>2021-11-06T07:21:47.000Z</time>
      </trkpt>
      <trkpt lat="45.25389" lon="5.79137">
        <ele>1315.8000488281</ele>
        <time>2021-11-06T07:21:48.000Z</time>
      </trkpt>
      <trkpt lat="45.25386" lon="5.79135">
        <ele>1316.5999755859</ele>
        <time>2021-11-06T07:21:51.000Z</time>
      </trkpt>
      <trkpt lat="45.25383" lon="5.79131">
        <ele>1317.4000244141</ele>
        <time>2021-11-06T07:21:54.000Z</time>
      </trkpt>
      <trkpt lat="45.2538" lon="5.79129">
        <ele>1317.5999755859</ele>
        <time>2021-11-06T07:21:56.000Z</time>
      </trkpt>
      <trkpt lat="45.25378" lon="5.79126">
        <ele>1317.8000488281</ele>
        <time>2021-11-06T07:21:58.000Z</time>
      </trkpt>
      <trkpt lat="45.25377" lon="5.79125">
        <ele>1317.8000488281</ele>
        <time>2021-11-06T07:21:59.000Z</time>
      </trkpt>
      <trkpt lat="45.25376" lon="5.79124">
        <ele>1317.5999755859</ele>
        <time>2021-11-06T07:22:00.000Z</time>
      </trkpt>
      <trkpt lat="45.25372" lon="5.79118">
        <ele>1316.5999755859</ele>
        <time>2021-11-06T07:22:04.000Z</time>
      </trkpt>
      <trkpt lat="45.25371" lon="5.79117">
        <ele>1316.4000244141</ele>
        <time>2021-11-06T07:22:05.000Z</time>
      </trkpt>
      <trkpt lat="45.25367" lon="5.79111">
        <ele>1315.8000488281</ele>
        <time>2021-11-06T07:22:09.000Z</time>
      </trkpt>
      <trkpt lat="45.25363" lon="5.79111">
        <ele>1316.4000244141</ele>
        <time>2021-11-06T07:22:12.000Z</time>
      </trkpt>
      <trkpt lat="45.2536" lon="5.79113">
        <ele>1317.4000244141</ele>
        <time>2021-11-06T07:22:16.000Z</time>
      </trkpt>
      <trkpt lat="45.25358" lon="5.79111">
        <ele>1318</ele>
        <time>2021-11-06T07:22:18.000Z</time>
      </trkpt>
      <trkpt lat="45.25356" lon="5.79108">
        <ele>1318.5999755859</ele>
        <time>2021-11-06T07:22:22.000Z</time>
      </trkpt>
      <trkpt lat="45.25356" lon="5.79107">
        <ele>1318.8000488281</ele>
        <time>2021-11-06T07:22:23.000Z</time>
      </trkpt>
      <trkpt lat="45.25355" lon="5.79107">
        <ele>1319</ele>
        <time>2021-11-06T07:22:24.000Z</time>
      </trkpt>
      <trkpt lat="45.25353" lon="5.79105">
        <ele>1319</ele>
        <time>2021-11-06T07:22:26.000Z</time>
      </trkpt>
      <trkpt lat="45.2535" lon="5.791">
        <ele>1318.1999511719</ele>
        <time>2021-11-06T07:22:30.000Z</time>
      </trkpt>
      <trkpt lat="45.25349" lon="5.791">
        <ele>1318.4000244141</ele>
        <time>2021-11-06T07:22:31.000Z</time>
      </trkpt>
      <trkpt lat="45.25346" lon="5.79097">
        <ele>1318.4000244141</ele>
        <time>2021-11-06T07:22:34.000Z</time>
      </trkpt>
      <trkpt lat="45.25344" lon="5.79094">
        <ele>1318.4000244141</ele>
        <time>2021-11-06T07:22:35.000Z</time>
      </trkpt>
      <trkpt lat="45.25339" lon="5.79091">
        <ele>1318.1999511719</ele>
        <time>2021-11-06T07:22:39.000Z</time>
      </trkpt>
      <trkpt lat="45.25332" lon="5.79084">
        <ele>1319</ele>
        <time>2021-11-06T07:22:45.000Z</time>
      </trkpt>
      <trkpt lat="45.25326" lon="5.79085">
        <ele>1320.1999511719</ele>
        <time>2021-11-06T07:22:52.000Z</time>
      </trkpt>
      <trkpt lat="45.25324" lon="5.79083">
        <ele>1320.5999755859</ele>
        <time>2021-11-06T07:22:54.000Z</time>
      </trkpt>
      <trkpt lat="45.25322" lon="5.79076">
        <ele>1320.5999755859</ele>
        <time>2021-11-06T07:22:57.000Z</time>
      </trkpt>
      <trkpt lat="45.25317" lon="5.79068">
        <ele>1320</ele>
        <time>2021-11-06T07:23:04.000Z</time>
      </trkpt>
      <trkpt lat="45.25314" lon="5.79068">
        <ele>1320</ele>
        <time>2021-11-06T07:23:06.000Z</time>
      </trkpt>
      <trkpt lat="45.25309" lon="5.79065">
        <ele>1320.4000244141</ele>
        <time>2021-11-06T07:23:08.000Z</time>
      </trkpt>
      <trkpt lat="45.25308" lon="5.79064">
        <ele>1320.4000244141</ele>
        <time>2021-11-06T07:23:09.000Z</time>
      </trkpt>
      <trkpt lat="45.25306" lon="5.79063">
        <ele>1320.5999755859</ele>
        <time>2021-11-06T07:23:11.000Z</time>
      </trkpt>
      <trkpt lat="45.25301" lon="5.79059">
        <ele>1321.1999511719</ele>
        <time>2021-11-06T07:23:15.000Z</time>
      </trkpt>
      <trkpt lat="45.25299" lon="5.79058">
        <ele>1321.1999511719</ele>
        <time>2021-11-06T07:23:17.000Z</time>
      </trkpt>
      <trkpt lat="45.25293" lon="5.79055">
        <ele>1322.1999511719</ele>
        <time>2021-11-06T07:23:22.000Z</time>
      </trkpt>
      <trkpt lat="45.25292" lon="5.79055">
        <ele>1322.4000244141</ele>
        <time>2021-11-06T07:23:23.000Z</time>
      </trkpt>
      <trkpt lat="45.25291" lon="5.79057">
        <ele>1323.8000488281</ele>
        <time>2021-11-06T07:23:27.000Z</time>
      </trkpt>
      <trkpt lat="45.25286" lon="5.79054">
        <ele>1325</ele>
        <time>2021-11-06T07:23:31.000Z</time>
      </trkpt>
      <trkpt lat="45.25285" lon="5.79054">
        <ele>1325.5999755859</ele>
        <time>2021-11-06T07:23:33.000Z</time>
      </trkpt>
      <trkpt lat="45.25283" lon="5.79053">
        <ele>1326</ele>
        <time>2021-11-06T07:23:35.000Z</time>
      </trkpt>
      <trkpt lat="45.25282" lon="5.79055">
        <ele>1327.1999511719</ele>
        <time>2021-11-06T07:23:37.000Z</time>
      </trkpt>
      <trkpt lat="45.25281" lon="5.79055">
        <ele>1327.4000244141</ele>
        <time>2021-11-06T07:23:38.000Z</time>
      </trkpt>
      <trkpt lat="45.25278" lon="5.79054">
        <ele>1328.4000244141</ele>
        <time>2021-11-06T07:23:41.000Z</time>
      </trkpt>
      <trkpt lat="45.25277" lon="5.79053">
        <ele>1328.5999755859</ele>
        <time>2021-11-06T07:23:42.000Z</time>
      </trkpt>
      <trkpt lat="45.25272" lon="5.79052">
        <ele>1329.4000244141</ele>
        <time>2021-11-06T07:23:46.000Z</time>
      </trkpt>
      <trkpt lat="45.25266" lon="5.7905">
        <ele>1330.4000244141</ele>
        <time>2021-11-06T07:23:50.000Z</time>
      </trkpt>
      <trkpt lat="45.25264" lon="5.7905">
        <ele>1330.5999755859</ele>
        <time>2021-11-06T07:23:51.000Z</time>
      </trkpt>
      <trkpt lat="45.25262" lon="5.79049">
        <ele>1331</ele>
        <time>2021-11-06T07:23:53.000Z</time>
      </trkpt>
      <trkpt lat="45.25261" lon="5.7905">
        <ele>1331.5999755859</ele>
        <time>2021-11-06T07:23:55.000Z</time>
      </trkpt>
      <trkpt lat="45.2526" lon="5.7905">
        <ele>1331.8000488281</ele>
        <time>2021-11-06T07:23:56.000Z</time>
      </trkpt>
      <trkpt lat="45.25258" lon="5.79049">
        <ele>1332.1999511719</ele>
        <time>2021-11-06T07:23:58.000Z</time>
      </trkpt>
      <trkpt lat="45.25254" lon="5.79046">
        <ele>1333.1999511719</ele>
        <time>2021-11-06T07:24:01.000Z</time>
      </trkpt>
      <trkpt lat="45.25253" lon="5.79044">
        <ele>1331</ele>
        <time>2021-11-06T07:24:03.000Z</time>
      </trkpt>
      <trkpt lat="45.25252" lon="5.79043">
        <ele>1331</ele>
        <time>2021-11-06T07:24:04.000Z</time>
      </trkpt>
      <trkpt lat="45.25251" lon="5.79043">
        <ele>1331</ele>
        <time>2021-11-06T07:24:06.000Z</time>
      </trkpt>
      <trkpt lat="45.2525" lon="5.79042">
        <ele>1331.4000244141</ele>
        <time>2021-11-06T07:24:08.000Z</time>
      </trkpt>
      <trkpt lat="45.25249" lon="5.7904">
        <ele>1332.1999511719</ele>
        <time>2021-11-06T07:24:10.000Z</time>
      </trkpt>
      <trkpt lat="45.25248" lon="5.7904">
        <ele>1332.1999511719</ele>
        <time>2021-11-06T07:24:11.000Z</time>
      </trkpt>
      <trkpt lat="45.25246" lon="5.7904">
        <ele>1332.8000488281</ele>
        <time>2021-11-06T07:24:13.000Z</time>
      </trkpt>
      <trkpt lat="45.25245" lon="5.7904">
        <ele>1332.8000488281</ele>
        <time>2021-11-06T07:24:14.000Z</time>
      </trkpt>
      <trkpt lat="45.25241" lon="5.79038">
        <ele>1333.5999755859</ele>
        <time>2021-11-06T07:24:18.000Z</time>
      </trkpt>
      <trkpt lat="45.25239" lon="5.79036">
        <ele>1334.1999511719</ele>
        <time>2021-11-06T07:24:20.000Z</time>
      </trkpt>
      <trkpt lat="45.25234" lon="5.79035">
        <ele>1334.5999755859</ele>
        <time>2021-11-06T07:24:23.000Z</time>
      </trkpt>
      <trkpt lat="45.2523" lon="5.79032">
        <ele>1335.4000244141</ele>
        <time>2021-11-06T07:24:26.000Z</time>
      </trkpt>
      <trkpt lat="45.25229" lon="5.79031">
        <ele>1335.4000244141</ele>
        <time>2021-11-06T07:24:27.000Z</time>
      </trkpt>
      <trkpt lat="45.25228" lon="5.7903">
        <ele>1335.8000488281</ele>
        <time>2021-11-06T07:24:29.000Z</time>
      </trkpt>
      <trkpt lat="45.25227" lon="5.79029">
        <ele>1336</ele>
        <time>2021-11-06T07:24:31.000Z</time>
      </trkpt>
      <trkpt lat="45.25225" lon="5.7903">
        <ele>1336.4000244141</ele>
        <time>2021-11-06T07:24:34.000Z</time>
      </trkpt>
      <trkpt lat="45.25222" lon="5.7903">
        <ele>1336.8000488281</ele>
        <time>2021-11-06T07:24:37.000Z</time>
      </trkpt>
      <trkpt lat="45.25219" lon="5.79029">
        <ele>1338</ele>
        <time>2021-11-06T07:24:40.000Z</time>
      </trkpt>
      <trkpt lat="45.25217" lon="5.79029">
        <ele>1339</ele>
        <time>2021-11-06T07:24:44.000Z</time>
      </trkpt>
      <trkpt lat="45.25213" lon="5.79027">
        <ele>1339.8000488281</ele>
        <time>2021-11-06T07:24:46.000Z</time>
      </trkpt>
      <trkpt lat="45.25211" lon="5.79026">
        <ele>1340.1999511719</ele>
        <time>2021-11-06T07:24:48.000Z</time>
      </trkpt>
      <trkpt lat="45.25205" lon="5.79019">
        <ele>1340.5999755859</ele>
        <time>2021-11-06T07:24:53.000Z</time>
      </trkpt>
      <trkpt lat="45.25201" lon="5.7901">
        <ele>1340.8000488281</ele>
        <time>2021-11-06T07:24:59.000Z</time>
      </trkpt>
      <trkpt lat="45.25201" lon="5.79004">
        <ele>1340</ele>
        <time>2021-11-06T07:25:03.000Z</time>
      </trkpt>
      <trkpt lat="45.25201" lon="5.79">
        <ele>1339</ele>
        <time>2021-11-06T07:25:06.000Z</time>
      </trkpt>
      <trkpt lat="45.252" lon="5.78994">
        <ele>1338</ele>
        <time>2021-11-06T07:25:09.000Z</time>
      </trkpt>
      <trkpt lat="45.252" lon="5.78992">
        <ele>1337.8000488281</ele>
        <time>2021-11-06T07:25:10.000Z</time>
      </trkpt>
      <trkpt lat="45.252" lon="5.78991">
        <ele>1337.5999755859</ele>
        <time>2021-11-06T07:25:11.000Z</time>
      </trkpt>
      <trkpt lat="45.25199" lon="5.7899">
        <ele>1337.4000244141</ele>
        <time>2021-11-06T07:25:12.000Z</time>
      </trkpt>
      <trkpt lat="45.25195" lon="5.78988">
        <ele>1337</ele>
        <time>2021-11-06T07:25:15.000Z</time>
      </trkpt>
      <trkpt lat="45.25191" lon="5.78984">
        <ele>1337.8000488281</ele>
        <time>2021-11-06T07:25:19.000Z</time>
      </trkpt>
      <trkpt lat="45.2519" lon="5.78981">
        <ele>1338</ele>
        <time>2021-11-06T07:25:21.000Z</time>
      </trkpt>
      <trkpt lat="45.25188" lon="5.78979">
        <ele>1338.5999755859</ele>
        <time>2021-11-06T07:25:23.000Z</time>
      </trkpt>
      <trkpt lat="45.25187" lon="5.78978">
        <ele>1339</ele>
        <time>2021-11-06T07:25:25.000Z</time>
      </trkpt>
      <trkpt lat="45.25186" lon="5.78978">
        <ele>1339.1999511719</ele>
        <time>2021-11-06T07:25:26.000Z</time>
      </trkpt>
      <trkpt lat="45.25186" lon="5.78978">
        <ele>1339.4000244141</ele>
        <time>2021-11-06T07:25:27.000Z</time>
      </trkpt>
      <trkpt lat="45.25185" lon="5.78978">
        <ele>1339.8000488281</ele>
        <time>2021-11-06T07:25:28.000Z</time>
      </trkpt>
      <trkpt lat="45.25184" lon="5.78977">
        <ele>1340.4000244141</ele>
        <time>2021-11-06T07:25:29.000Z</time>
      </trkpt>
      <trkpt lat="45.25183" lon="5.78975">
        <ele>1340.5999755859</ele>
        <time>2021-11-06T07:25:30.000Z</time>
      </trkpt>
      <trkpt lat="45.25182" lon="5.78975">
        <ele>1340.8000488281</ele>
        <time>2021-11-06T07:25:31.000Z</time>
      </trkpt>
      <trkpt lat="45.2518" lon="5.78973">
        <ele>1341.1999511719</ele>
        <time>2021-11-06T07:25:33.000Z</time>
      </trkpt>
      <trkpt lat="45.25179" lon="5.78972">
        <ele>1341.4000244141</ele>
        <time>2021-11-06T07:25:34.000Z</time>
      </trkpt>
      <trkpt lat="45.25179" lon="5.78969">
        <ele>1341.8000488281</ele>
        <time>2021-11-06T07:25:36.000Z</time>
      </trkpt>
      <trkpt lat="45.25176" lon="5.78963">
        <ele>1342</ele>
        <time>2021-11-06T07:25:41.000Z</time>
      </trkpt>
      <trkpt lat="45.25176" lon="5.78964">
        <ele>1341.8000488281</ele>
        <time>2021-11-06T07:25:42.000Z</time>
      </trkpt>
      <trkpt lat="45.25176" lon="5.78964">
        <ele>1341.5999755859</ele>
        <time>2021-11-06T07:25:43.000Z</time>
      </trkpt>
      <trkpt lat="45.25175" lon="5.78963">
        <ele>1341.4000244141</ele>
        <time>2021-11-06T07:25:45.000Z</time>
      </trkpt>
      <trkpt lat="45.25173" lon="5.7896">
        <ele>1341.4000244141</ele>
        <time>2021-11-06T07:25:47.000Z</time>
      </trkpt>
      <trkpt lat="45.25166" lon="5.78951">
        <ele>1341</ele>
        <time>2021-11-06T07:25:54.000Z</time>
      </trkpt>
      <trkpt lat="45.25166" lon="5.7895">
        <ele>1341</ele>
        <time>2021-11-06T07:25:55.000Z</time>
      </trkpt>
      <trkpt lat="45.25161" lon="5.78941">
        <ele>1340.8000488281</ele>
        <time>2021-11-06T07:26:00.000Z</time>
      </trkpt>
      <trkpt lat="45.25159" lon="5.78935">
        <ele>1340.4000244141</ele>
        <time>2021-11-06T07:26:04.000Z</time>
      </trkpt>
      <trkpt lat="45.25159" lon="5.78932">
        <ele>1340.1999511719</ele>
        <time>2021-11-06T07:26:06.000Z</time>
      </trkpt>
      <trkpt lat="45.25158" lon="5.78928">
        <ele>1339.1999511719</ele>
        <time>2021-11-06T07:26:09.000Z</time>
      </trkpt>
      <trkpt lat="45.25153" lon="5.78922">
        <ele>1339</ele>
        <time>2021-11-06T07:26:13.000Z</time>
      </trkpt>
      <trkpt lat="45.25152" lon="5.78922">
        <ele>1339</ele>
        <time>2021-11-06T07:26:16.000Z</time>
      </trkpt>
      <trkpt lat="45.25152" lon="5.78923">
        <ele>1339.1999511719</ele>
        <time>2021-11-06T07:26:19.000Z</time>
      </trkpt>
      <trkpt lat="45.25152" lon="5.78923">
        <ele>1339.5999755859</ele>
        <time>2021-11-06T07:26:21.000Z</time>
      </trkpt>
      <trkpt lat="45.25149" lon="5.78923">
        <ele>1340.4000244141</ele>
        <time>2021-11-06T07:26:25.000Z</time>
      </trkpt>
      <trkpt lat="45.25148" lon="5.78922">
        <ele>1340.5999755859</ele>
        <time>2021-11-06T07:26:26.000Z</time>
      </trkpt>
      <trkpt lat="45.25143" lon="5.7892">
        <ele>1341.5999755859</ele>
        <time>2021-11-06T07:26:32.000Z</time>
      </trkpt>
      <trkpt lat="45.25142" lon="5.7892">
        <ele>1341.5999755859</ele>
        <time>2021-11-06T07:26:33.000Z</time>
      </trkpt>
      <trkpt lat="45.25136" lon="5.78919">
        <ele>1342.8000488281</ele>
        <time>2021-11-06T07:26:37.000Z</time>
      </trkpt>
      <trkpt lat="45.25133" lon="5.78915">
        <ele>1343.8000488281</ele>
        <time>2021-11-06T07:26:41.000Z</time>
      </trkpt>
      <trkpt lat="45.25132" lon="5.78914">
        <ele>1344</ele>
        <time>2021-11-06T07:26:42.000Z</time>
      </trkpt>
      <trkpt lat="45.25124" lon="5.78909">
        <ele>1345.1999511719</ele>
        <time>2021-11-06T07:26:48.000Z</time>
      </trkpt>
      <trkpt lat="45.25123" lon="5.78909">
        <ele>1345.4000244141</ele>
        <time>2021-11-06T07:26:49.000Z</time>
      </trkpt>
      <trkpt lat="45.25122" lon="5.78909">
        <ele>1346.1999511719</ele>
        <time>2021-11-06T07:26:51.000Z</time>
      </trkpt>
      <trkpt lat="45.2512" lon="5.78909">
        <ele>1346.8000488281</ele>
        <time>2021-11-06T07:26:53.000Z</time>
      </trkpt>
      <trkpt lat="45.25118" lon="5.78908">
        <ele>1347.1999511719</ele>
        <time>2021-11-06T07:26:55.000Z</time>
      </trkpt>
      <trkpt lat="45.25117" lon="5.78908">
        <ele>1347.1999511719</ele>
        <time>2021-11-06T07:26:56.000Z</time>
      </trkpt>
      <trkpt lat="45.25116" lon="5.78907">
        <ele>1347.4000244141</ele>
        <time>2021-11-06T07:26:57.000Z</time>
      </trkpt>
      <trkpt lat="45.25115" lon="5.78906">
        <ele>1347.4000244141</ele>
        <time>2021-11-06T07:26:58.000Z</time>
      </trkpt>
      <trkpt lat="45.25109" lon="5.78899">
        <ele>1348.5999755859</ele>
        <time>2021-11-06T07:27:05.000Z</time>
      </trkpt>
      <trkpt lat="45.25109" lon="5.78898">
        <ele>1348.8000488281</ele>
        <time>2021-11-06T07:27:06.000Z</time>
      </trkpt>
      <trkpt lat="45.25105" lon="5.78892">
        <ele>1349.4000244141</ele>
        <time>2021-11-06T07:27:11.000Z</time>
      </trkpt>
      <trkpt lat="45.25103" lon="5.78891">
        <ele>1349.4000244141</ele>
        <time>2021-11-06T07:27:13.000Z</time>
      </trkpt>
      <trkpt lat="45.25101" lon="5.7889">
        <ele>1349.5999755859</ele>
        <time>2021-11-06T07:27:15.000Z</time>
      </trkpt>
      <trkpt lat="45.25099" lon="5.78888">
        <ele>1350.1999511719</ele>
        <time>2021-11-06T07:27:19.000Z</time>
      </trkpt>
      <trkpt lat="45.25098" lon="5.78886">
        <ele>1350.1999511719</ele>
        <time>2021-11-06T07:27:20.000Z</time>
      </trkpt>
      <trkpt lat="45.25097" lon="5.78884">
        <ele>1350.4000244141</ele>
        <time>2021-11-06T07:27:21.000Z</time>
      </trkpt>
      <trkpt lat="45.25087" lon="5.78878">
        <ele>1350.5999755859</ele>
        <time>2021-11-06T07:27:28.000Z</time>
      </trkpt>
      <trkpt lat="45.25085" lon="5.78877">
        <ele>1350.8000488281</ele>
        <time>2021-11-06T07:27:29.000Z</time>
      </trkpt>
      <trkpt lat="45.25078" lon="5.78872">
        <ele>1351.4000244141</ele>
        <time>2021-11-06T07:27:33.000Z</time>
      </trkpt>
      <trkpt lat="45.25074" lon="5.7887">
        <ele>1351.5999755859</ele>
        <time>2021-11-06T07:27:35.000Z</time>
      </trkpt>
      <trkpt lat="45.25072" lon="5.78868">
        <ele>1351.8000488281</ele>
        <time>2021-11-06T07:27:37.000Z</time>
      </trkpt>
      <trkpt lat="45.25071" lon="5.78867">
        <ele>1352</ele>
        <time>2021-11-06T07:27:38.000Z</time>
      </trkpt>
      <trkpt lat="45.25069" lon="5.78866">
        <ele>1352.4000244141</ele>
        <time>2021-11-06T07:27:40.000Z</time>
      </trkpt>
      <trkpt lat="45.25061" lon="5.78855">
        <ele>1352.8000488281</ele>
        <time>2021-11-06T07:27:49.000Z</time>
      </trkpt>
      <trkpt lat="45.25057" lon="5.78853">
        <ele>1353</ele>
        <time>2021-11-06T07:27:54.000Z</time>
      </trkpt>
      <trkpt lat="45.25056" lon="5.78852">
        <ele>1353</ele>
        <time>2021-11-06T07:27:55.000Z</time>
      </trkpt>
      <trkpt lat="45.25053" lon="5.7885">
        <ele>1353.4000244141</ele>
        <time>2021-11-06T07:27:57.000Z</time>
      </trkpt>
      <trkpt lat="45.2505" lon="5.78849">
        <ele>1353.8000488281</ele>
        <time>2021-11-06T07:28:01.000Z</time>
      </trkpt>
      <trkpt lat="45.2505" lon="5.7885">
        <ele>1354</ele>
        <time>2021-11-06T07:28:03.000Z</time>
      </trkpt>
      <trkpt lat="45.2505" lon="5.7885">
        <ele>1354</ele>
        <time>2021-11-06T07:28:04.000Z</time>
      </trkpt>
      <trkpt lat="45.2505" lon="5.78851">
        <ele>1354.1999511719</ele>
        <time>2021-11-06T07:28:09.000Z</time>
      </trkpt>
      <trkpt lat="45.2505" lon="5.78851">
        <ele>1354</ele>
        <time>2021-11-06T07:28:11.000Z</time>
      </trkpt>
      <trkpt lat="45.2505" lon="5.78851">
        <ele>1354</ele>
        <time>2021-11-06T07:28:16.000Z</time>
      </trkpt>
      <trkpt lat="45.2505" lon="5.78851">
        <ele>1354</ele>
        <time>2021-11-06T07:28:20.000Z</time>
      </trkpt>
      <trkpt lat="45.2505" lon="5.78851">
        <ele>1354.1999511719</ele>
        <time>2021-11-06T07:28:25.000Z</time>
      </trkpt>
      <trkpt lat="45.2505" lon="5.78851">
        <ele>1354.5999755859</ele>
        <time>2021-11-06T07:28:31.000Z</time>
      </trkpt>
      <trkpt lat="45.2505" lon="5.78851">
        <ele>1354.4000244141</ele>
        <time>2021-11-06T07:28:37.000Z</time>
      </trkpt>
      <trkpt lat="45.25051" lon="5.78851">
        <ele>1354.1999511719</ele>
        <time>2021-11-06T07:28:42.000Z</time>
      </trkpt>
      <trkpt lat="45.25051" lon="5.7885">
        <ele>1354.1999511719</ele>
        <time>2021-11-06T07:28:45.000Z</time>
      </trkpt>
      <trkpt lat="45.25051" lon="5.7885">
        <ele>1353.8000488281</ele>
        <time>2021-11-06T07:28:50.000Z</time>
      </trkpt>
      <trkpt lat="45.25047" lon="5.78848">
        <ele>1353.8000488281</ele>
        <time>2021-11-06T07:28:53.000Z</time>
      </trkpt>
      <trkpt lat="45.25045" lon="5.78847">
        <ele>1353.8000488281</ele>
        <time>2021-11-06T07:28:54.000Z</time>
      </trkpt>
      <trkpt lat="45.25035" lon="5.7884">
        <ele>1353.4000244141</ele>
        <time>2021-11-06T07:29:01.000Z</time>
      </trkpt>
      <trkpt lat="45.25034" lon="5.78838">
        <ele>1353.4000244141</ele>
        <time>2021-11-06T07:29:02.000Z</time>
      </trkpt>
      <trkpt lat="45.25033" lon="5.78835">
        <ele>1353.4000244141</ele>
        <time>2021-11-06T07:29:04.000Z</time>
      </trkpt>
      <trkpt lat="45.25032" lon="5.78834">
        <ele>1353.4000244141</ele>
        <time>2021-11-06T07:29:05.000Z</time>
      </trkpt>
      <trkpt lat="45.25032" lon="5.78833">
        <ele>1353.4000244141</ele>
        <time>2021-11-06T07:29:06.000Z</time>
      </trkpt>
      <trkpt lat="45.2503" lon="5.78829">
        <ele>1353</ele>
        <time>2021-11-06T07:29:09.000Z</time>
      </trkpt>
      <trkpt lat="45.25017" lon="5.7882">
        <ele>1352.8000488281</ele>
        <time>2021-11-06T07:29:18.000Z</time>
      </trkpt>
      <trkpt lat="45.25014" lon="5.78819">
        <ele>1353.1999511719</ele>
        <time>2021-11-06T07:29:21.000Z</time>
      </trkpt>
      <trkpt lat="45.2501" lon="5.78815">
        <ele>1353.5999755859</ele>
        <time>2021-11-06T07:29:24.000Z</time>
      </trkpt>
      <trkpt lat="45.25009" lon="5.78815">
        <ele>1353.8000488281</ele>
        <time>2021-11-06T07:29:25.000Z</time>
      </trkpt>
      <trkpt lat="45.25006" lon="5.78814">
        <ele>1354</ele>
        <time>2021-11-06T07:29:27.000Z</time>
      </trkpt>
      <trkpt lat="45.25005" lon="5.78813">
        <ele>1354</ele>
        <time>2021-11-06T07:29:28.000Z</time>
      </trkpt>
      <trkpt lat="45.25003" lon="5.78811">
        <ele>1354.1999511719</ele>
        <time>2021-11-06T07:29:30.000Z</time>
      </trkpt>
      <trkpt lat="45.25001" lon="5.7881">
        <ele>1354.1999511719</ele>
        <time>2021-11-06T07:29:31.000Z</time>
      </trkpt>
      <trkpt lat="45.24999" lon="5.78808">
        <ele>1354.1999511719</ele>
        <time>2021-11-06T07:29:33.000Z</time>
      </trkpt>
      <trkpt lat="45.24997" lon="5.78807">
        <ele>1354.1999511719</ele>
        <time>2021-11-06T07:29:35.000Z</time>
      </trkpt>
      <trkpt lat="45.24996" lon="5.78806">
        <ele>1354.1999511719</ele>
        <time>2021-11-06T07:29:36.000Z</time>
      </trkpt>
      <trkpt lat="45.24996" lon="5.78806">
        <ele>1354.1999511719</ele>
        <time>2021-11-06T07:29:37.000Z</time>
      </trkpt>
      <trkpt lat="45.24996" lon="5.78805">
        <ele>1354.1999511719</ele>
        <time>2021-11-06T07:29:38.000Z</time>
      </trkpt>
      <trkpt lat="45.24995" lon="5.78803">
        <ele>1354</ele>
        <time>2021-11-06T07:29:41.000Z</time>
      </trkpt>
      <trkpt lat="45.24994" lon="5.78801">
        <ele>1353.4000244141</ele>
        <time>2021-11-06T07:29:43.000Z</time>
      </trkpt>
      <trkpt lat="45.24993" lon="5.788">
        <ele>1353</ele>
        <time>2021-11-06T07:29:44.000Z</time>
      </trkpt>
      <trkpt lat="45.24992" lon="5.78799">
        <ele>1352.5999755859</ele>
        <time>2021-11-06T07:29:46.000Z</time>
      </trkpt>
      <trkpt lat="45.24992" lon="5.78798">
        <ele>1352.4000244141</ele>
        <time>2021-11-06T07:29:47.000Z</time>
      </trkpt>
      <trkpt lat="45.24991" lon="5.78797">
        <ele>1352</ele>
        <time>2021-11-06T07:29:49.000Z</time>
      </trkpt>
      <trkpt lat="45.24991" lon="5.78795">
        <ele>1351.8000488281</ele>
        <time>2021-11-06T07:29:51.000Z</time>
      </trkpt>
      <trkpt lat="45.24993" lon="5.78795">
        <ele>1351.8000488281</ele>
        <time>2021-11-06T07:29:53.000Z</time>
      </trkpt>
      <trkpt lat="45.24994" lon="5.78795">
        <ele>1351.5999755859</ele>
        <time>2021-11-06T07:29:54.000Z</time>
      </trkpt>
      <trkpt lat="45.24996" lon="5.78794">
        <ele>1351.4000244141</ele>
        <time>2021-11-06T07:29:56.000Z</time>
      </trkpt>
      <trkpt lat="45.24998" lon="5.78793">
        <ele>1350.5999755859</ele>
        <time>2021-11-06T07:29:59.000Z</time>
      </trkpt>
      <trkpt lat="45.25" lon="5.78791">
        <ele>1349.8000488281</ele>
        <time>2021-11-06T07:30:01.000Z</time>
      </trkpt>
      <trkpt lat="45.25001" lon="5.78791">
        <ele>1349.4000244141</ele>
        <time>2021-11-06T07:30:02.000Z</time>
      </trkpt>
      <trkpt lat="45.25004" lon="5.78791">
        <ele>1348.1999511719</ele>
        <time>2021-11-06T07:30:05.000Z</time>
      </trkpt>
      <trkpt lat="45.25004" lon="5.7879">
        <ele>1347.8000488281</ele>
        <time>2021-11-06T07:30:06.000Z</time>
      </trkpt>
      <trkpt lat="45.25004" lon="5.7879">
        <ele>1347.4000244141</ele>
        <time>2021-11-06T07:30:07.000Z</time>
      </trkpt>
      <trkpt lat="45.25004" lon="5.78788">
        <ele>1347</ele>
        <time>2021-11-06T07:30:09.000Z</time>
      </trkpt>
      <trkpt lat="45.25004" lon="5.78785">
        <ele>1346.4000244141</ele>
        <time>2021-11-06T07:30:12.000Z</time>
      </trkpt>
      <trkpt lat="45.25004" lon="5.78785">
        <ele>1346</ele>
        <time>2021-11-06T07:30:13.000Z</time>
      </trkpt>
      <trkpt lat="45.25005" lon="5.78785">
        <ele>1345.5999755859</ele>
        <time>2021-11-06T07:30:16.000Z</time>
      </trkpt>
      <trkpt lat="45.25005" lon="5.78785">
        <ele>1345.5999755859</ele>
        <time>2021-11-06T07:30:18.000Z</time>
      </trkpt>
      <trkpt lat="45.25008" lon="5.78791">
        <ele>1346.8000488281</ele>
        <time>2021-11-06T07:30:23.000Z</time>
      </trkpt>
      <trkpt lat="45.25008" lon="5.78791">
        <ele>1347</ele>
        <time>2021-11-06T07:30:24.000Z</time>
      </trkpt>
      <trkpt lat="45.25007" lon="5.78791">
        <ele>1347.4000244141</ele>
        <time>2021-11-06T07:30:25.000Z</time>
      </trkpt>
      <trkpt lat="45.25003" lon="5.78793">
        <ele>1348</ele>
        <time>2021-11-06T07:30:28.000Z</time>
      </trkpt>
      <trkpt lat="45.25002" lon="5.78794">
        <ele>1348.4000244141</ele>
        <time>2021-11-06T07:30:29.000Z</time>
      </trkpt>
      <trkpt lat="45.24999" lon="5.78794">
        <ele>1349.5999755859</ele>
        <time>2021-11-06T07:30:32.000Z</time>
      </trkpt>
      <trkpt lat="45.24999" lon="5.78794">
        <ele>1349.8000488281</ele>
        <time>2021-11-06T07:30:33.000Z</time>
      </trkpt>
      <trkpt lat="45.24997" lon="5.78795">
        <ele>1350.1999511719</ele>
        <time>2021-11-06T07:30:35.000Z</time>
      </trkpt>
      <trkpt lat="45.24996" lon="5.78795">
        <ele>1350.5999755859</ele>
        <time>2021-11-06T07:30:36.000Z</time>
      </trkpt>
      <trkpt lat="45.24995" lon="5.78795">
        <ele>1351.1999511719</ele>
        <time>2021-11-06T07:30:37.000Z</time>
      </trkpt>
      <trkpt lat="45.24992" lon="5.78794">
        <ele>1351.5999755859</ele>
        <time>2021-11-06T07:30:39.000Z</time>
      </trkpt>
      <trkpt lat="45.2499" lon="5.78791">
        <ele>1351.5999755859</ele>
        <time>2021-11-06T07:30:41.000Z</time>
      </trkpt>
      <trkpt lat="45.24989" lon="5.7879">
        <ele>1351.5999755859</ele>
        <time>2021-11-06T07:30:42.000Z</time>
      </trkpt>
      <trkpt lat="45.24988" lon="5.78789">
        <ele>1351.5999755859</ele>
        <time>2021-11-06T07:30:43.000Z</time>
      </trkpt>
      <trkpt lat="45.24986" lon="5.78788">
        <ele>1351.8000488281</ele>
        <time>2021-11-06T07:30:45.000Z</time>
      </trkpt>
      <trkpt lat="45.24984" lon="5.78787">
        <ele>1351.8000488281</ele>
        <time>2021-11-06T07:30:46.000Z</time>
      </trkpt>
      <trkpt lat="45.2498" lon="5.78783">
        <ele>1351.8000488281</ele>
        <time>2021-11-06T07:30:49.000Z</time>
      </trkpt>
      <trkpt lat="45.24971" lon="5.78776">
        <ele>1351.4000244141</ele>
        <time>2021-11-06T07:30:55.000Z</time>
      </trkpt>
      <trkpt lat="45.2497" lon="5.78776">
        <ele>1351.4000244141</ele>
        <time>2021-11-06T07:30:56.000Z</time>
      </trkpt>
      <trkpt lat="45.24968" lon="5.78775">
        <ele>1351.5999755859</ele>
        <time>2021-11-06T07:30:59.000Z</time>
      </trkpt>
      <trkpt lat="45.24967" lon="5.78774">
        <ele>1351.5999755859</ele>
        <time>2021-11-06T07:31:00.000Z</time>
      </trkpt>
      <trkpt lat="45.24966" lon="5.78774">
        <ele>1351.8000488281</ele>
        <time>2021-11-06T07:31:01.000Z</time>
      </trkpt>
      <trkpt lat="45.24965" lon="5.78771">
        <ele>1352</ele>
        <time>2021-11-06T07:31:03.000Z</time>
      </trkpt>
      <trkpt lat="45.24963" lon="5.78769">
        <ele>1351.8000488281</ele>
        <time>2021-11-06T07:31:05.000Z</time>
      </trkpt>
      <trkpt lat="45.24961" lon="5.78767">
        <ele>1351.8000488281</ele>
        <time>2021-11-06T07:31:07.000Z</time>
      </trkpt>
      <trkpt lat="45.24958" lon="5.78764">
        <ele>1351.5999755859</ele>
        <time>2021-11-06T07:31:11.000Z</time>
      </trkpt>
      <trkpt lat="45.24958" lon="5.78763">
        <ele>1351.5999755859</ele>
        <time>2021-11-06T07:31:12.000Z</time>
      </trkpt>
      <trkpt lat="45.24956" lon="5.78759">
        <ele>1351.4000244141</ele>
        <time>2021-11-06T07:31:15.000Z</time>
      </trkpt>
      <trkpt lat="45.24954" lon="5.78757">
        <ele>1351.4000244141</ele>
        <time>2021-11-06T07:31:17.000Z</time>
      </trkpt>
      <trkpt lat="45.24953" lon="5.78755">
        <ele>1351.1999511719</ele>
        <time>2021-11-06T07:31:18.000Z</time>
      </trkpt>
      <trkpt lat="45.24951" lon="5.78752">
        <ele>1350.5999755859</ele>
        <time>2021-11-06T07:31:22.000Z</time>
      </trkpt>
      <trkpt lat="45.24951" lon="5.78752">
        <ele>1350.5999755859</ele>
        <time>2021-11-06T07:31:23.000Z</time>
      </trkpt>
      <trkpt lat="45.24951" lon="5.78752">
        <ele>1350.5999755859</ele>
        <time>2021-11-06T07:31:24.000Z</time>
      </trkpt>
      <trkpt lat="45.24951" lon="5.78753">
        <ele>1350.5999755859</ele>
        <time>2021-11-06T07:31:27.000Z</time>
      </trkpt>
      <trkpt lat="45.24949" lon="5.78753">
        <ele>1351</ele>
        <time>2021-11-06T07:31:29.000Z</time>
      </trkpt>
      <trkpt lat="45.24947" lon="5.78752">
        <ele>1351</ele>
        <time>2021-11-06T07:31:30.000Z</time>
      </trkpt>
      <trkpt lat="45.24946" lon="5.78752">
        <ele>1351.4000244141</ele>
        <time>2021-11-06T07:31:31.000Z</time>
      </trkpt>
      <trkpt lat="45.24944" lon="5.78754">
        <ele>1351.8000488281</ele>
        <time>2021-11-06T07:31:33.000Z</time>
      </trkpt>
      <trkpt lat="45.24942" lon="5.78754">
        <ele>1352.5999755859</ele>
        <time>2021-11-06T07:31:37.000Z</time>
      </trkpt>
      <trkpt lat="45.24934" lon="5.78748">
        <ele>1352.8000488281</ele>
        <time>2021-11-06T07:31:43.000Z</time>
      </trkpt>
      <trkpt lat="45.2493" lon="5.78743">
        <ele>1352.8000488281</ele>
        <time>2021-11-06T07:31:46.000Z</time>
      </trkpt>
      <trkpt lat="45.24929" lon="5.7874">
        <ele>1352.8000488281</ele>
        <time>2021-11-06T07:31:48.000Z</time>
      </trkpt>
      <trkpt lat="45.24927" lon="5.78737">
        <ele>1352.8000488281</ele>
        <time>2021-11-06T07:31:50.000Z</time>
      </trkpt>
      <trkpt lat="45.24923" lon="5.78732">
        <ele>1351.8000488281</ele>
        <time>2021-11-06T07:31:54.000Z</time>
      </trkpt>
      <trkpt lat="45.24915" lon="5.78726">
        <ele>1351.4000244141</ele>
        <time>2021-11-06T07:32:00.000Z</time>
      </trkpt>
      <trkpt lat="45.24907" lon="5.7872">
        <ele>1351.5999755859</ele>
        <time>2021-11-06T07:32:05.000Z</time>
      </trkpt>
      <trkpt lat="45.24906" lon="5.78718">
        <ele>1351.5999755859</ele>
        <time>2021-11-06T07:32:06.000Z</time>
      </trkpt>
      <trkpt lat="45.24904" lon="5.78716">
        <ele>1351.5999755859</ele>
        <time>2021-11-06T07:32:07.000Z</time>
      </trkpt>
      <trkpt lat="45.24901" lon="5.7871">
        <ele>1351.1999511719</ele>
        <time>2021-11-06T07:32:12.000Z</time>
      </trkpt>
      <trkpt lat="45.249" lon="5.78708">
        <ele>1350.8000488281</ele>
        <time>2021-11-06T07:32:13.000Z</time>
      </trkpt>
      <trkpt lat="45.24899" lon="5.78708">
        <ele>1350.8000488281</ele>
        <time>2021-11-06T07:32:14.000Z</time>
      </trkpt>
      <trkpt lat="45.24894" lon="5.78705">
        <ele>1351</ele>
        <time>2021-11-06T07:32:18.000Z</time>
      </trkpt>
      <trkpt lat="45.24893" lon="5.78704">
        <ele>1351</ele>
        <time>2021-11-06T07:32:19.000Z</time>
      </trkpt>
      <trkpt lat="45.24891" lon="5.78702">
        <ele>1351</ele>
        <time>2021-11-06T07:32:21.000Z</time>
      </trkpt>
      <trkpt lat="45.24889" lon="5.787">
        <ele>1350.8000488281</ele>
        <time>2021-11-06T07:32:23.000Z</time>
      </trkpt>
      <trkpt lat="45.24889" lon="5.78699">
        <ele>1350.8000488281</ele>
        <time>2021-11-06T07:32:24.000Z</time>
      </trkpt>
      <trkpt lat="45.24888" lon="5.78698">
        <ele>1350.8000488281</ele>
        <time>2021-11-06T07:32:25.000Z</time>
      </trkpt>
      <trkpt lat="45.24888" lon="5.78697">
        <ele>1350.5999755859</ele>
        <time>2021-11-06T07:32:26.000Z</time>
      </trkpt>
      <trkpt lat="45.24887" lon="5.78693">
        <ele>1349.5999755859</ele>
        <time>2021-11-06T07:32:29.000Z</time>
      </trkpt>
      <trkpt lat="45.24885" lon="5.78691">
        <ele>1349</ele>
        <time>2021-11-06T07:32:31.000Z</time>
      </trkpt>
      <trkpt lat="45.24885" lon="5.7869">
        <ele>1348.4000244141</ele>
        <time>2021-11-06T07:32:33.000Z</time>
      </trkpt>
      <trkpt lat="45.24883" lon="5.78687">
        <ele>1347.8000488281</ele>
        <time>2021-11-06T07:32:35.000Z</time>
      </trkpt>
      <trkpt lat="45.24883" lon="5.78684">
        <ele>1347.4000244141</ele>
        <time>2021-11-06T07:32:37.000Z</time>
      </trkpt>
      <trkpt lat="45.24882" lon="5.7868">
        <ele>1346.1999511719</ele>
        <time>2021-11-06T07:32:41.000Z</time>
      </trkpt>
      <trkpt lat="45.2488" lon="5.78677">
        <ele>1345</ele>
        <time>2021-11-06T07:32:44.000Z</time>
      </trkpt>
      <trkpt lat="45.24878" lon="5.7867">
        <ele>1343.8000488281</ele>
        <time>2021-11-06T07:32:48.000Z</time>
      </trkpt>
      <trkpt lat="45.24875" lon="5.78664">
        <ele>1342.8000488281</ele>
        <time>2021-11-06T07:32:52.000Z</time>
      </trkpt>
      <trkpt lat="45.24874" lon="5.78662">
        <ele>1342.4000244141</ele>
        <time>2021-11-06T07:32:53.000Z</time>
      </trkpt>
      <trkpt lat="45.24873" lon="5.78661">
        <ele>1342</ele>
        <time>2021-11-06T07:32:54.000Z</time>
      </trkpt>
      <trkpt lat="45.24873" lon="5.78659">
        <ele>1341.5999755859</ele>
        <time>2021-11-06T07:32:55.000Z</time>
      </trkpt>
      <trkpt lat="45.24872" lon="5.78658">
        <ele>1341.4000244141</ele>
        <time>2021-11-06T07:32:56.000Z</time>
      </trkpt>
      <trkpt lat="45.24871" lon="5.78657">
        <ele>1341.1999511719</ele>
        <time>2021-11-06T07:32:57.000Z</time>
      </trkpt>
      <trkpt lat="45.24866" lon="5.78653">
        <ele>1341</ele>
        <time>2021-11-06T07:33:01.000Z</time>
      </trkpt>
      <trkpt lat="45.24862" lon="5.78652">
        <ele>1341</ele>
        <time>2021-11-06T07:33:04.000Z</time>
      </trkpt>
      <trkpt lat="45.24859" lon="5.7865">
        <ele>1343</ele>
        <time>2021-11-06T07:33:06.000Z</time>
      </trkpt>
      <trkpt lat="45.24856" lon="5.78645">
        <ele>1343</ele>
        <time>2021-11-06T07:33:09.000Z</time>
      </trkpt>
      <trkpt lat="45.24853" lon="5.78642">
        <ele>1342.8000488281</ele>
        <time>2021-11-06T07:33:11.000Z</time>
      </trkpt>
      <trkpt lat="45.24853" lon="5.7864">
        <ele>1342.5999755859</ele>
        <time>2021-11-06T07:33:13.000Z</time>
      </trkpt>
      <trkpt lat="45.24852" lon="5.78639">
        <ele>1342.4000244141</ele>
        <time>2021-11-06T07:33:14.000Z</time>
      </trkpt>
      <trkpt lat="45.2485" lon="5.78634">
        <ele>1342</ele>
        <time>2021-11-06T07:33:17.000Z</time>
      </trkpt>
      <trkpt lat="45.24849" lon="5.7863">
        <ele>1341.1999511719</ele>
        <time>2021-11-06T07:33:19.000Z</time>
      </trkpt>
      <trkpt lat="45.24847" lon="5.78627">
        <ele>1340.8000488281</ele>
        <time>2021-11-06T07:33:21.000Z</time>
      </trkpt>
      <trkpt lat="45.24846" lon="5.78625">
        <ele>1339.8000488281</ele>
        <time>2021-11-06T07:33:23.000Z</time>
      </trkpt>
      <trkpt lat="45.24844" lon="5.78622">
        <ele>1339.4000244141</ele>
        <time>2021-11-06T07:33:25.000Z</time>
      </trkpt>
      <trkpt lat="45.24843" lon="5.78618">
        <ele>1338.5999755859</ele>
        <time>2021-11-06T07:33:27.000Z</time>
      </trkpt>
      <trkpt lat="45.24841" lon="5.78616">
        <ele>1338.1999511719</ele>
        <time>2021-11-06T07:33:29.000Z</time>
      </trkpt>
      <trkpt lat="45.24838" lon="5.78614">
        <ele>1337.8000488281</ele>
        <time>2021-11-06T07:33:32.000Z</time>
      </trkpt>
      <trkpt lat="45.24836" lon="5.78612">
        <ele>1337.5999755859</ele>
        <time>2021-11-06T07:33:34.000Z</time>
      </trkpt>
      <trkpt lat="45.24836" lon="5.78611">
        <ele>1337.4000244141</ele>
        <time>2021-11-06T07:33:35.000Z</time>
      </trkpt>
      <trkpt lat="45.24836" lon="5.78609">
        <ele>1337.1999511719</ele>
        <time>2021-11-06T07:33:36.000Z</time>
      </trkpt>
      <trkpt lat="45.24835" lon="5.78606">
        <ele>1336.5999755859</ele>
        <time>2021-11-06T07:33:38.000Z</time>
      </trkpt>
      <trkpt lat="45.24836" lon="5.78605">
        <ele>1336.4000244141</ele>
        <time>2021-11-06T07:33:39.000Z</time>
      </trkpt>
      <trkpt lat="45.24836" lon="5.78603">
        <ele>1336</ele>
        <time>2021-11-06T07:33:40.000Z</time>
      </trkpt>
      <trkpt lat="45.24835" lon="5.786">
        <ele>1335.4000244141</ele>
        <time>2021-11-06T07:33:42.000Z</time>
      </trkpt>
      <trkpt lat="45.24834" lon="5.78597">
        <ele>1334.5999755859</ele>
        <time>2021-11-06T07:33:44.000Z</time>
      </trkpt>
      <trkpt lat="45.24831" lon="5.78591">
        <ele>1333.4000244141</ele>
        <time>2021-11-06T07:33:47.000Z</time>
      </trkpt>
      <trkpt lat="45.2483" lon="5.78587">
        <ele>1332.8000488281</ele>
        <time>2021-11-06T07:33:49.000Z</time>
      </trkpt>
      <trkpt lat="45.24829" lon="5.78585">
        <ele>1332.1999511719</ele>
        <time>2021-11-06T07:33:50.000Z</time>
      </trkpt>
      <trkpt lat="45.24828" lon="5.78581">
        <ele>1331.5999755859</ele>
        <time>2021-11-06T07:33:52.000Z</time>
      </trkpt>
      <trkpt lat="45.24827" lon="5.78579">
        <ele>1331</ele>
        <time>2021-11-06T07:33:53.000Z</time>
      </trkpt>
      <trkpt lat="45.24825" lon="5.78574">
        <ele>1329.8000488281</ele>
        <time>2021-11-06T07:33:56.000Z</time>
      </trkpt>
      <trkpt lat="45.24821" lon="5.78569">
        <ele>1328.5999755859</ele>
        <time>2021-11-06T07:33:59.000Z</time>
      </trkpt>
      <trkpt lat="45.2482" lon="5.78564">
        <ele>1328</ele>
        <time>2021-11-06T07:34:01.000Z</time>
      </trkpt>
      <trkpt lat="45.24819" lon="5.78562">
        <ele>1327.4000244141</ele>
        <time>2021-11-06T07:34:02.000Z</time>
      </trkpt>
      <trkpt lat="45.24816" lon="5.78558">
        <ele>1326.5999755859</ele>
        <time>2021-11-06T07:34:04.000Z</time>
      </trkpt>
      <trkpt lat="45.24814" lon="5.78556">
        <ele>1326.1999511719</ele>
        <time>2021-11-06T07:34:05.000Z</time>
      </trkpt>
      <trkpt lat="45.24811" lon="5.78553">
        <ele>1325</ele>
        <time>2021-11-06T07:34:08.000Z</time>
      </trkpt>
      <trkpt lat="45.2481" lon="5.7855">
        <ele>1324.5999755859</ele>
        <time>2021-11-06T07:34:10.000Z</time>
      </trkpt>
      <trkpt lat="45.24808" lon="5.78544">
        <ele>1324</ele>
        <time>2021-11-06T07:34:13.000Z</time>
      </trkpt>
      <trkpt lat="45.24807" lon="5.78538">
        <ele>1323.1999511719</ele>
        <time>2021-11-06T07:34:16.000Z</time>
      </trkpt>
      <trkpt lat="45.24806" lon="5.78536">
        <ele>1322.8000488281</ele>
        <time>2021-11-06T07:34:17.000Z</time>
      </trkpt>
      <trkpt lat="45.24803" lon="5.78531">
        <ele>1321.5999755859</ele>
        <time>2021-11-06T07:34:20.000Z</time>
      </trkpt>
      <trkpt lat="45.24799" lon="5.78526">
        <ele>1321.1999511719</ele>
        <time>2021-11-06T07:34:23.000Z</time>
      </trkpt>
      <trkpt lat="45.24799" lon="5.78524">
        <ele>1321</ele>
        <time>2021-11-06T07:34:24.000Z</time>
      </trkpt>
      <trkpt lat="45.24799" lon="5.78522">
        <ele>1320.8000488281</ele>
        <time>2021-11-06T07:34:25.000Z</time>
      </trkpt>
      <trkpt lat="45.24798" lon="5.78521">
        <ele>1320.8000488281</ele>
        <time>2021-11-06T07:34:26.000Z</time>
      </trkpt>
      <trkpt lat="45.24797" lon="5.78518">
        <ele>1320.5999755859</ele>
        <time>2021-11-06T07:34:27.000Z</time>
      </trkpt>
      <trkpt lat="45.24796" lon="5.78516">
        <ele>1320.5999755859</ele>
        <time>2021-11-06T07:34:28.000Z</time>
      </trkpt>
      <trkpt lat="45.24795" lon="5.7851">
        <ele>1319.5999755859</ele>
        <time>2021-11-06T07:34:32.000Z</time>
      </trkpt>
      <trkpt lat="45.24796" lon="5.78509">
        <ele>1319.4000244141</ele>
        <time>2021-11-06T07:34:33.000Z</time>
      </trkpt>
      <trkpt lat="45.24796" lon="5.78506">
        <ele>1318.8000488281</ele>
        <time>2021-11-06T07:34:35.000Z</time>
      </trkpt>
      <trkpt lat="45.24796" lon="5.78503">
        <ele>1318.1999511719</ele>
        <time>2021-11-06T07:34:37.000Z</time>
      </trkpt>
      <trkpt lat="45.24796" lon="5.78497">
        <ele>1317.4000244141</ele>
        <time>2021-11-06T07:34:40.000Z</time>
      </trkpt>
      <trkpt lat="45.24796" lon="5.78495">
        <ele>1317</ele>
        <time>2021-11-06T07:34:41.000Z</time>
      </trkpt>
      <trkpt lat="45.24795" lon="5.78488">
        <ele>1315.8000488281</ele>
        <time>2021-11-06T07:34:45.000Z</time>
      </trkpt>
      <trkpt lat="45.24794" lon="5.78485">
        <ele>1315.4000244141</ele>
        <time>2021-11-06T07:34:47.000Z</time>
      </trkpt>
      <trkpt lat="45.24794" lon="5.78484">
        <ele>1315.4000244141</ele>
        <time>2021-11-06T07:34:49.000Z</time>
      </trkpt>
      <trkpt lat="45.24794" lon="5.78484">
        <ele>1315.4000244141</ele>
        <time>2021-11-06T07:34:51.000Z</time>
      </trkpt>
      <trkpt lat="45.24794" lon="5.78483">
        <ele>1315.4000244141</ele>
        <time>2021-11-06T07:34:52.000Z</time>
      </trkpt>
      <trkpt lat="45.24794" lon="5.78481">
        <ele>1315.4000244141</ele>
        <time>2021-11-06T07:34:54.000Z</time>
      </trkpt>
      <trkpt lat="45.24794" lon="5.7848">
        <ele>1315.1999511719</ele>
        <time>2021-11-06T07:34:55.000Z</time>
      </trkpt>
      <trkpt lat="45.24796" lon="5.78478">
        <ele>1314.8000488281</ele>
        <time>2021-11-06T07:34:58.000Z</time>
      </trkpt>
      <trkpt lat="45.24797" lon="5.78478">
        <ele>1314.5999755859</ele>
        <time>2021-11-06T07:34:59.000Z</time>
      </trkpt>
      <trkpt lat="45.248" lon="5.7848">
        <ele>1313.8000488281</ele>
        <time>2021-11-06T07:35:02.000Z</time>
      </trkpt>
      <trkpt lat="45.248" lon="5.78479">
        <ele>1313.4000244141</ele>
        <time>2021-11-06T07:35:03.000Z</time>
      </trkpt>
      <trkpt lat="45.248" lon="5.78478">
        <ele>1313.1999511719</ele>
        <time>2021-11-06T07:35:04.000Z</time>
      </trkpt>
      <trkpt lat="45.248" lon="5.78477">
        <ele>1313</ele>
        <time>2021-11-06T07:35:05.000Z</time>
      </trkpt>
      <trkpt lat="45.248" lon="5.78475">
        <ele>1312.1999511719</ele>
        <time>2021-11-06T07:35:07.000Z</time>
      </trkpt>
      <trkpt lat="45.24801" lon="5.78472">
        <ele>1311.1999511719</ele>
        <time>2021-11-06T07:35:09.000Z</time>
      </trkpt>
      <trkpt lat="45.24802" lon="5.78473">
        <ele>1310.8000488281</ele>
        <time>2021-11-06T07:35:10.000Z</time>
      </trkpt>
      <trkpt lat="45.24805" lon="5.78472">
        <ele>1310</ele>
        <time>2021-11-06T07:35:15.000Z</time>
      </trkpt>
      <trkpt lat="45.24805" lon="5.78472">
        <ele>1309.8000488281</ele>
        <time>2021-11-06T07:35:16.000Z</time>
      </trkpt>
      <trkpt lat="45.24806" lon="5.7847">
        <ele>1308.5999755859</ele>
        <time>2021-11-06T07:35:20.000Z</time>
      </trkpt>
      <trkpt lat="45.24803" lon="5.78463">
        <ele>1308</ele>
        <time>2021-11-06T07:35:25.000Z</time>
      </trkpt>
      <trkpt lat="45.24801" lon="5.78457">
        <ele>1308</ele>
        <time>2021-11-06T07:35:27.000Z</time>
      </trkpt>
      <trkpt lat="45.24796" lon="5.78447">
        <ele>1307.8000488281</ele>
        <time>2021-11-06T07:35:31.000Z</time>
      </trkpt>
      <trkpt lat="45.24792" lon="5.78438">
        <ele>1307.8000488281</ele>
        <time>2021-11-06T07:35:34.000Z</time>
      </trkpt>
      <trkpt lat="45.24787" lon="5.78432">
        <ele>1307.8000488281</ele>
        <time>2021-11-06T07:35:37.000Z</time>
      </trkpt>
      <trkpt lat="45.24785" lon="5.78429">
        <ele>1307.5999755859</ele>
        <time>2021-11-06T07:35:38.000Z</time>
      </trkpt>
      <trkpt lat="45.24781" lon="5.7842">
        <ele>1307</ele>
        <time>2021-11-06T07:35:42.000Z</time>
      </trkpt>
      <trkpt lat="45.2478" lon="5.78416">
        <ele>1306.8000488281</ele>
        <time>2021-11-06T07:35:44.000Z</time>
      </trkpt>
      <trkpt lat="45.24779" lon="5.78414">
        <ele>1306.5999755859</ele>
        <time>2021-11-06T07:35:45.000Z</time>
      </trkpt>
      <trkpt lat="45.24774" lon="5.78405">
        <ele>1305.5999755859</ele>
        <time>2021-11-06T07:35:49.000Z</time>
      </trkpt>
      <trkpt lat="45.24772" lon="5.784">
        <ele>1305</ele>
        <time>2021-11-06T07:35:52.000Z</time>
      </trkpt>
      <trkpt lat="45.24769" lon="5.78395">
        <ele>1304.5999755859</ele>
        <time>2021-11-06T07:35:55.000Z</time>
      </trkpt>
      <trkpt lat="45.24768" lon="5.78394">
        <ele>1304.4000244141</ele>
        <time>2021-11-06T07:35:56.000Z</time>
      </trkpt>
      <trkpt lat="45.24766" lon="5.78384">
        <ele>1303.1999511719</ele>
        <time>2021-11-06T07:36:01.000Z</time>
      </trkpt>
      <trkpt lat="45.24769" lon="5.78383">
        <ele>1302.4000244141</ele>
        <time>2021-11-06T07:36:04.000Z</time>
      </trkpt>
      <trkpt lat="45.2477" lon="5.78384">
        <ele>1302.1999511719</ele>
        <time>2021-11-06T07:36:05.000Z</time>
      </trkpt>
      <trkpt lat="45.24771" lon="5.78385">
        <ele>1302</ele>
        <time>2021-11-06T07:36:06.000Z</time>
      </trkpt>
      <trkpt lat="45.24776" lon="5.78387">
        <ele>1301.1999511719</ele>
        <time>2021-11-06T07:36:10.000Z</time>
      </trkpt>
      <trkpt lat="45.24778" lon="5.78388">
        <ele>1301</ele>
        <time>2021-11-06T07:36:11.000Z</time>
      </trkpt>
      <trkpt lat="45.24781" lon="5.78389">
        <ele>1300.1999511719</ele>
        <time>2021-11-06T07:36:14.000Z</time>
      </trkpt>
      <trkpt lat="45.24783" lon="5.78389">
        <ele>1299.8000488281</ele>
        <time>2021-11-06T07:36:15.000Z</time>
      </trkpt>
      <trkpt lat="45.24788" lon="5.78391">
        <ele>1298.8000488281</ele>
        <time>2021-11-06T07:36:19.000Z</time>
      </trkpt>
      <trkpt lat="45.24795" lon="5.78393">
        <ele>1297.5999755859</ele>
        <time>2021-11-06T07:36:23.000Z</time>
      </trkpt>
      <trkpt lat="45.24799" lon="5.78393">
        <ele>1296.4000244141</ele>
        <time>2021-11-06T07:36:26.000Z</time>
      </trkpt>
      <trkpt lat="45.24803" lon="5.78395">
        <ele>1295.1999511719</ele>
        <time>2021-11-06T07:36:29.000Z</time>
      </trkpt>
      <trkpt lat="45.24807" lon="5.78396">
        <ele>1294</ele>
        <time>2021-11-06T07:36:32.000Z</time>
      </trkpt>
      <trkpt lat="45.24811" lon="5.78396">
        <ele>1293</ele>
        <time>2021-11-06T07:36:35.000Z</time>
      </trkpt>
      <trkpt lat="45.24815" lon="5.78397">
        <ele>1291.8000488281</ele>
        <time>2021-11-06T07:36:38.000Z</time>
      </trkpt>
      <trkpt lat="45.24819" lon="5.78399">
        <ele>1290.4000244141</ele>
        <time>2021-11-06T07:36:41.000Z</time>
      </trkpt>
      <trkpt lat="45.24825" lon="5.78401">
        <ele>1289.4000244141</ele>
        <time>2021-11-06T07:36:45.000Z</time>
      </trkpt>
      <trkpt lat="45.24831" lon="5.78404">
        <ele>1288.1999511719</ele>
        <time>2021-11-06T07:36:49.000Z</time>
      </trkpt>
      <trkpt lat="45.24833" lon="5.78404">
        <ele>1287</ele>
        <time>2021-11-06T07:36:51.000Z</time>
      </trkpt>
      <trkpt lat="45.24836" lon="5.78404">
        <ele>1286</ele>
        <time>2021-11-06T07:36:54.000Z</time>
      </trkpt>
      <trkpt lat="45.24839" lon="5.78404">
        <ele>1285</ele>
        <time>2021-11-06T07:36:56.000Z</time>
      </trkpt>
      <trkpt lat="45.2484" lon="5.78404">
        <ele>1284.5999755859</ele>
        <time>2021-11-06T07:36:57.000Z</time>
      </trkpt>
      <trkpt lat="45.24842" lon="5.78406">
        <ele>1283.8000488281</ele>
        <time>2021-11-06T07:36:59.000Z</time>
      </trkpt>
      <trkpt lat="45.24844" lon="5.78406">
        <ele>1283.5999755859</ele>
        <time>2021-11-06T07:37:00.000Z</time>
      </trkpt>
      <trkpt lat="45.24845" lon="5.78407">
        <ele>1283.4000244141</ele>
        <time>2021-11-06T07:37:01.000Z</time>
      </trkpt>
      <trkpt lat="45.24849" lon="5.78408">
        <ele>1282</ele>
        <time>2021-11-06T07:37:04.000Z</time>
      </trkpt>
      <trkpt lat="45.24852" lon="5.78408">
        <ele>1280.8000488281</ele>
        <time>2021-11-06T07:37:07.000Z</time>
      </trkpt>
      <trkpt lat="45.24853" lon="5.78409">
        <ele>1280.4000244141</ele>
        <time>2021-11-06T07:37:09.000Z</time>
      </trkpt>
      <trkpt lat="45.24855" lon="5.78409">
        <ele>1280</ele>
        <time>2021-11-06T07:37:11.000Z</time>
      </trkpt>
      <trkpt lat="45.24855" lon="5.78409">
        <ele>1279.5999755859</ele>
        <time>2021-11-06T07:37:12.000Z</time>
      </trkpt>
      <trkpt lat="45.24858" lon="5.78409">
        <ele>1278.5999755859</ele>
        <time>2021-11-06T07:37:15.000Z</time>
      </trkpt>
      <trkpt lat="45.2486" lon="5.7841">
        <ele>1278.1999511719</ele>
        <time>2021-11-06T07:37:17.000Z</time>
      </trkpt>
      <trkpt lat="45.24862" lon="5.7841">
        <ele>1277.1999511719</ele>
        <time>2021-11-06T07:37:19.000Z</time>
      </trkpt>
      <trkpt lat="45.24864" lon="5.7841">
        <ele>1276.1999511719</ele>
        <time>2021-11-06T07:37:21.000Z</time>
      </trkpt>
      <trkpt lat="45.24866" lon="5.78411">
        <ele>1275.8000488281</ele>
        <time>2021-11-06T07:37:22.000Z</time>
      </trkpt>
      <trkpt lat="45.24869" lon="5.78412">
        <ele>1274.8000488281</ele>
        <time>2021-11-06T07:37:25.000Z</time>
      </trkpt>
      <trkpt lat="45.2487" lon="5.78413">
        <ele>1274.4000244141</ele>
        <time>2021-11-06T07:37:26.000Z</time>
      </trkpt>
      <trkpt lat="45.24874" lon="5.78413">
        <ele>1273.4000244141</ele>
        <time>2021-11-06T07:37:29.000Z</time>
      </trkpt>
      <trkpt lat="45.24877" lon="5.78413">
        <ele>1272.8000488281</ele>
        <time>2021-11-06T07:37:31.000Z</time>
      </trkpt>
      <trkpt lat="45.24878" lon="5.78414">
        <ele>1272.4000244141</ele>
        <time>2021-11-06T07:37:32.000Z</time>
      </trkpt>
      <trkpt lat="45.24882" lon="5.78416">
        <ele>1271.4000244141</ele>
        <time>2021-11-06T07:37:35.000Z</time>
      </trkpt>
      <trkpt lat="45.24883" lon="5.78417">
        <ele>1271</ele>
        <time>2021-11-06T07:37:36.000Z</time>
      </trkpt>
      <trkpt lat="45.24884" lon="5.78417">
        <ele>1270.4000244141</ele>
        <time>2021-11-06T07:37:37.000Z</time>
      </trkpt>
      <trkpt lat="45.24884" lon="5.78418">
        <ele>1270</ele>
        <time>2021-11-06T07:37:38.000Z</time>
      </trkpt>
      <trkpt lat="45.24885" lon="5.7842">
        <ele>1269.4000244141</ele>
        <time>2021-11-06T07:37:40.000Z</time>
      </trkpt>
      <trkpt lat="45.24886" lon="5.78421">
        <ele>1269</ele>
        <time>2021-11-06T07:37:41.000Z</time>
      </trkpt>
      <trkpt lat="45.24889" lon="5.78424">
        <ele>1268</ele>
        <time>2021-11-06T07:37:44.000Z</time>
      </trkpt>
      <trkpt lat="45.24893" lon="5.78427">
        <ele>1266.8000488281</ele>
        <time>2021-11-06T07:37:48.000Z</time>
      </trkpt>
      <trkpt lat="45.24896" lon="5.78428">
        <ele>1265.8000488281</ele>
        <time>2021-11-06T07:37:50.000Z</time>
      </trkpt>
      <trkpt lat="45.24901" lon="5.78429">
        <ele>1264.5999755859</ele>
        <time>2021-11-06T07:37:53.000Z</time>
      </trkpt>
      <trkpt lat="45.24905" lon="5.78428">
        <ele>1263.4000244141</ele>
        <time>2021-11-06T07:37:56.000Z</time>
      </trkpt>
      <trkpt lat="45.24905" lon="5.78428">
        <ele>1262.8000488281</ele>
        <time>2021-11-06T07:37:57.000Z</time>
      </trkpt>
      <trkpt lat="45.24908" lon="5.78429">
        <ele>1261.8000488281</ele>
        <time>2021-11-06T07:37:59.000Z</time>
      </trkpt>
      <trkpt lat="45.24912" lon="5.78431">
        <ele>1261</ele>
        <time>2021-11-06T07:38:02.000Z</time>
      </trkpt>
      <trkpt lat="45.24912" lon="5.78431">
        <ele>1260.5999755859</ele>
        <time>2021-11-06T07:38:03.000Z</time>
      </trkpt>
      <trkpt lat="45.24913" lon="5.78432">
        <ele>1260</ele>
        <time>2021-11-06T07:38:04.000Z</time>
      </trkpt>
      <trkpt lat="45.24916" lon="5.78433">
        <ele>1259.1999511719</ele>
        <time>2021-11-06T07:38:06.000Z</time>
      </trkpt>
      <trkpt lat="45.24919" lon="5.78436">
        <ele>1258</ele>
        <time>2021-11-06T07:38:09.000Z</time>
      </trkpt>
      <trkpt lat="45.24924" lon="5.78437">
        <ele>1256.5999755859</ele>
        <time>2021-11-06T07:38:12.000Z</time>
      </trkpt>
      <trkpt lat="45.24928" lon="5.78437">
        <ele>1255.5999755859</ele>
        <time>2021-11-06T07:38:15.000Z</time>
      </trkpt>
      <trkpt lat="45.24931" lon="5.78437">
        <ele>1255</ele>
        <time>2021-11-06T07:38:17.000Z</time>
      </trkpt>
      <trkpt lat="45.24932" lon="5.78437">
        <ele>1254.5999755859</ele>
        <time>2021-11-06T07:38:18.000Z</time>
      </trkpt>
      <trkpt lat="45.24935" lon="5.78437">
        <ele>1253.8000488281</ele>
        <time>2021-11-06T07:38:20.000Z</time>
      </trkpt>
      <trkpt lat="45.24941" lon="5.7844">
        <ele>1253.4000244141</ele>
        <time>2021-11-06T07:38:22.000Z</time>
      </trkpt>
      <trkpt lat="45.24944" lon="5.78442">
        <ele>1253.1999511719</ele>
        <time>2021-11-06T07:38:23.000Z</time>
      </trkpt>
      <trkpt lat="45.24948" lon="5.78444">
        <ele>1252.1999511719</ele>
        <time>2021-11-06T07:38:25.000Z</time>
      </trkpt>
      <trkpt lat="45.24952" lon="5.78446">
        <ele>1251.1999511719</ele>
        <time>2021-11-06T07:38:28.000Z</time>
      </trkpt>
      <trkpt lat="45.24955" lon="5.78446">
        <ele>1250.5999755859</ele>
        <time>2021-11-06T07:38:30.000Z</time>
      </trkpt>
      <trkpt lat="45.24958" lon="5.78448">
        <ele>1250</ele>
        <time>2021-11-06T07:38:32.000Z</time>
      </trkpt>
      <trkpt lat="45.24962" lon="5.78449">
        <ele>1249.4000244141</ele>
        <time>2021-11-06T07:38:34.000Z</time>
      </trkpt>
      <trkpt lat="45.24965" lon="5.78449">
        <ele>1248.8000488281</ele>
        <time>2021-11-06T07:38:36.000Z</time>
      </trkpt>
      <trkpt lat="45.24967" lon="5.78449">
        <ele>1248.5999755859</ele>
        <time>2021-11-06T07:38:37.000Z</time>
      </trkpt>
      <trkpt lat="45.24968" lon="5.78449">
        <ele>1248.4000244141</ele>
        <time>2021-11-06T07:38:38.000Z</time>
      </trkpt>
      <trkpt lat="45.24971" lon="5.78449">
        <ele>1247.8000488281</ele>
        <time>2021-11-06T07:38:40.000Z</time>
      </trkpt>
      <trkpt lat="45.24976" lon="5.7845">
        <ele>1247</ele>
        <time>2021-11-06T07:38:43.000Z</time>
      </trkpt>
      <trkpt lat="45.24977" lon="5.7845">
        <ele>1246.4000244141</ele>
        <time>2021-11-06T07:38:44.000Z</time>
      </trkpt>
      <trkpt lat="45.24982" lon="5.78452">
        <ele>1245.1999511719</ele>
        <time>2021-11-06T07:38:47.000Z</time>
      </trkpt>
      <trkpt lat="45.24984" lon="5.78452">
        <ele>1244.8000488281</ele>
        <time>2021-11-06T07:38:49.000Z</time>
      </trkpt>
      <trkpt lat="45.24989" lon="5.78453">
        <ele>1244</ele>
        <time>2021-11-06T07:38:52.000Z</time>
      </trkpt>
      <trkpt lat="45.24995" lon="5.78455">
        <ele>1243</ele>
        <time>2021-11-06T07:38:56.000Z</time>
      </trkpt>
      <trkpt lat="45.24996" lon="5.78457">
        <ele>1242.8000488281</ele>
        <time>2021-11-06T07:38:57.000Z</time>
      </trkpt>
      <trkpt lat="45.24995" lon="5.78459">
        <ele>1242.5999755859</ele>
        <time>2021-11-06T07:38:59.000Z</time>
      </trkpt>
      <trkpt lat="45.24993" lon="5.7846">
        <ele>1242.5999755859</ele>
        <time>2021-11-06T07:39:01.000Z</time>
      </trkpt>
      <trkpt lat="45.24985" lon="5.78458">
        <ele>1243.1999511719</ele>
        <time>2021-11-06T07:39:09.000Z</time>
      </trkpt>
      <trkpt lat="45.24982" lon="5.7846">
        <ele>1244.1999511719</ele>
        <time>2021-11-06T07:39:13.000Z</time>
      </trkpt>
      <trkpt lat="45.24978" lon="5.78458">
        <ele>1244.8000488281</ele>
        <time>2021-11-06T07:39:16.000Z</time>
      </trkpt>
      <trkpt lat="45.24974" lon="5.78457">
        <ele>1245.5999755859</ele>
        <time>2021-11-06T07:39:19.000Z</time>
      </trkpt>
      <trkpt lat="45.24969" lon="5.78458">
        <ele>1246.1999511719</ele>
        <time>2021-11-06T07:39:22.000Z</time>
      </trkpt>
      <trkpt lat="45.24965" lon="5.78456">
        <ele>1246.8000488281</ele>
        <time>2021-11-06T07:39:24.000Z</time>
      </trkpt>
      <trkpt lat="45.24961" lon="5.78454">
        <ele>1248</ele>
        <time>2021-11-06T07:39:28.000Z</time>
      </trkpt>
      <trkpt lat="45.2496" lon="5.78453">
        <ele>1248.1999511719</ele>
        <time>2021-11-06T07:39:29.000Z</time>
      </trkpt>
      <trkpt lat="45.24954" lon="5.78452">
        <ele>1249.1999511719</ele>
        <time>2021-11-06T07:39:33.000Z</time>
      </trkpt>
      <trkpt lat="45.2495" lon="5.7845">
        <ele>1250.1999511719</ele>
        <time>2021-11-06T07:39:37.000Z</time>
      </trkpt>
      <trkpt lat="45.24949" lon="5.78449">
        <ele>1250.4000244141</ele>
        <time>2021-11-06T07:39:38.000Z</time>
      </trkpt>
      <trkpt lat="45.24942" lon="5.78449">
        <ele>1251.1999511719</ele>
        <time>2021-11-06T07:39:42.000Z</time>
      </trkpt>
      <trkpt lat="45.24939" lon="5.78449">
        <ele>1251.8000488281</ele>
        <time>2021-11-06T07:39:44.000Z</time>
      </trkpt>
      <trkpt lat="45.24937" lon="5.7845">
        <ele>1252.1999511719</ele>
        <time>2021-11-06T07:39:47.000Z</time>
      </trkpt>
      <trkpt lat="45.24935" lon="5.7845">
        <ele>1253</ele>
        <time>2021-11-06T07:39:49.000Z</time>
      </trkpt>
      <trkpt lat="45.24934" lon="5.7845">
        <ele>1253.1999511719</ele>
        <time>2021-11-06T07:39:50.000Z</time>
      </trkpt>
      <trkpt lat="45.24931" lon="5.78448">
        <ele>1253.4000244141</ele>
        <time>2021-11-06T07:39:52.000Z</time>
      </trkpt>
      <trkpt lat="45.24929" lon="5.78446">
        <ele>1254</ele>
        <time>2021-11-06T07:39:54.000Z</time>
      </trkpt>
      <trkpt lat="45.24927" lon="5.78445">
        <ele>1254.4000244141</ele>
        <time>2021-11-06T07:39:56.000Z</time>
      </trkpt>
      <trkpt lat="45.24927" lon="5.78444">
        <ele>1254.8000488281</ele>
        <time>2021-11-06T07:39:58.000Z</time>
      </trkpt>
      <trkpt lat="45.24926" lon="5.78444">
        <ele>1255</ele>
        <time>2021-11-06T07:39:59.000Z</time>
      </trkpt>
      <trkpt lat="45.24925" lon="5.78444">
        <ele>1255.5999755859</ele>
        <time>2021-11-06T07:40:00.000Z</time>
      </trkpt>
      <trkpt lat="45.24924" lon="5.78443">
        <ele>1256</ele>
        <time>2021-11-06T07:40:02.000Z</time>
      </trkpt>
      <trkpt lat="45.24923" lon="5.78442">
        <ele>1256.1999511719</ele>
        <time>2021-11-06T07:40:03.000Z</time>
      </trkpt>
      <trkpt lat="45.24922" lon="5.78442">
        <ele>1257</ele>
        <time>2021-11-06T07:40:06.000Z</time>
      </trkpt>
      <trkpt lat="45.24921" lon="5.78443">
        <ele>1257.1999511719</ele>
        <time>2021-11-06T07:40:07.000Z</time>
      </trkpt>
      <trkpt lat="45.24921" lon="5.78443">
        <ele>1257.5999755859</ele>
        <time>2021-11-06T07:40:08.000Z</time>
      </trkpt>
      <trkpt lat="45.24916" lon="5.78443">
        <ele>1258.4000244141</ele>
        <time>2021-11-06T07:40:12.000Z</time>
      </trkpt>
      <trkpt lat="45.24914" lon="5.78442">
        <ele>1259.1999511719</ele>
        <time>2021-11-06T07:40:14.000Z</time>
      </trkpt>
      <trkpt lat="45.24912" lon="5.78441">
        <ele>1259.5999755859</ele>
        <time>2021-11-06T07:40:15.000Z</time>
      </trkpt>
      <trkpt lat="45.2491" lon="5.78441">
        <ele>1260.1999511719</ele>
        <time>2021-11-06T07:40:17.000Z</time>
      </trkpt>
      <trkpt lat="45.24908" lon="5.78439">
        <ele>1260.8000488281</ele>
        <time>2021-11-06T07:40:20.000Z</time>
      </trkpt>
      <trkpt lat="45.24907" lon="5.78437">
        <ele>1261.1999511719</ele>
        <time>2021-11-06T07:40:21.000Z</time>
      </trkpt>
      <trkpt lat="45.24906" lon="5.78436">
        <ele>1261.8000488281</ele>
        <time>2021-11-06T07:40:22.000Z</time>
      </trkpt>
      <trkpt lat="45.24903" lon="5.78435">
        <ele>1262.8000488281</ele>
        <time>2021-11-06T07:40:26.000Z</time>
      </trkpt>
      <trkpt lat="45.24902" lon="5.78435">
        <ele>1263</ele>
        <time>2021-11-06T07:40:27.000Z</time>
      </trkpt>
      <trkpt lat="45.24899" lon="5.78435">
        <ele>1264</ele>
        <time>2021-11-06T07:40:31.000Z</time>
      </trkpt>
      <trkpt lat="45.24896" lon="5.78433">
        <ele>1265</ele>
        <time>2021-11-06T07:40:34.000Z</time>
      </trkpt>
      <trkpt lat="45.24896" lon="5.78433">
        <ele>1265.1999511719</ele>
        <time>2021-11-06T07:40:35.000Z</time>
      </trkpt>
      <trkpt lat="45.24895" lon="5.78433">
        <ele>1265.5999755859</ele>
        <time>2021-11-06T07:40:36.000Z</time>
      </trkpt>
      <trkpt lat="45.24892" lon="5.78431">
        <ele>1266.4000244141</ele>
        <time>2021-11-06T07:40:39.000Z</time>
      </trkpt>
      <trkpt lat="45.2489" lon="5.78431">
        <ele>1266.8000488281</ele>
        <time>2021-11-06T07:40:40.000Z</time>
      </trkpt>
      <trkpt lat="45.24889" lon="5.7843">
        <ele>1267.1999511719</ele>
        <time>2021-11-06T07:40:41.000Z</time>
      </trkpt>
      <trkpt lat="45.24889" lon="5.78431">
        <ele>1267.4000244141</ele>
        <time>2021-11-06T07:40:42.000Z</time>
      </trkpt>
      <trkpt lat="45.24886" lon="5.7843">
        <ele>1268.5999755859</ele>
        <time>2021-11-06T07:40:47.000Z</time>
      </trkpt>
      <trkpt lat="45.24885" lon="5.7843">
        <ele>1269.1999511719</ele>
        <time>2021-11-06T07:40:49.000Z</time>
      </trkpt>
      <trkpt lat="45.24883" lon="5.78427">
        <ele>1270</ele>
        <time>2021-11-06T07:40:52.000Z</time>
      </trkpt>
      <trkpt lat="45.24881" lon="5.78426">
        <ele>1270.5999755859</ele>
        <time>2021-11-06T07:40:55.000Z</time>
      </trkpt>
      <trkpt lat="45.2488" lon="5.78426">
        <ele>1271</ele>
        <time>2021-11-06T07:40:56.000Z</time>
      </trkpt>
      <trkpt lat="45.2488" lon="5.78426">
        <ele>1271.1999511719</ele>
        <time>2021-11-06T07:40:57.000Z</time>
      </trkpt>
      <trkpt lat="45.24878" lon="5.78426">
        <ele>1271.5999755859</ele>
        <time>2021-11-06T07:40:59.000Z</time>
      </trkpt>
      <trkpt lat="45.24876" lon="5.78425">
        <ele>1272.4000244141</ele>
        <time>2021-11-06T07:41:01.000Z</time>
      </trkpt>
      <trkpt lat="45.24874" lon="5.78423">
        <ele>1273.4000244141</ele>
        <time>2021-11-06T07:41:04.000Z</time>
      </trkpt>
      <trkpt lat="45.24873" lon="5.78422">
        <ele>1274</ele>
        <time>2021-11-06T07:41:07.000Z</time>
      </trkpt>
      <trkpt lat="45.24871" lon="5.78422">
        <ele>1274.4000244141</ele>
        <time>2021-11-06T07:41:09.000Z</time>
      </trkpt>
      <trkpt lat="45.24868" lon="5.78421">
        <ele>1275.4000244141</ele>
        <time>2021-11-06T07:41:14.000Z</time>
      </trkpt>
      <trkpt lat="45.24868" lon="5.7842">
        <ele>1275.8000488281</ele>
        <time>2021-11-06T07:41:15.000Z</time>
      </trkpt>
      <trkpt lat="45.24866" lon="5.7842">
        <ele>1276.4000244141</ele>
        <time>2021-11-06T07:41:17.000Z</time>
      </trkpt>
      <trkpt lat="45.24863" lon="5.7842">
        <ele>1277.4000244141</ele>
        <time>2021-11-06T07:41:21.000Z</time>
      </trkpt>
      <trkpt lat="45.24862" lon="5.7842">
        <ele>1277.8000488281</ele>
        <time>2021-11-06T07:41:23.000Z</time>
      </trkpt>
      <trkpt lat="45.24859" lon="5.78419">
        <ele>1278.4000244141</ele>
        <time>2021-11-06T07:41:26.000Z</time>
      </trkpt>
      <trkpt lat="45.24856" lon="5.78418">
        <ele>1279.4000244141</ele>
        <time>2021-11-06T07:41:29.000Z</time>
      </trkpt>
      <trkpt lat="45.24856" lon="5.78418">
        <ele>1279.8000488281</ele>
        <time>2021-11-06T07:41:30.000Z</time>
      </trkpt>
      <trkpt lat="45.24855" lon="5.78418">
        <ele>1280.1999511719</ele>
        <time>2021-11-06T07:41:31.000Z</time>
      </trkpt>
      <trkpt lat="45.24851" lon="5.78418">
        <ele>1281.1999511719</ele>
        <time>2021-11-06T07:41:36.000Z</time>
      </trkpt>
      <trkpt lat="45.24849" lon="5.78416">
        <ele>1282</ele>
        <time>2021-11-06T07:41:38.000Z</time>
      </trkpt>
      <trkpt lat="45.24847" lon="5.78415">
        <ele>1282.4000244141</ele>
        <time>2021-11-06T07:41:40.000Z</time>
      </trkpt>
      <trkpt lat="45.24842" lon="5.78413">
        <ele>1283.8000488281</ele>
        <time>2021-11-06T07:41:45.000Z</time>
      </trkpt>
      <trkpt lat="45.24841" lon="5.78413">
        <ele>1284</ele>
        <time>2021-11-06T07:41:46.000Z</time>
      </trkpt>
      <trkpt lat="45.24839" lon="5.78411">
        <ele>1284.8000488281</ele>
        <time>2021-11-06T07:41:49.000Z</time>
      </trkpt>
      <trkpt lat="45.24835" lon="5.78409">
        <ele>1286.1999511719</ele>
        <time>2021-11-06T07:41:53.000Z</time>
      </trkpt>
      <trkpt lat="45.24831" lon="5.78408">
        <ele>1287.4000244141</ele>
        <time>2021-11-06T07:41:57.000Z</time>
      </trkpt>
      <trkpt lat="45.24828" lon="5.78405">
        <ele>1288.4000244141</ele>
        <time>2021-11-06T07:42:00.000Z</time>
      </trkpt>
      <trkpt lat="45.24826" lon="5.78404">
        <ele>1289.4000244141</ele>
        <time>2021-11-06T07:42:03.000Z</time>
      </trkpt>
      <trkpt lat="45.24824" lon="5.78403">
        <ele>1289.8000488281</ele>
        <time>2021-11-06T07:42:06.000Z</time>
      </trkpt>
      <trkpt lat="45.24821" lon="5.78402">
        <ele>1290.5999755859</ele>
        <time>2021-11-06T07:42:08.000Z</time>
      </trkpt>
      <trkpt lat="45.2482" lon="5.78402">
        <ele>1291.1999511719</ele>
        <time>2021-11-06T07:42:10.000Z</time>
      </trkpt>
      <trkpt lat="45.24818" lon="5.78401">
        <ele>1291.5999755859</ele>
        <time>2021-11-06T07:42:11.000Z</time>
      </trkpt>
      <trkpt lat="45.24818" lon="5.78401">
        <ele>1291.8000488281</ele>
        <time>2021-11-06T07:42:12.000Z</time>
      </trkpt>
      <trkpt lat="45.24814" lon="5.78399">
        <ele>1292.8000488281</ele>
        <time>2021-11-06T07:42:16.000Z</time>
      </trkpt>
      <trkpt lat="45.24813" lon="5.78398">
        <ele>1293</ele>
        <time>2021-11-06T07:42:17.000Z</time>
      </trkpt>
      <trkpt lat="45.24809" lon="5.78398">
        <ele>1294.1999511719</ele>
        <time>2021-11-06T07:42:21.000Z</time>
      </trkpt>
      <trkpt lat="45.24807" lon="5.78398">
        <ele>1294.5999755859</ele>
        <time>2021-11-06T07:42:23.000Z</time>
      </trkpt>
      <trkpt lat="45.24803" lon="5.78397">
        <ele>1295.5999755859</ele>
        <time>2021-11-06T07:42:26.000Z</time>
      </trkpt>
      <trkpt lat="45.248" lon="5.78395">
        <ele>1296.5999755859</ele>
        <time>2021-11-06T07:42:30.000Z</time>
      </trkpt>
      <trkpt lat="45.24799" lon="5.78395">
        <ele>1296.8000488281</ele>
        <time>2021-11-06T07:42:31.000Z</time>
      </trkpt>
      <trkpt lat="45.24797" lon="5.78395">
        <ele>1297.1999511719</ele>
        <time>2021-11-06T07:42:32.000Z</time>
      </trkpt>
      <trkpt lat="45.24794" lon="5.78394">
        <ele>1298</ele>
        <time>2021-11-06T07:42:34.000Z</time>
      </trkpt>
      <trkpt lat="45.24791" lon="5.78394">
        <ele>1299</ele>
        <time>2021-11-06T07:42:38.000Z</time>
      </trkpt>
      <trkpt lat="45.2479" lon="5.78394">
        <ele>1299</ele>
        <time>2021-11-06T07:42:39.000Z</time>
      </trkpt>
      <trkpt lat="45.24787" lon="5.78393">
        <ele>1300</ele>
        <time>2021-11-06T07:42:41.000Z</time>
      </trkpt>
      <trkpt lat="45.24783" lon="5.78393">
        <ele>1301.1999511719</ele>
        <time>2021-11-06T07:42:44.000Z</time>
      </trkpt>
      <trkpt lat="45.24781" lon="5.78392">
        <ele>1301.5999755859</ele>
        <time>2021-11-06T07:42:46.000Z</time>
      </trkpt>
      <trkpt lat="45.24773" lon="5.78388">
        <ele>1301.4000244141</ele>
        <time>2021-11-06T07:42:54.000Z</time>
      </trkpt>
      <trkpt lat="45.24768" lon="5.78385">
        <ele>1302.4000244141</ele>
        <time>2021-11-06T07:42:58.000Z</time>
      </trkpt>
      <trkpt lat="45.24766" lon="5.78383">
        <ele>1303.1999511719</ele>
        <time>2021-11-06T07:43:01.000Z</time>
      </trkpt>
      <trkpt lat="45.24764" lon="5.78383">
        <ele>1303.5999755859</ele>
        <time>2021-11-06T07:43:03.000Z</time>
      </trkpt>
      <trkpt lat="45.24763" lon="5.78383">
        <ele>1303.8000488281</ele>
        <time>2021-11-06T07:43:04.000Z</time>
      </trkpt>
      <trkpt lat="45.24764" lon="5.78384">
        <ele>1304</ele>
        <time>2021-11-06T07:43:05.000Z</time>
      </trkpt>
      <trkpt lat="45.24765" lon="5.78386">
        <ele>1304.5999755859</ele>
        <time>2021-11-06T07:43:08.000Z</time>
      </trkpt>
      <trkpt lat="45.24768" lon="5.78392">
        <ele>1305.8000488281</ele>
        <time>2021-11-06T07:43:13.000Z</time>
      </trkpt>
      <trkpt lat="45.24769" lon="5.78393">
        <ele>1305.8000488281</ele>
        <time>2021-11-06T07:43:14.000Z</time>
      </trkpt>
      <trkpt lat="45.24771" lon="5.78397">
        <ele>1306.4000244141</ele>
        <time>2021-11-06T07:43:18.000Z</time>
      </trkpt>
      <trkpt lat="45.24773" lon="5.78401">
        <ele>1306.8000488281</ele>
        <time>2021-11-06T07:43:20.000Z</time>
      </trkpt>
      <trkpt lat="45.24774" lon="5.78403">
        <ele>1307</ele>
        <time>2021-11-06T07:43:21.000Z</time>
      </trkpt>
      <trkpt lat="45.24775" lon="5.78406">
        <ele>1307.4000244141</ele>
        <time>2021-11-06T07:43:23.000Z</time>
      </trkpt>
      <trkpt lat="45.24776" lon="5.78409">
        <ele>1307.8000488281</ele>
        <time>2021-11-06T07:43:25.000Z</time>
      </trkpt>
      <trkpt lat="45.24778" lon="5.78412">
        <ele>1308</ele>
        <time>2021-11-06T07:43:27.000Z</time>
      </trkpt>
      <trkpt lat="45.24779" lon="5.78414">
        <ele>1308.4000244141</ele>
        <time>2021-11-06T07:43:28.000Z</time>
      </trkpt>
      <trkpt lat="45.24785" lon="5.78423">
        <ele>1309.1999511719</ele>
        <time>2021-11-06T07:43:34.000Z</time>
      </trkpt>
      <trkpt lat="45.24788" lon="5.78428">
        <ele>1309.5999755859</ele>
        <time>2021-11-06T07:43:37.000Z</time>
      </trkpt>
      <trkpt lat="45.24793" lon="5.78435">
        <ele>1310</ele>
        <time>2021-11-06T07:43:41.000Z</time>
      </trkpt>
      <trkpt lat="45.24799" lon="5.78441">
        <ele>1310.1999511719</ele>
        <time>2021-11-06T07:43:44.000Z</time>
      </trkpt>
      <trkpt lat="45.24808" lon="5.78455">
        <ele>1310.4000244141</ele>
        <time>2021-11-06T07:43:50.000Z</time>
      </trkpt>
      <trkpt lat="45.24811" lon="5.7846">
        <ele>1310.5999755859</ele>
        <time>2021-11-06T07:43:52.000Z</time>
      </trkpt>
      <trkpt lat="45.24811" lon="5.78466">
        <ele>1311</ele>
        <time>2021-11-06T07:43:55.000Z</time>
      </trkpt>
      <trkpt lat="45.2481" lon="5.78469">
        <ele>1311</ele>
        <time>2021-11-06T07:43:57.000Z</time>
      </trkpt>
      <trkpt lat="45.2481" lon="5.7847">
        <ele>1311.4000244141</ele>
        <time>2021-11-06T07:43:59.000Z</time>
      </trkpt>
      <trkpt lat="45.24809" lon="5.78473">
        <ele>1312.1999511719</ele>
        <time>2021-11-06T07:44:03.000Z</time>
      </trkpt>
      <trkpt lat="45.24808" lon="5.78473">
        <ele>1312.5999755859</ele>
        <time>2021-11-06T07:44:05.000Z</time>
      </trkpt>
      <trkpt lat="45.24807" lon="5.78474">
        <ele>1313.1999511719</ele>
        <time>2021-11-06T07:44:07.000Z</time>
      </trkpt>
      <trkpt lat="45.24807" lon="5.78475">
        <ele>1313.5999755859</ele>
        <time>2021-11-06T07:44:08.000Z</time>
      </trkpt>
      <trkpt lat="45.24806" lon="5.78476">
        <ele>1314</ele>
        <time>2021-11-06T07:44:09.000Z</time>
      </trkpt>
      <trkpt lat="45.24803" lon="5.78477">
        <ele>1314.8000488281</ele>
        <time>2021-11-06T07:44:11.000Z</time>
      </trkpt>
      <trkpt lat="45.24802" lon="5.78478">
        <ele>1315</ele>
        <time>2021-11-06T07:44:12.000Z</time>
      </trkpt>
      <trkpt lat="45.24801" lon="5.78478">
        <ele>1315.1999511719</ele>
        <time>2021-11-06T07:44:14.000Z</time>
      </trkpt>
      <trkpt lat="45.248" lon="5.7848">
        <ele>1316</ele>
        <time>2021-11-06T07:44:16.000Z</time>
      </trkpt>
      <trkpt lat="45.24799" lon="5.7848">
        <ele>1316.5999755859</ele>
        <time>2021-11-06T07:44:18.000Z</time>
      </trkpt>
      <trkpt lat="45.24797" lon="5.78479">
        <ele>1317</ele>
        <time>2021-11-06T07:44:20.000Z</time>
      </trkpt>
      <trkpt lat="45.24795" lon="5.78477">
        <ele>1317.8000488281</ele>
        <time>2021-11-06T07:44:22.000Z</time>
      </trkpt>
      <trkpt lat="45.24794" lon="5.78476">
        <ele>1318.1999511719</ele>
        <time>2021-11-06T07:44:23.000Z</time>
      </trkpt>
      <trkpt lat="45.24793" lon="5.78475">
        <ele>1318.4000244141</ele>
        <time>2021-11-06T07:44:24.000Z</time>
      </trkpt>
      <trkpt lat="45.24792" lon="5.78473">
        <ele>1318.5999755859</ele>
        <time>2021-11-06T07:44:25.000Z</time>
      </trkpt>
      <trkpt lat="45.24789" lon="5.78472">
        <ele>1318.8000488281</ele>
        <time>2021-11-06T07:44:29.000Z</time>
      </trkpt>
      <trkpt lat="45.24786" lon="5.78473">
        <ele>1319.1999511719</ele>
        <time>2021-11-06T07:44:33.000Z</time>
      </trkpt>
      <trkpt lat="45.24785" lon="5.78473">
        <ele>1319.5999755859</ele>
        <time>2021-11-06T07:44:35.000Z</time>
      </trkpt>
      <trkpt lat="45.24784" lon="5.78473">
        <ele>1320</ele>
        <time>2021-11-06T07:44:36.000Z</time>
      </trkpt>
      <trkpt lat="45.24784" lon="5.78473">
        <ele>1320.4000244141</ele>
        <time>2021-11-06T07:44:37.000Z</time>
      </trkpt>
      <trkpt lat="45.24783" lon="5.78473">
        <ele>1320.8000488281</ele>
        <time>2021-11-06T07:44:38.000Z</time>
      </trkpt>
      <trkpt lat="45.24782" lon="5.78472">
        <ele>1321.4000244141</ele>
        <time>2021-11-06T07:44:41.000Z</time>
      </trkpt>
      <trkpt lat="45.24781" lon="5.78471">
        <ele>1322</ele>
        <time>2021-11-06T07:44:42.000Z</time>
      </trkpt>
      <trkpt lat="45.2478" lon="5.7847">
        <ele>1322.5999755859</ele>
        <time>2021-11-06T07:44:43.000Z</time>
      </trkpt>
      <trkpt lat="45.24779" lon="5.78468">
        <ele>1322.8000488281</ele>
        <time>2021-11-06T07:44:44.000Z</time>
      </trkpt>
      <trkpt lat="45.24779" lon="5.78464">
        <ele>1322.8000488281</ele>
        <time>2021-11-06T07:44:47.000Z</time>
      </trkpt>
      <trkpt lat="45.24776" lon="5.78454">
        <ele>1321.4000244141</ele>
        <time>2021-11-06T07:44:54.000Z</time>
      </trkpt>
      <trkpt lat="45.24776" lon="5.78453">
        <ele>1321.1999511719</ele>
        <time>2021-11-06T07:44:55.000Z</time>
      </trkpt>
      <trkpt lat="45.24775" lon="5.78451">
        <ele>1321</ele>
        <time>2021-11-06T07:44:57.000Z</time>
      </trkpt>
      <trkpt lat="45.24774" lon="5.78449">
        <ele>1320.8000488281</ele>
        <time>2021-11-06T07:45:00.000Z</time>
      </trkpt>
      <trkpt lat="45.24773" lon="5.78448">
        <ele>1320.5999755859</ele>
        <time>2021-11-06T07:45:01.000Z</time>
      </trkpt>
      <trkpt lat="45.24772" lon="5.78445">
        <ele>1320.1999511719</ele>
        <time>2021-11-06T07:45:03.000Z</time>
      </trkpt>
      <trkpt lat="45.24771" lon="5.78443">
        <ele>1320.1999511719</ele>
        <time>2021-11-06T07:45:04.000Z</time>
      </trkpt>
      <trkpt lat="45.24769" lon="5.78441">
        <ele>1320</ele>
        <time>2021-11-06T07:45:07.000Z</time>
      </trkpt>
      <trkpt lat="45.24769" lon="5.7844">
        <ele>1319.8000488281</ele>
        <time>2021-11-06T07:45:08.000Z</time>
      </trkpt>
      <trkpt lat="45.24769" lon="5.78436">
        <ele>1319.5999755859</ele>
        <time>2021-11-06T07:45:11.000Z</time>
      </trkpt>
      <trkpt lat="45.24769" lon="5.78434">
        <ele>1319.1999511719</ele>
        <time>2021-11-06T07:45:12.000Z</time>
      </trkpt>
      <trkpt lat="45.24768" lon="5.78432">
        <ele>1318.5999755859</ele>
        <time>2021-11-06T07:45:14.000Z</time>
      </trkpt>
      <trkpt lat="45.24767" lon="5.78429">
        <ele>1318</ele>
        <time>2021-11-06T07:45:16.000Z</time>
      </trkpt>
      <trkpt lat="45.24767" lon="5.78427">
        <ele>1317.4000244141</ele>
        <time>2021-11-06T07:45:19.000Z</time>
      </trkpt>
      <trkpt lat="45.24767" lon="5.78425">
        <ele>1317</ele>
        <time>2021-11-06T07:45:20.000Z</time>
      </trkpt>
      <trkpt lat="45.24765" lon="5.78424">
        <ele>1316.8000488281</ele>
        <time>2021-11-06T07:45:21.000Z</time>
      </trkpt>
      <trkpt lat="45.24764" lon="5.78422">
        <ele>1316.8000488281</ele>
        <time>2021-11-06T07:45:22.000Z</time>
      </trkpt>
      <trkpt lat="45.24762" lon="5.7842">
        <ele>1316.5999755859</ele>
        <time>2021-11-06T07:45:24.000Z</time>
      </trkpt>
      <trkpt lat="45.2476" lon="5.78418">
        <ele>1316.8000488281</ele>
        <time>2021-11-06T07:45:26.000Z</time>
      </trkpt>
      <trkpt lat="45.24759" lon="5.78416">
        <ele>1317</ele>
        <time>2021-11-06T07:45:28.000Z</time>
      </trkpt>
      <trkpt lat="45.24759" lon="5.78417">
        <ele>1317.1999511719</ele>
        <time>2021-11-06T07:45:29.000Z</time>
      </trkpt>
      <trkpt lat="45.24759" lon="5.78419">
        <ele>1317.5999755859</ele>
        <time>2021-11-06T07:45:32.000Z</time>
      </trkpt>
      <trkpt lat="45.24758" lon="5.7842">
        <ele>1318</ele>
        <time>2021-11-06T07:45:35.000Z</time>
      </trkpt>
      <trkpt lat="45.24757" lon="5.78421">
        <ele>1318.4000244141</ele>
        <time>2021-11-06T07:45:37.000Z</time>
      </trkpt>
      <trkpt lat="45.24757" lon="5.78421">
        <ele>1318.5999755859</ele>
        <time>2021-11-06T07:45:38.000Z</time>
      </trkpt>
      <trkpt lat="45.24757" lon="5.78422">
        <ele>1319</ele>
        <time>2021-11-06T07:45:41.000Z</time>
      </trkpt>
      <trkpt lat="45.24757" lon="5.78423">
        <ele>1319</ele>
        <time>2021-11-06T07:45:44.000Z</time>
      </trkpt>
      <trkpt lat="45.24756" lon="5.78423">
        <ele>1319.1999511719</ele>
        <time>2021-11-06T07:45:56.000Z</time>
      </trkpt>
      <trkpt lat="45.24757" lon="5.78422">
        <ele>1319.4000244141</ele>
        <time>2021-11-06T07:46:19.000Z</time>
      </trkpt>
      <trkpt lat="45.24757" lon="5.78422">
        <ele>1319.5999755859</ele>
        <time>2021-11-06T07:46:26.000Z</time>
      </trkpt>
      <trkpt lat="45.24757" lon="5.78422">
        <ele>1319</ele>
        <time>2021-11-06T07:46:32.000Z</time>
      </trkpt>
      <trkpt lat="45.24757" lon="5.78421">
        <ele>1318.1999511719</ele>
        <time>2021-11-06T07:46:37.000Z</time>
      </trkpt>
      <trkpt lat="45.24757" lon="5.78421">
        <ele>1317.8000488281</ele>
        <time>2021-11-06T07:46:39.000Z</time>
      </trkpt>
      <trkpt lat="45.24755" lon="5.78414">
        <ele>1316.8000488281</ele>
        <time>2021-11-06T07:46:43.000Z</time>
      </trkpt>
      <trkpt lat="45.24755" lon="5.78412">
        <ele>1316.8000488281</ele>
        <time>2021-11-06T07:46:44.000Z</time>
      </trkpt>
      <trkpt lat="45.24753" lon="5.78405">
        <ele>1316.5999755859</ele>
        <time>2021-11-06T07:46:50.000Z</time>
      </trkpt>
      <trkpt lat="45.24753" lon="5.78405">
        <ele>1316.5999755859</ele>
        <time>2021-11-06T07:46:52.000Z</time>
      </trkpt>
      <trkpt lat="45.24753" lon="5.78406">
        <ele>1316.5999755859</ele>
        <time>2021-11-06T07:46:55.000Z</time>
      </trkpt>
      <trkpt lat="45.24752" lon="5.78406">
        <ele>1316.5999755859</ele>
        <time>2021-11-06T07:46:57.000Z</time>
      </trkpt>
      <trkpt lat="45.2475" lon="5.78405">
        <ele>1316.8000488281</ele>
        <time>2021-11-06T07:47:07.000Z</time>
      </trkpt>
      <trkpt lat="45.24747" lon="5.78402">
        <ele>1317.1999511719</ele>
        <time>2021-11-06T07:47:10.000Z</time>
      </trkpt>
      <trkpt lat="45.24742" lon="5.78401">
        <ele>1317.5999755859</ele>
        <time>2021-11-06T07:47:16.000Z</time>
      </trkpt>
      <trkpt lat="45.24742" lon="5.78401">
        <ele>1317.8000488281</ele>
        <time>2021-11-06T07:47:17.000Z</time>
      </trkpt>
      <trkpt lat="45.24739" lon="5.78403">
        <ele>1319</ele>
        <time>2021-11-06T07:47:22.000Z</time>
      </trkpt>
      <trkpt lat="45.24735" lon="5.78403">
        <ele>1320.4000244141</ele>
        <time>2021-11-06T07:47:28.000Z</time>
      </trkpt>
      <trkpt lat="45.24732" lon="5.78404">
        <ele>1321.4000244141</ele>
        <time>2021-11-06T07:47:31.000Z</time>
      </trkpt>
      <trkpt lat="45.2473" lon="5.78406">
        <ele>1322.4000244141</ele>
        <time>2021-11-06T07:47:36.000Z</time>
      </trkpt>
      <trkpt lat="45.24729" lon="5.78407">
        <ele>1323</ele>
        <time>2021-11-06T07:47:38.000Z</time>
      </trkpt>
      <trkpt lat="45.24727" lon="5.78409">
        <ele>1323.5999755859</ele>
        <time>2021-11-06T07:47:41.000Z</time>
      </trkpt>
      <trkpt lat="45.24726" lon="5.78409">
        <ele>1323.5999755859</ele>
        <time>2021-11-06T07:47:42.000Z</time>
      </trkpt>
      <trkpt lat="45.24721" lon="5.78406">
        <ele>1324.4000244141</ele>
        <time>2021-11-06T07:47:48.000Z</time>
      </trkpt>
      <trkpt lat="45.24721" lon="5.78406">
        <ele>1324.5999755859</ele>
        <time>2021-11-06T07:47:49.000Z</time>
      </trkpt>
      <trkpt lat="45.2472" lon="5.78406">
        <ele>1324.8000488281</ele>
        <time>2021-11-06T07:47:50.000Z</time>
      </trkpt>
      <trkpt lat="45.24717" lon="5.78404">
        <ele>1325.5999755859</ele>
        <time>2021-11-06T07:47:54.000Z</time>
      </trkpt>
      <trkpt lat="45.24714" lon="5.78404">
        <ele>1326.1999511719</ele>
        <time>2021-11-06T07:47:57.000Z</time>
      </trkpt>
      <trkpt lat="45.24712" lon="5.78405">
        <ele>1326.8000488281</ele>
        <time>2021-11-06T07:47:59.000Z</time>
      </trkpt>
      <trkpt lat="45.2471" lon="5.78405">
        <ele>1328</ele>
        <time>2021-11-06T07:48:04.000Z</time>
      </trkpt>
      <trkpt lat="45.2471" lon="5.78406">
        <ele>1328.5999755859</ele>
        <time>2021-11-06T07:48:06.000Z</time>
      </trkpt>
      <trkpt lat="45.24709" lon="5.78409">
        <ele>1328.8000488281</ele>
        <time>2021-11-06T07:48:08.000Z</time>
      </trkpt>
      <trkpt lat="45.24706" lon="5.78409">
        <ele>1329.1999511719</ele>
        <time>2021-11-06T07:48:11.000Z</time>
      </trkpt>
      <trkpt lat="45.24706" lon="5.78409">
        <ele>1329.5999755859</ele>
        <time>2021-11-06T07:48:12.000Z</time>
      </trkpt>
      <trkpt lat="45.24704" lon="5.78409">
        <ele>1330.1999511719</ele>
        <time>2021-11-06T07:48:14.000Z</time>
      </trkpt>
      <trkpt lat="45.24703" lon="5.78409">
        <ele>1330.4000244141</ele>
        <time>2021-11-06T07:48:15.000Z</time>
      </trkpt>
      <trkpt lat="45.247" lon="5.78409">
        <ele>1331.4000244141</ele>
        <time>2021-11-06T07:48:18.000Z</time>
      </trkpt>
      <trkpt lat="45.24699" lon="5.7841">
        <ele>1331.8000488281</ele>
        <time>2021-11-06T07:48:20.000Z</time>
      </trkpt>
      <trkpt lat="45.24698" lon="5.78411">
        <ele>1332</ele>
        <time>2021-11-06T07:48:21.000Z</time>
      </trkpt>
      <trkpt lat="45.24696" lon="5.7841">
        <ele>1332.5999755859</ele>
        <time>2021-11-06T07:48:24.000Z</time>
      </trkpt>
      <trkpt lat="45.24692" lon="5.7841">
        <ele>1333.5999755859</ele>
        <time>2021-11-06T07:48:28.000Z</time>
      </trkpt>
      <trkpt lat="45.2469" lon="5.78411">
        <ele>1334.1999511719</ele>
        <time>2021-11-06T07:48:30.000Z</time>
      </trkpt>
      <trkpt lat="45.24688" lon="5.78408">
        <ele>1334.8000488281</ele>
        <time>2021-11-06T07:48:33.000Z</time>
      </trkpt>
      <trkpt lat="45.2468" lon="5.78404">
        <ele>1335.4000244141</ele>
        <time>2021-11-06T07:48:40.000Z</time>
      </trkpt>
      <trkpt lat="45.24678" lon="5.78403">
        <ele>1335.8000488281</ele>
        <time>2021-11-06T07:48:42.000Z</time>
      </trkpt>
      <trkpt lat="45.24677" lon="5.78403">
        <ele>1336</ele>
        <time>2021-11-06T07:48:44.000Z</time>
      </trkpt>
      <trkpt lat="45.24676" lon="5.78404">
        <ele>1336.4000244141</ele>
        <time>2021-11-06T07:48:46.000Z</time>
      </trkpt>
      <trkpt lat="45.24675" lon="5.78405">
        <ele>1337</ele>
        <time>2021-11-06T07:48:48.000Z</time>
      </trkpt>
      <trkpt lat="45.24673" lon="5.78405">
        <ele>1337.8000488281</ele>
        <time>2021-11-06T07:48:51.000Z</time>
      </trkpt>
      <trkpt lat="45.24672" lon="5.78405">
        <ele>1338</ele>
        <time>2021-11-06T07:48:52.000Z</time>
      </trkpt>
      <trkpt lat="45.24671" lon="5.78404">
        <ele>1338.1999511719</ele>
        <time>2021-11-06T07:48:53.000Z</time>
      </trkpt>
      <trkpt lat="45.2467" lon="5.78405">
        <ele>1338.5999755859</ele>
        <time>2021-11-06T07:48:55.000Z</time>
      </trkpt>
      <trkpt lat="45.24669" lon="5.78407">
        <ele>1339</ele>
        <time>2021-11-06T07:48:58.000Z</time>
      </trkpt>
      <trkpt lat="45.24669" lon="5.78407">
        <ele>1339.4000244141</ele>
        <time>2021-11-06T07:48:59.000Z</time>
      </trkpt>
      <trkpt lat="45.24666" lon="5.78406">
        <ele>1340.1999511719</ele>
        <time>2021-11-06T07:49:03.000Z</time>
      </trkpt>
      <trkpt lat="45.24664" lon="5.78405">
        <ele>1340.5999755859</ele>
        <time>2021-11-06T07:49:05.000Z</time>
      </trkpt>
      <trkpt lat="45.24661" lon="5.78404">
        <ele>1341.1999511719</ele>
        <time>2021-11-06T07:49:08.000Z</time>
      </trkpt>
      <trkpt lat="45.24658" lon="5.78404">
        <ele>1341.8000488281</ele>
        <time>2021-11-06T07:49:11.000Z</time>
      </trkpt>
      <trkpt lat="45.24656" lon="5.78402">
        <ele>1342</ele>
        <time>2021-11-06T07:49:13.000Z</time>
      </trkpt>
      <trkpt lat="45.24651" lon="5.78401">
        <ele>1342.5999755859</ele>
        <time>2021-11-06T07:49:18.000Z</time>
      </trkpt>
      <trkpt lat="45.24651" lon="5.78402">
        <ele>1342.8000488281</ele>
        <time>2021-11-06T07:49:19.000Z</time>
      </trkpt>
      <trkpt lat="45.2465" lon="5.78402">
        <ele>1343</ele>
        <time>2021-11-06T07:49:20.000Z</time>
      </trkpt>
      <trkpt lat="45.2465" lon="5.78402">
        <ele>1343</ele>
        <time>2021-11-06T07:49:21.000Z</time>
      </trkpt>
      <trkpt lat="45.24646" lon="5.78402">
        <ele>1343.8000488281</ele>
        <time>2021-11-06T07:49:25.000Z</time>
      </trkpt>
      <trkpt lat="45.24645" lon="5.78402">
        <ele>1344</ele>
        <time>2021-11-06T07:49:26.000Z</time>
      </trkpt>
      <trkpt lat="45.24641" lon="5.78399">
        <ele>1344.4000244141</ele>
        <time>2021-11-06T07:49:31.000Z</time>
      </trkpt>
      <trkpt lat="45.24639" lon="5.78396">
        <ele>1344.4000244141</ele>
        <time>2021-11-06T07:49:34.000Z</time>
      </trkpt>
      <trkpt lat="45.24634" lon="5.78394">
        <ele>1345</ele>
        <time>2021-11-06T07:49:40.000Z</time>
      </trkpt>
      <trkpt lat="45.24634" lon="5.78393">
        <ele>1345</ele>
        <time>2021-11-06T07:49:41.000Z</time>
      </trkpt>
      <trkpt lat="45.24628" lon="5.78387">
        <ele>1344.8000488281</ele>
        <time>2021-11-06T07:49:48.000Z</time>
      </trkpt>
      <trkpt lat="45.24627" lon="5.78385">
        <ele>1344.5999755859</ele>
        <time>2021-11-06T07:49:51.000Z</time>
      </trkpt>
      <trkpt lat="45.24625" lon="5.78383">
        <ele>1344.4000244141</ele>
        <time>2021-11-06T07:49:53.000Z</time>
      </trkpt>
      <trkpt lat="45.24622" lon="5.78381">
        <ele>1344.1999511719</ele>
        <time>2021-11-06T07:49:55.000Z</time>
      </trkpt>
      <trkpt lat="45.24619" lon="5.7838">
        <ele>1344</ele>
        <time>2021-11-06T07:49:58.000Z</time>
      </trkpt>
      <trkpt lat="45.24614" lon="5.7838">
        <ele>1344.1999511719</ele>
        <time>2021-11-06T07:50:01.000Z</time>
      </trkpt>
      <trkpt lat="45.2461" lon="5.78376">
        <ele>1344.1999511719</ele>
        <time>2021-11-06T07:50:04.000Z</time>
      </trkpt>
      <trkpt lat="45.24605" lon="5.78371">
        <ele>1343.8000488281</ele>
        <time>2021-11-06T07:50:08.000Z</time>
      </trkpt>
      <trkpt lat="45.24603" lon="5.78368">
        <ele>1343.5999755859</ele>
        <time>2021-11-06T07:50:10.000Z</time>
      </trkpt>
      <trkpt lat="45.246" lon="5.78364">
        <ele>1343.1999511719</ele>
        <time>2021-11-06T07:50:12.000Z</time>
      </trkpt>
      <trkpt lat="45.24598" lon="5.78363">
        <ele>1343.1999511719</ele>
        <time>2021-11-06T07:50:13.000Z</time>
      </trkpt>
      <trkpt lat="45.24592" lon="5.78359">
        <ele>1343.1999511719</ele>
        <time>2021-11-06T07:50:17.000Z</time>
      </trkpt>
      <trkpt lat="45.24589" lon="5.78354">
        <ele>1343</ele>
        <time>2021-11-06T07:50:20.000Z</time>
      </trkpt>
      <trkpt lat="45.24585" lon="5.78349">
        <ele>1342.8000488281</ele>
        <time>2021-11-06T07:50:23.000Z</time>
      </trkpt>
      <trkpt lat="45.24583" lon="5.78345">
        <ele>1342.4000244141</ele>
        <time>2021-11-06T07:50:25.000Z</time>
      </trkpt>
      <trkpt lat="45.2458" lon="5.78342">
        <ele>1342</ele>
        <time>2021-11-06T07:50:28.000Z</time>
      </trkpt>
      <trkpt lat="45.24579" lon="5.78338">
        <ele>1341.5999755859</ele>
        <time>2021-11-06T07:50:30.000Z</time>
      </trkpt>
      <trkpt lat="45.24578" lon="5.78336">
        <ele>1342.4000244141</ele>
        <time>2021-11-06T07:50:31.000Z</time>
      </trkpt>
      <trkpt lat="45.24574" lon="5.78329">
        <ele>1342.1999511719</ele>
        <time>2021-11-06T07:50:35.000Z</time>
      </trkpt>
      <trkpt lat="45.24573" lon="5.78328">
        <ele>1341.5999755859</ele>
        <time>2021-11-06T07:50:36.000Z</time>
      </trkpt>
      <trkpt lat="45.24571" lon="5.78325">
        <ele>1341</ele>
        <time>2021-11-06T07:50:38.000Z</time>
      </trkpt>
      <trkpt lat="45.2457" lon="5.78321">
        <ele>1340.4000244141</ele>
        <time>2021-11-06T07:50:40.000Z</time>
      </trkpt>
      <trkpt lat="45.24569" lon="5.78318">
        <ele>1340</ele>
        <time>2021-11-06T07:50:42.000Z</time>
      </trkpt>
      <trkpt lat="45.24568" lon="5.78315">
        <ele>1339.4000244141</ele>
        <time>2021-11-06T07:50:44.000Z</time>
      </trkpt>
      <trkpt lat="45.24567" lon="5.78313">
        <ele>1339</ele>
        <time>2021-11-06T07:50:45.000Z</time>
      </trkpt>
      <trkpt lat="45.24565" lon="5.7831">
        <ele>1338.4000244141</ele>
        <time>2021-11-06T07:50:47.000Z</time>
      </trkpt>
      <trkpt lat="45.24562" lon="5.78302">
        <ele>1337.1999511719</ele>
        <time>2021-11-06T07:50:52.000Z</time>
      </trkpt>
      <trkpt lat="45.24561" lon="5.783">
        <ele>1337</ele>
        <time>2021-11-06T07:50:53.000Z</time>
      </trkpt>
      <trkpt lat="45.24557" lon="5.78294">
        <ele>1336</ele>
        <time>2021-11-06T07:50:57.000Z</time>
      </trkpt>
      <trkpt lat="45.24554" lon="5.78289">
        <ele>1335.1999511719</ele>
        <time>2021-11-06T07:51:00.000Z</time>
      </trkpt>
      <trkpt lat="45.24553" lon="5.78288">
        <ele>1335.1999511719</ele>
        <time>2021-11-06T07:51:01.000Z</time>
      </trkpt>
      <trkpt lat="45.2455" lon="5.78284">
        <ele>1335</ele>
        <time>2021-11-06T07:51:03.000Z</time>
      </trkpt>
      <trkpt lat="45.24544" lon="5.78277">
        <ele>1334.4000244141</ele>
        <time>2021-11-06T07:51:07.000Z</time>
      </trkpt>
      <trkpt lat="45.24535" lon="5.78269">
        <ele>1334.1999511719</ele>
        <time>2021-11-06T07:51:13.000Z</time>
      </trkpt>
      <trkpt lat="45.24527" lon="5.78265">
        <ele>1335</ele>
        <time>2021-11-06T07:51:19.000Z</time>
      </trkpt>
      <trkpt lat="45.24525" lon="5.78261">
        <ele>1335.4000244141</ele>
        <time>2021-11-06T07:51:22.000Z</time>
      </trkpt>
      <trkpt lat="45.24524" lon="5.7826">
        <ele>1335.1999511719</ele>
        <time>2021-11-06T07:51:23.000Z</time>
      </trkpt>
      <trkpt lat="45.24524" lon="5.78258">
        <ele>1335</ele>
        <time>2021-11-06T07:51:25.000Z</time>
      </trkpt>
      <trkpt lat="45.24521" lon="5.78252">
        <ele>1333.8000488281</ele>
        <time>2021-11-06T07:51:29.000Z</time>
      </trkpt>
      <trkpt lat="45.2452" lon="5.78249">
        <ele>1333.1999511719</ele>
        <time>2021-11-06T07:51:31.000Z</time>
      </trkpt>
      <trkpt lat="45.24517" lon="5.78243">
        <ele>1332.5999755859</ele>
        <time>2021-11-06T07:51:34.000Z</time>
      </trkpt>
      <trkpt lat="45.24516" lon="5.7824">
        <ele>1332</ele>
        <time>2021-11-06T07:51:36.000Z</time>
      </trkpt>
      <trkpt lat="45.24515" lon="5.78237">
        <ele>1331.4000244141</ele>
        <time>2021-11-06T07:51:38.000Z</time>
      </trkpt>
      <trkpt lat="45.24514" lon="5.78235">
        <ele>1331</ele>
        <time>2021-11-06T07:51:39.000Z</time>
      </trkpt>
      <trkpt lat="45.24513" lon="5.78233">
        <ele>1330.8000488281</ele>
        <time>2021-11-06T07:51:40.000Z</time>
      </trkpt>
      <trkpt lat="45.24512" lon="5.78232">
        <ele>1330.5999755859</ele>
        <time>2021-11-06T07:51:41.000Z</time>
      </trkpt>
      <trkpt lat="45.2451" lon="5.78231">
        <ele>1330.5999755859</ele>
        <time>2021-11-06T07:51:43.000Z</time>
      </trkpt>
      <trkpt lat="45.24506" lon="5.78222">
        <ele>1330.1999511719</ele>
        <time>2021-11-06T07:51:47.000Z</time>
      </trkpt>
      <trkpt lat="45.24502" lon="5.78215">
        <ele>1329.1999511719</ele>
        <time>2021-11-06T07:51:51.000Z</time>
      </trkpt>
      <trkpt lat="45.24501" lon="5.78214">
        <ele>1329</ele>
        <time>2021-11-06T07:51:52.000Z</time>
      </trkpt>
      <trkpt lat="45.24501" lon="5.78211">
        <ele>1328.5999755859</ele>
        <time>2021-11-06T07:51:54.000Z</time>
      </trkpt>
      <trkpt lat="45.245" lon="5.78208">
        <ele>1328</ele>
        <time>2021-11-06T07:51:56.000Z</time>
      </trkpt>
      <trkpt lat="45.245" lon="5.78206">
        <ele>1327.5999755859</ele>
        <time>2021-11-06T07:51:57.000Z</time>
      </trkpt>
      <trkpt lat="45.24496" lon="5.782">
        <ele>1326.8000488281</ele>
        <time>2021-11-06T07:52:00.000Z</time>
      </trkpt>
      <trkpt lat="45.24492" lon="5.78198">
        <ele>1326</ele>
        <time>2021-11-06T07:52:02.000Z</time>
      </trkpt>
      <trkpt lat="45.2449" lon="5.78196">
        <ele>1326</ele>
        <time>2021-11-06T07:52:03.000Z</time>
      </trkpt>
      <trkpt lat="45.24487" lon="5.78191">
        <ele>1326</ele>
        <time>2021-11-06T07:52:07.000Z</time>
      </trkpt>
      <trkpt lat="45.24485" lon="5.78184">
        <ele>1325.5999755859</ele>
        <time>2021-11-06T07:52:11.000Z</time>
      </trkpt>
      <trkpt lat="45.24483" lon="5.78181">
        <ele>1325</ele>
        <time>2021-11-06T07:52:14.000Z</time>
      </trkpt>
      <trkpt lat="45.24481" lon="5.78179">
        <ele>1324.5999755859</ele>
        <time>2021-11-06T07:52:16.000Z</time>
      </trkpt>
      <trkpt lat="45.24477" lon="5.78171">
        <ele>1324</ele>
        <time>2021-11-06T07:52:20.000Z</time>
      </trkpt>
      <trkpt lat="45.24474" lon="5.78168">
        <ele>1323.5999755859</ele>
        <time>2021-11-06T07:52:23.000Z</time>
      </trkpt>
      <trkpt lat="45.24473" lon="5.78165">
        <ele>1323.4000244141</ele>
        <time>2021-11-06T07:52:25.000Z</time>
      </trkpt>
      <trkpt lat="45.24468" lon="5.78156">
        <ele>1322.5999755859</ele>
        <time>2021-11-06T07:52:31.000Z</time>
      </trkpt>
      <trkpt lat="45.24466" lon="5.78152">
        <ele>1322.4000244141</ele>
        <time>2021-11-06T07:52:34.000Z</time>
      </trkpt>
      <trkpt lat="45.24464" lon="5.78147">
        <ele>1321.4000244141</ele>
        <time>2021-11-06T07:52:39.000Z</time>
      </trkpt>
      <trkpt lat="45.24464" lon="5.78146">
        <ele>1321.1999511719</ele>
        <time>2021-11-06T07:52:40.000Z</time>
      </trkpt>
      <trkpt lat="45.24464" lon="5.78145">
        <ele>1320.8000488281</ele>
        <time>2021-11-06T07:52:41.000Z</time>
      </trkpt>
      <trkpt lat="45.24463" lon="5.78144">
        <ele>1320.8000488281</ele>
        <time>2021-11-06T07:52:42.000Z</time>
      </trkpt>
      <trkpt lat="45.24463" lon="5.78142">
        <ele>1320.4000244141</ele>
        <time>2021-11-06T07:52:45.000Z</time>
      </trkpt>
      <trkpt lat="45.2446" lon="5.78139">
        <ele>1320</ele>
        <time>2021-11-06T07:52:48.000Z</time>
      </trkpt>
      <trkpt lat="45.24456" lon="5.78133">
        <ele>1319.4000244141</ele>
        <time>2021-11-06T07:52:54.000Z</time>
      </trkpt>
      <trkpt lat="45.24455" lon="5.7813">
        <ele>1319.1999511719</ele>
        <time>2021-11-06T07:52:56.000Z</time>
      </trkpt>
      <trkpt lat="45.24454" lon="5.78125">
        <ele>1318.1999511719</ele>
        <time>2021-11-06T07:53:02.000Z</time>
      </trkpt>
      <trkpt lat="45.24452" lon="5.78122">
        <ele>1317.5999755859</ele>
        <time>2021-11-06T07:53:05.000Z</time>
      </trkpt>
      <trkpt lat="45.24452" lon="5.7812">
        <ele>1317.1999511719</ele>
        <time>2021-11-06T07:53:07.000Z</time>
      </trkpt>
      <trkpt lat="45.2445" lon="5.78113">
        <ele>1316.4000244141</ele>
        <time>2021-11-06T07:53:12.000Z</time>
      </trkpt>
      <trkpt lat="45.24449" lon="5.78112">
        <ele>1316</ele>
        <time>2021-11-06T07:53:13.000Z</time>
      </trkpt>
      <trkpt lat="45.24446" lon="5.78108">
        <ele>1315.5999755859</ele>
        <time>2021-11-06T07:53:17.000Z</time>
      </trkpt>
      <trkpt lat="45.24445" lon="5.78108">
        <ele>1315.5999755859</ele>
        <time>2021-11-06T07:53:18.000Z</time>
      </trkpt>
      <trkpt lat="45.24442" lon="5.78105">
        <ele>1316</ele>
        <time>2021-11-06T07:53:23.000Z</time>
      </trkpt>
      <trkpt lat="45.24441" lon="5.78105">
        <ele>1316.4000244141</ele>
        <time>2021-11-06T07:53:25.000Z</time>
      </trkpt>
      <trkpt lat="45.24436" lon="5.78104">
        <ele>1317.1999511719</ele>
        <time>2021-11-06T07:53:30.000Z</time>
      </trkpt>
      <trkpt lat="45.24436" lon="5.78104">
        <ele>1317.4000244141</ele>
        <time>2021-11-06T07:53:31.000Z</time>
      </trkpt>
      <trkpt lat="45.24435" lon="5.78104">
        <ele>1317.5999755859</ele>
        <time>2021-11-06T07:53:33.000Z</time>
      </trkpt>
      <trkpt lat="45.24432" lon="5.78103">
        <ele>1318.4000244141</ele>
        <time>2021-11-06T07:53:36.000Z</time>
      </trkpt>
      <trkpt lat="45.24432" lon="5.78102">
        <ele>1318.5999755859</ele>
        <time>2021-11-06T07:53:37.000Z</time>
      </trkpt>
      <trkpt lat="45.24431" lon="5.78101">
        <ele>1318.8000488281</ele>
        <time>2021-11-06T07:53:39.000Z</time>
      </trkpt>
      <trkpt lat="45.24429" lon="5.78098">
        <ele>1318.8000488281</ele>
        <time>2021-11-06T07:53:45.000Z</time>
      </trkpt>
      <trkpt lat="45.24421" lon="5.78088">
        <ele>1319</ele>
        <time>2021-11-06T07:53:53.000Z</time>
      </trkpt>
      <trkpt lat="45.24419" lon="5.78088">
        <ele>1319.5999755859</ele>
        <time>2021-11-06T07:53:56.000Z</time>
      </trkpt>
      <trkpt lat="45.24417" lon="5.78088">
        <ele>1319.5999755859</ele>
        <time>2021-11-06T07:53:58.000Z</time>
      </trkpt>
      <trkpt lat="45.24417" lon="5.78087">
        <ele>1319.8000488281</ele>
        <time>2021-11-06T07:53:59.000Z</time>
      </trkpt>
      <trkpt lat="45.24413" lon="5.78082">
        <ele>1320.1999511719</ele>
        <time>2021-11-06T07:54:03.000Z</time>
      </trkpt>
      <trkpt lat="45.24409" lon="5.78079">
        <ele>1320.5999755859</ele>
        <time>2021-11-06T07:54:06.000Z</time>
      </trkpt>
      <trkpt lat="45.24407" lon="5.78078">
        <ele>1320.5999755859</ele>
        <time>2021-11-06T07:54:08.000Z</time>
      </trkpt>
      <trkpt lat="45.24403" lon="5.78078">
        <ele>1323</ele>
        <time>2021-11-06T07:54:13.000Z</time>
      </trkpt>
      <trkpt lat="45.24401" lon="5.78076">
        <ele>1323</ele>
        <time>2021-11-06T07:54:15.000Z</time>
      </trkpt>
      <trkpt lat="45.24398" lon="5.78072">
        <ele>1323</ele>
        <time>2021-11-06T07:54:18.000Z</time>
      </trkpt>
      <trkpt lat="45.24398" lon="5.7807">
        <ele>1323.1999511719</ele>
        <time>2021-11-06T07:54:19.000Z</time>
      </trkpt>
      <trkpt lat="45.24395" lon="5.78067">
        <ele>1323</ele>
        <time>2021-11-06T07:54:21.000Z</time>
      </trkpt>
      <trkpt lat="45.24393" lon="5.78066">
        <ele>1323</ele>
        <time>2021-11-06T07:54:23.000Z</time>
      </trkpt>
      <trkpt lat="45.24391" lon="5.78069">
        <ele>1323.4000244141</ele>
        <time>2021-11-06T07:54:26.000Z</time>
      </trkpt>
      <trkpt lat="45.24389" lon="5.78066">
        <ele>1323.5999755859</ele>
        <time>2021-11-06T07:54:28.000Z</time>
      </trkpt>
      <trkpt lat="45.24389" lon="5.78065">
        <ele>1323.8000488281</ele>
        <time>2021-11-06T07:54:29.000Z</time>
      </trkpt>
      <trkpt lat="45.24388" lon="5.78063">
        <ele>1324</ele>
        <time>2021-11-06T07:54:30.000Z</time>
      </trkpt>
      <trkpt lat="45.24386" lon="5.7806">
        <ele>1324.4000244141</ele>
        <time>2021-11-06T07:54:32.000Z</time>
      </trkpt>
      <trkpt lat="45.24383" lon="5.78055">
        <ele>1325.1999511719</ele>
        <time>2021-11-06T07:54:36.000Z</time>
      </trkpt>
      <trkpt lat="45.24381" lon="5.78053">
        <ele>1325.4000244141</ele>
        <time>2021-11-06T07:54:38.000Z</time>
      </trkpt>
      <trkpt lat="45.24378" lon="5.78051">
        <ele>1326.1999511719</ele>
        <time>2021-11-06T07:54:40.000Z</time>
      </trkpt>
      <trkpt lat="45.24376" lon="5.7805">
        <ele>1326.8000488281</ele>
        <time>2021-11-06T07:54:43.000Z</time>
      </trkpt>
      <trkpt lat="45.24375" lon="5.78049">
        <ele>1327.1999511719</ele>
        <time>2021-11-06T07:54:44.000Z</time>
      </trkpt>
      <trkpt lat="45.24374" lon="5.78048">
        <ele>1327.4000244141</ele>
        <time>2021-11-06T07:54:45.000Z</time>
      </trkpt>
      <trkpt lat="45.24374" lon="5.78046">
        <ele>1328</ele>
        <time>2021-11-06T07:54:46.000Z</time>
      </trkpt>
      <trkpt lat="45.24371" lon="5.78043">
        <ele>1328.4000244141</ele>
        <time>2021-11-06T07:54:48.000Z</time>
      </trkpt>
      <trkpt lat="45.2437" lon="5.78042">
        <ele>1328.5999755859</ele>
        <time>2021-11-06T07:54:49.000Z</time>
      </trkpt>
      <trkpt lat="45.24368" lon="5.78036">
        <ele>1329.4000244141</ele>
        <time>2021-11-06T07:54:53.000Z</time>
      </trkpt>
      <trkpt lat="45.24367" lon="5.78034">
        <ele>1329.4000244141</ele>
        <time>2021-11-06T07:54:54.000Z</time>
      </trkpt>
      <trkpt lat="45.24367" lon="5.78032">
        <ele>1329.5999755859</ele>
        <time>2021-11-06T07:54:55.000Z</time>
      </trkpt>
      <trkpt lat="45.24362" lon="5.78024">
        <ele>1330.1999511719</ele>
        <time>2021-11-06T07:55:01.000Z</time>
      </trkpt>
      <trkpt lat="45.24358" lon="5.78015">
        <ele>1329.5999755859</ele>
        <time>2021-11-06T07:55:07.000Z</time>
      </trkpt>
      <trkpt lat="45.24358" lon="5.78014">
        <ele>1329.5999755859</ele>
        <time>2021-11-06T07:55:08.000Z</time>
      </trkpt>
      <trkpt lat="45.24357" lon="5.78013">
        <ele>1329.5999755859</ele>
        <time>2021-11-06T07:55:09.000Z</time>
      </trkpt>
      <trkpt lat="45.24354" lon="5.78011">
        <ele>1329.8000488281</ele>
        <time>2021-11-06T07:55:12.000Z</time>
      </trkpt>
      <trkpt lat="45.24354" lon="5.7801">
        <ele>1330</ele>
        <time>2021-11-06T07:55:13.000Z</time>
      </trkpt>
      <trkpt lat="45.2435" lon="5.78004">
        <ele>1330.4000244141</ele>
        <time>2021-11-06T07:55:18.000Z</time>
      </trkpt>
      <trkpt lat="45.24349" lon="5.78002">
        <ele>1330.5999755859</ele>
        <time>2021-11-06T07:55:20.000Z</time>
      </trkpt>
      <trkpt lat="45.24346" lon="5.78">
        <ele>1331</ele>
        <time>2021-11-06T07:55:22.000Z</time>
      </trkpt>
      <trkpt lat="45.24346" lon="5.77995">
        <ele>1331.4000244141</ele>
        <time>2021-11-06T07:55:25.000Z</time>
      </trkpt>
      <trkpt lat="45.24346" lon="5.7799">
        <ele>1331.1999511719</ele>
        <time>2021-11-06T07:55:28.000Z</time>
      </trkpt>
      <trkpt lat="45.24343" lon="5.77979">
        <ele>1329.5999755859</ele>
        <time>2021-11-06T07:55:34.000Z</time>
      </trkpt>
      <trkpt lat="45.24342" lon="5.77977">
        <ele>1329.4000244141</ele>
        <time>2021-11-06T07:55:35.000Z</time>
      </trkpt>
      <trkpt lat="45.24336" lon="5.77966">
        <ele>1328.8000488281</ele>
        <time>2021-11-06T07:55:40.000Z</time>
      </trkpt>
      <trkpt lat="45.24329" lon="5.77963">
        <ele>1329.1999511719</ele>
        <time>2021-11-06T07:55:46.000Z</time>
      </trkpt>
      <trkpt lat="45.24326" lon="5.77963">
        <ele>1329.8000488281</ele>
        <time>2021-11-06T07:55:48.000Z</time>
      </trkpt>
      <trkpt lat="45.24323" lon="5.77963">
        <ele>1330.5999755859</ele>
        <time>2021-11-06T07:55:51.000Z</time>
      </trkpt>
      <trkpt lat="45.24321" lon="5.77962">
        <ele>1331</ele>
        <time>2021-11-06T07:55:52.000Z</time>
      </trkpt>
      <trkpt lat="45.24319" lon="5.77961">
        <ele>1331.5999755859</ele>
        <time>2021-11-06T07:55:54.000Z</time>
      </trkpt>
      <trkpt lat="45.24316" lon="5.7796">
        <ele>1332.4000244141</ele>
        <time>2021-11-06T07:55:58.000Z</time>
      </trkpt>
      <trkpt lat="45.24316" lon="5.7796">
        <ele>1332.5999755859</ele>
        <time>2021-11-06T07:55:59.000Z</time>
      </trkpt>
      <trkpt lat="45.24315" lon="5.77959">
        <ele>1333</ele>
        <time>2021-11-06T07:56:03.000Z</time>
      </trkpt>
      <trkpt lat="45.24308" lon="5.77951">
        <ele>1333</ele>
        <time>2021-11-06T07:56:09.000Z</time>
      </trkpt>
      <trkpt lat="45.24298" lon="5.77944">
        <ele>1333</ele>
        <time>2021-11-06T07:56:15.000Z</time>
      </trkpt>
      <trkpt lat="45.24288" lon="5.77932">
        <ele>1332.4000244141</ele>
        <time>2021-11-06T07:56:21.000Z</time>
      </trkpt>
      <trkpt lat="45.24288" lon="5.77931">
        <ele>1332.1999511719</ele>
        <time>2021-11-06T07:56:22.000Z</time>
      </trkpt>
      <trkpt lat="45.24286" lon="5.77922">
        <ele>1331.1999511719</ele>
        <time>2021-11-06T07:56:27.000Z</time>
      </trkpt>
      <trkpt lat="45.24284" lon="5.7792">
        <ele>1330.5999755859</ele>
        <time>2021-11-06T07:56:28.000Z</time>
      </trkpt>
      <trkpt lat="45.24279" lon="5.77913">
        <ele>1330</ele>
        <time>2021-11-06T07:56:31.000Z</time>
      </trkpt>
      <trkpt lat="45.24275" lon="5.77911">
        <ele>1330</ele>
        <time>2021-11-06T07:56:35.000Z</time>
      </trkpt>
      <trkpt lat="45.24272" lon="5.77909">
        <ele>1330</ele>
        <time>2021-11-06T07:56:39.000Z</time>
      </trkpt>
      <trkpt lat="45.24271" lon="5.77906">
        <ele>1330</ele>
        <time>2021-11-06T07:56:40.000Z</time>
      </trkpt>
      <trkpt lat="45.24266" lon="5.77899">
        <ele>1330</ele>
        <time>2021-11-06T07:56:43.000Z</time>
      </trkpt>
      <trkpt lat="45.24265" lon="5.77897">
        <ele>1329.8000488281</ele>
        <time>2021-11-06T07:56:44.000Z</time>
      </trkpt>
      <trkpt lat="45.24264" lon="5.77894">
        <ele>1329.5999755859</ele>
        <time>2021-11-06T07:56:45.000Z</time>
      </trkpt>
      <trkpt lat="45.24261" lon="5.77891">
        <ele>1329.1999511719</ele>
        <time>2021-11-06T07:56:47.000Z</time>
      </trkpt>
      <trkpt lat="45.24257" lon="5.77888">
        <ele>1329</ele>
        <time>2021-11-06T07:56:50.000Z</time>
      </trkpt>
      <trkpt lat="45.24244" lon="5.77883">
        <ele>1329.5999755859</ele>
        <time>2021-11-06T07:56:57.000Z</time>
      </trkpt>
      <trkpt lat="45.24243" lon="5.77882">
        <ele>1329.5999755859</ele>
        <time>2021-11-06T07:56:58.000Z</time>
      </trkpt>
      <trkpt lat="45.24241" lon="5.77878">
        <ele>1329.5999755859</ele>
        <time>2021-11-06T07:57:00.000Z</time>
      </trkpt>
      <trkpt lat="45.2424" lon="5.77876">
        <ele>1329.4000244141</ele>
        <time>2021-11-06T07:57:01.000Z</time>
      </trkpt>
      <trkpt lat="45.24238" lon="5.77867">
        <ele>1328</ele>
        <time>2021-11-06T07:57:06.000Z</time>
      </trkpt>
      <trkpt lat="45.24237" lon="5.77865">
        <ele>1327.5999755859</ele>
        <time>2021-11-06T07:57:07.000Z</time>
      </trkpt>
      <trkpt lat="45.24235" lon="5.7786">
        <ele>1326.1999511719</ele>
        <time>2021-11-06T07:57:11.000Z</time>
      </trkpt>
      <trkpt lat="45.24234" lon="5.77855">
        <ele>1325.5999755859</ele>
        <time>2021-11-06T07:57:14.000Z</time>
      </trkpt>
      <trkpt lat="45.24234" lon="5.77853">
        <ele>1325</ele>
        <time>2021-11-06T07:57:16.000Z</time>
      </trkpt>
      <trkpt lat="45.24232" lon="5.77845">
        <ele>1324</ele>
        <time>2021-11-06T07:57:21.000Z</time>
      </trkpt>
      <trkpt lat="45.24225" lon="5.77835">
        <ele>1322.8000488281</ele>
        <time>2021-11-06T07:57:27.000Z</time>
      </trkpt>
      <trkpt lat="45.24224" lon="5.77833">
        <ele>1322.5999755859</ele>
        <time>2021-11-06T07:57:28.000Z</time>
      </trkpt>
      <trkpt lat="45.24219" lon="5.77828">
        <ele>1321.8000488281</ele>
        <time>2021-11-06T07:57:31.000Z</time>
      </trkpt>
      <trkpt lat="45.24216" lon="5.77824">
        <ele>1321.5999755859</ele>
        <time>2021-11-06T07:57:33.000Z</time>
      </trkpt>
      <trkpt lat="45.24208" lon="5.77812">
        <ele>1320.4000244141</ele>
        <time>2021-11-06T07:57:39.000Z</time>
      </trkpt>
      <trkpt lat="45.24205" lon="5.77807">
        <ele>1319.5999755859</ele>
        <time>2021-11-06T07:57:42.000Z</time>
      </trkpt>
      <trkpt lat="45.24204" lon="5.77806">
        <ele>1319.4000244141</ele>
        <time>2021-11-06T07:57:43.000Z</time>
      </trkpt>
      <trkpt lat="45.24202" lon="5.77805">
        <ele>1319.1999511719</ele>
        <time>2021-11-06T07:57:44.000Z</time>
      </trkpt>
      <trkpt lat="45.24196" lon="5.77799">
        <ele>1318.4000244141</ele>
        <time>2021-11-06T07:57:48.000Z</time>
      </trkpt>
      <trkpt lat="45.24195" lon="5.77798">
        <ele>1318.1999511719</ele>
        <time>2021-11-06T07:57:49.000Z</time>
      </trkpt>
      <trkpt lat="45.24193" lon="5.77794">
        <ele>1317.5999755859</ele>
        <time>2021-11-06T07:57:51.000Z</time>
      </trkpt>
      <trkpt lat="45.24191" lon="5.77792">
        <ele>1317.1999511719</ele>
        <time>2021-11-06T07:57:53.000Z</time>
      </trkpt>
      <trkpt lat="45.24189" lon="5.7779">
        <ele>1317</ele>
        <time>2021-11-06T07:57:55.000Z</time>
      </trkpt>
      <trkpt lat="45.24188" lon="5.77789">
        <ele>1316.8000488281</ele>
        <time>2021-11-06T07:57:56.000Z</time>
      </trkpt>
      <trkpt lat="45.24187" lon="5.77787">
        <ele>1316.8000488281</ele>
        <time>2021-11-06T07:57:57.000Z</time>
      </trkpt>
      <trkpt lat="45.24186" lon="5.77781">
        <ele>1316.1999511719</ele>
        <time>2021-11-06T07:58:02.000Z</time>
      </trkpt>
      <trkpt lat="45.24184" lon="5.77778">
        <ele>1316</ele>
        <time>2021-11-06T07:58:05.000Z</time>
      </trkpt>
      <trkpt lat="45.24181" lon="5.77778">
        <ele>1316</ele>
        <time>2021-11-06T07:58:08.000Z</time>
      </trkpt>
      <trkpt lat="45.24179" lon="5.77779">
        <ele>1316</ele>
        <time>2021-11-06T07:58:09.000Z</time>
      </trkpt>
      <trkpt lat="45.24179" lon="5.77778">
        <ele>1316.1999511719</ele>
        <time>2021-11-06T07:58:10.000Z</time>
      </trkpt>
      <trkpt lat="45.24178" lon="5.77778">
        <ele>1316.1999511719</ele>
        <time>2021-11-06T07:58:11.000Z</time>
      </trkpt>
      <trkpt lat="45.24178" lon="5.77776">
        <ele>1316.4000244141</ele>
        <time>2021-11-06T07:58:12.000Z</time>
      </trkpt>
      <trkpt lat="45.24177" lon="5.77775">
        <ele>1316.4000244141</ele>
        <time>2021-11-06T07:58:13.000Z</time>
      </trkpt>
      <trkpt lat="45.24177" lon="5.77773">
        <ele>1316.4000244141</ele>
        <time>2021-11-06T07:58:14.000Z</time>
      </trkpt>
      <trkpt lat="45.24175" lon="5.77768">
        <ele>1316</ele>
        <time>2021-11-06T07:58:18.000Z</time>
      </trkpt>
      <trkpt lat="45.24167" lon="5.77759">
        <ele>1315.4000244141</ele>
        <time>2021-11-06T07:58:25.000Z</time>
      </trkpt>
      <trkpt lat="45.24165" lon="5.77757">
        <ele>1315.1999511719</ele>
        <time>2021-11-06T07:58:29.000Z</time>
      </trkpt>
      <trkpt lat="45.24165" lon="5.77755">
        <ele>1315</ele>
        <time>2021-11-06T07:58:30.000Z</time>
      </trkpt>
      <trkpt lat="45.24165" lon="5.77754">
        <ele>1315</ele>
        <time>2021-11-06T07:58:31.000Z</time>
      </trkpt>
      <trkpt lat="45.24161" lon="5.77747">
        <ele>1314</ele>
        <time>2021-11-06T07:58:36.000Z</time>
      </trkpt>
      <trkpt lat="45.24161" lon="5.77746">
        <ele>1314</ele>
        <time>2021-11-06T07:58:37.000Z</time>
      </trkpt>
      <trkpt lat="45.24159" lon="5.77744">
        <ele>1313.5999755859</ele>
        <time>2021-11-06T07:58:39.000Z</time>
      </trkpt>
      <trkpt lat="45.24159" lon="5.77741">
        <ele>1313.1999511719</ele>
        <time>2021-11-06T07:58:41.000Z</time>
      </trkpt>
      <trkpt lat="45.24158" lon="5.77739">
        <ele>1312.8000488281</ele>
        <time>2021-11-06T07:58:42.000Z</time>
      </trkpt>
      <trkpt lat="45.24158" lon="5.77737">
        <ele>1312.5999755859</ele>
        <time>2021-11-06T07:58:43.000Z</time>
      </trkpt>
      <trkpt lat="45.24156" lon="5.77735">
        <ele>1311.8000488281</ele>
        <time>2021-11-06T07:58:45.000Z</time>
      </trkpt>
      <trkpt lat="45.24154" lon="5.77735">
        <ele>1311.4000244141</ele>
        <time>2021-11-06T07:58:47.000Z</time>
      </trkpt>
      <trkpt lat="45.24153" lon="5.77736">
        <ele>1311.1999511719</ele>
        <time>2021-11-06T07:58:48.000Z</time>
      </trkpt>
      <trkpt lat="45.24152" lon="5.77735">
        <ele>1311.1999511719</ele>
        <time>2021-11-06T07:58:49.000Z</time>
      </trkpt>
      <trkpt lat="45.24151" lon="5.77735">
        <ele>1311.1999511719</ele>
        <time>2021-11-06T07:58:50.000Z</time>
      </trkpt>
      <trkpt lat="45.24151" lon="5.77734">
        <ele>1311.1999511719</ele>
        <time>2021-11-06T07:58:51.000Z</time>
      </trkpt>
      <trkpt lat="45.24149" lon="5.77731">
        <ele>1311.1999511719</ele>
        <time>2021-11-06T07:58:53.000Z</time>
      </trkpt>
      <trkpt lat="45.24149" lon="5.77728">
        <ele>1310.8000488281</ele>
        <time>2021-11-06T07:58:55.000Z</time>
      </trkpt>
      <trkpt lat="45.24147" lon="5.77724">
        <ele>1310</ele>
        <time>2021-11-06T07:58:57.000Z</time>
      </trkpt>
      <trkpt lat="45.24145" lon="5.77722">
        <ele>1309.5999755859</ele>
        <time>2021-11-06T07:58:59.000Z</time>
      </trkpt>
      <trkpt lat="45.24144" lon="5.77721">
        <ele>1309.4000244141</ele>
        <time>2021-11-06T07:59:00.000Z</time>
      </trkpt>
      <trkpt lat="45.24143" lon="5.77715">
        <ele>1308.5999755859</ele>
        <time>2021-11-06T07:59:04.000Z</time>
      </trkpt>
      <trkpt lat="45.24138" lon="5.77708">
        <ele>1308</ele>
        <time>2021-11-06T07:59:07.000Z</time>
      </trkpt>
      <trkpt lat="45.24135" lon="5.77704">
        <ele>1307.1999511719</ele>
        <time>2021-11-06T07:59:09.000Z</time>
      </trkpt>
      <trkpt lat="45.24132" lon="5.77696">
        <ele>1306</ele>
        <time>2021-11-06T07:59:12.000Z</time>
      </trkpt>
      <trkpt lat="45.2413" lon="5.77693">
        <ele>1305.5999755859</ele>
        <time>2021-11-06T07:59:14.000Z</time>
      </trkpt>
      <trkpt lat="45.24128" lon="5.7769">
        <ele>1304.8000488281</ele>
        <time>2021-11-06T07:59:17.000Z</time>
      </trkpt>
      <trkpt lat="45.24127" lon="5.77691">
        <ele>1304.8000488281</ele>
        <time>2021-11-06T07:59:18.000Z</time>
      </trkpt>
      <trkpt lat="45.24126" lon="5.77691">
        <ele>1304.5999755859</ele>
        <time>2021-11-06T07:59:19.000Z</time>
      </trkpt>
      <trkpt lat="45.24123" lon="5.7769">
        <ele>1305</ele>
        <time>2021-11-06T07:59:21.000Z</time>
      </trkpt>
      <trkpt lat="45.2412" lon="5.77686">
        <ele>1305.4000244141</ele>
        <time>2021-11-06T07:59:23.000Z</time>
      </trkpt>
      <trkpt lat="45.24117" lon="5.77685">
        <ele>1305.5999755859</ele>
        <time>2021-11-06T07:59:24.000Z</time>
      </trkpt>
      <trkpt lat="45.24114" lon="5.77682">
        <ele>1305.8000488281</ele>
        <time>2021-11-06T07:59:26.000Z</time>
      </trkpt>
      <trkpt lat="45.24112" lon="5.7768">
        <ele>1306.1999511719</ele>
        <time>2021-11-06T07:59:27.000Z</time>
      </trkpt>
      <trkpt lat="45.24104" lon="5.77673">
        <ele>1307</ele>
        <time>2021-11-06T07:59:33.000Z</time>
      </trkpt>
      <trkpt lat="45.24103" lon="5.77671">
        <ele>1307</ele>
        <time>2021-11-06T07:59:34.000Z</time>
      </trkpt>
      <trkpt lat="45.24099" lon="5.77666">
        <ele>1307.4000244141</ele>
        <time>2021-11-06T07:59:37.000Z</time>
      </trkpt>
      <trkpt lat="45.24094" lon="5.77659">
        <ele>1307.1999511719</ele>
        <time>2021-11-06T07:59:40.000Z</time>
      </trkpt>
      <trkpt lat="45.24092" lon="5.77658">
        <ele>1307.1999511719</ele>
        <time>2021-11-06T07:59:41.000Z</time>
      </trkpt>
      <trkpt lat="45.24087" lon="5.77651">
        <ele>1306.8000488281</ele>
        <time>2021-11-06T07:59:45.000Z</time>
      </trkpt>
      <trkpt lat="45.24086" lon="5.77648">
        <ele>1306.8000488281</ele>
        <time>2021-11-06T07:59:46.000Z</time>
      </trkpt>
      <trkpt lat="45.24083" lon="5.77644">
        <ele>1306.5999755859</ele>
        <time>2021-11-06T07:59:48.000Z</time>
      </trkpt>
      <trkpt lat="45.24082" lon="5.77643">
        <ele>1306.5999755859</ele>
        <time>2021-11-06T07:59:49.000Z</time>
      </trkpt>
      <trkpt lat="45.24072" lon="5.77628">
        <ele>1306.4000244141</ele>
        <time>2021-11-06T07:59:55.000Z</time>
      </trkpt>
      <trkpt lat="45.2407" lon="5.77625">
        <ele>1306.1999511719</ele>
        <time>2021-11-06T07:59:57.000Z</time>
      </trkpt>
      <trkpt lat="45.2407" lon="5.77622">
        <ele>1305.8000488281</ele>
        <time>2021-11-06T07:59:59.000Z</time>
      </trkpt>
      <trkpt lat="45.24069" lon="5.77619">
        <ele>1305.4000244141</ele>
        <time>2021-11-06T08:00:01.000Z</time>
      </trkpt>
      <trkpt lat="45.24069" lon="5.77616">
        <ele>1304.5999755859</ele>
        <time>2021-11-06T08:00:03.000Z</time>
      </trkpt>
      <trkpt lat="45.24068" lon="5.77614">
        <ele>1304</ele>
        <time>2021-11-06T08:00:05.000Z</time>
      </trkpt>
      <trkpt lat="45.24067" lon="5.77612">
        <ele>1303.5999755859</ele>
        <time>2021-11-06T08:00:06.000Z</time>
      </trkpt>
      <trkpt lat="45.24067" lon="5.7761">
        <ele>1303.4000244141</ele>
        <time>2021-11-06T08:00:07.000Z</time>
      </trkpt>
      <trkpt lat="45.24065" lon="5.77605">
        <ele>1302.4000244141</ele>
        <time>2021-11-06T08:00:10.000Z</time>
      </trkpt>
      <trkpt lat="45.24063" lon="5.776">
        <ele>1301.4000244141</ele>
        <time>2021-11-06T08:00:13.000Z</time>
      </trkpt>
      <trkpt lat="45.24063" lon="5.77598">
        <ele>1301</ele>
        <time>2021-11-06T08:00:14.000Z</time>
      </trkpt>
      <trkpt lat="45.24061" lon="5.77593">
        <ele>1300.4000244141</ele>
        <time>2021-11-06T08:00:16.000Z</time>
      </trkpt>
      <trkpt lat="45.24057" lon="5.77587">
        <ele>1300.1999511719</ele>
        <time>2021-11-06T08:00:19.000Z</time>
      </trkpt>
      <trkpt lat="45.24048" lon="5.77581">
        <ele>1300.1999511719</ele>
        <time>2021-11-06T08:00:24.000Z</time>
      </trkpt>
      <trkpt lat="45.24045" lon="5.77581">
        <ele>1300.1999511719</ele>
        <time>2021-11-06T08:00:26.000Z</time>
      </trkpt>
      <trkpt lat="45.24042" lon="5.7758">
        <ele>1300.1999511719</ele>
        <time>2021-11-06T08:00:28.000Z</time>
      </trkpt>
      <trkpt lat="45.2404" lon="5.7758">
        <ele>1300.5999755859</ele>
        <time>2021-11-06T08:00:29.000Z</time>
      </trkpt>
      <trkpt lat="45.24035" lon="5.77579">
        <ele>1301.4000244141</ele>
        <time>2021-11-06T08:00:32.000Z</time>
      </trkpt>
      <trkpt lat="45.24034" lon="5.77579">
        <ele>1301.5999755859</ele>
        <time>2021-11-06T08:00:33.000Z</time>
      </trkpt>
      <trkpt lat="45.24032" lon="5.77578">
        <ele>1302.1999511719</ele>
        <time>2021-11-06T08:00:34.000Z</time>
      </trkpt>
      <trkpt lat="45.24031" lon="5.77576">
        <ele>1302.4000244141</ele>
        <time>2021-11-06T08:00:36.000Z</time>
      </trkpt>
      <trkpt lat="45.24029" lon="5.77574">
        <ele>1302.5999755859</ele>
        <time>2021-11-06T08:00:38.000Z</time>
      </trkpt>
      <trkpt lat="45.24027" lon="5.77573">
        <ele>1302.8000488281</ele>
        <time>2021-11-06T08:00:41.000Z</time>
      </trkpt>
      <trkpt lat="45.24024" lon="5.77572">
        <ele>1303.4000244141</ele>
        <time>2021-11-06T08:00:44.000Z</time>
      </trkpt>
      <trkpt lat="45.24023" lon="5.77571">
        <ele>1303.5999755859</ele>
        <time>2021-11-06T08:00:46.000Z</time>
      </trkpt>
      <trkpt lat="45.24023" lon="5.77571">
        <ele>1303.8000488281</ele>
        <time>2021-11-06T08:00:47.000Z</time>
      </trkpt>
      <trkpt lat="45.2402" lon="5.77571">
        <ele>1304.1999511719</ele>
        <time>2021-11-06T08:00:50.000Z</time>
      </trkpt>
      <trkpt lat="45.24019" lon="5.77571">
        <ele>1304.4000244141</ele>
        <time>2021-11-06T08:00:51.000Z</time>
      </trkpt>
      <trkpt lat="45.24017" lon="5.77569">
        <ele>1304.5999755859</ele>
        <time>2021-11-06T08:00:55.000Z</time>
      </trkpt>
      <trkpt lat="45.24017" lon="5.77568">
        <ele>1304.5999755859</ele>
        <time>2021-11-06T08:00:56.000Z</time>
      </trkpt>
      <trkpt lat="45.24017" lon="5.77566">
        <ele>1304.5999755859</ele>
        <time>2021-11-06T08:00:57.000Z</time>
      </trkpt>
      <trkpt lat="45.24015" lon="5.77562">
        <ele>1304.5999755859</ele>
        <time>2021-11-06T08:01:01.000Z</time>
      </trkpt>
      <trkpt lat="45.24014" lon="5.7756">
        <ele>1304.4000244141</ele>
        <time>2021-11-06T08:01:03.000Z</time>
      </trkpt>
      <trkpt lat="45.24014" lon="5.77555">
        <ele>1303.5999755859</ele>
        <time>2021-11-06T08:01:08.000Z</time>
      </trkpt>
      <trkpt lat="45.24013" lon="5.77554">
        <ele>1303.5999755859</ele>
        <time>2021-11-06T08:01:09.000Z</time>
      </trkpt>
      <trkpt lat="45.24009" lon="5.7755">
        <ele>1303.8000488281</ele>
        <time>2021-11-06T08:01:14.000Z</time>
      </trkpt>
      <trkpt lat="45.24009" lon="5.77549">
        <ele>1304</ele>
        <time>2021-11-06T08:01:15.000Z</time>
      </trkpt>
      <trkpt lat="45.24008" lon="5.77549">
        <ele>1304.1999511719</ele>
        <time>2021-11-06T08:01:16.000Z</time>
      </trkpt>
      <trkpt lat="45.24007" lon="5.77548">
        <ele>1304.5999755859</ele>
        <time>2021-11-06T08:01:18.000Z</time>
      </trkpt>
      <trkpt lat="45.24006" lon="5.77547">
        <ele>1304.8000488281</ele>
        <time>2021-11-06T08:01:19.000Z</time>
      </trkpt>
      <trkpt lat="45.24005" lon="5.77545">
        <ele>1305.4000244141</ele>
        <time>2021-11-06T08:01:22.000Z</time>
      </trkpt>
      <trkpt lat="45.24004" lon="5.77543">
        <ele>1305.4000244141</ele>
        <time>2021-11-06T08:01:23.000Z</time>
      </trkpt>
      <trkpt lat="45.24002" lon="5.77539">
        <ele>1305.5999755859</ele>
        <time>2021-11-06T08:01:26.000Z</time>
      </trkpt>
      <trkpt lat="45.24" lon="5.77539">
        <ele>1305.5999755859</ele>
        <time>2021-11-06T08:01:28.000Z</time>
      </trkpt>
      <trkpt lat="45.23999" lon="5.77539">
        <ele>1305.5999755859</ele>
        <time>2021-11-06T08:01:29.000Z</time>
      </trkpt>
      <trkpt lat="45.23995" lon="5.77537">
        <ele>1306</ele>
        <time>2021-11-06T08:01:32.000Z</time>
      </trkpt>
      <trkpt lat="45.23989" lon="5.77535">
        <ele>1306.4000244141</ele>
        <time>2021-11-06T08:01:35.000Z</time>
      </trkpt>
      <trkpt lat="45.23986" lon="5.77533">
        <ele>1306.8000488281</ele>
        <time>2021-11-06T08:01:37.000Z</time>
      </trkpt>
      <trkpt lat="45.23983" lon="5.77527">
        <ele>1307.1999511719</ele>
        <time>2021-11-06T08:01:40.000Z</time>
      </trkpt>
      <trkpt lat="45.2398" lon="5.77515">
        <ele>1306.5999755859</ele>
        <time>2021-11-06T08:01:46.000Z</time>
      </trkpt>
      <trkpt lat="45.23979" lon="5.77513">
        <ele>1306.1999511719</ele>
        <time>2021-11-06T08:01:47.000Z</time>
      </trkpt>
      <trkpt lat="45.23976" lon="5.77508">
        <ele>1305.5999755859</ele>
        <time>2021-11-06T08:01:50.000Z</time>
      </trkpt>
      <trkpt lat="45.23976" lon="5.77506">
        <ele>1305.5999755859</ele>
        <time>2021-11-06T08:01:51.000Z</time>
      </trkpt>
      <trkpt lat="45.23969" lon="5.77493">
        <ele>1305.1999511719</ele>
        <time>2021-11-06T08:01:58.000Z</time>
      </trkpt>
      <trkpt lat="45.23968" lon="5.77492">
        <ele>1305</ele>
        <time>2021-11-06T08:01:59.000Z</time>
      </trkpt>
      <trkpt lat="45.23965" lon="5.77488">
        <ele>1304.5999755859</ele>
        <time>2021-11-06T08:02:02.000Z</time>
      </trkpt>
      <trkpt lat="45.2396" lon="5.77484">
        <ele>1304.5999755859</ele>
        <time>2021-11-06T08:02:06.000Z</time>
      </trkpt>
      <trkpt lat="45.23959" lon="5.77482">
        <ele>1304.5999755859</ele>
        <time>2021-11-06T08:02:07.000Z</time>
      </trkpt>
      <trkpt lat="45.23954" lon="5.77473">
        <ele>1304.4000244141</ele>
        <time>2021-11-06T08:02:12.000Z</time>
      </trkpt>
      <trkpt lat="45.23953" lon="5.77471">
        <ele>1304.4000244141</ele>
        <time>2021-11-06T08:02:13.000Z</time>
      </trkpt>
      <trkpt lat="45.2395" lon="5.77467">
        <ele>1304.1999511719</ele>
        <time>2021-11-06T08:02:16.000Z</time>
      </trkpt>
      <trkpt lat="45.23949" lon="5.77465">
        <ele>1304.1999511719</ele>
        <time>2021-11-06T08:02:17.000Z</time>
      </trkpt>
      <trkpt lat="45.23945" lon="5.77458">
        <ele>1304</ele>
        <time>2021-11-06T08:02:21.000Z</time>
      </trkpt>
      <trkpt lat="45.23943" lon="5.77457">
        <ele>1304</ele>
        <time>2021-11-06T08:02:23.000Z</time>
      </trkpt>
      <trkpt lat="45.23941" lon="5.77457">
        <ele>1304.1999511719</ele>
        <time>2021-11-06T08:02:25.000Z</time>
      </trkpt>
      <trkpt lat="45.2394" lon="5.77459">
        <ele>1304.5999755859</ele>
        <time>2021-11-06T08:02:27.000Z</time>
      </trkpt>
      <trkpt lat="45.2394" lon="5.77459">
        <ele>1304.8000488281</ele>
        <time>2021-11-06T08:02:29.000Z</time>
      </trkpt>
      <trkpt lat="45.23939" lon="5.77459">
        <ele>1304.8000488281</ele>
        <time>2021-11-06T08:02:30.000Z</time>
      </trkpt>
      <trkpt lat="45.23939" lon="5.77459">
        <ele>1305.1999511719</ele>
        <time>2021-11-06T08:02:32.000Z</time>
      </trkpt>
      <trkpt lat="45.2394" lon="5.77459">
        <ele>1304.8000488281</ele>
        <time>2021-11-06T08:02:38.000Z</time>
      </trkpt>
      <trkpt lat="45.2394" lon="5.77459">
        <ele>1304.8000488281</ele>
        <time>2021-11-06T08:02:43.000Z</time>
      </trkpt>
      <trkpt lat="45.2394" lon="5.77459">
        <ele>1304.8000488281</ele>
        <time>2021-11-06T08:02:47.000Z</time>
      </trkpt>
      <trkpt lat="45.2394" lon="5.77458">
        <ele>1304.5999755859</ele>
        <time>2021-11-06T08:02:59.000Z</time>
      </trkpt>
      <trkpt lat="45.2394" lon="5.77457">
        <ele>1304.8000488281</ele>
        <time>2021-11-06T08:03:03.000Z</time>
      </trkpt>
      <trkpt lat="45.2394" lon="5.77457">
        <ele>1304.8000488281</ele>
        <time>2021-11-06T08:03:06.000Z</time>
      </trkpt>
      <trkpt lat="45.23939" lon="5.77454">
        <ele>1303.5999755859</ele>
        <time>2021-11-06T08:03:24.000Z</time>
      </trkpt>
      <trkpt lat="45.23939" lon="5.77453">
        <ele>1302.4000244141</ele>
        <time>2021-11-06T08:03:31.000Z</time>
      </trkpt>
      <trkpt lat="45.2394" lon="5.77444">
        <ele>1301.5999755859</ele>
        <time>2021-11-06T08:03:36.000Z</time>
      </trkpt>
      <trkpt lat="45.2394" lon="5.77442">
        <ele>1301.4000244141</ele>
        <time>2021-11-06T08:03:37.000Z</time>
      </trkpt>
      <trkpt lat="45.23941" lon="5.7744">
        <ele>1300.8000488281</ele>
        <time>2021-11-06T08:03:39.000Z</time>
      </trkpt>
      <trkpt lat="45.23942" lon="5.77437">
        <ele>1300.4000244141</ele>
        <time>2021-11-06T08:03:42.000Z</time>
      </trkpt>
      <trkpt lat="45.23941" lon="5.77431">
        <ele>1299.1999511719</ele>
        <time>2021-11-06T08:03:48.000Z</time>
      </trkpt>
      <trkpt lat="45.2394" lon="5.77431">
        <ele>1299.1999511719</ele>
        <time>2021-11-06T08:03:49.000Z</time>
      </trkpt>
      <trkpt lat="45.23936" lon="5.77422">
        <ele>1298.1999511719</ele>
        <time>2021-11-06T08:03:58.000Z</time>
      </trkpt>
      <trkpt lat="45.23935" lon="5.7742">
        <ele>1298</ele>
        <time>2021-11-06T08:03:59.000Z</time>
      </trkpt>
      <trkpt lat="45.23933" lon="5.77415">
        <ele>1297.1999511719</ele>
        <time>2021-11-06T08:04:06.000Z</time>
      </trkpt>
      <trkpt lat="45.23928" lon="5.77412">
        <ele>1296</ele>
        <time>2021-11-06T08:04:11.000Z</time>
      </trkpt>
      <trkpt lat="45.23928" lon="5.7741">
        <ele>1295.8000488281</ele>
        <time>2021-11-06T08:04:12.000Z</time>
      </trkpt>
      <trkpt lat="45.23926" lon="5.77408">
        <ele>1295.4000244141</ele>
        <time>2021-11-06T08:04:14.000Z</time>
      </trkpt>
      <trkpt lat="45.23926" lon="5.77408">
        <ele>1295.1999511719</ele>
        <time>2021-11-06T08:04:15.000Z</time>
      </trkpt>
      <trkpt lat="45.23924" lon="5.77407">
        <ele>1295</ele>
        <time>2021-11-06T08:04:17.000Z</time>
      </trkpt>
      <trkpt lat="45.23921" lon="5.77406">
        <ele>1294.8000488281</ele>
        <time>2021-11-06T08:04:19.000Z</time>
      </trkpt>
      <trkpt lat="45.2392" lon="5.77406">
        <ele>1294.4000244141</ele>
        <time>2021-11-06T08:04:20.000Z</time>
      </trkpt>
      <trkpt lat="45.23918" lon="5.77406">
        <ele>1294.1999511719</ele>
        <time>2021-11-06T08:04:22.000Z</time>
      </trkpt>
      <trkpt lat="45.23917" lon="5.77405">
        <ele>1294</ele>
        <time>2021-11-06T08:04:23.000Z</time>
      </trkpt>
      <trkpt lat="45.23915" lon="5.77403">
        <ele>1293.8000488281</ele>
        <time>2021-11-06T08:04:26.000Z</time>
      </trkpt>
      <trkpt lat="45.23913" lon="5.774">
        <ele>1292.5999755859</ele>
        <time>2021-11-06T08:04:29.000Z</time>
      </trkpt>
      <trkpt lat="45.2391" lon="5.77395">
        <ele>1291.5999755859</ele>
        <time>2021-11-06T08:04:32.000Z</time>
      </trkpt>
      <trkpt lat="45.23908" lon="5.77393">
        <ele>1291.4000244141</ele>
        <time>2021-11-06T08:04:33.000Z</time>
      </trkpt>
      <trkpt lat="45.23901" lon="5.77387">
        <ele>1291</ele>
        <time>2021-11-06T08:04:37.000Z</time>
      </trkpt>
      <trkpt lat="45.23901" lon="5.77386">
        <ele>1291</ele>
        <time>2021-11-06T08:04:38.000Z</time>
      </trkpt>
      <trkpt lat="45.239" lon="5.77384">
        <ele>1290.8000488281</ele>
        <time>2021-11-06T08:04:39.000Z</time>
      </trkpt>
      <trkpt lat="45.23894" lon="5.77377">
        <ele>1290.8000488281</ele>
        <time>2021-11-06T08:04:43.000Z</time>
      </trkpt>
      <trkpt lat="45.23892" lon="5.77377">
        <ele>1290.8000488281</ele>
        <time>2021-11-06T08:04:44.000Z</time>
      </trkpt>
      <trkpt lat="45.23888" lon="5.77377">
        <ele>1291.5999755859</ele>
        <time>2021-11-06T08:04:47.000Z</time>
      </trkpt>
      <trkpt lat="45.23886" lon="5.77373">
        <ele>1291.8000488281</ele>
        <time>2021-11-06T08:04:49.000Z</time>
      </trkpt>
      <trkpt lat="45.23887" lon="5.77368">
        <ele>1292.5999755859</ele>
        <time>2021-11-06T08:04:52.000Z</time>
      </trkpt>
      <trkpt lat="45.23887" lon="5.77367">
        <ele>1292.8000488281</ele>
        <time>2021-11-06T08:04:53.000Z</time>
      </trkpt>
      <trkpt lat="45.23888" lon="5.77365">
        <ele>1293</ele>
        <time>2021-11-06T08:04:54.000Z</time>
      </trkpt>
      <trkpt lat="45.23887" lon="5.77363">
        <ele>1293.5999755859</ele>
        <time>2021-11-06T08:04:56.000Z</time>
      </trkpt>
      <trkpt lat="45.23886" lon="5.7736">
        <ele>1293.8000488281</ele>
        <time>2021-11-06T08:04:58.000Z</time>
      </trkpt>
      <trkpt lat="45.23885" lon="5.77359">
        <ele>1294</ele>
        <time>2021-11-06T08:04:59.000Z</time>
      </trkpt>
      <trkpt lat="45.23882" lon="5.77356">
        <ele>1295.1999511719</ele>
        <time>2021-11-06T08:05:02.000Z</time>
      </trkpt>
      <trkpt lat="45.23881" lon="5.77354">
        <ele>1295.8000488281</ele>
        <time>2021-11-06T08:05:05.000Z</time>
      </trkpt>
      <trkpt lat="45.23881" lon="5.77352">
        <ele>1295.8000488281</ele>
        <time>2021-11-06T08:05:06.000Z</time>
      </trkpt>
      <trkpt lat="45.23877" lon="5.77345">
        <ele>1295</ele>
        <time>2021-11-06T08:05:12.000Z</time>
      </trkpt>
      <trkpt lat="45.23877" lon="5.77344">
        <ele>1294.8000488281</ele>
        <time>2021-11-06T08:05:13.000Z</time>
      </trkpt>
      <trkpt lat="45.23878" lon="5.77343">
        <ele>1294.4000244141</ele>
        <time>2021-11-06T08:05:14.000Z</time>
      </trkpt>
      <trkpt lat="45.23879" lon="5.77342">
        <ele>1294.1999511719</ele>
        <time>2021-11-06T08:05:15.000Z</time>
      </trkpt>
      <trkpt lat="45.23879" lon="5.77342">
        <ele>1294</ele>
        <time>2021-11-06T08:05:16.000Z</time>
      </trkpt>
      <trkpt lat="45.23878" lon="5.77341">
        <ele>1293.4000244141</ele>
        <time>2021-11-06T08:05:17.000Z</time>
      </trkpt>
      <trkpt lat="45.23878" lon="5.7734">
        <ele>1292.8000488281</ele>
        <time>2021-11-06T08:05:18.000Z</time>
      </trkpt>
      <trkpt lat="45.23877" lon="5.77339">
        <ele>1291.8000488281</ele>
        <time>2021-11-06T08:05:22.000Z</time>
      </trkpt>
      <trkpt lat="45.23876" lon="5.77338">
        <ele>1291.8000488281</ele>
        <time>2021-11-06T08:05:23.000Z</time>
      </trkpt>
      <trkpt lat="45.23876" lon="5.77338">
        <ele>1291.4000244141</ele>
        <time>2021-11-06T08:05:25.000Z</time>
      </trkpt>
      <trkpt lat="45.23874" lon="5.77338">
        <ele>1290.8000488281</ele>
        <time>2021-11-06T08:05:27.000Z</time>
      </trkpt>
      <trkpt lat="45.23874" lon="5.77337">
        <ele>1290.5999755859</ele>
        <time>2021-11-06T08:05:28.000Z</time>
      </trkpt>
      <trkpt lat="45.23872" lon="5.77337">
        <ele>1290.1999511719</ele>
        <time>2021-11-06T08:05:30.000Z</time>
      </trkpt>
      <trkpt lat="45.2387" lon="5.77337">
        <ele>1289.5999755859</ele>
        <time>2021-11-06T08:05:33.000Z</time>
      </trkpt>
      <trkpt lat="45.23868" lon="5.77335">
        <ele>1289</ele>
        <time>2021-11-06T08:05:35.000Z</time>
      </trkpt>
      <trkpt lat="45.23865" lon="5.77332">
        <ele>1288.5999755859</ele>
        <time>2021-11-06T08:05:37.000Z</time>
      </trkpt>
      <trkpt lat="45.23863" lon="5.7733">
        <ele>1288.4000244141</ele>
        <time>2021-11-06T08:05:38.000Z</time>
      </trkpt>
      <trkpt lat="45.23857" lon="5.77327">
        <ele>1287.1999511719</ele>
        <time>2021-11-06T08:05:41.000Z</time>
      </trkpt>
      <trkpt lat="45.23849" lon="5.77319">
        <ele>1286.1999511719</ele>
        <time>2021-11-06T08:05:45.000Z</time>
      </trkpt>
      <trkpt lat="45.23842" lon="5.77305">
        <ele>1284.8000488281</ele>
        <time>2021-11-06T08:05:51.000Z</time>
      </trkpt>
      <trkpt lat="45.23839" lon="5.77299">
        <ele>1284.4000244141</ele>
        <time>2021-11-06T08:05:54.000Z</time>
      </trkpt>
      <trkpt lat="45.23831" lon="5.77291">
        <ele>1284</ele>
        <time>2021-11-06T08:06:00.000Z</time>
      </trkpt>
      <trkpt lat="45.23827" lon="5.77288">
        <ele>1284.4000244141</ele>
        <time>2021-11-06T08:06:03.000Z</time>
      </trkpt>
      <trkpt lat="45.23825" lon="5.77284">
        <ele>1284.5999755859</ele>
        <time>2021-11-06T08:06:05.000Z</time>
      </trkpt>
      <trkpt lat="45.23824" lon="5.77282">
        <ele>1284.8000488281</ele>
        <time>2021-11-06T08:06:06.000Z</time>
      </trkpt>
      <trkpt lat="45.23825" lon="5.77276">
        <ele>1284.4000244141</ele>
        <time>2021-11-06T08:06:09.000Z</time>
      </trkpt>
      <trkpt lat="45.23826" lon="5.77273">
        <ele>1284</ele>
        <time>2021-11-06T08:06:11.000Z</time>
      </trkpt>
      <trkpt lat="45.23825" lon="5.77271">
        <ele>1283.8000488281</ele>
        <time>2021-11-06T08:06:12.000Z</time>
      </trkpt>
      <trkpt lat="45.23825" lon="5.77269">
        <ele>1283.1999511719</ele>
        <time>2021-11-06T08:06:13.000Z</time>
      </trkpt>
      <trkpt lat="45.23822" lon="5.77261">
        <ele>1282.8000488281</ele>
        <time>2021-11-06T08:06:16.000Z</time>
      </trkpt>
      <trkpt lat="45.23821" lon="5.77259">
        <ele>1282.8000488281</ele>
        <time>2021-11-06T08:06:17.000Z</time>
      </trkpt>
      <trkpt lat="45.23819" lon="5.77257">
        <ele>1282.5999755859</ele>
        <time>2021-11-06T08:06:18.000Z</time>
      </trkpt>
      <trkpt lat="45.23811" lon="5.77241">
        <ele>1282</ele>
        <time>2021-11-06T08:06:24.000Z</time>
      </trkpt>
      <trkpt lat="45.23803" lon="5.77229">
        <ele>1282</ele>
        <time>2021-11-06T08:06:30.000Z</time>
      </trkpt>
      <trkpt lat="45.23802" lon="5.77226">
        <ele>1282</ele>
        <time>2021-11-06T08:06:31.000Z</time>
      </trkpt>
      <trkpt lat="45.23792" lon="5.77207">
        <ele>1282</ele>
        <time>2021-11-06T08:06:38.000Z</time>
      </trkpt>
      <trkpt lat="45.23789" lon="5.77203">
        <ele>1282</ele>
        <time>2021-11-06T08:06:41.000Z</time>
      </trkpt>
      <trkpt lat="45.23788" lon="5.77201">
        <ele>1282</ele>
        <time>2021-11-06T08:06:42.000Z</time>
      </trkpt>
      <trkpt lat="45.23787" lon="5.77197">
        <ele>1282</ele>
        <time>2021-11-06T08:06:44.000Z</time>
      </trkpt>
      <trkpt lat="45.23786" lon="5.77196">
        <ele>1282.1999511719</ele>
        <time>2021-11-06T08:06:45.000Z</time>
      </trkpt>
      <trkpt lat="45.2378" lon="5.77194">
        <ele>1282.4000244141</ele>
        <time>2021-11-06T08:06:48.000Z</time>
      </trkpt>
      <trkpt lat="45.2377" lon="5.7718">
        <ele>1283.5999755859</ele>
        <time>2021-11-06T08:06:56.000Z</time>
      </trkpt>
      <trkpt lat="45.2377" lon="5.77179">
        <ele>1283.8000488281</ele>
        <time>2021-11-06T08:06:57.000Z</time>
      </trkpt>
      <trkpt lat="45.23769" lon="5.77179">
        <ele>1284</ele>
        <time>2021-11-06T08:06:58.000Z</time>
      </trkpt>
      <trkpt lat="45.23767" lon="5.77179">
        <ele>1284.8000488281</ele>
        <time>2021-11-06T08:07:01.000Z</time>
      </trkpt>
      <trkpt lat="45.23765" lon="5.77179">
        <ele>1285.4000244141</ele>
        <time>2021-11-06T08:07:03.000Z</time>
      </trkpt>
      <trkpt lat="45.23764" lon="5.77178">
        <ele>1286.1999511719</ele>
        <time>2021-11-06T08:07:05.000Z</time>
      </trkpt>
      <trkpt lat="45.23762" lon="5.77176">
        <ele>1286.4000244141</ele>
        <time>2021-11-06T08:07:07.000Z</time>
      </trkpt>
      <trkpt lat="45.23761" lon="5.77174">
        <ele>1286.4000244141</ele>
        <time>2021-11-06T08:07:08.000Z</time>
      </trkpt>
      <trkpt lat="45.23757" lon="5.77168">
        <ele>1287</ele>
        <time>2021-11-06T08:07:12.000Z</time>
      </trkpt>
      <trkpt lat="45.23756" lon="5.77166">
        <ele>1287.4000244141</ele>
        <time>2021-11-06T08:07:13.000Z</time>
      </trkpt>
      <trkpt lat="45.23751" lon="5.77162">
        <ele>1288.8000488281</ele>
        <time>2021-11-06T08:07:18.000Z</time>
      </trkpt>
      <trkpt lat="45.2375" lon="5.77162">
        <ele>1289.1999511719</ele>
        <time>2021-11-06T08:07:19.000Z</time>
      </trkpt>
      <trkpt lat="45.23747" lon="5.77159">
        <ele>1290</ele>
        <time>2021-11-06T08:07:22.000Z</time>
      </trkpt>
      <trkpt lat="45.23745" lon="5.77156">
        <ele>1291</ele>
        <time>2021-11-06T08:07:25.000Z</time>
      </trkpt>
      <trkpt lat="45.23744" lon="5.77154">
        <ele>1291.1999511719</ele>
        <time>2021-11-06T08:07:26.000Z</time>
      </trkpt>
      <trkpt lat="45.23741" lon="5.77149">
        <ele>1292.1999511719</ele>
        <time>2021-11-06T08:07:30.000Z</time>
      </trkpt>
      <trkpt lat="45.2374" lon="5.77148">
        <ele>1292.4000244141</ele>
        <time>2021-11-06T08:07:31.000Z</time>
      </trkpt>
      <trkpt lat="45.2374" lon="5.77147">
        <ele>1292.8000488281</ele>
        <time>2021-11-06T08:07:32.000Z</time>
      </trkpt>
      <trkpt lat="45.23741" lon="5.77145">
        <ele>1292.8000488281</ele>
        <time>2021-11-06T08:07:33.000Z</time>
      </trkpt>
      <trkpt lat="45.23737" lon="5.77133">
        <ele>1293</ele>
        <time>2021-11-06T08:07:39.000Z</time>
      </trkpt>
      <trkpt lat="45.23735" lon="5.77125">
        <ele>1293.1999511719</ele>
        <time>2021-11-06T08:07:43.000Z</time>
      </trkpt>
      <trkpt lat="45.23733" lon="5.77122">
        <ele>1293.5999755859</ele>
        <time>2021-11-06T08:07:45.000Z</time>
      </trkpt>
      <trkpt lat="45.23731" lon="5.7712">
        <ele>1294</ele>
        <time>2021-11-06T08:07:48.000Z</time>
      </trkpt>
      <trkpt lat="45.2373" lon="5.77119">
        <ele>1294.5999755859</ele>
        <time>2021-11-06T08:07:50.000Z</time>
      </trkpt>
      <trkpt lat="45.23728" lon="5.77118">
        <ele>1295</ele>
        <time>2021-11-06T08:07:51.000Z</time>
      </trkpt>
      <trkpt lat="45.23724" lon="5.77115">
        <ele>1295.8000488281</ele>
        <time>2021-11-06T08:07:56.000Z</time>
      </trkpt>
      <trkpt lat="45.23719" lon="5.77111">
        <ele>1297</ele>
        <time>2021-11-06T08:08:00.000Z</time>
      </trkpt>
      <trkpt lat="45.23718" lon="5.77111">
        <ele>1297.1999511719</ele>
        <time>2021-11-06T08:08:01.000Z</time>
      </trkpt>
      <trkpt lat="45.23715" lon="5.77108">
        <ele>1297.5999755859</ele>
        <time>2021-11-06T08:08:05.000Z</time>
      </trkpt>
      <trkpt lat="45.23713" lon="5.77107">
        <ele>1298.1999511719</ele>
        <time>2021-11-06T08:08:07.000Z</time>
      </trkpt>
      <trkpt lat="45.23713" lon="5.77106">
        <ele>1298.1999511719</ele>
        <time>2021-11-06T08:08:08.000Z</time>
      </trkpt>
      <trkpt lat="45.23712" lon="5.77104">
        <ele>1298.4000244141</ele>
        <time>2021-11-06T08:08:09.000Z</time>
      </trkpt>
      <trkpt lat="45.23704" lon="5.77088">
        <ele>1297.4000244141</ele>
        <time>2021-11-06T08:08:17.000Z</time>
      </trkpt>
      <trkpt lat="45.23702" lon="5.77084">
        <ele>1297.1999511719</ele>
        <time>2021-11-06T08:08:19.000Z</time>
      </trkpt>
      <trkpt lat="45.23699" lon="5.77083">
        <ele>1297</ele>
        <time>2021-11-06T08:08:21.000Z</time>
      </trkpt>
      <trkpt lat="45.23699" lon="5.77083">
        <ele>1297</ele>
        <time>2021-11-06T08:08:22.000Z</time>
      </trkpt>
      <trkpt lat="45.237" lon="5.77085">
        <ele>1296.8000488281</ele>
        <time>2021-11-06T08:08:28.000Z</time>
      </trkpt>
      <trkpt lat="45.237" lon="5.77085">
        <ele>1296.8000488281</ele>
        <time>2021-11-06T08:08:33.000Z</time>
      </trkpt>
      <trkpt lat="45.237" lon="5.77085">
        <ele>1296.8000488281</ele>
        <time>2021-11-06T08:08:36.000Z</time>
      </trkpt>
      <trkpt lat="45.237" lon="5.77085">
        <ele>1296.8000488281</ele>
        <time>2021-11-06T08:08:38.000Z</time>
      </trkpt>
      <trkpt lat="45.237" lon="5.77085">
        <ele>1296.8000488281</ele>
        <time>2021-11-06T08:08:44.000Z</time>
      </trkpt>
      <trkpt lat="45.237" lon="5.77085">
        <ele>1296.8000488281</ele>
        <time>2021-11-06T08:08:47.000Z</time>
      </trkpt>
      <trkpt lat="45.237" lon="5.77084">
        <ele>1296.8000488281</ele>
        <time>2021-11-06T08:08:52.000Z</time>
      </trkpt>
      <trkpt lat="45.23701" lon="5.77084">
        <ele>1296.8000488281</ele>
        <time>2021-11-06T08:08:53.000Z</time>
      </trkpt>
      <trkpt lat="45.23702" lon="5.77084">
        <ele>1296.8000488281</ele>
        <time>2021-11-06T08:09:01.000Z</time>
      </trkpt>
      <trkpt lat="45.23702" lon="5.77084">
        <ele>1296.8000488281</ele>
        <time>2021-11-06T08:09:03.000Z</time>
      </trkpt>
      <trkpt lat="45.237" lon="5.7708">
        <ele>1296.8000488281</ele>
        <time>2021-11-06T08:09:11.000Z</time>
      </trkpt>
      <trkpt lat="45.23698" lon="5.77076">
        <ele>1296.8000488281</ele>
        <time>2021-11-06T08:09:13.000Z</time>
      </trkpt>
      <trkpt lat="45.23691" lon="5.77063">
        <ele>1296.8000488281</ele>
        <time>2021-11-06T08:09:20.000Z</time>
      </trkpt>
      <trkpt lat="45.23685" lon="5.7706">
        <ele>1297.5999755859</ele>
        <time>2021-11-06T08:09:26.000Z</time>
      </trkpt>
      <trkpt lat="45.23683" lon="5.77056">
        <ele>1298</ele>
        <time>2021-11-06T08:09:29.000Z</time>
      </trkpt>
      <trkpt lat="45.23682" lon="5.77052">
        <ele>1298.4000244141</ele>
        <time>2021-11-06T08:09:31.000Z</time>
      </trkpt>
      <trkpt lat="45.23681" lon="5.7705">
        <ele>1298.5999755859</ele>
        <time>2021-11-06T08:09:32.000Z</time>
      </trkpt>
      <trkpt lat="45.23674" lon="5.77042">
        <ele>1299.4000244141</ele>
        <time>2021-11-06T08:09:39.000Z</time>
      </trkpt>
      <trkpt lat="45.2367" lon="5.77038">
        <ele>1300.1999511719</ele>
        <time>2021-11-06T08:09:43.000Z</time>
      </trkpt>
      <trkpt lat="45.23668" lon="5.77037">
        <ele>1300.5999755859</ele>
        <time>2021-11-06T08:09:44.000Z</time>
      </trkpt>
      <trkpt lat="45.23666" lon="5.77031">
        <ele>1301.4000244141</ele>
        <time>2021-11-06T08:09:47.000Z</time>
      </trkpt>
      <trkpt lat="45.23665" lon="5.77029">
        <ele>1301.5999755859</ele>
        <time>2021-11-06T08:09:48.000Z</time>
      </trkpt>
      <trkpt lat="45.23663" lon="5.77015">
        <ele>1301.4000244141</ele>
        <time>2021-11-06T08:09:53.000Z</time>
      </trkpt>
      <trkpt lat="45.23658" lon="5.76999">
        <ele>1300.4000244141</ele>
        <time>2021-11-06T08:09:59.000Z</time>
      </trkpt>
      <trkpt lat="45.23654" lon="5.76989">
        <ele>1299.5999755859</ele>
        <time>2021-11-06T08:10:03.000Z</time>
      </trkpt>
      <trkpt lat="45.23652" lon="5.76985">
        <ele>1299.4000244141</ele>
        <time>2021-11-06T08:10:05.000Z</time>
      </trkpt>
      <trkpt lat="45.23651" lon="5.76982">
        <ele>1299.4000244141</ele>
        <time>2021-11-06T08:10:07.000Z</time>
      </trkpt>
      <trkpt lat="45.2365" lon="5.7698">
        <ele>1299.4000244141</ele>
        <time>2021-11-06T08:10:08.000Z</time>
      </trkpt>
      <trkpt lat="45.23645" lon="5.7697">
        <ele>1299.4000244141</ele>
        <time>2021-11-06T08:10:14.000Z</time>
      </trkpt>
      <trkpt lat="45.23641" lon="5.7696">
        <ele>1299.5999755859</ele>
        <time>2021-11-06T08:10:19.000Z</time>
      </trkpt>
      <trkpt lat="45.2364" lon="5.76952">
        <ele>1299.4000244141</ele>
        <time>2021-11-06T08:10:22.000Z</time>
      </trkpt>
      <trkpt lat="45.23637" lon="5.76943">
        <ele>1298.4000244141</ele>
        <time>2021-11-06T08:10:26.000Z</time>
      </trkpt>
      <trkpt lat="45.23636" lon="5.7694">
        <ele>1298</ele>
        <time>2021-11-06T08:10:28.000Z</time>
      </trkpt>
      <trkpt lat="45.23634" lon="5.76931">
        <ele>1297.5999755859</ele>
        <time>2021-11-06T08:10:33.000Z</time>
      </trkpt>
      <trkpt lat="45.23633" lon="5.76927">
        <ele>1297.1999511719</ele>
        <time>2021-11-06T08:10:35.000Z</time>
      </trkpt>
      <trkpt lat="45.23633" lon="5.76919">
        <ele>1296</ele>
        <time>2021-11-06T08:10:38.000Z</time>
      </trkpt>
      <trkpt lat="45.23633" lon="5.76913">
        <ele>1295</ele>
        <time>2021-11-06T08:10:41.000Z</time>
      </trkpt>
      <trkpt lat="45.23632" lon="5.7691">
        <ele>1294.5999755859</ele>
        <time>2021-11-06T08:10:42.000Z</time>
      </trkpt>
      <trkpt lat="45.23627" lon="5.76905">
        <ele>1294.4000244141</ele>
        <time>2021-11-06T08:10:46.000Z</time>
      </trkpt>
      <trkpt lat="45.23621" lon="5.76883">
        <ele>1295.4000244141</ele>
        <time>2021-11-06T08:10:57.000Z</time>
      </trkpt>
      <trkpt lat="45.2362" lon="5.76879">
        <ele>1295.5999755859</ele>
        <time>2021-11-06T08:11:00.000Z</time>
      </trkpt>
      <trkpt lat="45.23619" lon="5.76877">
        <ele>1295.8000488281</ele>
        <time>2021-11-06T08:11:01.000Z</time>
      </trkpt>
      <trkpt lat="45.23619" lon="5.76873">
        <ele>1295.8000488281</ele>
        <time>2021-11-06T08:11:03.000Z</time>
      </trkpt>
      <trkpt lat="45.23616" lon="5.7686">
        <ele>1296</ele>
        <time>2021-11-06T08:11:11.000Z</time>
      </trkpt>
      <trkpt lat="45.23615" lon="5.76855">
        <ele>1295.8000488281</ele>
        <time>2021-11-06T08:11:15.000Z</time>
      </trkpt>
      <trkpt lat="45.23614" lon="5.7685">
        <ele>1295.5999755859</ele>
        <time>2021-11-06T08:11:18.000Z</time>
      </trkpt>
      <trkpt lat="45.23613" lon="5.76842">
        <ele>1295.5999755859</ele>
        <time>2021-11-06T08:11:21.000Z</time>
      </trkpt>
      <trkpt lat="45.2361" lon="5.76834">
        <ele>1295.4000244141</ele>
        <time>2021-11-06T08:11:24.000Z</time>
      </trkpt>
      <trkpt lat="45.23607" lon="5.76825">
        <ele>1295.5999755859</ele>
        <time>2021-11-06T08:11:28.000Z</time>
      </trkpt>
      <trkpt lat="45.23606" lon="5.76817">
        <ele>1295.4000244141</ele>
        <time>2021-11-06T08:11:31.000Z</time>
      </trkpt>
      <trkpt lat="45.23606" lon="5.76813">
        <ele>1295.4000244141</ele>
        <time>2021-11-06T08:11:33.000Z</time>
      </trkpt>
      <trkpt lat="45.23606" lon="5.76809">
        <ele>1295.1999511719</ele>
        <time>2021-11-06T08:11:35.000Z</time>
      </trkpt>
      <trkpt lat="45.23607" lon="5.76807">
        <ele>1295</ele>
        <time>2021-11-06T08:11:36.000Z</time>
      </trkpt>
      <trkpt lat="45.23606" lon="5.76805">
        <ele>1294.5999755859</ele>
        <time>2021-11-06T08:11:37.000Z</time>
      </trkpt>
      <trkpt lat="45.23606" lon="5.76803">
        <ele>1294.4000244141</ele>
        <time>2021-11-06T08:11:38.000Z</time>
      </trkpt>
      <trkpt lat="45.23604" lon="5.76793">
        <ele>1293.5999755859</ele>
        <time>2021-11-06T08:11:41.000Z</time>
      </trkpt>
      <trkpt lat="45.23601" lon="5.76784">
        <ele>1292.8000488281</ele>
        <time>2021-11-06T08:11:46.000Z</time>
      </trkpt>
      <trkpt lat="45.236" lon="5.76784">
        <ele>1292.4000244141</ele>
        <time>2021-11-06T08:11:47.000Z</time>
      </trkpt>
      <trkpt lat="45.23591" lon="5.76786">
        <ele>1291.1999511719</ele>
        <time>2021-11-06T08:11:52.000Z</time>
      </trkpt>
      <trkpt lat="45.23589" lon="5.76785">
        <ele>1291</ele>
        <time>2021-11-06T08:11:53.000Z</time>
      </trkpt>
      <trkpt lat="45.23582" lon="5.76775">
        <ele>1290.4000244141</ele>
        <time>2021-11-06T08:11:57.000Z</time>
      </trkpt>
      <trkpt lat="45.23581" lon="5.76772">
        <ele>1290.4000244141</ele>
        <time>2021-11-06T08:11:58.000Z</time>
      </trkpt>
      <trkpt lat="45.23575" lon="5.76755">
        <ele>1290.4000244141</ele>
        <time>2021-11-06T08:12:03.000Z</time>
      </trkpt>
      <trkpt lat="45.23572" lon="5.76745">
        <ele>1290.4000244141</ele>
        <time>2021-11-06T08:12:06.000Z</time>
      </trkpt>
      <trkpt lat="45.23563" lon="5.7672">
        <ele>1291</ele>
        <time>2021-11-06T08:12:14.000Z</time>
      </trkpt>
      <trkpt lat="45.23554" lon="5.76695">
        <ele>1291.1999511719</ele>
        <time>2021-11-06T08:12:22.000Z</time>
      </trkpt>
      <trkpt lat="45.23547" lon="5.76677">
        <ele>1291.1999511719</ele>
        <time>2021-11-06T08:12:28.000Z</time>
      </trkpt>
      <trkpt lat="45.23543" lon="5.76667">
        <ele>1290.8000488281</ele>
        <time>2021-11-06T08:12:31.000Z</time>
      </trkpt>
      <trkpt lat="45.23541" lon="5.7666">
        <ele>1290.8000488281</ele>
        <time>2021-11-06T08:12:33.000Z</time>
      </trkpt>
      <trkpt lat="45.23537" lon="5.7665">
        <ele>1290.1999511719</ele>
        <time>2021-11-06T08:12:36.000Z</time>
      </trkpt>
      <trkpt lat="45.2353" lon="5.76625">
        <ele>1289.4000244141</ele>
        <time>2021-11-06T08:12:43.000Z</time>
      </trkpt>
      <trkpt lat="45.23528" lon="5.76619">
        <ele>1289.4000244141</ele>
        <time>2021-11-06T08:12:45.000Z</time>
      </trkpt>
      <trkpt lat="45.23528" lon="5.76595">
        <ele>1289.8000488281</ele>
        <time>2021-11-06T08:12:52.000Z</time>
      </trkpt>
      <trkpt lat="45.23528" lon="5.76588">
        <ele>1290</ele>
        <time>2021-11-06T08:12:54.000Z</time>
      </trkpt>
      <trkpt lat="45.23504" lon="5.76468">
        <ele>1305</ele>
        <time>2021-11-06T08:14:01.000Z</time>
      </trkpt>
      <trkpt lat="45.23515" lon="5.76452">
        <ele>1306</ele>
        <time>2021-11-06T08:14:05.000Z</time>
      </trkpt>
      <trkpt lat="45.23516" lon="5.76446">
        <ele>1306.5999755859</ele>
        <time>2021-11-06T08:14:07.000Z</time>
      </trkpt>
      <trkpt lat="45.23513" lon="5.76438">
        <ele>1307</ele>
        <time>2021-11-06T08:14:10.000Z</time>
      </trkpt>
      <trkpt lat="45.23511" lon="5.76436">
        <ele>1307.1999511719</ele>
        <time>2021-11-06T08:14:11.000Z</time>
      </trkpt>
      <trkpt lat="45.23508" lon="5.76431">
        <ele>1307.8000488281</ele>
        <time>2021-11-06T08:14:13.000Z</time>
      </trkpt>
      <trkpt lat="45.23502" lon="5.7642">
        <ele>1308.4000244141</ele>
        <time>2021-11-06T08:14:17.000Z</time>
      </trkpt>
      <trkpt lat="45.23499" lon="5.76412">
        <ele>1308.5999755859</ele>
        <time>2021-11-06T08:14:19.000Z</time>
      </trkpt>
      <trkpt lat="45.23502" lon="5.76398">
        <ele>1309.1999511719</ele>
        <time>2021-11-06T08:14:24.000Z</time>
      </trkpt>
      <trkpt lat="45.23504" lon="5.76396">
        <ele>1309.1999511719</ele>
        <time>2021-11-06T08:14:26.000Z</time>
      </trkpt>
      <trkpt lat="45.23506" lon="5.76397">
        <ele>1309.1999511719</ele>
        <time>2021-11-06T08:14:28.000Z</time>
      </trkpt>
      <trkpt lat="45.23511" lon="5.764">
        <ele>1307</ele>
        <time>2021-11-06T08:14:33.000Z</time>
      </trkpt>
      <trkpt lat="45.23514" lon="5.764">
        <ele>1306</ele>
        <time>2021-11-06T08:14:35.000Z</time>
      </trkpt>
      <trkpt lat="45.23514" lon="5.76399">
        <ele>1305.5999755859</ele>
        <time>2021-11-06T08:14:36.000Z</time>
      </trkpt>
      <trkpt lat="45.23515" lon="5.76396">
        <ele>1304.5999755859</ele>
        <time>2021-11-06T08:14:38.000Z</time>
      </trkpt>
      <trkpt lat="45.23517" lon="5.76393">
        <ele>1304</ele>
        <time>2021-11-06T08:14:40.000Z</time>
      </trkpt>
      <trkpt lat="45.23517" lon="5.76391">
        <ele>1303.5999755859</ele>
        <time>2021-11-06T08:14:41.000Z</time>
      </trkpt>
      <trkpt lat="45.2352" lon="5.7639">
        <ele>1302.4000244141</ele>
        <time>2021-11-06T08:14:43.000Z</time>
      </trkpt>
      <trkpt lat="45.23525" lon="5.76387">
        <ele>1301.1999511719</ele>
        <time>2021-11-06T08:14:46.000Z</time>
      </trkpt>
      <trkpt lat="45.23534" lon="5.76385">
        <ele>1300</ele>
        <time>2021-11-06T08:14:50.000Z</time>
      </trkpt>
      <trkpt lat="45.23536" lon="5.76383">
        <ele>1299.8000488281</ele>
        <time>2021-11-06T08:14:51.000Z</time>
      </trkpt>
      <trkpt lat="45.2354" lon="5.76379">
        <ele>1299</ele>
        <time>2021-11-06T08:14:54.000Z</time>
      </trkpt>
      <trkpt lat="45.23542" lon="5.76374">
        <ele>1298</ele>
        <time>2021-11-06T08:14:56.000Z</time>
      </trkpt>
      <trkpt lat="45.23542" lon="5.76371">
        <ele>1297.8000488281</ele>
        <time>2021-11-06T08:14:57.000Z</time>
      </trkpt>
      <trkpt lat="45.23542" lon="5.76367">
        <ele>1297.5999755859</ele>
        <time>2021-11-06T08:14:58.000Z</time>
      </trkpt>
      <trkpt lat="45.2354" lon="5.76358">
        <ele>1297.1999511719</ele>
        <time>2021-11-06T08:15:01.000Z</time>
      </trkpt>
      <trkpt lat="45.23538" lon="5.76345">
        <ele>1297.4000244141</ele>
        <time>2021-11-06T08:15:05.000Z</time>
      </trkpt>
      <trkpt lat="45.23536" lon="5.76327">
        <ele>1298.5999755859</ele>
        <time>2021-11-06T08:15:12.000Z</time>
      </trkpt>
      <trkpt lat="45.23535" lon="5.76321">
        <ele>1299</ele>
        <time>2021-11-06T08:15:14.000Z</time>
      </trkpt>
      <trkpt lat="45.23534" lon="5.76312">
        <ele>1300.1999511719</ele>
        <time>2021-11-06T08:15:18.000Z</time>
      </trkpt>
      <trkpt lat="45.23533" lon="5.7631">
        <ele>1300.4000244141</ele>
        <time>2021-11-06T08:15:19.000Z</time>
      </trkpt>
      <trkpt lat="45.23532" lon="5.76297">
        <ele>1301.1999511719</ele>
        <time>2021-11-06T08:15:24.000Z</time>
      </trkpt>
      <trkpt lat="45.23532" lon="5.76294">
        <ele>1301.4000244141</ele>
        <time>2021-11-06T08:15:25.000Z</time>
      </trkpt>
      <trkpt lat="45.23531" lon="5.76285">
        <ele>1302.4000244141</ele>
        <time>2021-11-06T08:15:29.000Z</time>
      </trkpt>
      <trkpt lat="45.23529" lon="5.76279">
        <ele>1303</ele>
        <time>2021-11-06T08:15:32.000Z</time>
      </trkpt>
      <trkpt lat="45.23528" lon="5.76272">
        <ele>1303.5999755859</ele>
        <time>2021-11-06T08:15:35.000Z</time>
      </trkpt>
      <trkpt lat="45.23528" lon="5.76262">
        <ele>1304</ele>
        <time>2021-11-06T08:15:38.000Z</time>
      </trkpt>
      <trkpt lat="45.23529" lon="5.76259">
        <ele>1304</ele>
        <time>2021-11-06T08:15:39.000Z</time>
      </trkpt>
      <trkpt lat="45.23536" lon="5.76253">
        <ele>1303.5999755859</ele>
        <time>2021-11-06T08:15:42.000Z</time>
      </trkpt>
      <trkpt lat="45.23552" lon="5.76242">
        <ele>1302.5999755859</ele>
        <time>2021-11-06T08:15:49.000Z</time>
      </trkpt>
      <trkpt lat="45.23562" lon="5.76227">
        <ele>1301.8000488281</ele>
        <time>2021-11-06T08:15:55.000Z</time>
      </trkpt>
      <trkpt lat="45.23564" lon="5.76225">
        <ele>1301.8000488281</ele>
        <time>2021-11-06T08:15:56.000Z</time>
      </trkpt>
      <trkpt lat="45.23571" lon="5.76215">
        <ele>1301.4000244141</ele>
        <time>2021-11-06T08:16:00.000Z</time>
      </trkpt>
      <trkpt lat="45.23576" lon="5.76209">
        <ele>1301.1999511719</ele>
        <time>2021-11-06T08:16:03.000Z</time>
      </trkpt>
      <trkpt lat="45.2358" lon="5.76199">
        <ele>1301.8000488281</ele>
        <time>2021-11-06T08:16:08.000Z</time>
      </trkpt>
      <trkpt lat="45.23581" lon="5.76195">
        <ele>1302.5999755859</ele>
        <time>2021-11-06T08:16:10.000Z</time>
      </trkpt>
      <trkpt lat="45.23581" lon="5.7619">
        <ele>1303.1999511719</ele>
        <time>2021-11-06T08:16:13.000Z</time>
      </trkpt>
      <trkpt lat="45.2358" lon="5.76188">
        <ele>1303.5999755859</ele>
        <time>2021-11-06T08:16:14.000Z</time>
      </trkpt>
      <trkpt lat="45.23575" lon="5.76184">
        <ele>1304.5999755859</ele>
        <time>2021-11-06T08:16:18.000Z</time>
      </trkpt>
      <trkpt lat="45.23573" lon="5.76181">
        <ele>1305.4000244141</ele>
        <time>2021-11-06T08:16:20.000Z</time>
      </trkpt>
      <trkpt lat="45.23573" lon="5.7618">
        <ele>1305.8000488281</ele>
        <time>2021-11-06T08:16:22.000Z</time>
      </trkpt>
      <trkpt lat="45.23573" lon="5.7618">
        <ele>1306</ele>
        <time>2021-11-06T08:16:23.000Z</time>
      </trkpt>
      <trkpt lat="45.23574" lon="5.76178">
        <ele>1306</ele>
        <time>2021-11-06T08:16:24.000Z</time>
      </trkpt>
      <trkpt lat="45.23574" lon="5.76178">
        <ele>1306.4000244141</ele>
        <time>2021-11-06T08:16:26.000Z</time>
      </trkpt>
      <trkpt lat="45.23573" lon="5.76179">
        <ele>1307</ele>
        <time>2021-11-06T08:16:28.000Z</time>
      </trkpt>
      <trkpt lat="45.23573" lon="5.76178">
        <ele>1307.1999511719</ele>
        <time>2021-11-06T08:16:29.000Z</time>
      </trkpt>
      <trkpt lat="45.23575" lon="5.76178">
        <ele>1307.8000488281</ele>
        <time>2021-11-06T08:16:30.000Z</time>
      </trkpt>
      <trkpt lat="45.23576" lon="5.76177">
        <ele>1308.1999511719</ele>
        <time>2021-11-06T08:16:31.000Z</time>
      </trkpt>
      <trkpt lat="45.23578" lon="5.76174">
        <ele>1309</ele>
        <time>2021-11-06T08:16:34.000Z</time>
      </trkpt>
      <trkpt lat="45.23578" lon="5.76173">
        <ele>1309.5999755859</ele>
        <time>2021-11-06T08:16:36.000Z</time>
      </trkpt>
      <trkpt lat="45.23578" lon="5.76172">
        <ele>1310.4000244141</ele>
        <time>2021-11-06T08:16:39.000Z</time>
      </trkpt>
      <trkpt lat="45.23577" lon="5.76173">
        <ele>1310.5999755859</ele>
        <time>2021-11-06T08:16:40.000Z</time>
      </trkpt>
      <trkpt lat="45.23576" lon="5.76174">
        <ele>1310.8000488281</ele>
        <time>2021-11-06T08:16:41.000Z</time>
      </trkpt>
      <trkpt lat="45.23573" lon="5.76175">
        <ele>1311.5999755859</ele>
        <time>2021-11-06T08:16:44.000Z</time>
      </trkpt>
      <trkpt lat="45.23572" lon="5.76174">
        <ele>1312.1999511719</ele>
        <time>2021-11-06T08:16:46.000Z</time>
      </trkpt>
      <trkpt lat="45.2357" lon="5.76174">
        <ele>1312.5999755859</ele>
        <time>2021-11-06T08:16:48.000Z</time>
      </trkpt>
      <trkpt lat="45.23569" lon="5.76173">
        <ele>1313.4000244141</ele>
        <time>2021-11-06T08:16:50.000Z</time>
      </trkpt>
      <trkpt lat="45.23568" lon="5.76174">
        <ele>1314</ele>
        <time>2021-11-06T08:16:51.000Z</time>
      </trkpt>
      <trkpt lat="45.23566" lon="5.76174">
        <ele>1314.4000244141</ele>
        <time>2021-11-06T08:16:53.000Z</time>
      </trkpt>
      <trkpt lat="45.23563" lon="5.76175">
        <ele>1315.1999511719</ele>
        <time>2021-11-06T08:16:56.000Z</time>
      </trkpt>
      <trkpt lat="45.2356" lon="5.76176">
        <ele>1315.5999755859</ele>
        <time>2021-11-06T08:16:59.000Z</time>
      </trkpt>
      <trkpt lat="45.23557" lon="5.76175">
        <ele>1316.4000244141</ele>
        <time>2021-11-06T08:17:02.000Z</time>
      </trkpt>
      <trkpt lat="45.23556" lon="5.76175">
        <ele>1316.8000488281</ele>
        <time>2021-11-06T08:17:03.000Z</time>
      </trkpt>
      <trkpt lat="45.23555" lon="5.76173">
        <ele>1317.5999755859</ele>
        <time>2021-11-06T08:17:05.000Z</time>
      </trkpt>
      <trkpt lat="45.23555" lon="5.76172">
        <ele>1317.8000488281</ele>
        <time>2021-11-06T08:17:06.000Z</time>
      </trkpt>
      <trkpt lat="45.23555" lon="5.76171">
        <ele>1318</ele>
        <time>2021-11-06T08:17:07.000Z</time>
      </trkpt>
      <trkpt lat="45.23554" lon="5.7617">
        <ele>1318.5999755859</ele>
        <time>2021-11-06T08:17:10.000Z</time>
      </trkpt>
      <trkpt lat="45.23553" lon="5.76169">
        <ele>1319.4000244141</ele>
        <time>2021-11-06T08:17:12.000Z</time>
      </trkpt>
      <trkpt lat="45.23552" lon="5.76169">
        <ele>1320</ele>
        <time>2021-11-06T08:17:13.000Z</time>
      </trkpt>
      <trkpt lat="45.23549" lon="5.76166">
        <ele>1321</ele>
        <time>2021-11-06T08:17:17.000Z</time>
      </trkpt>
      <trkpt lat="45.23548" lon="5.76164">
        <ele>1321.8000488281</ele>
        <time>2021-11-06T08:17:20.000Z</time>
      </trkpt>
      <trkpt lat="45.23546" lon="5.76162">
        <ele>1322.1999511719</ele>
        <time>2021-11-06T08:17:22.000Z</time>
      </trkpt>
      <trkpt lat="45.23546" lon="5.7616">
        <ele>1323.4000244141</ele>
        <time>2021-11-06T08:17:24.000Z</time>
      </trkpt>
      <trkpt lat="45.23546" lon="5.76156">
        <ele>1324</ele>
        <time>2021-11-06T08:17:26.000Z</time>
      </trkpt>
      <trkpt lat="45.23547" lon="5.76153">
        <ele>1324.4000244141</ele>
        <time>2021-11-06T08:17:28.000Z</time>
      </trkpt>
      <trkpt lat="45.23548" lon="5.76151">
        <ele>1324.4000244141</ele>
        <time>2021-11-06T08:17:29.000Z</time>
      </trkpt>
      <trkpt lat="45.23553" lon="5.76144">
        <ele>1324.4000244141</ele>
        <time>2021-11-06T08:17:36.000Z</time>
      </trkpt>
      <trkpt lat="45.23553" lon="5.76144">
        <ele>1324</ele>
        <time>2021-11-06T08:17:37.000Z</time>
      </trkpt>
      <trkpt lat="45.23555" lon="5.76143">
        <ele>1323</ele>
        <time>2021-11-06T08:17:39.000Z</time>
      </trkpt>
      <trkpt lat="45.23557" lon="5.76141">
        <ele>1322</ele>
        <time>2021-11-06T08:17:41.000Z</time>
      </trkpt>
      <trkpt lat="45.23556" lon="5.76139">
        <ele>1320.8000488281</ele>
        <time>2021-11-06T08:17:43.000Z</time>
      </trkpt>
      <trkpt lat="45.23555" lon="5.7614">
        <ele>1320.4000244141</ele>
        <time>2021-11-06T08:17:44.000Z</time>
      </trkpt>
      <trkpt lat="45.23552" lon="5.76141">
        <ele>1319.5999755859</ele>
        <time>2021-11-06T08:17:46.000Z</time>
      </trkpt>
      <trkpt lat="45.23549" lon="5.76144">
        <ele>1319.1999511719</ele>
        <time>2021-11-06T08:17:48.000Z</time>
      </trkpt>
      <trkpt lat="45.23547" lon="5.76144">
        <ele>1319</ele>
        <time>2021-11-06T08:17:49.000Z</time>
      </trkpt>
      <trkpt lat="45.23543" lon="5.76142">
        <ele>1318.5999755859</ele>
        <time>2021-11-06T08:17:52.000Z</time>
      </trkpt>
      <trkpt lat="45.23542" lon="5.76142">
        <ele>1318.1999511719</ele>
        <time>2021-11-06T08:17:53.000Z</time>
      </trkpt>
      <trkpt lat="45.23541" lon="5.76142">
        <ele>1317</ele>
        <time>2021-11-06T08:17:55.000Z</time>
      </trkpt>
      <trkpt lat="45.2354" lon="5.76142">
        <ele>1316.5999755859</ele>
        <time>2021-11-06T08:17:56.000Z</time>
      </trkpt>
      <trkpt lat="45.2354" lon="5.76142">
        <ele>1316.1999511719</ele>
        <time>2021-11-06T08:17:57.000Z</time>
      </trkpt>
      <trkpt lat="45.23539" lon="5.76143">
        <ele>1315.4000244141</ele>
        <time>2021-11-06T08:17:58.000Z</time>
      </trkpt>
      <trkpt lat="45.23536" lon="5.76143">
        <ele>1314</ele>
        <time>2021-11-06T08:18:01.000Z</time>
      </trkpt>
      <trkpt lat="45.23535" lon="5.76142">
        <ele>1313.4000244141</ele>
        <time>2021-11-06T08:18:02.000Z</time>
      </trkpt>
      <trkpt lat="45.23535" lon="5.76141">
        <ele>1313</ele>
        <time>2021-11-06T08:18:03.000Z</time>
      </trkpt>
      <trkpt lat="45.23536" lon="5.76141">
        <ele>1312.8000488281</ele>
        <time>2021-11-06T08:18:04.000Z</time>
      </trkpt>
      <trkpt lat="45.23539" lon="5.76139">
        <ele>1312.1999511719</ele>
        <time>2021-11-06T08:18:07.000Z</time>
      </trkpt>
      <trkpt lat="45.23543" lon="5.76136">
        <ele>1311.5999755859</ele>
        <time>2021-11-06T08:18:10.000Z</time>
      </trkpt>
      <trkpt lat="45.23544" lon="5.76135">
        <ele>1311.1999511719</ele>
        <time>2021-11-06T08:18:11.000Z</time>
      </trkpt>
      <trkpt lat="45.23548" lon="5.76131">
        <ele>1310.1999511719</ele>
        <time>2021-11-06T08:18:14.000Z</time>
      </trkpt>
      <trkpt lat="45.23552" lon="5.76128">
        <ele>1309.1999511719</ele>
        <time>2021-11-06T08:18:17.000Z</time>
      </trkpt>
      <trkpt lat="45.23555" lon="5.76127">
        <ele>1308.5999755859</ele>
        <time>2021-11-06T08:18:19.000Z</time>
      </trkpt>
      <trkpt lat="45.23557" lon="5.76124">
        <ele>1308</ele>
        <time>2021-11-06T08:18:21.000Z</time>
      </trkpt>
      <trkpt lat="45.2356" lon="5.7612">
        <ele>1306.8000488281</ele>
        <time>2021-11-06T08:18:24.000Z</time>
      </trkpt>
      <trkpt lat="45.23564" lon="5.76118">
        <ele>1306.1999511719</ele>
        <time>2021-11-06T08:18:27.000Z</time>
      </trkpt>
      <trkpt lat="45.23565" lon="5.76117">
        <ele>1305.8000488281</ele>
        <time>2021-11-06T08:18:28.000Z</time>
      </trkpt>
      <trkpt lat="45.2357" lon="5.76114">
        <ele>1304.5999755859</ele>
        <time>2021-11-06T08:18:32.000Z</time>
      </trkpt>
      <trkpt lat="45.23572" lon="5.76112">
        <ele>1304.1999511719</ele>
        <time>2021-11-06T08:18:34.000Z</time>
      </trkpt>
      <trkpt lat="45.23574" lon="5.76109">
        <ele>1303.1999511719</ele>
        <time>2021-11-06T08:18:36.000Z</time>
      </trkpt>
      <trkpt lat="45.23579" lon="5.76102">
        <ele>1302</ele>
        <time>2021-11-06T08:18:40.000Z</time>
      </trkpt>
      <trkpt lat="45.23578" lon="5.761">
        <ele>1301.4000244141</ele>
        <time>2021-11-06T08:18:42.000Z</time>
      </trkpt>
      <trkpt lat="45.23577" lon="5.76099">
        <ele>1301</ele>
        <time>2021-11-06T08:18:43.000Z</time>
      </trkpt>
      <trkpt lat="45.23576" lon="5.761">
        <ele>1300.8000488281</ele>
        <time>2021-11-06T08:18:44.000Z</time>
      </trkpt>
      <trkpt lat="45.23575" lon="5.76101">
        <ele>1300.5999755859</ele>
        <time>2021-11-06T08:18:45.000Z</time>
      </trkpt>
      <trkpt lat="45.23571" lon="5.76103">
        <ele>1300</ele>
        <time>2021-11-06T08:18:47.000Z</time>
      </trkpt>
      <trkpt lat="45.2357" lon="5.76105">
        <ele>1299.5999755859</ele>
        <time>2021-11-06T08:18:48.000Z</time>
      </trkpt>
      <trkpt lat="45.23564" lon="5.76108">
        <ele>1298.5999755859</ele>
        <time>2021-11-06T08:18:51.000Z</time>
      </trkpt>
      <trkpt lat="45.23562" lon="5.7611">
        <ele>1297.5999755859</ele>
        <time>2021-11-06T08:18:54.000Z</time>
      </trkpt>
      <trkpt lat="45.23561" lon="5.76112">
        <ele>1297.1999511719</ele>
        <time>2021-11-06T08:18:56.000Z</time>
      </trkpt>
      <trkpt lat="45.23557" lon="5.76113">
        <ele>1296.4000244141</ele>
        <time>2021-11-06T08:18:59.000Z</time>
      </trkpt>
      <trkpt lat="45.23553" lon="5.76114">
        <ele>1295</ele>
        <time>2021-11-06T08:19:02.000Z</time>
      </trkpt>
      <trkpt lat="45.23552" lon="5.76114">
        <ele>1294.8000488281</ele>
        <time>2021-11-06T08:19:03.000Z</time>
      </trkpt>
      <trkpt lat="45.23551" lon="5.76114">
        <ele>1294.5999755859</ele>
        <time>2021-11-06T08:19:04.000Z</time>
      </trkpt>
      <trkpt lat="45.23549" lon="5.76113">
        <ele>1294.4000244141</ele>
        <time>2021-11-06T08:19:05.000Z</time>
      </trkpt>
      <trkpt lat="45.23549" lon="5.76109">
        <ele>1294</ele>
        <time>2021-11-06T08:19:07.000Z</time>
      </trkpt>
      <trkpt lat="45.23549" lon="5.76108">
        <ele>1293.4000244141</ele>
        <time>2021-11-06T08:19:08.000Z</time>
      </trkpt>
      <trkpt lat="45.23554" lon="5.76103">
        <ele>1292.5999755859</ele>
        <time>2021-11-06T08:19:12.000Z</time>
      </trkpt>
      <trkpt lat="45.23556" lon="5.76101">
        <ele>1292.4000244141</ele>
        <time>2021-11-06T08:19:13.000Z</time>
      </trkpt>
      <trkpt lat="45.23558" lon="5.76098">
        <ele>1291.5999755859</ele>
        <time>2021-11-06T08:19:15.000Z</time>
      </trkpt>
      <trkpt lat="45.23559" lon="5.76097">
        <ele>1291.1999511719</ele>
        <time>2021-11-06T08:19:16.000Z</time>
      </trkpt>
      <trkpt lat="45.23561" lon="5.76094">
        <ele>1290.4000244141</ele>
        <time>2021-11-06T08:19:18.000Z</time>
      </trkpt>
      <trkpt lat="45.23566" lon="5.76088">
        <ele>1289.1999511719</ele>
        <time>2021-11-06T08:19:22.000Z</time>
      </trkpt>
      <trkpt lat="45.23569" lon="5.76083">
        <ele>1288.1999511719</ele>
        <time>2021-11-06T08:19:25.000Z</time>
      </trkpt>
      <trkpt lat="45.2357" lon="5.76082">
        <ele>1287.5999755859</ele>
        <time>2021-11-06T08:19:26.000Z</time>
      </trkpt>
      <trkpt lat="45.23574" lon="5.76077">
        <ele>1286.1999511719</ele>
        <time>2021-11-06T08:19:30.000Z</time>
      </trkpt>
      <trkpt lat="45.23576" lon="5.76075">
        <ele>1285.8000488281</ele>
        <time>2021-11-06T08:19:32.000Z</time>
      </trkpt>
      <trkpt lat="45.23579" lon="5.76073">
        <ele>1285.1999511719</ele>
        <time>2021-11-06T08:19:34.000Z</time>
      </trkpt>
      <trkpt lat="45.23583" lon="5.76067">
        <ele>1284.1999511719</ele>
        <time>2021-11-06T08:19:39.000Z</time>
      </trkpt>
      <trkpt lat="45.23585" lon="5.76064">
        <ele>1283.5999755859</ele>
        <time>2021-11-06T08:19:41.000Z</time>
      </trkpt>
      <trkpt lat="45.23584" lon="5.76063">
        <ele>1283</ele>
        <time>2021-11-06T08:19:43.000Z</time>
      </trkpt>
      <trkpt lat="45.2358" lon="5.76064">
        <ele>1281.5999755859</ele>
        <time>2021-11-06T08:19:47.000Z</time>
      </trkpt>
      <trkpt lat="45.23577" lon="5.76065">
        <ele>1280.4000244141</ele>
        <time>2021-11-06T08:19:50.000Z</time>
      </trkpt>
      <trkpt lat="45.23576" lon="5.76065">
        <ele>1280</ele>
        <time>2021-11-06T08:19:51.000Z</time>
      </trkpt>
      <trkpt lat="45.23573" lon="5.76066">
        <ele>1279.1999511719</ele>
        <time>2021-11-06T08:19:53.000Z</time>
      </trkpt>
      <trkpt lat="45.23569" lon="5.76067">
        <ele>1278.1999511719</ele>
        <time>2021-11-06T08:19:56.000Z</time>
      </trkpt>
      <trkpt lat="45.23567" lon="5.76068">
        <ele>1277.5999755859</ele>
        <time>2021-11-06T08:19:58.000Z</time>
      </trkpt>
      <trkpt lat="45.23566" lon="5.76067">
        <ele>1277.1999511719</ele>
        <time>2021-11-06T08:19:59.000Z</time>
      </trkpt>
      <trkpt lat="45.23565" lon="5.76067">
        <ele>1276.8000488281</ele>
        <time>2021-11-06T08:20:00.000Z</time>
      </trkpt>
      <trkpt lat="45.23565" lon="5.76068">
        <ele>1276.5999755859</ele>
        <time>2021-11-06T08:20:01.000Z</time>
      </trkpt>
      <trkpt lat="45.23563" lon="5.76069">
        <ele>1275.5999755859</ele>
        <time>2021-11-06T08:20:04.000Z</time>
      </trkpt>
      <trkpt lat="45.23561" lon="5.76069">
        <ele>1275</ele>
        <time>2021-11-06T08:20:06.000Z</time>
      </trkpt>
      <trkpt lat="45.2356" lon="5.7607">
        <ele>1274.4000244141</ele>
        <time>2021-11-06T08:20:07.000Z</time>
      </trkpt>
      <trkpt lat="45.23558" lon="5.7607">
        <ele>1273.8000488281</ele>
        <time>2021-11-06T08:20:09.000Z</time>
      </trkpt>
      <trkpt lat="45.23555" lon="5.76071">
        <ele>1273.1999511719</ele>
        <time>2021-11-06T08:20:11.000Z</time>
      </trkpt>
      <trkpt lat="45.23555" lon="5.76067">
        <ele>1272.4000244141</ele>
        <time>2021-11-06T08:20:13.000Z</time>
      </trkpt>
      <trkpt lat="45.23556" lon="5.76066">
        <ele>1272</ele>
        <time>2021-11-06T08:20:14.000Z</time>
      </trkpt>
      <trkpt lat="45.23557" lon="5.76064">
        <ele>1271.1999511719</ele>
        <time>2021-11-06T08:20:16.000Z</time>
      </trkpt>
      <trkpt lat="45.23557" lon="5.76062">
        <ele>1270.8000488281</ele>
        <time>2021-11-06T08:20:17.000Z</time>
      </trkpt>
      <trkpt lat="45.23557" lon="5.76061">
        <ele>1270.4000244141</ele>
        <time>2021-11-06T08:20:18.000Z</time>
      </trkpt>
      <trkpt lat="45.23559" lon="5.76058">
        <ele>1269.4000244141</ele>
        <time>2021-11-06T08:20:21.000Z</time>
      </trkpt>
      <trkpt lat="45.23559" lon="5.76057">
        <ele>1269</ele>
        <time>2021-11-06T08:20:22.000Z</time>
      </trkpt>
      <trkpt lat="45.2356" lon="5.76053">
        <ele>1268.4000244141</ele>
        <time>2021-11-06T08:20:24.000Z</time>
      </trkpt>
      <trkpt lat="45.2356" lon="5.76052">
        <ele>1268</ele>
        <time>2021-11-06T08:20:25.000Z</time>
      </trkpt>
      <trkpt lat="45.23562" lon="5.76049">
        <ele>1267.1999511719</ele>
        <time>2021-11-06T08:20:27.000Z</time>
      </trkpt>
      <trkpt lat="45.23564" lon="5.76044">
        <ele>1266.1999511719</ele>
        <time>2021-11-06T08:20:30.000Z</time>
      </trkpt>
      <trkpt lat="45.23567" lon="5.7604">
        <ele>1265.4000244141</ele>
        <time>2021-11-06T08:20:33.000Z</time>
      </trkpt>
      <trkpt lat="45.23568" lon="5.76038">
        <ele>1265</ele>
        <time>2021-11-06T08:20:34.000Z</time>
      </trkpt>
      <trkpt lat="45.2357" lon="5.76035">
        <ele>1263.8000488281</ele>
        <time>2021-11-06T08:20:36.000Z</time>
      </trkpt>
      <trkpt lat="45.23575" lon="5.76033">
        <ele>1262.4000244141</ele>
        <time>2021-11-06T08:20:39.000Z</time>
      </trkpt>
      <trkpt lat="45.23576" lon="5.76032">
        <ele>1262.1999511719</ele>
        <time>2021-11-06T08:20:40.000Z</time>
      </trkpt>
      <trkpt lat="45.23578" lon="5.76026">
        <ele>1261.4000244141</ele>
        <time>2021-11-06T08:20:44.000Z</time>
      </trkpt>
      <trkpt lat="45.2358" lon="5.76024">
        <ele>1260.4000244141</ele>
        <time>2021-11-06T08:20:46.000Z</time>
      </trkpt>
      <trkpt lat="45.2358" lon="5.76021">
        <ele>1259.4000244141</ele>
        <time>2021-11-06T08:20:48.000Z</time>
      </trkpt>
      <trkpt lat="45.2358" lon="5.76018">
        <ele>1258.8000488281</ele>
        <time>2021-11-06T08:20:50.000Z</time>
      </trkpt>
      <trkpt lat="45.23581" lon="5.76017">
        <ele>1258.5999755859</ele>
        <time>2021-11-06T08:20:51.000Z</time>
      </trkpt>
      <trkpt lat="45.23581" lon="5.76016">
        <ele>1258.1999511719</ele>
        <time>2021-11-06T08:20:52.000Z</time>
      </trkpt>
      <trkpt lat="45.23583" lon="5.76012">
        <ele>1257</ele>
        <time>2021-11-06T08:20:56.000Z</time>
      </trkpt>
      <trkpt lat="45.23589" lon="5.76004">
        <ele>1255.5999755859</ele>
        <time>2021-11-06T08:21:01.000Z</time>
      </trkpt>
      <trkpt lat="45.2359" lon="5.76002">
        <ele>1255.1999511719</ele>
        <time>2021-11-06T08:21:02.000Z</time>
      </trkpt>
      <trkpt lat="45.2359" lon="5.76">
        <ele>1255</ele>
        <time>2021-11-06T08:21:03.000Z</time>
      </trkpt>
      <trkpt lat="45.23591" lon="5.75997">
        <ele>1254.4000244141</ele>
        <time>2021-11-06T08:21:05.000Z</time>
      </trkpt>
      <trkpt lat="45.23592" lon="5.75993">
        <ele>1253.4000244141</ele>
        <time>2021-11-06T08:21:07.000Z</time>
      </trkpt>
      <trkpt lat="45.23594" lon="5.75992">
        <ele>1253</ele>
        <time>2021-11-06T08:21:08.000Z</time>
      </trkpt>
      <trkpt lat="45.23596" lon="5.75988">
        <ele>1252.4000244141</ele>
        <time>2021-11-06T08:21:10.000Z</time>
      </trkpt>
      <trkpt lat="45.23596" lon="5.75986">
        <ele>1252</ele>
        <time>2021-11-06T08:21:11.000Z</time>
      </trkpt>
      <trkpt lat="45.23599" lon="5.75983">
        <ele>1251.1999511719</ele>
        <time>2021-11-06T08:21:13.000Z</time>
      </trkpt>
      <trkpt lat="45.23602" lon="5.7598">
        <ele>1250.5999755859</ele>
        <time>2021-11-06T08:21:15.000Z</time>
      </trkpt>
      <trkpt lat="45.23604" lon="5.75978">
        <ele>1249.8000488281</ele>
        <time>2021-11-06T08:21:17.000Z</time>
      </trkpt>
      <trkpt lat="45.23605" lon="5.75976">
        <ele>1249.4000244141</ele>
        <time>2021-11-06T08:21:18.000Z</time>
      </trkpt>
      <trkpt lat="45.23606" lon="5.75974">
        <ele>1249.1999511719</ele>
        <time>2021-11-06T08:21:19.000Z</time>
      </trkpt>
      <trkpt lat="45.2361" lon="5.75971">
        <ele>1248.4000244141</ele>
        <time>2021-11-06T08:21:22.000Z</time>
      </trkpt>
      <trkpt lat="45.23611" lon="5.75969">
        <ele>1248</ele>
        <time>2021-11-06T08:21:23.000Z</time>
      </trkpt>
      <trkpt lat="45.23615" lon="5.75962">
        <ele>1246.8000488281</ele>
        <time>2021-11-06T08:21:27.000Z</time>
      </trkpt>
      <trkpt lat="45.2362" lon="5.75959">
        <ele>1245.8000488281</ele>
        <time>2021-11-06T08:21:30.000Z</time>
      </trkpt>
      <trkpt lat="45.23622" lon="5.75955">
        <ele>1245</ele>
        <time>2021-11-06T08:21:32.000Z</time>
      </trkpt>
      <trkpt lat="45.23624" lon="5.75955">
        <ele>1244.5999755859</ele>
        <time>2021-11-06T08:21:34.000Z</time>
      </trkpt>
      <trkpt lat="45.23625" lon="5.75953">
        <ele>1244.4000244141</ele>
        <time>2021-11-06T08:21:35.000Z</time>
      </trkpt>
      <trkpt lat="45.23626" lon="5.7595">
        <ele>1243.5999755859</ele>
        <time>2021-11-06T08:21:37.000Z</time>
      </trkpt>
      <trkpt lat="45.23626" lon="5.75949">
        <ele>1243.4000244141</ele>
        <time>2021-11-06T08:21:38.000Z</time>
      </trkpt>
      <trkpt lat="45.23624" lon="5.75948">
        <ele>1243</ele>
        <time>2021-11-06T08:21:40.000Z</time>
      </trkpt>
      <trkpt lat="45.23623" lon="5.75949">
        <ele>1242.8000488281</ele>
        <time>2021-11-06T08:21:41.000Z</time>
      </trkpt>
      <trkpt lat="45.23621" lon="5.7595">
        <ele>1242.1999511719</ele>
        <time>2021-11-06T08:21:43.000Z</time>
      </trkpt>
      <trkpt lat="45.2362" lon="5.75951">
        <ele>1241.8000488281</ele>
        <time>2021-11-06T08:21:44.000Z</time>
      </trkpt>
      <trkpt lat="45.23619" lon="5.7595">
        <ele>1241.1999511719</ele>
        <time>2021-11-06T08:21:45.000Z</time>
      </trkpt>
      <trkpt lat="45.23617" lon="5.75951">
        <ele>1240.4000244141</ele>
        <time>2021-11-06T08:21:47.000Z</time>
      </trkpt>
      <trkpt lat="45.23614" lon="5.75951">
        <ele>1239.5999755859</ele>
        <time>2021-11-06T08:21:49.000Z</time>
      </trkpt>
      <trkpt lat="45.23609" lon="5.75952">
        <ele>1238.4000244141</ele>
        <time>2021-11-06T08:21:52.000Z</time>
      </trkpt>
      <trkpt lat="45.23608" lon="5.75953">
        <ele>1238</ele>
        <time>2021-11-06T08:21:53.000Z</time>
      </trkpt>
      <trkpt lat="45.23605" lon="5.75954">
        <ele>1237.1999511719</ele>
        <time>2021-11-06T08:21:55.000Z</time>
      </trkpt>
      <trkpt lat="45.23599" lon="5.75957">
        <ele>1236</ele>
        <time>2021-11-06T08:22:00.000Z</time>
      </trkpt>
      <trkpt lat="45.23597" lon="5.75959">
        <ele>1235</ele>
        <time>2021-11-06T08:22:03.000Z</time>
      </trkpt>
      <trkpt lat="45.23594" lon="5.75962">
        <ele>1233.8000488281</ele>
        <time>2021-11-06T08:22:06.000Z</time>
      </trkpt>
      <trkpt lat="45.23589" lon="5.75964">
        <ele>1232.1999511719</ele>
        <time>2021-11-06T08:22:09.000Z</time>
      </trkpt>
      <trkpt lat="45.23583" lon="5.75967">
        <ele>1231</ele>
        <time>2021-11-06T08:22:13.000Z</time>
      </trkpt>
      <trkpt lat="45.23579" lon="5.7597">
        <ele>1230.1999511719</ele>
        <time>2021-11-06T08:22:15.000Z</time>
      </trkpt>
      <trkpt lat="45.23577" lon="5.75971">
        <ele>1229.8000488281</ele>
        <time>2021-11-06T08:22:16.000Z</time>
      </trkpt>
      <trkpt lat="45.23574" lon="5.75972">
        <ele>1229</ele>
        <time>2021-11-06T08:22:18.000Z</time>
      </trkpt>
      <trkpt lat="45.23572" lon="5.75972">
        <ele>1228.5999755859</ele>
        <time>2021-11-06T08:22:19.000Z</time>
      </trkpt>
      <trkpt lat="45.23569" lon="5.75973">
        <ele>1227.5999755859</ele>
        <time>2021-11-06T08:22:22.000Z</time>
      </trkpt>
      <trkpt lat="45.23567" lon="5.75975">
        <ele>1227</ele>
        <time>2021-11-06T08:22:24.000Z</time>
      </trkpt>
      <trkpt lat="45.23565" lon="5.75976">
        <ele>1226.5999755859</ele>
        <time>2021-11-06T08:22:25.000Z</time>
      </trkpt>
      <trkpt lat="45.2356" lon="5.75979">
        <ele>1225.8000488281</ele>
        <time>2021-11-06T08:22:28.000Z</time>
      </trkpt>
      <trkpt lat="45.23558" lon="5.7598">
        <ele>1225.4000244141</ele>
        <time>2021-11-06T08:22:29.000Z</time>
      </trkpt>
      <trkpt lat="45.23552" lon="5.75983">
        <ele>1224.1999511719</ele>
        <time>2021-11-06T08:22:32.000Z</time>
      </trkpt>
      <trkpt lat="45.23551" lon="5.75984">
        <ele>1224</ele>
        <time>2021-11-06T08:22:33.000Z</time>
      </trkpt>
      <trkpt lat="45.23547" lon="5.75985">
        <ele>1223.1999511719</ele>
        <time>2021-11-06T08:22:36.000Z</time>
      </trkpt>
      <trkpt lat="45.23544" lon="5.75988">
        <ele>1221.8000488281</ele>
        <time>2021-11-06T08:22:39.000Z</time>
      </trkpt>
      <trkpt lat="45.23543" lon="5.75988">
        <ele>1221.4000244141</ele>
        <time>2021-11-06T08:22:40.000Z</time>
      </trkpt>
      <trkpt lat="45.23539" lon="5.75991">
        <ele>1220.8000488281</ele>
        <time>2021-11-06T08:22:43.000Z</time>
      </trkpt>
      <trkpt lat="45.23538" lon="5.75992">
        <ele>1220.4000244141</ele>
        <time>2021-11-06T08:22:44.000Z</time>
      </trkpt>
      <trkpt lat="45.23535" lon="5.75995">
        <ele>1219</ele>
        <time>2021-11-06T08:22:47.000Z</time>
      </trkpt>
      <trkpt lat="45.23526" lon="5.76001">
        <ele>1217.5999755859</ele>
        <time>2021-11-06T08:22:51.000Z</time>
      </trkpt>
      <trkpt lat="45.23521" lon="5.76005">
        <ele>1216</ele>
        <time>2021-11-06T08:22:55.000Z</time>
      </trkpt>
      <trkpt lat="45.2352" lon="5.76008">
        <ele>1215.1999511719</ele>
        <time>2021-11-06T08:22:57.000Z</time>
      </trkpt>
      <trkpt lat="45.2352" lon="5.76009">
        <ele>1214.8000488281</ele>
        <time>2021-11-06T08:22:58.000Z</time>
      </trkpt>
      <trkpt lat="45.23519" lon="5.7601">
        <ele>1214.4000244141</ele>
        <time>2021-11-06T08:22:59.000Z</time>
      </trkpt>
      <trkpt lat="45.23517" lon="5.76012">
        <ele>1214.4000244141</ele>
        <time>2021-11-06T08:23:00.000Z</time>
      </trkpt>
      <trkpt lat="45.23514" lon="5.76013">
        <ele>1214</ele>
        <time>2021-11-06T08:23:02.000Z</time>
      </trkpt>
      <trkpt lat="45.23511" lon="5.76013">
        <ele>1213.5999755859</ele>
        <time>2021-11-06T08:23:03.000Z</time>
      </trkpt>
      <trkpt lat="45.23509" lon="5.76012">
        <ele>1213</ele>
        <time>2021-11-06T08:23:04.000Z</time>
      </trkpt>
      <trkpt lat="45.23508" lon="5.7601">
        <ele>1212.5999755859</ele>
        <time>2021-11-06T08:23:05.000Z</time>
      </trkpt>
      <trkpt lat="45.23509" lon="5.76008">
        <ele>1212.1999511719</ele>
        <time>2021-11-06T08:23:06.000Z</time>
      </trkpt>
      <trkpt lat="45.23509" lon="5.76004">
        <ele>1211.1999511719</ele>
        <time>2021-11-06T08:23:08.000Z</time>
      </trkpt>
      <trkpt lat="45.23511" lon="5.75998">
        <ele>1210.1999511719</ele>
        <time>2021-11-06T08:23:11.000Z</time>
      </trkpt>
      <trkpt lat="45.23512" lon="5.75994">
        <ele>1209.8000488281</ele>
        <time>2021-11-06T08:23:13.000Z</time>
      </trkpt>
      <trkpt lat="45.23513" lon="5.7599">
        <ele>1208.8000488281</ele>
        <time>2021-11-06T08:23:15.000Z</time>
      </trkpt>
      <trkpt lat="45.23513" lon="5.75983">
        <ele>1207.8000488281</ele>
        <time>2021-11-06T08:23:18.000Z</time>
      </trkpt>
      <trkpt lat="45.23514" lon="5.75981">
        <ele>1207.1999511719</ele>
        <time>2021-11-06T08:23:19.000Z</time>
      </trkpt>
      <trkpt lat="45.23516" lon="5.75979">
        <ele>1206.5999755859</ele>
        <time>2021-11-06T08:23:21.000Z</time>
      </trkpt>
      <trkpt lat="45.23518" lon="5.75976">
        <ele>1205.8000488281</ele>
        <time>2021-11-06T08:23:23.000Z</time>
      </trkpt>
      <trkpt lat="45.23519" lon="5.75975">
        <ele>1205.4000244141</ele>
        <time>2021-11-06T08:23:24.000Z</time>
      </trkpt>
      <trkpt lat="45.2352" lon="5.75971">
        <ele>1204.8000488281</ele>
        <time>2021-11-06T08:23:26.000Z</time>
      </trkpt>
      <trkpt lat="45.23521" lon="5.75967">
        <ele>1204.1999511719</ele>
        <time>2021-11-06T08:23:28.000Z</time>
      </trkpt>
      <trkpt lat="45.23524" lon="5.75958">
        <ele>1203.1999511719</ele>
        <time>2021-11-06T08:23:32.000Z</time>
      </trkpt>
      <trkpt lat="45.23525" lon="5.75955">
        <ele>1203</ele>
        <time>2021-11-06T08:23:33.000Z</time>
      </trkpt>
      <trkpt lat="45.23525" lon="5.75954">
        <ele>1202.5999755859</ele>
        <time>2021-11-06T08:23:34.000Z</time>
      </trkpt>
      <trkpt lat="45.23526" lon="5.75952">
        <ele>1202.1999511719</ele>
        <time>2021-11-06T08:23:35.000Z</time>
      </trkpt>
      <trkpt lat="45.23527" lon="5.7595">
        <ele>1201.8000488281</ele>
        <time>2021-11-06T08:23:36.000Z</time>
      </trkpt>
      <trkpt lat="45.23527" lon="5.75945">
        <ele>1200.4000244141</ele>
        <time>2021-11-06T08:23:39.000Z</time>
      </trkpt>
      <trkpt lat="45.23526" lon="5.75941">
        <ele>1199.4000244141</ele>
        <time>2021-11-06T08:23:41.000Z</time>
      </trkpt>
      <trkpt lat="45.23526" lon="5.75939">
        <ele>1199</ele>
        <time>2021-11-06T08:23:42.000Z</time>
      </trkpt>
      <trkpt lat="45.23527" lon="5.75936">
        <ele>1198.5999755859</ele>
        <time>2021-11-06T08:23:43.000Z</time>
      </trkpt>
      <trkpt lat="45.23529" lon="5.75931">
        <ele>1197.8000488281</ele>
        <time>2021-11-06T08:23:45.000Z</time>
      </trkpt>
      <trkpt lat="45.2353" lon="5.75928">
        <ele>1197.4000244141</ele>
        <time>2021-11-06T08:23:46.000Z</time>
      </trkpt>
      <trkpt lat="45.23531" lon="5.75925">
        <ele>1197.1999511719</ele>
        <time>2021-11-06T08:23:47.000Z</time>
      </trkpt>
      <trkpt lat="45.23532" lon="5.75923">
        <ele>1196.8000488281</ele>
        <time>2021-11-06T08:23:48.000Z</time>
      </trkpt>
      <trkpt lat="45.23534" lon="5.75919">
        <ele>1195.8000488281</ele>
        <time>2021-11-06T08:23:50.000Z</time>
      </trkpt>
      <trkpt lat="45.23536" lon="5.75916">
        <ele>1195.1999511719</ele>
        <time>2021-11-06T08:23:51.000Z</time>
      </trkpt>
      <trkpt lat="45.23537" lon="5.75913">
        <ele>1194.5999755859</ele>
        <time>2021-11-06T08:23:52.000Z</time>
      </trkpt>
      <trkpt lat="45.23539" lon="5.75908">
        <ele>1193.8000488281</ele>
        <time>2021-11-06T08:23:54.000Z</time>
      </trkpt>
      <trkpt lat="45.23541" lon="5.75905">
        <ele>1193.5999755859</ele>
        <time>2021-11-06T08:23:55.000Z</time>
      </trkpt>
      <trkpt lat="45.23545" lon="5.75895">
        <ele>1192.4000244141</ele>
        <time>2021-11-06T08:23:59.000Z</time>
      </trkpt>
      <trkpt lat="45.23547" lon="5.75891">
        <ele>1191.4000244141</ele>
        <time>2021-11-06T08:24:01.000Z</time>
      </trkpt>
      <trkpt lat="45.23548" lon="5.75888">
        <ele>1190.8000488281</ele>
        <time>2021-11-06T08:24:02.000Z</time>
      </trkpt>
      <trkpt lat="45.23548" lon="5.75885">
        <ele>1190.1999511719</ele>
        <time>2021-11-06T08:24:03.000Z</time>
      </trkpt>
      <trkpt lat="45.23549" lon="5.75883">
        <ele>1189.4000244141</ele>
        <time>2021-11-06T08:24:04.000Z</time>
      </trkpt>
      <trkpt lat="45.2355" lon="5.7588">
        <ele>1189</ele>
        <time>2021-11-06T08:24:05.000Z</time>
      </trkpt>
      <trkpt lat="45.23551" lon="5.75879">
        <ele>1188.5999755859</ele>
        <time>2021-11-06T08:24:06.000Z</time>
      </trkpt>
      <trkpt lat="45.23552" lon="5.75877">
        <ele>1188.1999511719</ele>
        <time>2021-11-06T08:24:07.000Z</time>
      </trkpt>
      <trkpt lat="45.23554" lon="5.7587">
        <ele>1187</ele>
        <time>2021-11-06T08:24:10.000Z</time>
      </trkpt>
      <trkpt lat="45.23558" lon="5.75865">
        <ele>1186</ele>
        <time>2021-11-06T08:24:13.000Z</time>
      </trkpt>
      <trkpt lat="45.2356" lon="5.7586">
        <ele>1185</ele>
        <time>2021-11-06T08:24:15.000Z</time>
      </trkpt>
      <trkpt lat="45.23564" lon="5.75854">
        <ele>1184</ele>
        <time>2021-11-06T08:24:18.000Z</time>
      </trkpt>
      <trkpt lat="45.23565" lon="5.75852">
        <ele>1183.5999755859</ele>
        <time>2021-11-06T08:24:19.000Z</time>
      </trkpt>
      <trkpt lat="45.23566" lon="5.75847">
        <ele>1182.8000488281</ele>
        <time>2021-11-06T08:24:21.000Z</time>
      </trkpt>
      <trkpt lat="45.2357" lon="5.75842">
        <ele>1181.8000488281</ele>
        <time>2021-11-06T08:24:24.000Z</time>
      </trkpt>
      <trkpt lat="45.23571" lon="5.7584">
        <ele>1181.4000244141</ele>
        <time>2021-11-06T08:24:25.000Z</time>
      </trkpt>
      <trkpt lat="45.23572" lon="5.75837">
        <ele>1180.8000488281</ele>
        <time>2021-11-06T08:24:26.000Z</time>
      </trkpt>
      <trkpt lat="45.23574" lon="5.75835">
        <ele>1180.4000244141</ele>
        <time>2021-11-06T08:24:27.000Z</time>
      </trkpt>
      <trkpt lat="45.23575" lon="5.75834">
        <ele>1179.8000488281</ele>
        <time>2021-11-06T08:24:28.000Z</time>
      </trkpt>
      <trkpt lat="45.23577" lon="5.75831">
        <ele>1179.4000244141</ele>
        <time>2021-11-06T08:24:29.000Z</time>
      </trkpt>
      <trkpt lat="45.23578" lon="5.75827">
        <ele>1178.4000244141</ele>
        <time>2021-11-06T08:24:31.000Z</time>
      </trkpt>
      <trkpt lat="45.2358" lon="5.7582">
        <ele>1177.1999511719</ele>
        <time>2021-11-06T08:24:34.000Z</time>
      </trkpt>
      <trkpt lat="45.23582" lon="5.75816">
        <ele>1176.8000488281</ele>
        <time>2021-11-06T08:24:36.000Z</time>
      </trkpt>
      <trkpt lat="45.23583" lon="5.75814">
        <ele>1176.5999755859</ele>
        <time>2021-11-06T08:24:37.000Z</time>
      </trkpt>
      <trkpt lat="45.23584" lon="5.75812">
        <ele>1176.1999511719</ele>
        <time>2021-11-06T08:24:38.000Z</time>
      </trkpt>
      <trkpt lat="45.23587" lon="5.75806">
        <ele>1174.8000488281</ele>
        <time>2021-11-06T08:24:40.000Z</time>
      </trkpt>
      <trkpt lat="45.23591" lon="5.75799">
        <ele>1173.8000488281</ele>
        <time>2021-11-06T08:24:43.000Z</time>
      </trkpt>
      <trkpt lat="45.23592" lon="5.75798">
        <ele>1173.4000244141</ele>
        <time>2021-11-06T08:24:44.000Z</time>
      </trkpt>
      <trkpt lat="45.23596" lon="5.75794">
        <ele>1172.8000488281</ele>
        <time>2021-11-06T08:24:46.000Z</time>
      </trkpt>
      <trkpt lat="45.23597" lon="5.75791">
        <ele>1172</ele>
        <time>2021-11-06T08:24:48.000Z</time>
      </trkpt>
      <trkpt lat="45.23597" lon="5.7579">
        <ele>1171.8000488281</ele>
        <time>2021-11-06T08:24:49.000Z</time>
      </trkpt>
      <trkpt lat="45.23597" lon="5.7579">
        <ele>1171.4000244141</ele>
        <time>2021-11-06T08:24:50.000Z</time>
      </trkpt>
      <trkpt lat="45.23596" lon="5.75791">
        <ele>1170.8000488281</ele>
        <time>2021-11-06T08:24:52.000Z</time>
      </trkpt>
      <trkpt lat="45.23595" lon="5.75792">
        <ele>1170.4000244141</ele>
        <time>2021-11-06T08:24:53.000Z</time>
      </trkpt>
      <trkpt lat="45.23594" lon="5.75794">
        <ele>1169.8000488281</ele>
        <time>2021-11-06T08:24:54.000Z</time>
      </trkpt>
      <trkpt lat="45.23591" lon="5.75795">
        <ele>1168.4000244141</ele>
        <time>2021-11-06T08:24:57.000Z</time>
      </trkpt>
      <trkpt lat="45.2359" lon="5.75798">
        <ele>1167.4000244141</ele>
        <time>2021-11-06T08:24:59.000Z</time>
      </trkpt>
      <trkpt lat="45.23585" lon="5.75803">
        <ele>1166.1999511719</ele>
        <time>2021-11-06T08:25:02.000Z</time>
      </trkpt>
      <trkpt lat="45.23582" lon="5.75803">
        <ele>1165.1999511719</ele>
        <time>2021-11-06T08:25:04.000Z</time>
      </trkpt>
      <trkpt lat="45.23576" lon="5.75803">
        <ele>1163.5999755859</ele>
        <time>2021-11-06T08:25:07.000Z</time>
      </trkpt>
      <trkpt lat="45.23573" lon="5.75803">
        <ele>1163</ele>
        <time>2021-11-06T08:25:09.000Z</time>
      </trkpt>
      <trkpt lat="45.23572" lon="5.75804">
        <ele>1162.5999755859</ele>
        <time>2021-11-06T08:25:10.000Z</time>
      </trkpt>
      <trkpt lat="45.23569" lon="5.75804">
        <ele>1161.4000244141</ele>
        <time>2021-11-06T08:25:13.000Z</time>
      </trkpt>
      <trkpt lat="45.23564" lon="5.75806">
        <ele>1160.1999511719</ele>
        <time>2021-11-06T08:25:16.000Z</time>
      </trkpt>
      <trkpt lat="45.23561" lon="5.75807">
        <ele>1159.8000488281</ele>
        <time>2021-11-06T08:25:18.000Z</time>
      </trkpt>
      <trkpt lat="45.2356" lon="5.75808">
        <ele>1159.1999511719</ele>
        <time>2021-11-06T08:25:20.000Z</time>
      </trkpt>
      <trkpt lat="45.23559" lon="5.75809">
        <ele>1158.5999755859</ele>
        <time>2021-11-06T08:25:21.000Z</time>
      </trkpt>
      <trkpt lat="45.23558" lon="5.75809">
        <ele>1158.1999511719</ele>
        <time>2021-11-06T08:25:22.000Z</time>
      </trkpt>
      <trkpt lat="45.23556" lon="5.7581">
        <ele>1157.1999511719</ele>
        <time>2021-11-06T08:25:24.000Z</time>
      </trkpt>
      <trkpt lat="45.23552" lon="5.75814">
        <ele>1156</ele>
        <time>2021-11-06T08:25:27.000Z</time>
      </trkpt>
      <trkpt lat="45.2355" lon="5.75816">
        <ele>1154.8000488281</ele>
        <time>2021-11-06T08:25:30.000Z</time>
      </trkpt>
      <trkpt lat="45.23546" lon="5.7582">
        <ele>1153.8000488281</ele>
        <time>2021-11-06T08:25:33.000Z</time>
      </trkpt>
      <trkpt lat="45.23541" lon="5.75823">
        <ele>1152.4000244141</ele>
        <time>2021-11-06T08:25:37.000Z</time>
      </trkpt>
      <trkpt lat="45.23537" lon="5.75826">
        <ele>1151.5999755859</ele>
        <time>2021-11-06T08:25:39.000Z</time>
      </trkpt>
      <trkpt lat="45.23535" lon="5.75825">
        <ele>1151.4000244141</ele>
        <time>2021-11-06T08:25:40.000Z</time>
      </trkpt>
      <trkpt lat="45.23534" lon="5.75825">
        <ele>1151</ele>
        <time>2021-11-06T08:25:41.000Z</time>
      </trkpt>
      <trkpt lat="45.23533" lon="5.75826">
        <ele>1150.5999755859</ele>
        <time>2021-11-06T08:25:42.000Z</time>
      </trkpt>
      <trkpt lat="45.23531" lon="5.75827">
        <ele>1150.1999511719</ele>
        <time>2021-11-06T08:25:43.000Z</time>
      </trkpt>
      <trkpt lat="45.23528" lon="5.75829">
        <ele>1149.1999511719</ele>
        <time>2021-11-06T08:25:45.000Z</time>
      </trkpt>
      <trkpt lat="45.23527" lon="5.75831">
        <ele>1148.8000488281</ele>
        <time>2021-11-06T08:25:46.000Z</time>
      </trkpt>
      <trkpt lat="45.23523" lon="5.75834">
        <ele>1147.4000244141</ele>
        <time>2021-11-06T08:25:49.000Z</time>
      </trkpt>
      <trkpt lat="45.2352" lon="5.75838">
        <ele>1146.1999511719</ele>
        <time>2021-11-06T08:25:52.000Z</time>
      </trkpt>
      <trkpt lat="45.23516" lon="5.75839">
        <ele>1144.8000488281</ele>
        <time>2021-11-06T08:25:55.000Z</time>
      </trkpt>
      <trkpt lat="45.23513" lon="5.75842">
        <ele>1143.8000488281</ele>
        <time>2021-11-06T08:25:57.000Z</time>
      </trkpt>
      <trkpt lat="45.23512" lon="5.75842">
        <ele>1143.5999755859</ele>
        <time>2021-11-06T08:25:58.000Z</time>
      </trkpt>
      <trkpt lat="45.2351" lon="5.75843">
        <ele>1143.1999511719</ele>
        <time>2021-11-06T08:25:59.000Z</time>
      </trkpt>
      <trkpt lat="45.23506" lon="5.75845">
        <ele>1143</ele>
        <time>2021-11-06T08:26:01.000Z</time>
      </trkpt>
      <trkpt lat="45.23504" lon="5.75845">
        <ele>1142.4000244141</ele>
        <time>2021-11-06T08:26:02.000Z</time>
      </trkpt>
      <trkpt lat="45.23498" lon="5.75847">
        <ele>1141.1999511719</ele>
        <time>2021-11-06T08:26:05.000Z</time>
      </trkpt>
      <trkpt lat="45.23496" lon="5.75849">
        <ele>1140.8000488281</ele>
        <time>2021-11-06T08:26:06.000Z</time>
      </trkpt>
      <trkpt lat="45.23493" lon="5.75852">
        <ele>1140</ele>
        <time>2021-11-06T08:26:08.000Z</time>
      </trkpt>
      <trkpt lat="45.23489" lon="5.75855">
        <ele>1138.5999755859</ele>
        <time>2021-11-06T08:26:11.000Z</time>
      </trkpt>
      <trkpt lat="45.23487" lon="5.75855">
        <ele>1138.1999511719</ele>
        <time>2021-11-06T08:26:12.000Z</time>
      </trkpt>
      <trkpt lat="45.23485" lon="5.75856">
        <ele>1137.8000488281</ele>
        <time>2021-11-06T08:26:13.000Z</time>
      </trkpt>
      <trkpt lat="45.23483" lon="5.75857">
        <ele>1137.1999511719</ele>
        <time>2021-11-06T08:26:15.000Z</time>
      </trkpt>
      <trkpt lat="45.23479" lon="5.75859">
        <ele>1136.4000244141</ele>
        <time>2021-11-06T08:26:17.000Z</time>
      </trkpt>
      <trkpt lat="45.23478" lon="5.75859">
        <ele>1135.8000488281</ele>
        <time>2021-11-06T08:26:18.000Z</time>
      </trkpt>
      <trkpt lat="45.23477" lon="5.7586">
        <ele>1135.1999511719</ele>
        <time>2021-11-06T08:26:19.000Z</time>
      </trkpt>
      <trkpt lat="45.23475" lon="5.75861">
        <ele>1134.8000488281</ele>
        <time>2021-11-06T08:26:20.000Z</time>
      </trkpt>
      <trkpt lat="45.23472" lon="5.75862">
        <ele>1133.8000488281</ele>
        <time>2021-11-06T08:26:22.000Z</time>
      </trkpt>
      <trkpt lat="45.2347" lon="5.75863">
        <ele>1133.4000244141</ele>
        <time>2021-11-06T08:26:23.000Z</time>
      </trkpt>
      <trkpt lat="45.23464" lon="5.75865">
        <ele>1132</ele>
        <time>2021-11-06T08:26:26.000Z</time>
      </trkpt>
      <trkpt lat="45.23462" lon="5.75866">
        <ele>1131.5999755859</ele>
        <time>2021-11-06T08:26:27.000Z</time>
      </trkpt>
      <trkpt lat="45.2346" lon="5.75867">
        <ele>1131.1999511719</ele>
        <time>2021-11-06T08:26:28.000Z</time>
      </trkpt>
      <trkpt lat="45.23459" lon="5.75868">
        <ele>1130.8000488281</ele>
        <time>2021-11-06T08:26:29.000Z</time>
      </trkpt>
      <trkpt lat="45.23456" lon="5.7587">
        <ele>1130</ele>
        <time>2021-11-06T08:26:31.000Z</time>
      </trkpt>
      <trkpt lat="45.23455" lon="5.7587">
        <ele>1129.5999755859</ele>
        <time>2021-11-06T08:26:32.000Z</time>
      </trkpt>
      <trkpt lat="45.23454" lon="5.75871">
        <ele>1129.1999511719</ele>
        <time>2021-11-06T08:26:34.000Z</time>
      </trkpt>
      <trkpt lat="45.2345" lon="5.75872">
        <ele>1128</ele>
        <time>2021-11-06T08:26:37.000Z</time>
      </trkpt>
      <trkpt lat="45.23446" lon="5.75874">
        <ele>1126.8000488281</ele>
        <time>2021-11-06T08:26:40.000Z</time>
      </trkpt>
      <trkpt lat="45.23441" lon="5.75877">
        <ele>1125.8000488281</ele>
        <time>2021-11-06T08:26:43.000Z</time>
      </trkpt>
      <trkpt lat="45.23436" lon="5.75881">
        <ele>1124.1999511719</ele>
        <time>2021-11-06T08:26:47.000Z</time>
      </trkpt>
      <trkpt lat="45.23435" lon="5.75882">
        <ele>1123.5999755859</ele>
        <time>2021-11-06T08:26:48.000Z</time>
      </trkpt>
      <trkpt lat="45.23434" lon="5.75884">
        <ele>1123.1999511719</ele>
        <time>2021-11-06T08:26:49.000Z</time>
      </trkpt>
      <trkpt lat="45.23433" lon="5.75885">
        <ele>1122.5999755859</ele>
        <time>2021-11-06T08:26:50.000Z</time>
      </trkpt>
      <trkpt lat="45.2343" lon="5.75886">
        <ele>1121.8000488281</ele>
        <time>2021-11-06T08:26:52.000Z</time>
      </trkpt>
      <trkpt lat="45.23427" lon="5.75888">
        <ele>1121</ele>
        <time>2021-11-06T08:26:54.000Z</time>
      </trkpt>
      <trkpt lat="45.23425" lon="5.75888">
        <ele>1120.5999755859</ele>
        <time>2021-11-06T08:26:55.000Z</time>
      </trkpt>
      <trkpt lat="45.23421" lon="5.75889">
        <ele>1119.5999755859</ele>
        <time>2021-11-06T08:26:58.000Z</time>
      </trkpt>
      <trkpt lat="45.23413" lon="5.7589">
        <ele>1118.4000244141</ele>
        <time>2021-11-06T08:27:02.000Z</time>
      </trkpt>
      <trkpt lat="45.23411" lon="5.75891">
        <ele>1118</ele>
        <time>2021-11-06T08:27:03.000Z</time>
      </trkpt>
      <trkpt lat="45.23406" lon="5.7589">
        <ele>1116.8000488281</ele>
        <time>2021-11-06T08:27:05.000Z</time>
      </trkpt>
      <trkpt lat="45.23402" lon="5.7589">
        <ele>1115.5999755859</ele>
        <time>2021-11-06T08:27:07.000Z</time>
      </trkpt>
      <trkpt lat="45.23397" lon="5.7589">
        <ele>1114.4000244141</ele>
        <time>2021-11-06T08:27:10.000Z</time>
      </trkpt>
      <trkpt lat="45.23392" lon="5.75893">
        <ele>1113</ele>
        <time>2021-11-06T08:27:13.000Z</time>
      </trkpt>
      <trkpt lat="45.23389" lon="5.75896">
        <ele>1111.8000488281</ele>
        <time>2021-11-06T08:27:15.000Z</time>
      </trkpt>
      <trkpt lat="45.23388" lon="5.75898">
        <ele>1111.5999755859</ele>
        <time>2021-11-06T08:27:16.000Z</time>
      </trkpt>
      <trkpt lat="45.23385" lon="5.75902">
        <ele>1110.8000488281</ele>
        <time>2021-11-06T08:27:18.000Z</time>
      </trkpt>
      <trkpt lat="45.23381" lon="5.75909">
        <ele>1109.5999755859</ele>
        <time>2021-11-06T08:27:21.000Z</time>
      </trkpt>
      <trkpt lat="45.2338" lon="5.75913">
        <ele>1108.8000488281</ele>
        <time>2021-11-06T08:27:23.000Z</time>
      </trkpt>
      <trkpt lat="45.2338" lon="5.75916">
        <ele>1108.1999511719</ele>
        <time>2021-11-06T08:27:24.000Z</time>
      </trkpt>
      <trkpt lat="45.23378" lon="5.75926">
        <ele>1107.1999511719</ele>
        <time>2021-11-06T08:27:27.000Z</time>
      </trkpt>
      <trkpt lat="45.23377" lon="5.75933">
        <ele>1106.4000244141</ele>
        <time>2021-11-06T08:27:29.000Z</time>
      </trkpt>
      <trkpt lat="45.23377" lon="5.75936">
        <ele>1106</ele>
        <time>2021-11-06T08:27:30.000Z</time>
      </trkpt>
      <trkpt lat="45.23375" lon="5.7594">
        <ele>1105.1999511719</ele>
        <time>2021-11-06T08:27:32.000Z</time>
      </trkpt>
      <trkpt lat="45.23373" lon="5.75939">
        <ele>1104.8000488281</ele>
        <time>2021-11-06T08:27:33.000Z</time>
      </trkpt>
      <trkpt lat="45.23371" lon="5.75936">
        <ele>1104.4000244141</ele>
        <time>2021-11-06T08:27:34.000Z</time>
      </trkpt>
      <trkpt lat="45.23369" lon="5.75932">
        <ele>1103.4000244141</ele>
        <time>2021-11-06T08:27:36.000Z</time>
      </trkpt>
      <trkpt lat="45.23367" lon="5.75927">
        <ele>1102.5999755859</ele>
        <time>2021-11-06T08:27:38.000Z</time>
      </trkpt>
      <trkpt lat="45.23366" lon="5.75925">
        <ele>1102.1999511719</ele>
        <time>2021-11-06T08:27:39.000Z</time>
      </trkpt>
      <trkpt lat="45.23365" lon="5.75923">
        <ele>1102</ele>
        <time>2021-11-06T08:27:40.000Z</time>
      </trkpt>
      <trkpt lat="45.23364" lon="5.75919">
        <ele>1101</ele>
        <time>2021-11-06T08:27:42.000Z</time>
      </trkpt>
      <trkpt lat="45.23361" lon="5.75916">
        <ele>1100.1999511719</ele>
        <time>2021-11-06T08:27:44.000Z</time>
      </trkpt>
      <trkpt lat="45.2336" lon="5.75914">
        <ele>1099.8000488281</ele>
        <time>2021-11-06T08:27:45.000Z</time>
      </trkpt>
      <trkpt lat="45.23357" lon="5.75908">
        <ele>1098.5999755859</ele>
        <time>2021-11-06T08:27:48.000Z</time>
      </trkpt>
      <trkpt lat="45.23353" lon="5.75901">
        <ele>1097.4000244141</ele>
        <time>2021-11-06T08:27:51.000Z</time>
      </trkpt>
      <trkpt lat="45.2335" lon="5.75897">
        <ele>1096.5999755859</ele>
        <time>2021-11-06T08:27:53.000Z</time>
      </trkpt>
      <trkpt lat="45.23348" lon="5.75894">
        <ele>1096</ele>
        <time>2021-11-06T08:27:55.000Z</time>
      </trkpt>
      <trkpt lat="45.23346" lon="5.75891">
        <ele>1094.8000488281</ele>
        <time>2021-11-06T08:27:57.000Z</time>
      </trkpt>
      <trkpt lat="45.23344" lon="5.75884">
        <ele>1093.5999755859</ele>
        <time>2021-11-06T08:28:00.000Z</time>
      </trkpt>
      <trkpt lat="45.23344" lon="5.75878">
        <ele>1093</ele>
        <time>2021-11-06T08:28:02.000Z</time>
      </trkpt>
      <trkpt lat="45.23345" lon="5.75875">
        <ele>1093</ele>
        <time>2021-11-06T08:28:03.000Z</time>
      </trkpt>
      <trkpt lat="45.23346" lon="5.75872">
        <ele>1092.5999755859</ele>
        <time>2021-11-06T08:28:04.000Z</time>
      </trkpt>
      <trkpt lat="45.23352" lon="5.75861">
        <ele>1091.4000244141</ele>
        <time>2021-11-06T08:28:08.000Z</time>
      </trkpt>
      <trkpt lat="45.23353" lon="5.75858">
        <ele>1091.1999511719</ele>
        <time>2021-11-06T08:28:09.000Z</time>
      </trkpt>
      <trkpt lat="45.23357" lon="5.75851">
        <ele>1090.1999511719</ele>
        <time>2021-11-06T08:28:12.000Z</time>
      </trkpt>
      <trkpt lat="45.23361" lon="5.75846">
        <ele>1089</ele>
        <time>2021-11-06T08:28:15.000Z</time>
      </trkpt>
      <trkpt lat="45.23362" lon="5.75844">
        <ele>1088.8000488281</ele>
        <time>2021-11-06T08:28:16.000Z</time>
      </trkpt>
      <trkpt lat="45.23365" lon="5.75841">
        <ele>1088.1999511719</ele>
        <time>2021-11-06T08:28:18.000Z</time>
      </trkpt>
      <trkpt lat="45.23367" lon="5.7584">
        <ele>1088</ele>
        <time>2021-11-06T08:28:19.000Z</time>
      </trkpt>
      <trkpt lat="45.23371" lon="5.75839">
        <ele>1087</ele>
        <time>2021-11-06T08:28:22.000Z</time>
      </trkpt>
      <trkpt lat="45.23372" lon="5.75839">
        <ele>1086.8000488281</ele>
        <time>2021-11-06T08:28:23.000Z</time>
      </trkpt>
      <trkpt lat="45.23373" lon="5.75839">
        <ele>1086.4000244141</ele>
        <time>2021-11-06T08:28:24.000Z</time>
      </trkpt>
      <trkpt lat="45.23375" lon="5.75836">
        <ele>1085.5999755859</ele>
        <time>2021-11-06T08:28:26.000Z</time>
      </trkpt>
      <trkpt lat="45.23376" lon="5.75836">
        <ele>1085.4000244141</ele>
        <time>2021-11-06T08:28:27.000Z</time>
      </trkpt>
      <trkpt lat="45.23379" lon="5.75835">
        <ele>1084.1999511719</ele>
        <time>2021-11-06T08:28:30.000Z</time>
      </trkpt>
      <trkpt lat="45.2338" lon="5.75834">
        <ele>1083.8000488281</ele>
        <time>2021-11-06T08:28:31.000Z</time>
      </trkpt>
      <trkpt lat="45.23382" lon="5.75831">
        <ele>1083.4000244141</ele>
        <time>2021-11-06T08:28:33.000Z</time>
      </trkpt>
      <trkpt lat="45.23384" lon="5.75829">
        <ele>1083</ele>
        <time>2021-11-06T08:28:34.000Z</time>
      </trkpt>
      <trkpt lat="45.23388" lon="5.75825">
        <ele>1082</ele>
        <time>2021-11-06T08:28:37.000Z</time>
      </trkpt>
      <trkpt lat="45.23389" lon="5.75822">
        <ele>1081.1999511719</ele>
        <time>2021-11-06T08:28:39.000Z</time>
      </trkpt>
      <trkpt lat="45.2339" lon="5.75817">
        <ele>1080.8000488281</ele>
        <time>2021-11-06T08:28:41.000Z</time>
      </trkpt>
      <trkpt lat="45.23391" lon="5.75815">
        <ele>1080.5999755859</ele>
        <time>2021-11-06T08:28:42.000Z</time>
      </trkpt>
      <trkpt lat="45.23391" lon="5.75812">
        <ele>1080.1999511719</ele>
        <time>2021-11-06T08:28:43.000Z</time>
      </trkpt>
      <trkpt lat="45.23392" lon="5.7581">
        <ele>1079.5999755859</ele>
        <time>2021-11-06T08:28:44.000Z</time>
      </trkpt>
      <trkpt lat="45.23392" lon="5.75807">
        <ele>1079.1999511719</ele>
        <time>2021-11-06T08:28:45.000Z</time>
      </trkpt>
      <trkpt lat="45.23393" lon="5.758">
        <ele>1078.1999511719</ele>
        <time>2021-11-06T08:28:48.000Z</time>
      </trkpt>
      <trkpt lat="45.23393" lon="5.75798">
        <ele>1077.8000488281</ele>
        <time>2021-11-06T08:28:49.000Z</time>
      </trkpt>
      <trkpt lat="45.23394" lon="5.75794">
        <ele>1076.8000488281</ele>
        <time>2021-11-06T08:28:51.000Z</time>
      </trkpt>
      <trkpt lat="45.23398" lon="5.75788">
        <ele>1076</ele>
        <time>2021-11-06T08:28:54.000Z</time>
      </trkpt>
      <trkpt lat="45.23401" lon="5.75785">
        <ele>1075.4000244141</ele>
        <time>2021-11-06T08:28:55.000Z</time>
      </trkpt>
      <trkpt lat="45.23401" lon="5.75783">
        <ele>1075.1999511719</ele>
        <time>2021-11-06T08:28:56.000Z</time>
      </trkpt>
      <trkpt lat="45.23404" lon="5.75778">
        <ele>1074.4000244141</ele>
        <time>2021-11-06T08:28:58.000Z</time>
      </trkpt>
      <trkpt lat="45.23405" lon="5.75774">
        <ele>1074.1999511719</ele>
        <time>2021-11-06T08:28:59.000Z</time>
      </trkpt>
      <trkpt lat="45.23407" lon="5.75767">
        <ele>1073.4000244141</ele>
        <time>2021-11-06T08:29:02.000Z</time>
      </trkpt>
      <trkpt lat="45.23409" lon="5.75764">
        <ele>1072.8000488281</ele>
        <time>2021-11-06T08:29:04.000Z</time>
      </trkpt>
      <trkpt lat="45.23412" lon="5.75757">
        <ele>1071.5999755859</ele>
        <time>2021-11-06T08:29:08.000Z</time>
      </trkpt>
      <trkpt lat="45.23413" lon="5.75756">
        <ele>1071.4000244141</ele>
        <time>2021-11-06T08:29:09.000Z</time>
      </trkpt>
      <trkpt lat="45.23414" lon="5.75755">
        <ele>1070.8000488281</ele>
        <time>2021-11-06T08:29:10.000Z</time>
      </trkpt>
      <trkpt lat="45.23415" lon="5.75753">
        <ele>1070.4000244141</ele>
        <time>2021-11-06T08:29:11.000Z</time>
      </trkpt>
      <trkpt lat="45.23415" lon="5.7575">
        <ele>1069.4000244141</ele>
        <time>2021-11-06T08:29:13.000Z</time>
      </trkpt>
      <trkpt lat="45.23416" lon="5.75746">
        <ele>1068.4000244141</ele>
        <time>2021-11-06T08:29:15.000Z</time>
      </trkpt>
      <trkpt lat="45.23416" lon="5.75742">
        <ele>1067.5999755859</ele>
        <time>2021-11-06T08:29:17.000Z</time>
      </trkpt>
      <trkpt lat="45.23417" lon="5.7574">
        <ele>1067</ele>
        <time>2021-11-06T08:29:18.000Z</time>
      </trkpt>
      <trkpt lat="45.23419" lon="5.75733">
        <ele>1065.5999755859</ele>
        <time>2021-11-06T08:29:21.000Z</time>
      </trkpt>
      <trkpt lat="45.23421" lon="5.75726">
        <ele>1064.4000244141</ele>
        <time>2021-11-06T08:29:24.000Z</time>
      </trkpt>
      <trkpt lat="45.23422" lon="5.75719">
        <ele>1063.1999511719</ele>
        <time>2021-11-06T08:29:27.000Z</time>
      </trkpt>
      <trkpt lat="45.23422" lon="5.75717">
        <ele>1062.8000488281</ele>
        <time>2021-11-06T08:29:28.000Z</time>
      </trkpt>
      <trkpt lat="45.23422" lon="5.7571">
        <ele>1061.8000488281</ele>
        <time>2021-11-06T08:29:31.000Z</time>
      </trkpt>
      <trkpt lat="45.23423" lon="5.75708">
        <ele>1061.5999755859</ele>
        <time>2021-11-06T08:29:32.000Z</time>
      </trkpt>
      <trkpt lat="45.23424" lon="5.75705">
        <ele>1061.1999511719</ele>
        <time>2021-11-06T08:29:33.000Z</time>
      </trkpt>
      <trkpt lat="45.23425" lon="5.75701">
        <ele>1060.4000244141</ele>
        <time>2021-11-06T08:29:35.000Z</time>
      </trkpt>
      <trkpt lat="45.23426" lon="5.75699">
        <ele>1060</ele>
        <time>2021-11-06T08:29:36.000Z</time>
      </trkpt>
      <trkpt lat="45.23426" lon="5.75699">
        <ele>1059.8000488281</ele>
        <time>2021-11-06T08:29:37.000Z</time>
      </trkpt>
      <trkpt lat="45.23426" lon="5.75699">
        <ele>1059.1999511719</ele>
        <time>2021-11-06T08:29:39.000Z</time>
      </trkpt>
      <trkpt lat="45.23425" lon="5.75701">
        <ele>1058.4000244141</ele>
        <time>2021-11-06T08:29:41.000Z</time>
      </trkpt>
      <trkpt lat="45.23424" lon="5.75703">
        <ele>1058</ele>
        <time>2021-11-06T08:29:42.000Z</time>
      </trkpt>
      <trkpt lat="45.2342" lon="5.75707">
        <ele>1057.4000244141</ele>
        <time>2021-11-06T08:29:46.000Z</time>
      </trkpt>
      <trkpt lat="45.23419" lon="5.75708">
        <ele>1056.5999755859</ele>
        <time>2021-11-06T08:29:47.000Z</time>
      </trkpt>
      <trkpt lat="45.23417" lon="5.75714">
        <ele>1055.4000244141</ele>
        <time>2021-11-06T08:29:50.000Z</time>
      </trkpt>
      <trkpt lat="45.23413" lon="5.75717">
        <ele>1054.1999511719</ele>
        <time>2021-11-06T08:29:53.000Z</time>
      </trkpt>
      <trkpt lat="45.2341" lon="5.75721">
        <ele>1053</ele>
        <time>2021-11-06T08:29:56.000Z</time>
      </trkpt>
      <trkpt lat="45.23407" lon="5.75723">
        <ele>1051.8000488281</ele>
        <time>2021-11-06T08:29:59.000Z</time>
      </trkpt>
      <trkpt lat="45.23404" lon="5.75725">
        <ele>1050.5999755859</ele>
        <time>2021-11-06T08:30:01.000Z</time>
      </trkpt>
      <trkpt lat="45.23402" lon="5.75726">
        <ele>1050</ele>
        <time>2021-11-06T08:30:02.000Z</time>
      </trkpt>
      <trkpt lat="45.23402" lon="5.75726">
        <ele>1049.5999755859</ele>
        <time>2021-11-06T08:30:03.000Z</time>
      </trkpt>
      <trkpt lat="45.23397" lon="5.75724">
        <ele>1048.5999755859</ele>
        <time>2021-11-06T08:30:06.000Z</time>
      </trkpt>
      <trkpt lat="45.23396" lon="5.75722">
        <ele>1048.1999511719</ele>
        <time>2021-11-06T08:30:07.000Z</time>
      </trkpt>
      <trkpt lat="45.23396" lon="5.75719">
        <ele>1048</ele>
        <time>2021-11-06T08:30:08.000Z</time>
      </trkpt>
      <trkpt lat="45.23398" lon="5.75715">
        <ele>1047.4000244141</ele>
        <time>2021-11-06T08:30:10.000Z</time>
      </trkpt>
      <trkpt lat="45.23398" lon="5.75713">
        <ele>1046.8000488281</ele>
        <time>2021-11-06T08:30:11.000Z</time>
      </trkpt>
      <trkpt lat="45.23399" lon="5.75711">
        <ele>1046.4000244141</ele>
        <time>2021-11-06T08:30:12.000Z</time>
      </trkpt>
      <trkpt lat="45.234" lon="5.75709">
        <ele>1046.1999511719</ele>
        <time>2021-11-06T08:30:13.000Z</time>
      </trkpt>
      <trkpt lat="45.234" lon="5.75706">
        <ele>1045.8000488281</ele>
        <time>2021-11-06T08:30:14.000Z</time>
      </trkpt>
      <trkpt lat="45.234" lon="5.75705">
        <ele>1045.5999755859</ele>
        <time>2021-11-06T08:30:15.000Z</time>
      </trkpt>
      <trkpt lat="45.234" lon="5.75703">
        <ele>1045.1999511719</ele>
        <time>2021-11-06T08:30:16.000Z</time>
      </trkpt>
      <trkpt lat="45.234" lon="5.75696">
        <ele>1043.8000488281</ele>
        <time>2021-11-06T08:30:19.000Z</time>
      </trkpt>
      <trkpt lat="45.23401" lon="5.75694">
        <ele>1043.4000244141</ele>
        <time>2021-11-06T08:30:20.000Z</time>
      </trkpt>
      <trkpt lat="45.23402" lon="5.75689">
        <ele>1042.5999755859</ele>
        <time>2021-11-06T08:30:22.000Z</time>
      </trkpt>
      <trkpt lat="45.23405" lon="5.75685">
        <ele>1041.4000244141</ele>
        <time>2021-11-06T08:30:25.000Z</time>
      </trkpt>
      <trkpt lat="45.23406" lon="5.75682">
        <ele>1041</ele>
        <time>2021-11-06T08:30:26.000Z</time>
      </trkpt>
      <trkpt lat="45.23408" lon="5.75677">
        <ele>1040.4000244141</ele>
        <time>2021-11-06T08:30:28.000Z</time>
      </trkpt>
      <trkpt lat="45.2341" lon="5.75673">
        <ele>1039.8000488281</ele>
        <time>2021-11-06T08:30:30.000Z</time>
      </trkpt>
      <trkpt lat="45.2341" lon="5.75671">
        <ele>1039.1999511719</ele>
        <time>2021-11-06T08:30:31.000Z</time>
      </trkpt>
      <trkpt lat="45.2341" lon="5.75667">
        <ele>1038.5999755859</ele>
        <time>2021-11-06T08:30:33.000Z</time>
      </trkpt>
      <trkpt lat="45.23411" lon="5.75665">
        <ele>1038.4000244141</ele>
        <time>2021-11-06T08:30:34.000Z</time>
      </trkpt>
      <trkpt lat="45.23412" lon="5.75664">
        <ele>1038</ele>
        <time>2021-11-06T08:30:35.000Z</time>
      </trkpt>
      <trkpt lat="45.23413" lon="5.75662">
        <ele>1037.4000244141</ele>
        <time>2021-11-06T08:30:36.000Z</time>
      </trkpt>
      <trkpt lat="45.23414" lon="5.7566">
        <ele>1036.8000488281</ele>
        <time>2021-11-06T08:30:37.000Z</time>
      </trkpt>
      <trkpt lat="45.23415" lon="5.75657">
        <ele>1036</ele>
        <time>2021-11-06T08:30:39.000Z</time>
      </trkpt>
      <trkpt lat="45.23416" lon="5.75655">
        <ele>1035.5999755859</ele>
        <time>2021-11-06T08:30:40.000Z</time>
      </trkpt>
      <trkpt lat="45.23422" lon="5.75651">
        <ele>1034</ele>
        <time>2021-11-06T08:30:44.000Z</time>
      </trkpt>
      <trkpt lat="45.23429" lon="5.75647">
        <ele>1032.8000488281</ele>
        <time>2021-11-06T08:30:48.000Z</time>
      </trkpt>
      <trkpt lat="45.23434" lon="5.75644">
        <ele>1031.8000488281</ele>
        <time>2021-11-06T08:30:51.000Z</time>
      </trkpt>
      <trkpt lat="45.23435" lon="5.75643">
        <ele>1031.1999511719</ele>
        <time>2021-11-06T08:30:52.000Z</time>
      </trkpt>
      <trkpt lat="45.23437" lon="5.75642">
        <ele>1031</ele>
        <time>2021-11-06T08:30:53.000Z</time>
      </trkpt>
      <trkpt lat="45.23438" lon="5.75641">
        <ele>1030.8000488281</ele>
        <time>2021-11-06T08:30:54.000Z</time>
      </trkpt>
      <trkpt lat="45.23442" lon="5.75638">
        <ele>1030</ele>
        <time>2021-11-06T08:30:56.000Z</time>
      </trkpt>
      <trkpt lat="45.23444" lon="5.75637">
        <ele>1029.4000244141</ele>
        <time>2021-11-06T08:30:57.000Z</time>
      </trkpt>
      <trkpt lat="45.23445" lon="5.75636">
        <ele>1028.8000488281</ele>
        <time>2021-11-06T08:30:58.000Z</time>
      </trkpt>
      <trkpt lat="45.23447" lon="5.75635">
        <ele>1028.4000244141</ele>
        <time>2021-11-06T08:30:59.000Z</time>
      </trkpt>
      <trkpt lat="45.2345" lon="5.75634">
        <ele>1027.8000488281</ele>
        <time>2021-11-06T08:31:00.000Z</time>
      </trkpt>
      <trkpt lat="45.23451" lon="5.75632">
        <ele>1027.1999511719</ele>
        <time>2021-11-06T08:31:01.000Z</time>
      </trkpt>
      <trkpt lat="45.23453" lon="5.75631">
        <ele>1026.8000488281</ele>
        <time>2021-11-06T08:31:02.000Z</time>
      </trkpt>
      <trkpt lat="45.23461" lon="5.75626">
        <ele>1025.4000244141</ele>
        <time>2021-11-06T08:31:06.000Z</time>
      </trkpt>
      <trkpt lat="45.23463" lon="5.75625">
        <ele>1024.8000488281</ele>
        <time>2021-11-06T08:31:07.000Z</time>
      </trkpt>
      <trkpt lat="45.23465" lon="5.75625">
        <ele>1024.4000244141</ele>
        <time>2021-11-06T08:31:08.000Z</time>
      </trkpt>
      <trkpt lat="45.23471" lon="5.75627">
        <ele>1023.4000244141</ele>
        <time>2021-11-06T08:31:11.000Z</time>
      </trkpt>
      <trkpt lat="45.23473" lon="5.75626">
        <ele>1023.200012207</ele>
        <time>2021-11-06T08:31:12.000Z</time>
      </trkpt>
      <trkpt lat="45.23477" lon="5.75624">
        <ele>1022.4000244141</ele>
        <time>2021-11-06T08:31:14.000Z</time>
      </trkpt>
      <trkpt lat="45.23479" lon="5.75623">
        <ele>1022</ele>
        <time>2021-11-06T08:31:15.000Z</time>
      </trkpt>
      <trkpt lat="45.23482" lon="5.7562">
        <ele>1021.4000244141</ele>
        <time>2021-11-06T08:31:17.000Z</time>
      </trkpt>
      <trkpt lat="45.23485" lon="5.7562">
        <ele>1020.799987793</ele>
        <time>2021-11-06T08:31:18.000Z</time>
      </trkpt>
      <trkpt lat="45.23487" lon="5.75619">
        <ele>1020.4000244141</ele>
        <time>2021-11-06T08:31:19.000Z</time>
      </trkpt>
      <trkpt lat="45.23491" lon="5.75617">
        <ele>1019.200012207</ele>
        <time>2021-11-06T08:31:21.000Z</time>
      </trkpt>
      <trkpt lat="45.23492" lon="5.75616">
        <ele>1018.4000244141</ele>
        <time>2021-11-06T08:31:22.000Z</time>
      </trkpt>
      <trkpt lat="45.23494" lon="5.75615">
        <ele>1018</ele>
        <time>2021-11-06T08:31:23.000Z</time>
      </trkpt>
      <trkpt lat="45.23498" lon="5.75615">
        <ele>1017.200012207</ele>
        <time>2021-11-06T08:31:25.000Z</time>
      </trkpt>
      <trkpt lat="45.23501" lon="5.75615">
        <ele>1017</ele>
        <time>2021-11-06T08:31:26.000Z</time>
      </trkpt>
      <trkpt lat="45.23503" lon="5.75615">
        <ele>1016.5999755859</ele>
        <time>2021-11-06T08:31:27.000Z</time>
      </trkpt>
      <trkpt lat="45.23507" lon="5.75615">
        <ele>1015.5999755859</ele>
        <time>2021-11-06T08:31:29.000Z</time>
      </trkpt>
      <trkpt lat="45.23511" lon="5.75614">
        <ele>1014.799987793</ele>
        <time>2021-11-06T08:31:32.000Z</time>
      </trkpt>
      <trkpt lat="45.23512" lon="5.75612">
        <ele>1014.4000244141</ele>
        <time>2021-11-06T08:31:33.000Z</time>
      </trkpt>
      <trkpt lat="45.23514" lon="5.75612">
        <ele>1014.200012207</ele>
        <time>2021-11-06T08:31:34.000Z</time>
      </trkpt>
      <trkpt lat="45.23517" lon="5.75611">
        <ele>1013.200012207</ele>
        <time>2021-11-06T08:31:36.000Z</time>
      </trkpt>
      <trkpt lat="45.23518" lon="5.7561">
        <ele>1012.799987793</ele>
        <time>2021-11-06T08:31:37.000Z</time>
      </trkpt>
      <trkpt lat="45.23519" lon="5.75608">
        <ele>1012</ele>
        <time>2021-11-06T08:31:38.000Z</time>
      </trkpt>
      <trkpt lat="45.2352" lon="5.75605">
        <ele>1011.5999755859</ele>
        <time>2021-11-06T08:31:39.000Z</time>
      </trkpt>
      <trkpt lat="45.23521" lon="5.75604">
        <ele>1011</ele>
        <time>2021-11-06T08:31:40.000Z</time>
      </trkpt>
      <trkpt lat="45.23523" lon="5.75604">
        <ele>1010.5999755859</ele>
        <time>2021-11-06T08:31:41.000Z</time>
      </trkpt>
      <trkpt lat="45.23526" lon="5.75604">
        <ele>1009.799987793</ele>
        <time>2021-11-06T08:31:43.000Z</time>
      </trkpt>
      <trkpt lat="45.23528" lon="5.75604">
        <ele>1009.200012207</ele>
        <time>2021-11-06T08:31:44.000Z</time>
      </trkpt>
      <trkpt lat="45.23528" lon="5.75604">
        <ele>1008.799987793</ele>
        <time>2021-11-06T08:31:45.000Z</time>
      </trkpt>
      <trkpt lat="45.23526" lon="5.75604">
        <ele>1008</ele>
        <time>2021-11-06T08:31:47.000Z</time>
      </trkpt>
      <trkpt lat="45.23524" lon="5.75604">
        <ele>1007.4000244141</ele>
        <time>2021-11-06T08:31:49.000Z</time>
      </trkpt>
      <trkpt lat="45.23524" lon="5.75604">
        <ele>1007</ele>
        <time>2021-11-06T08:31:50.000Z</time>
      </trkpt>
      <trkpt lat="45.23522" lon="5.75604">
        <ele>1006</ele>
        <time>2021-11-06T08:31:52.000Z</time>
      </trkpt>
      <trkpt lat="45.2352" lon="5.75604">
        <ele>1005.799987793</ele>
        <time>2021-11-06T08:31:53.000Z</time>
      </trkpt>
      <trkpt lat="45.23517" lon="5.75604">
        <ele>1005.200012207</ele>
        <time>2021-11-06T08:31:55.000Z</time>
      </trkpt>
      <trkpt lat="45.23514" lon="5.75604">
        <ele>1004.5999755859</ele>
        <time>2021-11-06T08:31:57.000Z</time>
      </trkpt>
      <trkpt lat="45.2351" lon="5.756">
        <ele>1003.200012207</ele>
        <time>2021-11-06T08:32:01.000Z</time>
      </trkpt>
      <trkpt lat="45.23507" lon="5.75596">
        <ele>1002</ele>
        <time>2021-11-06T08:32:04.000Z</time>
      </trkpt>
      <trkpt lat="45.23504" lon="5.75593">
        <ele>1000.799987793</ele>
        <time>2021-11-06T08:32:06.000Z</time>
      </trkpt>
      <trkpt lat="45.235" lon="5.75591">
        <ele>999.40002441406</ele>
        <time>2021-11-06T08:32:09.000Z</time>
      </trkpt>
      <trkpt lat="45.23499" lon="5.75591">
        <ele>998.59997558594</ele>
        <time>2021-11-06T08:32:11.000Z</time>
      </trkpt>
      <trkpt lat="45.23497" lon="5.75591">
        <ele>998</ele>
        <time>2021-11-06T08:32:12.000Z</time>
      </trkpt>
      <trkpt lat="45.23487" lon="5.7559">
        <ele>997</ele>
        <time>2021-11-06T08:32:16.000Z</time>
      </trkpt>
      <trkpt lat="45.23485" lon="5.7559">
        <ele>996.59997558594</ele>
        <time>2021-11-06T08:32:17.000Z</time>
      </trkpt>
      <trkpt lat="45.23483" lon="5.75589">
        <ele>996.20001220703</ele>
        <time>2021-11-06T08:32:18.000Z</time>
      </trkpt>
      <trkpt lat="45.2348" lon="5.75588">
        <ele>995.59997558594</ele>
        <time>2021-11-06T08:32:19.000Z</time>
      </trkpt>
      <trkpt lat="45.23475" lon="5.75588">
        <ele>994.20001220703</ele>
        <time>2021-11-06T08:32:22.000Z</time>
      </trkpt>
      <trkpt lat="45.23474" lon="5.75587">
        <ele>994</ele>
        <time>2021-11-06T08:32:23.000Z</time>
      </trkpt>
      <trkpt lat="45.23472" lon="5.75586">
        <ele>993.20001220703</ele>
        <time>2021-11-06T08:32:25.000Z</time>
      </trkpt>
      <trkpt lat="45.23469" lon="5.75584">
        <ele>992.20001220703</ele>
        <time>2021-11-06T08:32:27.000Z</time>
      </trkpt>
      <trkpt lat="45.23467" lon="5.75584">
        <ele>991.79998779297</ele>
        <time>2021-11-06T08:32:28.000Z</time>
      </trkpt>
      <trkpt lat="45.23466" lon="5.75585">
        <ele>991.59997558594</ele>
        <time>2021-11-06T08:32:29.000Z</time>
      </trkpt>
      <trkpt lat="45.23462" lon="5.75585">
        <ele>990.20001220703</ele>
        <time>2021-11-06T08:32:31.000Z</time>
      </trkpt>
      <trkpt lat="45.23456" lon="5.75583">
        <ele>988.79998779297</ele>
        <time>2021-11-06T08:32:34.000Z</time>
      </trkpt>
      <trkpt lat="45.23452" lon="5.75581">
        <ele>988</ele>
        <time>2021-11-06T08:32:36.000Z</time>
      </trkpt>
      <trkpt lat="45.2345" lon="5.75581">
        <ele>987.59997558594</ele>
        <time>2021-11-06T08:32:37.000Z</time>
      </trkpt>
      <trkpt lat="45.23447" lon="5.75582">
        <ele>986.59997558594</ele>
        <time>2021-11-06T08:32:39.000Z</time>
      </trkpt>
      <trkpt lat="45.23442" lon="5.7558">
        <ele>985.59997558594</ele>
        <time>2021-11-06T08:32:42.000Z</time>
      </trkpt>
      <trkpt lat="45.2344" lon="5.7558">
        <ele>985.20001220703</ele>
        <time>2021-11-06T08:32:43.000Z</time>
      </trkpt>
      <trkpt lat="45.23431" lon="5.75577">
        <ele>984.40002441406</ele>
        <time>2021-11-06T08:32:46.000Z</time>
      </trkpt>
      <trkpt lat="45.2343" lon="5.75576">
        <ele>984</ele>
        <time>2021-11-06T08:32:47.000Z</time>
      </trkpt>
      <trkpt lat="45.23428" lon="5.75575">
        <ele>983.20001220703</ele>
        <time>2021-11-06T08:32:48.000Z</time>
      </trkpt>
      <trkpt lat="45.23426" lon="5.75576">
        <ele>982.79998779297</ele>
        <time>2021-11-06T08:32:49.000Z</time>
      </trkpt>
      <trkpt lat="45.23424" lon="5.75576">
        <ele>982.40002441406</ele>
        <time>2021-11-06T08:32:50.000Z</time>
      </trkpt>
      <trkpt lat="45.23421" lon="5.75576">
        <ele>982</ele>
        <time>2021-11-06T08:32:51.000Z</time>
      </trkpt>
      <trkpt lat="45.23419" lon="5.75576">
        <ele>981.59997558594</ele>
        <time>2021-11-06T08:32:52.000Z</time>
      </trkpt>
      <trkpt lat="45.23414" lon="5.75575">
        <ele>980.79998779297</ele>
        <time>2021-11-06T08:32:54.000Z</time>
      </trkpt>
      <trkpt lat="45.23411" lon="5.75576">
        <ele>979.40002441406</ele>
        <time>2021-11-06T08:32:56.000Z</time>
      </trkpt>
      <trkpt lat="45.23408" lon="5.75578">
        <ele>978.40002441406</ele>
        <time>2021-11-06T08:32:58.000Z</time>
      </trkpt>
      <trkpt lat="45.23406" lon="5.75578">
        <ele>977.79998779297</ele>
        <time>2021-11-06T08:32:59.000Z</time>
      </trkpt>
      <trkpt lat="45.23402" lon="5.75578">
        <ele>977</ele>
        <time>2021-11-06T08:33:01.000Z</time>
      </trkpt>
      <trkpt lat="45.23399" lon="5.75578">
        <ele>976.20001220703</ele>
        <time>2021-11-06T08:33:03.000Z</time>
      </trkpt>
      <trkpt lat="45.23398" lon="5.75579">
        <ele>975.59997558594</ele>
        <time>2021-11-06T08:33:04.000Z</time>
      </trkpt>
      <trkpt lat="45.23397" lon="5.75579">
        <ele>975.40002441406</ele>
        <time>2021-11-06T08:33:05.000Z</time>
      </trkpt>
      <trkpt lat="45.23396" lon="5.7558">
        <ele>975</ele>
        <time>2021-11-06T08:33:06.000Z</time>
      </trkpt>
      <trkpt lat="45.23394" lon="5.75581">
        <ele>974.40002441406</ele>
        <time>2021-11-06T08:33:07.000Z</time>
      </trkpt>
      <trkpt lat="45.23392" lon="5.75582">
        <ele>974</ele>
        <time>2021-11-06T08:33:08.000Z</time>
      </trkpt>
      <trkpt lat="45.23388" lon="5.75583">
        <ele>973.20001220703</ele>
        <time>2021-11-06T08:33:10.000Z</time>
      </trkpt>
      <trkpt lat="45.23386" lon="5.75584">
        <ele>973</ele>
        <time>2021-11-06T08:33:11.000Z</time>
      </trkpt>
      <trkpt lat="45.23384" lon="5.75585">
        <ele>972.59997558594</ele>
        <time>2021-11-06T08:33:12.000Z</time>
      </trkpt>
      <trkpt lat="45.23382" lon="5.75585">
        <ele>972</ele>
        <time>2021-11-06T08:33:13.000Z</time>
      </trkpt>
      <trkpt lat="45.23377" lon="5.75585">
        <ele>971</ele>
        <time>2021-11-06T08:33:16.000Z</time>
      </trkpt>
      <trkpt lat="45.23374" lon="5.75585">
        <ele>970</ele>
        <time>2021-11-06T08:33:18.000Z</time>
      </trkpt>
      <trkpt lat="45.23372" lon="5.75586">
        <ele>969.40002441406</ele>
        <time>2021-11-06T08:33:19.000Z</time>
      </trkpt>
      <trkpt lat="45.23371" lon="5.75588">
        <ele>968.59997558594</ele>
        <time>2021-11-06T08:33:20.000Z</time>
      </trkpt>
      <trkpt lat="45.23369" lon="5.75589">
        <ele>968.20001220703</ele>
        <time>2021-11-06T08:33:21.000Z</time>
      </trkpt>
      <trkpt lat="45.23364" lon="5.75592">
        <ele>967.59997558594</ele>
        <time>2021-11-06T08:33:23.000Z</time>
      </trkpt>
      <trkpt lat="45.23362" lon="5.75592">
        <ele>967.20001220703</ele>
        <time>2021-11-06T08:33:24.000Z</time>
      </trkpt>
      <trkpt lat="45.2336" lon="5.75594">
        <ele>967</ele>
        <time>2021-11-06T08:33:25.000Z</time>
      </trkpt>
      <trkpt lat="45.23355" lon="5.75596">
        <ele>965.79998779297</ele>
        <time>2021-11-06T08:33:28.000Z</time>
      </trkpt>
      <trkpt lat="45.23354" lon="5.75596">
        <ele>965.20001220703</ele>
        <time>2021-11-06T08:33:29.000Z</time>
      </trkpt>
      <trkpt lat="45.23352" lon="5.75597">
        <ele>964.79998779297</ele>
        <time>2021-11-06T08:33:30.000Z</time>
      </trkpt>
      <trkpt lat="45.23347" lon="5.756">
        <ele>963.40002441406</ele>
        <time>2021-11-06T08:33:33.000Z</time>
      </trkpt>
      <trkpt lat="45.2334" lon="5.756">
        <ele>962</ele>
        <time>2021-11-06T08:33:36.000Z</time>
      </trkpt>
      <trkpt lat="45.23342" lon="5.75594">
        <ele>961</ele>
        <time>2021-11-06T08:33:39.000Z</time>
      </trkpt>
      <trkpt lat="45.23343" lon="5.75592">
        <ele>960.79998779297</ele>
        <time>2021-11-06T08:33:40.000Z</time>
      </trkpt>
      <trkpt lat="45.23346" lon="5.75586">
        <ele>959.79998779297</ele>
        <time>2021-11-06T08:33:43.000Z</time>
      </trkpt>
      <trkpt lat="45.23348" lon="5.75583">
        <ele>958.59997558594</ele>
        <time>2021-11-06T08:33:45.000Z</time>
      </trkpt>
      <trkpt lat="45.2335" lon="5.75581">
        <ele>958.20001220703</ele>
        <time>2021-11-06T08:33:46.000Z</time>
      </trkpt>
      <trkpt lat="45.23353" lon="5.75579">
        <ele>957.40002441406</ele>
        <time>2021-11-06T08:33:48.000Z</time>
      </trkpt>
      <trkpt lat="45.23355" lon="5.75574">
        <ele>956.20001220703</ele>
        <time>2021-11-06T08:33:51.000Z</time>
      </trkpt>
      <trkpt lat="45.23358" lon="5.75569">
        <ele>955</ele>
        <time>2021-11-06T08:33:54.000Z</time>
      </trkpt>
      <trkpt lat="45.23361" lon="5.75565">
        <ele>953.59997558594</ele>
        <time>2021-11-06T08:33:57.000Z</time>
      </trkpt>
      <trkpt lat="45.23364" lon="5.75563">
        <ele>952.79998779297</ele>
        <time>2021-11-06T08:33:59.000Z</time>
      </trkpt>
      <trkpt lat="45.23365" lon="5.75561">
        <ele>952.40002441406</ele>
        <time>2021-11-06T08:34:00.000Z</time>
      </trkpt>
      <trkpt lat="45.23368" lon="5.75555">
        <ele>951.40002441406</ele>
        <time>2021-11-06T08:34:03.000Z</time>
      </trkpt>
      <trkpt lat="45.23371" lon="5.75552">
        <ele>950.59997558594</ele>
        <time>2021-11-06T08:34:05.000Z</time>
      </trkpt>
      <trkpt lat="45.23373" lon="5.7555">
        <ele>950.20001220703</ele>
        <time>2021-11-06T08:34:06.000Z</time>
      </trkpt>
      <trkpt lat="45.23376" lon="5.75546">
        <ele>948.79998779297</ele>
        <time>2021-11-06T08:34:09.000Z</time>
      </trkpt>
      <trkpt lat="45.23377" lon="5.75544">
        <ele>948.40002441406</ele>
        <time>2021-11-06T08:34:10.000Z</time>
      </trkpt>
      <trkpt lat="45.2338" lon="5.7554">
        <ele>947.40002441406</ele>
        <time>2021-11-06T08:34:12.000Z</time>
      </trkpt>
      <trkpt lat="45.23382" lon="5.75536">
        <ele>946.40002441406</ele>
        <time>2021-11-06T08:34:14.000Z</time>
      </trkpt>
      <trkpt lat="45.23384" lon="5.75534">
        <ele>946</ele>
        <time>2021-11-06T08:34:15.000Z</time>
      </trkpt>
      <trkpt lat="45.23385" lon="5.75533">
        <ele>945.79998779297</ele>
        <time>2021-11-06T08:34:16.000Z</time>
      </trkpt>
      <trkpt lat="45.23391" lon="5.75527">
        <ele>944.79998779297</ele>
        <time>2021-11-06T08:34:19.000Z</time>
      </trkpt>
      <trkpt lat="45.23397" lon="5.75522">
        <ele>943.59997558594</ele>
        <time>2021-11-06T08:34:22.000Z</time>
      </trkpt>
      <trkpt lat="45.23398" lon="5.7552">
        <ele>943</ele>
        <time>2021-11-06T08:34:23.000Z</time>
      </trkpt>
      <trkpt lat="45.23399" lon="5.75518">
        <ele>942.20001220703</ele>
        <time>2021-11-06T08:34:24.000Z</time>
      </trkpt>
      <trkpt lat="45.234" lon="5.75516">
        <ele>942</ele>
        <time>2021-11-06T08:34:25.000Z</time>
      </trkpt>
      <trkpt lat="45.23404" lon="5.75512">
        <ele>941.20001220703</ele>
        <time>2021-11-06T08:34:27.000Z</time>
      </trkpt>
      <trkpt lat="45.23408" lon="5.75508">
        <ele>940.40002441406</ele>
        <time>2021-11-06T08:34:29.000Z</time>
      </trkpt>
      <trkpt lat="45.2341" lon="5.75507">
        <ele>940.20001220703</ele>
        <time>2021-11-06T08:34:30.000Z</time>
      </trkpt>
      <trkpt lat="45.23412" lon="5.75506">
        <ele>939.59997558594</ele>
        <time>2021-11-06T08:34:31.000Z</time>
      </trkpt>
      <trkpt lat="45.23419" lon="5.75503">
        <ele>938</ele>
        <time>2021-11-06T08:34:34.000Z</time>
      </trkpt>
      <trkpt lat="45.23425" lon="5.75501">
        <ele>937</ele>
        <time>2021-11-06T08:34:37.000Z</time>
      </trkpt>
      <trkpt lat="45.23427" lon="5.755">
        <ele>936.79998779297</ele>
        <time>2021-11-06T08:34:38.000Z</time>
      </trkpt>
      <trkpt lat="45.2343" lon="5.75497">
        <ele>935.59997558594</ele>
        <time>2021-11-06T08:34:40.000Z</time>
      </trkpt>
      <trkpt lat="45.23433" lon="5.75494">
        <ele>934.59997558594</ele>
        <time>2021-11-06T08:34:42.000Z</time>
      </trkpt>
      <trkpt lat="45.23435" lon="5.75493">
        <ele>934.40002441406</ele>
        <time>2021-11-06T08:34:43.000Z</time>
      </trkpt>
      <trkpt lat="45.2344" lon="5.75492">
        <ele>933.20001220703</ele>
        <time>2021-11-06T08:34:45.000Z</time>
      </trkpt>
      <trkpt lat="45.23447" lon="5.7549">
        <ele>931.79998779297</ele>
        <time>2021-11-06T08:34:48.000Z</time>
      </trkpt>
      <trkpt lat="45.23454" lon="5.75489">
        <ele>931</ele>
        <time>2021-11-06T08:34:51.000Z</time>
      </trkpt>
      <trkpt lat="45.23455" lon="5.75487">
        <ele>930.79998779297</ele>
        <time>2021-11-06T08:34:52.000Z</time>
      </trkpt>
      <trkpt lat="45.23455" lon="5.75485">
        <ele>930.40002441406</ele>
        <time>2021-11-06T08:34:53.000Z</time>
      </trkpt>
      <trkpt lat="45.23457" lon="5.75482">
        <ele>929.59997558594</ele>
        <time>2021-11-06T08:34:55.000Z</time>
      </trkpt>
      <trkpt lat="45.23459" lon="5.75482">
        <ele>929.20001220703</ele>
        <time>2021-11-06T08:34:56.000Z</time>
      </trkpt>
      <trkpt lat="45.23462" lon="5.7548">
        <ele>928.20001220703</ele>
        <time>2021-11-06T08:34:58.000Z</time>
      </trkpt>
      <trkpt lat="45.23465" lon="5.75478">
        <ele>927.40002441406</ele>
        <time>2021-11-06T08:35:00.000Z</time>
      </trkpt>
      <trkpt lat="45.23467" lon="5.75477">
        <ele>926.79998779297</ele>
        <time>2021-11-06T08:35:01.000Z</time>
      </trkpt>
      <trkpt lat="45.23473" lon="5.75474">
        <ele>925.40002441406</ele>
        <time>2021-11-06T08:35:04.000Z</time>
      </trkpt>
      <trkpt lat="45.23477" lon="5.75473">
        <ele>924.40002441406</ele>
        <time>2021-11-06T08:35:07.000Z</time>
      </trkpt>
      <trkpt lat="45.23479" lon="5.75472">
        <ele>923.79998779297</ele>
        <time>2021-11-06T08:35:08.000Z</time>
      </trkpt>
      <trkpt lat="45.23479" lon="5.75471">
        <ele>923.20001220703</ele>
        <time>2021-11-06T08:35:09.000Z</time>
      </trkpt>
      <trkpt lat="45.23479" lon="5.75471">
        <ele>922.40002441406</ele>
        <time>2021-11-06T08:35:11.000Z</time>
      </trkpt>
      <trkpt lat="45.23478" lon="5.75471">
        <ele>922.20001220703</ele>
        <time>2021-11-06T08:35:12.000Z</time>
      </trkpt>
      <trkpt lat="45.23477" lon="5.75473">
        <ele>921.20001220703</ele>
        <time>2021-11-06T08:35:14.000Z</time>
      </trkpt>
      <trkpt lat="45.23476" lon="5.75474">
        <ele>920.79998779297</ele>
        <time>2021-11-06T08:35:15.000Z</time>
      </trkpt>
      <trkpt lat="45.23472" lon="5.75474">
        <ele>920.20001220703</ele>
        <time>2021-11-06T08:35:17.000Z</time>
      </trkpt>
      <trkpt lat="45.23471" lon="5.75473">
        <ele>919.59997558594</ele>
        <time>2021-11-06T08:35:18.000Z</time>
      </trkpt>
      <trkpt lat="45.23466" lon="5.75473">
        <ele>918.40002441406</ele>
        <time>2021-11-06T08:35:21.000Z</time>
      </trkpt>
      <trkpt lat="45.23464" lon="5.75473">
        <ele>917.59997558594</ele>
        <time>2021-11-06T08:35:23.000Z</time>
      </trkpt>
      <trkpt lat="45.23463" lon="5.75473">
        <ele>917</ele>
        <time>2021-11-06T08:35:25.000Z</time>
      </trkpt>
      <trkpt lat="45.23463" lon="5.75473">
        <ele>916.79998779297</ele>
        <time>2021-11-06T08:35:26.000Z</time>
      </trkpt>
      <trkpt lat="45.23462" lon="5.75475">
        <ele>916</ele>
        <time>2021-11-06T08:35:28.000Z</time>
      </trkpt>
      <trkpt lat="45.23461" lon="5.75476">
        <ele>915.59997558594</ele>
        <time>2021-11-06T08:35:29.000Z</time>
      </trkpt>
      <trkpt lat="45.23456" lon="5.75476">
        <ele>914.79998779297</ele>
        <time>2021-11-06T08:35:32.000Z</time>
      </trkpt>
      <trkpt lat="45.23454" lon="5.75476">
        <ele>914.40002441406</ele>
        <time>2021-11-06T08:35:33.000Z</time>
      </trkpt>
      <trkpt lat="45.23451" lon="5.75475">
        <ele>913.79998779297</ele>
        <time>2021-11-06T08:35:35.000Z</time>
      </trkpt>
      <trkpt lat="45.23447" lon="5.75473">
        <ele>912.59997558594</ele>
        <time>2021-11-06T08:35:38.000Z</time>
      </trkpt>
      <trkpt lat="45.23444" lon="5.75474">
        <ele>911.59997558594</ele>
        <time>2021-11-06T08:35:40.000Z</time>
      </trkpt>
      <trkpt lat="45.23442" lon="5.75473">
        <ele>911.40002441406</ele>
        <time>2021-11-06T08:35:41.000Z</time>
      </trkpt>
      <trkpt lat="45.23435" lon="5.75471">
        <ele>910.20001220703</ele>
        <time>2021-11-06T08:35:44.000Z</time>
      </trkpt>
      <trkpt lat="45.23432" lon="5.75471">
        <ele>910</ele>
        <time>2021-11-06T08:35:45.000Z</time>
      </trkpt>
      <trkpt lat="45.2343" lon="5.75471">
        <ele>909.20001220703</ele>
        <time>2021-11-06T08:35:46.000Z</time>
      </trkpt>
      <trkpt lat="45.23428" lon="5.75471">
        <ele>908.79998779297</ele>
        <time>2021-11-06T08:35:47.000Z</time>
      </trkpt>
      <trkpt lat="45.23425" lon="5.75472">
        <ele>908.20001220703</ele>
        <time>2021-11-06T08:35:49.000Z</time>
      </trkpt>
      <trkpt lat="45.23419" lon="5.7547">
        <ele>906.79998779297</ele>
        <time>2021-11-06T08:35:52.000Z</time>
      </trkpt>
      <trkpt lat="45.23415" lon="5.75469">
        <ele>906.20001220703</ele>
        <time>2021-11-06T08:35:53.000Z</time>
      </trkpt>
      <trkpt lat="45.23411" lon="5.75467">
        <ele>905.40002441406</ele>
        <time>2021-11-06T08:35:55.000Z</time>
      </trkpt>
      <trkpt lat="45.23405" lon="5.75466">
        <ele>904</ele>
        <time>2021-11-06T08:35:58.000Z</time>
      </trkpt>
      <trkpt lat="45.23401" lon="5.75466">
        <ele>903.20001220703</ele>
        <time>2021-11-06T08:36:00.000Z</time>
      </trkpt>
      <trkpt lat="45.234" lon="5.75467">
        <ele>902.59997558594</ele>
        <time>2021-11-06T08:36:01.000Z</time>
      </trkpt>
      <trkpt lat="45.23394" lon="5.75466">
        <ele>901.40002441406</ele>
        <time>2021-11-06T08:36:04.000Z</time>
      </trkpt>
      <trkpt lat="45.23391" lon="5.75466">
        <ele>900.79998779297</ele>
        <time>2021-11-06T08:36:06.000Z</time>
      </trkpt>
      <trkpt lat="45.2339" lon="5.75467">
        <ele>900.40002441406</ele>
        <time>2021-11-06T08:36:07.000Z</time>
      </trkpt>
      <trkpt lat="45.23388" lon="5.75468">
        <ele>899.20001220703</ele>
        <time>2021-11-06T08:36:09.000Z</time>
      </trkpt>
      <trkpt lat="45.23385" lon="5.75468">
        <ele>898.40002441406</ele>
        <time>2021-11-06T08:36:11.000Z</time>
      </trkpt>
      <trkpt lat="45.23382" lon="5.75467">
        <ele>898</ele>
        <time>2021-11-06T08:36:13.000Z</time>
      </trkpt>
      <trkpt lat="45.23379" lon="5.75468">
        <ele>896.79998779297</ele>
        <time>2021-11-06T08:36:16.000Z</time>
      </trkpt>
      <trkpt lat="45.23376" lon="5.75468">
        <ele>895.79998779297</ele>
        <time>2021-11-06T08:36:18.000Z</time>
      </trkpt>
      <trkpt lat="45.23375" lon="5.75468">
        <ele>895.20001220703</ele>
        <time>2021-11-06T08:36:19.000Z</time>
      </trkpt>
      <trkpt lat="45.23372" lon="5.75468">
        <ele>894.59997558594</ele>
        <time>2021-11-06T08:36:21.000Z</time>
      </trkpt>
      <trkpt lat="45.23369" lon="5.75469">
        <ele>893.40002441406</ele>
        <time>2021-11-06T08:36:23.000Z</time>
      </trkpt>
      <trkpt lat="45.23365" lon="5.75471">
        <ele>892</ele>
        <time>2021-11-06T08:36:26.000Z</time>
      </trkpt>
      <trkpt lat="45.23364" lon="5.75471">
        <ele>891.79998779297</ele>
        <time>2021-11-06T08:36:27.000Z</time>
      </trkpt>
      <trkpt lat="45.23362" lon="5.75471">
        <ele>891.40002441406</ele>
        <time>2021-11-06T08:36:28.000Z</time>
      </trkpt>
      <trkpt lat="45.23359" lon="5.75473">
        <ele>891.20001220703</ele>
        <time>2021-11-06T08:36:29.000Z</time>
      </trkpt>
      <trkpt lat="45.23357" lon="5.75473">
        <ele>890.59997558594</ele>
        <time>2021-11-06T08:36:30.000Z</time>
      </trkpt>
      <trkpt lat="45.23355" lon="5.75474">
        <ele>890.40002441406</ele>
        <time>2021-11-06T08:36:31.000Z</time>
      </trkpt>
      <trkpt lat="45.23351" lon="5.75476">
        <ele>889.59997558594</ele>
        <time>2021-11-06T08:36:33.000Z</time>
      </trkpt>
      <trkpt lat="45.23346" lon="5.75476">
        <ele>888.79998779297</ele>
        <time>2021-11-06T08:36:35.000Z</time>
      </trkpt>
      <trkpt lat="45.23344" lon="5.75477">
        <ele>888.20001220703</ele>
        <time>2021-11-06T08:36:36.000Z</time>
      </trkpt>
      <trkpt lat="45.23338" lon="5.75479">
        <ele>887.20001220703</ele>
        <time>2021-11-06T08:36:39.000Z</time>
      </trkpt>
      <trkpt lat="45.23336" lon="5.75479">
        <ele>886.40002441406</ele>
        <time>2021-11-06T08:36:40.000Z</time>
      </trkpt>
      <trkpt lat="45.23331" lon="5.75479">
        <ele>885.20001220703</ele>
        <time>2021-11-06T08:36:42.000Z</time>
      </trkpt>
      <trkpt lat="45.23326" lon="5.75479">
        <ele>884</ele>
        <time>2021-11-06T08:36:44.000Z</time>
      </trkpt>
      <trkpt lat="45.23325" lon="5.75479">
        <ele>883.79998779297</ele>
        <time>2021-11-06T08:36:45.000Z</time>
      </trkpt>
      <trkpt lat="45.23319" lon="5.75479">
        <ele>882.79998779297</ele>
        <time>2021-11-06T08:36:47.000Z</time>
      </trkpt>
      <trkpt lat="45.23311" lon="5.7548">
        <ele>882</ele>
        <time>2021-11-06T08:36:50.000Z</time>
      </trkpt>
      <trkpt lat="45.23309" lon="5.75481">
        <ele>881.59997558594</ele>
        <time>2021-11-06T08:36:51.000Z</time>
      </trkpt>
      <trkpt lat="45.23308" lon="5.75482">
        <ele>881.20001220703</ele>
        <time>2021-11-06T08:36:52.000Z</time>
      </trkpt>
      <trkpt lat="45.23304" lon="5.75484">
        <ele>880.40002441406</ele>
        <time>2021-11-06T08:36:54.000Z</time>
      </trkpt>
      <trkpt lat="45.23299" lon="5.75487">
        <ele>879.20001220703</ele>
        <time>2021-11-06T08:36:57.000Z</time>
      </trkpt>
      <trkpt lat="45.23298" lon="5.75488">
        <ele>879</ele>
        <time>2021-11-06T08:36:58.000Z</time>
      </trkpt>
      <trkpt lat="45.23296" lon="5.75491">
        <ele>878</ele>
        <time>2021-11-06T08:37:00.000Z</time>
      </trkpt>
      <trkpt lat="45.23294" lon="5.75491">
        <ele>877.59997558594</ele>
        <time>2021-11-06T08:37:01.000Z</time>
      </trkpt>
      <trkpt lat="45.23293" lon="5.75492">
        <ele>877.20001220703</ele>
        <time>2021-11-06T08:37:02.000Z</time>
      </trkpt>
      <trkpt lat="45.23292" lon="5.75492">
        <ele>876.79998779297</ele>
        <time>2021-11-06T08:37:03.000Z</time>
      </trkpt>
      <trkpt lat="45.23289" lon="5.75493">
        <ele>875.40002441406</ele>
        <time>2021-11-06T08:37:05.000Z</time>
      </trkpt>
      <trkpt lat="45.23285" lon="5.75494">
        <ele>874.20001220703</ele>
        <time>2021-11-06T08:37:08.000Z</time>
      </trkpt>
      <trkpt lat="45.23278" lon="5.75496">
        <ele>873</ele>
        <time>2021-11-06T08:37:12.000Z</time>
      </trkpt>
      <trkpt lat="45.23274" lon="5.75495">
        <ele>871.79998779297</ele>
        <time>2021-11-06T08:37:16.000Z</time>
      </trkpt>
      <trkpt lat="45.23273" lon="5.75495">
        <ele>871.59997558594</ele>
        <time>2021-11-06T08:37:17.000Z</time>
      </trkpt>
      <trkpt lat="45.23269" lon="5.75497">
        <ele>871.59997558594</ele>
        <time>2021-11-06T08:37:23.000Z</time>
      </trkpt>
      <trkpt lat="45.23268" lon="5.75496">
        <ele>871.59997558594</ele>
        <time>2021-11-06T08:37:25.000Z</time>
      </trkpt>
      <trkpt lat="45.23265" lon="5.75495">
        <ele>872</ele>
        <time>2021-11-06T08:37:36.000Z</time>
      </trkpt>
      <trkpt lat="45.23265" lon="5.75491">
        <ele>871.79998779297</ele>
        <time>2021-11-06T08:37:40.000Z</time>
      </trkpt>
      <trkpt lat="45.23267" lon="5.75488">
        <ele>871</ele>
        <time>2021-11-06T08:37:44.000Z</time>
      </trkpt>
      <trkpt lat="45.23268" lon="5.75487">
        <ele>870.79998779297</ele>
        <time>2021-11-06T08:37:45.000Z</time>
      </trkpt>
      <trkpt lat="45.23269" lon="5.75486">
        <ele>870.40002441406</ele>
        <time>2021-11-06T08:37:46.000Z</time>
      </trkpt>
      <trkpt lat="45.23272" lon="5.75483">
        <ele>869.59997558594</ele>
        <time>2021-11-06T08:37:49.000Z</time>
      </trkpt>
      <trkpt lat="45.23274" lon="5.75481">
        <ele>869.20001220703</ele>
        <time>2021-11-06T08:37:51.000Z</time>
      </trkpt>
      <trkpt lat="45.23277" lon="5.75475">
        <ele>868.20001220703</ele>
        <time>2021-11-06T08:37:55.000Z</time>
      </trkpt>
      <trkpt lat="45.23279" lon="5.75471">
        <ele>867.59997558594</ele>
        <time>2021-11-06T08:37:58.000Z</time>
      </trkpt>
      <trkpt lat="45.2328" lon="5.75468">
        <ele>867.20001220703</ele>
        <time>2021-11-06T08:38:00.000Z</time>
      </trkpt>
      <trkpt lat="45.23281" lon="5.75467">
        <ele>867</ele>
        <time>2021-11-06T08:38:01.000Z</time>
      </trkpt>
      <trkpt lat="45.23284" lon="5.75462">
        <ele>866</ele>
        <time>2021-11-06T08:38:04.000Z</time>
      </trkpt>
      <trkpt lat="45.23284" lon="5.7546">
        <ele>865.59997558594</ele>
        <time>2021-11-06T08:38:05.000Z</time>
      </trkpt>
      <trkpt lat="45.23285" lon="5.75457">
        <ele>865.20001220703</ele>
        <time>2021-11-06T08:38:07.000Z</time>
      </trkpt>
      <trkpt lat="45.23286" lon="5.75455">
        <ele>865</ele>
        <time>2021-11-06T08:38:08.000Z</time>
      </trkpt>
      <trkpt lat="45.23289" lon="5.7545">
        <ele>863.79998779297</ele>
        <time>2021-11-06T08:38:10.000Z</time>
      </trkpt>
      <trkpt lat="45.2329" lon="5.75448">
        <ele>863.40002441406</ele>
        <time>2021-11-06T08:38:11.000Z</time>
      </trkpt>
      <trkpt lat="45.23292" lon="5.75444">
        <ele>862.59997558594</ele>
        <time>2021-11-06T08:38:13.000Z</time>
      </trkpt>
      <trkpt lat="45.23297" lon="5.75438">
        <ele>861.40002441406</ele>
        <time>2021-11-06T08:38:17.000Z</time>
      </trkpt>
      <trkpt lat="45.23298" lon="5.75433">
        <ele>860.79998779297</ele>
        <time>2021-11-06T08:38:19.000Z</time>
      </trkpt>
      <trkpt lat="45.23298" lon="5.75431">
        <ele>860.59997558594</ele>
        <time>2021-11-06T08:38:20.000Z</time>
      </trkpt>
      <trkpt lat="45.23299" lon="5.75428">
        <ele>860</ele>
        <time>2021-11-06T08:38:21.000Z</time>
      </trkpt>
      <trkpt lat="45.23301" lon="5.75423">
        <ele>858.79998779297</ele>
        <time>2021-11-06T08:38:23.000Z</time>
      </trkpt>
      <trkpt lat="45.23303" lon="5.75421">
        <ele>858.20001220703</ele>
        <time>2021-11-06T08:38:24.000Z</time>
      </trkpt>
      <trkpt lat="45.23305" lon="5.75417">
        <ele>857.59997558594</ele>
        <time>2021-11-06T08:38:26.000Z</time>
      </trkpt>
      <trkpt lat="45.23305" lon="5.75414">
        <ele>857.40002441406</ele>
        <time>2021-11-06T08:38:27.000Z</time>
      </trkpt>
      <trkpt lat="45.23306" lon="5.7541">
        <ele>857.40002441406</ele>
        <time>2021-11-06T08:38:28.000Z</time>
      </trkpt>
      <trkpt lat="45.23308" lon="5.75406">
        <ele>856.40002441406</ele>
        <time>2021-11-06T08:38:29.000Z</time>
      </trkpt>
      <trkpt lat="45.23312" lon="5.75401">
        <ele>855.20001220703</ele>
        <time>2021-11-06T08:38:32.000Z</time>
      </trkpt>
      <trkpt lat="45.23313" lon="5.754">
        <ele>854.59997558594</ele>
        <time>2021-11-06T08:38:33.000Z</time>
      </trkpt>
      <trkpt lat="45.23316" lon="5.75397">
        <ele>853.79998779297</ele>
        <time>2021-11-06T08:38:35.000Z</time>
      </trkpt>
      <trkpt lat="45.23319" lon="5.75394">
        <ele>853</ele>
        <time>2021-11-06T08:38:37.000Z</time>
      </trkpt>
      <trkpt lat="45.2332" lon="5.75393">
        <ele>852.59997558594</ele>
        <time>2021-11-06T08:38:38.000Z</time>
      </trkpt>
      <trkpt lat="45.23322" lon="5.75389">
        <ele>852.20001220703</ele>
        <time>2021-11-06T08:38:40.000Z</time>
      </trkpt>
      <trkpt lat="45.23325" lon="5.75384">
        <ele>851.20001220703</ele>
        <time>2021-11-06T08:38:43.000Z</time>
      </trkpt>
      <trkpt lat="45.23326" lon="5.75383">
        <ele>850.59997558594</ele>
        <time>2021-11-06T08:38:44.000Z</time>
      </trkpt>
      <trkpt lat="45.23327" lon="5.75381">
        <ele>850.20001220703</ele>
        <time>2021-11-06T08:38:45.000Z</time>
      </trkpt>
      <trkpt lat="45.23332" lon="5.75377">
        <ele>849</ele>
        <time>2021-11-06T08:38:49.000Z</time>
      </trkpt>
      <trkpt lat="45.23335" lon="5.75376">
        <ele>848</ele>
        <time>2021-11-06T08:38:51.000Z</time>
      </trkpt>
      <trkpt lat="45.23337" lon="5.75374">
        <ele>847.79998779297</ele>
        <time>2021-11-06T08:38:52.000Z</time>
      </trkpt>
      <trkpt lat="45.23338" lon="5.75371">
        <ele>847.59997558594</ele>
        <time>2021-11-06T08:38:53.000Z</time>
      </trkpt>
      <trkpt lat="45.23343" lon="5.75364">
        <ele>846.20001220703</ele>
        <time>2021-11-06T08:38:56.000Z</time>
      </trkpt>
      <trkpt lat="45.23344" lon="5.75363">
        <ele>845.59997558594</ele>
        <time>2021-11-06T08:38:57.000Z</time>
      </trkpt>
      <trkpt lat="45.23348" lon="5.75362">
        <ele>845.20001220703</ele>
        <time>2021-11-06T08:38:59.000Z</time>
      </trkpt>
      <trkpt lat="45.23349" lon="5.75361">
        <ele>845</ele>
        <time>2021-11-06T08:39:00.000Z</time>
      </trkpt>
      <trkpt lat="45.23351" lon="5.75358">
        <ele>844.20001220703</ele>
        <time>2021-11-06T08:39:02.000Z</time>
      </trkpt>
      <trkpt lat="45.23353" lon="5.75358">
        <ele>843.79998779297</ele>
        <time>2021-11-06T08:39:03.000Z</time>
      </trkpt>
      <trkpt lat="45.23358" lon="5.75354">
        <ele>842.40002441406</ele>
        <time>2021-11-06T08:39:06.000Z</time>
      </trkpt>
      <trkpt lat="45.23361" lon="5.75349">
        <ele>841.40002441406</ele>
        <time>2021-11-06T08:39:09.000Z</time>
      </trkpt>
      <trkpt lat="45.23366" lon="5.75346">
        <ele>840</ele>
        <time>2021-11-06T08:39:12.000Z</time>
      </trkpt>
      <trkpt lat="45.23368" lon="5.75346">
        <ele>839.40002441406</ele>
        <time>2021-11-06T08:39:13.000Z</time>
      </trkpt>
      <trkpt lat="45.23371" lon="5.75343">
        <ele>838.59997558594</ele>
        <time>2021-11-06T08:39:15.000Z</time>
      </trkpt>
      <trkpt lat="45.23377" lon="5.7534">
        <ele>837.20001220703</ele>
        <time>2021-11-06T08:39:19.000Z</time>
      </trkpt>
      <trkpt lat="45.23378" lon="5.75338">
        <ele>836.79998779297</ele>
        <time>2021-11-06T08:39:20.000Z</time>
      </trkpt>
      <trkpt lat="45.2338" lon="5.75337">
        <ele>836.40002441406</ele>
        <time>2021-11-06T08:39:21.000Z</time>
      </trkpt>
      <trkpt lat="45.23381" lon="5.75336">
        <ele>836</ele>
        <time>2021-11-06T08:39:22.000Z</time>
      </trkpt>
      <trkpt lat="45.23383" lon="5.75335">
        <ele>835.59997558594</ele>
        <time>2021-11-06T08:39:23.000Z</time>
      </trkpt>
      <trkpt lat="45.23385" lon="5.75335">
        <ele>835.59997558594</ele>
        <time>2021-11-06T08:39:24.000Z</time>
      </trkpt>
      <trkpt lat="45.23388" lon="5.75334">
        <ele>834.79998779297</ele>
        <time>2021-11-06T08:39:26.000Z</time>
      </trkpt>
      <trkpt lat="45.23391" lon="5.75332">
        <ele>834.20001220703</ele>
        <time>2021-11-06T08:39:28.000Z</time>
      </trkpt>
      <trkpt lat="45.23395" lon="5.7533">
        <ele>833.59997558594</ele>
        <time>2021-11-06T08:39:30.000Z</time>
      </trkpt>
      <trkpt lat="45.234" lon="5.75325">
        <ele>832.20001220703</ele>
        <time>2021-11-06T08:39:34.000Z</time>
      </trkpt>
      <trkpt lat="45.23404" lon="5.75323">
        <ele>831</ele>
        <time>2021-11-06T08:39:37.000Z</time>
      </trkpt>
      <trkpt lat="45.23405" lon="5.75322">
        <ele>830.59997558594</ele>
        <time>2021-11-06T08:39:38.000Z</time>
      </trkpt>
      <trkpt lat="45.23407" lon="5.7532">
        <ele>829.79998779297</ele>
        <time>2021-11-06T08:39:40.000Z</time>
      </trkpt>
      <trkpt lat="45.23407" lon="5.75318">
        <ele>829.59997558594</ele>
        <time>2021-11-06T08:39:41.000Z</time>
      </trkpt>
      <trkpt lat="45.23407" lon="5.75314">
        <ele>828.59997558594</ele>
        <time>2021-11-06T08:39:44.000Z</time>
      </trkpt>
      <trkpt lat="45.23406" lon="5.75312">
        <ele>828.40002441406</ele>
        <time>2021-11-06T08:39:45.000Z</time>
      </trkpt>
      <trkpt lat="45.23404" lon="5.75307">
        <ele>827.40002441406</ele>
        <time>2021-11-06T08:39:47.000Z</time>
      </trkpt>
      <trkpt lat="45.23404" lon="5.753">
        <ele>826.20001220703</ele>
        <time>2021-11-06T08:39:50.000Z</time>
      </trkpt>
      <trkpt lat="45.23405" lon="5.75293">
        <ele>825.20001220703</ele>
        <time>2021-11-06T08:39:52.000Z</time>
      </trkpt>
      <trkpt lat="45.23407" lon="5.75291">
        <ele>824.40002441406</ele>
        <time>2021-11-06T08:39:53.000Z</time>
      </trkpt>
      <trkpt lat="45.23408" lon="5.75288">
        <ele>824</ele>
        <time>2021-11-06T08:39:54.000Z</time>
      </trkpt>
      <trkpt lat="45.23409" lon="5.75286">
        <ele>823.79998779297</ele>
        <time>2021-11-06T08:39:55.000Z</time>
      </trkpt>
      <trkpt lat="45.23411" lon="5.75283">
        <ele>823</ele>
        <time>2021-11-06T08:39:56.000Z</time>
      </trkpt>
      <trkpt lat="45.23416" lon="5.75278">
        <ele>821.59997558594</ele>
        <time>2021-11-06T08:39:59.000Z</time>
      </trkpt>
      <trkpt lat="45.23418" lon="5.75273">
        <ele>821</ele>
        <time>2021-11-06T08:40:01.000Z</time>
      </trkpt>
      <trkpt lat="45.23423" lon="5.7527">
        <ele>820.20001220703</ele>
        <time>2021-11-06T08:40:03.000Z</time>
      </trkpt>
      <trkpt lat="45.23426" lon="5.75267">
        <ele>819.20001220703</ele>
        <time>2021-11-06T08:40:05.000Z</time>
      </trkpt>
      <trkpt lat="45.23428" lon="5.75262">
        <ele>818.20001220703</ele>
        <time>2021-11-06T08:40:07.000Z</time>
      </trkpt>
      <trkpt lat="45.23429" lon="5.7526">
        <ele>817.79998779297</ele>
        <time>2021-11-06T08:40:08.000Z</time>
      </trkpt>
      <trkpt lat="45.23432" lon="5.75256">
        <ele>816.79998779297</ele>
        <time>2021-11-06T08:40:10.000Z</time>
      </trkpt>
      <trkpt lat="45.23432" lon="5.75255">
        <ele>816.40002441406</ele>
        <time>2021-11-06T08:40:11.000Z</time>
      </trkpt>
      <trkpt lat="45.23433" lon="5.75248">
        <ele>815</ele>
        <time>2021-11-06T08:40:14.000Z</time>
      </trkpt>
      <trkpt lat="45.23434" lon="5.75242">
        <ele>813.79998779297</ele>
        <time>2021-11-06T08:40:17.000Z</time>
      </trkpt>
      <trkpt lat="45.23438" lon="5.75234">
        <ele>812.59997558594</ele>
        <time>2021-11-06T08:40:20.000Z</time>
      </trkpt>
      <trkpt lat="45.23441" lon="5.75231">
        <ele>811.79998779297</ele>
        <time>2021-11-06T08:40:22.000Z</time>
      </trkpt>
      <trkpt lat="45.23443" lon="5.75229">
        <ele>811.59997558594</ele>
        <time>2021-11-06T08:40:23.000Z</time>
      </trkpt>
      <trkpt lat="45.23449" lon="5.75224">
        <ele>810.20001220703</ele>
        <time>2021-11-06T08:40:26.000Z</time>
      </trkpt>
      <trkpt lat="45.23452" lon="5.75221">
        <ele>809.79998779297</ele>
        <time>2021-11-06T08:40:28.000Z</time>
      </trkpt>
      <trkpt lat="45.23454" lon="5.7522">
        <ele>809.59997558594</ele>
        <time>2021-11-06T08:40:29.000Z</time>
      </trkpt>
      <trkpt lat="45.23456" lon="5.75218">
        <ele>809.20001220703</ele>
        <time>2021-11-06T08:40:30.000Z</time>
      </trkpt>
      <trkpt lat="45.23459" lon="5.75216">
        <ele>808.20001220703</ele>
        <time>2021-11-06T08:40:32.000Z</time>
      </trkpt>
      <trkpt lat="45.23463" lon="5.75212">
        <ele>806.59997558594</ele>
        <time>2021-11-06T08:40:35.000Z</time>
      </trkpt>
      <trkpt lat="45.23467" lon="5.75209">
        <ele>805.40002441406</ele>
        <time>2021-11-06T08:40:38.000Z</time>
      </trkpt>
      <trkpt lat="45.23472" lon="5.75205">
        <ele>804.40002441406</ele>
        <time>2021-11-06T08:40:41.000Z</time>
      </trkpt>
      <trkpt lat="45.23475" lon="5.75202">
        <ele>803.20001220703</ele>
        <time>2021-11-06T08:40:43.000Z</time>
      </trkpt>
      <trkpt lat="45.23476" lon="5.75201">
        <ele>802.59997558594</ele>
        <time>2021-11-06T08:40:44.000Z</time>
      </trkpt>
      <trkpt lat="45.23481" lon="5.75199">
        <ele>802</ele>
        <time>2021-11-06T08:40:46.000Z</time>
      </trkpt>
      <trkpt lat="45.23483" lon="5.75198">
        <ele>801.59997558594</ele>
        <time>2021-11-06T08:40:47.000Z</time>
      </trkpt>
      <trkpt lat="45.23486" lon="5.75192">
        <ele>800.79998779297</ele>
        <time>2021-11-06T08:40:50.000Z</time>
      </trkpt>
      <trkpt lat="45.23487" lon="5.7519">
        <ele>800.59997558594</ele>
        <time>2021-11-06T08:40:51.000Z</time>
      </trkpt>
      <trkpt lat="45.23489" lon="5.75186">
        <ele>799.59997558594</ele>
        <time>2021-11-06T08:40:53.000Z</time>
      </trkpt>
      <trkpt lat="45.23494" lon="5.75181">
        <ele>798.20001220703</ele>
        <time>2021-11-06T08:40:56.000Z</time>
      </trkpt>
      <trkpt lat="45.23496" lon="5.75177">
        <ele>797.59997558594</ele>
        <time>2021-11-06T08:40:58.000Z</time>
      </trkpt>
      <trkpt lat="45.23498" lon="5.75175">
        <ele>797.20001220703</ele>
        <time>2021-11-06T08:40:59.000Z</time>
      </trkpt>
      <trkpt lat="45.23499" lon="5.75173">
        <ele>797</ele>
        <time>2021-11-06T08:41:00.000Z</time>
      </trkpt>
      <trkpt lat="45.23502" lon="5.7517">
        <ele>796</ele>
        <time>2021-11-06T08:41:02.000Z</time>
      </trkpt>
      <trkpt lat="45.23502" lon="5.75169">
        <ele>795.59997558594</ele>
        <time>2021-11-06T08:41:03.000Z</time>
      </trkpt>
      <trkpt lat="45.23505" lon="5.75166">
        <ele>795.20001220703</ele>
        <time>2021-11-06T08:41:05.000Z</time>
      </trkpt>
      <trkpt lat="45.23506" lon="5.75164">
        <ele>794.79998779297</ele>
        <time>2021-11-06T08:41:06.000Z</time>
      </trkpt>
      <trkpt lat="45.23507" lon="5.75163">
        <ele>794.20001220703</ele>
        <time>2021-11-06T08:41:07.000Z</time>
      </trkpt>
      <trkpt lat="45.23508" lon="5.75162">
        <ele>793.79998779297</ele>
        <time>2021-11-06T08:41:08.000Z</time>
      </trkpt>
      <trkpt lat="45.2351" lon="5.75162">
        <ele>793.40002441406</ele>
        <time>2021-11-06T08:41:09.000Z</time>
      </trkpt>
      <trkpt lat="45.23511" lon="5.7516">
        <ele>793</ele>
        <time>2021-11-06T08:41:10.000Z</time>
      </trkpt>
      <trkpt lat="45.23513" lon="5.75158">
        <ele>792.40002441406</ele>
        <time>2021-11-06T08:41:12.000Z</time>
      </trkpt>
      <trkpt lat="45.23515" lon="5.75156">
        <ele>792.20001220703</ele>
        <time>2021-11-06T08:41:13.000Z</time>
      </trkpt>
      <trkpt lat="45.23516" lon="5.75155">
        <ele>791.79998779297</ele>
        <time>2021-11-06T08:41:14.000Z</time>
      </trkpt>
      <trkpt lat="45.2352" lon="5.75152">
        <ele>791</ele>
        <time>2021-11-06T08:41:16.000Z</time>
      </trkpt>
      <trkpt lat="45.23528" lon="5.75148">
        <ele>789.59997558594</ele>
        <time>2021-11-06T08:41:20.000Z</time>
      </trkpt>
      <trkpt lat="45.23534" lon="5.75145">
        <ele>788.40002441406</ele>
        <time>2021-11-06T08:41:23.000Z</time>
      </trkpt>
      <trkpt lat="45.23539" lon="5.7514">
        <ele>787</ele>
        <time>2021-11-06T08:41:26.000Z</time>
      </trkpt>
      <trkpt lat="45.2354" lon="5.75139">
        <ele>786.40002441406</ele>
        <time>2021-11-06T08:41:27.000Z</time>
      </trkpt>
      <trkpt lat="45.23544" lon="5.75135">
        <ele>785.59997558594</ele>
        <time>2021-11-06T08:41:29.000Z</time>
      </trkpt>
      <trkpt lat="45.23546" lon="5.75134">
        <ele>785.20001220703</ele>
        <time>2021-11-06T08:41:30.000Z</time>
      </trkpt>
      <trkpt lat="45.2355" lon="5.75132">
        <ele>784.40002441406</ele>
        <time>2021-11-06T08:41:32.000Z</time>
      </trkpt>
      <trkpt lat="45.23553" lon="5.75131">
        <ele>784.20001220703</ele>
        <time>2021-11-06T08:41:33.000Z</time>
      </trkpt>
      <trkpt lat="45.23556" lon="5.7513">
        <ele>783.40002441406</ele>
        <time>2021-11-06T08:41:34.000Z</time>
      </trkpt>
      <trkpt lat="45.23558" lon="5.7513">
        <ele>782.59997558594</ele>
        <time>2021-11-06T08:41:35.000Z</time>
      </trkpt>
      <trkpt lat="45.23563" lon="5.75128">
        <ele>781.40002441406</ele>
        <time>2021-11-06T08:41:38.000Z</time>
      </trkpt>
      <trkpt lat="45.23568" lon="5.75127">
        <ele>780.59997558594</ele>
        <time>2021-11-06T08:41:40.000Z</time>
      </trkpt>
      <trkpt lat="45.23573" lon="5.75126">
        <ele>780</ele>
        <time>2021-11-06T08:41:42.000Z</time>
      </trkpt>
      <trkpt lat="45.23577" lon="5.75124">
        <ele>778.59997558594</ele>
        <time>2021-11-06T08:41:45.000Z</time>
      </trkpt>
      <trkpt lat="45.23577" lon="5.75123">
        <ele>778</ele>
        <time>2021-11-06T08:41:46.000Z</time>
      </trkpt>
      <trkpt lat="45.23577" lon="5.75122">
        <ele>777.59997558594</ele>
        <time>2021-11-06T08:41:47.000Z</time>
      </trkpt>
      <trkpt lat="45.23575" lon="5.75123">
        <ele>776.40002441406</ele>
        <time>2021-11-06T08:41:50.000Z</time>
      </trkpt>
      <trkpt lat="45.23572" lon="5.75121">
        <ele>775.79998779297</ele>
        <time>2021-11-06T08:41:53.000Z</time>
      </trkpt>
      <trkpt lat="45.2357" lon="5.7512">
        <ele>775.40002441406</ele>
        <time>2021-11-06T08:41:54.000Z</time>
      </trkpt>
      <trkpt lat="45.23565" lon="5.75119">
        <ele>773.79998779297</ele>
        <time>2021-11-06T08:41:57.000Z</time>
      </trkpt>
      <trkpt lat="45.23561" lon="5.75116">
        <ele>772.59997558594</ele>
        <time>2021-11-06T08:42:00.000Z</time>
      </trkpt>
      <trkpt lat="45.23557" lon="5.75114">
        <ele>772.20001220703</ele>
        <time>2021-11-06T08:42:02.000Z</time>
      </trkpt>
      <trkpt lat="45.23552" lon="5.75112">
        <ele>771</ele>
        <time>2021-11-06T08:42:04.000Z</time>
      </trkpt>
      <trkpt lat="45.23547" lon="5.7511">
        <ele>770</ele>
        <time>2021-11-06T08:42:07.000Z</time>
      </trkpt>
      <trkpt lat="45.23546" lon="5.75109">
        <ele>769.79998779297</ele>
        <time>2021-11-06T08:42:08.000Z</time>
      </trkpt>
      <trkpt lat="45.2354" lon="5.75101">
        <ele>768.40002441406</ele>
        <time>2021-11-06T08:42:12.000Z</time>
      </trkpt>
      <trkpt lat="45.23537" lon="5.75095">
        <ele>767.20001220703</ele>
        <time>2021-11-06T08:42:14.000Z</time>
      </trkpt>
      <trkpt lat="45.23535" lon="5.75093">
        <ele>766.79998779297</ele>
        <time>2021-11-06T08:42:15.000Z</time>
      </trkpt>
      <trkpt lat="45.23522" lon="5.75091">
        <ele>766.20001220703</ele>
        <time>2021-11-06T08:42:20.000Z</time>
      </trkpt>
      <trkpt lat="45.23508" lon="5.75092">
        <ele>765.20001220703</ele>
        <time>2021-11-06T08:42:25.000Z</time>
      </trkpt>
      <trkpt lat="45.23505" lon="5.75093">
        <ele>765</ele>
        <time>2021-11-06T08:42:26.000Z</time>
      </trkpt>
      <trkpt lat="45.23503" lon="5.75094">
        <ele>765</ele>
        <time>2021-11-06T08:42:27.000Z</time>
      </trkpt>
      <trkpt lat="45.23489" lon="5.75095">
        <ele>764</ele>
        <time>2021-11-06T08:42:33.000Z</time>
      </trkpt>
      <trkpt lat="45.23486" lon="5.75097">
        <ele>763.79998779297</ele>
        <time>2021-11-06T08:42:34.000Z</time>
      </trkpt>
      <trkpt lat="45.23476" lon="5.75101">
        <ele>763.40002441406</ele>
        <time>2021-11-06T08:42:38.000Z</time>
      </trkpt>
      <trkpt lat="45.23473" lon="5.75102">
        <ele>763.20001220703</ele>
        <time>2021-11-06T08:42:39.000Z</time>
      </trkpt>
      <trkpt lat="45.23465" lon="5.75105">
        <ele>762.79998779297</ele>
        <time>2021-11-06T08:42:42.000Z</time>
      </trkpt>
      <trkpt lat="45.23455" lon="5.75105">
        <ele>762.20001220703</ele>
        <time>2021-11-06T08:42:46.000Z</time>
      </trkpt>
      <trkpt lat="45.23452" lon="5.75105">
        <ele>761.59997558594</ele>
        <time>2021-11-06T08:42:47.000Z</time>
      </trkpt>
      <trkpt lat="45.23444" lon="5.75107">
        <ele>760.40002441406</ele>
        <time>2021-11-06T08:42:50.000Z</time>
      </trkpt>
      <trkpt lat="45.23434" lon="5.75109">
        <ele>759.40002441406</ele>
        <time>2021-11-06T08:42:53.000Z</time>
      </trkpt>
      <trkpt lat="45.23417" lon="5.75107">
        <ele>758.20001220703</ele>
        <time>2021-11-06T08:42:59.000Z</time>
      </trkpt>
      <trkpt lat="45.23414" lon="5.75107">
        <ele>757.79998779297</ele>
        <time>2021-11-06T08:43:00.000Z</time>
      </trkpt>
      <trkpt lat="45.23398" lon="5.7511">
        <ele>757</ele>
        <time>2021-11-06T08:43:06.000Z</time>
      </trkpt>
      <trkpt lat="45.23379" lon="5.75113">
        <ele>756.20001220703</ele>
        <time>2021-11-06T08:43:13.000Z</time>
      </trkpt>
      <trkpt lat="45.23376" lon="5.75114">
        <ele>756.20001220703</ele>
        <time>2021-11-06T08:43:14.000Z</time>
      </trkpt>
      <trkpt lat="45.23368" lon="5.75115">
        <ele>756</ele>
        <time>2021-11-06T08:43:17.000Z</time>
      </trkpt>
      <trkpt lat="45.23352" lon="5.75115">
        <ele>754.59997558594</ele>
        <time>2021-11-06T08:43:23.000Z</time>
      </trkpt>
      <trkpt lat="45.23349" lon="5.75115">
        <ele>754.40002441406</ele>
        <time>2021-11-06T08:43:24.000Z</time>
      </trkpt>
      <trkpt lat="45.23334" lon="5.75117">
        <ele>753.59997558594</ele>
        <time>2021-11-06T08:43:30.000Z</time>
      </trkpt>
      <trkpt lat="45.23329" lon="5.75118">
        <ele>753</ele>
        <time>2021-11-06T08:43:32.000Z</time>
      </trkpt>
      <trkpt lat="45.23325" lon="5.75119">
        <ele>752.40002441406</ele>
        <time>2021-11-06T08:43:34.000Z</time>
      </trkpt>
      <trkpt lat="45.23318" lon="5.75118">
        <ele>751.59997558594</ele>
        <time>2021-11-06T08:43:37.000Z</time>
      </trkpt>
      <trkpt lat="45.23317" lon="5.75114">
        <ele>751</ele>
        <time>2021-11-06T08:43:38.000Z</time>
      </trkpt>
      <trkpt lat="45.23321" lon="5.75097">
        <ele>750.59997558594</ele>
        <time>2021-11-06T08:43:42.000Z</time>
      </trkpt>
      <trkpt lat="45.23325" lon="5.75071">
        <ele>751.20001220703</ele>
        <time>2021-11-06T08:43:49.000Z</time>
      </trkpt>
      <trkpt lat="45.23325" lon="5.75067">
        <ele>751.40002441406</ele>
        <time>2021-11-06T08:43:50.000Z</time>
      </trkpt>
      <trkpt lat="45.23324" lon="5.75059">
        <ele>752.20001220703</ele>
        <time>2021-11-06T08:43:53.000Z</time>
      </trkpt>
      <trkpt lat="45.2332" lon="5.75048">
        <ele>753.20001220703</ele>
        <time>2021-11-06T08:43:57.000Z</time>
      </trkpt>
      <trkpt lat="45.23315" lon="5.75037">
        <ele>754.20001220703</ele>
        <time>2021-11-06T08:44:01.000Z</time>
      </trkpt>
      <trkpt lat="45.23312" lon="5.75029">
        <ele>755</ele>
        <time>2021-11-06T08:44:04.000Z</time>
      </trkpt>
      <trkpt lat="45.23309" lon="5.75024">
        <ele>755.20001220703</ele>
        <time>2021-11-06T08:44:06.000Z</time>
      </trkpt>
      <trkpt lat="45.23302" lon="5.75012">
        <ele>756.40002441406</ele>
        <time>2021-11-06T08:44:11.000Z</time>
      </trkpt>
      <trkpt lat="45.23297" lon="5.75003">
        <ele>757.20001220703</ele>
        <time>2021-11-06T08:44:15.000Z</time>
      </trkpt>
      <trkpt lat="45.23296" lon="5.75001">
        <ele>757.59997558594</ele>
        <time>2021-11-06T08:44:16.000Z</time>
      </trkpt>
      <trkpt lat="45.23288" lon="5.74987">
        <ele>758.79998779297</ele>
        <time>2021-11-06T08:44:22.000Z</time>
      </trkpt>
      <trkpt lat="45.23287" lon="5.74985">
        <ele>759</ele>
        <time>2021-11-06T08:44:23.000Z</time>
      </trkpt>
      <trkpt lat="45.23283" lon="5.74975">
        <ele>760</ele>
        <time>2021-11-06T08:44:27.000Z</time>
      </trkpt>
      <trkpt lat="45.2328" lon="5.74971">
        <ele>760.20001220703</ele>
        <time>2021-11-06T08:44:29.000Z</time>
      </trkpt>
      <trkpt lat="45.23274" lon="5.7496">
        <ele>761.20001220703</ele>
        <time>2021-11-06T08:44:34.000Z</time>
      </trkpt>
      <trkpt lat="45.2327" lon="5.74954">
        <ele>761.79998779297</ele>
        <time>2021-11-06T08:44:37.000Z</time>
      </trkpt>
      <trkpt lat="45.23266" lon="5.74948">
        <ele>762.20001220703</ele>
        <time>2021-11-06T08:44:40.000Z</time>
      </trkpt>
      <trkpt lat="45.2326" lon="5.74941">
        <ele>763.20001220703</ele>
        <time>2021-11-06T08:44:44.000Z</time>
      </trkpt>
      <trkpt lat="45.23256" lon="5.74937">
        <ele>763.79998779297</ele>
        <time>2021-11-06T08:44:46.000Z</time>
      </trkpt>
      <trkpt lat="45.23253" lon="5.74932">
        <ele>764.40002441406</ele>
        <time>2021-11-06T08:44:49.000Z</time>
      </trkpt>
      <trkpt lat="45.23249" lon="5.74927">
        <ele>765</ele>
        <time>2021-11-06T08:44:52.000Z</time>
      </trkpt>
      <trkpt lat="45.23247" lon="5.74924">
        <ele>765.40002441406</ele>
        <time>2021-11-06T08:44:54.000Z</time>
      </trkpt>
      <trkpt lat="45.2324" lon="5.74917">
        <ele>766.40002441406</ele>
        <time>2021-11-06T08:44:58.000Z</time>
      </trkpt>
      <trkpt lat="45.23238" lon="5.74913">
        <ele>767</ele>
        <time>2021-11-06T08:45:00.000Z</time>
      </trkpt>
      <trkpt lat="45.23237" lon="5.74911">
        <ele>767</ele>
        <time>2021-11-06T08:45:01.000Z</time>
      </trkpt>
      <trkpt lat="45.23234" lon="5.74908">
        <ele>767.59997558594</ele>
        <time>2021-11-06T08:45:03.000Z</time>
      </trkpt>
      <trkpt lat="45.23232" lon="5.74907">
        <ele>767.79998779297</ele>
        <time>2021-11-06T08:45:04.000Z</time>
      </trkpt>
      <trkpt lat="45.23225" lon="5.74899">
        <ele>768.79998779297</ele>
        <time>2021-11-06T08:45:09.000Z</time>
      </trkpt>
      <trkpt lat="45.2322" lon="5.74888">
        <ele>770</ele>
        <time>2021-11-06T08:45:14.000Z</time>
      </trkpt>
      <trkpt lat="45.23217" lon="5.74882">
        <ele>770.59997558594</ele>
        <time>2021-11-06T08:45:17.000Z</time>
      </trkpt>
      <trkpt lat="45.23212" lon="5.74875">
        <ele>771.20001220703</ele>
        <time>2021-11-06T08:45:20.000Z</time>
      </trkpt>
      <trkpt lat="45.23209" lon="5.74869">
        <ele>772</ele>
        <time>2021-11-06T08:45:23.000Z</time>
      </trkpt>
      <trkpt lat="45.23206" lon="5.74866">
        <ele>772.40002441406</ele>
        <time>2021-11-06T08:45:25.000Z</time>
      </trkpt>
      <trkpt lat="45.232" lon="5.74862">
        <ele>773.20001220703</ele>
        <time>2021-11-06T08:45:29.000Z</time>
      </trkpt>
      <trkpt lat="45.23197" lon="5.74861">
        <ele>773.59997558594</ele>
        <time>2021-11-06T08:45:31.000Z</time>
      </trkpt>
      <trkpt lat="45.23191" lon="5.74857">
        <ele>774.59997558594</ele>
        <time>2021-11-06T08:45:35.000Z</time>
      </trkpt>
      <trkpt lat="45.23188" lon="5.74854">
        <ele>775</ele>
        <time>2021-11-06T08:45:37.000Z</time>
      </trkpt>
      <trkpt lat="45.23185" lon="5.74851">
        <ele>775.59997558594</ele>
        <time>2021-11-06T08:45:39.000Z</time>
      </trkpt>
      <trkpt lat="45.23176" lon="5.74839">
        <ele>776.59997558594</ele>
        <time>2021-11-06T08:45:45.000Z</time>
      </trkpt>
      <trkpt lat="45.23176" lon="5.74837">
        <ele>776.79998779297</ele>
        <time>2021-11-06T08:45:46.000Z</time>
      </trkpt>
      <trkpt lat="45.23171" lon="5.74828">
        <ele>777.79998779297</ele>
        <time>2021-11-06T08:45:51.000Z</time>
      </trkpt>
      <trkpt lat="45.2317" lon="5.74826">
        <ele>778</ele>
        <time>2021-11-06T08:45:52.000Z</time>
      </trkpt>
      <trkpt lat="45.23167" lon="5.74821">
        <ele>778.59997558594</ele>
        <time>2021-11-06T08:45:55.000Z</time>
      </trkpt>
      <trkpt lat="45.23165" lon="5.74817">
        <ele>779</ele>
        <time>2021-11-06T08:45:57.000Z</time>
      </trkpt>
      <trkpt lat="45.23158" lon="5.74803">
        <ele>780.40002441406</ele>
        <time>2021-11-06T08:46:03.000Z</time>
      </trkpt>
      <trkpt lat="45.23158" lon="5.74801">
        <ele>780.59997558594</ele>
        <time>2021-11-06T08:46:04.000Z</time>
      </trkpt>
      <trkpt lat="45.23153" lon="5.74791">
        <ele>781.40002441406</ele>
        <time>2021-11-06T08:46:09.000Z</time>
      </trkpt>
      <trkpt lat="45.23149" lon="5.74786">
        <ele>782</ele>
        <time>2021-11-06T08:46:11.000Z</time>
      </trkpt>
      <trkpt lat="45.23147" lon="5.74781">
        <ele>782.40002441406</ele>
        <time>2021-11-06T08:46:13.000Z</time>
      </trkpt>
      <trkpt lat="45.23142" lon="5.74773">
        <ele>783.20001220703</ele>
        <time>2021-11-06T08:46:17.000Z</time>
      </trkpt>
      <trkpt lat="45.23138" lon="5.74766">
        <ele>783.79998779297</ele>
        <time>2021-11-06T08:46:20.000Z</time>
      </trkpt>
      <trkpt lat="45.23134" lon="5.74757">
        <ele>784.79998779297</ele>
        <time>2021-11-06T08:46:24.000Z</time>
      </trkpt>
      <trkpt lat="45.23133" lon="5.74756">
        <ele>785</ele>
        <time>2021-11-06T08:46:25.000Z</time>
      </trkpt>
      <trkpt lat="45.23127" lon="5.7475">
        <ele>785.79998779297</ele>
        <time>2021-11-06T08:46:28.000Z</time>
      </trkpt>
      <trkpt lat="45.23122" lon="5.74739">
        <ele>786.79998779297</ele>
        <time>2021-11-06T08:46:34.000Z</time>
      </trkpt>
      <trkpt lat="45.2312" lon="5.74737">
        <ele>787</ele>
        <time>2021-11-06T08:46:35.000Z</time>
      </trkpt>
      <trkpt lat="45.23116" lon="5.74728">
        <ele>788.20001220703</ele>
        <time>2021-11-06T08:46:40.000Z</time>
      </trkpt>
      <trkpt lat="45.23112" lon="5.74722">
        <ele>788.59997558594</ele>
        <time>2021-11-06T08:46:43.000Z</time>
      </trkpt>
      <trkpt lat="45.23111" lon="5.74718">
        <ele>789.20001220703</ele>
        <time>2021-11-06T08:46:45.000Z</time>
      </trkpt>
      <trkpt lat="45.23105" lon="5.74708">
        <ele>790.20001220703</ele>
        <time>2021-11-06T08:46:50.000Z</time>
      </trkpt>
      <trkpt lat="45.23099" lon="5.74702">
        <ele>791.20001220703</ele>
        <time>2021-11-06T08:46:54.000Z</time>
      </trkpt>
      <trkpt lat="45.23098" lon="5.74701">
        <ele>791.40002441406</ele>
        <time>2021-11-06T08:46:55.000Z</time>
      </trkpt>
      <trkpt lat="45.23093" lon="5.74695">
        <ele>792.40002441406</ele>
        <time>2021-11-06T08:46:59.000Z</time>
      </trkpt>
      <trkpt lat="45.23089" lon="5.7469">
        <ele>793</ele>
        <time>2021-11-06T08:47:02.000Z</time>
      </trkpt>
      <trkpt lat="45.23086" lon="5.74686">
        <ele>793.59997558594</ele>
        <time>2021-11-06T08:47:04.000Z</time>
      </trkpt>
      <trkpt lat="45.23084" lon="5.74679">
        <ele>794.40002441406</ele>
        <time>2021-11-06T08:47:07.000Z</time>
      </trkpt>
      <trkpt lat="45.23081" lon="5.74677">
        <ele>794.79998779297</ele>
        <time>2021-11-06T08:47:09.000Z</time>
      </trkpt>
      <trkpt lat="45.23075" lon="5.74667">
        <ele>795.79998779297</ele>
        <time>2021-11-06T08:47:14.000Z</time>
      </trkpt>
      <trkpt lat="45.23072" lon="5.74664">
        <ele>796</ele>
        <time>2021-11-06T08:47:16.000Z</time>
      </trkpt>
      <trkpt lat="45.23069" lon="5.74659">
        <ele>796.79998779297</ele>
        <time>2021-11-06T08:47:19.000Z</time>
      </trkpt>
      <trkpt lat="45.23067" lon="5.74657">
        <ele>797</ele>
        <time>2021-11-06T08:47:20.000Z</time>
      </trkpt>
      <trkpt lat="45.23061" lon="5.74647">
        <ele>798</ele>
        <time>2021-11-06T08:47:25.000Z</time>
      </trkpt>
      <trkpt lat="45.2306" lon="5.74645">
        <ele>798.40002441406</ele>
        <time>2021-11-06T08:47:26.000Z</time>
      </trkpt>
      <trkpt lat="45.23055" lon="5.74637">
        <ele>799.20001220703</ele>
        <time>2021-11-06T08:47:30.000Z</time>
      </trkpt>
      <trkpt lat="45.23048" lon="5.74627">
        <ele>800.20001220703</ele>
        <time>2021-11-06T08:47:35.000Z</time>
      </trkpt>
      <trkpt lat="45.23047" lon="5.74626">
        <ele>800.40002441406</ele>
        <time>2021-11-06T08:47:36.000Z</time>
      </trkpt>
      <trkpt lat="45.23039" lon="5.74616">
        <ele>801.40002441406</ele>
        <time>2021-11-06T08:47:42.000Z</time>
      </trkpt>
      <trkpt lat="45.23036" lon="5.74613">
        <ele>801.79998779297</ele>
        <time>2021-11-06T08:47:44.000Z</time>
      </trkpt>
      <trkpt lat="45.23034" lon="5.7461">
        <ele>802.40002441406</ele>
        <time>2021-11-06T08:47:46.000Z</time>
      </trkpt>
      <trkpt lat="45.23028" lon="5.74603">
        <ele>803.40002441406</ele>
        <time>2021-11-06T08:47:51.000Z</time>
      </trkpt>
      <trkpt lat="45.23027" lon="5.74602">
        <ele>803.59997558594</ele>
        <time>2021-11-06T08:47:52.000Z</time>
      </trkpt>
      <trkpt lat="45.23022" lon="5.74597">
        <ele>804.59997558594</ele>
        <time>2021-11-06T08:47:56.000Z</time>
      </trkpt>
      <trkpt lat="45.23016" lon="5.74592">
        <ele>805.20001220703</ele>
        <time>2021-11-06T08:48:00.000Z</time>
      </trkpt>
      <trkpt lat="45.23012" lon="5.74589">
        <ele>805.59997558594</ele>
        <time>2021-11-06T08:48:03.000Z</time>
      </trkpt>
      <trkpt lat="45.23008" lon="5.74585">
        <ele>806.40002441406</ele>
        <time>2021-11-06T08:48:06.000Z</time>
      </trkpt>
      <trkpt lat="45.23006" lon="5.74581">
        <ele>806.79998779297</ele>
        <time>2021-11-06T08:48:08.000Z</time>
      </trkpt>
      <trkpt lat="45.23001" lon="5.74576">
        <ele>807.79998779297</ele>
        <time>2021-11-06T08:48:12.000Z</time>
      </trkpt>
      <trkpt lat="45.22997" lon="5.74572">
        <ele>808.40002441406</ele>
        <time>2021-11-06T08:48:15.000Z</time>
      </trkpt>
      <trkpt lat="45.22994" lon="5.74569">
        <ele>809</ele>
        <time>2021-11-06T08:48:17.000Z</time>
      </trkpt>
      <trkpt lat="45.22992" lon="5.74564">
        <ele>809.59997558594</ele>
        <time>2021-11-06T08:48:20.000Z</time>
      </trkpt>
      <trkpt lat="45.2299" lon="5.74563">
        <ele>809.59997558594</ele>
        <time>2021-11-06T08:48:21.000Z</time>
      </trkpt>
      <trkpt lat="45.22988" lon="5.74562">
        <ele>809.79998779297</ele>
        <time>2021-11-06T08:48:22.000Z</time>
      </trkpt>
      <trkpt lat="45.22987" lon="5.74561">
        <ele>810.20001220703</ele>
        <time>2021-11-06T08:48:23.000Z</time>
      </trkpt>
      <trkpt lat="45.22983" lon="5.74557">
        <ele>811</ele>
        <time>2021-11-06T08:48:26.000Z</time>
      </trkpt>
      <trkpt lat="45.22982" lon="5.74555">
        <ele>811.20001220703</ele>
        <time>2021-11-06T08:48:27.000Z</time>
      </trkpt>
      <trkpt lat="45.22975" lon="5.74543">
        <ele>812.40002441406</ele>
        <time>2021-11-06T08:48:32.000Z</time>
      </trkpt>
      <trkpt lat="45.22973" lon="5.74542">
        <ele>812.59997558594</ele>
        <time>2021-11-06T08:48:33.000Z</time>
      </trkpt>
      <trkpt lat="45.22967" lon="5.74538">
        <ele>813.20001220703</ele>
        <time>2021-11-06T08:48:36.000Z</time>
      </trkpt>
      <trkpt lat="45.22964" lon="5.74536">
        <ele>813.79998779297</ele>
        <time>2021-11-06T08:48:38.000Z</time>
      </trkpt>
      <trkpt lat="45.22963" lon="5.74534">
        <ele>814</ele>
        <time>2021-11-06T08:48:39.000Z</time>
      </trkpt>
      <trkpt lat="45.22958" lon="5.74529">
        <ele>815</ele>
        <time>2021-11-06T08:48:43.000Z</time>
      </trkpt>
      <trkpt lat="45.22953" lon="5.74525">
        <ele>815.59997558594</ele>
        <time>2021-11-06T08:48:46.000Z</time>
      </trkpt>
      <trkpt lat="45.22948" lon="5.74519">
        <ele>816</ele>
        <time>2021-11-06T08:48:49.000Z</time>
      </trkpt>
      <trkpt lat="45.22945" lon="5.74512">
        <ele>816.79998779297</ele>
        <time>2021-11-06T08:48:52.000Z</time>
      </trkpt>
      <trkpt lat="45.22944" lon="5.7451">
        <ele>817</ele>
        <time>2021-11-06T08:48:53.000Z</time>
      </trkpt>
      <trkpt lat="45.22943" lon="5.74508">
        <ele>817.40002441406</ele>
        <time>2021-11-06T08:48:54.000Z</time>
      </trkpt>
      <trkpt lat="45.22942" lon="5.74507">
        <ele>817.59997558594</ele>
        <time>2021-11-06T08:48:55.000Z</time>
      </trkpt>
      <trkpt lat="45.22939" lon="5.74502">
        <ele>818</ele>
        <time>2021-11-06T08:48:58.000Z</time>
      </trkpt>
      <trkpt lat="45.22938" lon="5.74501">
        <ele>818.20001220703</ele>
        <time>2021-11-06T08:48:59.000Z</time>
      </trkpt>
      <trkpt lat="45.22937" lon="5.74499">
        <ele>818.40002441406</ele>
        <time>2021-11-06T08:49:00.000Z</time>
      </trkpt>
      <trkpt lat="45.22931" lon="5.74492">
        <ele>819</ele>
        <time>2021-11-06T08:49:04.000Z</time>
      </trkpt>
      <trkpt lat="45.2293" lon="5.74491">
        <ele>819.40002441406</ele>
        <time>2021-11-06T08:49:05.000Z</time>
      </trkpt>
      <trkpt lat="45.22926" lon="5.7449">
        <ele>820.20001220703</ele>
        <time>2021-11-06T08:49:07.000Z</time>
      </trkpt>
      <trkpt lat="45.22925" lon="5.7449">
        <ele>820.40002441406</ele>
        <time>2021-11-06T08:49:08.000Z</time>
      </trkpt>
      <trkpt lat="45.22916" lon="5.74485">
        <ele>821.59997558594</ele>
        <time>2021-11-06T08:49:13.000Z</time>
      </trkpt>
      <trkpt lat="45.22914" lon="5.74481">
        <ele>822</ele>
        <time>2021-11-06T08:49:15.000Z</time>
      </trkpt>
      <trkpt lat="45.2291" lon="5.74478">
        <ele>822.59997558594</ele>
        <time>2021-11-06T08:49:18.000Z</time>
      </trkpt>
      <trkpt lat="45.22909" lon="5.74477">
        <ele>822.79998779297</ele>
        <time>2021-11-06T08:49:19.000Z</time>
      </trkpt>
      <trkpt lat="45.22903" lon="5.74474">
        <ele>823.59997558594</ele>
        <time>2021-11-06T08:49:22.000Z</time>
      </trkpt>
      <trkpt lat="45.22894" lon="5.74469">
        <ele>824.59997558594</ele>
        <time>2021-11-06T08:49:27.000Z</time>
      </trkpt>
      <trkpt lat="45.22888" lon="5.74461">
        <ele>825.79998779297</ele>
        <time>2021-11-06T08:49:33.000Z</time>
      </trkpt>
      <trkpt lat="45.22883" lon="5.74456">
        <ele>826.40002441406</ele>
        <time>2021-11-06T08:49:36.000Z</time>
      </trkpt>
      <trkpt lat="45.2288" lon="5.74454">
        <ele>827</ele>
        <time>2021-11-06T08:49:38.000Z</time>
      </trkpt>
      <trkpt lat="45.22872" lon="5.74449">
        <ele>828</ele>
        <time>2021-11-06T08:49:43.000Z</time>
      </trkpt>
      <trkpt lat="45.22869" lon="5.74446">
        <ele>828.59997558594</ele>
        <time>2021-11-06T08:49:45.000Z</time>
      </trkpt>
      <trkpt lat="45.22864" lon="5.74442">
        <ele>829</ele>
        <time>2021-11-06T08:49:48.000Z</time>
      </trkpt>
      <trkpt lat="45.22858" lon="5.74435">
        <ele>830</ele>
        <time>2021-11-06T08:49:52.000Z</time>
      </trkpt>
      <trkpt lat="45.22856" lon="5.74433">
        <ele>830.40002441406</ele>
        <time>2021-11-06T08:49:53.000Z</time>
      </trkpt>
      <trkpt lat="45.22848" lon="5.74427">
        <ele>831</ele>
        <time>2021-11-06T08:49:57.000Z</time>
      </trkpt>
      <trkpt lat="45.22847" lon="5.74426">
        <ele>831</ele>
        <time>2021-11-06T08:49:58.000Z</time>
      </trkpt>
      <trkpt lat="45.22843" lon="5.74424">
        <ele>831.40002441406</ele>
        <time>2021-11-06T08:50:00.000Z</time>
      </trkpt>
      <trkpt lat="45.22838" lon="5.74422">
        <ele>832</ele>
        <time>2021-11-06T08:50:03.000Z</time>
      </trkpt>
      <trkpt lat="45.22834" lon="5.74419">
        <ele>832.59997558594</ele>
        <time>2021-11-06T08:50:05.000Z</time>
      </trkpt>
      <trkpt lat="45.22828" lon="5.74417">
        <ele>833.40002441406</ele>
        <time>2021-11-06T08:50:09.000Z</time>
      </trkpt>
      <trkpt lat="45.22824" lon="5.74415">
        <ele>833.59997558594</ele>
        <time>2021-11-06T08:50:11.000Z</time>
      </trkpt>
      <trkpt lat="45.22818" lon="5.74413">
        <ele>834.59997558594</ele>
        <time>2021-11-06T08:50:15.000Z</time>
      </trkpt>
      <trkpt lat="45.22814" lon="5.7441">
        <ele>835</ele>
        <time>2021-11-06T08:50:17.000Z</time>
      </trkpt>
      <trkpt lat="45.22809" lon="5.74405">
        <ele>835.79998779297</ele>
        <time>2021-11-06T08:50:20.000Z</time>
      </trkpt>
      <trkpt lat="45.22804" lon="5.74401">
        <ele>836.40002441406</ele>
        <time>2021-11-06T08:50:23.000Z</time>
      </trkpt>
      <trkpt lat="45.22801" lon="5.74398">
        <ele>837</ele>
        <time>2021-11-06T08:50:25.000Z</time>
      </trkpt>
      <trkpt lat="45.22795" lon="5.74393">
        <ele>838</ele>
        <time>2021-11-06T08:50:29.000Z</time>
      </trkpt>
      <trkpt lat="45.22793" lon="5.74392">
        <ele>838.20001220703</ele>
        <time>2021-11-06T08:50:30.000Z</time>
      </trkpt>
      <trkpt lat="45.22785" lon="5.74386">
        <ele>839.20001220703</ele>
        <time>2021-11-06T08:50:35.000Z</time>
      </trkpt>
      <trkpt lat="45.22784" lon="5.74386">
        <ele>839.40002441406</ele>
        <time>2021-11-06T08:50:36.000Z</time>
      </trkpt>
      <trkpt lat="45.22782" lon="5.74384">
        <ele>839.40002441406</ele>
        <time>2021-11-06T08:50:37.000Z</time>
      </trkpt>
      <trkpt lat="45.22778" lon="5.74381">
        <ele>839.79998779297</ele>
        <time>2021-11-06T08:50:40.000Z</time>
      </trkpt>
      <trkpt lat="45.22775" lon="5.74377">
        <ele>840.40002441406</ele>
        <time>2021-11-06T08:50:42.000Z</time>
      </trkpt>
      <trkpt lat="45.22771" lon="5.74375">
        <ele>840.79998779297</ele>
        <time>2021-11-06T08:50:44.000Z</time>
      </trkpt>
      <trkpt lat="45.22768" lon="5.74372">
        <ele>841.20001220703</ele>
        <time>2021-11-06T08:50:46.000Z</time>
      </trkpt>
      <trkpt lat="45.22768" lon="5.74371">
        <ele>841.40002441406</ele>
        <time>2021-11-06T08:50:47.000Z</time>
      </trkpt>
      <trkpt lat="45.22766" lon="5.74369">
        <ele>841.59997558594</ele>
        <time>2021-11-06T08:50:48.000Z</time>
      </trkpt>
      <trkpt lat="45.22759" lon="5.74364">
        <ele>842.40002441406</ele>
        <time>2021-11-06T08:50:51.000Z</time>
      </trkpt>
      <trkpt lat="45.22757" lon="5.74363">
        <ele>842.59997558594</ele>
        <time>2021-11-06T08:50:52.000Z</time>
      </trkpt>
      <trkpt lat="45.22749" lon="5.74356">
        <ele>843.79998779297</ele>
        <time>2021-11-06T08:50:57.000Z</time>
      </trkpt>
      <trkpt lat="45.22741" lon="5.74349">
        <ele>845</ele>
        <time>2021-11-06T08:51:03.000Z</time>
      </trkpt>
      <trkpt lat="45.22735" lon="5.74345">
        <ele>846</ele>
        <time>2021-11-06T08:51:07.000Z</time>
      </trkpt>
      <trkpt lat="45.22729" lon="5.74342">
        <ele>846.59997558594</ele>
        <time>2021-11-06T08:51:10.000Z</time>
      </trkpt>
      <trkpt lat="45.22722" lon="5.74338">
        <ele>847.40002441406</ele>
        <time>2021-11-06T08:51:14.000Z</time>
      </trkpt>
      <trkpt lat="45.22719" lon="5.74336">
        <ele>848</ele>
        <time>2021-11-06T08:51:16.000Z</time>
      </trkpt>
      <trkpt lat="45.22712" lon="5.74332">
        <ele>848.40002441406</ele>
        <time>2021-11-06T08:51:19.000Z</time>
      </trkpt>
      <trkpt lat="45.22703" lon="5.74327">
        <ele>849.59997558594</ele>
        <time>2021-11-06T08:51:25.000Z</time>
      </trkpt>
      <trkpt lat="45.22697" lon="5.74318">
        <ele>850.79998779297</ele>
        <time>2021-11-06T08:51:30.000Z</time>
      </trkpt>
      <trkpt lat="45.22695" lon="5.74314">
        <ele>851.20001220703</ele>
        <time>2021-11-06T08:51:32.000Z</time>
      </trkpt>
      <trkpt lat="45.22692" lon="5.74308">
        <ele>851.79998779297</ele>
        <time>2021-11-06T08:51:35.000Z</time>
      </trkpt>
      <trkpt lat="45.22689" lon="5.74304">
        <ele>852.40002441406</ele>
        <time>2021-11-06T08:51:37.000Z</time>
      </trkpt>
      <trkpt lat="45.22684" lon="5.74301">
        <ele>852.79998779297</ele>
        <time>2021-11-06T08:51:40.000Z</time>
      </trkpt>
      <trkpt lat="45.22681" lon="5.74299">
        <ele>853.20001220703</ele>
        <time>2021-11-06T08:51:42.000Z</time>
      </trkpt>
      <trkpt lat="45.22679" lon="5.74298">
        <ele>853.40002441406</ele>
        <time>2021-11-06T08:51:43.000Z</time>
      </trkpt>
      <trkpt lat="45.22674" lon="5.74294">
        <ele>853.79998779297</ele>
        <time>2021-11-06T08:51:46.000Z</time>
      </trkpt>
      <trkpt lat="45.22672" lon="5.74292">
        <ele>854</ele>
        <time>2021-11-06T08:51:47.000Z</time>
      </trkpt>
      <trkpt lat="45.22664" lon="5.74289">
        <ele>855.20001220703</ele>
        <time>2021-11-06T08:51:52.000Z</time>
      </trkpt>
      <trkpt lat="45.22657" lon="5.74286">
        <ele>856.20001220703</ele>
        <time>2021-11-06T08:51:56.000Z</time>
      </trkpt>
      <trkpt lat="45.22655" lon="5.74286">
        <ele>856.40002441406</ele>
        <time>2021-11-06T08:51:57.000Z</time>
      </trkpt>
      <trkpt lat="45.22648" lon="5.74284">
        <ele>857.20001220703</ele>
        <time>2021-11-06T08:52:01.000Z</time>
      </trkpt>
      <trkpt lat="45.22642" lon="5.74283">
        <ele>857.79998779297</ele>
        <time>2021-11-06T08:52:05.000Z</time>
      </trkpt>
      <trkpt lat="45.22639" lon="5.74283">
        <ele>858.20001220703</ele>
        <time>2021-11-06T08:52:07.000Z</time>
      </trkpt>
      <trkpt lat="45.22631" lon="5.74282">
        <ele>859.20001220703</ele>
        <time>2021-11-06T08:52:11.000Z</time>
      </trkpt>
      <trkpt lat="45.22621" lon="5.74279">
        <ele>860.20001220703</ele>
        <time>2021-11-06T08:52:17.000Z</time>
      </trkpt>
      <trkpt lat="45.22617" lon="5.74277">
        <ele>860.79998779297</ele>
        <time>2021-11-06T08:52:19.000Z</time>
      </trkpt>
      <trkpt lat="45.22613" lon="5.74274">
        <ele>861.40002441406</ele>
        <time>2021-11-06T08:52:22.000Z</time>
      </trkpt>
      <trkpt lat="45.22611" lon="5.74273">
        <ele>861.59997558594</ele>
        <time>2021-11-06T08:52:23.000Z</time>
      </trkpt>
      <trkpt lat="45.22609" lon="5.74272">
        <ele>862.20001220703</ele>
        <time>2021-11-06T08:52:25.000Z</time>
      </trkpt>
      <trkpt lat="45.22607" lon="5.74272">
        <ele>862.40002441406</ele>
        <time>2021-11-06T08:52:26.000Z</time>
      </trkpt>
      <trkpt lat="45.22597" lon="5.74269">
        <ele>863.40002441406</ele>
        <time>2021-11-06T08:52:31.000Z</time>
      </trkpt>
      <trkpt lat="45.22595" lon="5.74268">
        <ele>863.59997558594</ele>
        <time>2021-11-06T08:52:32.000Z</time>
      </trkpt>
      <trkpt lat="45.2259" lon="5.74265">
        <ele>864.40002441406</ele>
        <time>2021-11-06T08:52:36.000Z</time>
      </trkpt>
      <trkpt lat="45.22588" lon="5.74265">
        <ele>864.79998779297</ele>
        <time>2021-11-06T08:52:37.000Z</time>
      </trkpt>
      <trkpt lat="45.22586" lon="5.74264">
        <ele>865</ele>
        <time>2021-11-06T08:52:38.000Z</time>
      </trkpt>
      <trkpt lat="45.22579" lon="5.74261">
        <ele>865.79998779297</ele>
        <time>2021-11-06T08:52:42.000Z</time>
      </trkpt>
      <trkpt lat="45.22577" lon="5.7426">
        <ele>866.20001220703</ele>
        <time>2021-11-06T08:52:43.000Z</time>
      </trkpt>
      <trkpt lat="45.22569" lon="5.74259">
        <ele>867</ele>
        <time>2021-11-06T08:52:48.000Z</time>
      </trkpt>
      <trkpt lat="45.22561" lon="5.74254">
        <ele>868</ele>
        <time>2021-11-06T08:52:53.000Z</time>
      </trkpt>
      <trkpt lat="45.22559" lon="5.74254">
        <ele>868.40002441406</ele>
        <time>2021-11-06T08:52:54.000Z</time>
      </trkpt>
      <trkpt lat="45.22553" lon="5.74251">
        <ele>869</ele>
        <time>2021-11-06T08:52:58.000Z</time>
      </trkpt>
      <trkpt lat="45.22547" lon="5.74248">
        <ele>869.59997558594</ele>
        <time>2021-11-06T08:53:01.000Z</time>
      </trkpt>
      <trkpt lat="45.22543" lon="5.74246">
        <ele>870.20001220703</ele>
        <time>2021-11-06T08:53:03.000Z</time>
      </trkpt>
      <trkpt lat="45.22534" lon="5.74241">
        <ele>871</ele>
        <time>2021-11-06T08:53:08.000Z</time>
      </trkpt>
      <trkpt lat="45.22532" lon="5.7424">
        <ele>871.40002441406</ele>
        <time>2021-11-06T08:53:09.000Z</time>
      </trkpt>
      <trkpt lat="45.22525" lon="5.74237">
        <ele>872.59997558594</ele>
        <time>2021-11-06T08:53:13.000Z</time>
      </trkpt>
      <trkpt lat="45.2252" lon="5.74233">
        <ele>873</ele>
        <time>2021-11-06T08:53:16.000Z</time>
      </trkpt>
      <trkpt lat="45.22514" lon="5.7423">
        <ele>873.59997558594</ele>
        <time>2021-11-06T08:53:19.000Z</time>
      </trkpt>
      <trkpt lat="45.22505" lon="5.74224">
        <ele>874.79998779297</ele>
        <time>2021-11-06T08:53:24.000Z</time>
      </trkpt>
      <trkpt lat="45.22494" lon="5.74219">
        <ele>875.79998779297</ele>
        <time>2021-11-06T08:53:30.000Z</time>
      </trkpt>
      <trkpt lat="45.22492" lon="5.74218">
        <ele>876</ele>
        <time>2021-11-06T08:53:31.000Z</time>
      </trkpt>
      <trkpt lat="45.22491" lon="5.74217">
        <ele>876.20001220703</ele>
        <time>2021-11-06T08:53:32.000Z</time>
      </trkpt>
      <trkpt lat="45.22486" lon="5.74213">
        <ele>876.79998779297</ele>
        <time>2021-11-06T08:53:35.000Z</time>
      </trkpt>
      <trkpt lat="45.22484" lon="5.74211">
        <ele>877</ele>
        <time>2021-11-06T08:53:36.000Z</time>
      </trkpt>
      <trkpt lat="45.22478" lon="5.74204">
        <ele>877.79998779297</ele>
        <time>2021-11-06T08:53:40.000Z</time>
      </trkpt>
      <trkpt lat="45.22477" lon="5.74202">
        <ele>878</ele>
        <time>2021-11-06T08:53:41.000Z</time>
      </trkpt>
      <trkpt lat="45.22474" lon="5.74197">
        <ele>878.40002441406</ele>
        <time>2021-11-06T08:53:43.000Z</time>
      </trkpt>
      <trkpt lat="45.2247" lon="5.74194">
        <ele>879</ele>
        <time>2021-11-06T08:53:45.000Z</time>
      </trkpt>
      <trkpt lat="45.22463" lon="5.74184">
        <ele>880.20001220703</ele>
        <time>2021-11-06T08:53:50.000Z</time>
      </trkpt>
      <trkpt lat="45.22462" lon="5.74182">
        <ele>880.20001220703</ele>
        <time>2021-11-06T08:53:51.000Z</time>
      </trkpt>
      <trkpt lat="45.22454" lon="5.74173">
        <ele>881</ele>
        <time>2021-11-06T08:53:56.000Z</time>
      </trkpt>
      <trkpt lat="45.22453" lon="5.74171">
        <ele>881.40002441406</ele>
        <time>2021-11-06T08:53:57.000Z</time>
      </trkpt>
      <trkpt lat="45.22446" lon="5.74162">
        <ele>882.40002441406</ele>
        <time>2021-11-06T08:54:02.000Z</time>
      </trkpt>
      <trkpt lat="45.22437" lon="5.74151">
        <ele>883.40002441406</ele>
        <time>2021-11-06T08:54:08.000Z</time>
      </trkpt>
      <trkpt lat="45.22435" lon="5.74148">
        <ele>883.79998779297</ele>
        <time>2021-11-06T08:54:10.000Z</time>
      </trkpt>
      <trkpt lat="45.22432" lon="5.74144">
        <ele>884.40002441406</ele>
        <time>2021-11-06T08:54:12.000Z</time>
      </trkpt>
      <trkpt lat="45.22426" lon="5.74133">
        <ele>885.40002441406</ele>
        <time>2021-11-06T08:54:17.000Z</time>
      </trkpt>
      <trkpt lat="45.22424" lon="5.7413">
        <ele>885.59997558594</ele>
        <time>2021-11-06T08:54:19.000Z</time>
      </trkpt>
      <trkpt lat="45.22418" lon="5.74121">
        <ele>886.59997558594</ele>
        <time>2021-11-06T08:54:24.000Z</time>
      </trkpt>
      <trkpt lat="45.22415" lon="5.74118">
        <ele>887</ele>
        <time>2021-11-06T08:54:26.000Z</time>
      </trkpt>
      <trkpt lat="45.22412" lon="5.74112">
        <ele>887.79998779297</ele>
        <time>2021-11-06T08:54:29.000Z</time>
      </trkpt>
      <trkpt lat="45.22408" lon="5.74108">
        <ele>888.40002441406</ele>
        <time>2021-11-06T08:54:32.000Z</time>
      </trkpt>
      <trkpt lat="45.22405" lon="5.74103">
        <ele>889.20001220703</ele>
        <time>2021-11-06T08:54:35.000Z</time>
      </trkpt>
      <trkpt lat="45.224" lon="5.74098">
        <ele>889.79998779297</ele>
        <time>2021-11-06T08:54:38.000Z</time>
      </trkpt>
      <trkpt lat="45.22398" lon="5.74095">
        <ele>890.20001220703</ele>
        <time>2021-11-06T08:54:40.000Z</time>
      </trkpt>
      <trkpt lat="45.22392" lon="5.7409">
        <ele>891.20001220703</ele>
        <time>2021-11-06T08:54:44.000Z</time>
      </trkpt>
      <trkpt lat="45.22386" lon="5.74083">
        <ele>892.20001220703</ele>
        <time>2021-11-06T08:54:48.000Z</time>
      </trkpt>
      <trkpt lat="45.22386" lon="5.7408">
        <ele>892.20001220703</ele>
        <time>2021-11-06T08:54:49.000Z</time>
      </trkpt>
      <trkpt lat="45.22386" lon="5.74078">
        <ele>892.20001220703</ele>
        <time>2021-11-06T08:54:50.000Z</time>
      </trkpt>
      <trkpt lat="45.22387" lon="5.74075">
        <ele>892.40002441406</ele>
        <time>2021-11-06T08:54:51.000Z</time>
      </trkpt>
      <trkpt lat="45.22391" lon="5.74072">
        <ele>892.79998779297</ele>
        <time>2021-11-06T08:54:53.000Z</time>
      </trkpt>
      <trkpt lat="45.22398" lon="5.74071">
        <ele>893.59997558594</ele>
        <time>2021-11-06T08:54:57.000Z</time>
      </trkpt>
      <trkpt lat="45.224" lon="5.7407">
        <ele>893.59997558594</ele>
        <time>2021-11-06T08:54:58.000Z</time>
      </trkpt>
      <trkpt lat="45.22402" lon="5.74068">
        <ele>894.59997558594</ele>
        <time>2021-11-06T08:55:01.000Z</time>
      </trkpt>
      <trkpt lat="45.22404" lon="5.74068">
        <ele>894.79998779297</ele>
        <time>2021-11-06T08:55:02.000Z</time>
      </trkpt>
      <trkpt lat="45.22405" lon="5.74068">
        <ele>895</ele>
        <time>2021-11-06T08:55:03.000Z</time>
      </trkpt>
      <trkpt lat="45.22407" lon="5.74068">
        <ele>895.79998779297</ele>
        <time>2021-11-06T08:55:05.000Z</time>
      </trkpt>
      <trkpt lat="45.22409" lon="5.74068">
        <ele>896.40002441406</ele>
        <time>2021-11-06T08:55:06.000Z</time>
      </trkpt>
      <trkpt lat="45.2241" lon="5.74066">
        <ele>897</ele>
        <time>2021-11-06T08:55:08.000Z</time>
      </trkpt>
      <trkpt lat="45.22411" lon="5.74066">
        <ele>897.20001220703</ele>
        <time>2021-11-06T08:55:09.000Z</time>
      </trkpt>
      <trkpt lat="45.22412" lon="5.74065">
        <ele>897.20001220703</ele>
        <time>2021-11-06T08:55:10.000Z</time>
      </trkpt>
      <trkpt lat="45.22414" lon="5.74064">
        <ele>898</ele>
        <time>2021-11-06T08:55:12.000Z</time>
      </trkpt>
      <trkpt lat="45.22417" lon="5.74063">
        <ele>898.79998779297</ele>
        <time>2021-11-06T08:55:16.000Z</time>
      </trkpt>
      <trkpt lat="45.22417" lon="5.74062">
        <ele>899</ele>
        <time>2021-11-06T08:55:17.000Z</time>
      </trkpt>
      <trkpt lat="45.22418" lon="5.74062">
        <ele>899.40002441406</ele>
        <time>2021-11-06T08:55:18.000Z</time>
      </trkpt>
      <trkpt lat="45.2242" lon="5.7406">
        <ele>900</ele>
        <time>2021-11-06T08:55:20.000Z</time>
      </trkpt>
      <trkpt lat="45.22422" lon="5.74059">
        <ele>900.79998779297</ele>
        <time>2021-11-06T08:55:23.000Z</time>
      </trkpt>
      <trkpt lat="45.22423" lon="5.74058">
        <ele>901</ele>
        <time>2021-11-06T08:55:24.000Z</time>
      </trkpt>
      <trkpt lat="45.22424" lon="5.74057">
        <ele>901.40002441406</ele>
        <time>2021-11-06T08:55:25.000Z</time>
      </trkpt>
      <trkpt lat="45.22425" lon="5.74056">
        <ele>901.79998779297</ele>
        <time>2021-11-06T08:55:26.000Z</time>
      </trkpt>
      <trkpt lat="45.22426" lon="5.74054">
        <ele>902.59997558594</ele>
        <time>2021-11-06T08:55:29.000Z</time>
      </trkpt>
      <trkpt lat="45.22428" lon="5.74053">
        <ele>903</ele>
        <time>2021-11-06T08:55:31.000Z</time>
      </trkpt>
      <trkpt lat="45.2243" lon="5.74051">
        <ele>903.79998779297</ele>
        <time>2021-11-06T08:55:33.000Z</time>
      </trkpt>
      <trkpt lat="45.22432" lon="5.74048">
        <ele>904.79998779297</ele>
        <time>2021-11-06T08:55:37.000Z</time>
      </trkpt>
      <trkpt lat="45.22433" lon="5.74046">
        <ele>905.59997558594</ele>
        <time>2021-11-06T08:55:39.000Z</time>
      </trkpt>
      <trkpt lat="45.22434" lon="5.74046">
        <ele>906</ele>
        <time>2021-11-06T08:55:40.000Z</time>
      </trkpt>
      <trkpt lat="45.22436" lon="5.74041">
        <ele>907.20001220703</ele>
        <time>2021-11-06T08:55:45.000Z</time>
      </trkpt>
      <trkpt lat="45.22437" lon="5.74038">
        <ele>908.40002441406</ele>
        <time>2021-11-06T08:55:48.000Z</time>
      </trkpt>
      <trkpt lat="45.22439" lon="5.74037">
        <ele>908.79998779297</ele>
        <time>2021-11-06T08:55:50.000Z</time>
      </trkpt>
      <trkpt lat="45.22439" lon="5.74036">
        <ele>909</ele>
        <time>2021-11-06T08:55:51.000Z</time>
      </trkpt>
      <trkpt lat="45.2244" lon="5.74035">
        <ele>909.40002441406</ele>
        <time>2021-11-06T08:55:53.000Z</time>
      </trkpt>
      <trkpt lat="45.22442" lon="5.74033">
        <ele>910.79998779297</ele>
        <time>2021-11-06T08:55:56.000Z</time>
      </trkpt>
      <trkpt lat="45.22444" lon="5.74031">
        <ele>911.40002441406</ele>
        <time>2021-11-06T08:55:59.000Z</time>
      </trkpt>
      <trkpt lat="45.22445" lon="5.74028">
        <ele>912.20001220703</ele>
        <time>2021-11-06T08:56:02.000Z</time>
      </trkpt>
      <trkpt lat="45.22447" lon="5.74025">
        <ele>913</ele>
        <time>2021-11-06T08:56:05.000Z</time>
      </trkpt>
      <trkpt lat="45.22448" lon="5.74024">
        <ele>913.20001220703</ele>
        <time>2021-11-06T08:56:06.000Z</time>
      </trkpt>
      <trkpt lat="45.22448" lon="5.74021">
        <ele>913.79998779297</ele>
        <time>2021-11-06T08:56:09.000Z</time>
      </trkpt>
      <trkpt lat="45.22449" lon="5.7402">
        <ele>914.20001220703</ele>
        <time>2021-11-06T08:56:10.000Z</time>
      </trkpt>
      <trkpt lat="45.22449" lon="5.74018">
        <ele>915</ele>
        <time>2021-11-06T08:56:12.000Z</time>
      </trkpt>
      <trkpt lat="45.2245" lon="5.74017">
        <ele>915.40002441406</ele>
        <time>2021-11-06T08:56:13.000Z</time>
      </trkpt>
      <trkpt lat="45.22451" lon="5.74013">
        <ele>916.59997558594</ele>
        <time>2021-11-06T08:56:17.000Z</time>
      </trkpt>
      <trkpt lat="45.22452" lon="5.74012">
        <ele>917</ele>
        <time>2021-11-06T08:56:18.000Z</time>
      </trkpt>
      <trkpt lat="45.22452" lon="5.74011">
        <ele>917.40002441406</ele>
        <time>2021-11-06T08:56:19.000Z</time>
      </trkpt>
      <trkpt lat="45.22453" lon="5.7401">
        <ele>917.79998779297</ele>
        <time>2021-11-06T08:56:20.000Z</time>
      </trkpt>
      <trkpt lat="45.22455" lon="5.74006">
        <ele>918.79998779297</ele>
        <time>2021-11-06T08:56:24.000Z</time>
      </trkpt>
      <trkpt lat="45.22455" lon="5.74005">
        <ele>919.20001220703</ele>
        <time>2021-11-06T08:56:25.000Z</time>
      </trkpt>
      <trkpt lat="45.22455" lon="5.74003">
        <ele>920</ele>
        <time>2021-11-06T08:56:27.000Z</time>
      </trkpt>
      <trkpt lat="45.22456" lon="5.73999">
        <ele>921</ele>
        <time>2021-11-06T08:56:31.000Z</time>
      </trkpt>
      <trkpt lat="45.22456" lon="5.73998">
        <ele>921.40002441406</ele>
        <time>2021-11-06T08:56:32.000Z</time>
      </trkpt>
      <trkpt lat="45.22458" lon="5.73996">
        <ele>922</ele>
        <time>2021-11-06T08:56:34.000Z</time>
      </trkpt>
      <trkpt lat="45.22458" lon="5.73993">
        <ele>923.20001220703</ele>
        <time>2021-11-06T08:56:38.000Z</time>
      </trkpt>
      <trkpt lat="45.22457" lon="5.73992">
        <ele>923.40002441406</ele>
        <time>2021-11-06T08:56:39.000Z</time>
      </trkpt>
      <trkpt lat="45.22451" lon="5.73987">
        <ele>924.20001220703</ele>
        <time>2021-11-06T08:56:45.000Z</time>
      </trkpt>
      <trkpt lat="45.22449" lon="5.73983">
        <ele>924.40002441406</ele>
        <time>2021-11-06T08:56:47.000Z</time>
      </trkpt>
      <trkpt lat="45.22445" lon="5.73975">
        <ele>925.40002441406</ele>
        <time>2021-11-06T08:56:53.000Z</time>
      </trkpt>
      <trkpt lat="45.22443" lon="5.73973">
        <ele>925.79998779297</ele>
        <time>2021-11-06T08:56:56.000Z</time>
      </trkpt>
      <trkpt lat="45.22441" lon="5.7397">
        <ele>926</ele>
        <time>2021-11-06T08:56:58.000Z</time>
      </trkpt>
      <trkpt lat="45.2244" lon="5.73969">
        <ele>926.59997558594</ele>
        <time>2021-11-06T08:56:59.000Z</time>
      </trkpt>
      <trkpt lat="45.22436" lon="5.73962">
        <ele>928</ele>
        <time>2021-11-06T08:57:04.000Z</time>
      </trkpt>
      <trkpt lat="45.22436" lon="5.73961">
        <ele>928.20001220703</ele>
        <time>2021-11-06T08:57:05.000Z</time>
      </trkpt>
      <trkpt lat="45.22441" lon="5.73959">
        <ele>929.20001220703</ele>
        <time>2021-11-06T08:57:09.000Z</time>
      </trkpt>
      <trkpt lat="45.22442" lon="5.73957">
        <ele>929.79998779297</ele>
        <time>2021-11-06T08:57:12.000Z</time>
      </trkpt>
      <trkpt lat="45.22445" lon="5.73954">
        <ele>930.40002441406</ele>
        <time>2021-11-06T08:57:15.000Z</time>
      </trkpt>
      <trkpt lat="45.22446" lon="5.73951">
        <ele>931.59997558594</ele>
        <time>2021-11-06T08:57:18.000Z</time>
      </trkpt>
      <trkpt lat="45.22447" lon="5.73949">
        <ele>932.40002441406</ele>
        <time>2021-11-06T08:57:21.000Z</time>
      </trkpt>
      <trkpt lat="45.22447" lon="5.73948">
        <ele>932.79998779297</ele>
        <time>2021-11-06T08:57:22.000Z</time>
      </trkpt>
      <trkpt lat="45.22448" lon="5.73944">
        <ele>934</ele>
        <time>2021-11-06T08:57:26.000Z</time>
      </trkpt>
      <trkpt lat="45.22448" lon="5.73942">
        <ele>934.59997558594</ele>
        <time>2021-11-06T08:57:29.000Z</time>
      </trkpt>
      <trkpt lat="45.22448" lon="5.7394">
        <ele>935</ele>
        <time>2021-11-06T08:57:31.000Z</time>
      </trkpt>
      <trkpt lat="45.22448" lon="5.73939">
        <ele>935.40002441406</ele>
        <time>2021-11-06T08:57:32.000Z</time>
      </trkpt>
      <trkpt lat="45.22448" lon="5.73936">
        <ele>936.40002441406</ele>
        <time>2021-11-06T08:57:34.000Z</time>
      </trkpt>
      <trkpt lat="45.22448" lon="5.73935">
        <ele>936.59997558594</ele>
        <time>2021-11-06T08:57:35.000Z</time>
      </trkpt>
      <trkpt lat="45.22447" lon="5.73934">
        <ele>937</ele>
        <time>2021-11-06T08:57:37.000Z</time>
      </trkpt>
      <trkpt lat="45.22447" lon="5.73931">
        <ele>937.79998779297</ele>
        <time>2021-11-06T08:57:40.000Z</time>
      </trkpt>
      <trkpt lat="45.22447" lon="5.73928">
        <ele>939</ele>
        <time>2021-11-06T08:57:43.000Z</time>
      </trkpt>
      <trkpt lat="45.22447" lon="5.73927">
        <ele>939.40002441406</ele>
        <time>2021-11-06T08:57:45.000Z</time>
      </trkpt>
      <trkpt lat="45.22446" lon="5.73926">
        <ele>940</ele>
        <time>2021-11-06T08:57:47.000Z</time>
      </trkpt>
      <trkpt lat="45.22444" lon="5.73923">
        <ele>941.59997558594</ele>
        <time>2021-11-06T08:57:51.000Z</time>
      </trkpt>
      <trkpt lat="45.22442" lon="5.73921">
        <ele>942.59997558594</ele>
        <time>2021-11-06T08:57:54.000Z</time>
      </trkpt>
      <trkpt lat="45.22442" lon="5.73921">
        <ele>942.59997558594</ele>
        <time>2021-11-06T08:57:55.000Z</time>
      </trkpt>
      <trkpt lat="45.22438" lon="5.7392">
        <ele>943.59997558594</ele>
        <time>2021-11-06T08:57:58.000Z</time>
      </trkpt>
      <trkpt lat="45.22438" lon="5.73919">
        <ele>943.79998779297</ele>
        <time>2021-11-06T08:57:59.000Z</time>
      </trkpt>
      <trkpt lat="45.22437" lon="5.73919">
        <ele>943.79998779297</ele>
        <time>2021-11-06T08:58:00.000Z</time>
      </trkpt>
      <trkpt lat="45.22437" lon="5.73916">
        <ele>945</ele>
        <time>2021-11-06T08:58:05.000Z</time>
      </trkpt>
      <trkpt lat="45.22436" lon="5.73914">
        <ele>945.40002441406</ele>
        <time>2021-11-06T08:58:07.000Z</time>
      </trkpt>
      <trkpt lat="45.22436" lon="5.73913">
        <ele>945.79998779297</ele>
        <time>2021-11-06T08:58:08.000Z</time>
      </trkpt>
      <trkpt lat="45.22435" lon="5.73912">
        <ele>946</ele>
        <time>2021-11-06T08:58:09.000Z</time>
      </trkpt>
      <trkpt lat="45.22433" lon="5.73906">
        <ele>947.40002441406</ele>
        <time>2021-11-06T08:58:14.000Z</time>
      </trkpt>
      <trkpt lat="45.22432" lon="5.73902">
        <ele>948.40002441406</ele>
        <time>2021-11-06T08:58:18.000Z</time>
      </trkpt>
      <trkpt lat="45.22432" lon="5.73899">
        <ele>949.79998779297</ele>
        <time>2021-11-06T08:58:22.000Z</time>
      </trkpt>
      <trkpt lat="45.22431" lon="5.73898">
        <ele>950.20001220703</ele>
        <time>2021-11-06T08:58:24.000Z</time>
      </trkpt>
      <trkpt lat="45.22431" lon="5.73895">
        <ele>951</ele>
        <time>2021-11-06T08:58:28.000Z</time>
      </trkpt>
      <trkpt lat="45.22431" lon="5.73893">
        <ele>951.40002441406</ele>
        <time>2021-11-06T08:58:29.000Z</time>
      </trkpt>
      <trkpt lat="45.22432" lon="5.73891">
        <ele>952.20001220703</ele>
        <time>2021-11-06T08:58:31.000Z</time>
      </trkpt>
      <trkpt lat="45.22432" lon="5.73887">
        <ele>953.20001220703</ele>
        <time>2021-11-06T08:58:34.000Z</time>
      </trkpt>
      <trkpt lat="45.22432" lon="5.73886">
        <ele>953.59997558594</ele>
        <time>2021-11-06T08:58:36.000Z</time>
      </trkpt>
      <trkpt lat="45.22432" lon="5.73885">
        <ele>954</ele>
        <time>2021-11-06T08:58:38.000Z</time>
      </trkpt>
      <trkpt lat="45.22432" lon="5.73884">
        <ele>954.20001220703</ele>
        <time>2021-11-06T08:58:39.000Z</time>
      </trkpt>
      <trkpt lat="45.22432" lon="5.73882">
        <ele>955.20001220703</ele>
        <time>2021-11-06T08:58:42.000Z</time>
      </trkpt>
      <trkpt lat="45.2243" lon="5.7388">
        <ele>956.40002441406</ele>
        <time>2021-11-06T08:58:47.000Z</time>
      </trkpt>
      <trkpt lat="45.22429" lon="5.73879">
        <ele>956.59997558594</ele>
        <time>2021-11-06T08:58:48.000Z</time>
      </trkpt>
      <trkpt lat="45.2243" lon="5.73878">
        <ele>957.40002441406</ele>
        <time>2021-11-06T08:58:50.000Z</time>
      </trkpt>
      <trkpt lat="45.22431" lon="5.73876">
        <ele>958.59997558594</ele>
        <time>2021-11-06T08:58:53.000Z</time>
      </trkpt>
      <trkpt lat="45.22429" lon="5.73874">
        <ele>959.59997558594</ele>
        <time>2021-11-06T08:58:59.000Z</time>
      </trkpt>
      <trkpt lat="45.22428" lon="5.73869">
        <ele>960.59997558594</ele>
        <time>2021-11-06T08:59:03.000Z</time>
      </trkpt>
      <trkpt lat="45.22427" lon="5.73868">
        <ele>961.20001220703</ele>
        <time>2021-11-06T08:59:06.000Z</time>
      </trkpt>
      <trkpt lat="45.22428" lon="5.73865">
        <ele>962</ele>
        <time>2021-11-06T08:59:09.000Z</time>
      </trkpt>
      <trkpt lat="45.22429" lon="5.73864">
        <ele>962.59997558594</ele>
        <time>2021-11-06T08:59:12.000Z</time>
      </trkpt>
      <trkpt lat="45.22429" lon="5.73863">
        <ele>963</ele>
        <time>2021-11-06T08:59:13.000Z</time>
      </trkpt>
      <trkpt lat="45.22428" lon="5.73861">
        <ele>964</ele>
        <time>2021-11-06T08:59:18.000Z</time>
      </trkpt>
      <trkpt lat="45.22426" lon="5.73858">
        <ele>965.40002441406</ele>
        <time>2021-11-06T08:59:23.000Z</time>
      </trkpt>
      <trkpt lat="45.22425" lon="5.73858">
        <ele>966.20001220703</ele>
        <time>2021-11-06T08:59:25.000Z</time>
      </trkpt>
      <trkpt lat="45.22424" lon="5.73857">
        <ele>966.59997558594</ele>
        <time>2021-11-06T08:59:27.000Z</time>
      </trkpt>
      <trkpt lat="45.22425" lon="5.73855">
        <ele>967.79998779297</ele>
        <time>2021-11-06T08:59:30.000Z</time>
      </trkpt>
      <trkpt lat="45.22424" lon="5.73854">
        <ele>968.20001220703</ele>
        <time>2021-11-06T08:59:32.000Z</time>
      </trkpt>
      <trkpt lat="45.22423" lon="5.73852">
        <ele>969</ele>
        <time>2021-11-06T08:59:36.000Z</time>
      </trkpt>
      <trkpt lat="45.2242" lon="5.73851">
        <ele>970</ele>
        <time>2021-11-06T08:59:40.000Z</time>
      </trkpt>
      <trkpt lat="45.2242" lon="5.73849">
        <ele>970.40002441406</ele>
        <time>2021-11-06T08:59:42.000Z</time>
      </trkpt>
      <trkpt lat="45.22418" lon="5.73848">
        <ele>971</ele>
        <time>2021-11-06T08:59:45.000Z</time>
      </trkpt>
      <trkpt lat="45.22416" lon="5.73846">
        <ele>972.40002441406</ele>
        <time>2021-11-06T08:59:49.000Z</time>
      </trkpt>
      <trkpt lat="45.22415" lon="5.73846">
        <ele>972.40002441406</ele>
        <time>2021-11-06T08:59:50.000Z</time>
      </trkpt>
      <trkpt lat="45.22411" lon="5.73844">
        <ele>973.40002441406</ele>
        <time>2021-11-06T08:59:56.000Z</time>
      </trkpt>
      <trkpt lat="45.22409" lon="5.73842">
        <ele>973.59997558594</ele>
        <time>2021-11-06T08:59:58.000Z</time>
      </trkpt>
      <trkpt lat="45.22405" lon="5.73839">
        <ele>974.40002441406</ele>
        <time>2021-11-06T09:00:02.000Z</time>
      </trkpt>
      <trkpt lat="45.22404" lon="5.73838">
        <ele>974.59997558594</ele>
        <time>2021-11-06T09:00:03.000Z</time>
      </trkpt>
      <trkpt lat="45.22403" lon="5.73837">
        <ele>974.79998779297</ele>
        <time>2021-11-06T09:00:04.000Z</time>
      </trkpt>
      <trkpt lat="45.224" lon="5.73832">
        <ele>975.59997558594</ele>
        <time>2021-11-06T09:00:08.000Z</time>
      </trkpt>
      <trkpt lat="45.22399" lon="5.73826">
        <ele>976.20001220703</ele>
        <time>2021-11-06T09:00:11.000Z</time>
      </trkpt>
      <trkpt lat="45.22398" lon="5.73821">
        <ele>976.79998779297</ele>
        <time>2021-11-06T09:00:14.000Z</time>
      </trkpt>
      <trkpt lat="45.22396" lon="5.73817">
        <ele>977.40002441406</ele>
        <time>2021-11-06T09:00:17.000Z</time>
      </trkpt>
      <trkpt lat="45.22394" lon="5.73816">
        <ele>977.40002441406</ele>
        <time>2021-11-06T09:00:20.000Z</time>
      </trkpt>
      <trkpt lat="45.22389" lon="5.73814">
        <ele>977.40002441406</ele>
        <time>2021-11-06T09:00:23.000Z</time>
      </trkpt>
      <trkpt lat="45.2238" lon="5.73812">
        <ele>977.59997558594</ele>
        <time>2021-11-06T09:00:29.000Z</time>
      </trkpt>
      <trkpt lat="45.2237" lon="5.73809">
        <ele>977.79998779297</ele>
        <time>2021-11-06T09:00:34.000Z</time>
      </trkpt>
      <trkpt lat="45.22368" lon="5.73804">
        <ele>977.79998779297</ele>
        <time>2021-11-06T09:00:36.000Z</time>
      </trkpt>
      <trkpt lat="45.22366" lon="5.73799">
        <ele>977.79998779297</ele>
        <time>2021-11-06T09:00:38.000Z</time>
      </trkpt>
      <trkpt lat="45.22363" lon="5.73794">
        <ele>978</ele>
        <time>2021-11-06T09:00:40.000Z</time>
      </trkpt>
      <trkpt lat="45.22361" lon="5.7379">
        <ele>978</ele>
        <time>2021-11-06T09:00:41.000Z</time>
      </trkpt>
      <trkpt lat="45.22357" lon="5.73769">
        <ele>978.20001220703</ele>
        <time>2021-11-06T09:00:48.000Z</time>
      </trkpt>
      <trkpt lat="45.22361" lon="5.73746">
        <ele>977.40002441406</ele>
        <time>2021-11-06T09:00:56.000Z</time>
      </trkpt>
      <trkpt lat="45.22362" lon="5.73734">
        <ele>977</ele>
        <time>2021-11-06T09:01:00.000Z</time>
      </trkpt>
      <trkpt lat="45.22364" lon="5.73719">
        <ele>976.20001220703</ele>
        <time>2021-11-06T09:01:05.000Z</time>
      </trkpt>
      <trkpt lat="45.22364" lon="5.73715">
        <ele>976</ele>
        <time>2021-11-06T09:01:07.000Z</time>
      </trkpt>
      <trkpt lat="45.2236" lon="5.73698">
        <ele>976.20001220703</ele>
        <time>2021-11-06T09:01:12.000Z</time>
      </trkpt>
      <trkpt lat="45.22362" lon="5.73688">
        <ele>976.79998779297</ele>
        <time>2021-11-06T09:01:17.000Z</time>
      </trkpt>
      <trkpt lat="45.22363" lon="5.73687">
        <ele>977</ele>
        <time>2021-11-06T09:01:18.000Z</time>
      </trkpt>
      <trkpt lat="45.22362" lon="5.73686">
        <ele>977.20001220703</ele>
        <time>2021-11-06T09:01:19.000Z</time>
      </trkpt>
      <trkpt lat="45.22362" lon="5.73688">
        <ele>977.20001220703</ele>
        <time>2021-11-06T09:01:21.000Z</time>
      </trkpt>
      <trkpt lat="45.22357" lon="5.73685">
        <ele>978</ele>
        <time>2021-11-06T09:01:27.000Z</time>
      </trkpt>
      <trkpt lat="45.22355" lon="5.73684">
        <ele>978.40002441406</ele>
        <time>2021-11-06T09:01:28.000Z</time>
      </trkpt>
      <trkpt lat="45.22344" lon="5.73681">
        <ele>979</ele>
        <time>2021-11-06T09:01:35.000Z</time>
      </trkpt>
      <trkpt lat="45.2234" lon="5.73681">
        <ele>979.20001220703</ele>
        <time>2021-11-06T09:01:37.000Z</time>
      </trkpt>
      <trkpt lat="45.22335" lon="5.73682">
        <ele>979.79998779297</ele>
        <time>2021-11-06T09:01:42.000Z</time>
      </trkpt>
      <trkpt lat="45.22332" lon="5.73682">
        <ele>980.40002441406</ele>
        <time>2021-11-06T09:01:44.000Z</time>
      </trkpt>
      <trkpt lat="45.22331" lon="5.73682">
        <ele>980.79998779297</ele>
        <time>2021-11-06T09:01:45.000Z</time>
      </trkpt>
      <trkpt lat="45.22327" lon="5.73681">
        <ele>981.59997558594</ele>
        <time>2021-11-06T09:01:48.000Z</time>
      </trkpt>
      <trkpt lat="45.22321" lon="5.73679">
        <ele>982.59997558594</ele>
        <time>2021-11-06T09:01:52.000Z</time>
      </trkpt>
      <trkpt lat="45.22315" lon="5.73677">
        <ele>983.20001220703</ele>
        <time>2021-11-06T09:01:55.000Z</time>
      </trkpt>
      <trkpt lat="45.22312" lon="5.73675">
        <ele>983.59997558594</ele>
        <time>2021-11-06T09:01:57.000Z</time>
      </trkpt>
      <trkpt lat="45.22308" lon="5.73673">
        <ele>984.59997558594</ele>
        <time>2021-11-06T09:02:02.000Z</time>
      </trkpt>
      <trkpt lat="45.22305" lon="5.73672">
        <ele>986</ele>
        <time>2021-11-06T09:02:06.000Z</time>
      </trkpt>
      <trkpt lat="45.22304" lon="5.73672">
        <ele>986.20001220703</ele>
        <time>2021-11-06T09:02:07.000Z</time>
      </trkpt>
      <trkpt lat="45.22303" lon="5.73671">
        <ele>986.40002441406</ele>
        <time>2021-11-06T09:02:08.000Z</time>
      </trkpt>
      <trkpt lat="45.22301" lon="5.73671">
        <ele>987</ele>
        <time>2021-11-06T09:02:10.000Z</time>
      </trkpt>
      <trkpt lat="45.22299" lon="5.7367">
        <ele>987.20001220703</ele>
        <time>2021-11-06T09:02:11.000Z</time>
      </trkpt>
      <trkpt lat="45.22297" lon="5.73668">
        <ele>987.40002441406</ele>
        <time>2021-11-06T09:02:13.000Z</time>
      </trkpt>
      <trkpt lat="45.22296" lon="5.73667">
        <ele>988</ele>
        <time>2021-11-06T09:02:15.000Z</time>
      </trkpt>
      <trkpt lat="45.22295" lon="5.73667">
        <ele>988.40002441406</ele>
        <time>2021-11-06T09:02:16.000Z</time>
      </trkpt>
      <trkpt lat="45.22294" lon="5.73668">
        <ele>988.59997558594</ele>
        <time>2021-11-06T09:02:17.000Z</time>
      </trkpt>
      <trkpt lat="45.22293" lon="5.73668">
        <ele>989</ele>
        <time>2021-11-06T09:02:19.000Z</time>
      </trkpt>
      <trkpt lat="45.22292" lon="5.73667">
        <ele>989.40002441406</ele>
        <time>2021-11-06T09:02:21.000Z</time>
      </trkpt>
      <trkpt lat="45.22291" lon="5.73667">
        <ele>989.79998779297</ele>
        <time>2021-11-06T09:02:22.000Z</time>
      </trkpt>
      <trkpt lat="45.22288" lon="5.73668">
        <ele>990.59997558594</ele>
        <time>2021-11-06T09:02:25.000Z</time>
      </trkpt>
      <trkpt lat="45.22286" lon="5.73668">
        <ele>991</ele>
        <time>2021-11-06T09:02:27.000Z</time>
      </trkpt>
      <trkpt lat="45.22284" lon="5.73667">
        <ele>991.59997558594</ele>
        <time>2021-11-06T09:02:29.000Z</time>
      </trkpt>
      <trkpt lat="45.2228" lon="5.73666">
        <ele>992.20001220703</ele>
        <time>2021-11-06T09:02:32.000Z</time>
      </trkpt>
      <trkpt lat="45.22278" lon="5.73665">
        <ele>992.79998779297</ele>
        <time>2021-11-06T09:02:34.000Z</time>
      </trkpt>
      <trkpt lat="45.22277" lon="5.73666">
        <ele>993</ele>
        <time>2021-11-06T09:02:35.000Z</time>
      </trkpt>
      <trkpt lat="45.22276" lon="5.73666">
        <ele>993.20001220703</ele>
        <time>2021-11-06T09:02:37.000Z</time>
      </trkpt>
      <trkpt lat="45.22274" lon="5.73666">
        <ele>994</ele>
        <time>2021-11-06T09:02:40.000Z</time>
      </trkpt>
      <trkpt lat="45.22272" lon="5.73666">
        <ele>994.20001220703</ele>
        <time>2021-11-06T09:02:42.000Z</time>
      </trkpt>
      <trkpt lat="45.22269" lon="5.73666">
        <ele>995</ele>
        <time>2021-11-06T09:02:46.000Z</time>
      </trkpt>
      <trkpt lat="45.22268" lon="5.73666">
        <ele>995.20001220703</ele>
        <time>2021-11-06T09:02:47.000Z</time>
      </trkpt>
      <trkpt lat="45.22267" lon="5.73665">
        <ele>995.40002441406</ele>
        <time>2021-11-06T09:02:48.000Z</time>
      </trkpt>
      <trkpt lat="45.22262" lon="5.73661">
        <ele>996.20001220703</ele>
        <time>2021-11-06T09:02:52.000Z</time>
      </trkpt>
      <trkpt lat="45.22258" lon="5.7366">
        <ele>996.40002441406</ele>
        <time>2021-11-06T09:02:54.000Z</time>
      </trkpt>
      <trkpt lat="45.22255" lon="5.7366">
        <ele>997</ele>
        <time>2021-11-06T09:02:56.000Z</time>
      </trkpt>
      <trkpt lat="45.22252" lon="5.73657">
        <ele>997.20001220703</ele>
        <time>2021-11-06T09:02:58.000Z</time>
      </trkpt>
      <trkpt lat="45.22246" lon="5.73654">
        <ele>998</ele>
        <time>2021-11-06T09:03:02.000Z</time>
      </trkpt>
      <trkpt lat="45.22243" lon="5.73653">
        <ele>998.40002441406</ele>
        <time>2021-11-06T09:03:04.000Z</time>
      </trkpt>
      <trkpt lat="45.22233" lon="5.73649">
        <ele>999.20001220703</ele>
        <time>2021-11-06T09:03:10.000Z</time>
      </trkpt>
      <trkpt lat="45.22232" lon="5.73647">
        <ele>999.40002441406</ele>
        <time>2021-11-06T09:03:11.000Z</time>
      </trkpt>
      <trkpt lat="45.22221" lon="5.73639">
        <ele>1000.4000244141</ele>
        <time>2021-11-06T09:03:20.000Z</time>
      </trkpt>
      <trkpt lat="45.22212" lon="5.73631">
        <ele>1001.200012207</ele>
        <time>2021-11-06T09:03:27.000Z</time>
      </trkpt>
      <trkpt lat="45.2221" lon="5.73628">
        <ele>1001.5999755859</ele>
        <time>2021-11-06T09:03:29.000Z</time>
      </trkpt>
      <trkpt lat="45.22202" lon="5.73622">
        <ele>1002.200012207</ele>
        <time>2021-11-06T09:03:34.000Z</time>
      </trkpt>
      <trkpt lat="45.222" lon="5.73619">
        <ele>1002.5999755859</ele>
        <time>2021-11-06T09:03:37.000Z</time>
      </trkpt>
      <trkpt lat="45.22194" lon="5.73613">
        <ele>1003</ele>
        <time>2021-11-06T09:03:41.000Z</time>
      </trkpt>
      <trkpt lat="45.22186" lon="5.73605">
        <ele>1003.799987793</ele>
        <time>2021-11-06T09:03:47.000Z</time>
      </trkpt>
      <trkpt lat="45.22185" lon="5.73603">
        <ele>1004</ele>
        <time>2021-11-06T09:03:48.000Z</time>
      </trkpt>
      <trkpt lat="45.22179" lon="5.73594">
        <ele>1005</ele>
        <time>2021-11-06T09:03:55.000Z</time>
      </trkpt>
      <trkpt lat="45.22174" lon="5.7359">
        <ele>1006.200012207</ele>
        <time>2021-11-06T09:04:00.000Z</time>
      </trkpt>
      <trkpt lat="45.22171" lon="5.73588">
        <ele>1006.799987793</ele>
        <time>2021-11-06T09:04:03.000Z</time>
      </trkpt>
      <trkpt lat="45.22171" lon="5.73587">
        <ele>1006.799987793</ele>
        <time>2021-11-06T09:04:04.000Z</time>
      </trkpt>
      <trkpt lat="45.2217" lon="5.73585">
        <ele>1007.4000244141</ele>
        <time>2021-11-06T09:04:05.000Z</time>
      </trkpt>
      <trkpt lat="45.22167" lon="5.73576">
        <ele>1008.5999755859</ele>
        <time>2021-11-06T09:04:09.000Z</time>
      </trkpt>
      <trkpt lat="45.22166" lon="5.73574">
        <ele>1008.799987793</ele>
        <time>2021-11-06T09:04:10.000Z</time>
      </trkpt>
      <trkpt lat="45.22162" lon="5.73569">
        <ele>1009.799987793</ele>
        <time>2021-11-06T09:04:16.000Z</time>
      </trkpt>
      <trkpt lat="45.2216" lon="5.73569">
        <ele>1010.200012207</ele>
        <time>2021-11-06T09:04:18.000Z</time>
      </trkpt>
      <trkpt lat="45.2216" lon="5.73569">
        <ele>1010.799987793</ele>
        <time>2021-11-06T09:04:20.000Z</time>
      </trkpt>
      <trkpt lat="45.22159" lon="5.73565">
        <ele>1011.4000244141</ele>
        <time>2021-11-06T09:04:23.000Z</time>
      </trkpt>
      <trkpt lat="45.22158" lon="5.73564">
        <ele>1011.5999755859</ele>
        <time>2021-11-06T09:04:24.000Z</time>
      </trkpt>
      <trkpt lat="45.22157" lon="5.73563">
        <ele>1011.799987793</ele>
        <time>2021-11-06T09:04:25.000Z</time>
      </trkpt>
      <trkpt lat="45.22153" lon="5.73563">
        <ele>1012.5999755859</ele>
        <time>2021-11-06T09:04:29.000Z</time>
      </trkpt>
      <trkpt lat="45.2215" lon="5.73562">
        <ele>1013</ele>
        <time>2021-11-06T09:04:31.000Z</time>
      </trkpt>
      <trkpt lat="45.22148" lon="5.73561">
        <ele>1014</ele>
        <time>2021-11-06T09:04:34.000Z</time>
      </trkpt>
      <trkpt lat="45.22147" lon="5.7356">
        <ele>1014.200012207</ele>
        <time>2021-11-06T09:04:35.000Z</time>
      </trkpt>
      <trkpt lat="45.22144" lon="5.7356">
        <ele>1015</ele>
        <time>2021-11-06T09:04:37.000Z</time>
      </trkpt>
      <trkpt lat="45.22137" lon="5.73558">
        <ele>1016</ele>
        <time>2021-11-06T09:04:42.000Z</time>
      </trkpt>
      <trkpt lat="45.22133" lon="5.73555">
        <ele>1017.200012207</ele>
        <time>2021-11-06T09:04:46.000Z</time>
      </trkpt>
      <trkpt lat="45.22132" lon="5.73555">
        <ele>1017.200012207</ele>
        <time>2021-11-06T09:04:47.000Z</time>
      </trkpt>
      <trkpt lat="45.22132" lon="5.73554">
        <ele>1017.5999755859</ele>
        <time>2021-11-06T09:04:48.000Z</time>
      </trkpt>
      <trkpt lat="45.22131" lon="5.73554">
        <ele>1017.799987793</ele>
        <time>2021-11-06T09:04:49.000Z</time>
      </trkpt>
      <trkpt lat="45.2213" lon="5.73553">
        <ele>1018.200012207</ele>
        <time>2021-11-06T09:04:50.000Z</time>
      </trkpt>
      <trkpt lat="45.22128" lon="5.73552">
        <ele>1018.4000244141</ele>
        <time>2021-11-06T09:04:52.000Z</time>
      </trkpt>
      <trkpt lat="45.22122" lon="5.7355">
        <ele>1019.5999755859</ele>
        <time>2021-11-06T09:04:56.000Z</time>
      </trkpt>
      <trkpt lat="45.22121" lon="5.73549">
        <ele>1019.799987793</ele>
        <time>2021-11-06T09:04:57.000Z</time>
      </trkpt>
      <trkpt lat="45.2212" lon="5.73545">
        <ele>1020.4000244141</ele>
        <time>2021-11-06T09:04:59.000Z</time>
      </trkpt>
      <trkpt lat="45.22119" lon="5.73542">
        <ele>1020.5999755859</ele>
        <time>2021-11-06T09:05:00.000Z</time>
      </trkpt>
      <trkpt lat="45.2212" lon="5.73534">
        <ele>1021.4000244141</ele>
        <time>2021-11-06T09:05:03.000Z</time>
      </trkpt>
      <trkpt lat="45.22121" lon="5.73531">
        <ele>1021.799987793</ele>
        <time>2021-11-06T09:05:04.000Z</time>
      </trkpt>
      <trkpt lat="45.2212" lon="5.73527">
        <ele>1022.799987793</ele>
        <time>2021-11-06T09:05:07.000Z</time>
      </trkpt>
      <trkpt lat="45.22118" lon="5.73526">
        <ele>1023.200012207</ele>
        <time>2021-11-06T09:05:09.000Z</time>
      </trkpt>
      <trkpt lat="45.22115" lon="5.73526">
        <ele>1024</ele>
        <time>2021-11-06T09:05:12.000Z</time>
      </trkpt>
      <trkpt lat="45.22113" lon="5.73527">
        <ele>1024.8000488281</ele>
        <time>2021-11-06T09:05:16.000Z</time>
      </trkpt>
      <trkpt lat="45.22113" lon="5.73527">
        <ele>1025</ele>
        <time>2021-11-06T09:05:17.000Z</time>
      </trkpt>
      <trkpt lat="45.22111" lon="5.73524">
        <ele>1026</ele>
        <time>2021-11-06T09:05:19.000Z</time>
      </trkpt>
      <trkpt lat="45.22111" lon="5.73523">
        <ele>1026.1999511719</ele>
        <time>2021-11-06T09:05:20.000Z</time>
      </trkpt>
      <trkpt lat="45.2211" lon="5.73523">
        <ele>1026.8000488281</ele>
        <time>2021-11-06T09:05:22.000Z</time>
      </trkpt>
      <trkpt lat="45.22109" lon="5.73524">
        <ele>1027</ele>
        <time>2021-11-06T09:05:23.000Z</time>
      </trkpt>
      <trkpt lat="45.22109" lon="5.73524">
        <ele>1027.1999511719</ele>
        <time>2021-11-06T09:05:24.000Z</time>
      </trkpt>
      <trkpt lat="45.22106" lon="5.73523">
        <ele>1028.4000244141</ele>
        <time>2021-11-06T09:05:28.000Z</time>
      </trkpt>
      <trkpt lat="45.22103" lon="5.73523">
        <ele>1029</ele>
        <time>2021-11-06T09:05:31.000Z</time>
      </trkpt>
      <trkpt lat="45.22102" lon="5.73521">
        <ele>1029.5999755859</ele>
        <time>2021-11-06T09:05:34.000Z</time>
      </trkpt>
      <trkpt lat="45.22099" lon="5.7352">
        <ele>1030</ele>
        <time>2021-11-06T09:05:37.000Z</time>
      </trkpt>
      <trkpt lat="45.22097" lon="5.7352">
        <ele>1030.4000244141</ele>
        <time>2021-11-06T09:05:39.000Z</time>
      </trkpt>
      <trkpt lat="45.22096" lon="5.7352">
        <ele>1030.5999755859</ele>
        <time>2021-11-06T09:05:40.000Z</time>
      </trkpt>
      <trkpt lat="45.22091" lon="5.73518">
        <ele>1031.4000244141</ele>
        <time>2021-11-06T09:05:44.000Z</time>
      </trkpt>
      <trkpt lat="45.2209" lon="5.73518">
        <ele>1031.5999755859</ele>
        <time>2021-11-06T09:05:45.000Z</time>
      </trkpt>
      <trkpt lat="45.22088" lon="5.73517">
        <ele>1031.8000488281</ele>
        <time>2021-11-06T09:05:46.000Z</time>
      </trkpt>
      <trkpt lat="45.22083" lon="5.73513">
        <ele>1032.4000244141</ele>
        <time>2021-11-06T09:05:49.000Z</time>
      </trkpt>
      <trkpt lat="45.22081" lon="5.73513">
        <ele>1032.8000488281</ele>
        <time>2021-11-06T09:05:51.000Z</time>
      </trkpt>
      <trkpt lat="45.22075" lon="5.7351">
        <ele>1033.8000488281</ele>
        <time>2021-11-06T09:05:56.000Z</time>
      </trkpt>
      <trkpt lat="45.22074" lon="5.73509">
        <ele>1034.1999511719</ele>
        <time>2021-11-06T09:05:57.000Z</time>
      </trkpt>
      <trkpt lat="45.22063" lon="5.73502">
        <ele>1035.1999511719</ele>
        <time>2021-11-06T09:06:04.000Z</time>
      </trkpt>
      <trkpt lat="45.22062" lon="5.73499">
        <ele>1035.8000488281</ele>
        <time>2021-11-06T09:06:06.000Z</time>
      </trkpt>
      <trkpt lat="45.2206" lon="5.73495">
        <ele>1036.1999511719</ele>
        <time>2021-11-06T09:06:08.000Z</time>
      </trkpt>
      <trkpt lat="45.2205" lon="5.7349">
        <ele>1037.1999511719</ele>
        <time>2021-11-06T09:06:14.000Z</time>
      </trkpt>
      <trkpt lat="45.22048" lon="5.73489">
        <ele>1037.4000244141</ele>
        <time>2021-11-06T09:06:15.000Z</time>
      </trkpt>
      <trkpt lat="45.22044" lon="5.73484">
        <ele>1038.4000244141</ele>
        <time>2021-11-06T09:06:19.000Z</time>
      </trkpt>
      <trkpt lat="45.22038" lon="5.73479">
        <ele>1039.5999755859</ele>
        <time>2021-11-06T09:06:25.000Z</time>
      </trkpt>
      <trkpt lat="45.22037" lon="5.73478">
        <ele>1039.5999755859</ele>
        <time>2021-11-06T09:06:26.000Z</time>
      </trkpt>
      <trkpt lat="45.22036" lon="5.73476">
        <ele>1039.5999755859</ele>
        <time>2021-11-06T09:06:27.000Z</time>
      </trkpt>
      <trkpt lat="45.22035" lon="5.73474">
        <ele>1040.4000244141</ele>
        <time>2021-11-06T09:06:29.000Z</time>
      </trkpt>
      <trkpt lat="45.22034" lon="5.73473">
        <ele>1040.5999755859</ele>
        <time>2021-11-06T09:06:30.000Z</time>
      </trkpt>
      <trkpt lat="45.22032" lon="5.73473">
        <ele>1041.1999511719</ele>
        <time>2021-11-06T09:06:32.000Z</time>
      </trkpt>
      <trkpt lat="45.22031" lon="5.73472">
        <ele>1041.8000488281</ele>
        <time>2021-11-06T09:06:34.000Z</time>
      </trkpt>
      <trkpt lat="45.22028" lon="5.73466">
        <ele>1042.5999755859</ele>
        <time>2021-11-06T09:06:38.000Z</time>
      </trkpt>
      <trkpt lat="45.22027" lon="5.73464">
        <ele>1043</ele>
        <time>2021-11-06T09:06:39.000Z</time>
      </trkpt>
      <trkpt lat="45.2202" lon="5.73455">
        <ele>1044</ele>
        <time>2021-11-06T09:06:45.000Z</time>
      </trkpt>
      <trkpt lat="45.22016" lon="5.73452">
        <ele>1044.4000244141</ele>
        <time>2021-11-06T09:06:48.000Z</time>
      </trkpt>
      <trkpt lat="45.22012" lon="5.7345">
        <ele>1045.1999511719</ele>
        <time>2021-11-06T09:06:50.000Z</time>
      </trkpt>
      <trkpt lat="45.22006" lon="5.73447">
        <ele>1045.8000488281</ele>
        <time>2021-11-06T09:06:54.000Z</time>
      </trkpt>
      <trkpt lat="45.22003" lon="5.73445">
        <ele>1046.1999511719</ele>
        <time>2021-11-06T09:06:56.000Z</time>
      </trkpt>
      <trkpt lat="45.21989" lon="5.73446">
        <ele>1045.8000488281</ele>
        <time>2021-11-06T09:07:04.000Z</time>
      </trkpt>
      <trkpt lat="45.21981" lon="5.73444">
        <ele>1045.1999511719</ele>
        <time>2021-11-06T09:07:08.000Z</time>
      </trkpt>
      <trkpt lat="45.21973" lon="5.73442">
        <ele>1043.5999755859</ele>
        <time>2021-11-06T09:07:12.000Z</time>
      </trkpt>
      <trkpt lat="45.21972" lon="5.7344">
        <ele>1043.4000244141</ele>
        <time>2021-11-06T09:07:13.000Z</time>
      </trkpt>
      <trkpt lat="45.21968" lon="5.73438">
        <ele>1042.5999755859</ele>
        <time>2021-11-06T09:07:16.000Z</time>
      </trkpt>
      <trkpt lat="45.21967" lon="5.73437">
        <ele>1042.4000244141</ele>
        <time>2021-11-06T09:07:17.000Z</time>
      </trkpt>
      <trkpt lat="45.21964" lon="5.73436">
        <ele>1042.1999511719</ele>
        <time>2021-11-06T09:07:18.000Z</time>
      </trkpt>
      <trkpt lat="45.21957" lon="5.73437">
        <ele>1041.4000244141</ele>
        <time>2021-11-06T09:07:22.000Z</time>
      </trkpt>
      <trkpt lat="45.21951" lon="5.73439">
        <ele>1041.1999511719</ele>
        <time>2021-11-06T09:07:25.000Z</time>
      </trkpt>
      <trkpt lat="45.21941" lon="5.73435">
        <ele>1040.4000244141</ele>
        <time>2021-11-06T09:07:30.000Z</time>
      </trkpt>
      <trkpt lat="45.2194" lon="5.73434">
        <ele>1040.1999511719</ele>
        <time>2021-11-06T09:07:31.000Z</time>
      </trkpt>
      <trkpt lat="45.21936" lon="5.73429">
        <ele>1039.8000488281</ele>
        <time>2021-11-06T09:07:34.000Z</time>
      </trkpt>
      <trkpt lat="45.21933" lon="5.73426">
        <ele>1039.1999511719</ele>
        <time>2021-11-06T09:07:36.000Z</time>
      </trkpt>
      <trkpt lat="45.2193" lon="5.73422">
        <ele>1038.5999755859</ele>
        <time>2021-11-06T09:07:39.000Z</time>
      </trkpt>
      <trkpt lat="45.21929" lon="5.73417">
        <ele>1038.1999511719</ele>
        <time>2021-11-06T09:07:42.000Z</time>
      </trkpt>
      <trkpt lat="45.21925" lon="5.7341">
        <ele>1037.5999755859</ele>
        <time>2021-11-06T09:07:45.000Z</time>
      </trkpt>
      <trkpt lat="45.21921" lon="5.73404">
        <ele>1037.5999755859</ele>
        <time>2021-11-06T09:07:48.000Z</time>
      </trkpt>
      <trkpt lat="45.21919" lon="5.734">
        <ele>1037.5999755859</ele>
        <time>2021-11-06T09:07:50.000Z</time>
      </trkpt>
      <trkpt lat="45.21917" lon="5.73399">
        <ele>1037.5999755859</ele>
        <time>2021-11-06T09:07:51.000Z</time>
      </trkpt>
      <trkpt lat="45.21915" lon="5.73398">
        <ele>1037.8000488281</ele>
        <time>2021-11-06T09:07:52.000Z</time>
      </trkpt>
      <trkpt lat="45.21907" lon="5.73395">
        <ele>1038.1999511719</ele>
        <time>2021-11-06T09:07:57.000Z</time>
      </trkpt>
      <trkpt lat="45.21904" lon="5.73393">
        <ele>1038.5999755859</ele>
        <time>2021-11-06T09:07:59.000Z</time>
      </trkpt>
      <trkpt lat="45.21896" lon="5.7339">
        <ele>1038.5999755859</ele>
        <time>2021-11-06T09:08:04.000Z</time>
      </trkpt>
      <trkpt lat="45.21894" lon="5.7339">
        <ele>1038.5999755859</ele>
        <time>2021-11-06T09:08:05.000Z</time>
      </trkpt>
      <trkpt lat="45.21892" lon="5.73388">
        <ele>1038.4000244141</ele>
        <time>2021-11-06T09:08:07.000Z</time>
      </trkpt>
      <trkpt lat="45.2189" lon="5.73386">
        <ele>1038.1999511719</ele>
        <time>2021-11-06T09:08:09.000Z</time>
      </trkpt>
      <trkpt lat="45.21883" lon="5.73377">
        <ele>1037.4000244141</ele>
        <time>2021-11-06T09:08:16.000Z</time>
      </trkpt>
      <trkpt lat="45.21882" lon="5.73376">
        <ele>1037.1999511719</ele>
        <time>2021-11-06T09:08:17.000Z</time>
      </trkpt>
      <trkpt lat="45.21879" lon="5.73375">
        <ele>1037.1999511719</ele>
        <time>2021-11-06T09:08:19.000Z</time>
      </trkpt>
      <trkpt lat="45.21878" lon="5.73375">
        <ele>1037.1999511719</ele>
        <time>2021-11-06T09:08:20.000Z</time>
      </trkpt>
      <trkpt lat="45.21877" lon="5.73375">
        <ele>1037.1999511719</ele>
        <time>2021-11-06T09:08:21.000Z</time>
      </trkpt>
      <trkpt lat="45.21876" lon="5.73373">
        <ele>1037.8000488281</ele>
        <time>2021-11-06T09:08:23.000Z</time>
      </trkpt>
      <trkpt lat="45.21873" lon="5.7337">
        <ele>1038.4000244141</ele>
        <time>2021-11-06T09:08:25.000Z</time>
      </trkpt>
      <trkpt lat="45.21868" lon="5.73365">
        <ele>1039</ele>
        <time>2021-11-06T09:08:29.000Z</time>
      </trkpt>
      <trkpt lat="45.21867" lon="5.73364">
        <ele>1039.5999755859</ele>
        <time>2021-11-06T09:08:31.000Z</time>
      </trkpt>
      <trkpt lat="45.21866" lon="5.73362">
        <ele>1040</ele>
        <time>2021-11-06T09:08:33.000Z</time>
      </trkpt>
      <trkpt lat="45.21865" lon="5.73361">
        <ele>1040.4000244141</ele>
        <time>2021-11-06T09:08:34.000Z</time>
      </trkpt>
      <trkpt lat="45.21863" lon="5.7336">
        <ele>1040.5999755859</ele>
        <time>2021-11-06T09:08:36.000Z</time>
      </trkpt>
      <trkpt lat="45.21861" lon="5.73358">
        <ele>1041.1999511719</ele>
        <time>2021-11-06T09:08:38.000Z</time>
      </trkpt>
      <trkpt lat="45.2186" lon="5.73357">
        <ele>1041.4000244141</ele>
        <time>2021-11-06T09:08:39.000Z</time>
      </trkpt>
      <trkpt lat="45.21859" lon="5.73356">
        <ele>1041.5999755859</ele>
        <time>2021-11-06T09:08:40.000Z</time>
      </trkpt>
      <trkpt lat="45.21853" lon="5.73352">
        <ele>1042.8000488281</ele>
        <time>2021-11-06T09:08:44.000Z</time>
      </trkpt>
      <trkpt lat="45.21852" lon="5.73351">
        <ele>1043.1999511719</ele>
        <time>2021-11-06T09:08:45.000Z</time>
      </trkpt>
      <trkpt lat="45.21851" lon="5.73351">
        <ele>1043.8000488281</ele>
        <time>2021-11-06T09:08:46.000Z</time>
      </trkpt>
      <trkpt lat="45.21848" lon="5.7335">
        <ele>1044.8000488281</ele>
        <time>2021-11-06T09:08:50.000Z</time>
      </trkpt>
      <trkpt lat="45.21846" lon="5.73351">
        <ele>1045.4000244141</ele>
        <time>2021-11-06T09:08:53.000Z</time>
      </trkpt>
      <trkpt lat="45.21845" lon="5.73352">
        <ele>1045.4000244141</ele>
        <time>2021-11-06T09:08:54.000Z</time>
      </trkpt>
      <trkpt lat="45.21844" lon="5.73353">
        <ele>1045.5999755859</ele>
        <time>2021-11-06T09:08:55.000Z</time>
      </trkpt>
      <trkpt lat="45.21844" lon="5.73359">
        <ele>1045</ele>
        <time>2021-11-06T09:08:59.000Z</time>
      </trkpt>
      <trkpt lat="45.21844" lon="5.73359">
        <ele>1044.5999755859</ele>
        <time>2021-11-06T09:09:02.000Z</time>
      </trkpt>
      <trkpt lat="45.21844" lon="5.73359">
        <ele>1044.4000244141</ele>
        <time>2021-11-06T09:09:05.000Z</time>
      </trkpt>
      <trkpt lat="45.21844" lon="5.7336">
        <ele>1044.4000244141</ele>
        <time>2021-11-06T09:09:07.000Z</time>
      </trkpt>
      <trkpt lat="45.21843" lon="5.73361">
        <ele>1044.1999511719</ele>
        <time>2021-11-06T09:09:11.000Z</time>
      </trkpt>
      <trkpt lat="45.21843" lon="5.73361">
        <ele>1044.1999511719</ele>
        <time>2021-11-06T09:09:15.000Z</time>
      </trkpt>
      <trkpt lat="45.21843" lon="5.73361">
        <ele>1043.8000488281</ele>
        <time>2021-11-06T09:09:20.000Z</time>
      </trkpt>
      <trkpt lat="45.21844" lon="5.73361">
        <ele>1044.4000244141</ele>
        <time>2021-11-06T09:09:26.000Z</time>
      </trkpt>
      <trkpt lat="45.21844" lon="5.73361">
        <ele>1044.5999755859</ele>
        <time>2021-11-06T09:09:28.000Z</time>
      </trkpt>
      <trkpt lat="45.21844" lon="5.73361">
        <ele>1044.4000244141</ele>
        <time>2021-11-06T09:09:31.000Z</time>
      </trkpt>
      <trkpt lat="45.21844" lon="5.73361">
        <ele>1044.4000244141</ele>
        <time>2021-11-06T09:09:33.000Z</time>
      </trkpt>
      <trkpt lat="45.21844" lon="5.73361">
        <ele>1044.4000244141</ele>
        <time>2021-11-06T09:09:35.000Z</time>
      </trkpt>
      <trkpt lat="45.21843" lon="5.7336">
        <ele>1044.4000244141</ele>
        <time>2021-11-06T09:09:44.000Z</time>
      </trkpt>
      <trkpt lat="45.21843" lon="5.7336">
        <ele>1044.4000244141</ele>
        <time>2021-11-06T09:09:46.000Z</time>
      </trkpt>
      <trkpt lat="45.21843" lon="5.7336">
        <ele>1044.4000244141</ele>
        <time>2021-11-06T09:09:48.000Z</time>
      </trkpt>
      <trkpt lat="45.21843" lon="5.7336">
        <ele>1044.4000244141</ele>
        <time>2021-11-06T09:09:51.000Z</time>
      </trkpt>
      <trkpt lat="45.21843" lon="5.7336">
        <ele>1044</ele>
        <time>2021-11-06T09:09:56.000Z</time>
      </trkpt>
      <trkpt lat="45.21843" lon="5.73359">
        <ele>1044</ele>
        <time>2021-11-06T09:10:28.000Z</time>
      </trkpt>
      <trkpt lat="45.21844" lon="5.73359">
        <ele>1044</ele>
        <time>2021-11-06T09:10:43.000Z</time>
      </trkpt>
      <trkpt lat="45.21844" lon="5.73359">
        <ele>1044</ele>
        <time>2021-11-06T09:10:45.000Z</time>
      </trkpt>
      <trkpt lat="45.21844" lon="5.73359">
        <ele>1044</ele>
        <time>2021-11-06T09:10:53.000Z</time>
      </trkpt>
      <trkpt lat="45.21844" lon="5.73359">
        <ele>1044</ele>
        <time>2021-11-06T09:11:01.000Z</time>
      </trkpt>
      <trkpt lat="45.21844" lon="5.73359">
        <ele>1044</ele>
        <time>2021-11-06T09:11:06.000Z</time>
      </trkpt>
      <trkpt lat="45.21844" lon="5.73359">
        <ele>1044</ele>
        <time>2021-11-06T09:11:09.000Z</time>
      </trkpt>
      <trkpt lat="45.21844" lon="5.73359">
        <ele>1044</ele>
        <time>2021-11-06T09:11:10.000Z</time>
      </trkpt>
      <trkpt lat="45.21844" lon="5.73359">
        <ele>1044</ele>
        <time>2021-11-06T09:11:17.000Z</time>
      </trkpt>
      <trkpt lat="45.21843" lon="5.73359">
        <ele>1044</ele>
        <time>2021-11-06T09:11:26.000Z</time>
      </trkpt>
      <trkpt lat="45.21843" lon="5.73359">
        <ele>1044</ele>
        <time>2021-11-06T09:11:29.000Z</time>
      </trkpt>
      <trkpt lat="45.21844" lon="5.73359">
        <ele>1044</ele>
        <time>2021-11-06T09:11:34.000Z</time>
      </trkpt>
      <trkpt lat="45.21844" lon="5.73359">
        <ele>1044</ele>
        <time>2021-11-06T09:11:46.000Z</time>
      </trkpt>
      <trkpt lat="45.21844" lon="5.73358">
        <ele>1044</ele>
        <time>2021-11-06T09:11:51.000Z</time>
      </trkpt>
      <trkpt lat="45.21844" lon="5.73358">
        <ele>1044</ele>
        <time>2021-11-06T09:12:00.000Z</time>
      </trkpt>
      <trkpt lat="45.21844" lon="5.73358">
        <ele>1044</ele>
        <time>2021-11-06T09:12:08.000Z</time>
      </trkpt>
      <trkpt lat="45.21843" lon="5.73358">
        <ele>1044</ele>
        <time>2021-11-06T09:12:14.000Z</time>
      </trkpt>
      <trkpt lat="45.21843" lon="5.73358">
        <ele>1044</ele>
        <time>2021-11-06T09:12:17.000Z</time>
      </trkpt>
      <trkpt lat="45.21843" lon="5.73358">
        <ele>1044</ele>
        <time>2021-11-06T09:12:19.000Z</time>
      </trkpt>
      <trkpt lat="45.21843" lon="5.73357">
        <ele>1044</ele>
        <time>2021-11-06T09:12:58.000Z</time>
      </trkpt>
      <trkpt lat="45.21843" lon="5.73356">
        <ele>1044</ele>
        <time>2021-11-06T09:13:03.000Z</time>
      </trkpt>
      <trkpt lat="45.21843" lon="5.73356">
        <ele>1044</ele>
        <time>2021-11-06T09:13:05.000Z</time>
      </trkpt>
      <trkpt lat="45.21843" lon="5.73356">
        <ele>1044</ele>
        <time>2021-11-06T09:13:08.000Z</time>
      </trkpt>
      <trkpt lat="45.21843" lon="5.73356">
        <ele>1044</ele>
        <time>2021-11-06T09:13:09.000Z</time>
      </trkpt>
      <trkpt lat="45.21843" lon="5.73356">
        <ele>1044</ele>
        <time>2021-11-06T09:13:10.000Z</time>
      </trkpt>
      <trkpt lat="45.21843" lon="5.73355">
        <ele>1044</ele>
        <time>2021-11-06T09:13:12.000Z</time>
      </trkpt>
      <trkpt lat="45.21842" lon="5.73353">
        <ele>1044</ele>
        <time>2021-11-06T09:13:13.000Z</time>
      </trkpt>
      <trkpt lat="45.21842" lon="5.7335">
        <ele>1044</ele>
        <time>2021-11-06T09:13:14.000Z</time>
      </trkpt>
      <trkpt lat="45.2184" lon="5.73345">
        <ele>1044</ele>
        <time>2021-11-06T09:13:16.000Z</time>
      </trkpt>
      <trkpt lat="45.21834" lon="5.73333">
        <ele>1044</ele>
        <time>2021-11-06T09:13:23.000Z</time>
      </trkpt>
      <trkpt lat="45.2183" lon="5.73329">
        <ele>1043.1999511719</ele>
        <time>2021-11-06T09:13:27.000Z</time>
      </trkpt>
      <trkpt lat="45.21829" lon="5.73326">
        <ele>1042.8000488281</ele>
        <time>2021-11-06T09:13:29.000Z</time>
      </trkpt>
      <trkpt lat="45.21828" lon="5.73324">
        <ele>1042.1999511719</ele>
        <time>2021-11-06T09:13:32.000Z</time>
      </trkpt>
      <trkpt lat="45.21827" lon="5.73323">
        <ele>1042</ele>
        <time>2021-11-06T09:13:33.000Z</time>
      </trkpt>
      <trkpt lat="45.21824" lon="5.73321">
        <ele>1041.5999755859</ele>
        <time>2021-11-06T09:13:36.000Z</time>
      </trkpt>
      <trkpt lat="45.21821" lon="5.73317">
        <ele>1040.8000488281</ele>
        <time>2021-11-06T09:13:40.000Z</time>
      </trkpt>
      <trkpt lat="45.2182" lon="5.73316">
        <ele>1040.4000244141</ele>
        <time>2021-11-06T09:13:41.000Z</time>
      </trkpt>
      <trkpt lat="45.21815" lon="5.73313">
        <ele>1039.4000244141</ele>
        <time>2021-11-06T09:13:45.000Z</time>
      </trkpt>
      <trkpt lat="45.21811" lon="5.7331">
        <ele>1038.8000488281</ele>
        <time>2021-11-06T09:13:48.000Z</time>
      </trkpt>
      <trkpt lat="45.21811" lon="5.73309">
        <ele>1038.4000244141</ele>
        <time>2021-11-06T09:13:49.000Z</time>
      </trkpt>
      <trkpt lat="45.21805" lon="5.73302">
        <ele>1037.4000244141</ele>
        <time>2021-11-06T09:13:54.000Z</time>
      </trkpt>
      <trkpt lat="45.21803" lon="5.73301">
        <ele>1037.1999511719</ele>
        <time>2021-11-06T09:13:55.000Z</time>
      </trkpt>
      <trkpt lat="45.21797" lon="5.73295">
        <ele>1036.4000244141</ele>
        <time>2021-11-06T09:13:59.000Z</time>
      </trkpt>
      <trkpt lat="45.21792" lon="5.73292">
        <ele>1035.5999755859</ele>
        <time>2021-11-06T09:14:02.000Z</time>
      </trkpt>
      <trkpt lat="45.21789" lon="5.7329">
        <ele>1035.1999511719</ele>
        <time>2021-11-06T09:14:04.000Z</time>
      </trkpt>
      <trkpt lat="45.21788" lon="5.7329">
        <ele>1034.8000488281</ele>
        <time>2021-11-06T09:14:05.000Z</time>
      </trkpt>
      <trkpt lat="45.21785" lon="5.73286">
        <ele>1034</ele>
        <time>2021-11-06T09:14:09.000Z</time>
      </trkpt>
      <trkpt lat="45.21781" lon="5.73282">
        <ele>1032.8000488281</ele>
        <time>2021-11-06T09:14:13.000Z</time>
      </trkpt>
      <trkpt lat="45.21779" lon="5.73281">
        <ele>1032.5999755859</ele>
        <time>2021-11-06T09:14:15.000Z</time>
      </trkpt>
      <trkpt lat="45.21778" lon="5.73279">
        <ele>1032.1999511719</ele>
        <time>2021-11-06T09:14:16.000Z</time>
      </trkpt>
      <trkpt lat="45.21777" lon="5.73277">
        <ele>1032.1999511719</ele>
        <time>2021-11-06T09:14:17.000Z</time>
      </trkpt>
      <trkpt lat="45.21776" lon="5.73275">
        <ele>1032</ele>
        <time>2021-11-06T09:14:18.000Z</time>
      </trkpt>
      <trkpt lat="45.21777" lon="5.73272">
        <ele>1031.8000488281</ele>
        <time>2021-11-06T09:14:19.000Z</time>
      </trkpt>
      <trkpt lat="45.2178" lon="5.73267">
        <ele>1031.1999511719</ele>
        <time>2021-11-06T09:14:22.000Z</time>
      </trkpt>
      <trkpt lat="45.21781" lon="5.73264">
        <ele>1030.5999755859</ele>
        <time>2021-11-06T09:14:24.000Z</time>
      </trkpt>
      <trkpt lat="45.21781" lon="5.73263">
        <ele>1030.5999755859</ele>
        <time>2021-11-06T09:14:25.000Z</time>
      </trkpt>
      <trkpt lat="45.21779" lon="5.73261">
        <ele>1029.8000488281</ele>
        <time>2021-11-06T09:14:27.000Z</time>
      </trkpt>
      <trkpt lat="45.21778" lon="5.73258">
        <ele>1029.4000244141</ele>
        <time>2021-11-06T09:14:29.000Z</time>
      </trkpt>
      <trkpt lat="45.21778" lon="5.73256">
        <ele>1029</ele>
        <time>2021-11-06T09:14:31.000Z</time>
      </trkpt>
      <trkpt lat="45.21777" lon="5.73253">
        <ele>1028.4000244141</ele>
        <time>2021-11-06T09:14:33.000Z</time>
      </trkpt>
      <trkpt lat="45.21776" lon="5.73252">
        <ele>1028.1999511719</ele>
        <time>2021-11-06T09:14:34.000Z</time>
      </trkpt>
      <trkpt lat="45.21776" lon="5.7325">
        <ele>1027.5999755859</ele>
        <time>2021-11-06T09:14:35.000Z</time>
      </trkpt>
      <trkpt lat="45.21776" lon="5.73248">
        <ele>1027.1999511719</ele>
        <time>2021-11-06T09:14:36.000Z</time>
      </trkpt>
      <trkpt lat="45.21775" lon="5.73246">
        <ele>1026.8000488281</ele>
        <time>2021-11-06T09:14:38.000Z</time>
      </trkpt>
      <trkpt lat="45.21774" lon="5.73244">
        <ele>1026.5999755859</ele>
        <time>2021-11-06T09:14:39.000Z</time>
      </trkpt>
      <trkpt lat="45.21771" lon="5.73241">
        <ele>1026</ele>
        <time>2021-11-06T09:14:41.000Z</time>
      </trkpt>
      <trkpt lat="45.21768" lon="5.73238">
        <ele>1025.8000488281</ele>
        <time>2021-11-06T09:14:44.000Z</time>
      </trkpt>
      <trkpt lat="45.21764" lon="5.7323">
        <ele>1025.4000244141</ele>
        <time>2021-11-06T09:14:51.000Z</time>
      </trkpt>
      <trkpt lat="45.21763" lon="5.73226">
        <ele>1025.4000244141</ele>
        <time>2021-11-06T09:14:54.000Z</time>
      </trkpt>
      <trkpt lat="45.21761" lon="5.73224">
        <ele>1025.4000244141</ele>
        <time>2021-11-06T09:14:57.000Z</time>
      </trkpt>
      <trkpt lat="45.2176" lon="5.73224">
        <ele>1025.4000244141</ele>
        <time>2021-11-06T09:14:58.000Z</time>
      </trkpt>
      <trkpt lat="45.21759" lon="5.73221">
        <ele>1025</ele>
        <time>2021-11-06T09:15:01.000Z</time>
      </trkpt>
      <trkpt lat="45.21758" lon="5.7322">
        <ele>1024.4000244141</ele>
        <time>2021-11-06T09:15:03.000Z</time>
      </trkpt>
      <trkpt lat="45.21758" lon="5.73219">
        <ele>1024</ele>
        <time>2021-11-06T09:15:04.000Z</time>
      </trkpt>
      <trkpt lat="45.21758" lon="5.73217">
        <ele>1023.799987793</ele>
        <time>2021-11-06T09:15:05.000Z</time>
      </trkpt>
      <trkpt lat="45.21757" lon="5.73214">
        <ele>1023.200012207</ele>
        <time>2021-11-06T09:15:07.000Z</time>
      </trkpt>
      <trkpt lat="45.21756" lon="5.73213">
        <ele>1022.799987793</ele>
        <time>2021-11-06T09:15:08.000Z</time>
      </trkpt>
      <trkpt lat="45.21755" lon="5.73212">
        <ele>1022.5999755859</ele>
        <time>2021-11-06T09:15:09.000Z</time>
      </trkpt>
      <trkpt lat="45.21752" lon="5.73209">
        <ele>1022</ele>
        <time>2021-11-06T09:15:11.000Z</time>
      </trkpt>
      <trkpt lat="45.2175" lon="5.73208">
        <ele>1022</ele>
        <time>2021-11-06T09:15:12.000Z</time>
      </trkpt>
      <trkpt lat="45.21744" lon="5.73206">
        <ele>1022.200012207</ele>
        <time>2021-11-06T09:15:17.000Z</time>
      </trkpt>
      <trkpt lat="45.21743" lon="5.73207">
        <ele>1022.4000244141</ele>
        <time>2021-11-06T09:15:18.000Z</time>
      </trkpt>
      <trkpt lat="45.21742" lon="5.73207">
        <ele>1022.799987793</ele>
        <time>2021-11-06T09:15:20.000Z</time>
      </trkpt>
      <trkpt lat="45.21736" lon="5.73209">
        <ele>1023</ele>
        <time>2021-11-06T09:15:24.000Z</time>
      </trkpt>
      <trkpt lat="45.21733" lon="5.73213">
        <ele>1022.799987793</ele>
        <time>2021-11-06T09:15:27.000Z</time>
      </trkpt>
      <trkpt lat="45.21731" lon="5.73217">
        <ele>1022.200012207</ele>
        <time>2021-11-06T09:15:32.000Z</time>
      </trkpt>
      <trkpt lat="45.2173" lon="5.73221">
        <ele>1021.4000244141</ele>
        <time>2021-11-06T09:15:36.000Z</time>
      </trkpt>
      <trkpt lat="45.21729" lon="5.73222">
        <ele>1020.5999755859</ele>
        <time>2021-11-06T09:15:38.000Z</time>
      </trkpt>
      <trkpt lat="45.21727" lon="5.73222">
        <ele>1020.4000244141</ele>
        <time>2021-11-06T09:15:39.000Z</time>
      </trkpt>
      <trkpt lat="45.21725" lon="5.73223">
        <ele>1019.4000244141</ele>
        <time>2021-11-06T09:15:42.000Z</time>
      </trkpt>
      <trkpt lat="45.21724" lon="5.73222">
        <ele>1019.200012207</ele>
        <time>2021-11-06T09:15:43.000Z</time>
      </trkpt>
      <trkpt lat="45.21723" lon="5.73222">
        <ele>1019</ele>
        <time>2021-11-06T09:15:44.000Z</time>
      </trkpt>
      <trkpt lat="45.21721" lon="5.7322">
        <ele>1018.4000244141</ele>
        <time>2021-11-06T09:15:46.000Z</time>
      </trkpt>
      <trkpt lat="45.21719" lon="5.73218">
        <ele>1018.200012207</ele>
        <time>2021-11-06T09:15:48.000Z</time>
      </trkpt>
      <trkpt lat="45.21718" lon="5.73216">
        <ele>1018</ele>
        <time>2021-11-06T09:15:49.000Z</time>
      </trkpt>
      <trkpt lat="45.2171" lon="5.73209">
        <ele>1017</ele>
        <time>2021-11-06T09:15:54.000Z</time>
      </trkpt>
      <trkpt lat="45.21709" lon="5.73207">
        <ele>1016.799987793</ele>
        <time>2021-11-06T09:15:55.000Z</time>
      </trkpt>
      <trkpt lat="45.21703" lon="5.73199">
        <ele>1016.4000244141</ele>
        <time>2021-11-06T09:15:59.000Z</time>
      </trkpt>
      <trkpt lat="45.21698" lon="5.73193">
        <ele>1016</ele>
        <time>2021-11-06T09:16:02.000Z</time>
      </trkpt>
      <trkpt lat="45.21695" lon="5.73189">
        <ele>1015.5999755859</ele>
        <time>2021-11-06T09:16:04.000Z</time>
      </trkpt>
      <trkpt lat="45.21689" lon="5.7318">
        <ele>1014.799987793</ele>
        <time>2021-11-06T09:16:09.000Z</time>
      </trkpt>
      <trkpt lat="45.21688" lon="5.73177">
        <ele>1014.4000244141</ele>
        <time>2021-11-06T09:16:11.000Z</time>
      </trkpt>
      <trkpt lat="45.21686" lon="5.73176">
        <ele>1013.5999755859</ele>
        <time>2021-11-06T09:16:12.000Z</time>
      </trkpt>
      <trkpt lat="45.21684" lon="5.73173">
        <ele>1012.799987793</ele>
        <time>2021-11-06T09:16:14.000Z</time>
      </trkpt>
      <trkpt lat="45.21683" lon="5.73172">
        <ele>1012.4000244141</ele>
        <time>2021-11-06T09:16:15.000Z</time>
      </trkpt>
      <trkpt lat="45.21682" lon="5.73169">
        <ele>1011.200012207</ele>
        <time>2021-11-06T09:16:18.000Z</time>
      </trkpt>
      <trkpt lat="45.21681" lon="5.73168">
        <ele>1010.799987793</ele>
        <time>2021-11-06T09:16:19.000Z</time>
      </trkpt>
      <trkpt lat="45.21681" lon="5.73166">
        <ele>1010.5999755859</ele>
        <time>2021-11-06T09:16:20.000Z</time>
      </trkpt>
      <trkpt lat="45.21679" lon="5.73164">
        <ele>1010.200012207</ele>
        <time>2021-11-06T09:16:22.000Z</time>
      </trkpt>
      <trkpt lat="45.21674" lon="5.7316">
        <ele>1009</ele>
        <time>2021-11-06T09:16:26.000Z</time>
      </trkpt>
      <trkpt lat="45.21672" lon="5.73155">
        <ele>1007.799987793</ele>
        <time>2021-11-06T09:16:29.000Z</time>
      </trkpt>
      <trkpt lat="45.21672" lon="5.73154">
        <ele>1007.200012207</ele>
        <time>2021-11-06T09:16:30.000Z</time>
      </trkpt>
      <trkpt lat="45.21671" lon="5.73153">
        <ele>1006.799987793</ele>
        <time>2021-11-06T09:16:31.000Z</time>
      </trkpt>
      <trkpt lat="45.21669" lon="5.73148">
        <ele>1005.5999755859</ele>
        <time>2021-11-06T09:16:35.000Z</time>
      </trkpt>
      <trkpt lat="45.21668" lon="5.73146">
        <ele>1004.5999755859</ele>
        <time>2021-11-06T09:16:37.000Z</time>
      </trkpt>
      <trkpt lat="45.21666" lon="5.73146">
        <ele>1003.799987793</ele>
        <time>2021-11-06T09:16:40.000Z</time>
      </trkpt>
      <trkpt lat="45.21664" lon="5.73146">
        <ele>1003.200012207</ele>
        <time>2021-11-06T09:16:42.000Z</time>
      </trkpt>
      <trkpt lat="45.21663" lon="5.73146">
        <ele>1002.5999755859</ele>
        <time>2021-11-06T09:16:43.000Z</time>
      </trkpt>
      <trkpt lat="45.21661" lon="5.73146">
        <ele>1002</ele>
        <time>2021-11-06T09:16:45.000Z</time>
      </trkpt>
      <trkpt lat="45.21658" lon="5.73145">
        <ele>1000.799987793</ele>
        <time>2021-11-06T09:16:48.000Z</time>
      </trkpt>
      <trkpt lat="45.21657" lon="5.73144">
        <ele>1000</ele>
        <time>2021-11-06T09:16:50.000Z</time>
      </trkpt>
      <trkpt lat="45.21656" lon="5.73144">
        <ele>999.40002441406</ele>
        <time>2021-11-06T09:16:51.000Z</time>
      </trkpt>
      <trkpt lat="45.21652" lon="5.73143">
        <ele>998.20001220703</ele>
        <time>2021-11-06T09:16:54.000Z</time>
      </trkpt>
      <trkpt lat="45.2165" lon="5.73142">
        <ele>998</ele>
        <time>2021-11-06T09:16:55.000Z</time>
      </trkpt>
      <trkpt lat="45.21646" lon="5.73142">
        <ele>996.79998779297</ele>
        <time>2021-11-06T09:16:58.000Z</time>
      </trkpt>
      <trkpt lat="45.21641" lon="5.73141">
        <ele>995.40002441406</ele>
        <time>2021-11-06T09:17:01.000Z</time>
      </trkpt>
      <trkpt lat="45.2164" lon="5.73142">
        <ele>994.59997558594</ele>
        <time>2021-11-06T09:17:03.000Z</time>
      </trkpt>
      <trkpt lat="45.21638" lon="5.73142">
        <ele>994.40002441406</ele>
        <time>2021-11-06T09:17:04.000Z</time>
      </trkpt>
      <trkpt lat="45.21637" lon="5.73142">
        <ele>993.79998779297</ele>
        <time>2021-11-06T09:17:05.000Z</time>
      </trkpt>
      <trkpt lat="45.21635" lon="5.73144">
        <ele>992.79998779297</ele>
        <time>2021-11-06T09:17:07.000Z</time>
      </trkpt>
      <trkpt lat="45.21633" lon="5.73145">
        <ele>992.20001220703</ele>
        <time>2021-11-06T09:17:09.000Z</time>
      </trkpt>
      <trkpt lat="45.2163" lon="5.73145">
        <ele>991.40002441406</ele>
        <time>2021-11-06T09:17:11.000Z</time>
      </trkpt>
      <trkpt lat="45.21628" lon="5.73144">
        <ele>990.40002441406</ele>
        <time>2021-11-06T09:17:13.000Z</time>
      </trkpt>
      <trkpt lat="45.21625" lon="5.73141">
        <ele>989.79998779297</ele>
        <time>2021-11-06T09:17:15.000Z</time>
      </trkpt>
      <trkpt lat="45.21621" lon="5.73138">
        <ele>989</ele>
        <time>2021-11-06T09:17:17.000Z</time>
      </trkpt>
      <trkpt lat="45.21613" lon="5.73135">
        <ele>987.40002441406</ele>
        <time>2021-11-06T09:17:21.000Z</time>
      </trkpt>
      <trkpt lat="45.21608" lon="5.73134">
        <ele>986.40002441406</ele>
        <time>2021-11-06T09:17:23.000Z</time>
      </trkpt>
      <trkpt lat="45.21605" lon="5.73133">
        <ele>985.79998779297</ele>
        <time>2021-11-06T09:17:24.000Z</time>
      </trkpt>
      <trkpt lat="45.21599" lon="5.7313">
        <ele>984.79998779297</ele>
        <time>2021-11-06T09:17:26.000Z</time>
      </trkpt>
      <trkpt lat="45.21597" lon="5.73129">
        <ele>984.20001220703</ele>
        <time>2021-11-06T09:17:27.000Z</time>
      </trkpt>
      <trkpt lat="45.21592" lon="5.73126">
        <ele>983.59997558594</ele>
        <time>2021-11-06T09:17:29.000Z</time>
      </trkpt>
      <trkpt lat="45.21587" lon="5.73125">
        <ele>982.59997558594</ele>
        <time>2021-11-06T09:17:32.000Z</time>
      </trkpt>
      <trkpt lat="45.21586" lon="5.73126">
        <ele>982</ele>
        <time>2021-11-06T09:17:33.000Z</time>
      </trkpt>
      <trkpt lat="45.21584" lon="5.73128">
        <ele>981.40002441406</ele>
        <time>2021-11-06T09:17:35.000Z</time>
      </trkpt>
      <trkpt lat="45.21581" lon="5.7313">
        <ele>980.59997558594</ele>
        <time>2021-11-06T09:17:37.000Z</time>
      </trkpt>
      <trkpt lat="45.21581" lon="5.73131">
        <ele>980</ele>
        <time>2021-11-06T09:17:38.000Z</time>
      </trkpt>
      <trkpt lat="45.2158" lon="5.73132">
        <ele>979.59997558594</ele>
        <time>2021-11-06T09:17:39.000Z</time>
      </trkpt>
      <trkpt lat="45.2158" lon="5.73133">
        <ele>979.20001220703</ele>
        <time>2021-11-06T09:17:40.000Z</time>
      </trkpt>
      <trkpt lat="45.21581" lon="5.73136">
        <ele>978.59997558594</ele>
        <time>2021-11-06T09:17:42.000Z</time>
      </trkpt>
      <trkpt lat="45.21581" lon="5.73138">
        <ele>978</ele>
        <time>2021-11-06T09:17:43.000Z</time>
      </trkpt>
      <trkpt lat="45.21581" lon="5.73139">
        <ele>977.40002441406</ele>
        <time>2021-11-06T09:17:44.000Z</time>
      </trkpt>
      <trkpt lat="45.21582" lon="5.73141">
        <ele>976.79998779297</ele>
        <time>2021-11-06T09:17:45.000Z</time>
      </trkpt>
      <trkpt lat="45.21581" lon="5.73143">
        <ele>976</ele>
        <time>2021-11-06T09:17:47.000Z</time>
      </trkpt>
      <trkpt lat="45.21579" lon="5.73145">
        <ele>975.20001220703</ele>
        <time>2021-11-06T09:17:50.000Z</time>
      </trkpt>
      <trkpt lat="45.21578" lon="5.73145">
        <ele>974.79998779297</ele>
        <time>2021-11-06T09:17:51.000Z</time>
      </trkpt>
      <trkpt lat="45.21577" lon="5.73147">
        <ele>973.59997558594</ele>
        <time>2021-11-06T09:17:53.000Z</time>
      </trkpt>
      <trkpt lat="45.21576" lon="5.73151">
        <ele>972</ele>
        <time>2021-11-06T09:17:56.000Z</time>
      </trkpt>
      <trkpt lat="45.21575" lon="5.73153">
        <ele>970.59997558594</ele>
        <time>2021-11-06T09:17:59.000Z</time>
      </trkpt>
      <trkpt lat="45.21576" lon="5.73156">
        <ele>970.20001220703</ele>
        <time>2021-11-06T09:18:01.000Z</time>
      </trkpt>
      <trkpt lat="45.21576" lon="5.73158">
        <ele>970</ele>
        <time>2021-11-06T09:18:02.000Z</time>
      </trkpt>
      <trkpt lat="45.21575" lon="5.7316">
        <ele>969.79998779297</ele>
        <time>2021-11-06T09:18:03.000Z</time>
      </trkpt>
      <trkpt lat="45.21574" lon="5.73161">
        <ele>969.20001220703</ele>
        <time>2021-11-06T09:18:04.000Z</time>
      </trkpt>
      <trkpt lat="45.21572" lon="5.73161">
        <ele>968.20001220703</ele>
        <time>2021-11-06T09:18:06.000Z</time>
      </trkpt>
      <trkpt lat="45.21571" lon="5.73162">
        <ele>968</ele>
        <time>2021-11-06T09:18:07.000Z</time>
      </trkpt>
      <trkpt lat="45.2157" lon="5.73164">
        <ele>967.20001220703</ele>
        <time>2021-11-06T09:18:09.000Z</time>
      </trkpt>
      <trkpt lat="45.21569" lon="5.73165">
        <ele>966.79998779297</ele>
        <time>2021-11-06T09:18:10.000Z</time>
      </trkpt>
      <trkpt lat="45.21569" lon="5.73167">
        <ele>965.59997558594</ele>
        <time>2021-11-06T09:18:11.000Z</time>
      </trkpt>
      <trkpt lat="45.21569" lon="5.73169">
        <ele>965</ele>
        <time>2021-11-06T09:18:12.000Z</time>
      </trkpt>
      <trkpt lat="45.21569" lon="5.73171">
        <ele>964.40002441406</ele>
        <time>2021-11-06T09:18:13.000Z</time>
      </trkpt>
      <trkpt lat="45.21569" lon="5.73172">
        <ele>964</ele>
        <time>2021-11-06T09:18:14.000Z</time>
      </trkpt>
      <trkpt lat="45.2157" lon="5.73173">
        <ele>963</ele>
        <time>2021-11-06T09:18:16.000Z</time>
      </trkpt>
      <trkpt lat="45.21569" lon="5.73175">
        <ele>962.40002441406</ele>
        <time>2021-11-06T09:18:18.000Z</time>
      </trkpt>
      <trkpt lat="45.21569" lon="5.73178">
        <ele>961.40002441406</ele>
        <time>2021-11-06T09:18:20.000Z</time>
      </trkpt>
      <trkpt lat="45.21571" lon="5.73183">
        <ele>960.40002441406</ele>
        <time>2021-11-06T09:18:23.000Z</time>
      </trkpt>
      <trkpt lat="45.21573" lon="5.73186">
        <ele>959.59997558594</ele>
        <time>2021-11-06T09:18:25.000Z</time>
      </trkpt>
      <trkpt lat="45.21575" lon="5.73188">
        <ele>959.20001220703</ele>
        <time>2021-11-06T09:18:26.000Z</time>
      </trkpt>
      <trkpt lat="45.2158" lon="5.73193">
        <ele>958</ele>
        <time>2021-11-06T09:18:29.000Z</time>
      </trkpt>
      <trkpt lat="45.21584" lon="5.73197">
        <ele>957</ele>
        <time>2021-11-06T09:18:32.000Z</time>
      </trkpt>
      <trkpt lat="45.21585" lon="5.73198">
        <ele>956.79998779297</ele>
        <time>2021-11-06T09:18:33.000Z</time>
      </trkpt>
      <trkpt lat="45.21588" lon="5.73203">
        <ele>956.20001220703</ele>
        <time>2021-11-06T09:18:35.000Z</time>
      </trkpt>
      <trkpt lat="45.21592" lon="5.73207">
        <ele>955.59997558594</ele>
        <time>2021-11-06T09:18:37.000Z</time>
      </trkpt>
      <trkpt lat="45.21593" lon="5.73209">
        <ele>955.20001220703</ele>
        <time>2021-11-06T09:18:38.000Z</time>
      </trkpt>
      <trkpt lat="45.21598" lon="5.73215">
        <ele>954.40002441406</ele>
        <time>2021-11-06T09:18:41.000Z</time>
      </trkpt>
      <trkpt lat="45.21604" lon="5.73219">
        <ele>953.79998779297</ele>
        <time>2021-11-06T09:18:44.000Z</time>
      </trkpt>
      <trkpt lat="45.21605" lon="5.73221">
        <ele>953</ele>
        <time>2021-11-06T09:18:46.000Z</time>
      </trkpt>
      <trkpt lat="45.21606" lon="5.73224">
        <ele>952</ele>
        <time>2021-11-06T09:18:48.000Z</time>
      </trkpt>
      <trkpt lat="45.21605" lon="5.73228">
        <ele>951.40002441406</ele>
        <time>2021-11-06T09:18:50.000Z</time>
      </trkpt>
      <trkpt lat="45.21607" lon="5.73231">
        <ele>950.79998779297</ele>
        <time>2021-11-06T09:18:52.000Z</time>
      </trkpt>
      <trkpt lat="45.21611" lon="5.73237">
        <ele>949.59997558594</ele>
        <time>2021-11-06T09:18:56.000Z</time>
      </trkpt>
      <trkpt lat="45.21612" lon="5.7324">
        <ele>948.79998779297</ele>
        <time>2021-11-06T09:18:58.000Z</time>
      </trkpt>
      <trkpt lat="45.21612" lon="5.73242">
        <ele>948.40002441406</ele>
        <time>2021-11-06T09:18:59.000Z</time>
      </trkpt>
      <trkpt lat="45.21616" lon="5.73251">
        <ele>947</ele>
        <time>2021-11-06T09:19:03.000Z</time>
      </trkpt>
      <trkpt lat="45.2162" lon="5.73257">
        <ele>945.79998779297</ele>
        <time>2021-11-06T09:19:06.000Z</time>
      </trkpt>
      <trkpt lat="45.21622" lon="5.73261">
        <ele>944.40002441406</ele>
        <time>2021-11-06T09:19:08.000Z</time>
      </trkpt>
      <trkpt lat="45.21623" lon="5.73263">
        <ele>944</ele>
        <time>2021-11-06T09:19:09.000Z</time>
      </trkpt>
      <trkpt lat="45.21625" lon="5.73268">
        <ele>943.40002441406</ele>
        <time>2021-11-06T09:19:11.000Z</time>
      </trkpt>
      <trkpt lat="45.21632" lon="5.73278">
        <ele>942</ele>
        <time>2021-11-06T09:19:15.000Z</time>
      </trkpt>
      <trkpt lat="45.21634" lon="5.7328">
        <ele>941.79998779297</ele>
        <time>2021-11-06T09:19:16.000Z</time>
      </trkpt>
      <trkpt lat="45.21637" lon="5.73289">
        <ele>940.79998779297</ele>
        <time>2021-11-06T09:19:19.000Z</time>
      </trkpt>
      <trkpt lat="45.21639" lon="5.73297">
        <ele>939.79998779297</ele>
        <time>2021-11-06T09:19:22.000Z</time>
      </trkpt>
      <trkpt lat="45.2164" lon="5.733">
        <ele>939.59997558594</ele>
        <time>2021-11-06T09:19:23.000Z</time>
      </trkpt>
      <trkpt lat="45.21642" lon="5.73308">
        <ele>938.59997558594</ele>
        <time>2021-11-06T09:19:26.000Z</time>
      </trkpt>
      <trkpt lat="45.21643" lon="5.73315">
        <ele>937.79998779297</ele>
        <time>2021-11-06T09:19:29.000Z</time>
      </trkpt>
      <trkpt lat="45.21645" lon="5.73317">
        <ele>937.40002441406</ele>
        <time>2021-11-06T09:19:30.000Z</time>
      </trkpt>
      <trkpt lat="45.21647" lon="5.73323">
        <ele>936</ele>
        <time>2021-11-06T09:19:33.000Z</time>
      </trkpt>
      <trkpt lat="45.21649" lon="5.73329">
        <ele>935.40002441406</ele>
        <time>2021-11-06T09:19:35.000Z</time>
      </trkpt>
      <trkpt lat="45.21649" lon="5.7333">
        <ele>935</ele>
        <time>2021-11-06T09:19:36.000Z</time>
      </trkpt>
      <trkpt lat="45.21649" lon="5.73334">
        <ele>934</ele>
        <time>2021-11-06T09:19:38.000Z</time>
      </trkpt>
      <trkpt lat="45.21649" lon="5.73336">
        <ele>933.59997558594</ele>
        <time>2021-11-06T09:19:39.000Z</time>
      </trkpt>
      <trkpt lat="45.21649" lon="5.7334">
        <ele>932.20001220703</ele>
        <time>2021-11-06T09:19:41.000Z</time>
      </trkpt>
      <trkpt lat="45.21646" lon="5.7334">
        <ele>930.79998779297</ele>
        <time>2021-11-06T09:19:44.000Z</time>
      </trkpt>
      <trkpt lat="45.21645" lon="5.73338">
        <ele>930.59997558594</ele>
        <time>2021-11-06T09:19:45.000Z</time>
      </trkpt>
      <trkpt lat="45.2164" lon="5.73334">
        <ele>929.79998779297</ele>
        <time>2021-11-06T09:19:48.000Z</time>
      </trkpt>
      <trkpt lat="45.21635" lon="5.73328">
        <ele>928.59997558594</ele>
        <time>2021-11-06T09:19:52.000Z</time>
      </trkpt>
      <trkpt lat="45.21629" lon="5.73321">
        <ele>927.59997558594</ele>
        <time>2021-11-06T09:19:56.000Z</time>
      </trkpt>
      <trkpt lat="45.21623" lon="5.73313">
        <ele>926.20001220703</ele>
        <time>2021-11-06T09:20:00.000Z</time>
      </trkpt>
      <trkpt lat="45.21622" lon="5.73311">
        <ele>925.79998779297</ele>
        <time>2021-11-06T09:20:01.000Z</time>
      </trkpt>
      <trkpt lat="45.21618" lon="5.73305">
        <ele>925</ele>
        <time>2021-11-06T09:20:04.000Z</time>
      </trkpt>
      <trkpt lat="45.21609" lon="5.73298">
        <ele>924</ele>
        <time>2021-11-06T09:20:09.000Z</time>
      </trkpt>
      <trkpt lat="45.21601" lon="5.73295">
        <ele>922.79998779297</ele>
        <time>2021-11-06T09:20:14.000Z</time>
      </trkpt>
      <trkpt lat="45.21594" lon="5.73291">
        <ele>921.40002441406</ele>
        <time>2021-11-06T09:20:18.000Z</time>
      </trkpt>
      <trkpt lat="45.21593" lon="5.7329">
        <ele>921</ele>
        <time>2021-11-06T09:20:19.000Z</time>
      </trkpt>
      <trkpt lat="45.21587" lon="5.73288">
        <ele>920</ele>
        <time>2021-11-06T09:20:22.000Z</time>
      </trkpt>
      <trkpt lat="45.21582" lon="5.73285">
        <ele>919.20001220703</ele>
        <time>2021-11-06T09:20:25.000Z</time>
      </trkpt>
      <trkpt lat="45.21581" lon="5.73284">
        <ele>919</ele>
        <time>2021-11-06T09:20:26.000Z</time>
      </trkpt>
      <trkpt lat="45.21579" lon="5.73283">
        <ele>918.20001220703</ele>
        <time>2021-11-06T09:20:28.000Z</time>
      </trkpt>
      <trkpt lat="45.21576" lon="5.73282">
        <ele>918</ele>
        <time>2021-11-06T09:20:30.000Z</time>
      </trkpt>
      <trkpt lat="45.21575" lon="5.73281">
        <ele>917.79998779297</ele>
        <time>2021-11-06T09:20:31.000Z</time>
      </trkpt>
      <trkpt lat="45.21573" lon="5.73281">
        <ele>917</ele>
        <time>2021-11-06T09:20:33.000Z</time>
      </trkpt>
      <trkpt lat="45.21572" lon="5.73281">
        <ele>916.59997558594</ele>
        <time>2021-11-06T09:20:34.000Z</time>
      </trkpt>
      <trkpt lat="45.21571" lon="5.7328">
        <ele>916</ele>
        <time>2021-11-06T09:20:35.000Z</time>
      </trkpt>
      <trkpt lat="45.2157" lon="5.7328">
        <ele>915.40002441406</ele>
        <time>2021-11-06T09:20:36.000Z</time>
      </trkpt>
      <trkpt lat="45.21569" lon="5.7328">
        <ele>915</ele>
        <time>2021-11-06T09:20:37.000Z</time>
      </trkpt>
      <trkpt lat="45.21566" lon="5.73281">
        <ele>914.59997558594</ele>
        <time>2021-11-06T09:20:39.000Z</time>
      </trkpt>
      <trkpt lat="45.21564" lon="5.73281">
        <ele>914.40002441406</ele>
        <time>2021-11-06T09:20:40.000Z</time>
      </trkpt>
      <trkpt lat="45.21562" lon="5.7328">
        <ele>913.59997558594</ele>
        <time>2021-11-06T09:20:42.000Z</time>
      </trkpt>
      <trkpt lat="45.2156" lon="5.7328">
        <ele>913.20001220703</ele>
        <time>2021-11-06T09:20:43.000Z</time>
      </trkpt>
      <trkpt lat="45.21557" lon="5.73278">
        <ele>912.20001220703</ele>
        <time>2021-11-06T09:20:45.000Z</time>
      </trkpt>
      <trkpt lat="45.21551" lon="5.73279">
        <ele>911.20001220703</ele>
        <time>2021-11-06T09:20:48.000Z</time>
      </trkpt>
      <trkpt lat="45.21549" lon="5.73279">
        <ele>910.59997558594</ele>
        <time>2021-11-06T09:20:49.000Z</time>
      </trkpt>
      <trkpt lat="45.21545" lon="5.73279">
        <ele>910</ele>
        <time>2021-11-06T09:20:51.000Z</time>
      </trkpt>
      <trkpt lat="45.21536" lon="5.73279">
        <ele>908.59997558594</ele>
        <time>2021-11-06T09:20:55.000Z</time>
      </trkpt>
      <trkpt lat="45.21534" lon="5.73279">
        <ele>907.79998779297</ele>
        <time>2021-11-06T09:20:57.000Z</time>
      </trkpt>
      <trkpt lat="45.21534" lon="5.7328">
        <ele>907.40002441406</ele>
        <time>2021-11-06T09:20:58.000Z</time>
      </trkpt>
      <trkpt lat="45.21537" lon="5.73283">
        <ele>906.20001220703</ele>
        <time>2021-11-06T09:21:02.000Z</time>
      </trkpt>
      <trkpt lat="45.21539" lon="5.73284">
        <ele>904.79998779297</ele>
        <time>2021-11-06T09:21:05.000Z</time>
      </trkpt>
      <trkpt lat="45.21543" lon="5.73284">
        <ele>903.59997558594</ele>
        <time>2021-11-06T09:21:08.000Z</time>
      </trkpt>
      <trkpt lat="45.21546" lon="5.73286">
        <ele>902.40002441406</ele>
        <time>2021-11-06T09:21:10.000Z</time>
      </trkpt>
      <trkpt lat="45.2155" lon="5.73288">
        <ele>901</ele>
        <time>2021-11-06T09:21:13.000Z</time>
      </trkpt>
      <trkpt lat="45.21553" lon="5.73292">
        <ele>900</ele>
        <time>2021-11-06T09:21:15.000Z</time>
      </trkpt>
      <trkpt lat="45.21555" lon="5.73295">
        <ele>898.79998779297</ele>
        <time>2021-11-06T09:21:17.000Z</time>
      </trkpt>
      <trkpt lat="45.21556" lon="5.73296">
        <ele>898</ele>
        <time>2021-11-06T09:21:19.000Z</time>
      </trkpt>
      <trkpt lat="45.21556" lon="5.73296">
        <ele>897.79998779297</ele>
        <time>2021-11-06T09:21:20.000Z</time>
      </trkpt>
      <trkpt lat="45.21556" lon="5.73297">
        <ele>897.59997558594</ele>
        <time>2021-11-06T09:21:21.000Z</time>
      </trkpt>
      <trkpt lat="45.21558" lon="5.73301">
        <ele>896.59997558594</ele>
        <time>2021-11-06T09:21:24.000Z</time>
      </trkpt>
      <trkpt lat="45.2156" lon="5.73304">
        <ele>895.59997558594</ele>
        <time>2021-11-06T09:21:26.000Z</time>
      </trkpt>
      <trkpt lat="45.21561" lon="5.73306">
        <ele>895.20001220703</ele>
        <time>2021-11-06T09:21:27.000Z</time>
      </trkpt>
      <trkpt lat="45.21564" lon="5.7331">
        <ele>894.20001220703</ele>
        <time>2021-11-06T09:21:29.000Z</time>
      </trkpt>
      <trkpt lat="45.21564" lon="5.73311">
        <ele>893.59997558594</ele>
        <time>2021-11-06T09:21:30.000Z</time>
      </trkpt>
      <trkpt lat="45.21565" lon="5.73313">
        <ele>892.79998779297</ele>
        <time>2021-11-06T09:21:32.000Z</time>
      </trkpt>
      <trkpt lat="45.21566" lon="5.73317">
        <ele>892</ele>
        <time>2021-11-06T09:21:35.000Z</time>
      </trkpt>
      <trkpt lat="45.21567" lon="5.73322">
        <ele>891.59997558594</ele>
        <time>2021-11-06T09:21:37.000Z</time>
      </trkpt>
      <trkpt lat="45.2157" lon="5.73324">
        <ele>891</ele>
        <time>2021-11-06T09:21:39.000Z</time>
      </trkpt>
      <trkpt lat="45.21573" lon="5.73326">
        <ele>890.59997558594</ele>
        <time>2021-11-06T09:21:42.000Z</time>
      </trkpt>
      <trkpt lat="45.21578" lon="5.7333">
        <ele>890</ele>
        <time>2021-11-06T09:21:46.000Z</time>
      </trkpt>
      <trkpt lat="45.21579" lon="5.73332">
        <ele>889.79998779297</ele>
        <time>2021-11-06T09:21:47.000Z</time>
      </trkpt>
      <trkpt lat="45.21578" lon="5.73333">
        <ele>889.79998779297</ele>
        <time>2021-11-06T09:21:48.000Z</time>
      </trkpt>
      <trkpt lat="45.21576" lon="5.73334">
        <ele>889.40002441406</ele>
        <time>2021-11-06T09:21:49.000Z</time>
      </trkpt>
      <trkpt lat="45.21574" lon="5.73333">
        <ele>889.20001220703</ele>
        <time>2021-11-06T09:21:50.000Z</time>
      </trkpt>
      <trkpt lat="45.21567" lon="5.73332">
        <ele>888.20001220703</ele>
        <time>2021-11-06T09:21:53.000Z</time>
      </trkpt>
      <trkpt lat="45.21565" lon="5.73331">
        <ele>887.79998779297</ele>
        <time>2021-11-06T09:21:54.000Z</time>
      </trkpt>
      <trkpt lat="45.21557" lon="5.73331">
        <ele>887</ele>
        <time>2021-11-06T09:21:57.000Z</time>
      </trkpt>
      <trkpt lat="45.21552" lon="5.7333">
        <ele>886.59997558594</ele>
        <time>2021-11-06T09:21:59.000Z</time>
      </trkpt>
      <trkpt lat="45.21549" lon="5.73328">
        <ele>886</ele>
        <time>2021-11-06T09:22:01.000Z</time>
      </trkpt>
      <trkpt lat="45.21545" lon="5.73327">
        <ele>884.59997558594</ele>
        <time>2021-11-06T09:22:03.000Z</time>
      </trkpt>
      <trkpt lat="45.21543" lon="5.73328">
        <ele>884.20001220703</ele>
        <time>2021-11-06T09:22:04.000Z</time>
      </trkpt>
      <trkpt lat="45.21538" lon="5.7333">
        <ele>883.40002441406</ele>
        <time>2021-11-06T09:22:06.000Z</time>
      </trkpt>
      <trkpt lat="45.2153" lon="5.73329">
        <ele>882.20001220703</ele>
        <time>2021-11-06T09:22:09.000Z</time>
      </trkpt>
      <trkpt lat="45.21528" lon="5.73328">
        <ele>881.79998779297</ele>
        <time>2021-11-06T09:22:10.000Z</time>
      </trkpt>
      <trkpt lat="45.21524" lon="5.73327">
        <ele>881</ele>
        <time>2021-11-06T09:22:12.000Z</time>
      </trkpt>
      <trkpt lat="45.21516" lon="5.73326">
        <ele>880</ele>
        <time>2021-11-06T09:22:15.000Z</time>
      </trkpt>
      <trkpt lat="45.21511" lon="5.73322">
        <ele>879.59997558594</ele>
        <time>2021-11-06T09:22:17.000Z</time>
      </trkpt>
      <trkpt lat="45.21508" lon="5.73318">
        <ele>879</ele>
        <time>2021-11-06T09:22:19.000Z</time>
      </trkpt>
      <trkpt lat="45.21508" lon="5.73316">
        <ele>878.59997558594</ele>
        <time>2021-11-06T09:22:20.000Z</time>
      </trkpt>
      <trkpt lat="45.21508" lon="5.73313">
        <ele>878.40002441406</ele>
        <time>2021-11-06T09:22:21.000Z</time>
      </trkpt>
      <trkpt lat="45.21508" lon="5.73311">
        <ele>878.20001220703</ele>
        <time>2021-11-06T09:22:22.000Z</time>
      </trkpt>
      <trkpt lat="45.21508" lon="5.73305">
        <ele>877.40002441406</ele>
        <time>2021-11-06T09:22:24.000Z</time>
      </trkpt>
      <trkpt lat="45.21506" lon="5.73299">
        <ele>877</ele>
        <time>2021-11-06T09:22:26.000Z</time>
      </trkpt>
      <trkpt lat="45.21505" lon="5.73292">
        <ele>876.40002441406</ele>
        <time>2021-11-06T09:22:28.000Z</time>
      </trkpt>
      <trkpt lat="45.21503" lon="5.73279">
        <ele>876.20001220703</ele>
        <time>2021-11-06T09:22:31.000Z</time>
      </trkpt>
      <trkpt lat="45.21504" lon="5.73272">
        <ele>876.20001220703</ele>
        <time>2021-11-06T09:22:33.000Z</time>
      </trkpt>
      <trkpt lat="45.21502" lon="5.73267">
        <ele>876.20001220703</ele>
        <time>2021-11-06T09:22:35.000Z</time>
      </trkpt>
      <trkpt lat="45.21494" lon="5.73255">
        <ele>875.40002441406</ele>
        <time>2021-11-06T09:22:40.000Z</time>
      </trkpt>
      <trkpt lat="45.21492" lon="5.73253">
        <ele>875</ele>
        <time>2021-11-06T09:22:41.000Z</time>
      </trkpt>
      <trkpt lat="45.21487" lon="5.73247">
        <ele>874.20001220703</ele>
        <time>2021-11-06T09:22:44.000Z</time>
      </trkpt>
      <trkpt lat="45.21484" lon="5.73245">
        <ele>873.20001220703</ele>
        <time>2021-11-06T09:22:46.000Z</time>
      </trkpt>
      <trkpt lat="45.21481" lon="5.73242">
        <ele>872.40002441406</ele>
        <time>2021-11-06T09:22:48.000Z</time>
      </trkpt>
      <trkpt lat="45.21479" lon="5.73241">
        <ele>872.20001220703</ele>
        <time>2021-11-06T09:22:49.000Z</time>
      </trkpt>
      <trkpt lat="45.21475" lon="5.73238">
        <ele>871</ele>
        <time>2021-11-06T09:22:51.000Z</time>
      </trkpt>
      <trkpt lat="45.2147" lon="5.73229">
        <ele>870.20001220703</ele>
        <time>2021-11-06T09:22:54.000Z</time>
      </trkpt>
      <trkpt lat="45.21468" lon="5.73222">
        <ele>869.40002441406</ele>
        <time>2021-11-06T09:22:56.000Z</time>
      </trkpt>
      <trkpt lat="45.21468" lon="5.7321">
        <ele>868.79998779297</ele>
        <time>2021-11-06T09:22:59.000Z</time>
      </trkpt>
      <trkpt lat="45.21467" lon="5.73198">
        <ele>868.40002441406</ele>
        <time>2021-11-06T09:23:03.000Z</time>
      </trkpt>
      <trkpt lat="45.21467" lon="5.73196">
        <ele>868</ele>
        <time>2021-11-06T09:23:04.000Z</time>
      </trkpt>
      <trkpt lat="45.21466" lon="5.73193">
        <ele>867.20001220703</ele>
        <time>2021-11-06T09:23:06.000Z</time>
      </trkpt>
      <trkpt lat="45.21466" lon="5.73192">
        <ele>867</ele>
        <time>2021-11-06T09:23:07.000Z</time>
      </trkpt>
      <trkpt lat="45.21463" lon="5.7319">
        <ele>866.59997558594</ele>
        <time>2021-11-06T09:23:09.000Z</time>
      </trkpt>
      <trkpt lat="45.21461" lon="5.73189">
        <ele>866.20001220703</ele>
        <time>2021-11-06T09:23:10.000Z</time>
      </trkpt>
      <trkpt lat="45.21458" lon="5.73186">
        <ele>865</ele>
        <time>2021-11-06T09:23:12.000Z</time>
      </trkpt>
      <trkpt lat="45.21455" lon="5.73182">
        <ele>863.59997558594</ele>
        <time>2021-11-06T09:23:14.000Z</time>
      </trkpt>
      <trkpt lat="45.21452" lon="5.73179">
        <ele>862.40002441406</ele>
        <time>2021-11-06T09:23:16.000Z</time>
      </trkpt>
      <trkpt lat="45.21447" lon="5.73176">
        <ele>861</ele>
        <time>2021-11-06T09:23:19.000Z</time>
      </trkpt>
      <trkpt lat="45.21439" lon="5.73177">
        <ele>859.79998779297</ele>
        <time>2021-11-06T09:23:23.000Z</time>
      </trkpt>
      <trkpt lat="45.21434" lon="5.73177">
        <ele>858.59997558594</ele>
        <time>2021-11-06T09:23:25.000Z</time>
      </trkpt>
      <trkpt lat="45.21428" lon="5.73176">
        <ele>857.40002441406</ele>
        <time>2021-11-06T09:23:27.000Z</time>
      </trkpt>
      <trkpt lat="45.21425" lon="5.7317">
        <ele>856.79998779297</ele>
        <time>2021-11-06T09:23:29.000Z</time>
      </trkpt>
      <trkpt lat="45.21419" lon="5.73165">
        <ele>856.20001220703</ele>
        <time>2021-11-06T09:23:31.000Z</time>
      </trkpt>
      <trkpt lat="45.21411" lon="5.73155">
        <ele>855.20001220703</ele>
        <time>2021-11-06T09:23:36.000Z</time>
      </trkpt>
      <trkpt lat="45.21406" lon="5.73145">
        <ele>853.79998779297</ele>
        <time>2021-11-06T09:23:39.000Z</time>
      </trkpt>
      <trkpt lat="45.21403" lon="5.73139">
        <ele>852.79998779297</ele>
        <time>2021-11-06T09:23:41.000Z</time>
      </trkpt>
      <trkpt lat="45.21402" lon="5.73136">
        <ele>852.40002441406</ele>
        <time>2021-11-06T09:23:42.000Z</time>
      </trkpt>
      <trkpt lat="45.21395" lon="5.73125">
        <ele>851.20001220703</ele>
        <time>2021-11-06T09:23:46.000Z</time>
      </trkpt>
      <trkpt lat="45.21384" lon="5.73113">
        <ele>850.20001220703</ele>
        <time>2021-11-06T09:23:51.000Z</time>
      </trkpt>
      <trkpt lat="45.2138" lon="5.73108">
        <ele>849.59997558594</ele>
        <time>2021-11-06T09:23:53.000Z</time>
      </trkpt>
      <trkpt lat="45.21372" lon="5.73096">
        <ele>848.79998779297</ele>
        <time>2021-11-06T09:23:57.000Z</time>
      </trkpt>
      <trkpt lat="45.21368" lon="5.7309">
        <ele>848.20001220703</ele>
        <time>2021-11-06T09:23:59.000Z</time>
      </trkpt>
      <trkpt lat="45.21366" lon="5.73088">
        <ele>848</ele>
        <time>2021-11-06T09:24:00.000Z</time>
      </trkpt>
      <trkpt lat="45.21364" lon="5.73085">
        <ele>848</ele>
        <time>2021-11-06T09:24:01.000Z</time>
      </trkpt>
      <trkpt lat="45.2136" lon="5.73079">
        <ele>847.79998779297</ele>
        <time>2021-11-06T09:24:04.000Z</time>
      </trkpt>
      <trkpt lat="45.21359" lon="5.73077">
        <ele>847.59997558594</ele>
        <time>2021-11-06T09:24:05.000Z</time>
      </trkpt>
      <trkpt lat="45.21355" lon="5.73073">
        <ele>846.79998779297</ele>
        <time>2021-11-06T09:24:08.000Z</time>
      </trkpt>
      <trkpt lat="45.21354" lon="5.73071">
        <ele>846.59997558594</ele>
        <time>2021-11-06T09:24:09.000Z</time>
      </trkpt>
      <trkpt lat="45.21352" lon="5.73067">
        <ele>845.79998779297</ele>
        <time>2021-11-06T09:24:11.000Z</time>
      </trkpt>
      <trkpt lat="45.21352" lon="5.73065">
        <ele>845.40002441406</ele>
        <time>2021-11-06T09:24:12.000Z</time>
      </trkpt>
      <trkpt lat="45.21349" lon="5.7306">
        <ele>844.20001220703</ele>
        <time>2021-11-06T09:24:15.000Z</time>
      </trkpt>
      <trkpt lat="45.21345" lon="5.73055">
        <ele>843.20001220703</ele>
        <time>2021-11-06T09:24:18.000Z</time>
      </trkpt>
      <trkpt lat="45.21341" lon="5.7305">
        <ele>842</ele>
        <time>2021-11-06T09:24:21.000Z</time>
      </trkpt>
      <trkpt lat="45.21337" lon="5.73045">
        <ele>840.59997558594</ele>
        <time>2021-11-06T09:24:24.000Z</time>
      </trkpt>
      <trkpt lat="45.21336" lon="5.73044">
        <ele>840.20001220703</ele>
        <time>2021-11-06T09:24:25.000Z</time>
      </trkpt>
      <trkpt lat="45.21334" lon="5.73041">
        <ele>839.59997558594</ele>
        <time>2021-11-06T09:24:27.000Z</time>
      </trkpt>
      <trkpt lat="45.21333" lon="5.73039">
        <ele>839.40002441406</ele>
        <time>2021-11-06T09:24:28.000Z</time>
      </trkpt>
      <trkpt lat="45.2133" lon="5.73034">
        <ele>838</ele>
        <time>2021-11-06T09:24:31.000Z</time>
      </trkpt>
      <trkpt lat="45.21329" lon="5.73032">
        <ele>837</ele>
        <time>2021-11-06T09:24:33.000Z</time>
      </trkpt>
      <trkpt lat="45.21326" lon="5.73027">
        <ele>835.79998779297</ele>
        <time>2021-11-06T09:24:36.000Z</time>
      </trkpt>
      <trkpt lat="45.21324" lon="5.73024">
        <ele>835.20001220703</ele>
        <time>2021-11-06T09:24:38.000Z</time>
      </trkpt>
      <trkpt lat="45.21321" lon="5.73021">
        <ele>834.59997558594</ele>
        <time>2021-11-06T09:24:40.000Z</time>
      </trkpt>
      <trkpt lat="45.21318" lon="5.73016">
        <ele>833.20001220703</ele>
        <time>2021-11-06T09:24:43.000Z</time>
      </trkpt>
      <trkpt lat="45.21317" lon="5.73012">
        <ele>832.59997558594</ele>
        <time>2021-11-06T09:24:45.000Z</time>
      </trkpt>
      <trkpt lat="45.21312" lon="5.73006">
        <ele>831.79998779297</ele>
        <time>2021-11-06T09:24:48.000Z</time>
      </trkpt>
      <trkpt lat="45.21309" lon="5.73003">
        <ele>831.20001220703</ele>
        <time>2021-11-06T09:24:50.000Z</time>
      </trkpt>
      <trkpt lat="45.21308" lon="5.73002">
        <ele>830.59997558594</ele>
        <time>2021-11-06T09:24:51.000Z</time>
      </trkpt>
      <trkpt lat="45.21307" lon="5.73001">
        <ele>830.40002441406</ele>
        <time>2021-11-06T09:24:52.000Z</time>
      </trkpt>
      <trkpt lat="45.21303" lon="5.72996">
        <ele>829.40002441406</ele>
        <time>2021-11-06T09:24:55.000Z</time>
      </trkpt>
      <trkpt lat="45.21298" lon="5.72993">
        <ele>828.20001220703</ele>
        <time>2021-11-06T09:24:58.000Z</time>
      </trkpt>
      <trkpt lat="45.21293" lon="5.72989">
        <ele>827.20001220703</ele>
        <time>2021-11-06T09:25:02.000Z</time>
      </trkpt>
      <trkpt lat="45.2129" lon="5.72983">
        <ele>826.20001220703</ele>
        <time>2021-11-06T09:25:05.000Z</time>
      </trkpt>
      <trkpt lat="45.21288" lon="5.72981">
        <ele>825.40002441406</ele>
        <time>2021-11-06T09:25:07.000Z</time>
      </trkpt>
      <trkpt lat="45.21287" lon="5.7298">
        <ele>825</ele>
        <time>2021-11-06T09:25:08.000Z</time>
      </trkpt>
      <trkpt lat="45.21284" lon="5.72976">
        <ele>823.79998779297</ele>
        <time>2021-11-06T09:25:11.000Z</time>
      </trkpt>
      <trkpt lat="45.21277" lon="5.72971">
        <ele>822.79998779297</ele>
        <time>2021-11-06T09:25:15.000Z</time>
      </trkpt>
      <trkpt lat="45.21276" lon="5.72969">
        <ele>822.20001220703</ele>
        <time>2021-11-06T09:25:16.000Z</time>
      </trkpt>
      <trkpt lat="45.21273" lon="5.72965">
        <ele>821.59997558594</ele>
        <time>2021-11-06T09:25:18.000Z</time>
      </trkpt>
      <trkpt lat="45.21269" lon="5.7296">
        <ele>820.40002441406</ele>
        <time>2021-11-06T09:25:22.000Z</time>
      </trkpt>
      <trkpt lat="45.21265" lon="5.72959">
        <ele>819.20001220703</ele>
        <time>2021-11-06T09:25:25.000Z</time>
      </trkpt>
      <trkpt lat="45.2126" lon="5.72958">
        <ele>818</ele>
        <time>2021-11-06T09:25:28.000Z</time>
      </trkpt>
      <trkpt lat="45.21259" lon="5.72957">
        <ele>817.59997558594</ele>
        <time>2021-11-06T09:25:29.000Z</time>
      </trkpt>
      <trkpt lat="45.21257" lon="5.72955">
        <ele>816.79998779297</ele>
        <time>2021-11-06T09:25:31.000Z</time>
      </trkpt>
      <trkpt lat="45.21252" lon="5.72952">
        <ele>815.40002441406</ele>
        <time>2021-11-06T09:25:34.000Z</time>
      </trkpt>
      <trkpt lat="45.21248" lon="5.72948">
        <ele>814.40002441406</ele>
        <time>2021-11-06T09:25:37.000Z</time>
      </trkpt>
      <trkpt lat="45.21245" lon="5.72947">
        <ele>813.20001220703</ele>
        <time>2021-11-06T09:25:40.000Z</time>
      </trkpt>
      <trkpt lat="45.21241" lon="5.72946">
        <ele>812.40002441406</ele>
        <time>2021-11-06T09:25:43.000Z</time>
      </trkpt>
      <trkpt lat="45.21239" lon="5.72945">
        <ele>811.79998779297</ele>
        <time>2021-11-06T09:25:44.000Z</time>
      </trkpt>
      <trkpt lat="45.21235" lon="5.72943">
        <ele>810.59997558594</ele>
        <time>2021-11-06T09:25:47.000Z</time>
      </trkpt>
      <trkpt lat="45.21227" lon="5.72938">
        <ele>809.40002441406</ele>
        <time>2021-11-06T09:25:51.000Z</time>
      </trkpt>
      <trkpt lat="45.21226" lon="5.72936">
        <ele>809</ele>
        <time>2021-11-06T09:25:52.000Z</time>
      </trkpt>
      <trkpt lat="45.21222" lon="5.7293">
        <ele>808.20001220703</ele>
        <time>2021-11-06T09:25:55.000Z</time>
      </trkpt>
      <trkpt lat="45.2122" lon="5.72929">
        <ele>807.79998779297</ele>
        <time>2021-11-06T09:25:57.000Z</time>
      </trkpt>
      <trkpt lat="45.21218" lon="5.72928">
        <ele>807</ele>
        <time>2021-11-06T09:25:59.000Z</time>
      </trkpt>
      <trkpt lat="45.21215" lon="5.72925">
        <ele>805.59997558594</ele>
        <time>2021-11-06T09:26:02.000Z</time>
      </trkpt>
      <trkpt lat="45.21211" lon="5.72924">
        <ele>804.40002441406</ele>
        <time>2021-11-06T09:26:05.000Z</time>
      </trkpt>
      <trkpt lat="45.21209" lon="5.72925">
        <ele>803.59997558594</ele>
        <time>2021-11-06T09:26:07.000Z</time>
      </trkpt>
      <trkpt lat="45.21209" lon="5.72927">
        <ele>803.20001220703</ele>
        <time>2021-11-06T09:26:08.000Z</time>
      </trkpt>
      <trkpt lat="45.21209" lon="5.72932">
        <ele>802.40002441406</ele>
        <time>2021-11-06T09:26:10.000Z</time>
      </trkpt>
      <trkpt lat="45.21209" lon="5.72934">
        <ele>802.20001220703</ele>
        <time>2021-11-06T09:26:11.000Z</time>
      </trkpt>
      <trkpt lat="45.21211" lon="5.72939">
        <ele>801</ele>
        <time>2021-11-06T09:26:14.000Z</time>
      </trkpt>
      <trkpt lat="45.21213" lon="5.72942">
        <ele>800</ele>
        <time>2021-11-06T09:26:16.000Z</time>
      </trkpt>
      <trkpt lat="45.21214" lon="5.72944">
        <ele>799.59997558594</ele>
        <time>2021-11-06T09:26:17.000Z</time>
      </trkpt>
      <trkpt lat="45.21215" lon="5.72946">
        <ele>799.40002441406</ele>
        <time>2021-11-06T09:26:18.000Z</time>
      </trkpt>
      <trkpt lat="45.21214" lon="5.72948">
        <ele>798.59997558594</ele>
        <time>2021-11-06T09:26:20.000Z</time>
      </trkpt>
      <trkpt lat="45.21212" lon="5.72948">
        <ele>798.20001220703</ele>
        <time>2021-11-06T09:26:21.000Z</time>
      </trkpt>
      <trkpt lat="45.21205" lon="5.72945">
        <ele>797</ele>
        <time>2021-11-06T09:26:24.000Z</time>
      </trkpt>
      <trkpt lat="45.21198" lon="5.72937">
        <ele>796</ele>
        <time>2021-11-06T09:26:27.000Z</time>
      </trkpt>
      <trkpt lat="45.21195" lon="5.72932">
        <ele>795</ele>
        <time>2021-11-06T09:26:30.000Z</time>
      </trkpt>
      <trkpt lat="45.2119" lon="5.72926">
        <ele>794</ele>
        <time>2021-11-06T09:26:33.000Z</time>
      </trkpt>
      <trkpt lat="45.21189" lon="5.72925">
        <ele>793.59997558594</ele>
        <time>2021-11-06T09:26:34.000Z</time>
      </trkpt>
      <trkpt lat="45.21185" lon="5.72922">
        <ele>792.79998779297</ele>
        <time>2021-11-06T09:26:36.000Z</time>
      </trkpt>
      <trkpt lat="45.2118" lon="5.72919">
        <ele>791.40002441406</ele>
        <time>2021-11-06T09:26:39.000Z</time>
      </trkpt>
      <trkpt lat="45.21173" lon="5.72915">
        <ele>790.40002441406</ele>
        <time>2021-11-06T09:26:43.000Z</time>
      </trkpt>
      <trkpt lat="45.21172" lon="5.72914">
        <ele>789.79998779297</ele>
        <time>2021-11-06T09:26:44.000Z</time>
      </trkpt>
      <trkpt lat="45.21169" lon="5.72912">
        <ele>789</ele>
        <time>2021-11-06T09:26:46.000Z</time>
      </trkpt>
      <trkpt lat="45.21163" lon="5.7291">
        <ele>787.59997558594</ele>
        <time>2021-11-06T09:26:49.000Z</time>
      </trkpt>
      <trkpt lat="45.21157" lon="5.72908">
        <ele>786.59997558594</ele>
        <time>2021-11-06T09:26:52.000Z</time>
      </trkpt>
      <trkpt lat="45.21155" lon="5.72908">
        <ele>786.40002441406</ele>
        <time>2021-11-06T09:26:53.000Z</time>
      </trkpt>
      <trkpt lat="45.21149" lon="5.72906">
        <ele>785.40002441406</ele>
        <time>2021-11-06T09:26:56.000Z</time>
      </trkpt>
      <trkpt lat="45.21146" lon="5.72904">
        <ele>784.40002441406</ele>
        <time>2021-11-06T09:26:59.000Z</time>
      </trkpt>
      <trkpt lat="45.21144" lon="5.72904">
        <ele>784</ele>
        <time>2021-11-06T09:27:00.000Z</time>
      </trkpt>
      <trkpt lat="45.2114" lon="5.72905">
        <ele>783.20001220703</ele>
        <time>2021-11-06T09:27:02.000Z</time>
      </trkpt>
      <trkpt lat="45.21135" lon="5.72901">
        <ele>782</ele>
        <time>2021-11-06T09:27:05.000Z</time>
      </trkpt>
      <trkpt lat="45.2113" lon="5.72899">
        <ele>781.40002441406</ele>
        <time>2021-11-06T09:27:07.000Z</time>
      </trkpt>
      <trkpt lat="45.21127" lon="5.72899">
        <ele>781</ele>
        <time>2021-11-06T09:27:08.000Z</time>
      </trkpt>
      <trkpt lat="45.21119" lon="5.72897">
        <ele>779.79998779297</ele>
        <time>2021-11-06T09:27:12.000Z</time>
      </trkpt>
      <trkpt lat="45.21111" lon="5.72891">
        <ele>778.40002441406</ele>
        <time>2021-11-06T09:27:15.000Z</time>
      </trkpt>
      <trkpt lat="45.21105" lon="5.72886">
        <ele>777.20001220703</ele>
        <time>2021-11-06T09:27:18.000Z</time>
      </trkpt>
      <trkpt lat="45.211" lon="5.72878">
        <ele>776</ele>
        <time>2021-11-06T09:27:22.000Z</time>
      </trkpt>
      <trkpt lat="45.21099" lon="5.72876">
        <ele>775.59997558594</ele>
        <time>2021-11-06T09:27:24.000Z</time>
      </trkpt>
      <trkpt lat="45.21097" lon="5.72873">
        <ele>774.59997558594</ele>
        <time>2021-11-06T09:27:26.000Z</time>
      </trkpt>
      <trkpt lat="45.21096" lon="5.72872">
        <ele>774.20001220703</ele>
        <time>2021-11-06T09:27:27.000Z</time>
      </trkpt>
      <trkpt lat="45.21095" lon="5.72869">
        <ele>773.40002441406</ele>
        <time>2021-11-06T09:27:29.000Z</time>
      </trkpt>
      <trkpt lat="45.21094" lon="5.72868">
        <ele>773.20001220703</ele>
        <time>2021-11-06T09:27:30.000Z</time>
      </trkpt>
      <trkpt lat="45.21086" lon="5.72861">
        <ele>772.20001220703</ele>
        <time>2021-11-06T09:27:34.000Z</time>
      </trkpt>
      <trkpt lat="45.21083" lon="5.72858">
        <ele>771.79998779297</ele>
        <time>2021-11-06T09:27:36.000Z</time>
      </trkpt>
      <trkpt lat="45.21078" lon="5.72849">
        <ele>771</ele>
        <time>2021-11-06T09:27:40.000Z</time>
      </trkpt>
      <trkpt lat="45.21073" lon="5.72843">
        <ele>770</ele>
        <time>2021-11-06T09:27:43.000Z</time>
      </trkpt>
      <trkpt lat="45.21071" lon="5.7284">
        <ele>769.79998779297</ele>
        <time>2021-11-06T09:27:44.000Z</time>
      </trkpt>
      <trkpt lat="45.21066" lon="5.72821">
        <ele>769.20001220703</ele>
        <time>2021-11-06T09:27:50.000Z</time>
      </trkpt>
      <trkpt lat="45.2106" lon="5.72807">
        <ele>768.79998779297</ele>
        <time>2021-11-06T09:27:54.000Z</time>
      </trkpt>
      <trkpt lat="45.21057" lon="5.72796">
        <ele>768.79998779297</ele>
        <time>2021-11-06T09:27:57.000Z</time>
      </trkpt>
      <trkpt lat="45.21051" lon="5.72773">
        <ele>768</ele>
        <time>2021-11-06T09:28:04.000Z</time>
      </trkpt>
      <trkpt lat="45.21049" lon="5.72767">
        <ele>767.79998779297</ele>
        <time>2021-11-06T09:28:06.000Z</time>
      </trkpt>
      <trkpt lat="45.21048" lon="5.72764">
        <ele>767.59997558594</ele>
        <time>2021-11-06T09:28:07.000Z</time>
      </trkpt>
      <trkpt lat="45.21045" lon="5.72758">
        <ele>766.79998779297</ele>
        <time>2021-11-06T09:28:10.000Z</time>
      </trkpt>
      <trkpt lat="45.21044" lon="5.72757">
        <ele>766.59997558594</ele>
        <time>2021-11-06T09:28:11.000Z</time>
      </trkpt>
      <trkpt lat="45.21043" lon="5.72756">
        <ele>766</ele>
        <time>2021-11-06T09:28:13.000Z</time>
      </trkpt>
      <trkpt lat="45.21042" lon="5.72756">
        <ele>765.79998779297</ele>
        <time>2021-11-06T09:28:14.000Z</time>
      </trkpt>
      <trkpt lat="45.21041" lon="5.72756">
        <ele>765.40002441406</ele>
        <time>2021-11-06T09:28:15.000Z</time>
      </trkpt>
      <trkpt lat="45.2104" lon="5.72755">
        <ele>765.20001220703</ele>
        <time>2021-11-06T09:28:16.000Z</time>
      </trkpt>
      <trkpt lat="45.21037" lon="5.72753">
        <ele>764</ele>
        <time>2021-11-06T09:28:20.000Z</time>
      </trkpt>
      <trkpt lat="45.21036" lon="5.72753">
        <ele>763.59997558594</ele>
        <time>2021-11-06T09:28:21.000Z</time>
      </trkpt>
      <trkpt lat="45.21033" lon="5.72752">
        <ele>762.59997558594</ele>
        <time>2021-11-06T09:28:24.000Z</time>
      </trkpt>
      <trkpt lat="45.21029" lon="5.72751">
        <ele>761.20001220703</ele>
        <time>2021-11-06T09:28:28.000Z</time>
      </trkpt>
      <trkpt lat="45.21029" lon="5.72751">
        <ele>760.59997558594</ele>
        <time>2021-11-06T09:28:29.000Z</time>
      </trkpt>
      <trkpt lat="45.21028" lon="5.72751">
        <ele>760</ele>
        <time>2021-11-06T09:28:31.000Z</time>
      </trkpt>
      <trkpt lat="45.21027" lon="5.72752">
        <ele>759.40002441406</ele>
        <time>2021-11-06T09:28:33.000Z</time>
      </trkpt>
      <trkpt lat="45.21026" lon="5.72751">
        <ele>759.20001220703</ele>
        <time>2021-11-06T09:28:34.000Z</time>
      </trkpt>
      <trkpt lat="45.21023" lon="5.72751">
        <ele>758.59997558594</ele>
        <time>2021-11-06T09:28:36.000Z</time>
      </trkpt>
      <trkpt lat="45.21018" lon="5.7275">
        <ele>757.40002441406</ele>
        <time>2021-11-06T09:28:39.000Z</time>
      </trkpt>
      <trkpt lat="45.21016" lon="5.72749">
        <ele>756.40002441406</ele>
        <time>2021-11-06T09:28:41.000Z</time>
      </trkpt>
      <trkpt lat="45.21014" lon="5.72749">
        <ele>756.20001220703</ele>
        <time>2021-11-06T09:28:42.000Z</time>
      </trkpt>
      <trkpt lat="45.21012" lon="5.7275">
        <ele>755.20001220703</ele>
        <time>2021-11-06T09:28:44.000Z</time>
      </trkpt>
      <trkpt lat="45.21011" lon="5.72751">
        <ele>754.79998779297</ele>
        <time>2021-11-06T09:28:46.000Z</time>
      </trkpt>
      <trkpt lat="45.2101" lon="5.72752">
        <ele>753.79998779297</ele>
        <time>2021-11-06T09:28:48.000Z</time>
      </trkpt>
      <trkpt lat="45.21009" lon="5.72753">
        <ele>753.59997558594</ele>
        <time>2021-11-06T09:28:49.000Z</time>
      </trkpt>
      <trkpt lat="45.21008" lon="5.72755">
        <ele>752.40002441406</ele>
        <time>2021-11-06T09:28:52.000Z</time>
      </trkpt>
      <trkpt lat="45.21008" lon="5.72756">
        <ele>751.79998779297</ele>
        <time>2021-11-06T09:28:54.000Z</time>
      </trkpt>
      <trkpt lat="45.21007" lon="5.72756">
        <ele>751.40002441406</ele>
        <time>2021-11-06T09:28:55.000Z</time>
      </trkpt>
      <trkpt lat="45.21007" lon="5.72757">
        <ele>751.20001220703</ele>
        <time>2021-11-06T09:28:56.000Z</time>
      </trkpt>
      <trkpt lat="45.21006" lon="5.72758">
        <ele>750.40002441406</ele>
        <time>2021-11-06T09:28:58.000Z</time>
      </trkpt>
      <trkpt lat="45.21005" lon="5.72759">
        <ele>749.59997558594</ele>
        <time>2021-11-06T09:29:00.000Z</time>
      </trkpt>
      <trkpt lat="45.21005" lon="5.7276">
        <ele>749.20001220703</ele>
        <time>2021-11-06T09:29:01.000Z</time>
      </trkpt>
      <trkpt lat="45.21004" lon="5.72761">
        <ele>749</ele>
        <time>2021-11-06T09:29:02.000Z</time>
      </trkpt>
      <trkpt lat="45.21" lon="5.7276">
        <ele>748</ele>
        <time>2021-11-06T09:29:05.000Z</time>
      </trkpt>
      <trkpt lat="45.21" lon="5.72761">
        <ele>747.40002441406</ele>
        <time>2021-11-06T09:29:06.000Z</time>
      </trkpt>
      <trkpt lat="45.21" lon="5.72762">
        <ele>746.40002441406</ele>
        <time>2021-11-06T09:29:09.000Z</time>
      </trkpt>
      <trkpt lat="45.21" lon="5.72763">
        <ele>746</ele>
        <time>2021-11-06T09:29:10.000Z</time>
      </trkpt>
      <trkpt lat="45.20997" lon="5.72763">
        <ele>745.40002441406</ele>
        <time>2021-11-06T09:29:12.000Z</time>
      </trkpt>
      <trkpt lat="45.20996" lon="5.72763">
        <ele>745</ele>
        <time>2021-11-06T09:29:13.000Z</time>
      </trkpt>
      <trkpt lat="45.20995" lon="5.72762">
        <ele>744.79998779297</ele>
        <time>2021-11-06T09:29:14.000Z</time>
      </trkpt>
      <trkpt lat="45.20995" lon="5.72761">
        <ele>744.20001220703</ele>
        <time>2021-11-06T09:29:15.000Z</time>
      </trkpt>
      <trkpt lat="45.20992" lon="5.72759">
        <ele>743.20001220703</ele>
        <time>2021-11-06T09:29:18.000Z</time>
      </trkpt>
      <trkpt lat="45.2099" lon="5.72759">
        <ele>742.59997558594</ele>
        <time>2021-11-06T09:29:19.000Z</time>
      </trkpt>
      <trkpt lat="45.20989" lon="5.72759">
        <ele>742.40002441406</ele>
        <time>2021-11-06T09:29:20.000Z</time>
      </trkpt>
      <trkpt lat="45.20987" lon="5.72758">
        <ele>742.20001220703</ele>
        <time>2021-11-06T09:29:21.000Z</time>
      </trkpt>
      <trkpt lat="45.20984" lon="5.72755">
        <ele>741</ele>
        <time>2021-11-06T09:29:24.000Z</time>
      </trkpt>
      <trkpt lat="45.20982" lon="5.72752">
        <ele>740</ele>
        <time>2021-11-06T09:29:26.000Z</time>
      </trkpt>
      <trkpt lat="45.20981" lon="5.72751">
        <ele>739.59997558594</ele>
        <time>2021-11-06T09:29:27.000Z</time>
      </trkpt>
      <trkpt lat="45.20977" lon="5.72746">
        <ele>738.20001220703</ele>
        <time>2021-11-06T09:29:31.000Z</time>
      </trkpt>
      <trkpt lat="45.20976" lon="5.72744">
        <ele>737.20001220703</ele>
        <time>2021-11-06T09:29:33.000Z</time>
      </trkpt>
      <trkpt lat="45.20976" lon="5.72743">
        <ele>736.59997558594</ele>
        <time>2021-11-06T09:29:34.000Z</time>
      </trkpt>
      <trkpt lat="45.20975" lon="5.72742">
        <ele>736.20001220703</ele>
        <time>2021-11-06T09:29:35.000Z</time>
      </trkpt>
      <trkpt lat="45.20973" lon="5.72738">
        <ele>734.79998779297</ele>
        <time>2021-11-06T09:29:38.000Z</time>
      </trkpt>
      <trkpt lat="45.20971" lon="5.72736">
        <ele>734.40002441406</ele>
        <time>2021-11-06T09:29:40.000Z</time>
      </trkpt>
      <trkpt lat="45.20969" lon="5.72735">
        <ele>733.59997558594</ele>
        <time>2021-11-06T09:29:42.000Z</time>
      </trkpt>
      <trkpt lat="45.20969" lon="5.72732">
        <ele>732.40002441406</ele>
        <time>2021-11-06T09:29:45.000Z</time>
      </trkpt>
      <trkpt lat="45.20969" lon="5.72731">
        <ele>732</ele>
        <time>2021-11-06T09:29:46.000Z</time>
      </trkpt>
      <trkpt lat="45.20966" lon="5.72728">
        <ele>731.40002441406</ele>
        <time>2021-11-06T09:29:49.000Z</time>
      </trkpt>
      <trkpt lat="45.20965" lon="5.72727">
        <ele>731</ele>
        <time>2021-11-06T09:29:50.000Z</time>
      </trkpt>
      <trkpt lat="45.20963" lon="5.72725">
        <ele>730</ele>
        <time>2021-11-06T09:29:52.000Z</time>
      </trkpt>
      <trkpt lat="45.20959" lon="5.72725">
        <ele>729</ele>
        <time>2021-11-06T09:29:55.000Z</time>
      </trkpt>
      <trkpt lat="45.20957" lon="5.72724">
        <ele>728.59997558594</ele>
        <time>2021-11-06T09:29:56.000Z</time>
      </trkpt>
      <trkpt lat="45.20954" lon="5.72724">
        <ele>727.59997558594</ele>
        <time>2021-11-06T09:29:58.000Z</time>
      </trkpt>
      <trkpt lat="45.20952" lon="5.72723">
        <ele>727.40002441406</ele>
        <time>2021-11-06T09:29:59.000Z</time>
      </trkpt>
      <trkpt lat="45.20948" lon="5.7272">
        <ele>726.40002441406</ele>
        <time>2021-11-06T09:30:02.000Z</time>
      </trkpt>
      <trkpt lat="45.20942" lon="5.72711">
        <ele>725</ele>
        <time>2021-11-06T09:30:06.000Z</time>
      </trkpt>
      <trkpt lat="45.20941" lon="5.72709">
        <ele>724.59997558594</ele>
        <time>2021-11-06T09:30:07.000Z</time>
      </trkpt>
      <trkpt lat="45.20938" lon="5.72705">
        <ele>723.79998779297</ele>
        <time>2021-11-06T09:30:09.000Z</time>
      </trkpt>
      <trkpt lat="45.20936" lon="5.72701">
        <ele>722.59997558594</ele>
        <time>2021-11-06T09:30:11.000Z</time>
      </trkpt>
      <trkpt lat="45.20933" lon="5.72697">
        <ele>721.59997558594</ele>
        <time>2021-11-06T09:30:14.000Z</time>
      </trkpt>
      <trkpt lat="45.20932" lon="5.72697">
        <ele>721.40002441406</ele>
        <time>2021-11-06T09:30:15.000Z</time>
      </trkpt>
      <trkpt lat="45.20927" lon="5.72693">
        <ele>720.20001220703</ele>
        <time>2021-11-06T09:30:18.000Z</time>
      </trkpt>
      <trkpt lat="45.20924" lon="5.7269">
        <ele>719.59997558594</ele>
        <time>2021-11-06T09:30:20.000Z</time>
      </trkpt>
      <trkpt lat="45.20923" lon="5.72688">
        <ele>719</ele>
        <time>2021-11-06T09:30:21.000Z</time>
      </trkpt>
      <trkpt lat="45.20923" lon="5.72686">
        <ele>718.79998779297</ele>
        <time>2021-11-06T09:30:22.000Z</time>
      </trkpt>
      <trkpt lat="45.20922" lon="5.72685">
        <ele>718.40002441406</ele>
        <time>2021-11-06T09:30:23.000Z</time>
      </trkpt>
      <trkpt lat="45.2092" lon="5.72684">
        <ele>717.79998779297</ele>
        <time>2021-11-06T09:30:25.000Z</time>
      </trkpt>
      <trkpt lat="45.20919" lon="5.72685">
        <ele>717.40002441406</ele>
        <time>2021-11-06T09:30:26.000Z</time>
      </trkpt>
      <trkpt lat="45.20917" lon="5.72685">
        <ele>717.20001220703</ele>
        <time>2021-11-06T09:30:27.000Z</time>
      </trkpt>
      <trkpt lat="45.20916" lon="5.72685">
        <ele>716.59997558594</ele>
        <time>2021-11-06T09:30:28.000Z</time>
      </trkpt>
      <trkpt lat="45.20915" lon="5.72685">
        <ele>716.40002441406</ele>
        <time>2021-11-06T09:30:29.000Z</time>
      </trkpt>
      <trkpt lat="45.20913" lon="5.72686">
        <ele>715.79998779297</ele>
        <time>2021-11-06T09:30:31.000Z</time>
      </trkpt>
      <trkpt lat="45.20913" lon="5.72686">
        <ele>715.59997558594</ele>
        <time>2021-11-06T09:30:32.000Z</time>
      </trkpt>
      <trkpt lat="45.20911" lon="5.72686">
        <ele>714.20001220703</ele>
        <time>2021-11-06T09:30:35.000Z</time>
      </trkpt>
      <trkpt lat="45.2091" lon="5.72686">
        <ele>713.79998779297</ele>
        <time>2021-11-06T09:30:36.000Z</time>
      </trkpt>
      <trkpt lat="45.20907" lon="5.72687">
        <ele>713</ele>
        <time>2021-11-06T09:30:38.000Z</time>
      </trkpt>
      <trkpt lat="45.20904" lon="5.72688">
        <ele>712.40002441406</ele>
        <time>2021-11-06T09:30:40.000Z</time>
      </trkpt>
      <trkpt lat="45.20902" lon="5.72688">
        <ele>712</ele>
        <time>2021-11-06T09:30:41.000Z</time>
      </trkpt>
      <trkpt lat="45.20901" lon="5.72687">
        <ele>711.59997558594</ele>
        <time>2021-11-06T09:30:42.000Z</time>
      </trkpt>
      <trkpt lat="45.20897" lon="5.72687">
        <ele>710.79998779297</ele>
        <time>2021-11-06T09:30:45.000Z</time>
      </trkpt>
      <trkpt lat="45.20896" lon="5.72688">
        <ele>710.20001220703</ele>
        <time>2021-11-06T09:30:46.000Z</time>
      </trkpt>
      <trkpt lat="45.20895" lon="5.72689">
        <ele>709.79998779297</ele>
        <time>2021-11-06T09:30:48.000Z</time>
      </trkpt>
      <trkpt lat="45.20893" lon="5.7269">
        <ele>709.59997558594</ele>
        <time>2021-11-06T09:30:49.000Z</time>
      </trkpt>
      <trkpt lat="45.2089" lon="5.7269">
        <ele>708.79998779297</ele>
        <time>2021-11-06T09:30:51.000Z</time>
      </trkpt>
      <trkpt lat="45.20888" lon="5.7269">
        <ele>708.40002441406</ele>
        <time>2021-11-06T09:30:52.000Z</time>
      </trkpt>
      <trkpt lat="45.20887" lon="5.72691">
        <ele>708</ele>
        <time>2021-11-06T09:30:53.000Z</time>
      </trkpt>
      <trkpt lat="45.20882" lon="5.72693">
        <ele>707.20001220703</ele>
        <time>2021-11-06T09:30:56.000Z</time>
      </trkpt>
      <trkpt lat="45.20877" lon="5.72695">
        <ele>706.40002441406</ele>
        <time>2021-11-06T09:30:59.000Z</time>
      </trkpt>
      <trkpt lat="45.20875" lon="5.72695">
        <ele>705.79998779297</ele>
        <time>2021-11-06T09:31:00.000Z</time>
      </trkpt>
      <trkpt lat="45.20874" lon="5.72695">
        <ele>705.59997558594</ele>
        <time>2021-11-06T09:31:01.000Z</time>
      </trkpt>
      <trkpt lat="45.20865" lon="5.72697">
        <ele>704.59997558594</ele>
        <time>2021-11-06T09:31:05.000Z</time>
      </trkpt>
      <trkpt lat="45.20858" lon="5.72699">
        <ele>703.79998779297</ele>
        <time>2021-11-06T09:31:08.000Z</time>
      </trkpt>
      <trkpt lat="45.20857" lon="5.72699">
        <ele>703.59997558594</ele>
        <time>2021-11-06T09:31:09.000Z</time>
      </trkpt>
      <trkpt lat="45.20855" lon="5.72698">
        <ele>703.20001220703</ele>
        <time>2021-11-06T09:31:10.000Z</time>
      </trkpt>
      <trkpt lat="45.20852" lon="5.72699">
        <ele>702.79998779297</ele>
        <time>2021-11-06T09:31:12.000Z</time>
      </trkpt>
      <trkpt lat="45.2085" lon="5.72699">
        <ele>702.20001220703</ele>
        <time>2021-11-06T09:31:14.000Z</time>
      </trkpt>
      <trkpt lat="45.20847" lon="5.727">
        <ele>701.40002441406</ele>
        <time>2021-11-06T09:31:16.000Z</time>
      </trkpt>
      <trkpt lat="45.20846" lon="5.72701">
        <ele>700.79998779297</ele>
        <time>2021-11-06T09:31:17.000Z</time>
      </trkpt>
      <trkpt lat="45.20845" lon="5.72702">
        <ele>700.40002441406</ele>
        <time>2021-11-06T09:31:18.000Z</time>
      </trkpt>
      <trkpt lat="45.20843" lon="5.72701">
        <ele>700.20001220703</ele>
        <time>2021-11-06T09:31:20.000Z</time>
      </trkpt>
      <trkpt lat="45.20841" lon="5.727">
        <ele>700</ele>
        <time>2021-11-06T09:31:21.000Z</time>
      </trkpt>
      <trkpt lat="45.20839" lon="5.727">
        <ele>699.79998779297</ele>
        <time>2021-11-06T09:31:22.000Z</time>
      </trkpt>
      <trkpt lat="45.20839" lon="5.72701">
        <ele>699</ele>
        <time>2021-11-06T09:31:24.000Z</time>
      </trkpt>
      <trkpt lat="45.20837" lon="5.72702">
        <ele>699</ele>
        <time>2021-11-06T09:31:25.000Z</time>
      </trkpt>
      <trkpt lat="45.20834" lon="5.72708">
        <ele>700.20001220703</ele>
        <time>2021-11-06T09:31:32.000Z</time>
      </trkpt>
      <trkpt lat="45.20833" lon="5.7271">
        <ele>701</ele>
        <time>2021-11-06T09:31:34.000Z</time>
      </trkpt>
      <trkpt lat="45.20832" lon="5.72713">
        <ele>702</ele>
        <time>2021-11-06T09:31:38.000Z</time>
      </trkpt>
      <trkpt lat="45.20831" lon="5.72715">
        <ele>702.40002441406</ele>
        <time>2021-11-06T09:31:39.000Z</time>
      </trkpt>
      <trkpt lat="45.2083" lon="5.72717">
        <ele>703.40002441406</ele>
        <time>2021-11-06T09:31:41.000Z</time>
      </trkpt>
      <trkpt lat="45.20831" lon="5.72717">
        <ele>704.20001220703</ele>
        <time>2021-11-06T09:31:43.000Z</time>
      </trkpt>
      <trkpt lat="45.2083" lon="5.72718">
        <ele>704.40002441406</ele>
        <time>2021-11-06T09:31:44.000Z</time>
      </trkpt>
      <trkpt lat="45.2083" lon="5.72718">
        <ele>704.59997558594</ele>
        <time>2021-11-06T09:31:45.000Z</time>
      </trkpt>
      <trkpt lat="45.20829" lon="5.72719">
        <ele>705</ele>
        <time>2021-11-06T09:31:47.000Z</time>
      </trkpt>
      <trkpt lat="45.20829" lon="5.7272">
        <ele>705.20001220703</ele>
        <time>2021-11-06T09:31:49.000Z</time>
      </trkpt>
      <trkpt lat="45.20829" lon="5.72721">
        <ele>705.40002441406</ele>
        <time>2021-11-06T09:31:50.000Z</time>
      </trkpt>
      <trkpt lat="45.20828" lon="5.72722">
        <ele>705.79998779297</ele>
        <time>2021-11-06T09:31:51.000Z</time>
      </trkpt>
      <trkpt lat="45.20826" lon="5.72723">
        <ele>706.20001220703</ele>
        <time>2021-11-06T09:31:53.000Z</time>
      </trkpt>
      <trkpt lat="45.20825" lon="5.72724">
        <ele>706.40002441406</ele>
        <time>2021-11-06T09:31:56.000Z</time>
      </trkpt>
      <trkpt lat="45.20824" lon="5.72725">
        <ele>706.40002441406</ele>
        <time>2021-11-06T09:31:57.000Z</time>
      </trkpt>
      <trkpt lat="45.20823" lon="5.72728">
        <ele>706.40002441406</ele>
        <time>2021-11-06T09:31:59.000Z</time>
      </trkpt>
      <trkpt lat="45.20821" lon="5.72729">
        <ele>706.40002441406</ele>
        <time>2021-11-06T09:32:01.000Z</time>
      </trkpt>
      <trkpt lat="45.20821" lon="5.7273">
        <ele>706.20001220703</ele>
        <time>2021-11-06T09:32:02.000Z</time>
      </trkpt>
      <trkpt lat="45.2082" lon="5.72731">
        <ele>706</ele>
        <time>2021-11-06T09:32:04.000Z</time>
      </trkpt>
      <trkpt lat="45.20819" lon="5.72731">
        <ele>705.59997558594</ele>
        <time>2021-11-06T09:32:06.000Z</time>
      </trkpt>
      <trkpt lat="45.20818" lon="5.72732">
        <ele>705.40002441406</ele>
        <time>2021-11-06T09:32:08.000Z</time>
      </trkpt>
      <trkpt lat="45.20816" lon="5.72733">
        <ele>705</ele>
        <time>2021-11-06T09:32:10.000Z</time>
      </trkpt>
      <trkpt lat="45.20816" lon="5.72734">
        <ele>704.59997558594</ele>
        <time>2021-11-06T09:32:11.000Z</time>
      </trkpt>
      <trkpt lat="45.2081" lon="5.72734">
        <ele>703.40002441406</ele>
        <time>2021-11-06T09:32:17.000Z</time>
      </trkpt>
      <trkpt lat="45.20808" lon="5.72735">
        <ele>703</ele>
        <time>2021-11-06T09:32:20.000Z</time>
      </trkpt>
      <trkpt lat="45.20806" lon="5.72736">
        <ele>702.79998779297</ele>
        <time>2021-11-06T09:32:22.000Z</time>
      </trkpt>
      <trkpt lat="45.20805" lon="5.72736">
        <ele>702.79998779297</ele>
        <time>2021-11-06T09:32:23.000Z</time>
      </trkpt>
      <trkpt lat="45.20801" lon="5.72733">
        <ele>703.40002441406</ele>
        <time>2021-11-06T09:32:28.000Z</time>
      </trkpt>
      <trkpt lat="45.208" lon="5.72733">
        <ele>703.59997558594</ele>
        <time>2021-11-06T09:32:29.000Z</time>
      </trkpt>
      <trkpt lat="45.208" lon="5.72733">
        <ele>703.79998779297</ele>
        <time>2021-11-06T09:32:30.000Z</time>
      </trkpt>
      <trkpt lat="45.20798" lon="5.72732">
        <ele>704.20001220703</ele>
        <time>2021-11-06T09:32:32.000Z</time>
      </trkpt>
      <trkpt lat="45.20797" lon="5.72732">
        <ele>704.40002441406</ele>
        <time>2021-11-06T09:32:33.000Z</time>
      </trkpt>
      <trkpt lat="45.20797" lon="5.72732">
        <ele>704.59997558594</ele>
        <time>2021-11-06T09:32:34.000Z</time>
      </trkpt>
      <trkpt lat="45.20797" lon="5.72731">
        <ele>704.79998779297</ele>
        <time>2021-11-06T09:32:35.000Z</time>
      </trkpt>
      <trkpt lat="45.20798" lon="5.72731">
        <ele>705</ele>
        <time>2021-11-06T09:32:36.000Z</time>
      </trkpt>
      <trkpt lat="45.20798" lon="5.72731">
        <ele>704.59997558594</ele>
        <time>2021-11-06T09:32:54.000Z</time>
      </trkpt>
      <trkpt lat="45.20799" lon="5.72732">
        <ele>703.40002441406</ele>
        <time>2021-11-06T09:33:00.000Z</time>
      </trkpt>
      <trkpt lat="45.20803" lon="5.7273">
        <ele>703</ele>
        <time>2021-11-06T09:33:03.000Z</time>
      </trkpt>
      <trkpt lat="45.20806" lon="5.72729">
        <ele>702.40002441406</ele>
        <time>2021-11-06T09:33:06.000Z</time>
      </trkpt>
      <trkpt lat="45.20806" lon="5.7273">
        <ele>702.20001220703</ele>
        <time>2021-11-06T09:33:08.000Z</time>
      </trkpt>
      <trkpt lat="45.20807" lon="5.72731">
        <ele>702.20001220703</ele>
        <time>2021-11-06T09:33:09.000Z</time>
      </trkpt>
      <trkpt lat="45.20807" lon="5.72729">
        <ele>702.40002441406</ele>
        <time>2021-11-06T09:33:14.000Z</time>
      </trkpt>
      <trkpt lat="45.20808" lon="5.72729">
        <ele>702.40002441406</ele>
        <time>2021-11-06T09:33:15.000Z</time>
      </trkpt>
      <trkpt lat="45.20809" lon="5.72729">
        <ele>703</ele>
        <time>2021-11-06T09:33:18.000Z</time>
      </trkpt>
      <trkpt lat="45.20812" lon="5.72731">
        <ele>703.40002441406</ele>
        <time>2021-11-06T09:33:23.000Z</time>
      </trkpt>
      <trkpt lat="45.20815" lon="5.72732">
        <ele>703.40002441406</ele>
        <time>2021-11-06T09:33:26.000Z</time>
      </trkpt>
      <trkpt lat="45.20816" lon="5.7273">
        <ele>703.79998779297</ele>
        <time>2021-11-06T09:33:28.000Z</time>
      </trkpt>
      <trkpt lat="45.20818" lon="5.72729">
        <ele>704.79998779297</ele>
        <time>2021-11-06T09:33:32.000Z</time>
      </trkpt>
      <trkpt lat="45.20818" lon="5.72728">
        <ele>705.20001220703</ele>
        <time>2021-11-06T09:33:33.000Z</time>
      </trkpt>
      <trkpt lat="45.20821" lon="5.72726">
        <ele>705.79998779297</ele>
        <time>2021-11-06T09:33:37.000Z</time>
      </trkpt>
      <trkpt lat="45.20824" lon="5.72723">
        <ele>706</ele>
        <time>2021-11-06T09:33:41.000Z</time>
      </trkpt>
      <trkpt lat="45.20828" lon="5.7272">
        <ele>706</ele>
        <time>2021-11-06T09:33:47.000Z</time>
      </trkpt>
      <trkpt lat="45.20829" lon="5.72717">
        <ele>705.59997558594</ele>
        <time>2021-11-06T09:33:51.000Z</time>
      </trkpt>
      <trkpt lat="45.20829" lon="5.72716">
        <ele>705.40002441406</ele>
        <time>2021-11-06T09:33:52.000Z</time>
      </trkpt>
      <trkpt lat="45.20829" lon="5.72714">
        <ele>704.59997558594</ele>
        <time>2021-11-06T09:33:55.000Z</time>
      </trkpt>
      <trkpt lat="45.2083" lon="5.72712">
        <ele>703.79998779297</ele>
        <time>2021-11-06T09:33:57.000Z</time>
      </trkpt>
      <trkpt lat="45.20831" lon="5.72711">
        <ele>703.40002441406</ele>
        <time>2021-11-06T09:33:58.000Z</time>
      </trkpt>
      <trkpt lat="45.20832" lon="5.7271">
        <ele>703</ele>
        <time>2021-11-06T09:33:59.000Z</time>
      </trkpt>
      <trkpt lat="45.20832" lon="5.72709">
        <ele>702.59997558594</ele>
        <time>2021-11-06T09:34:00.000Z</time>
      </trkpt>
      <trkpt lat="45.20831" lon="5.72708">
        <ele>702.20001220703</ele>
        <time>2021-11-06T09:34:01.000Z</time>
      </trkpt>
      <trkpt lat="45.20832" lon="5.72706">
        <ele>701.40002441406</ele>
        <time>2021-11-06T09:34:03.000Z</time>
      </trkpt>
      <trkpt lat="45.20832" lon="5.72705">
        <ele>701</ele>
        <time>2021-11-06T09:34:04.000Z</time>
      </trkpt>
      <trkpt lat="45.20833" lon="5.72701">
        <ele>699.79998779297</ele>
        <time>2021-11-06T09:34:07.000Z</time>
      </trkpt>
      <trkpt lat="45.20833" lon="5.72697">
        <ele>698.59997558594</ele>
        <time>2021-11-06T09:34:10.000Z</time>
      </trkpt>
      <trkpt lat="45.20833" lon="5.72693">
        <ele>698</ele>
        <time>2021-11-06T09:34:12.000Z</time>
      </trkpt>
      <trkpt lat="45.20834" lon="5.72689">
        <ele>697.59997558594</ele>
        <time>2021-11-06T09:34:14.000Z</time>
      </trkpt>
      <trkpt lat="45.20832" lon="5.72687">
        <ele>696.79998779297</ele>
        <time>2021-11-06T09:34:15.000Z</time>
      </trkpt>
      <trkpt lat="45.20832" lon="5.72685">
        <ele>696.40002441406</ele>
        <time>2021-11-06T09:34:16.000Z</time>
      </trkpt>
      <trkpt lat="45.20831" lon="5.72683">
        <ele>696.20001220703</ele>
        <time>2021-11-06T09:34:17.000Z</time>
      </trkpt>
      <trkpt lat="45.20831" lon="5.72679">
        <ele>695.40002441406</ele>
        <time>2021-11-06T09:34:19.000Z</time>
      </trkpt>
      <trkpt lat="45.2083" lon="5.72672">
        <ele>694</ele>
        <time>2021-11-06T09:34:23.000Z</time>
      </trkpt>
      <trkpt lat="45.20829" lon="5.72668">
        <ele>693.20001220703</ele>
        <time>2021-11-06T09:34:25.000Z</time>
      </trkpt>
      <trkpt lat="45.20828" lon="5.72667">
        <ele>693</ele>
        <time>2021-11-06T09:34:26.000Z</time>
      </trkpt>
      <trkpt lat="45.20826" lon="5.72661">
        <ele>691.40002441406</ele>
        <time>2021-11-06T09:34:30.000Z</time>
      </trkpt>
      <trkpt lat="45.20826" lon="5.72661">
        <ele>690.59997558594</ele>
        <time>2021-11-06T09:34:32.000Z</time>
      </trkpt>
      <trkpt lat="45.20825" lon="5.72662">
        <ele>690.40002441406</ele>
        <time>2021-11-06T09:34:33.000Z</time>
      </trkpt>
      <trkpt lat="45.20823" lon="5.72667">
        <ele>689</ele>
        <time>2021-11-06T09:34:36.000Z</time>
      </trkpt>
      <trkpt lat="45.20821" lon="5.72669">
        <ele>688.79998779297</ele>
        <time>2021-11-06T09:34:37.000Z</time>
      </trkpt>
      <trkpt lat="45.20819" lon="5.72671">
        <ele>688</ele>
        <time>2021-11-06T09:34:39.000Z</time>
      </trkpt>
      <trkpt lat="45.20817" lon="5.72671">
        <ele>686.79998779297</ele>
        <time>2021-11-06T09:34:42.000Z</time>
      </trkpt>
      <trkpt lat="45.20816" lon="5.72671">
        <ele>686.59997558594</ele>
        <time>2021-11-06T09:34:43.000Z</time>
      </trkpt>
      <trkpt lat="45.20812" lon="5.72672">
        <ele>685.40002441406</ele>
        <time>2021-11-06T09:34:46.000Z</time>
      </trkpt>
      <trkpt lat="45.2081" lon="5.7267">
        <ele>685.20001220703</ele>
        <time>2021-11-06T09:34:47.000Z</time>
      </trkpt>
      <trkpt lat="45.2081" lon="5.72668">
        <ele>684.79998779297</ele>
        <time>2021-11-06T09:34:48.000Z</time>
      </trkpt>
      <trkpt lat="45.2081" lon="5.72666">
        <ele>684.40002441406</ele>
        <time>2021-11-06T09:34:49.000Z</time>
      </trkpt>
      <trkpt lat="45.20807" lon="5.72658">
        <ele>683</ele>
        <time>2021-11-06T09:34:53.000Z</time>
      </trkpt>
      <trkpt lat="45.20807" lon="5.72656">
        <ele>682.40002441406</ele>
        <time>2021-11-06T09:34:54.000Z</time>
      </trkpt>
      <trkpt lat="45.20807" lon="5.72653">
        <ele>681.59997558594</ele>
        <time>2021-11-06T09:34:56.000Z</time>
      </trkpt>
      <trkpt lat="45.20806" lon="5.72651">
        <ele>681.20001220703</ele>
        <time>2021-11-06T09:34:57.000Z</time>
      </trkpt>
      <trkpt lat="45.20805" lon="5.72648">
        <ele>680.40002441406</ele>
        <time>2021-11-06T09:34:59.000Z</time>
      </trkpt>
      <trkpt lat="45.20804" lon="5.72646">
        <ele>680.20001220703</ele>
        <time>2021-11-06T09:35:00.000Z</time>
      </trkpt>
      <trkpt lat="45.20803" lon="5.72643">
        <ele>679.40002441406</ele>
        <time>2021-11-06T09:35:02.000Z</time>
      </trkpt>
      <trkpt lat="45.20802" lon="5.7264">
        <ele>678.59997558594</ele>
        <time>2021-11-06T09:35:05.000Z</time>
      </trkpt>
      <trkpt lat="45.20802" lon="5.72638">
        <ele>678.20001220703</ele>
        <time>2021-11-06T09:35:06.000Z</time>
      </trkpt>
      <trkpt lat="45.208" lon="5.72632">
        <ele>677</ele>
        <time>2021-11-06T09:35:09.000Z</time>
      </trkpt>
      <trkpt lat="45.20799" lon="5.7263">
        <ele>676.40002441406</ele>
        <time>2021-11-06T09:35:11.000Z</time>
      </trkpt>
      <trkpt lat="45.20798" lon="5.7263">
        <ele>676</ele>
        <time>2021-11-06T09:35:12.000Z</time>
      </trkpt>
      <trkpt lat="45.20797" lon="5.7263">
        <ele>675.59997558594</ele>
        <time>2021-11-06T09:35:13.000Z</time>
      </trkpt>
      <trkpt lat="45.20796" lon="5.72633">
        <ele>674.59997558594</ele>
        <time>2021-11-06T09:35:15.000Z</time>
      </trkpt>
      <trkpt lat="45.20796" lon="5.72634">
        <ele>674.20001220703</ele>
        <time>2021-11-06T09:35:16.000Z</time>
      </trkpt>
      <trkpt lat="45.20793" lon="5.72638">
        <ele>673.79998779297</ele>
        <time>2021-11-06T09:35:18.000Z</time>
      </trkpt>
      <trkpt lat="45.20792" lon="5.72639">
        <ele>673.59997558594</ele>
        <time>2021-11-06T09:35:19.000Z</time>
      </trkpt>
      <trkpt lat="45.2079" lon="5.7264">
        <ele>672.40002441406</ele>
        <time>2021-11-06T09:35:21.000Z</time>
      </trkpt>
      <trkpt lat="45.20786" lon="5.72643">
        <ele>671.79998779297</ele>
        <time>2021-11-06T09:35:23.000Z</time>
      </trkpt>
      <trkpt lat="45.20784" lon="5.72645">
        <ele>671.20001220703</ele>
        <time>2021-11-06T09:35:25.000Z</time>
      </trkpt>
      <trkpt lat="45.20782" lon="5.72647">
        <ele>670.20001220703</ele>
        <time>2021-11-06T09:35:27.000Z</time>
      </trkpt>
      <trkpt lat="45.2078" lon="5.72648">
        <ele>670</ele>
        <time>2021-11-06T09:35:28.000Z</time>
      </trkpt>
      <trkpt lat="45.20777" lon="5.72647">
        <ele>668.79998779297</ele>
        <time>2021-11-06T09:35:30.000Z</time>
      </trkpt>
      <trkpt lat="45.20775" lon="5.72646">
        <ele>668.40002441406</ele>
        <time>2021-11-06T09:35:31.000Z</time>
      </trkpt>
      <trkpt lat="45.20774" lon="5.72645">
        <ele>667.79998779297</ele>
        <time>2021-11-06T09:35:32.000Z</time>
      </trkpt>
      <trkpt lat="45.20774" lon="5.72639">
        <ele>666.79998779297</ele>
        <time>2021-11-06T09:35:35.000Z</time>
      </trkpt>
      <trkpt lat="45.20775" lon="5.72633">
        <ele>665.59997558594</ele>
        <time>2021-11-06T09:35:38.000Z</time>
      </trkpt>
      <trkpt lat="45.20775" lon="5.72627">
        <ele>664.40002441406</ele>
        <time>2021-11-06T09:35:41.000Z</time>
      </trkpt>
      <trkpt lat="45.20775" lon="5.72625">
        <ele>663.79998779297</ele>
        <time>2021-11-06T09:35:42.000Z</time>
      </trkpt>
      <trkpt lat="45.20774" lon="5.7262">
        <ele>663</ele>
        <time>2021-11-06T09:35:44.000Z</time>
      </trkpt>
      <trkpt lat="45.20773" lon="5.72617">
        <ele>662</ele>
        <time>2021-11-06T09:35:46.000Z</time>
      </trkpt>
      <trkpt lat="45.20773" lon="5.72616">
        <ele>661.59997558594</ele>
        <time>2021-11-06T09:35:47.000Z</time>
      </trkpt>
      <trkpt lat="45.20772" lon="5.72616">
        <ele>661.40002441406</ele>
        <time>2021-11-06T09:35:48.000Z</time>
      </trkpt>
      <trkpt lat="45.20767" lon="5.72619">
        <ele>660.20001220703</ele>
        <time>2021-11-06T09:35:51.000Z</time>
      </trkpt>
      <trkpt lat="45.20763" lon="5.72621">
        <ele>658.40002441406</ele>
        <time>2021-11-06T09:35:54.000Z</time>
      </trkpt>
      <trkpt lat="45.20761" lon="5.72622">
        <ele>658</ele>
        <time>2021-11-06T09:35:55.000Z</time>
      </trkpt>
      <trkpt lat="45.20757" lon="5.72623">
        <ele>657.20001220703</ele>
        <time>2021-11-06T09:35:57.000Z</time>
      </trkpt>
      <trkpt lat="45.20752" lon="5.72623">
        <ele>655.79998779297</ele>
        <time>2021-11-06T09:36:00.000Z</time>
      </trkpt>
      <trkpt lat="45.2075" lon="5.72623">
        <ele>655.20001220703</ele>
        <time>2021-11-06T09:36:01.000Z</time>
      </trkpt>
      <trkpt lat="45.20748" lon="5.72621">
        <ele>654.40002441406</ele>
        <time>2021-11-06T09:36:03.000Z</time>
      </trkpt>
      <trkpt lat="45.20747" lon="5.72619">
        <ele>654</ele>
        <time>2021-11-06T09:36:04.000Z</time>
      </trkpt>
      <trkpt lat="45.20746" lon="5.72614">
        <ele>653.40002441406</ele>
        <time>2021-11-06T09:36:06.000Z</time>
      </trkpt>
      <trkpt lat="45.20745" lon="5.72612">
        <ele>653.20001220703</ele>
        <time>2021-11-06T09:36:07.000Z</time>
      </trkpt>
      <trkpt lat="45.20742" lon="5.72606">
        <ele>651.79998779297</ele>
        <time>2021-11-06T09:36:10.000Z</time>
      </trkpt>
      <trkpt lat="45.2074" lon="5.72599">
        <ele>650.79998779297</ele>
        <time>2021-11-06T09:36:13.000Z</time>
      </trkpt>
      <trkpt lat="45.20739" lon="5.72596">
        <ele>649.59997558594</ele>
        <time>2021-11-06T09:36:15.000Z</time>
      </trkpt>
      <trkpt lat="45.20736" lon="5.72594">
        <ele>648.40002441406</ele>
        <time>2021-11-06T09:36:18.000Z</time>
      </trkpt>
      <trkpt lat="45.20734" lon="5.72593">
        <ele>648.20001220703</ele>
        <time>2021-11-06T09:36:19.000Z</time>
      </trkpt>
      <trkpt lat="45.20729" lon="5.72591">
        <ele>647.20001220703</ele>
        <time>2021-11-06T09:36:22.000Z</time>
      </trkpt>
      <trkpt lat="45.20725" lon="5.7259">
        <ele>646</ele>
        <time>2021-11-06T09:36:24.000Z</time>
      </trkpt>
      <trkpt lat="45.20721" lon="5.72589">
        <ele>645</ele>
        <time>2021-11-06T09:36:26.000Z</time>
      </trkpt>
      <trkpt lat="45.20718" lon="5.72589">
        <ele>644.40002441406</ele>
        <time>2021-11-06T09:36:28.000Z</time>
      </trkpt>
      <trkpt lat="45.20715" lon="5.7259">
        <ele>643.59997558594</ele>
        <time>2021-11-06T09:36:30.000Z</time>
      </trkpt>
      <trkpt lat="45.20713" lon="5.72589">
        <ele>643.20001220703</ele>
        <time>2021-11-06T09:36:31.000Z</time>
      </trkpt>
      <trkpt lat="45.20712" lon="5.72588">
        <ele>642.59997558594</ele>
        <time>2021-11-06T09:36:32.000Z</time>
      </trkpt>
      <trkpt lat="45.20707" lon="5.72586">
        <ele>641.40002441406</ele>
        <time>2021-11-06T09:36:35.000Z</time>
      </trkpt>
      <trkpt lat="45.20702" lon="5.72582">
        <ele>640.20001220703</ele>
        <time>2021-11-06T09:36:38.000Z</time>
      </trkpt>
      <trkpt lat="45.207" lon="5.72578">
        <ele>639.79998779297</ele>
        <time>2021-11-06T09:36:40.000Z</time>
      </trkpt>
      <trkpt lat="45.20698" lon="5.72576">
        <ele>639</ele>
        <time>2021-11-06T09:36:42.000Z</time>
      </trkpt>
      <trkpt lat="45.20695" lon="5.72574">
        <ele>638</ele>
        <time>2021-11-06T09:36:45.000Z</time>
      </trkpt>
      <trkpt lat="45.20694" lon="5.72574">
        <ele>637.59997558594</ele>
        <time>2021-11-06T09:36:46.000Z</time>
      </trkpt>
      <trkpt lat="45.20689" lon="5.72576">
        <ele>636.40002441406</ele>
        <time>2021-11-06T09:36:50.000Z</time>
      </trkpt>
      <trkpt lat="45.20684" lon="5.72577">
        <ele>635.20001220703</ele>
        <time>2021-11-06T09:36:53.000Z</time>
      </trkpt>
      <trkpt lat="45.20683" lon="5.72576">
        <ele>635</ele>
        <time>2021-11-06T09:36:54.000Z</time>
      </trkpt>
      <trkpt lat="45.2068" lon="5.72578">
        <ele>634.59997558594</ele>
        <time>2021-11-06T09:36:56.000Z</time>
      </trkpt>
      <trkpt lat="45.20678" lon="5.7258">
        <ele>634.20001220703</ele>
        <time>2021-11-06T09:36:57.000Z</time>
      </trkpt>
      <trkpt lat="45.20674" lon="5.72585">
        <ele>633.40002441406</ele>
        <time>2021-11-06T09:36:59.000Z</time>
      </trkpt>
      <trkpt lat="45.2067" lon="5.72589">
        <ele>632.79998779297</ele>
        <time>2021-11-06T09:37:01.000Z</time>
      </trkpt>
      <trkpt lat="45.20662" lon="5.72597">
        <ele>631.59997558594</ele>
        <time>2021-11-06T09:37:05.000Z</time>
      </trkpt>
      <trkpt lat="45.20658" lon="5.72601">
        <ele>631.20001220703</ele>
        <time>2021-11-06T09:37:07.000Z</time>
      </trkpt>
      <trkpt lat="45.20652" lon="5.72606">
        <ele>630.59997558594</ele>
        <time>2021-11-06T09:37:11.000Z</time>
      </trkpt>
      <trkpt lat="45.20648" lon="5.72607">
        <ele>630.20001220703</ele>
        <time>2021-11-06T09:37:13.000Z</time>
      </trkpt>
      <trkpt lat="45.2064" lon="5.72609">
        <ele>629.79998779297</ele>
        <time>2021-11-06T09:37:17.000Z</time>
      </trkpt>
      <trkpt lat="45.20638" lon="5.72608">
        <ele>629.59997558594</ele>
        <time>2021-11-06T09:37:18.000Z</time>
      </trkpt>
      <trkpt lat="45.20628" lon="5.72606">
        <ele>628.59997558594</ele>
        <time>2021-11-06T09:37:22.000Z</time>
      </trkpt>
      <trkpt lat="45.20624" lon="5.72604">
        <ele>628.20001220703</ele>
        <time>2021-11-06T09:37:24.000Z</time>
      </trkpt>
      <trkpt lat="45.20621" lon="5.72603">
        <ele>627.40002441406</ele>
        <time>2021-11-06T09:37:25.000Z</time>
      </trkpt>
      <trkpt lat="45.20614" lon="5.72597">
        <ele>626.59997558594</ele>
        <time>2021-11-06T09:37:28.000Z</time>
      </trkpt>
      <trkpt lat="45.20611" lon="5.72595">
        <ele>626.20001220703</ele>
        <time>2021-11-06T09:37:29.000Z</time>
      </trkpt>
      <trkpt lat="45.20602" lon="5.72591">
        <ele>626</ele>
        <time>2021-11-06T09:37:32.000Z</time>
      </trkpt>
      <trkpt lat="45.20591" lon="5.72582">
        <ele>625.20001220703</ele>
        <time>2021-11-06T09:37:38.000Z</time>
      </trkpt>
      <trkpt lat="45.20588" lon="5.72579">
        <ele>624.59997558594</ele>
        <time>2021-11-06T09:37:40.000Z</time>
      </trkpt>
      <trkpt lat="45.20586" lon="5.72578">
        <ele>624.40002441406</ele>
        <time>2021-11-06T09:37:41.000Z</time>
      </trkpt>
      <trkpt lat="45.20582" lon="5.72575">
        <ele>624.20001220703</ele>
        <time>2021-11-06T09:37:43.000Z</time>
      </trkpt>
      <trkpt lat="45.20575" lon="5.72572">
        <ele>623.40002441406</ele>
        <time>2021-11-06T09:37:46.000Z</time>
      </trkpt>
      <trkpt lat="45.20574" lon="5.72571">
        <ele>623.20001220703</ele>
        <time>2021-11-06T09:37:47.000Z</time>
      </trkpt>
      <trkpt lat="45.20561" lon="5.72567">
        <ele>622</ele>
        <time>2021-11-06T09:37:53.000Z</time>
      </trkpt>
      <trkpt lat="45.20558" lon="5.72566">
        <ele>621.79998779297</ele>
        <time>2021-11-06T09:37:54.000Z</time>
      </trkpt>
      <trkpt lat="45.2054" lon="5.72571">
        <ele>621</ele>
        <time>2021-11-06T09:38:00.000Z</time>
      </trkpt>
      <trkpt lat="45.20537" lon="5.72572">
        <ele>620.79998779297</ele>
        <time>2021-11-06T09:38:01.000Z</time>
      </trkpt>
      <trkpt lat="45.20522" lon="5.7257">
        <ele>621.59997558594</ele>
        <time>2021-11-06T09:38:07.000Z</time>
      </trkpt>
      <trkpt lat="45.20518" lon="5.72568">
        <ele>622</ele>
        <time>2021-11-06T09:38:09.000Z</time>
      </trkpt>
      <trkpt lat="45.20508" lon="5.72561">
        <ele>623</ele>
        <time>2021-11-06T09:38:13.000Z</time>
      </trkpt>
      <trkpt lat="45.20505" lon="5.72557">
        <ele>623.20001220703</ele>
        <time>2021-11-06T09:38:15.000Z</time>
      </trkpt>
      <trkpt lat="45.20499" lon="5.72546">
        <ele>623.20001220703</ele>
        <time>2021-11-06T09:38:19.000Z</time>
      </trkpt>
      <trkpt lat="45.20497" lon="5.72544">
        <ele>623.20001220703</ele>
        <time>2021-11-06T09:38:20.000Z</time>
      </trkpt>
      <trkpt lat="45.20486" lon="5.72524">
        <ele>622.79998779297</ele>
        <time>2021-11-06T09:38:27.000Z</time>
      </trkpt>
      <trkpt lat="45.20481" lon="5.72507">
        <ele>622</ele>
        <time>2021-11-06T09:38:32.000Z</time>
      </trkpt>
      <trkpt lat="45.2048" lon="5.72504">
        <ele>622</ele>
        <time>2021-11-06T09:38:33.000Z</time>
      </trkpt>
      <trkpt lat="45.20473" lon="5.72481">
        <ele>622.40002441406</ele>
        <time>2021-11-06T09:38:41.000Z</time>
      </trkpt>
      <trkpt lat="45.20473" lon="5.72478">
        <ele>622.79998779297</ele>
        <time>2021-11-06T09:38:42.000Z</time>
      </trkpt>
      <trkpt lat="45.20475" lon="5.72472">
        <ele>623.20001220703</ele>
        <time>2021-11-06T09:38:44.000Z</time>
      </trkpt>
      <trkpt lat="45.20475" lon="5.7247">
        <ele>623.79998779297</ele>
        <time>2021-11-06T09:38:45.000Z</time>
      </trkpt>
      <trkpt lat="45.20474" lon="5.72465">
        <ele>624.40002441406</ele>
        <time>2021-11-06T09:38:47.000Z</time>
      </trkpt>
      <trkpt lat="45.20475" lon="5.7246">
        <ele>625</ele>
        <time>2021-11-06T09:38:49.000Z</time>
      </trkpt>
      <trkpt lat="45.20475" lon="5.72457">
        <ele>625.20001220703</ele>
        <time>2021-11-06T09:38:50.000Z</time>
      </trkpt>
      <trkpt lat="45.20475" lon="5.72455">
        <ele>625.59997558594</ele>
        <time>2021-11-06T09:38:51.000Z</time>
      </trkpt>
      <trkpt lat="45.20472" lon="5.72443">
        <ele>626.79998779297</ele>
        <time>2021-11-06T09:38:55.000Z</time>
      </trkpt>
      <trkpt lat="45.20462" lon="5.72424">
        <ele>626.59997558594</ele>
        <time>2021-11-06T09:39:02.000Z</time>
      </trkpt>
      <trkpt lat="45.20449" lon="5.72414">
        <ele>625.79998779297</ele>
        <time>2021-11-06T09:39:08.000Z</time>
      </trkpt>
      <trkpt lat="45.20447" lon="5.72413">
        <ele>625.40002441406</ele>
        <time>2021-11-06T09:39:09.000Z</time>
      </trkpt>
      <trkpt lat="45.20438" lon="5.72407">
        <ele>624.40002441406</ele>
        <time>2021-11-06T09:39:13.000Z</time>
      </trkpt>
      <trkpt lat="45.2043" lon="5.72403">
        <ele>623.40002441406</ele>
        <time>2021-11-06T09:39:16.000Z</time>
      </trkpt>
      <trkpt lat="45.20428" lon="5.72401">
        <ele>623.20001220703</ele>
        <time>2021-11-06T09:39:17.000Z</time>
      </trkpt>
      <trkpt lat="45.20416" lon="5.72395">
        <ele>622</ele>
        <time>2021-11-06T09:39:22.000Z</time>
      </trkpt>
      <trkpt lat="45.20408" lon="5.72394">
        <ele>622.20001220703</ele>
        <time>2021-11-06T09:39:25.000Z</time>
      </trkpt>
      <trkpt lat="45.20388" lon="5.72395">
        <ele>622.20001220703</ele>
        <time>2021-11-06T09:39:34.000Z</time>
      </trkpt>
      <trkpt lat="45.20385" lon="5.72397">
        <ele>622.20001220703</ele>
        <time>2021-11-06T09:39:35.000Z</time>
      </trkpt>
      <trkpt lat="45.20378" lon="5.72407">
        <ele>622</ele>
        <time>2021-11-06T09:39:40.000Z</time>
      </trkpt>
      <trkpt lat="45.20381" lon="5.72418">
        <ele>622.40002441406</ele>
        <time>2021-11-06T09:39:45.000Z</time>
      </trkpt>
      <trkpt lat="45.20382" lon="5.72421">
        <ele>623</ele>
        <time>2021-11-06T09:39:47.000Z</time>
      </trkpt>
      <trkpt lat="45.20383" lon="5.72422">
        <ele>623.20001220703</ele>
        <time>2021-11-06T09:39:48.000Z</time>
      </trkpt>
      <trkpt lat="45.20386" lon="5.72424">
        <ele>624.20001220703</ele>
        <time>2021-11-06T09:39:51.000Z</time>
      </trkpt>
      <trkpt lat="45.20387" lon="5.72424">
        <ele>624.59997558594</ele>
        <time>2021-11-06T09:39:52.000Z</time>
      </trkpt>
      <trkpt lat="45.20391" lon="5.72423">
        <ele>625.79998779297</ele>
        <time>2021-11-06T09:39:56.000Z</time>
      </trkpt>
      <trkpt lat="45.20391" lon="5.72421">
        <ele>626.20001220703</ele>
        <time>2021-11-06T09:39:57.000Z</time>
      </trkpt>
      <trkpt lat="45.20395" lon="5.72417">
        <ele>627</ele>
        <time>2021-11-06T09:40:00.000Z</time>
      </trkpt>
      <trkpt lat="45.20398" lon="5.72416">
        <ele>627.40002441406</ele>
        <time>2021-11-06T09:40:02.000Z</time>
      </trkpt>
      <trkpt lat="45.20401" lon="5.72418">
        <ele>627.79998779297</ele>
        <time>2021-11-06T09:40:04.000Z</time>
      </trkpt>
      <trkpt lat="45.20402" lon="5.72423">
        <ele>628</ele>
        <time>2021-11-06T09:40:06.000Z</time>
      </trkpt>
      <trkpt lat="45.20399" lon="5.72428">
        <ele>627.79998779297</ele>
        <time>2021-11-06T09:40:08.000Z</time>
      </trkpt>
      <trkpt lat="45.20397" lon="5.72429">
        <ele>627.59997558594</ele>
        <time>2021-11-06T09:40:09.000Z</time>
      </trkpt>
      <trkpt lat="45.20388" lon="5.72435">
        <ele>626.79998779297</ele>
        <time>2021-11-06T09:40:14.000Z</time>
      </trkpt>
      <trkpt lat="45.20387" lon="5.72437">
        <ele>626.40002441406</ele>
        <time>2021-11-06T09:40:15.000Z</time>
      </trkpt>
      <trkpt lat="45.20387" lon="5.72441">
        <ele>626.20001220703</ele>
        <time>2021-11-06T09:40:17.000Z</time>
      </trkpt>
      <trkpt lat="45.20389" lon="5.72443">
        <ele>626</ele>
        <time>2021-11-06T09:40:19.000Z</time>
      </trkpt>
      <trkpt lat="45.20392" lon="5.72443">
        <ele>625.79998779297</ele>
        <time>2021-11-06T09:40:21.000Z</time>
      </trkpt>
      <trkpt lat="45.20394" lon="5.72442">
        <ele>625.59997558594</ele>
        <time>2021-11-06T09:40:22.000Z</time>
      </trkpt>
      <trkpt lat="45.20399" lon="5.7244">
        <ele>625.40002441406</ele>
        <time>2021-11-06T09:40:25.000Z</time>
      </trkpt>
      <trkpt lat="45.20401" lon="5.72441">
        <ele>625.20001220703</ele>
        <time>2021-11-06T09:40:26.000Z</time>
      </trkpt>
      <trkpt lat="45.20402" lon="5.72442">
        <ele>624.59997558594</ele>
        <time>2021-11-06T09:40:28.000Z</time>
      </trkpt>
      <trkpt lat="45.20402" lon="5.72443">
        <ele>624.40002441406</ele>
        <time>2021-11-06T09:40:29.000Z</time>
      </trkpt>
      <trkpt lat="45.20403" lon="5.72445">
        <ele>624</ele>
        <time>2021-11-06T09:40:31.000Z</time>
      </trkpt>
      <trkpt lat="45.20405" lon="5.72446">
        <ele>623.59997558594</ele>
        <time>2021-11-06T09:40:32.000Z</time>
      </trkpt>
      <trkpt lat="45.20407" lon="5.72447">
        <ele>623.20001220703</ele>
        <time>2021-11-06T09:40:33.000Z</time>
      </trkpt>
      <trkpt lat="45.20414" lon="5.72453">
        <ele>622.40002441406</ele>
        <time>2021-11-06T09:40:36.000Z</time>
      </trkpt>
      <trkpt lat="45.20418" lon="5.72458">
        <ele>621.79998779297</ele>
        <time>2021-11-06T09:40:38.000Z</time>
      </trkpt>
      <trkpt lat="45.20423" lon="5.72462">
        <ele>621.20001220703</ele>
        <time>2021-11-06T09:40:40.000Z</time>
      </trkpt>
      <trkpt lat="45.20433" lon="5.72469">
        <ele>620.79998779297</ele>
        <time>2021-11-06T09:40:45.000Z</time>
      </trkpt>
      <trkpt lat="45.20445" lon="5.72473">
        <ele>621.40002441406</ele>
        <time>2021-11-06T09:40:51.000Z</time>
      </trkpt>
      <trkpt lat="45.20454" lon="5.72477">
        <ele>621.40002441406</ele>
        <time>2021-11-06T09:40:56.000Z</time>
      </trkpt>
      <trkpt lat="45.20456" lon="5.72477">
        <ele>621.40002441406</ele>
        <time>2021-11-06T09:40:57.000Z</time>
      </trkpt>
      <trkpt lat="45.20471" lon="5.72484">
        <ele>621.20001220703</ele>
        <time>2021-11-06T09:41:04.000Z</time>
      </trkpt>
      <trkpt lat="45.20482" lon="5.72499">
        <ele>621.59997558594</ele>
        <time>2021-11-06T09:41:10.000Z</time>
      </trkpt>
      <trkpt lat="45.20484" lon="5.72511">
        <ele>621.79998779297</ele>
        <time>2021-11-06T09:41:13.000Z</time>
      </trkpt>
      <trkpt lat="45.20484" lon="5.72518">
        <ele>621.79998779297</ele>
        <time>2021-11-06T09:41:15.000Z</time>
      </trkpt>
      <trkpt lat="45.20485" lon="5.72531">
        <ele>622</ele>
        <time>2021-11-06T09:41:19.000Z</time>
      </trkpt>
      <trkpt lat="45.20486" lon="5.72533">
        <ele>621.79998779297</ele>
        <time>2021-11-06T09:41:20.000Z</time>
      </trkpt>
      <trkpt lat="45.20488" lon="5.72539">
        <ele>621.20001220703</ele>
        <time>2021-11-06T09:41:22.000Z</time>
      </trkpt>
      <trkpt lat="45.20489" lon="5.72546">
        <ele>620.79998779297</ele>
        <time>2021-11-06T09:41:24.000Z</time>
      </trkpt>
      <trkpt lat="45.2049" lon="5.72551">
        <ele>620.20001220703</ele>
        <time>2021-11-06T09:41:26.000Z</time>
      </trkpt>
      <trkpt lat="45.20492" lon="5.72558">
        <ele>619</ele>
        <time>2021-11-06T09:41:29.000Z</time>
      </trkpt>
      <trkpt lat="45.20492" lon="5.72561">
        <ele>618.20001220703</ele>
        <time>2021-11-06T09:41:30.000Z</time>
      </trkpt>
      <trkpt lat="45.2049" lon="5.72562">
        <ele>617.59997558594</ele>
        <time>2021-11-06T09:41:31.000Z</time>
      </trkpt>
      <trkpt lat="45.20483" lon="5.72561">
        <ele>616.59997558594</ele>
        <time>2021-11-06T09:41:34.000Z</time>
      </trkpt>
      <trkpt lat="45.20481" lon="5.72559">
        <ele>616.20001220703</ele>
        <time>2021-11-06T09:41:35.000Z</time>
      </trkpt>
      <trkpt lat="45.20476" lon="5.72556">
        <ele>615.79998779297</ele>
        <time>2021-11-06T09:41:37.000Z</time>
      </trkpt>
      <trkpt lat="45.20473" lon="5.72555">
        <ele>615.59997558594</ele>
        <time>2021-11-06T09:41:38.000Z</time>
      </trkpt>
      <trkpt lat="45.20471" lon="5.72553">
        <ele>615.20001220703</ele>
        <time>2021-11-06T09:41:39.000Z</time>
      </trkpt>
      <trkpt lat="45.20469" lon="5.72551">
        <ele>615</ele>
        <time>2021-11-06T09:41:40.000Z</time>
      </trkpt>
      <trkpt lat="45.20468" lon="5.72549">
        <ele>614.79998779297</ele>
        <time>2021-11-06T09:41:41.000Z</time>
      </trkpt>
      <trkpt lat="45.20466" lon="5.72547">
        <ele>614.59997558594</ele>
        <time>2021-11-06T09:41:42.000Z</time>
      </trkpt>
      <trkpt lat="45.20464" lon="5.72545">
        <ele>614</ele>
        <time>2021-11-06T09:41:43.000Z</time>
      </trkpt>
      <trkpt lat="45.20455" lon="5.72537">
        <ele>613</ele>
        <time>2021-11-06T09:41:47.000Z</time>
      </trkpt>
      <trkpt lat="45.20453" lon="5.72534">
        <ele>612.79998779297</ele>
        <time>2021-11-06T09:41:48.000Z</time>
      </trkpt>
      <trkpt lat="45.20447" lon="5.72524">
        <ele>611.79998779297</ele>
        <time>2021-11-06T09:41:52.000Z</time>
      </trkpt>
      <trkpt lat="45.20444" lon="5.72519">
        <ele>611.20001220703</ele>
        <time>2021-11-06T09:41:54.000Z</time>
      </trkpt>
      <trkpt lat="45.2044" lon="5.72518">
        <ele>610.79998779297</ele>
        <time>2021-11-06T09:41:56.000Z</time>
      </trkpt>
      <trkpt lat="45.20438" lon="5.72522">
        <ele>610</ele>
        <time>2021-11-06T09:42:00.000Z</time>
      </trkpt>
      <trkpt lat="45.20438" lon="5.72523">
        <ele>609.59997558594</ele>
        <time>2021-11-06T09:42:02.000Z</time>
      </trkpt>
      <trkpt lat="45.20437" lon="5.72525">
        <ele>608.59997558594</ele>
        <time>2021-11-06T09:42:05.000Z</time>
      </trkpt>
      <trkpt lat="45.20437" lon="5.72525">
        <ele>608.20001220703</ele>
        <time>2021-11-06T09:42:06.000Z</time>
      </trkpt>
      <trkpt lat="45.20431" lon="5.72525">
        <ele>606.79998779297</ele>
        <time>2021-11-06T09:42:10.000Z</time>
      </trkpt>
      <trkpt lat="45.20431" lon="5.72525">
        <ele>606.59997558594</ele>
        <time>2021-11-06T09:42:11.000Z</time>
      </trkpt>
      <trkpt lat="45.20428" lon="5.72524">
        <ele>605.40002441406</ele>
        <time>2021-11-06T09:42:14.000Z</time>
      </trkpt>
      <trkpt lat="45.20428" lon="5.72524">
        <ele>605</ele>
        <time>2021-11-06T09:42:15.000Z</time>
      </trkpt>
      <trkpt lat="45.20429" lon="5.72522">
        <ele>604.40002441406</ele>
        <time>2021-11-06T09:42:17.000Z</time>
      </trkpt>
      <trkpt lat="45.20428" lon="5.72522">
        <ele>604</ele>
        <time>2021-11-06T09:42:18.000Z</time>
      </trkpt>
      <trkpt lat="45.20426" lon="5.72524">
        <ele>603.59997558594</ele>
        <time>2021-11-06T09:42:21.000Z</time>
      </trkpt>
      <trkpt lat="45.20426" lon="5.72525">
        <ele>603.40002441406</ele>
        <time>2021-11-06T09:42:23.000Z</time>
      </trkpt>
      <trkpt lat="45.20425" lon="5.72526">
        <ele>603.20001220703</ele>
        <time>2021-11-06T09:42:24.000Z</time>
      </trkpt>
      <trkpt lat="45.20423" lon="5.72529">
        <ele>602.40002441406</ele>
        <time>2021-11-06T09:42:27.000Z</time>
      </trkpt>
      <trkpt lat="45.20423" lon="5.7253">
        <ele>601.79998779297</ele>
        <time>2021-11-06T09:42:28.000Z</time>
      </trkpt>
      <trkpt lat="45.20424" lon="5.72532">
        <ele>600.79998779297</ele>
        <time>2021-11-06T09:42:30.000Z</time>
      </trkpt>
      <trkpt lat="45.20424" lon="5.72533">
        <ele>600.40002441406</ele>
        <time>2021-11-06T09:42:31.000Z</time>
      </trkpt>
      <trkpt lat="45.20424" lon="5.72534">
        <ele>600</ele>
        <time>2021-11-06T09:42:32.000Z</time>
      </trkpt>
      <trkpt lat="45.20422" lon="5.72535">
        <ele>599.40002441406</ele>
        <time>2021-11-06T09:42:33.000Z</time>
      </trkpt>
      <trkpt lat="45.20421" lon="5.72535">
        <ele>599.20001220703</ele>
        <time>2021-11-06T09:42:34.000Z</time>
      </trkpt>
      <trkpt lat="45.20419" lon="5.72536">
        <ele>598.79998779297</ele>
        <time>2021-11-06T09:42:36.000Z</time>
      </trkpt>
      <trkpt lat="45.20418" lon="5.72538">
        <ele>597.79998779297</ele>
        <time>2021-11-06T09:42:38.000Z</time>
      </trkpt>
      <trkpt lat="45.20415" lon="5.7254">
        <ele>596.79998779297</ele>
        <time>2021-11-06T09:42:42.000Z</time>
      </trkpt>
      <trkpt lat="45.20413" lon="5.72543">
        <ele>595.79998779297</ele>
        <time>2021-11-06T09:42:46.000Z</time>
      </trkpt>
      <trkpt lat="45.20412" lon="5.72544">
        <ele>595.40002441406</ele>
        <time>2021-11-06T09:42:47.000Z</time>
      </trkpt>
      <trkpt lat="45.20411" lon="5.72545">
        <ele>595</ele>
        <time>2021-11-06T09:42:48.000Z</time>
      </trkpt>
      <trkpt lat="45.2041" lon="5.72546">
        <ele>594.79998779297</ele>
        <time>2021-11-06T09:42:49.000Z</time>
      </trkpt>
      <trkpt lat="45.20403" lon="5.72546">
        <ele>593.79998779297</ele>
        <time>2021-11-06T09:42:52.000Z</time>
      </trkpt>
      <trkpt lat="45.20402" lon="5.72545">
        <ele>593.40002441406</ele>
        <time>2021-11-06T09:42:53.000Z</time>
      </trkpt>
      <trkpt lat="45.20402" lon="5.72545">
        <ele>593.20001220703</ele>
        <time>2021-11-06T09:42:54.000Z</time>
      </trkpt>
      <trkpt lat="45.204" lon="5.72546">
        <ele>592.40002441406</ele>
        <time>2021-11-06T09:42:56.000Z</time>
      </trkpt>
      <trkpt lat="45.20397" lon="5.72548">
        <ele>591.59997558594</ele>
        <time>2021-11-06T09:43:00.000Z</time>
      </trkpt>
      <trkpt lat="45.20397" lon="5.72548">
        <ele>591.40002441406</ele>
        <time>2021-11-06T09:43:01.000Z</time>
      </trkpt>
      <trkpt lat="45.20397" lon="5.72549">
        <ele>591</ele>
        <time>2021-11-06T09:43:02.000Z</time>
      </trkpt>
      <trkpt lat="45.20395" lon="5.7255">
        <ele>590</ele>
        <time>2021-11-06T09:43:04.000Z</time>
      </trkpt>
      <trkpt lat="45.2039" lon="5.72549">
        <ele>589</ele>
        <time>2021-11-06T09:43:06.000Z</time>
      </trkpt>
      <trkpt lat="45.20388" lon="5.72549">
        <ele>588.59997558594</ele>
        <time>2021-11-06T09:43:07.000Z</time>
      </trkpt>
      <trkpt lat="45.20386" lon="5.72547">
        <ele>587.40002441406</ele>
        <time>2021-11-06T09:43:09.000Z</time>
      </trkpt>
      <trkpt lat="45.20382" lon="5.72546">
        <ele>586.59997558594</ele>
        <time>2021-11-06T09:43:12.000Z</time>
      </trkpt>
      <trkpt lat="45.20381" lon="5.72544">
        <ele>586.20001220703</ele>
        <time>2021-11-06T09:43:13.000Z</time>
      </trkpt>
      <trkpt lat="45.2038" lon="5.72542">
        <ele>585.20001220703</ele>
        <time>2021-11-06T09:43:16.000Z</time>
      </trkpt>
      <trkpt lat="45.2038" lon="5.72542">
        <ele>584.79998779297</ele>
        <time>2021-11-06T09:43:17.000Z</time>
      </trkpt>
      <trkpt lat="45.20377" lon="5.72541">
        <ele>584</ele>
        <time>2021-11-06T09:43:20.000Z</time>
      </trkpt>
      <trkpt lat="45.20376" lon="5.72538">
        <ele>583.40002441406</ele>
        <time>2021-11-06T09:43:22.000Z</time>
      </trkpt>
      <trkpt lat="45.20375" lon="5.72535">
        <ele>582.59997558594</ele>
        <time>2021-11-06T09:43:24.000Z</time>
      </trkpt>
      <trkpt lat="45.20372" lon="5.72533">
        <ele>582.20001220703</ele>
        <time>2021-11-06T09:43:26.000Z</time>
      </trkpt>
      <trkpt lat="45.2037" lon="5.72534">
        <ele>581.59997558594</ele>
        <time>2021-11-06T09:43:27.000Z</time>
      </trkpt>
      <trkpt lat="45.20366" lon="5.72534">
        <ele>580.40002441406</ele>
        <time>2021-11-06T09:43:30.000Z</time>
      </trkpt>
      <trkpt lat="45.20361" lon="5.72533">
        <ele>579.59997558594</ele>
        <time>2021-11-06T09:43:33.000Z</time>
      </trkpt>
      <trkpt lat="45.20361" lon="5.72532">
        <ele>579.40002441406</ele>
        <time>2021-11-06T09:43:34.000Z</time>
      </trkpt>
      <trkpt lat="45.2036" lon="5.72531">
        <ele>579.20001220703</ele>
        <time>2021-11-06T09:43:35.000Z</time>
      </trkpt>
      <trkpt lat="45.20356" lon="5.72529">
        <ele>578</ele>
        <time>2021-11-06T09:43:39.000Z</time>
      </trkpt>
      <trkpt lat="45.20356" lon="5.7253">
        <ele>577.79998779297</ele>
        <time>2021-11-06T09:43:40.000Z</time>
      </trkpt>
      <trkpt lat="45.20356" lon="5.72532">
        <ele>576.79998779297</ele>
        <time>2021-11-06T09:43:43.000Z</time>
      </trkpt>
      <trkpt lat="45.20353" lon="5.72533">
        <ele>575.59997558594</ele>
        <time>2021-11-06T09:43:46.000Z</time>
      </trkpt>
      <trkpt lat="45.20346" lon="5.72533">
        <ele>574</ele>
        <time>2021-11-06T09:43:50.000Z</time>
      </trkpt>
      <trkpt lat="45.20343" lon="5.72532">
        <ele>573</ele>
        <time>2021-11-06T09:43:53.000Z</time>
      </trkpt>
      <trkpt lat="45.20342" lon="5.72531">
        <ele>572.59997558594</ele>
        <time>2021-11-06T09:43:54.000Z</time>
      </trkpt>
      <trkpt lat="45.20341" lon="5.7253">
        <ele>571.79998779297</ele>
        <time>2021-11-06T09:43:58.000Z</time>
      </trkpt>
      <trkpt lat="45.2034" lon="5.7253">
        <ele>571.59997558594</ele>
        <time>2021-11-06T09:43:59.000Z</time>
      </trkpt>
      <trkpt lat="45.20339" lon="5.7253">
        <ele>571.40002441406</ele>
        <time>2021-11-06T09:44:00.000Z</time>
      </trkpt>
      <trkpt lat="45.20337" lon="5.7253">
        <ele>570.59997558594</ele>
        <time>2021-11-06T09:44:02.000Z</time>
      </trkpt>
      <trkpt lat="45.20336" lon="5.72529">
        <ele>570.20001220703</ele>
        <time>2021-11-06T09:44:03.000Z</time>
      </trkpt>
      <trkpt lat="45.20335" lon="5.72529">
        <ele>570</ele>
        <time>2021-11-06T09:44:04.000Z</time>
      </trkpt>
      <trkpt lat="45.20334" lon="5.7253">
        <ele>569.40002441406</ele>
        <time>2021-11-06T09:44:06.000Z</time>
      </trkpt>
      <trkpt lat="45.20334" lon="5.72531">
        <ele>569.20001220703</ele>
        <time>2021-11-06T09:44:07.000Z</time>
      </trkpt>
      <trkpt lat="45.20335" lon="5.7253">
        <ele>568.59997558594</ele>
        <time>2021-11-06T09:44:12.000Z</time>
      </trkpt>
      <trkpt lat="45.20332" lon="5.72529">
        <ele>568.20001220703</ele>
        <time>2021-11-06T09:44:17.000Z</time>
      </trkpt>
      <trkpt lat="45.20331" lon="5.72529">
        <ele>567.79998779297</ele>
        <time>2021-11-06T09:44:18.000Z</time>
      </trkpt>
      <trkpt lat="45.2033" lon="5.72528">
        <ele>566.79998779297</ele>
        <time>2021-11-06T09:44:21.000Z</time>
      </trkpt>
      <trkpt lat="45.20325" lon="5.72527">
        <ele>565.79998779297</ele>
        <time>2021-11-06T09:44:24.000Z</time>
      </trkpt>
      <trkpt lat="45.20324" lon="5.72527">
        <ele>565.20001220703</ele>
        <time>2021-11-06T09:44:25.000Z</time>
      </trkpt>
      <trkpt lat="45.20322" lon="5.72527">
        <ele>564.79998779297</ele>
        <time>2021-11-06T09:44:26.000Z</time>
      </trkpt>
      <trkpt lat="45.20321" lon="5.72526">
        <ele>564.20001220703</ele>
        <time>2021-11-06T09:44:27.000Z</time>
      </trkpt>
      <trkpt lat="45.2032" lon="5.72526">
        <ele>563.40002441406</ele>
        <time>2021-11-06T09:44:29.000Z</time>
      </trkpt>
      <trkpt lat="45.20317" lon="5.72528">
        <ele>562</ele>
        <time>2021-11-06T09:44:32.000Z</time>
      </trkpt>
      <trkpt lat="45.20311" lon="5.72527">
        <ele>561</ele>
        <time>2021-11-06T09:44:36.000Z</time>
      </trkpt>
      <trkpt lat="45.20306" lon="5.72527">
        <ele>559.79998779297</ele>
        <time>2021-11-06T09:44:39.000Z</time>
      </trkpt>
      <trkpt lat="45.20305" lon="5.72527">
        <ele>559.20001220703</ele>
        <time>2021-11-06T09:44:40.000Z</time>
      </trkpt>
      <trkpt lat="45.20302" lon="5.72527">
        <ele>558.59997558594</ele>
        <time>2021-11-06T09:44:42.000Z</time>
      </trkpt>
      <trkpt lat="45.20299" lon="5.72526">
        <ele>557.40002441406</ele>
        <time>2021-11-06T09:44:44.000Z</time>
      </trkpt>
      <trkpt lat="45.20295" lon="5.72527">
        <ele>556.40002441406</ele>
        <time>2021-11-06T09:44:47.000Z</time>
      </trkpt>
      <trkpt lat="45.20292" lon="5.72528">
        <ele>556.20001220703</ele>
        <time>2021-11-06T09:44:48.000Z</time>
      </trkpt>
      <trkpt lat="45.20285" lon="5.72528">
        <ele>555.20001220703</ele>
        <time>2021-11-06T09:44:51.000Z</time>
      </trkpt>
      <trkpt lat="45.20284" lon="5.72528">
        <ele>555</ele>
        <time>2021-11-06T09:44:52.000Z</time>
      </trkpt>
      <trkpt lat="45.20281" lon="5.72527">
        <ele>554</ele>
        <time>2021-11-06T09:44:54.000Z</time>
      </trkpt>
      <trkpt lat="45.20277" lon="5.72526">
        <ele>553</ele>
        <time>2021-11-06T09:44:57.000Z</time>
      </trkpt>
      <trkpt lat="45.20273" lon="5.72526">
        <ele>552.40002441406</ele>
        <time>2021-11-06T09:45:00.000Z</time>
      </trkpt>
      <trkpt lat="45.20272" lon="5.72526">
        <ele>551.59997558594</ele>
        <time>2021-11-06T09:45:01.000Z</time>
      </trkpt>
      <trkpt lat="45.20269" lon="5.72527">
        <ele>550.59997558594</ele>
        <time>2021-11-06T09:45:03.000Z</time>
      </trkpt>
      <trkpt lat="45.20263" lon="5.72526">
        <ele>549.40002441406</ele>
        <time>2021-11-06T09:45:06.000Z</time>
      </trkpt>
      <trkpt lat="45.20261" lon="5.72526">
        <ele>549</ele>
        <time>2021-11-06T09:45:07.000Z</time>
      </trkpt>
      <trkpt lat="45.20259" lon="5.72526">
        <ele>548.40002441406</ele>
        <time>2021-11-06T09:45:10.000Z</time>
      </trkpt>
      <trkpt lat="45.20256" lon="5.72526">
        <ele>547.40002441406</ele>
        <time>2021-11-06T09:45:13.000Z</time>
      </trkpt>
      <trkpt lat="45.20254" lon="5.72527">
        <ele>547.40002441406</ele>
        <time>2021-11-06T09:45:14.000Z</time>
      </trkpt>
      <trkpt lat="45.20251" lon="5.72526">
        <ele>546.40002441406</ele>
        <time>2021-11-06T09:45:16.000Z</time>
      </trkpt>
      <trkpt lat="45.2025" lon="5.72526">
        <ele>545.20001220703</ele>
        <time>2021-11-06T09:45:18.000Z</time>
      </trkpt>
      <trkpt lat="45.20246" lon="5.72527">
        <ele>543.79998779297</ele>
        <time>2021-11-06T09:45:20.000Z</time>
      </trkpt>
      <trkpt lat="45.20241" lon="5.72526">
        <ele>542.79998779297</ele>
        <time>2021-11-06T09:45:23.000Z</time>
      </trkpt>
      <trkpt lat="45.20239" lon="5.72527">
        <ele>541.79998779297</ele>
        <time>2021-11-06T09:45:25.000Z</time>
      </trkpt>
      <trkpt lat="45.20238" lon="5.72528">
        <ele>541.40002441406</ele>
        <time>2021-11-06T09:45:26.000Z</time>
      </trkpt>
      <trkpt lat="45.20232" lon="5.7253">
        <ele>540</ele>
        <time>2021-11-06T09:45:30.000Z</time>
      </trkpt>
      <trkpt lat="45.20227" lon="5.72529">
        <ele>539</ele>
        <time>2021-11-06T09:45:33.000Z</time>
      </trkpt>
      <trkpt lat="45.20223" lon="5.7253">
        <ele>537.79998779297</ele>
        <time>2021-11-06T09:45:36.000Z</time>
      </trkpt>
      <trkpt lat="45.20219" lon="5.72531">
        <ele>536.79998779297</ele>
        <time>2021-11-06T09:45:38.000Z</time>
      </trkpt>
      <trkpt lat="45.20217" lon="5.72532">
        <ele>536.59997558594</ele>
        <time>2021-11-06T09:45:39.000Z</time>
      </trkpt>
      <trkpt lat="45.20216" lon="5.72532">
        <ele>536.40002441406</ele>
        <time>2021-11-06T09:45:40.000Z</time>
      </trkpt>
      <trkpt lat="45.20215" lon="5.72533">
        <ele>536.20001220703</ele>
        <time>2021-11-06T09:45:41.000Z</time>
      </trkpt>
      <trkpt lat="45.20213" lon="5.72533">
        <ele>535.59997558594</ele>
        <time>2021-11-06T09:45:42.000Z</time>
      </trkpt>
      <trkpt lat="45.2021" lon="5.72533">
        <ele>534.79998779297</ele>
        <time>2021-11-06T09:45:43.000Z</time>
      </trkpt>
      <trkpt lat="45.20208" lon="5.72532">
        <ele>534.40002441406</ele>
        <time>2021-11-06T09:45:44.000Z</time>
      </trkpt>
      <trkpt lat="45.20203" lon="5.72528">
        <ele>533.20001220703</ele>
        <time>2021-11-06T09:45:47.000Z</time>
      </trkpt>
      <trkpt lat="45.20201" lon="5.72526">
        <ele>532.79998779297</ele>
        <time>2021-11-06T09:45:48.000Z</time>
      </trkpt>
      <trkpt lat="45.20198" lon="5.72523">
        <ele>531.59997558594</ele>
        <time>2021-11-06T09:45:50.000Z</time>
      </trkpt>
      <trkpt lat="45.20193" lon="5.72518">
        <ele>530.59997558594</ele>
        <time>2021-11-06T09:45:53.000Z</time>
      </trkpt>
      <trkpt lat="45.2019" lon="5.72514">
        <ele>529.59997558594</ele>
        <time>2021-11-06T09:45:56.000Z</time>
      </trkpt>
      <trkpt lat="45.20188" lon="5.72512">
        <ele>529.20001220703</ele>
        <time>2021-11-06T09:45:57.000Z</time>
      </trkpt>
      <trkpt lat="45.20183" lon="5.72507">
        <ele>528.20001220703</ele>
        <time>2021-11-06T09:46:01.000Z</time>
      </trkpt>
      <trkpt lat="45.20182" lon="5.72506">
        <ele>528</ele>
        <time>2021-11-06T09:46:02.000Z</time>
      </trkpt>
      <trkpt lat="45.20176" lon="5.72501">
        <ele>527</ele>
        <time>2021-11-06T09:46:07.000Z</time>
      </trkpt>
      <trkpt lat="45.20175" lon="5.72501">
        <ele>526.79998779297</ele>
        <time>2021-11-06T09:46:08.000Z</time>
      </trkpt>
      <trkpt lat="45.20176" lon="5.72501">
        <ele>526.40002441406</ele>
        <time>2021-11-06T09:46:09.000Z</time>
      </trkpt>
      <trkpt lat="45.20176" lon="5.72501">
        <ele>526.20001220703</ele>
        <time>2021-11-06T09:46:10.000Z</time>
      </trkpt>
      <trkpt lat="45.20179" lon="5.72502">
        <ele>526</ele>
        <time>2021-11-06T09:46:15.000Z</time>
      </trkpt>
      <trkpt lat="45.20179" lon="5.72502">
        <ele>526</ele>
        <time>2021-11-06T09:46:16.000Z</time>
      </trkpt>
      <trkpt lat="45.2018" lon="5.72501">
        <ele>526</ele>
        <time>2021-11-06T09:46:20.000Z</time>
      </trkpt>
      <trkpt lat="45.2018" lon="5.72501">
        <ele>526</ele>
        <time>2021-11-06T09:46:24.000Z</time>
      </trkpt>
      <trkpt lat="45.2018" lon="5.72501">
        <ele>526</ele>
        <time>2021-11-06T09:46:33.000Z</time>
      </trkpt>
      <trkpt lat="45.20174" lon="5.72496">
        <ele>525.20001220703</ele>
        <time>2021-11-06T09:46:39.000Z</time>
      </trkpt>
      <trkpt lat="45.20171" lon="5.72494">
        <ele>524.79998779297</ele>
        <time>2021-11-06T09:46:41.000Z</time>
      </trkpt>
      <trkpt lat="45.20166" lon="5.72489">
        <ele>523.40002441406</ele>
        <time>2021-11-06T09:46:45.000Z</time>
      </trkpt>
      <trkpt lat="45.20165" lon="5.72486">
        <ele>522.79998779297</ele>
        <time>2021-11-06T09:46:47.000Z</time>
      </trkpt>
      <trkpt lat="45.20164" lon="5.72482">
        <ele>522</ele>
        <time>2021-11-06T09:46:50.000Z</time>
      </trkpt>
      <trkpt lat="45.20163" lon="5.72481">
        <ele>521.79998779297</ele>
        <time>2021-11-06T09:46:51.000Z</time>
      </trkpt>
      <trkpt lat="45.20162" lon="5.7248">
        <ele>521.40002441406</ele>
        <time>2021-11-06T09:46:52.000Z</time>
      </trkpt>
      <trkpt lat="45.20162" lon="5.72479">
        <ele>521</ele>
        <time>2021-11-06T09:46:53.000Z</time>
      </trkpt>
      <trkpt lat="45.2016" lon="5.72479">
        <ele>520.79998779297</ele>
        <time>2021-11-06T09:46:54.000Z</time>
      </trkpt>
      <trkpt lat="45.20156" lon="5.72479">
        <ele>519.79998779297</ele>
        <time>2021-11-06T09:46:58.000Z</time>
      </trkpt>
      <trkpt lat="45.20155" lon="5.72478">
        <ele>519.59997558594</ele>
        <time>2021-11-06T09:46:59.000Z</time>
      </trkpt>
      <trkpt lat="45.20155" lon="5.72475">
        <ele>518.40002441406</ele>
        <time>2021-11-06T09:47:01.000Z</time>
      </trkpt>
      <trkpt lat="45.20153" lon="5.72472">
        <ele>517</ele>
        <time>2021-11-06T09:47:04.000Z</time>
      </trkpt>
      <trkpt lat="45.20152" lon="5.72471">
        <ele>516.40002441406</ele>
        <time>2021-11-06T09:47:06.000Z</time>
      </trkpt>
      <trkpt lat="45.20152" lon="5.7247">
        <ele>516.20001220703</ele>
        <time>2021-11-06T09:47:07.000Z</time>
      </trkpt>
      <trkpt lat="45.20151" lon="5.7247">
        <ele>515.79998779297</ele>
        <time>2021-11-06T09:47:08.000Z</time>
      </trkpt>
      <trkpt lat="45.20148" lon="5.72467">
        <ele>514.59997558594</ele>
        <time>2021-11-06T09:47:12.000Z</time>
      </trkpt>
      <trkpt lat="45.20147" lon="5.72466">
        <ele>514.40002441406</ele>
        <time>2021-11-06T09:47:13.000Z</time>
      </trkpt>
      <trkpt lat="45.20146" lon="5.72465">
        <ele>513.20001220703</ele>
        <time>2021-11-06T09:47:15.000Z</time>
      </trkpt>
      <trkpt lat="45.20142" lon="5.72462">
        <ele>511.60000610352</ele>
        <time>2021-11-06T09:47:19.000Z</time>
      </trkpt>
      <trkpt lat="45.20142" lon="5.72461">
        <ele>510.60000610352</ele>
        <time>2021-11-06T09:47:21.000Z</time>
      </trkpt>
      <trkpt lat="45.2014" lon="5.72462">
        <ele>510</ele>
        <time>2021-11-06T09:47:22.000Z</time>
      </trkpt>
      <trkpt lat="45.2014" lon="5.72465">
        <ele>509.60000610352</ele>
        <time>2021-11-06T09:47:24.000Z</time>
      </trkpt>
      <trkpt lat="45.20139" lon="5.72466">
        <ele>509.20001220703</ele>
        <time>2021-11-06T09:47:25.000Z</time>
      </trkpt>
      <trkpt lat="45.20138" lon="5.72467">
        <ele>508.79998779297</ele>
        <time>2021-11-06T09:47:26.000Z</time>
      </trkpt>
      <trkpt lat="45.20137" lon="5.7247">
        <ele>507.79998779297</ele>
        <time>2021-11-06T09:47:30.000Z</time>
      </trkpt>
      <trkpt lat="45.20133" lon="5.72473">
        <ele>506.39999389648</ele>
        <time>2021-11-06T09:47:33.000Z</time>
      </trkpt>
      <trkpt lat="45.20132" lon="5.72477">
        <ele>505.39999389648</ele>
        <time>2021-11-06T09:47:35.000Z</time>
      </trkpt>
      <trkpt lat="45.20131" lon="5.72479">
        <ele>505</ele>
        <time>2021-11-06T09:47:36.000Z</time>
      </trkpt>
      <trkpt lat="45.20131" lon="5.72484">
        <ele>504</ele>
        <time>2021-11-06T09:47:39.000Z</time>
      </trkpt>
      <trkpt lat="45.2013" lon="5.72486">
        <ele>503.60000610352</ele>
        <time>2021-11-06T09:47:40.000Z</time>
      </trkpt>
      <trkpt lat="45.20128" lon="5.7249">
        <ele>502.60000610352</ele>
        <time>2021-11-06T09:47:42.000Z</time>
      </trkpt>
      <trkpt lat="45.20127" lon="5.72494">
        <ele>501.20001220703</ele>
        <time>2021-11-06T09:47:44.000Z</time>
      </trkpt>
      <trkpt lat="45.20125" lon="5.72497">
        <ele>500.60000610352</ele>
        <time>2021-11-06T09:47:45.000Z</time>
      </trkpt>
      <trkpt lat="45.20124" lon="5.72498">
        <ele>500</ele>
        <time>2021-11-06T09:47:46.000Z</time>
      </trkpt>
      <trkpt lat="45.20123" lon="5.725">
        <ele>499.60000610352</ele>
        <time>2021-11-06T09:47:47.000Z</time>
      </trkpt>
      <trkpt lat="45.20121" lon="5.72505">
        <ele>498.60000610352</ele>
        <time>2021-11-06T09:47:49.000Z</time>
      </trkpt>
      <trkpt lat="45.20116" lon="5.72513">
        <ele>497.20001220703</ele>
        <time>2021-11-06T09:47:53.000Z</time>
      </trkpt>
      <trkpt lat="45.20114" lon="5.72517">
        <ele>496</ele>
        <time>2021-11-06T09:47:55.000Z</time>
      </trkpt>
      <trkpt lat="45.20113" lon="5.72519">
        <ele>495.60000610352</ele>
        <time>2021-11-06T09:47:56.000Z</time>
      </trkpt>
      <trkpt lat="45.20112" lon="5.72527">
        <ele>494.39999389648</ele>
        <time>2021-11-06T09:48:00.000Z</time>
      </trkpt>
      <trkpt lat="45.20113" lon="5.72532">
        <ele>494</ele>
        <time>2021-11-06T09:48:02.000Z</time>
      </trkpt>
      <trkpt lat="45.20115" lon="5.72536">
        <ele>493.20001220703</ele>
        <time>2021-11-06T09:48:04.000Z</time>
      </trkpt>
      <trkpt lat="45.20118" lon="5.72543">
        <ele>492</ele>
        <time>2021-11-06T09:48:07.000Z</time>
      </trkpt>
      <trkpt lat="45.20118" lon="5.72544">
        <ele>491.39999389648</ele>
        <time>2021-11-06T09:48:08.000Z</time>
      </trkpt>
      <trkpt lat="45.20116" lon="5.72545">
        <ele>491</ele>
        <time>2021-11-06T09:48:09.000Z</time>
      </trkpt>
      <trkpt lat="45.20113" lon="5.72543">
        <ele>490.20001220703</ele>
        <time>2021-11-06T09:48:11.000Z</time>
      </trkpt>
      <trkpt lat="45.20112" lon="5.72542">
        <ele>489.79998779297</ele>
        <time>2021-11-06T09:48:12.000Z</time>
      </trkpt>
      <trkpt lat="45.20105" lon="5.72542">
        <ele>488.79998779297</ele>
        <time>2021-11-06T09:48:16.000Z</time>
      </trkpt>
      <trkpt lat="45.201" lon="5.72543">
        <ele>487.79998779297</ele>
        <time>2021-11-06T09:48:18.000Z</time>
      </trkpt>
      <trkpt lat="45.20097" lon="5.72544">
        <ele>487.60000610352</ele>
        <time>2021-11-06T09:48:19.000Z</time>
      </trkpt>
      <trkpt lat="45.20095" lon="5.72545">
        <ele>486.79998779297</ele>
        <time>2021-11-06T09:48:20.000Z</time>
      </trkpt>
      <trkpt lat="45.2009" lon="5.72546">
        <ele>485.39999389648</ele>
        <time>2021-11-06T09:48:22.000Z</time>
      </trkpt>
      <trkpt lat="45.20084" lon="5.72549">
        <ele>484.20001220703</ele>
        <time>2021-11-06T09:48:24.000Z</time>
      </trkpt>
      <trkpt lat="45.20076" lon="5.72555">
        <ele>483.20001220703</ele>
        <time>2021-11-06T09:48:27.000Z</time>
      </trkpt>
      <trkpt lat="45.20074" lon="5.72557">
        <ele>482.60000610352</ele>
        <time>2021-11-06T09:48:29.000Z</time>
      </trkpt>
      <trkpt lat="45.20074" lon="5.72562">
        <ele>482</ele>
        <time>2021-11-06T09:48:31.000Z</time>
      </trkpt>
      <trkpt lat="45.20074" lon="5.72561">
        <ele>481</ele>
        <time>2021-11-06T09:48:34.000Z</time>
      </trkpt>
      <trkpt lat="45.20074" lon="5.72559">
        <ele>480.79998779297</ele>
        <time>2021-11-06T09:48:35.000Z</time>
      </trkpt>
      <trkpt lat="45.2007" lon="5.72548">
        <ele>481</ele>
        <time>2021-11-06T09:48:39.000Z</time>
      </trkpt>
      <trkpt lat="45.20069" lon="5.72538">
        <ele>481.79998779297</ele>
        <time>2021-11-06T09:48:42.000Z</time>
      </trkpt>
      <trkpt lat="45.20068" lon="5.72534">
        <ele>482</ele>
        <time>2021-11-06T09:48:43.000Z</time>
      </trkpt>
      <trkpt lat="45.20068" lon="5.7253">
        <ele>482</ele>
        <time>2021-11-06T09:48:44.000Z</time>
      </trkpt>
      <trkpt lat="45.20069" lon="5.72513">
        <ele>482.39999389648</ele>
        <time>2021-11-06T09:48:48.000Z</time>
      </trkpt>
      <trkpt lat="45.20071" lon="5.72509">
        <ele>482.20001220703</ele>
        <time>2021-11-06T09:48:49.000Z</time>
      </trkpt>
      <trkpt lat="45.20073" lon="5.72497">
        <ele>482</ele>
        <time>2021-11-06T09:48:52.000Z</time>
      </trkpt>
      <trkpt lat="45.20074" lon="5.72484">
        <ele>481.20001220703</ele>
        <time>2021-11-06T09:48:55.000Z</time>
      </trkpt>
      <trkpt lat="45.20074" lon="5.7248">
        <ele>480.79998779297</ele>
        <time>2021-11-06T09:48:56.000Z</time>
      </trkpt>
      <trkpt lat="45.20074" lon="5.72476">
        <ele>480.60000610352</ele>
        <time>2021-11-06T09:48:57.000Z</time>
      </trkpt>
      <trkpt lat="45.20072" lon="5.7246">
        <ele>479.60000610352</ele>
        <time>2021-11-06T09:49:01.000Z</time>
      </trkpt>
      <trkpt lat="45.2007" lon="5.72449">
        <ele>479</ele>
        <time>2021-11-06T09:49:04.000Z</time>
      </trkpt>
      <trkpt lat="45.20068" lon="5.72442">
        <ele>478.39999389648</ele>
        <time>2021-11-06T09:49:06.000Z</time>
      </trkpt>
      <trkpt lat="45.20058" lon="5.72435">
        <ele>477</ele>
        <time>2021-11-06T09:49:10.000Z</time>
      </trkpt>
      <trkpt lat="45.2005" lon="5.72433">
        <ele>475.79998779297</ele>
        <time>2021-11-06T09:49:13.000Z</time>
      </trkpt>
      <trkpt lat="45.20044" lon="5.72432">
        <ele>475.20001220703</ele>
        <time>2021-11-06T09:49:15.000Z</time>
      </trkpt>
      <trkpt lat="45.2004" lon="5.72432">
        <ele>474.79998779297</ele>
        <time>2021-11-06T09:49:17.000Z</time>
      </trkpt>
      <trkpt lat="45.20033" lon="5.72432">
        <ele>473.60000610352</ele>
        <time>2021-11-06T09:49:20.000Z</time>
      </trkpt>
      <trkpt lat="45.20021" lon="5.72433">
        <ele>472.60000610352</ele>
        <time>2021-11-06T09:49:24.000Z</time>
      </trkpt>
      <trkpt lat="45.20004" lon="5.72429">
        <ele>471</ele>
        <time>2021-11-06T09:49:30.000Z</time>
      </trkpt>
      <trkpt lat="45.19995" lon="5.72427">
        <ele>470.20001220703</ele>
        <time>2021-11-06T09:49:33.000Z</time>
      </trkpt>
      <trkpt lat="45.19987" lon="5.72427">
        <ele>469.79998779297</ele>
        <time>2021-11-06T09:49:35.000Z</time>
      </trkpt>
      <trkpt lat="45.19977" lon="5.72426">
        <ele>468.20001220703</ele>
        <time>2021-11-06T09:49:38.000Z</time>
      </trkpt>
      <trkpt lat="45.19967" lon="5.72425">
        <ele>467</ele>
        <time>2021-11-06T09:49:41.000Z</time>
      </trkpt>
      <trkpt lat="45.19957" lon="5.72425">
        <ele>465.79998779297</ele>
        <time>2021-11-06T09:49:44.000Z</time>
      </trkpt>
      <trkpt lat="45.19951" lon="5.72424">
        <ele>464.60000610352</ele>
        <time>2021-11-06T09:49:46.000Z</time>
      </trkpt>
      <trkpt lat="45.19933" lon="5.72425">
        <ele>463.79998779297</ele>
        <time>2021-11-06T09:49:52.000Z</time>
      </trkpt>
      <trkpt lat="45.1993" lon="5.72426">
        <ele>463.39999389648</ele>
        <time>2021-11-06T09:49:53.000Z</time>
      </trkpt>
      <trkpt lat="45.19917" lon="5.72429">
        <ele>463.79998779297</ele>
        <time>2021-11-06T09:49:58.000Z</time>
      </trkpt>
      <trkpt lat="45.19909" lon="5.72432">
        <ele>464.20001220703</ele>
        <time>2021-11-06T09:50:02.000Z</time>
      </trkpt>
      <trkpt lat="45.19906" lon="5.72433">
        <ele>464.60000610352</ele>
        <time>2021-11-06T09:50:03.000Z</time>
      </trkpt>
      <trkpt lat="45.19901" lon="5.72436">
        <ele>465.60000610352</ele>
        <time>2021-11-06T09:50:06.000Z</time>
      </trkpt>
      <trkpt lat="45.19896" lon="5.7244">
        <ele>466.39999389648</ele>
        <time>2021-11-06T09:50:09.000Z</time>
      </trkpt>
      <trkpt lat="45.19895" lon="5.72441">
        <ele>466.79998779297</ele>
        <time>2021-11-06T09:50:10.000Z</time>
      </trkpt>
      <trkpt lat="45.19891" lon="5.72443">
        <ele>467.39999389648</ele>
        <time>2021-11-06T09:50:13.000Z</time>
      </trkpt>
      <trkpt lat="45.19891" lon="5.72444">
        <ele>467.79998779297</ele>
        <time>2021-11-06T09:50:14.000Z</time>
      </trkpt>
      <trkpt lat="45.19887" lon="5.72456">
        <ele>468.60000610352</ele>
        <time>2021-11-06T09:50:19.000Z</time>
      </trkpt>
      <trkpt lat="45.19887" lon="5.7246">
        <ele>468.60000610352</ele>
        <time>2021-11-06T09:50:21.000Z</time>
      </trkpt>
      <trkpt lat="45.19871" lon="5.72477">
        <ele>468.39999389648</ele>
        <time>2021-11-06T09:50:27.000Z</time>
      </trkpt>
      <trkpt lat="45.19864" lon="5.72493">
        <ele>467.60000610352</ele>
        <time>2021-11-06T09:50:31.000Z</time>
      </trkpt>
      <trkpt lat="45.19863" lon="5.72498">
        <ele>467.60000610352</ele>
        <time>2021-11-06T09:50:32.000Z</time>
      </trkpt>
      <trkpt lat="45.19862" lon="5.72521">
        <ele>467</ele>
        <time>2021-11-06T09:50:37.000Z</time>
      </trkpt>
      <trkpt lat="45.19865" lon="5.72538">
        <ele>466.79998779297</ele>
        <time>2021-11-06T09:50:41.000Z</time>
      </trkpt>
      <trkpt lat="45.19865" lon="5.72549">
        <ele>465.60000610352</ele>
        <time>2021-11-06T09:50:44.000Z</time>
      </trkpt>
      <trkpt lat="45.19865" lon="5.72552">
        <ele>465.20001220703</ele>
        <time>2021-11-06T09:50:45.000Z</time>
      </trkpt>
      <trkpt lat="45.19864" lon="5.72553">
        <ele>465</ele>
        <time>2021-11-06T09:50:46.000Z</time>
      </trkpt>
      <trkpt lat="45.19861" lon="5.72549">
        <ele>464.39999389648</ele>
        <time>2021-11-06T09:50:48.000Z</time>
      </trkpt>
      <trkpt lat="45.19859" lon="5.72543">
        <ele>463.39999389648</ele>
        <time>2021-11-06T09:50:50.000Z</time>
      </trkpt>
      <trkpt lat="45.19856" lon="5.72532">
        <ele>462.79998779297</ele>
        <time>2021-11-06T09:50:53.000Z</time>
      </trkpt>
      <trkpt lat="45.19855" lon="5.72528">
        <ele>462.20001220703</ele>
        <time>2021-11-06T09:50:54.000Z</time>
      </trkpt>
      <trkpt lat="45.19849" lon="5.72509">
        <ele>461.20001220703</ele>
        <time>2021-11-06T09:50:59.000Z</time>
      </trkpt>
      <trkpt lat="45.19845" lon="5.72494">
        <ele>459.79998779297</ele>
        <time>2021-11-06T09:51:03.000Z</time>
      </trkpt>
      <trkpt lat="45.19843" lon="5.72489">
        <ele>459.39999389648</ele>
        <time>2021-11-06T09:51:04.000Z</time>
      </trkpt>
      <trkpt lat="45.19841" lon="5.72477">
        <ele>458.60000610352</ele>
        <time>2021-11-06T09:51:07.000Z</time>
      </trkpt>
      <trkpt lat="45.19841" lon="5.72465">
        <ele>457.60000610352</ele>
        <time>2021-11-06T09:51:10.000Z</time>
      </trkpt>
      <trkpt lat="45.1984" lon="5.72461">
        <ele>457.20001220703</ele>
        <time>2021-11-06T09:51:11.000Z</time>
      </trkpt>
      <trkpt lat="45.19838" lon="5.7245">
        <ele>456.20001220703</ele>
        <time>2021-11-06T09:51:14.000Z</time>
      </trkpt>
      <trkpt lat="45.19837" lon="5.72448">
        <ele>455.79998779297</ele>
        <time>2021-11-06T09:51:15.000Z</time>
      </trkpt>
      <trkpt lat="45.19836" lon="5.72447">
        <ele>455.39999389648</ele>
        <time>2021-11-06T09:51:17.000Z</time>
      </trkpt>
      <trkpt lat="45.19834" lon="5.7245">
        <ele>454.60000610352</ele>
        <time>2021-11-06T09:51:19.000Z</time>
      </trkpt>
      <trkpt lat="45.19831" lon="5.72461">
        <ele>454.20001220703</ele>
        <time>2021-11-06T09:51:22.000Z</time>
      </trkpt>
      <trkpt lat="45.19831" lon="5.72469">
        <ele>453.60000610352</ele>
        <time>2021-11-06T09:51:24.000Z</time>
      </trkpt>
      <trkpt lat="45.19832" lon="5.72472">
        <ele>453.39999389648</ele>
        <time>2021-11-06T09:51:25.000Z</time>
      </trkpt>
      <trkpt lat="45.19831" lon="5.72489">
        <ele>452.39999389648</ele>
        <time>2021-11-06T09:51:29.000Z</time>
      </trkpt>
      <trkpt lat="45.19831" lon="5.72492">
        <ele>452.20001220703</ele>
        <time>2021-11-06T09:51:30.000Z</time>
      </trkpt>
      <trkpt lat="45.19829" lon="5.725">
        <ele>451</ele>
        <time>2021-11-06T09:51:32.000Z</time>
      </trkpt>
      <trkpt lat="45.19826" lon="5.72511">
        <ele>449.79998779297</ele>
        <time>2021-11-06T09:51:35.000Z</time>
      </trkpt>
      <trkpt lat="45.19823" lon="5.72523">
        <ele>448.39999389648</ele>
        <time>2021-11-06T09:51:38.000Z</time>
      </trkpt>
      <trkpt lat="45.19821" lon="5.72536">
        <ele>447.39999389648</ele>
        <time>2021-11-06T09:51:41.000Z</time>
      </trkpt>
      <trkpt lat="45.19822" lon="5.72553">
        <ele>446.39999389648</ele>
        <time>2021-11-06T09:51:45.000Z</time>
      </trkpt>
      <trkpt lat="45.19823" lon="5.72571">
        <ele>445.39999389648</ele>
        <time>2021-11-06T09:51:49.000Z</time>
      </trkpt>
      <trkpt lat="45.19824" lon="5.72574">
        <ele>445</ele>
        <time>2021-11-06T09:51:50.000Z</time>
      </trkpt>
      <trkpt lat="45.19824" lon="5.72588">
        <ele>443.79998779297</ele>
        <time>2021-11-06T09:51:54.000Z</time>
      </trkpt>
      <trkpt lat="45.19828" lon="5.72606">
        <ele>442.60000610352</ele>
        <time>2021-11-06T09:51:59.000Z</time>
      </trkpt>
      <trkpt lat="45.1983" lon="5.72612">
        <ele>442.20001220703</ele>
        <time>2021-11-06T09:52:01.000Z</time>
      </trkpt>
      <trkpt lat="45.19832" lon="5.7262">
        <ele>441.39999389648</ele>
        <time>2021-11-06T09:52:03.000Z</time>
      </trkpt>
      <trkpt lat="45.19836" lon="5.72634">
        <ele>440.39999389648</ele>
        <time>2021-11-06T09:52:07.000Z</time>
      </trkpt>
      <trkpt lat="45.19837" lon="5.72637">
        <ele>440</ele>
        <time>2021-11-06T09:52:08.000Z</time>
      </trkpt>
      <trkpt lat="45.19839" lon="5.7264">
        <ele>439.60000610352</ele>
        <time>2021-11-06T09:52:09.000Z</time>
      </trkpt>
      <trkpt lat="45.19841" lon="5.72648">
        <ele>439.20001220703</ele>
        <time>2021-11-06T09:52:11.000Z</time>
      </trkpt>
      <trkpt lat="45.19848" lon="5.72669">
        <ele>438.20001220703</ele>
        <time>2021-11-06T09:52:17.000Z</time>
      </trkpt>
      <trkpt lat="45.1985" lon="5.72672">
        <ele>437.79998779297</ele>
        <time>2021-11-06T09:52:18.000Z</time>
      </trkpt>
      <trkpt lat="45.1986" lon="5.72682">
        <ele>436.20001220703</ele>
        <time>2021-11-06T09:52:22.000Z</time>
      </trkpt>
      <trkpt lat="45.19861" lon="5.72684">
        <ele>435.79998779297</ele>
        <time>2021-11-06T09:52:23.000Z</time>
      </trkpt>
      <trkpt lat="45.19861" lon="5.72687">
        <ele>435.60000610352</ele>
        <time>2021-11-06T09:52:24.000Z</time>
      </trkpt>
      <trkpt lat="45.19858" lon="5.7269">
        <ele>435</ele>
        <time>2021-11-06T09:52:26.000Z</time>
      </trkpt>
      <trkpt lat="45.19856" lon="5.72689">
        <ele>434.60000610352</ele>
        <time>2021-11-06T09:52:27.000Z</time>
      </trkpt>
      <trkpt lat="45.1985" lon="5.72684">
        <ele>433.79998779297</ele>
        <time>2021-11-06T09:52:29.000Z</time>
      </trkpt>
      <trkpt lat="45.19846" lon="5.72682">
        <ele>433.60000610352</ele>
        <time>2021-11-06T09:52:30.000Z</time>
      </trkpt>
      <trkpt lat="45.19835" lon="5.72676">
        <ele>432.79998779297</ele>
        <time>2021-11-06T09:52:34.000Z</time>
      </trkpt>
      <trkpt lat="45.1983" lon="5.72667">
        <ele>432.39999389648</ele>
        <time>2021-11-06T09:52:37.000Z</time>
      </trkpt>
      <trkpt lat="45.19823" lon="5.7266">
        <ele>431.20001220703</ele>
        <time>2021-11-06T09:52:40.000Z</time>
      </trkpt>
      <trkpt lat="45.19813" lon="5.72654">
        <ele>430.39999389648</ele>
        <time>2021-11-06T09:52:44.000Z</time>
      </trkpt>
      <trkpt lat="45.19809" lon="5.72651">
        <ele>430</ele>
        <time>2021-11-06T09:52:46.000Z</time>
      </trkpt>
      <trkpt lat="45.198" lon="5.72643">
        <ele>428.79998779297</ele>
        <time>2021-11-06T09:52:50.000Z</time>
      </trkpt>
      <trkpt lat="45.19798" lon="5.7264">
        <ele>428.39999389648</ele>
        <time>2021-11-06T09:52:51.000Z</time>
      </trkpt>
      <trkpt lat="45.19792" lon="5.72633">
        <ele>427.79998779297</ele>
        <time>2021-11-06T09:52:54.000Z</time>
      </trkpt>
      <trkpt lat="45.19787" lon="5.72624">
        <ele>426.79998779297</ele>
        <time>2021-11-06T09:52:57.000Z</time>
      </trkpt>
      <trkpt lat="45.19782" lon="5.72606">
        <ele>425.39999389648</ele>
        <time>2021-11-06T09:53:02.000Z</time>
      </trkpt>
      <trkpt lat="45.19781" lon="5.72592">
        <ele>424.20001220703</ele>
        <time>2021-11-06T09:53:06.000Z</time>
      </trkpt>
      <trkpt lat="45.19781" lon="5.72584">
        <ele>423.60000610352</ele>
        <time>2021-11-06T09:53:08.000Z</time>
      </trkpt>
      <trkpt lat="45.19782" lon="5.72572">
        <ele>423.20001220703</ele>
        <time>2021-11-06T09:53:11.000Z</time>
      </trkpt>
      <trkpt lat="45.19784" lon="5.72553">
        <ele>422</ele>
        <time>2021-11-06T09:53:15.000Z</time>
      </trkpt>
      <trkpt lat="45.19785" lon="5.72541">
        <ele>421</ele>
        <time>2021-11-06T09:53:18.000Z</time>
      </trkpt>
      <trkpt lat="45.19785" lon="5.72535">
        <ele>420.39999389648</ele>
        <time>2021-11-06T09:53:20.000Z</time>
      </trkpt>
      <trkpt lat="45.19785" lon="5.72533">
        <ele>420.20001220703</ele>
        <time>2021-11-06T09:53:21.000Z</time>
      </trkpt>
      <trkpt lat="45.19784" lon="5.72532">
        <ele>420.20001220703</ele>
        <time>2021-11-06T09:53:22.000Z</time>
      </trkpt>
      <trkpt lat="45.19782" lon="5.72533">
        <ele>419.79998779297</ele>
        <time>2021-11-06T09:53:23.000Z</time>
      </trkpt>
      <trkpt lat="45.19781" lon="5.72536">
        <ele>419.60000610352</ele>
        <time>2021-11-06T09:53:24.000Z</time>
      </trkpt>
      <trkpt lat="45.19776" lon="5.72551">
        <ele>418.60000610352</ele>
        <time>2021-11-06T09:53:28.000Z</time>
      </trkpt>
      <trkpt lat="45.19775" lon="5.72555">
        <ele>418.39999389648</ele>
        <time>2021-11-06T09:53:29.000Z</time>
      </trkpt>
      <trkpt lat="45.19774" lon="5.72565">
        <ele>417.39999389648</ele>
        <time>2021-11-06T09:53:32.000Z</time>
      </trkpt>
      <trkpt lat="45.1977" lon="5.72583">
        <ele>416.39999389648</ele>
        <time>2021-11-06T09:53:36.000Z</time>
      </trkpt>
      <trkpt lat="45.19769" lon="5.72588">
        <ele>415.20001220703</ele>
        <time>2021-11-06T09:53:38.000Z</time>
      </trkpt>
      <trkpt lat="45.19768" lon="5.72588">
        <ele>415</ele>
        <time>2021-11-06T09:53:39.000Z</time>
      </trkpt>
      <trkpt lat="45.19767" lon="5.72586">
        <ele>414.79998779297</ele>
        <time>2021-11-06T09:53:40.000Z</time>
      </trkpt>
      <trkpt lat="45.19764" lon="5.7257">
        <ele>414</ele>
        <time>2021-11-06T09:53:44.000Z</time>
      </trkpt>
      <trkpt lat="45.19764" lon="5.72566">
        <ele>413.39999389648</ele>
        <time>2021-11-06T09:53:45.000Z</time>
      </trkpt>
      <trkpt lat="45.19764" lon="5.72558">
        <ele>412.79998779297</ele>
        <time>2021-11-06T09:53:47.000Z</time>
      </trkpt>
      <trkpt lat="45.19764" lon="5.72547">
        <ele>411.79998779297</ele>
        <time>2021-11-06T09:53:50.000Z</time>
      </trkpt>
      <trkpt lat="45.19764" lon="5.72544">
        <ele>411.39999389648</ele>
        <time>2021-11-06T09:53:51.000Z</time>
      </trkpt>
      <trkpt lat="45.1977" lon="5.72523">
        <ele>410.20001220703</ele>
        <time>2021-11-06T09:53:56.000Z</time>
      </trkpt>
      <trkpt lat="45.19775" lon="5.72511">
        <ele>409.20001220703</ele>
        <time>2021-11-06T09:54:00.000Z</time>
      </trkpt>
      <trkpt lat="45.19774" lon="5.7251">
        <ele>409</ele>
        <time>2021-11-06T09:54:01.000Z</time>
      </trkpt>
      <trkpt lat="45.19769" lon="5.72512">
        <ele>407.79998779297</ele>
        <time>2021-11-06T09:54:04.000Z</time>
      </trkpt>
      <trkpt lat="45.19766" lon="5.72514">
        <ele>407.60000610352</ele>
        <time>2021-11-06T09:54:05.000Z</time>
      </trkpt>
      <trkpt lat="45.19761" lon="5.7252">
        <ele>406.79998779297</ele>
        <time>2021-11-06T09:54:08.000Z</time>
      </trkpt>
      <trkpt lat="45.19754" lon="5.72533">
        <ele>406</ele>
        <time>2021-11-06T09:54:12.000Z</time>
      </trkpt>
      <trkpt lat="45.19753" lon="5.7254">
        <ele>405.60000610352</ele>
        <time>2021-11-06T09:54:14.000Z</time>
      </trkpt>
      <trkpt lat="45.19751" lon="5.72555">
        <ele>405.60000610352</ele>
        <time>2021-11-06T09:54:18.000Z</time>
      </trkpt>
      <trkpt lat="45.19746" lon="5.72583">
        <ele>405.60000610352</ele>
        <time>2021-11-06T09:54:25.000Z</time>
      </trkpt>
      <trkpt lat="45.19746" lon="5.72587">
        <ele>405.60000610352</ele>
        <time>2021-11-06T09:54:26.000Z</time>
      </trkpt>
      <trkpt lat="45.1975" lon="5.72603">
        <ele>405.79998779297</ele>
        <time>2021-11-06T09:54:31.000Z</time>
      </trkpt>
      <trkpt lat="45.19751" lon="5.72606">
        <ele>405.60000610352</ele>
        <time>2021-11-06T09:54:32.000Z</time>
      </trkpt>
      <trkpt lat="45.19754" lon="5.72612">
        <ele>405.60000610352</ele>
        <time>2021-11-06T09:54:34.000Z</time>
      </trkpt>
      <trkpt lat="45.19755" lon="5.72616">
        <ele>405.60000610352</ele>
        <time>2021-11-06T09:54:35.000Z</time>
      </trkpt>
      <trkpt lat="45.19764" lon="5.72636">
        <ele>405.39999389648</ele>
        <time>2021-11-06T09:54:41.000Z</time>
      </trkpt>
      <trkpt lat="45.19775" lon="5.72654">
        <ele>405.39999389648</ele>
        <time>2021-11-06T09:54:46.000Z</time>
      </trkpt>
      <trkpt lat="45.1979" lon="5.72676">
        <ele>405.60000610352</ele>
        <time>2021-11-06T09:54:52.000Z</time>
      </trkpt>
      <trkpt lat="45.19793" lon="5.72678">
        <ele>405.60000610352</ele>
        <time>2021-11-06T09:54:53.000Z</time>
      </trkpt>
      <trkpt lat="45.19804" lon="5.72691">
        <ele>405.60000610352</ele>
        <time>2021-11-06T09:54:58.000Z</time>
      </trkpt>
      <trkpt lat="45.19806" lon="5.72693">
        <ele>405.79998779297</ele>
        <time>2021-11-06T09:54:59.000Z</time>
      </trkpt>
      <trkpt lat="45.19817" lon="5.72699">
        <ele>406</ele>
        <time>2021-11-06T09:55:03.000Z</time>
      </trkpt>
      <trkpt lat="45.19825" lon="5.7271">
        <ele>406</ele>
        <time>2021-11-06T09:55:06.000Z</time>
      </trkpt>
      <trkpt lat="45.19828" lon="5.72712">
        <ele>406.20001220703</ele>
        <time>2021-11-06T09:55:07.000Z</time>
      </trkpt>
      <trkpt lat="45.19837" lon="5.72725">
        <ele>406.39999389648</ele>
        <time>2021-11-06T09:55:12.000Z</time>
      </trkpt>
      <trkpt lat="45.19839" lon="5.72733">
        <ele>406.39999389648</ele>
        <time>2021-11-06T09:55:14.000Z</time>
      </trkpt>
      <trkpt lat="45.19845" lon="5.72742">
        <ele>406.60000610352</ele>
        <time>2021-11-06T09:55:17.000Z</time>
      </trkpt>
      <trkpt lat="45.19847" lon="5.72744">
        <ele>406.79998779297</ele>
        <time>2021-11-06T09:55:19.000Z</time>
      </trkpt>
      <trkpt lat="45.19848" lon="5.72742">
        <ele>406.79998779297</ele>
        <time>2021-11-06T09:55:20.000Z</time>
      </trkpt>
      <trkpt lat="45.19861" lon="5.7275">
        <ele>402.60000610352</ele>
        <time>2021-11-06T09:55:38.000Z</time>
      </trkpt>
      <trkpt lat="45.19859" lon="5.72759">
        <ele>402.20001220703</ele>
        <time>2021-11-06T09:55:42.000Z</time>
      </trkpt>
      <trkpt lat="45.19857" lon="5.72759">
        <ele>401.79998779297</ele>
        <time>2021-11-06T09:55:43.000Z</time>
      </trkpt>
      <trkpt lat="45.19857" lon="5.72758">
        <ele>401.39999389648</ele>
        <time>2021-11-06T09:55:44.000Z</time>
      </trkpt>
      <trkpt lat="45.19857" lon="5.72757">
        <ele>401.20001220703</ele>
        <time>2021-11-06T09:55:45.000Z</time>
      </trkpt>
      <trkpt lat="45.19858" lon="5.72755">
        <ele>400.79998779297</ele>
        <time>2021-11-06T09:55:46.000Z</time>
      </trkpt>
      <trkpt lat="45.19858" lon="5.72753">
        <ele>400.20001220703</ele>
        <time>2021-11-06T09:55:47.000Z</time>
      </trkpt>
      <trkpt lat="45.19858" lon="5.72752">
        <ele>399.20001220703</ele>
        <time>2021-11-06T09:55:49.000Z</time>
      </trkpt>
      <trkpt lat="45.19857" lon="5.72753">
        <ele>398.60000610352</ele>
        <time>2021-11-06T09:55:50.000Z</time>
      </trkpt>
      <trkpt lat="45.19856" lon="5.72756">
        <ele>397.39999389648</ele>
        <time>2021-11-06T09:55:53.000Z</time>
      </trkpt>
      <trkpt lat="45.1985" lon="5.72794">
        <ele>382.39999389648</ele>
        <time>2021-11-06T09:56:33.000Z</time>
      </trkpt>
      <trkpt lat="45.19849" lon="5.72802">
        <ele>382.39999389648</ele>
        <time>2021-11-06T09:56:37.000Z</time>
      </trkpt>
      <trkpt lat="45.19849" lon="5.72796">
        <ele>382.39999389648</ele>
        <time>2021-11-06T09:56:40.000Z</time>
      </trkpt>
      <trkpt lat="45.1985" lon="5.72793">
        <ele>382.60000610352</ele>
        <time>2021-11-06T09:56:43.000Z</time>
      </trkpt>
      <trkpt lat="45.19851" lon="5.72788">
        <ele>382.60000610352</ele>
        <time>2021-11-06T09:56:48.000Z</time>
      </trkpt>
      <trkpt lat="45.19852" lon="5.72786">
        <ele>382.79998779297</ele>
        <time>2021-11-06T09:56:53.000Z</time>
      </trkpt>
      <trkpt lat="45.19848" lon="5.72783">
        <ele>382.60000610352</ele>
        <time>2021-11-06T09:56:59.000Z</time>
      </trkpt>
      <trkpt lat="45.19843" lon="5.72781">
        <ele>381.60000610352</ele>
        <time>2021-11-06T09:57:04.000Z</time>
      </trkpt>
      <trkpt lat="45.19842" lon="5.7278">
        <ele>381.20001220703</ele>
        <time>2021-11-06T09:57:05.000Z</time>
      </trkpt>
      <trkpt lat="45.19842" lon="5.72779">
        <ele>380.39999389648</ele>
        <time>2021-11-06T09:57:06.000Z</time>
      </trkpt>
      <trkpt lat="45.19841" lon="5.72779">
        <ele>380</ele>
        <time>2021-11-06T09:57:07.000Z</time>
      </trkpt>
      <trkpt lat="45.19841" lon="5.7278">
        <ele>379.39999389648</ele>
        <time>2021-11-06T09:57:08.000Z</time>
      </trkpt>
      <trkpt lat="45.19842" lon="5.72781">
        <ele>378.20001220703</ele>
        <time>2021-11-06T09:57:10.000Z</time>
      </trkpt>
      <trkpt lat="45.19844" lon="5.72782">
        <ele>378</ele>
        <time>2021-11-06T09:57:11.000Z</time>
      </trkpt>
      <trkpt lat="45.19847" lon="5.72786">
        <ele>377.39999389648</ele>
        <time>2021-11-06T09:57:13.000Z</time>
      </trkpt>
      <trkpt lat="45.19849" lon="5.7279">
        <ele>377.20001220703</ele>
        <time>2021-11-06T09:57:15.000Z</time>
      </trkpt>
      <trkpt lat="45.19848" lon="5.72789">
        <ele>377</ele>
        <time>2021-11-06T09:57:16.000Z</time>
      </trkpt>
      <trkpt lat="45.19846" lon="5.72788">
        <ele>376.79998779297</ele>
        <time>2021-11-06T09:57:17.000Z</time>
      </trkpt>
      <trkpt lat="45.19839" lon="5.72785">
        <ele>376</ele>
        <time>2021-11-06T09:57:20.000Z</time>
      </trkpt>
      <trkpt lat="45.19831" lon="5.72779">
        <ele>375</ele>
        <time>2021-11-06T09:57:24.000Z</time>
      </trkpt>
      <trkpt lat="45.19827" lon="5.72777">
        <ele>374.60000610352</ele>
        <time>2021-11-06T09:57:26.000Z</time>
      </trkpt>
      <trkpt lat="45.1982" lon="5.72773">
        <ele>374</ele>
        <time>2021-11-06T09:57:29.000Z</time>
      </trkpt>
      <trkpt lat="45.19817" lon="5.72772">
        <ele>373.79998779297</ele>
        <time>2021-11-06T09:57:30.000Z</time>
      </trkpt>
      <trkpt lat="45.1981" lon="5.72765">
        <ele>373.20001220703</ele>
        <time>2021-11-06T09:57:33.000Z</time>
      </trkpt>
      <trkpt lat="45.19805" lon="5.7276">
        <ele>373</ele>
        <time>2021-11-06T09:57:35.000Z</time>
      </trkpt>
      <trkpt lat="45.19801" lon="5.72757">
        <ele>372.79998779297</ele>
        <time>2021-11-06T09:57:37.000Z</time>
      </trkpt>
      <trkpt lat="45.19796" lon="5.72749">
        <ele>372</ele>
        <time>2021-11-06T09:57:40.000Z</time>
      </trkpt>
      <trkpt lat="45.19794" lon="5.72747">
        <ele>371.79998779297</ele>
        <time>2021-11-06T09:57:41.000Z</time>
      </trkpt>
      <trkpt lat="45.19792" lon="5.72746">
        <ele>371.60000610352</ele>
        <time>2021-11-06T09:57:42.000Z</time>
      </trkpt>
      <trkpt lat="45.1979" lon="5.72745">
        <ele>371.39999389648</ele>
        <time>2021-11-06T09:57:43.000Z</time>
      </trkpt>
      <trkpt lat="45.19789" lon="5.72747">
        <ele>370.79998779297</ele>
        <time>2021-11-06T09:57:45.000Z</time>
      </trkpt>
      <trkpt lat="45.19794" lon="5.72746">
        <ele>369.60000610352</ele>
        <time>2021-11-06T09:57:48.000Z</time>
      </trkpt>
      <trkpt lat="45.19807" lon="5.72756">
        <ele>368.20001220703</ele>
        <time>2021-11-06T09:57:53.000Z</time>
      </trkpt>
      <trkpt lat="45.19808" lon="5.72759">
        <ele>368</ele>
        <time>2021-11-06T09:57:54.000Z</time>
      </trkpt>
      <trkpt lat="45.19812" lon="5.72764">
        <ele>366.79998779297</ele>
        <time>2021-11-06T09:57:56.000Z</time>
      </trkpt>
      <trkpt lat="45.19815" lon="5.72768">
        <ele>365.60000610352</ele>
        <time>2021-11-06T09:57:58.000Z</time>
      </trkpt>
      <trkpt lat="45.1982" lon="5.72773">
        <ele>364.60000610352</ele>
        <time>2021-11-06T09:58:01.000Z</time>
      </trkpt>
      <trkpt lat="45.19822" lon="5.72776">
        <ele>364.39999389648</ele>
        <time>2021-11-06T09:58:02.000Z</time>
      </trkpt>
      <trkpt lat="45.19834" lon="5.7279">
        <ele>363.39999389648</ele>
        <time>2021-11-06T09:58:07.000Z</time>
      </trkpt>
      <trkpt lat="45.19836" lon="5.72792">
        <ele>363</ele>
        <time>2021-11-06T09:58:08.000Z</time>
      </trkpt>
      <trkpt lat="45.19841" lon="5.72796">
        <ele>362.20001220703</ele>
        <time>2021-11-06T09:58:10.000Z</time>
      </trkpt>
      <trkpt lat="45.19846" lon="5.72799">
        <ele>361.39999389648</ele>
        <time>2021-11-06T09:58:12.000Z</time>
      </trkpt>
      <trkpt lat="45.19845" lon="5.72801">
        <ele>361.20001220703</ele>
        <time>2021-11-06T09:58:13.000Z</time>
      </trkpt>
      <trkpt lat="45.19844" lon="5.72801">
        <ele>360.60000610352</ele>
        <time>2021-11-06T09:58:14.000Z</time>
      </trkpt>
      <trkpt lat="45.19837" lon="5.72799">
        <ele>359.79998779297</ele>
        <time>2021-11-06T09:58:17.000Z</time>
      </trkpt>
      <trkpt lat="45.19831" lon="5.72794">
        <ele>359.20001220703</ele>
        <time>2021-11-06T09:58:19.000Z</time>
      </trkpt>
      <trkpt lat="45.19826" lon="5.72791">
        <ele>358.39999389648</ele>
        <time>2021-11-06T09:58:21.000Z</time>
      </trkpt>
      <trkpt lat="45.19822" lon="5.72791">
        <ele>358.20001220703</ele>
        <time>2021-11-06T09:58:22.000Z</time>
      </trkpt>
      <trkpt lat="45.1982" lon="5.72789">
        <ele>357.79998779297</ele>
        <time>2021-11-06T09:58:23.000Z</time>
      </trkpt>
      <trkpt lat="45.19811" lon="5.72786">
        <ele>357</ele>
        <time>2021-11-06T09:58:26.000Z</time>
      </trkpt>
      <trkpt lat="45.19807" lon="5.72781">
        <ele>356</ele>
        <time>2021-11-06T09:58:28.000Z</time>
      </trkpt>
      <trkpt lat="45.19804" lon="5.72779">
        <ele>355.79998779297</ele>
        <time>2021-11-06T09:58:29.000Z</time>
      </trkpt>
      <trkpt lat="45.198" lon="5.72777">
        <ele>354.60000610352</ele>
        <time>2021-11-06T09:58:31.000Z</time>
      </trkpt>
      <trkpt lat="45.198" lon="5.72778">
        <ele>354.39999389648</ele>
        <time>2021-11-06T09:58:32.000Z</time>
      </trkpt>
      <trkpt lat="45.19801" lon="5.72778">
        <ele>354.20001220703</ele>
        <time>2021-11-06T09:58:33.000Z</time>
      </trkpt>
      <trkpt lat="45.19806" lon="5.72785">
        <ele>353.60000610352</ele>
        <time>2021-11-06T09:58:36.000Z</time>
      </trkpt>
      <trkpt lat="45.1981" lon="5.72788">
        <ele>353.39999389648</ele>
        <time>2021-11-06T09:58:38.000Z</time>
      </trkpt>
      <trkpt lat="45.1982" lon="5.72797">
        <ele>352.39999389648</ele>
        <time>2021-11-06T09:58:42.000Z</time>
      </trkpt>
      <trkpt lat="45.19823" lon="5.72798">
        <ele>352.20001220703</ele>
        <time>2021-11-06T09:58:43.000Z</time>
      </trkpt>
      <trkpt lat="45.19834" lon="5.72807">
        <ele>351</ele>
        <time>2021-11-06T09:58:47.000Z</time>
      </trkpt>
      <trkpt lat="45.19836" lon="5.72811">
        <ele>350.60000610352</ele>
        <time>2021-11-06T09:58:48.000Z</time>
      </trkpt>
      <trkpt lat="45.19839" lon="5.72814">
        <ele>349.60000610352</ele>
        <time>2021-11-06T09:58:50.000Z</time>
      </trkpt>
      <trkpt lat="45.19845" lon="5.72821">
        <ele>348.60000610352</ele>
        <time>2021-11-06T09:58:53.000Z</time>
      </trkpt>
      <trkpt lat="45.19846" lon="5.72824">
        <ele>347.79998779297</ele>
        <time>2021-11-06T09:58:55.000Z</time>
      </trkpt>
      <trkpt lat="45.19845" lon="5.72824">
        <ele>347.39999389648</ele>
        <time>2021-11-06T09:58:56.000Z</time>
      </trkpt>
      <trkpt lat="45.19832" lon="5.72821">
        <ele>346.20001220703</ele>
        <time>2021-11-06T09:59:00.000Z</time>
      </trkpt>
      <trkpt lat="45.19827" lon="5.72821">
        <ele>345.79998779297</ele>
        <time>2021-11-06T09:59:02.000Z</time>
      </trkpt>
      <trkpt lat="45.19824" lon="5.72821">
        <ele>345.60000610352</ele>
        <time>2021-11-06T09:59:03.000Z</time>
      </trkpt>
      <trkpt lat="45.19821" lon="5.72822">
        <ele>345.20001220703</ele>
        <time>2021-11-06T09:59:04.000Z</time>
      </trkpt>
      <trkpt lat="45.19819" lon="5.72821">
        <ele>345</ele>
        <time>2021-11-06T09:59:05.000Z</time>
      </trkpt>
      <trkpt lat="45.19815" lon="5.72821">
        <ele>344</ele>
        <time>2021-11-06T09:59:07.000Z</time>
      </trkpt>
      <trkpt lat="45.19814" lon="5.72822">
        <ele>343.39999389648</ele>
        <time>2021-11-06T09:59:09.000Z</time>
      </trkpt>
      <trkpt lat="45.19816" lon="5.72822">
        <ele>343.20001220703</ele>
        <time>2021-11-06T09:59:10.000Z</time>
      </trkpt>
      <trkpt lat="45.1982" lon="5.72824">
        <ele>342.79998779297</ele>
        <time>2021-11-06T09:59:12.000Z</time>
      </trkpt>
      <trkpt lat="45.19832" lon="5.72829">
        <ele>341.79998779297</ele>
        <time>2021-11-06T09:59:16.000Z</time>
      </trkpt>
      <trkpt lat="45.19834" lon="5.72831">
        <ele>341.39999389648</ele>
        <time>2021-11-06T09:59:17.000Z</time>
      </trkpt>
      <trkpt lat="45.19834" lon="5.72832">
        <ele>341</ele>
        <time>2021-11-06T09:59:18.000Z</time>
      </trkpt>
      <trkpt lat="45.19833" lon="5.72832">
        <ele>340.79998779297</ele>
        <time>2021-11-06T09:59:19.000Z</time>
      </trkpt>
      <trkpt lat="45.19831" lon="5.72831">
        <ele>340.60000610352</ele>
        <time>2021-11-06T09:59:20.000Z</time>
      </trkpt>
      <trkpt lat="45.19821" lon="5.72827">
        <ele>339.39999389648</ele>
        <time>2021-11-06T09:59:24.000Z</time>
      </trkpt>
      <trkpt lat="45.19818" lon="5.72827">
        <ele>339</ele>
        <time>2021-11-06T09:59:25.000Z</time>
      </trkpt>
      <trkpt lat="45.19809" lon="5.72823">
        <ele>338</ele>
        <time>2021-11-06T09:59:28.000Z</time>
      </trkpt>
      <trkpt lat="45.19806" lon="5.7282">
        <ele>337.39999389648</ele>
        <time>2021-11-06T09:59:30.000Z</time>
      </trkpt>
      <trkpt lat="45.19801" lon="5.72815">
        <ele>336.79998779297</ele>
        <time>2021-11-06T09:59:32.000Z</time>
      </trkpt>
      <trkpt lat="45.19794" lon="5.72813">
        <ele>335.60000610352</ele>
        <time>2021-11-06T09:59:35.000Z</time>
      </trkpt>
      <trkpt lat="45.19794" lon="5.72814">
        <ele>335.20001220703</ele>
        <time>2021-11-06T09:59:36.000Z</time>
      </trkpt>
      <trkpt lat="45.19795" lon="5.72815">
        <ele>335.20001220703</ele>
        <time>2021-11-06T09:59:37.000Z</time>
      </trkpt>
      <trkpt lat="45.19799" lon="5.72818">
        <ele>334.60000610352</ele>
        <time>2021-11-06T09:59:39.000Z</time>
      </trkpt>
      <trkpt lat="45.19801" lon="5.7282">
        <ele>334.39999389648</ele>
        <time>2021-11-06T09:59:40.000Z</time>
      </trkpt>
      <trkpt lat="45.19814" lon="5.72829">
        <ele>333.39999389648</ele>
        <time>2021-11-06T09:59:46.000Z</time>
      </trkpt>
      <trkpt lat="45.19825" lon="5.72838">
        <ele>332.60000610352</ele>
        <time>2021-11-06T09:59:50.000Z</time>
      </trkpt>
      <trkpt lat="45.19825" lon="5.7284">
        <ele>332.39999389648</ele>
        <time>2021-11-06T09:59:51.000Z</time>
      </trkpt>
      <trkpt lat="45.19822" lon="5.72842">
        <ele>331.79998779297</ele>
        <time>2021-11-06T09:59:53.000Z</time>
      </trkpt>
      <trkpt lat="45.19815" lon="5.72842">
        <ele>331</ele>
        <time>2021-11-06T09:59:56.000Z</time>
      </trkpt>
      <trkpt lat="45.19813" lon="5.72841">
        <ele>330.79998779297</ele>
        <time>2021-11-06T09:59:57.000Z</time>
      </trkpt>
      <trkpt lat="45.19804" lon="5.72836">
        <ele>329.79998779297</ele>
        <time>2021-11-06T10:00:01.000Z</time>
      </trkpt>
      <trkpt lat="45.19796" lon="5.72835">
        <ele>328.60000610352</ele>
        <time>2021-11-06T10:00:04.000Z</time>
      </trkpt>
      <trkpt lat="45.19794" lon="5.72834">
        <ele>328.60000610352</ele>
        <time>2021-11-06T10:00:05.000Z</time>
      </trkpt>
      <trkpt lat="45.19789" lon="5.72832">
        <ele>327.39999389648</ele>
        <time>2021-11-06T10:00:07.000Z</time>
      </trkpt>
      <trkpt lat="45.19787" lon="5.7283">
        <ele>327</ele>
        <time>2021-11-06T10:00:08.000Z</time>
      </trkpt>
      <trkpt lat="45.19782" lon="5.72827">
        <ele>326.60000610352</ele>
        <time>2021-11-06T10:00:10.000Z</time>
      </trkpt>
      <trkpt lat="45.1978" lon="5.72826">
        <ele>326.39999389648</ele>
        <time>2021-11-06T10:00:11.000Z</time>
      </trkpt>
      <trkpt lat="45.19773" lon="5.72822">
        <ele>325.20001220703</ele>
        <time>2021-11-06T10:00:14.000Z</time>
      </trkpt>
      <trkpt lat="45.19766" lon="5.7282">
        <ele>324.20001220703</ele>
        <time>2021-11-06T10:00:17.000Z</time>
      </trkpt>
      <trkpt lat="45.19763" lon="5.72818">
        <ele>323.79998779297</ele>
        <time>2021-11-06T10:00:18.000Z</time>
      </trkpt>
      <trkpt lat="45.19756" lon="5.72816">
        <ele>323.20001220703</ele>
        <time>2021-11-06T10:00:21.000Z</time>
      </trkpt>
      <trkpt lat="45.19758" lon="5.72815">
        <ele>322.79998779297</ele>
        <time>2021-11-06T10:00:22.000Z</time>
      </trkpt>
      <trkpt lat="45.19765" lon="5.72821">
        <ele>321.60000610352</ele>
        <time>2021-11-06T10:00:26.000Z</time>
      </trkpt>
      <trkpt lat="45.19775" lon="5.72829">
        <ele>320.79998779297</ele>
        <time>2021-11-06T10:00:30.000Z</time>
      </trkpt>
      <trkpt lat="45.19777" lon="5.7283">
        <ele>320.39999389648</ele>
        <time>2021-11-06T10:00:31.000Z</time>
      </trkpt>
      <trkpt lat="45.19784" lon="5.72837">
        <ele>319.20001220703</ele>
        <time>2021-11-06T10:00:34.000Z</time>
      </trkpt>
      <trkpt lat="45.19787" lon="5.72841">
        <ele>318.79998779297</ele>
        <time>2021-11-06T10:00:36.000Z</time>
      </trkpt>
      <trkpt lat="45.19792" lon="5.72846">
        <ele>317.60000610352</ele>
        <time>2021-11-06T10:00:38.000Z</time>
      </trkpt>
      <trkpt lat="45.19799" lon="5.72852">
        <ele>316.60000610352</ele>
        <time>2021-11-06T10:00:41.000Z</time>
      </trkpt>
      <trkpt lat="45.19802" lon="5.72858">
        <ele>316</ele>
        <time>2021-11-06T10:00:43.000Z</time>
      </trkpt>
      <trkpt lat="45.19804" lon="5.72862">
        <ele>315.39999389648</ele>
        <time>2021-11-06T10:00:45.000Z</time>
      </trkpt>
      <trkpt lat="45.19808" lon="5.72869">
        <ele>314.39999389648</ele>
        <time>2021-11-06T10:00:48.000Z</time>
      </trkpt>
      <trkpt lat="45.19809" lon="5.72871">
        <ele>314.20001220703</ele>
        <time>2021-11-06T10:00:49.000Z</time>
      </trkpt>
      <trkpt lat="45.19809" lon="5.72873">
        <ele>314</ele>
        <time>2021-11-06T10:00:50.000Z</time>
      </trkpt>
      <trkpt lat="45.19806" lon="5.72877">
        <ele>313.39999389648</ele>
        <time>2021-11-06T10:00:52.000Z</time>
      </trkpt>
      <trkpt lat="45.19804" lon="5.72877">
        <ele>312.79998779297</ele>
        <time>2021-11-06T10:00:53.000Z</time>
      </trkpt>
      <trkpt lat="45.19797" lon="5.72877">
        <ele>311.79998779297</ele>
        <time>2021-11-06T10:00:56.000Z</time>
      </trkpt>
      <trkpt lat="45.1979" lon="5.72876">
        <ele>310.79998779297</ele>
        <time>2021-11-06T10:00:59.000Z</time>
      </trkpt>
      <trkpt lat="45.19789" lon="5.72874">
        <ele>310.20001220703</ele>
        <time>2021-11-06T10:01:00.000Z</time>
      </trkpt>
      <trkpt lat="45.19779" lon="5.72869">
        <ele>309.20001220703</ele>
        <time>2021-11-06T10:01:04.000Z</time>
      </trkpt>
      <trkpt lat="45.19773" lon="5.72869">
        <ele>308.20001220703</ele>
        <time>2021-11-06T10:01:06.000Z</time>
      </trkpt>
      <trkpt lat="45.19771" lon="5.72868">
        <ele>308</ele>
        <time>2021-11-06T10:01:07.000Z</time>
      </trkpt>
      <trkpt lat="45.19759" lon="5.72861">
        <ele>306.60000610352</ele>
        <time>2021-11-06T10:01:11.000Z</time>
      </trkpt>
      <trkpt lat="45.19756" lon="5.72861">
        <ele>306.20001220703</ele>
        <time>2021-11-06T10:01:12.000Z</time>
      </trkpt>
      <trkpt lat="45.19747" lon="5.72855">
        <ele>305.39999389648</ele>
        <time>2021-11-06T10:01:15.000Z</time>
      </trkpt>
      <trkpt lat="45.19746" lon="5.72852">
        <ele>305.20001220703</ele>
        <time>2021-11-06T10:01:16.000Z</time>
      </trkpt>
      <trkpt lat="45.19746" lon="5.72848">
        <ele>304.20001220703</ele>
        <time>2021-11-06T10:01:18.000Z</time>
      </trkpt>
      <trkpt lat="45.19748" lon="5.7285">
        <ele>303.60000610352</ele>
        <time>2021-11-06T10:01:20.000Z</time>
      </trkpt>
      <trkpt lat="45.19751" lon="5.72854">
        <ele>303.20001220703</ele>
        <time>2021-11-06T10:01:22.000Z</time>
      </trkpt>
      <trkpt lat="45.19761" lon="5.72863">
        <ele>302</ele>
        <time>2021-11-06T10:01:26.000Z</time>
      </trkpt>
      <trkpt lat="45.19768" lon="5.72874">
        <ele>300.79998779297</ele>
        <time>2021-11-06T10:01:30.000Z</time>
      </trkpt>
      <trkpt lat="45.19769" lon="5.72877">
        <ele>300.20001220703</ele>
        <time>2021-11-06T10:01:31.000Z</time>
      </trkpt>
      <trkpt lat="45.19772" lon="5.72881">
        <ele>299.60000610352</ele>
        <time>2021-11-06T10:01:33.000Z</time>
      </trkpt>
      <trkpt lat="45.19778" lon="5.72892">
        <ele>298.60000610352</ele>
        <time>2021-11-06T10:01:36.000Z</time>
      </trkpt>
      <trkpt lat="45.19779" lon="5.72894">
        <ele>298.39999389648</ele>
        <time>2021-11-06T10:01:37.000Z</time>
      </trkpt>
      <trkpt lat="45.19789" lon="5.72905">
        <ele>297.20001220703</ele>
        <time>2021-11-06T10:01:41.000Z</time>
      </trkpt>
      <trkpt lat="45.19791" lon="5.72906">
        <ele>296.60000610352</ele>
        <time>2021-11-06T10:01:42.000Z</time>
      </trkpt>
      <trkpt lat="45.19793" lon="5.72908">
        <ele>296</ele>
        <time>2021-11-06T10:01:43.000Z</time>
      </trkpt>
      <trkpt lat="45.19794" lon="5.7291">
        <ele>295.60000610352</ele>
        <time>2021-11-06T10:01:44.000Z</time>
      </trkpt>
      <trkpt lat="45.19796" lon="5.72915">
        <ele>295</ele>
        <time>2021-11-06T10:01:46.000Z</time>
      </trkpt>
      <trkpt lat="45.19797" lon="5.72917">
        <ele>294.79998779297</ele>
        <time>2021-11-06T10:01:47.000Z</time>
      </trkpt>
      <trkpt lat="45.19797" lon="5.72918">
        <ele>294</ele>
        <time>2021-11-06T10:01:48.000Z</time>
      </trkpt>
      <trkpt lat="45.19797" lon="5.72919">
        <ele>293.60000610352</ele>
        <time>2021-11-06T10:01:49.000Z</time>
      </trkpt>
      <trkpt lat="45.19796" lon="5.72919">
        <ele>293.39999389648</ele>
        <time>2021-11-06T10:01:50.000Z</time>
      </trkpt>
      <trkpt lat="45.19795" lon="5.72918">
        <ele>293</ele>
        <time>2021-11-06T10:01:51.000Z</time>
      </trkpt>
      <trkpt lat="45.19793" lon="5.72917">
        <ele>292.60000610352</ele>
        <time>2021-11-06T10:01:52.000Z</time>
      </trkpt>
      <trkpt lat="45.19788" lon="5.72916">
        <ele>291.79998779297</ele>
        <time>2021-11-06T10:01:54.000Z</time>
      </trkpt>
      <trkpt lat="45.19786" lon="5.72916">
        <ele>291.60000610352</ele>
        <time>2021-11-06T10:01:55.000Z</time>
      </trkpt>
      <trkpt lat="45.19778" lon="5.7291">
        <ele>290.60000610352</ele>
        <time>2021-11-06T10:01:59.000Z</time>
      </trkpt>
      <trkpt lat="45.19775" lon="5.72909">
        <ele>290.20001220703</ele>
        <time>2021-11-06T10:02:00.000Z</time>
      </trkpt>
      <trkpt lat="45.1977" lon="5.72906">
        <ele>289.20001220703</ele>
        <time>2021-11-06T10:02:02.000Z</time>
      </trkpt>
      <trkpt lat="45.19758" lon="5.72903">
        <ele>288.39999389648</ele>
        <time>2021-11-06T10:02:06.000Z</time>
      </trkpt>
      <trkpt lat="45.19755" lon="5.72902">
        <ele>288</ele>
        <time>2021-11-06T10:02:07.000Z</time>
      </trkpt>
      <trkpt lat="45.19746" lon="5.72898">
        <ele>286.60000610352</ele>
        <time>2021-11-06T10:02:10.000Z</time>
      </trkpt>
      <trkpt lat="45.19736" lon="5.72894">
        <ele>286</ele>
        <time>2021-11-06T10:02:13.000Z</time>
      </trkpt>
      <trkpt lat="45.19733" lon="5.72893">
        <ele>285.60000610352</ele>
        <time>2021-11-06T10:02:14.000Z</time>
      </trkpt>
      <trkpt lat="45.19727" lon="5.72888">
        <ele>284.20001220703</ele>
        <time>2021-11-06T10:02:17.000Z</time>
      </trkpt>
      <trkpt lat="45.19721" lon="5.72885">
        <ele>283.39999389648</ele>
        <time>2021-11-06T10:02:19.000Z</time>
      </trkpt>
      <trkpt lat="45.19719" lon="5.72883">
        <ele>283.20001220703</ele>
        <time>2021-11-06T10:02:20.000Z</time>
      </trkpt>
      <trkpt lat="45.19716" lon="5.72881">
        <ele>283</ele>
        <time>2021-11-06T10:02:21.000Z</time>
      </trkpt>
      <trkpt lat="45.19705" lon="5.72873">
        <ele>281.79998779297</ele>
        <time>2021-11-06T10:02:25.000Z</time>
      </trkpt>
      <trkpt lat="45.19702" lon="5.72872">
        <ele>281.20001220703</ele>
        <time>2021-11-06T10:02:26.000Z</time>
      </trkpt>
      <trkpt lat="45.19694" lon="5.72868">
        <ele>280.60000610352</ele>
        <time>2021-11-06T10:02:28.000Z</time>
      </trkpt>
      <trkpt lat="45.19693" lon="5.72864">
        <ele>280</ele>
        <time>2021-11-06T10:02:31.000Z</time>
      </trkpt>
      <trkpt lat="45.19696" lon="5.72864">
        <ele>279.39999389648</ele>
        <time>2021-11-06T10:02:33.000Z</time>
      </trkpt>
      <trkpt lat="45.197" lon="5.72869">
        <ele>278.39999389648</ele>
        <time>2021-11-06T10:02:35.000Z</time>
      </trkpt>
      <trkpt lat="45.19706" lon="5.72878">
        <ele>277.39999389648</ele>
        <time>2021-11-06T10:02:38.000Z</time>
      </trkpt>
      <trkpt lat="45.19708" lon="5.72883">
        <ele>277</ele>
        <time>2021-11-06T10:02:39.000Z</time>
      </trkpt>
      <trkpt lat="45.19714" lon="5.72893">
        <ele>275.79998779297</ele>
        <time>2021-11-06T10:02:42.000Z</time>
      </trkpt>
      <trkpt lat="45.19719" lon="5.72898">
        <ele>275.20001220703</ele>
        <time>2021-11-06T10:02:44.000Z</time>
      </trkpt>
      <trkpt lat="45.19721" lon="5.72901">
        <ele>274.79998779297</ele>
        <time>2021-11-06T10:02:45.000Z</time>
      </trkpt>
      <trkpt lat="45.19727" lon="5.7291">
        <ele>273.79998779297</ele>
        <time>2021-11-06T10:02:48.000Z</time>
      </trkpt>
      <trkpt lat="45.19729" lon="5.72913">
        <ele>273.20001220703</ele>
        <time>2021-11-06T10:02:49.000Z</time>
      </trkpt>
      <trkpt lat="45.19736" lon="5.72924">
        <ele>272.60000610352</ele>
        <time>2021-11-06T10:02:52.000Z</time>
      </trkpt>
      <trkpt lat="45.19739" lon="5.7293">
        <ele>271.60000610352</ele>
        <time>2021-11-06T10:02:54.000Z</time>
      </trkpt>
      <trkpt lat="45.19739" lon="5.7293">
        <ele>271.39999389648</ele>
        <time>2021-11-06T10:02:55.000Z</time>
      </trkpt>
      <trkpt lat="45.19743" lon="5.72938">
        <ele>270.39999389648</ele>
        <time>2021-11-06T10:02:57.000Z</time>
      </trkpt>
      <trkpt lat="45.19746" lon="5.72945">
        <ele>270</ele>
        <time>2021-11-06T10:02:59.000Z</time>
      </trkpt>
      <trkpt lat="45.1975" lon="5.72956">
        <ele>269.20001220703</ele>
        <time>2021-11-06T10:03:02.000Z</time>
      </trkpt>
      <trkpt lat="45.19757" lon="5.72964">
        <ele>268</ele>
        <time>2021-11-06T10:03:05.000Z</time>
      </trkpt>
      <trkpt lat="45.19766" lon="5.72974">
        <ele>267</ele>
        <time>2021-11-06T10:03:08.000Z</time>
      </trkpt>
      <trkpt lat="45.19774" lon="5.72982">
        <ele>265.60000610352</ele>
        <time>2021-11-06T10:03:11.000Z</time>
      </trkpt>
      <trkpt lat="45.19785" lon="5.72992">
        <ele>264.20001220703</ele>
        <time>2021-11-06T10:03:15.000Z</time>
      </trkpt>
      <trkpt lat="45.19787" lon="5.72993">
        <ele>263.60000610352</ele>
        <time>2021-11-06T10:03:16.000Z</time>
      </trkpt>
      <trkpt lat="45.19795" lon="5.73001">
        <ele>263</ele>
        <time>2021-11-06T10:03:19.000Z</time>
      </trkpt>
      <trkpt lat="45.19798" lon="5.73006">
        <ele>262.20001220703</ele>
        <time>2021-11-06T10:03:21.000Z</time>
      </trkpt>
      <trkpt lat="45.19803" lon="5.73012">
        <ele>261.79998779297</ele>
        <time>2021-11-06T10:03:23.000Z</time>
      </trkpt>
      <trkpt lat="45.19808" lon="5.73018">
        <ele>261.20001220703</ele>
        <time>2021-11-06T10:03:26.000Z</time>
      </trkpt>
      <trkpt lat="45.19806" lon="5.73019">
        <ele>260.20001220703</ele>
        <time>2021-11-06T10:03:27.000Z</time>
      </trkpt>
      <trkpt lat="45.19805" lon="5.73019">
        <ele>259.79998779297</ele>
        <time>2021-11-06T10:03:28.000Z</time>
      </trkpt>
      <trkpt lat="45.19804" lon="5.73019">
        <ele>259.39999389648</ele>
        <time>2021-11-06T10:03:29.000Z</time>
      </trkpt>
      <trkpt lat="45.19801" lon="5.73018">
        <ele>259.20001220703</ele>
        <time>2021-11-06T10:03:30.000Z</time>
      </trkpt>
      <trkpt lat="45.19799" lon="5.73017">
        <ele>259</ele>
        <time>2021-11-06T10:03:31.000Z</time>
      </trkpt>
      <trkpt lat="45.19795" lon="5.73017">
        <ele>258.60000610352</ele>
        <time>2021-11-06T10:03:32.000Z</time>
      </trkpt>
      <trkpt lat="45.19792" lon="5.73016">
        <ele>258.20001220703</ele>
        <time>2021-11-06T10:03:33.000Z</time>
      </trkpt>
      <trkpt lat="45.19787" lon="5.73014">
        <ele>257.79998779297</ele>
        <time>2021-11-06T10:03:35.000Z</time>
      </trkpt>
      <trkpt lat="45.19781" lon="5.73013">
        <ele>256.79998779297</ele>
        <time>2021-11-06T10:03:37.000Z</time>
      </trkpt>
      <trkpt lat="45.19778" lon="5.73011">
        <ele>256.20001220703</ele>
        <time>2021-11-06T10:03:39.000Z</time>
      </trkpt>
      <trkpt lat="45.19774" lon="5.7301">
        <ele>255.80000305176</ele>
        <time>2021-11-06T10:03:41.000Z</time>
      </trkpt>
      <trkpt lat="45.19773" lon="5.73011">
        <ele>255.39999389648</ele>
        <time>2021-11-06T10:03:42.000Z</time>
      </trkpt>
      <trkpt lat="45.19773" lon="5.73013">
        <ele>255.19999694824</ele>
        <time>2021-11-06T10:03:43.000Z</time>
      </trkpt>
      <trkpt lat="45.19773" lon="5.73015">
        <ele>254.80000305176</ele>
        <time>2021-11-06T10:03:44.000Z</time>
      </trkpt>
      <trkpt lat="45.19779" lon="5.7302">
        <ele>253.80000305176</ele>
        <time>2021-11-06T10:03:47.000Z</time>
      </trkpt>
      <trkpt lat="45.19789" lon="5.73026">
        <ele>252.39999389648</ele>
        <time>2021-11-06T10:03:51.000Z</time>
      </trkpt>
      <trkpt lat="45.19797" lon="5.73033">
        <ele>251</ele>
        <time>2021-11-06T10:03:55.000Z</time>
      </trkpt>
      <trkpt lat="45.19801" lon="5.73037">
        <ele>250.39999389648</ele>
        <time>2021-11-06T10:03:57.000Z</time>
      </trkpt>
      <trkpt lat="45.19802" lon="5.73042">
        <ele>250</ele>
        <time>2021-11-06T10:03:59.000Z</time>
      </trkpt>
      <trkpt lat="45.19801" lon="5.73042">
        <ele>249.60000610352</ele>
        <time>2021-11-06T10:04:00.000Z</time>
      </trkpt>
      <trkpt lat="45.19798" lon="5.73042">
        <ele>249</ele>
        <time>2021-11-06T10:04:02.000Z</time>
      </trkpt>
      <trkpt lat="45.19796" lon="5.73041">
        <ele>248.39999389648</ele>
        <time>2021-11-06T10:04:03.000Z</time>
      </trkpt>
      <trkpt lat="45.19792" lon="5.73042">
        <ele>248.19999694824</ele>
        <time>2021-11-06T10:04:04.000Z</time>
      </trkpt>
      <trkpt lat="45.19785" lon="5.73041">
        <ele>247.39999389648</ele>
        <time>2021-11-06T10:04:06.000Z</time>
      </trkpt>
      <trkpt lat="45.1978" lon="5.7304">
        <ele>246.19999694824</ele>
        <time>2021-11-06T10:04:08.000Z</time>
      </trkpt>
      <trkpt lat="45.19775" lon="5.73041">
        <ele>245.60000610352</ele>
        <time>2021-11-06T10:04:10.000Z</time>
      </trkpt>
      <trkpt lat="45.19772" lon="5.73041">
        <ele>245</ele>
        <time>2021-11-06T10:04:11.000Z</time>
      </trkpt>
      <trkpt lat="45.19765" lon="5.7304">
        <ele>244</ele>
        <time>2021-11-06T10:04:14.000Z</time>
      </trkpt>
      <trkpt lat="45.19757" lon="5.73039">
        <ele>243.19999694824</ele>
        <time>2021-11-06T10:04:17.000Z</time>
      </trkpt>
      <trkpt lat="45.19756" lon="5.73039">
        <ele>242.60000610352</ele>
        <time>2021-11-06T10:04:19.000Z</time>
      </trkpt>
      <trkpt lat="45.19757" lon="5.7304">
        <ele>242.19999694824</ele>
        <time>2021-11-06T10:04:20.000Z</time>
      </trkpt>
      <trkpt lat="45.19767" lon="5.73042">
        <ele>241.39999389648</ele>
        <time>2021-11-06T10:04:23.000Z</time>
      </trkpt>
      <trkpt lat="45.19775" lon="5.73044">
        <ele>240.39999389648</ele>
        <time>2021-11-06T10:04:26.000Z</time>
      </trkpt>
      <trkpt lat="45.19783" lon="5.73046">
        <ele>239.39999389648</ele>
        <time>2021-11-06T10:04:29.000Z</time>
      </trkpt>
      <trkpt lat="45.19785" lon="5.73047">
        <ele>239</ele>
        <time>2021-11-06T10:04:30.000Z</time>
      </trkpt>
      <trkpt lat="45.19789" lon="5.7305">
        <ele>238.60000610352</ele>
        <time>2021-11-06T10:04:32.000Z</time>
      </trkpt>
      <trkpt lat="45.19794" lon="5.73051">
        <ele>238</ele>
        <time>2021-11-06T10:04:34.000Z</time>
      </trkpt>
      <trkpt lat="45.19798" lon="5.73057">
        <ele>237.19999694824</ele>
        <time>2021-11-06T10:04:37.000Z</time>
      </trkpt>
      <trkpt lat="45.19797" lon="5.7306">
        <ele>237</ele>
        <time>2021-11-06T10:04:38.000Z</time>
      </trkpt>
      <trkpt lat="45.19795" lon="5.73061">
        <ele>236</ele>
        <time>2021-11-06T10:04:40.000Z</time>
      </trkpt>
      <trkpt lat="45.19793" lon="5.73061">
        <ele>235.39999389648</ele>
        <time>2021-11-06T10:04:41.000Z</time>
      </trkpt>
      <trkpt lat="45.19786" lon="5.73057">
        <ele>234.60000610352</ele>
        <time>2021-11-06T10:04:45.000Z</time>
      </trkpt>
      <trkpt lat="45.19783" lon="5.73055">
        <ele>233.80000305176</ele>
        <time>2021-11-06T10:04:46.000Z</time>
      </trkpt>
      <trkpt lat="45.19778" lon="5.73053">
        <ele>233</ele>
        <time>2021-11-06T10:04:49.000Z</time>
      </trkpt>
      <trkpt lat="45.19776" lon="5.73051">
        <ele>232.39999389648</ele>
        <time>2021-11-06T10:04:50.000Z</time>
      </trkpt>
      <trkpt lat="45.19773" lon="5.73051">
        <ele>231.80000305176</ele>
        <time>2021-11-06T10:04:51.000Z</time>
      </trkpt>
      <trkpt lat="45.19765" lon="5.73052">
        <ele>231.39999389648</ele>
        <time>2021-11-06T10:04:53.000Z</time>
      </trkpt>
      <trkpt lat="45.19762" lon="5.73055">
        <ele>231</ele>
        <time>2021-11-06T10:04:55.000Z</time>
      </trkpt>
      <trkpt lat="45.19762" lon="5.73055">
        <ele>231</ele>
        <time>2021-11-06T10:04:56.000Z</time>
      </trkpt>
      <trkpt lat="45.19764" lon="5.73057">
        <ele>230.19999694824</ele>
        <time>2021-11-06T10:04:58.000Z</time>
      </trkpt>
      <trkpt lat="45.19765" lon="5.7306">
        <ele>230</ele>
        <time>2021-11-06T10:04:59.000Z</time>
      </trkpt>
      <trkpt lat="45.19767" lon="5.73062">
        <ele>229.39999389648</ele>
        <time>2021-11-06T10:05:00.000Z</time>
      </trkpt>
      <trkpt lat="45.19769" lon="5.73064">
        <ele>229.19999694824</ele>
        <time>2021-11-06T10:05:01.000Z</time>
      </trkpt>
      <trkpt lat="45.19772" lon="5.73066">
        <ele>228.39999389648</ele>
        <time>2021-11-06T10:05:03.000Z</time>
      </trkpt>
      <trkpt lat="45.19775" lon="5.73069">
        <ele>228</ele>
        <time>2021-11-06T10:05:05.000Z</time>
      </trkpt>
      <trkpt lat="45.19776" lon="5.73071">
        <ele>227.19999694824</ele>
        <time>2021-11-06T10:05:06.000Z</time>
      </trkpt>
      <trkpt lat="45.19779" lon="5.73073">
        <ele>226.80000305176</ele>
        <time>2021-11-06T10:05:07.000Z</time>
      </trkpt>
      <trkpt lat="45.19784" lon="5.73078">
        <ele>225.60000610352</ele>
        <time>2021-11-06T10:05:10.000Z</time>
      </trkpt>
      <trkpt lat="45.19786" lon="5.7308">
        <ele>225.39999389648</ele>
        <time>2021-11-06T10:05:11.000Z</time>
      </trkpt>
      <trkpt lat="45.19793" lon="5.73084">
        <ele>224.39999389648</ele>
        <time>2021-11-06T10:05:14.000Z</time>
      </trkpt>
      <trkpt lat="45.198" lon="5.73093">
        <ele>223.80000305176</ele>
        <time>2021-11-06T10:05:17.000Z</time>
      </trkpt>
      <trkpt lat="45.19801" lon="5.73098">
        <ele>223.19999694824</ele>
        <time>2021-11-06T10:05:19.000Z</time>
      </trkpt>
      <trkpt lat="45.19796" lon="5.73097">
        <ele>222.60000610352</ele>
        <time>2021-11-06T10:05:21.000Z</time>
      </trkpt>
      <trkpt lat="45.1979" lon="5.73095">
        <ele>221.80000305176</ele>
        <time>2021-11-06T10:05:23.000Z</time>
      </trkpt>
      <trkpt lat="45.19784" lon="5.73091">
        <ele>220.80000305176</ele>
        <time>2021-11-06T10:05:26.000Z</time>
      </trkpt>
      <trkpt lat="45.19777" lon="5.73088">
        <ele>219.60000610352</ele>
        <time>2021-11-06T10:05:29.000Z</time>
      </trkpt>
      <trkpt lat="45.1977" lon="5.73088">
        <ele>218.60000610352</ele>
        <time>2021-11-06T10:05:32.000Z</time>
      </trkpt>
      <trkpt lat="45.19766" lon="5.73089">
        <ele>218.39999389648</ele>
        <time>2021-11-06T10:05:34.000Z</time>
      </trkpt>
      <trkpt lat="45.19764" lon="5.73091">
        <ele>218.19999694824</ele>
        <time>2021-11-06T10:05:36.000Z</time>
      </trkpt>
      <trkpt lat="45.19767" lon="5.73095">
        <ele>217.39999389648</ele>
        <time>2021-11-06T10:05:39.000Z</time>
      </trkpt>
      <trkpt lat="45.19768" lon="5.73097">
        <ele>217</ele>
        <time>2021-11-06T10:05:40.000Z</time>
      </trkpt>
      <trkpt lat="45.1977" lon="5.73103">
        <ele>216</ele>
        <time>2021-11-06T10:05:44.000Z</time>
      </trkpt>
      <trkpt lat="45.19771" lon="5.73106">
        <ele>215.39999389648</ele>
        <time>2021-11-06T10:05:47.000Z</time>
      </trkpt>
      <trkpt lat="45.19772" lon="5.73108">
        <ele>215</ele>
        <time>2021-11-06T10:05:49.000Z</time>
      </trkpt>
      <trkpt lat="45.19788" lon="5.73122">
        <ele>213</ele>
        <time>2021-11-06T10:05:56.000Z</time>
      </trkpt>
      <trkpt lat="45.19802" lon="5.73124">
        <ele>212.80000305176</ele>
        <time>2021-11-06T10:05:57.000Z</time>
      </trkpt>
      <trkpt lat="45.19803" lon="5.73125">
        <ele>212.60000610352</ele>
        <time>2021-11-06T10:05:58.000Z</time>
      </trkpt>
      <trkpt lat="45.19801" lon="5.73128">
        <ele>212</ele>
        <time>2021-11-06T10:05:59.000Z</time>
      </trkpt>
      <trkpt lat="45.19797" lon="5.73131">
        <ele>211.80000305176</ele>
        <time>2021-11-06T10:06:00.000Z</time>
      </trkpt>
      <trkpt lat="45.19794" lon="5.73132">
        <ele>211.39999389648</ele>
        <time>2021-11-06T10:06:01.000Z</time>
      </trkpt>
      <trkpt lat="45.1979" lon="5.73134">
        <ele>211</ele>
        <time>2021-11-06T10:06:02.000Z</time>
      </trkpt>
      <trkpt lat="45.19788" lon="5.73138">
        <ele>210.39999389648</ele>
        <time>2021-11-06T10:06:04.000Z</time>
      </trkpt>
      <trkpt lat="45.19788" lon="5.73139">
        <ele>210</ele>
        <time>2021-11-06T10:06:05.000Z</time>
      </trkpt>
      <trkpt lat="45.19785" lon="5.73148">
        <ele>208.80000305176</ele>
        <time>2021-11-06T10:06:08.000Z</time>
      </trkpt>
      <trkpt lat="45.19784" lon="5.73154">
        <ele>208</ele>
        <time>2021-11-06T10:06:10.000Z</time>
      </trkpt>
      <trkpt lat="45.19782" lon="5.73159">
        <ele>207.80000305176</ele>
        <time>2021-11-06T10:06:11.000Z</time>
      </trkpt>
      <trkpt lat="45.1978" lon="5.73166">
        <ele>206.60000610352</ele>
        <time>2021-11-06T10:06:13.000Z</time>
      </trkpt>
      <trkpt lat="45.19779" lon="5.73172">
        <ele>205.60000610352</ele>
        <time>2021-11-06T10:06:15.000Z</time>
      </trkpt>
      <trkpt lat="45.19779" lon="5.73176">
        <ele>205.19999694824</ele>
        <time>2021-11-06T10:06:16.000Z</time>
      </trkpt>
      <trkpt lat="45.19781" lon="5.73195">
        <ele>204.60000610352</ele>
        <time>2021-11-06T10:06:21.000Z</time>
      </trkpt>
      <trkpt lat="45.19782" lon="5.73203">
        <ele>204.80000305176</ele>
        <time>2021-11-06T10:06:23.000Z</time>
      </trkpt>
      <trkpt lat="45.19779" lon="5.73222">
        <ele>204.80000305176</ele>
        <time>2021-11-06T10:06:28.000Z</time>
      </trkpt>
      <trkpt lat="45.19775" lon="5.73243">
        <ele>204.80000305176</ele>
        <time>2021-11-06T10:06:34.000Z</time>
      </trkpt>
      <trkpt lat="45.19767" lon="5.7326">
        <ele>205.39999389648</ele>
        <time>2021-11-06T10:06:38.000Z</time>
      </trkpt>
      <trkpt lat="45.19764" lon="5.73263">
        <ele>205.60000610352</ele>
        <time>2021-11-06T10:06:39.000Z</time>
      </trkpt>
      <trkpt lat="45.19757" lon="5.73273">
        <ele>206.19999694824</ele>
        <time>2021-11-06T10:06:43.000Z</time>
      </trkpt>
      <trkpt lat="45.19756" lon="5.73276">
        <ele>206.19999694824</ele>
        <time>2021-11-06T10:06:44.000Z</time>
      </trkpt>
      <trkpt lat="45.19749" lon="5.733">
        <ele>206.19999694824</ele>
        <time>2021-11-06T10:06:51.000Z</time>
      </trkpt>
      <trkpt lat="45.19742" lon="5.73325">
        <ele>206.39999389648</ele>
        <time>2021-11-06T10:06:58.000Z</time>
      </trkpt>
      <trkpt lat="45.19739" lon="5.73337">
        <ele>206.39999389648</ele>
        <time>2021-11-06T10:07:01.000Z</time>
      </trkpt>
      <trkpt lat="45.19735" lon="5.73353">
        <ele>206.19999694824</ele>
        <time>2021-11-06T10:07:05.000Z</time>
      </trkpt>
      <trkpt lat="45.19728" lon="5.73374">
        <ele>205.80000305176</ele>
        <time>2021-11-06T10:07:10.000Z</time>
      </trkpt>
      <trkpt lat="45.19724" lon="5.73385">
        <ele>205.60000610352</ele>
        <time>2021-11-06T10:07:13.000Z</time>
      </trkpt>
      <trkpt lat="45.1972" lon="5.73393">
        <ele>205.60000610352</ele>
        <time>2021-11-06T10:07:15.000Z</time>
      </trkpt>
      <trkpt lat="45.19708" lon="5.73413">
        <ele>204.39999389648</ele>
        <time>2021-11-06T10:07:21.000Z</time>
      </trkpt>
      <trkpt lat="45.19706" lon="5.73416">
        <ele>204</ele>
        <time>2021-11-06T10:07:23.000Z</time>
      </trkpt>
      <trkpt lat="45.19707" lon="5.7342">
        <ele>203.80000305176</ele>
        <time>2021-11-06T10:07:25.000Z</time>
      </trkpt>
      <trkpt lat="45.19706" lon="5.73422">
        <ele>203.60000610352</ele>
        <time>2021-11-06T10:07:26.000Z</time>
      </trkpt>
      <trkpt lat="45.19699" lon="5.73424">
        <ele>203.39999389648</ele>
        <time>2021-11-06T10:07:29.000Z</time>
      </trkpt>
      <trkpt lat="45.19697" lon="5.73422">
        <ele>203.19999694824</ele>
        <time>2021-11-06T10:07:30.000Z</time>
      </trkpt>
      <trkpt lat="45.1969" lon="5.73416">
        <ele>203.19999694824</ele>
        <time>2021-11-06T10:07:34.000Z</time>
      </trkpt>
      <trkpt lat="45.1968" lon="5.73423">
        <ele>203.19999694824</ele>
        <time>2021-11-06T10:07:38.000Z</time>
      </trkpt>
      <trkpt lat="45.19665" lon="5.73431">
        <ele>202.80000305176</ele>
        <time>2021-11-06T10:07:43.000Z</time>
      </trkpt>
      <trkpt lat="45.19648" lon="5.73442">
        <ele>203.19999694824</ele>
        <time>2021-11-06T10:07:49.000Z</time>
      </trkpt>
      <trkpt lat="45.19633" lon="5.73448">
        <ele>203.19999694824</ele>
        <time>2021-11-06T10:07:54.000Z</time>
      </trkpt>
      <trkpt lat="45.19631" lon="5.7345">
        <ele>203.19999694824</ele>
        <time>2021-11-06T10:07:55.000Z</time>
      </trkpt>
      <trkpt lat="45.19622" lon="5.73453">
        <ele>203.39999389648</ele>
        <time>2021-11-06T10:07:58.000Z</time>
      </trkpt>
      <trkpt lat="45.19606" lon="5.73453">
        <ele>203.39999389648</ele>
        <time>2021-11-06T10:08:03.000Z</time>
      </trkpt>
      <trkpt lat="45.19595" lon="5.73469">
        <ele>203.39999389648</ele>
        <time>2021-11-06T10:08:08.000Z</time>
      </trkpt>
      <trkpt lat="45.19581" lon="5.73486">
        <ele>203.60000610352</ele>
        <time>2021-11-06T10:08:15.000Z</time>
      </trkpt>
      <trkpt lat="45.1958" lon="5.73486">
        <ele>203.80000305176</ele>
        <time>2021-11-06T10:08:16.000Z</time>
      </trkpt>
      <trkpt lat="45.19564" lon="5.73485">
        <ele>204.19999694824</ele>
        <time>2021-11-06T10:08:22.000Z</time>
      </trkpt>
      <trkpt lat="45.19552" lon="5.73493">
        <ele>204.39999389648</ele>
        <time>2021-11-06T10:08:27.000Z</time>
      </trkpt>
      <trkpt lat="45.19545" lon="5.73498">
        <ele>204.60000610352</ele>
        <time>2021-11-06T10:08:30.000Z</time>
      </trkpt>
      <trkpt lat="45.19524" lon="5.73505">
        <ele>204.39999389648</ele>
        <time>2021-11-06T10:08:37.000Z</time>
      </trkpt>
      <trkpt lat="45.19507" lon="5.73515">
        <ele>204.60000610352</ele>
        <time>2021-11-06T10:08:43.000Z</time>
      </trkpt>
      <trkpt lat="45.19504" lon="5.73516">
        <ele>204.60000610352</ele>
        <time>2021-11-06T10:08:44.000Z</time>
      </trkpt>
      <trkpt lat="45.19487" lon="5.7353">
        <ele>205</ele>
        <time>2021-11-06T10:08:50.000Z</time>
      </trkpt>
      <trkpt lat="45.19485" lon="5.7353">
        <ele>205</ele>
        <time>2021-11-06T10:08:51.000Z</time>
      </trkpt>
      <trkpt lat="45.19472" lon="5.73537">
        <ele>205</ele>
        <time>2021-11-06T10:08:58.000Z</time>
      </trkpt>
      <trkpt lat="45.19464" lon="5.73546">
        <ele>205.19999694824</ele>
        <time>2021-11-06T10:09:03.000Z</time>
      </trkpt>
      <trkpt lat="45.19445" lon="5.7356">
        <ele>205.19999694824</ele>
        <time>2021-11-06T10:09:10.000Z</time>
      </trkpt>
      <trkpt lat="45.19442" lon="5.73562">
        <ele>205.19999694824</ele>
        <time>2021-11-06T10:09:11.000Z</time>
      </trkpt>
      <trkpt lat="45.19426" lon="5.73571">
        <ele>205.39999389648</ele>
        <time>2021-11-06T10:09:17.000Z</time>
      </trkpt>
      <trkpt lat="45.1942" lon="5.73572">
        <ele>205.39999389648</ele>
        <time>2021-11-06T10:09:19.000Z</time>
      </trkpt>
      <trkpt lat="45.19411" lon="5.7357">
        <ele>206</ele>
        <time>2021-11-06T10:09:24.000Z</time>
      </trkpt>
      <trkpt lat="45.19408" lon="5.73571">
        <ele>206</ele>
        <time>2021-11-06T10:09:25.000Z</time>
      </trkpt>
      <trkpt lat="45.19389" lon="5.7358">
        <ele>206</ele>
        <time>2021-11-06T10:09:31.000Z</time>
      </trkpt>
      <trkpt lat="45.19392" lon="5.73608">
        <ele>206</ele>
        <time>2021-11-06T10:09:35.000Z</time>
      </trkpt>
      <trkpt lat="45.19398" lon="5.73632">
        <ele>205.39999389648</ele>
        <time>2021-11-06T10:09:41.000Z</time>
      </trkpt>
      <trkpt lat="45.19413" lon="5.73641">
        <ele>205.39999389648</ele>
        <time>2021-11-06T10:09:46.000Z</time>
      </trkpt>
      <trkpt lat="45.19424" lon="5.7365">
        <ele>205.19999694824</ele>
        <time>2021-11-06T10:09:49.000Z</time>
      </trkpt>
      <trkpt lat="45.19444" lon="5.73661">
        <ele>205.60000610352</ele>
        <time>2021-11-06T10:09:54.000Z</time>
      </trkpt>
      <trkpt lat="45.19462" lon="5.73673">
        <ele>205</ele>
        <time>2021-11-06T10:10:00.000Z</time>
      </trkpt>
      <trkpt lat="45.19464" lon="5.73677">
        <ele>205</ele>
        <time>2021-11-06T10:10:01.000Z</time>
      </trkpt>
      <trkpt lat="45.19474" lon="5.73683">
        <ele>205</ele>
        <time>2021-11-06T10:10:05.000Z</time>
      </trkpt>
      <trkpt lat="45.19479" lon="5.73683">
        <ele>204.80000305176</ele>
        <time>2021-11-06T10:10:07.000Z</time>
      </trkpt>
      <trkpt lat="45.19488" lon="5.73689">
        <ele>205</ele>
        <time>2021-11-06T10:10:13.000Z</time>
      </trkpt>
      <trkpt lat="45.19497" lon="5.73688">
        <ele>205.19999694824</ele>
        <time>2021-11-06T10:10:17.000Z</time>
      </trkpt>
      <trkpt lat="45.19508" lon="5.73688">
        <ele>205.19999694824</ele>
        <time>2021-11-06T10:10:21.000Z</time>
      </trkpt>
      <trkpt lat="45.19519" lon="5.73687">
        <ele>205.39999389648</ele>
        <time>2021-11-06T10:10:24.000Z</time>
      </trkpt>
      <trkpt lat="45.19534" lon="5.73685">
        <ele>205.19999694824</ele>
        <time>2021-11-06T10:10:29.000Z</time>
      </trkpt>
      <trkpt lat="45.19548" lon="5.73685">
        <ele>205.39999389648</ele>
        <time>2021-11-06T10:10:33.000Z</time>
      </trkpt>
      <trkpt lat="45.19555" lon="5.73683">
        <ele>205.39999389648</ele>
        <time>2021-11-06T10:10:36.000Z</time>
      </trkpt>
      <trkpt lat="45.19568" lon="5.7368">
        <ele>205.60000610352</ele>
        <time>2021-11-06T10:10:41.000Z</time>
      </trkpt>
      <trkpt lat="45.19584" lon="5.73677">
        <ele>206</ele>
        <time>2021-11-06T10:10:47.000Z</time>
      </trkpt>
      <trkpt lat="45.19602" lon="5.73682">
        <ele>205.80000305176</ele>
        <time>2021-11-06T10:10:52.000Z</time>
      </trkpt>
      <trkpt lat="45.19608" lon="5.73681">
        <ele>205.80000305176</ele>
        <time>2021-11-06T10:10:54.000Z</time>
      </trkpt>
      <trkpt lat="45.19623" lon="5.73681">
        <ele>205.80000305176</ele>
        <time>2021-11-06T10:10:59.000Z</time>
      </trkpt>
      <trkpt lat="45.19628" lon="5.73685">
        <ele>205.80000305176</ele>
        <time>2021-11-06T10:11:01.000Z</time>
      </trkpt>
      <trkpt lat="45.1963" lon="5.73694">
        <ele>205.80000305176</ele>
        <time>2021-11-06T10:11:03.000Z</time>
      </trkpt>
      <trkpt lat="45.19636" lon="5.73721">
        <ele>205.39999389648</ele>
        <time>2021-11-06T10:11:09.000Z</time>
      </trkpt>
      <trkpt lat="45.19641" lon="5.73745">
        <ele>205.60000610352</ele>
        <time>2021-11-06T10:11:15.000Z</time>
      </trkpt>
      <trkpt lat="45.19646" lon="5.73773">
        <ele>205.80000305176</ele>
        <time>2021-11-06T10:11:21.000Z</time>
      </trkpt>
      <trkpt lat="45.19648" lon="5.73802">
        <ele>206</ele>
        <time>2021-11-06T10:11:28.000Z</time>
      </trkpt>
      <trkpt lat="45.19649" lon="5.7381">
        <ele>206.19999694824</ele>
        <time>2021-11-06T10:11:30.000Z</time>
      </trkpt>
      <trkpt lat="45.19653" lon="5.73835">
        <ele>206</ele>
        <time>2021-11-06T10:11:36.000Z</time>
      </trkpt>
      <trkpt lat="45.19655" lon="5.73843">
        <ele>206</ele>
        <time>2021-11-06T10:11:38.000Z</time>
      </trkpt>
      <trkpt lat="45.19661" lon="5.73861">
        <ele>206.19999694824</ele>
        <time>2021-11-06T10:11:43.000Z</time>
      </trkpt>
      <trkpt lat="45.19668" lon="5.73875">
        <ele>206</ele>
        <time>2021-11-06T10:11:47.000Z</time>
      </trkpt>
      <trkpt lat="45.19669" lon="5.73879">
        <ele>206</ele>
        <time>2021-11-06T10:11:48.000Z</time>
      </trkpt>
      <trkpt lat="45.19672" lon="5.73906">
        <ele>206.19999694824</ele>
        <time>2021-11-06T10:11:54.000Z</time>
      </trkpt>
      <trkpt lat="45.19671" lon="5.7391">
        <ele>206.19999694824</ele>
        <time>2021-11-06T10:11:55.000Z</time>
      </trkpt>
      <trkpt lat="45.19677" lon="5.73932">
        <ele>206.39999389648</ele>
        <time>2021-11-06T10:12:01.000Z</time>
      </trkpt>
      <trkpt lat="45.19678" lon="5.73936">
        <ele>206.60000610352</ele>
        <time>2021-11-06T10:12:02.000Z</time>
      </trkpt>
      <trkpt lat="45.19678" lon="5.73953">
        <ele>206.60000610352</ele>
        <time>2021-11-06T10:12:06.000Z</time>
      </trkpt>
      <trkpt lat="45.19678" lon="5.73957">
        <ele>206.39999389648</ele>
        <time>2021-11-06T10:12:07.000Z</time>
      </trkpt>
      <trkpt lat="45.19678" lon="5.73962">
        <ele>206.19999694824</ele>
        <time>2021-11-06T10:12:08.000Z</time>
      </trkpt>
      <trkpt lat="45.1968" lon="5.73975">
        <ele>206.19999694824</ele>
        <time>2021-11-06T10:12:11.000Z</time>
      </trkpt>
      <trkpt lat="45.1968" lon="5.73984">
        <ele>206</ele>
        <time>2021-11-06T10:12:13.000Z</time>
      </trkpt>
      <trkpt lat="45.19681" lon="5.73993">
        <ele>206.19999694824</ele>
        <time>2021-11-06T10:12:15.000Z</time>
      </trkpt>
      <trkpt lat="45.19683" lon="5.74002">
        <ele>206.19999694824</ele>
        <time>2021-11-06T10:12:18.000Z</time>
      </trkpt>
      <trkpt lat="45.19682" lon="5.74005">
        <ele>206.19999694824</ele>
        <time>2021-11-06T10:12:19.000Z</time>
      </trkpt>
      <trkpt lat="45.1968" lon="5.74005">
        <ele>206.19999694824</ele>
        <time>2021-11-06T10:12:20.000Z</time>
      </trkpt>
      <trkpt lat="45.19671" lon="5.74007">
        <ele>206.19999694824</ele>
        <time>2021-11-06T10:12:22.000Z</time>
      </trkpt>
      <trkpt lat="45.19653" lon="5.74004">
        <ele>206.19999694824</ele>
        <time>2021-11-06T10:12:28.000Z</time>
      </trkpt>
      <trkpt lat="45.1965" lon="5.74002">
        <ele>206.19999694824</ele>
        <time>2021-11-06T10:12:29.000Z</time>
      </trkpt>
      <trkpt lat="45.19636" lon="5.73999">
        <ele>206.19999694824</ele>
        <time>2021-11-06T10:12:34.000Z</time>
      </trkpt>
      <trkpt lat="45.19632" lon="5.74001">
        <ele>206</ele>
        <time>2021-11-06T10:12:35.000Z</time>
      </trkpt>
      <trkpt lat="45.19622" lon="5.74004">
        <ele>206.19999694824</ele>
        <time>2021-11-06T10:12:37.000Z</time>
      </trkpt>
      <trkpt lat="45.19612" lon="5.74001">
        <ele>206.19999694824</ele>
        <time>2021-11-06T10:12:40.000Z</time>
      </trkpt>
      <trkpt lat="45.19611" lon="5.73997">
        <ele>206.19999694824</ele>
        <time>2021-11-06T10:12:41.000Z</time>
      </trkpt>
      <trkpt lat="45.19612" lon="5.73987">
        <ele>206.19999694824</ele>
        <time>2021-11-06T10:12:43.000Z</time>
      </trkpt>
      <trkpt lat="45.19613" lon="5.7398">
        <ele>206.19999694824</ele>
        <time>2021-11-06T10:12:45.000Z</time>
      </trkpt>
      <trkpt lat="45.19617" lon="5.73969">
        <ele>206.39999389648</ele>
        <time>2021-11-06T10:12:48.000Z</time>
      </trkpt>
      <trkpt lat="45.1962" lon="5.73967">
        <ele>206.19999694824</ele>
        <time>2021-11-06T10:12:50.000Z</time>
      </trkpt>
      <trkpt lat="45.19634" lon="5.73969">
        <ele>206</ele>
        <time>2021-11-06T10:12:57.000Z</time>
      </trkpt>
      <trkpt lat="45.19635" lon="5.7397">
        <ele>206</ele>
        <time>2021-11-06T10:12:59.000Z</time>
      </trkpt>
      <trkpt lat="45.19635" lon="5.73969">
        <ele>206</ele>
        <time>2021-11-06T10:13:00.000Z</time>
      </trkpt>
      <trkpt lat="45.19635" lon="5.73969">
        <ele>206</ele>
        <time>2021-11-06T10:13:01.000Z</time>
      </trkpt>
      <trkpt lat="45.19635" lon="5.73971">
        <ele>206.19999694824</ele>
        <time>2021-11-06T10:13:03.000Z</time>
      </trkpt>
      <trkpt lat="45.19649" lon="5.73956">
        <ele>210.80000305176</ele>
        <time>2021-11-06T10:13:28.000Z</time>
      </trkpt>
      <trkpt lat="45.19645" lon="5.73959">
        <ele>211.19999694824</ele>
        <time>2021-11-06T10:13:29.000Z</time>
      </trkpt>
      <trkpt lat="45.19638" lon="5.73966">
        <ele>211.60000610352</ele>
        <time>2021-11-06T10:13:30.000Z</time>
      </trkpt>
      <trkpt lat="45.19641" lon="5.73975">
        <ele>212</ele>
        <time>2021-11-06T10:13:33.000Z</time>
      </trkpt>
      <trkpt lat="45.19642" lon="5.73976">
        <ele>212.19999694824</ele>
        <time>2021-11-06T10:13:34.000Z</time>
      </trkpt>
      <trkpt lat="45.19643" lon="5.73976">
        <ele>212.60000610352</ele>
        <time>2021-11-06T10:13:35.000Z</time>
      </trkpt>
      <trkpt lat="45.19643" lon="5.73977">
        <ele>213.19999694824</ele>
        <time>2021-11-06T10:13:37.000Z</time>
      </trkpt>
      <trkpt lat="45.19643" lon="5.73976">
        <ele>213.80000305176</ele>
        <time>2021-11-06T10:13:38.000Z</time>
      </trkpt>
      <trkpt lat="45.19644" lon="5.73976">
        <ele>214.19999694824</ele>
        <time>2021-11-06T10:13:39.000Z</time>
      </trkpt>
      <trkpt lat="45.19646" lon="5.73976">
        <ele>214.39999389648</ele>
        <time>2021-11-06T10:13:41.000Z</time>
      </trkpt>
      <trkpt lat="45.19645" lon="5.73974">
        <ele>214.60000610352</ele>
        <time>2021-11-06T10:13:45.000Z</time>
      </trkpt>
      <trkpt lat="45.19642" lon="5.73972">
        <ele>214.60000610352</ele>
        <time>2021-11-06T10:13:47.000Z</time>
      </trkpt>
      <trkpt lat="45.19643" lon="5.73972">
        <ele>214.60000610352</ele>
        <time>2021-11-06T10:13:49.000Z</time>
      </trkpt>
      <trkpt lat="45.19647" lon="5.73973">
        <ele>214.80000305176</ele>
        <time>2021-11-06T10:13:51.000Z</time>
      </trkpt>
      <trkpt lat="45.19648" lon="5.73973">
        <ele>214.80000305176</ele>
        <time>2021-11-06T10:13:52.000Z</time>
      </trkpt>
    </trkseg>
  </trk>
</gpx>